<?xml version="1.0" encoding="UTF-8" standalone="no" ?>
<gpx xmlns="http://www.topografix.com/GPX/1/1" xmlns:xsi="http://www.w3.org/2001/XMLSchema-instance" xsi:schemaLocation="http://www.topografix.com/GPX/1/1 http://www.topografix.com/GPX/1/1/gpx.xsd" version="1.1" creator="VisuGPX - https://www.visugpx.com">
  <metadata>
    <name>1º POrtugal LÉS A LÉS OFFROAD 2015</name>
  </metadata>
  <trk>
    <name><![CDATA[1º POrtugal LÉS A LÉS OFFROAD 2015]]></name>
    <trkseg>
      <trkpt lat="41.80373" lon="-6.74907">
        <ele>701.115</ele>
        <time>2015-09-22T23:20:46Z</time>
      </trkpt>
      <trkpt lat="41.80346" lon="-6.74835">
        <ele>691.365</ele>
        <time>2015-09-22T23:21:06Z</time>
      </trkpt>
      <trkpt lat="41.80404" lon="-6.74771">
        <ele>685.911</ele>
        <time>2015-09-22T23:21:26Z</time>
      </trkpt>
      <trkpt lat="41.80484" lon="-6.74799">
        <ele>675.008</ele>
        <time>2015-08-14T06:48:38Z</time>
      </trkpt>
      <trkpt lat="41.80445" lon="-6.74612">
        <ele>664.012</ele>
        <time>2015-08-14T06:49:05Z</time>
      </trkpt>
      <trkpt lat="41.80473" lon="-6.74469">
        <ele>665.351</ele>
        <time>2015-08-14T06:49:17Z</time>
      </trkpt>
      <trkpt lat="41.80515" lon="-6.74308">
        <ele>670.469</ele>
        <time>2015-08-14T06:49:32Z</time>
      </trkpt>
      <trkpt lat="41.80512" lon="-6.74297">
        <ele>670.598</ele>
        <time>2015-08-14T06:49:33Z</time>
      </trkpt>
      <trkpt lat="41.80408" lon="-6.74128">
        <ele>682.278</ele>
        <time>2015-08-14T06:51:10Z</time>
      </trkpt>
      <trkpt lat="41.80275" lon="-6.73787">
        <ele>680.641</ele>
        <time>2015-08-14T06:51:52Z</time>
      </trkpt>
      <trkpt lat="41.80067" lon="-6.73582">
        <ele>682.599</ele>
        <time>2015-08-14T06:52:25Z</time>
      </trkpt>
      <trkpt lat="41.79971" lon="-6.73395">
        <ele>683.343</ele>
        <time>2015-08-14T06:52:49Z</time>
      </trkpt>
      <trkpt lat="41.79906" lon="-6.73253">
        <ele>674.787</ele>
        <time>2015-08-14T06:53:06Z</time>
      </trkpt>
      <trkpt lat="41.799" lon="-6.73159">
        <ele>667.142</ele>
        <time>2015-08-14T06:53:18Z</time>
      </trkpt>
      <trkpt lat="41.79856" lon="-6.73085">
        <ele>656.726</ele>
        <time>2015-08-14T06:53:29Z</time>
      </trkpt>
      <trkpt lat="41.79839" lon="-6.72956">
        <ele>642.908</ele>
        <time>2015-08-14T06:53:52Z</time>
      </trkpt>
      <trkpt lat="41.79811" lon="-6.72931">
        <ele>640.629</ele>
        <time>2015-08-14T06:54:03Z</time>
      </trkpt>
      <trkpt lat="41.79785" lon="-6.72899">
        <ele>637.138</ele>
        <time>2015-08-14T06:54:07Z</time>
      </trkpt>
      <trkpt lat="41.7974" lon="-6.7282">
        <ele>626.026</ele>
        <time>2015-08-14T06:54:14Z</time>
      </trkpt>
      <trkpt lat="41.79586" lon="-6.72693">
        <ele>621.095</ele>
        <time>2015-08-14T06:54:32Z</time>
      </trkpt>
      <trkpt lat="41.79339" lon="-6.72563">
        <ele>622.815</ele>
        <time>2015-08-14T06:54:53Z</time>
      </trkpt>
      <trkpt lat="41.79011" lon="-6.72378">
        <ele>623.168</ele>
        <time>2015-08-14T06:55:20Z</time>
      </trkpt>
      <trkpt lat="41.78959" lon="-6.72311">
        <ele>620.086</ele>
        <time>2015-08-14T06:55:29Z</time>
      </trkpt>
      <trkpt lat="41.78875" lon="-6.72217">
        <ele>609.65</ele>
        <time>2015-08-14T06:55:42Z</time>
      </trkpt>
      <trkpt lat="41.78526" lon="-6.72077">
        <ele>572.473</ele>
        <time>2015-08-14T06:56:21Z</time>
      </trkpt>
      <trkpt lat="41.78483" lon="-6.71961">
        <ele>571.285</ele>
        <time>2015-08-14T06:56:35Z</time>
      </trkpt>
      <trkpt lat="41.7836" lon="-6.71937">
        <ele>573.613</ele>
        <time>2015-08-14T06:56:56Z</time>
      </trkpt>
      <trkpt lat="41.78288" lon="-6.71842">
        <ele>564.708</ele>
        <time>2015-08-14T06:57:10Z</time>
      </trkpt>
      <trkpt lat="41.78277" lon="-6.71825">
        <ele>563.698</ele>
        <time>2015-08-14T06:57:13Z</time>
      </trkpt>
      <trkpt lat="41.78182" lon="-6.71804">
        <ele>566.087</ele>
        <time>2015-08-14T06:57:28Z</time>
      </trkpt>
      <trkpt lat="41.78089" lon="-6.71718">
        <ele>555.525</ele>
        <time>2015-08-14T06:57:43Z</time>
      </trkpt>
      <trkpt lat="41.77861" lon="-6.71646">
        <ele>528.384</ele>
        <time>2015-08-14T06:58:05Z</time>
      </trkpt>
      <trkpt lat="41.77756" lon="-6.7157">
        <ele>514.394</ele>
        <time>2015-08-14T06:58:12Z</time>
      </trkpt>
      <trkpt lat="41.77521" lon="-6.7148">
        <ele>508.957</ele>
        <time>2015-08-14T06:58:26Z</time>
      </trkpt>
      <trkpt lat="41.77431" lon="-6.7148">
        <ele>517.915</ele>
        <time>2015-08-14T06:58:31Z</time>
      </trkpt>
      <trkpt lat="41.77321" lon="-6.71544">
        <ele>530.739</ele>
        <time>2015-08-14T06:58:39Z</time>
      </trkpt>
      <trkpt lat="41.77177" lon="-6.71711">
        <ele>543.556</ele>
        <time>2015-08-14T06:58:50Z</time>
      </trkpt>
      <trkpt lat="41.77022" lon="-6.71827">
        <ele>561.759</ele>
        <time>2015-08-14T06:59:00Z</time>
      </trkpt>
      <trkpt lat="41.76814" lon="-6.71871">
        <ele>578.214</ele>
        <time>2015-08-14T06:59:13Z</time>
      </trkpt>
      <trkpt lat="41.76787" lon="-6.7189">
        <ele>580.108</ele>
        <time>2015-08-14T06:59:15Z</time>
      </trkpt>
      <trkpt lat="41.76758" lon="-6.7192">
        <ele>579.236</ele>
        <time>2015-08-14T06:59:18Z</time>
      </trkpt>
      <trkpt lat="41.76719" lon="-6.72158">
        <ele>577.865</ele>
        <time>2015-08-14T06:59:33Z</time>
      </trkpt>
      <trkpt lat="41.76683" lon="-6.72178">
        <ele>574.383</ele>
        <time>2015-08-14T06:59:41Z</time>
      </trkpt>
      <trkpt lat="41.76588" lon="-6.72103">
        <ele>560.782</ele>
        <time>2015-08-14T07:00:20Z</time>
      </trkpt>
      <trkpt lat="41.76571" lon="-6.72044">
        <ele>550.842</ele>
        <time>2015-08-14T07:00:28Z</time>
      </trkpt>
      <trkpt lat="41.76509" lon="-6.71961">
        <ele>539.435</ele>
        <time>2015-08-14T07:00:39Z</time>
      </trkpt>
      <trkpt lat="41.76449" lon="-6.71725">
        <ele>529.293</ele>
        <time>2015-08-14T07:01:03Z</time>
      </trkpt>
      <trkpt lat="41.76375" lon="-6.71584">
        <ele>529.087</ele>
        <time>2015-08-14T07:01:34Z</time>
      </trkpt>
      <trkpt lat="41.76287" lon="-6.7151">
        <ele>538.962</ele>
        <time>2015-08-14T07:01:45Z</time>
      </trkpt>
      <trkpt lat="41.76249" lon="-6.71339">
        <ele>555.983</ele>
        <time>2015-08-14T07:02:02Z</time>
      </trkpt>
      <trkpt lat="41.76248" lon="-6.71315">
        <ele>556.511</ele>
        <time>2015-08-14T07:02:04Z</time>
      </trkpt>
      <trkpt lat="41.76193" lon="-6.71084">
        <ele>546.708</ele>
        <time>2015-08-14T07:02:23Z</time>
      </trkpt>
      <trkpt lat="41.76189" lon="-6.70949">
        <ele>527.477</ele>
        <time>2015-08-14T07:02:34Z</time>
      </trkpt>
      <trkpt lat="41.76159" lon="-6.70767">
        <ele>510.926</ele>
        <time>2015-08-14T07:03:07Z</time>
      </trkpt>
      <trkpt lat="41.7616" lon="-6.70645">
        <ele>488.954</ele>
        <time>2015-08-14T07:03:21Z</time>
      </trkpt>
      <trkpt lat="41.76212" lon="-6.70511">
        <ele>479.433</ele>
        <time>2015-08-14T07:04:36Z</time>
      </trkpt>
      <trkpt lat="41.75962" lon="-6.70733">
        <ele>480.253</ele>
        <time>2015-08-14T07:05:15Z</time>
      </trkpt>
      <trkpt lat="41.75955" lon="-6.70847">
        <ele>481.036</ele>
        <time>2015-08-14T07:05:25Z</time>
      </trkpt>
      <trkpt lat="41.76016" lon="-6.71041">
        <ele>484.974</ele>
        <time>2015-08-14T07:05:42Z</time>
      </trkpt>
      <trkpt lat="41.76015" lon="-6.71105">
        <ele>485.558</ele>
        <time>2015-08-14T07:05:47Z</time>
      </trkpt>
      <trkpt lat="41.75915" lon="-6.71353">
        <ele>482.564</ele>
        <time>2015-08-14T07:06:07Z</time>
      </trkpt>
      <trkpt lat="41.75764" lon="-6.71624">
        <ele>483.306</ele>
        <time>2015-08-14T07:06:33Z</time>
      </trkpt>
      <trkpt lat="41.75761" lon="-6.71627">
        <ele>483.316</ele>
        <time>2015-08-14T07:07:16Z</time>
      </trkpt>
      <trkpt lat="41.7573" lon="-6.71591">
        <ele>486.008</ele>
        <time>2015-08-14T07:07:27Z</time>
      </trkpt>
      <trkpt lat="41.75709" lon="-6.71411">
        <ele>498.677</ele>
        <time>2015-08-14T07:07:42Z</time>
      </trkpt>
      <trkpt lat="41.75717" lon="-6.71306">
        <ele>506.226</ele>
        <time>2015-08-14T07:07:50Z</time>
      </trkpt>
      <trkpt lat="41.75688" lon="-6.71257">
        <ele>513.814</ele>
        <time>2015-08-14T07:07:56Z</time>
      </trkpt>
      <trkpt lat="41.75608" lon="-6.71318">
        <ele>533.033</ele>
        <time>2015-08-14T07:08:09Z</time>
      </trkpt>
      <trkpt lat="41.756" lon="-6.71337">
        <ele>534.783</ele>
        <time>2015-08-14T07:08:11Z</time>
      </trkpt>
      <trkpt lat="41.7555" lon="-6.71383">
        <ele>540.046</ele>
        <time>2015-08-14T07:08:19Z</time>
      </trkpt>
      <trkpt lat="41.75478" lon="-6.71403">
        <ele>551.884</ele>
        <time>2015-08-14T07:08:31Z</time>
      </trkpt>
      <trkpt lat="41.75466" lon="-6.71244">
        <ele>578.338</ele>
        <time>2015-08-14T07:08:54Z</time>
      </trkpt>
      <trkpt lat="41.75419" lon="-6.71277">
        <ele>587.685</ele>
        <time>2015-08-14T07:09:03Z</time>
      </trkpt>
      <trkpt lat="41.75221" lon="-6.71344">
        <ele>616.189</ele>
        <time>2015-08-14T07:09:32Z</time>
      </trkpt>
      <trkpt lat="41.75109" lon="-6.71456">
        <ele>637.017</ele>
        <time>2015-08-14T07:09:57Z</time>
      </trkpt>
      <trkpt lat="41.75053" lon="-6.71472">
        <ele>643.708</ele>
        <time>2015-08-14T07:10:14Z</time>
      </trkpt>
      <trkpt lat="41.75143" lon="-6.71086">
        <ele>693.819</ele>
        <time>2015-08-14T07:11:07Z</time>
      </trkpt>
      <trkpt lat="41.75125" lon="-6.71059">
        <ele>698.188</ele>
        <time>2015-08-14T07:11:12Z</time>
      </trkpt>
      <trkpt lat="41.75108" lon="-6.71064">
        <ele>701.056</ele>
        <time>2015-08-14T07:11:15Z</time>
      </trkpt>
      <trkpt lat="41.74945" lon="-6.71118">
        <ele>720.055</ele>
        <time>2015-08-14T07:11:38Z</time>
      </trkpt>
      <trkpt lat="41.74575" lon="-6.71265">
        <ele>743.995</ele>
        <time>2015-08-14T07:12:21Z</time>
      </trkpt>
      <trkpt lat="41.74336" lon="-6.71109">
        <ele>768.228</ele>
        <time>2015-08-14T07:12:58Z</time>
      </trkpt>
      <trkpt lat="41.74294" lon="-6.71107">
        <ele>770.816</ele>
        <time>2015-08-14T07:13:09Z</time>
      </trkpt>
      <trkpt lat="41.74209" lon="-6.7101">
        <ele>777.65</ele>
        <time>2015-08-14T07:15:22Z</time>
      </trkpt>
      <trkpt lat="41.74136" lon="-6.70953">
        <ele>777.272</ele>
        <time>2015-08-14T07:15:32Z</time>
      </trkpt>
      <trkpt lat="41.74008" lon="-6.71009">
        <ele>785.213</ele>
        <time>2015-08-14T07:15:53Z</time>
      </trkpt>
      <trkpt lat="41.73713" lon="-6.7113">
        <ele>796.614</ele>
        <time>2015-08-14T07:17:00Z</time>
      </trkpt>
      <trkpt lat="41.73296" lon="-6.71169">
        <ele>807.408</ele>
        <time>2015-08-14T07:18:19Z</time>
      </trkpt>
      <trkpt lat="41.73142" lon="-6.71136">
        <ele>813.558</ele>
        <time>2015-08-14T07:18:36Z</time>
      </trkpt>
      <trkpt lat="41.72926" lon="-6.71238">
        <ele>805.897</ele>
        <time>2015-08-14T07:19:59Z</time>
      </trkpt>
      <trkpt lat="41.72718" lon="-6.71211">
        <ele>803.125</ele>
        <time>2015-08-14T07:20:11Z</time>
      </trkpt>
      <trkpt lat="41.7266" lon="-6.71142">
        <ele>800.434</ele>
        <time>2015-08-14T07:20:15Z</time>
      </trkpt>
      <trkpt lat="41.72496" lon="-6.70937">
        <ele>801.334</ele>
        <time>2015-08-14T07:20:26Z</time>
      </trkpt>
      <trkpt lat="41.72195" lon="-6.70796">
        <ele>795.347</ele>
        <time>2015-08-14T07:20:41Z</time>
      </trkpt>
      <trkpt lat="41.717" lon="-6.70614">
        <ele>772.395</ele>
        <time>2015-08-14T07:21:57Z</time>
      </trkpt>
      <trkpt lat="41.71693" lon="-6.70576">
        <ele>773.189</ele>
        <time>2015-08-14T07:22:07Z</time>
      </trkpt>
      <trkpt lat="41.71655" lon="-6.70548">
        <ele>769.384</ele>
        <time>2015-08-14T07:22:18Z</time>
      </trkpt>
      <trkpt lat="41.71567" lon="-6.70621">
        <ele>765.707</ele>
        <time>2015-08-14T07:22:37Z</time>
      </trkpt>
      <trkpt lat="41.71479" lon="-6.7068">
        <ele>763.317</ele>
        <time>2015-08-14T07:22:50Z</time>
      </trkpt>
      <trkpt lat="41.7139" lon="-6.70713">
        <ele>757.008</ele>
        <time>2015-08-14T07:23:00Z</time>
      </trkpt>
      <trkpt lat="41.71308" lon="-6.70703">
        <ele>751.439</ele>
        <time>2015-08-14T07:23:08Z</time>
      </trkpt>
      <trkpt lat="41.71268" lon="-6.70672">
        <ele>750.088</ele>
        <time>2015-08-14T07:23:14Z</time>
      </trkpt>
      <trkpt lat="41.71256" lon="-6.70612">
        <ele>748.686</ele>
        <time>2015-08-14T07:23:22Z</time>
      </trkpt>
      <trkpt lat="41.71222" lon="-6.70612">
        <ele>748.095</ele>
        <time>2015-08-14T07:23:28Z</time>
      </trkpt>
      <trkpt lat="41.71194" lon="-6.70787">
        <ele>756.065</ele>
        <time>2015-08-14T07:23:51Z</time>
      </trkpt>
      <trkpt lat="41.71112" lon="-6.7084">
        <ele>766.718</ele>
        <time>2015-08-14T07:25:01Z</time>
      </trkpt>
      <trkpt lat="41.71096" lon="-6.70892">
        <ele>772.926</ele>
        <time>2015-08-14T07:25:09Z</time>
      </trkpt>
      <trkpt lat="41.71067" lon="-6.71014">
        <ele>787.27</ele>
        <time>2015-08-14T07:25:24Z</time>
      </trkpt>
      <trkpt lat="41.71044" lon="-6.71156">
        <ele>797.218</ele>
        <time>2015-08-14T07:25:40Z</time>
      </trkpt>
      <trkpt lat="41.71058" lon="-6.71299">
        <ele>802.698</ele>
        <time>2015-08-14T07:25:51Z</time>
      </trkpt>
      <trkpt lat="41.70939" lon="-6.71815">
        <ele>790.617</ele>
        <time>2015-08-14T07:26:30Z</time>
      </trkpt>
      <trkpt lat="41.70922" lon="-6.71939">
        <ele>784.608</ele>
        <time>2015-08-14T07:26:39Z</time>
      </trkpt>
      <trkpt lat="41.70961" lon="-6.72018">
        <ele>786.992</ele>
        <time>2015-08-14T07:26:49Z</time>
      </trkpt>
      <trkpt lat="41.70955" lon="-6.72041">
        <ele>786.091</ele>
        <time>2015-08-14T07:26:52Z</time>
      </trkpt>
      <trkpt lat="41.70886" lon="-6.7211">
        <ele>789.529</ele>
        <time>2015-08-14T07:27:03Z</time>
      </trkpt>
      <trkpt lat="41.70833" lon="-6.72215">
        <ele>796.138</ele>
        <time>2015-08-14T07:27:14Z</time>
      </trkpt>
      <trkpt lat="41.70806" lon="-6.72269">
        <ele>799.068</ele>
        <time>2015-08-14T07:27:20Z</time>
      </trkpt>
      <trkpt lat="41.70757" lon="-6.72285">
        <ele>800.821</ele>
        <time>2015-08-14T07:27:26Z</time>
      </trkpt>
      <trkpt lat="41.70614" lon="-6.72355">
        <ele>797.299</ele>
        <time>2015-08-14T07:27:46Z</time>
      </trkpt>
      <trkpt lat="41.70568" lon="-6.72442">
        <ele>802.163</ele>
        <time>2015-08-14T07:28:00Z</time>
      </trkpt>
      <trkpt lat="41.70461" lon="-6.72502">
        <ele>800.412</ele>
        <time>2015-08-14T07:28:16Z</time>
      </trkpt>
      <trkpt lat="41.70379" lon="-6.72625">
        <ele>810.832</ele>
        <time>2015-08-14T07:28:33Z</time>
      </trkpt>
      <trkpt lat="41.70156" lon="-6.72716">
        <ele>830.705</ele>
        <time>2015-08-14T07:29:00Z</time>
      </trkpt>
      <trkpt lat="41.69973" lon="-6.72666">
        <ele>822.008</ele>
        <time>2015-08-14T07:30:17Z</time>
      </trkpt>
      <trkpt lat="41.69888" lon="-6.72798">
        <ele>824.052</ele>
        <time>2015-08-14T07:33:42Z</time>
      </trkpt>
      <trkpt lat="41.69864" lon="-6.72804">
        <ele>824.941</ele>
        <time>2015-08-14T07:33:46Z</time>
      </trkpt>
      <trkpt lat="41.69832" lon="-6.72818">
        <ele>825.529</ele>
        <time>2015-08-14T07:33:51Z</time>
      </trkpt>
      <trkpt lat="41.69754" lon="-6.72914">
        <ele>829.288</ele>
        <time>2015-08-14T07:34:02Z</time>
      </trkpt>
      <trkpt lat="41.69413" lon="-6.73093">
        <ele>821.328</ele>
        <time>2015-08-14T07:35:04Z</time>
      </trkpt>
      <trkpt lat="41.69171" lon="-6.73432">
        <ele>806.821</ele>
        <time>2015-08-14T07:35:40Z</time>
      </trkpt>
      <trkpt lat="41.69098" lon="-6.73663">
        <ele>801.949</ele>
        <time>2015-08-14T07:36:01Z</time>
      </trkpt>
      <trkpt lat="41.68818" lon="-6.73972">
        <ele>806.013</ele>
        <time>2015-08-14T07:36:38Z</time>
      </trkpt>
      <trkpt lat="41.68584" lon="-6.74319">
        <ele>809.579</ele>
        <time>2015-08-14T07:37:22Z</time>
      </trkpt>
      <trkpt lat="41.68474" lon="-6.74537">
        <ele>815.405</ele>
        <time>2015-08-14T07:37:50Z</time>
      </trkpt>
      <trkpt lat="41.68464" lon="-6.74628">
        <ele>819.625</ele>
        <time>2015-08-14T07:38:15Z</time>
      </trkpt>
      <trkpt lat="41.68411" lon="-6.74781">
        <ele>822.508</ele>
        <time>2015-08-14T07:39:15Z</time>
      </trkpt>
      <trkpt lat="41.68114" lon="-6.75052">
        <ele>838.888</ele>
        <time>2015-08-14T07:40:08Z</time>
      </trkpt>
      <trkpt lat="41.67842" lon="-6.7545">
        <ele>854.157</ele>
        <time>2015-08-14T07:40:54Z</time>
      </trkpt>
      <trkpt lat="41.6783" lon="-6.75471">
        <ele>855.985</ele>
        <time>2015-08-14T07:40:57Z</time>
      </trkpt>
      <trkpt lat="41.67378" lon="-6.7576">
        <ele>857.014</ele>
        <time>2015-08-14T07:41:47Z</time>
      </trkpt>
      <trkpt lat="41.67149" lon="-6.75804">
        <ele>863.444</ele>
        <time>2015-08-14T07:42:43Z</time>
      </trkpt>
      <trkpt lat="41.67112" lon="-6.75877">
        <ele>861.047</ele>
        <time>2015-08-14T07:42:54Z</time>
      </trkpt>
      <trkpt lat="41.6707" lon="-6.75772">
        <ele>859.275</ele>
        <time>2015-08-14T07:44:11Z</time>
      </trkpt>
      <trkpt lat="41.66955" lon="-6.75744">
        <ele>857.239</ele>
        <time>2015-08-14T07:44:32Z</time>
      </trkpt>
      <trkpt lat="41.66905" lon="-6.75769">
        <ele>857.599</ele>
        <time>2015-08-14T07:45:01Z</time>
      </trkpt>
      <trkpt lat="41.66754" lon="-6.75754">
        <ele>855.807</ele>
        <time>2015-08-14T07:45:17Z</time>
      </trkpt>
      <trkpt lat="41.6666" lon="-6.75736">
        <ele>854.627</ele>
        <time>2015-08-14T07:45:26Z</time>
      </trkpt>
      <trkpt lat="41.66471" lon="-6.75598">
        <ele>844.408</ele>
        <time>2015-08-14T07:45:50Z</time>
      </trkpt>
      <trkpt lat="41.66335" lon="-6.75586">
        <ele>835.97</ele>
        <time>2015-08-14T07:46:04Z</time>
      </trkpt>
      <trkpt lat="41.66205" lon="-6.75529">
        <ele>820.879</ele>
        <time>2015-08-14T07:46:17Z</time>
      </trkpt>
      <trkpt lat="41.66138" lon="-6.75467">
        <ele>813.057</ele>
        <time>2015-08-14T07:46:24Z</time>
      </trkpt>
      <trkpt lat="41.66099" lon="-6.7534">
        <ele>807.476</ele>
        <time>2015-08-14T07:46:34Z</time>
      </trkpt>
      <trkpt lat="41.65935" lon="-6.7528">
        <ele>789.626</ele>
        <time>2015-08-14T07:46:47Z</time>
      </trkpt>
      <trkpt lat="41.6574" lon="-6.75194">
        <ele>774.979</ele>
        <time>2015-08-14T07:47:03Z</time>
      </trkpt>
      <trkpt lat="41.65644" lon="-6.75074">
        <ele>760.017</ele>
        <time>2015-08-14T07:47:16Z</time>
      </trkpt>
      <trkpt lat="41.65458" lon="-6.75191">
        <ele>735.831</ele>
        <time>2015-08-14T07:47:34Z</time>
      </trkpt>
      <trkpt lat="41.65138" lon="-6.75211">
        <ele>738.136</ele>
        <time>2015-08-14T07:48:03Z</time>
      </trkpt>
      <trkpt lat="41.65035" lon="-6.74928">
        <ele>777.617</ele>
        <time>2015-08-14T07:48:39Z</time>
      </trkpt>
      <trkpt lat="41.64954" lon="-6.74774">
        <ele>793.018</ele>
        <time>2015-08-14T07:49:00Z</time>
      </trkpt>
      <trkpt lat="41.6492" lon="-6.74613">
        <ele>806.408</ele>
        <time>2015-08-14T07:49:15Z</time>
      </trkpt>
      <trkpt lat="41.64873" lon="-6.74579">
        <ele>812.224</ele>
        <time>2015-08-14T07:49:22Z</time>
      </trkpt>
      <trkpt lat="41.64751" lon="-6.74594">
        <ele>826.073</ele>
        <time>2015-08-14T07:49:36Z</time>
      </trkpt>
      <trkpt lat="41.64686" lon="-6.74559">
        <ele>831.781</ele>
        <time>2015-08-14T07:49:45Z</time>
      </trkpt>
      <trkpt lat="41.64644" lon="-6.74505">
        <ele>833.81</ele>
        <time>2015-08-14T07:49:51Z</time>
      </trkpt>
      <trkpt lat="41.64558" lon="-6.74421">
        <ele>838.22</ele>
        <time>2015-08-14T07:50:02Z</time>
      </trkpt>
      <trkpt lat="41.64532" lon="-6.74364">
        <ele>839.993</ele>
        <time>2015-08-14T07:50:10Z</time>
      </trkpt>
      <trkpt lat="41.64471" lon="-6.74305">
        <ele>840.981</ele>
        <time>2015-08-14T07:51:17Z</time>
      </trkpt>
      <trkpt lat="41.64205" lon="-6.74131">
        <ele>830.185</ele>
        <time>2015-08-14T07:51:58Z</time>
      </trkpt>
      <trkpt lat="41.64211" lon="-6.74074">
        <ele>828.789</ele>
        <time>2015-08-14T07:52:47Z</time>
      </trkpt>
      <trkpt lat="41.64115" lon="-6.7407">
        <ele>823.106</ele>
        <time>2015-08-14T07:53:02Z</time>
      </trkpt>
      <trkpt lat="41.6399" lon="-6.74008">
        <ele>823.126</ele>
        <time>2015-08-14T07:53:19Z</time>
      </trkpt>
      <trkpt lat="41.63974" lon="-6.74004">
        <ele>824.508</ele>
        <time>2015-08-14T07:53:53Z</time>
      </trkpt>
      <trkpt lat="41.63876" lon="-6.74107">
        <ele>813.539</ele>
        <time>2015-08-14T07:54:48Z</time>
      </trkpt>
      <trkpt lat="41.63814" lon="-6.74099">
        <ele>804.918</ele>
        <time>2015-08-14T07:54:56Z</time>
      </trkpt>
      <trkpt lat="41.63552" lon="-6.74163">
        <ele>777.116</ele>
        <time>2015-08-14T07:55:58Z</time>
      </trkpt>
      <trkpt lat="41.63445" lon="-6.74133">
        <ele>767.285</ele>
        <time>2015-08-14T07:56:12Z</time>
      </trkpt>
      <trkpt lat="41.63342" lon="-6.74162">
        <ele>750.335</ele>
        <time>2015-08-14T07:56:27Z</time>
      </trkpt>
      <trkpt lat="41.63372" lon="-6.74245">
        <ele>741.258</ele>
        <time>2015-08-14T07:56:44Z</time>
      </trkpt>
      <trkpt lat="41.63339" lon="-6.74262">
        <ele>742.716</ele>
        <time>2015-08-14T07:56:50Z</time>
      </trkpt>
      <trkpt lat="41.63203" lon="-6.74269">
        <ele>749.75</ele>
        <time>2015-08-14T07:57:06Z</time>
      </trkpt>
      <trkpt lat="41.63109" lon="-6.74443">
        <ele>764.447</ele>
        <time>2015-08-14T07:57:31Z</time>
      </trkpt>
      <trkpt lat="41.63093" lon="-6.74505">
        <ele>767.829</ele>
        <time>2015-08-14T07:57:37Z</time>
      </trkpt>
      <trkpt lat="41.62973" lon="-6.74709">
        <ele>783.121</ele>
        <time>2015-08-14T07:58:00Z</time>
      </trkpt>
      <trkpt lat="41.62627" lon="-6.74802">
        <ele>831.508</ele>
        <time>2015-08-14T07:59:01Z</time>
      </trkpt>
      <trkpt lat="41.62333" lon="-6.74842">
        <ele>811.625</ele>
        <time>2015-08-14T07:59:30Z</time>
      </trkpt>
      <trkpt lat="41.62208" lon="-6.7494">
        <ele>790.444</ele>
        <time>2015-08-14T07:59:44Z</time>
      </trkpt>
      <trkpt lat="41.62156" lon="-6.74978">
        <ele>784.142</ele>
        <time>2015-08-14T07:59:52Z</time>
      </trkpt>
      <trkpt lat="41.62091" lon="-6.75134">
        <ele>776.831</ele>
        <time>2015-08-14T08:00:11Z</time>
      </trkpt>
      <trkpt lat="41.62011" lon="-6.75254">
        <ele>770.721</ele>
        <time>2015-08-14T08:00:26Z</time>
      </trkpt>
      <trkpt lat="41.6204" lon="-6.75462">
        <ele>766.534</ele>
        <time>2015-08-14T08:00:45Z</time>
      </trkpt>
      <trkpt lat="41.6203" lon="-6.75491">
        <ele>766.212</ele>
        <time>2015-08-14T08:00:48Z</time>
      </trkpt>
      <trkpt lat="41.61853" lon="-6.75602">
        <ele>759.136</ele>
        <time>2015-08-14T08:01:11Z</time>
      </trkpt>
      <trkpt lat="41.61783" lon="-6.75687">
        <ele>762.712</ele>
        <time>2015-08-14T08:01:34Z</time>
      </trkpt>
      <trkpt lat="41.61722" lon="-6.7576">
        <ele>764.732</ele>
        <time>2015-08-14T08:02:28Z</time>
      </trkpt>
      <trkpt lat="41.61707" lon="-6.75821">
        <ele>762.305</ele>
        <time>2015-08-14T08:02:57Z</time>
      </trkpt>
      <trkpt lat="41.61493" lon="-6.7555">
        <ele>776.108</ele>
        <time>2015-08-14T08:03:39Z</time>
      </trkpt>
      <trkpt lat="41.61379" lon="-6.75323">
        <ele>774.052</ele>
        <time>2015-08-14T08:04:02Z</time>
      </trkpt>
      <trkpt lat="41.6121" lon="-6.75315">
        <ele>773.961</ele>
        <time>2015-08-14T08:04:53Z</time>
      </trkpt>
      <trkpt lat="41.60996" lon="-6.75337">
        <ele>739.119</ele>
        <time>2015-08-14T08:05:41Z</time>
      </trkpt>
      <trkpt lat="41.60928" lon="-6.75187">
        <ele>738.578</ele>
        <time>2015-08-14T08:05:57Z</time>
      </trkpt>
      <trkpt lat="41.60708" lon="-6.75148">
        <ele>746.568</ele>
        <time>2015-08-14T08:06:22Z</time>
      </trkpt>
      <trkpt lat="41.60496" lon="-6.75011">
        <ele>761.481</ele>
        <time>2015-08-14T08:06:43Z</time>
      </trkpt>
      <trkpt lat="41.60378" lon="-6.74897">
        <ele>747.699</ele>
        <time>2015-08-14T08:07:26Z</time>
      </trkpt>
      <trkpt lat="41.60337" lon="-6.74948">
        <ele>740.133</ele>
        <time>2015-08-14T08:07:39Z</time>
      </trkpt>
      <trkpt lat="41.60277" lon="-6.74937">
        <ele>737.739</ele>
        <time>2015-08-14T08:07:46Z</time>
      </trkpt>
      <trkpt lat="41.60218" lon="-6.74972">
        <ele>738.001</ele>
        <time>2015-08-14T08:07:52Z</time>
      </trkpt>
      <trkpt lat="41.60118" lon="-6.74963">
        <ele>731.521</ele>
        <time>2015-08-14T08:08:03Z</time>
      </trkpt>
      <trkpt lat="41.60038" lon="-6.75019">
        <ele>726.908</ele>
        <time>2015-08-14T08:08:12Z</time>
      </trkpt>
      <trkpt lat="41.59937" lon="-6.75048">
        <ele>724.414</ele>
        <time>2015-08-14T08:08:25Z</time>
      </trkpt>
      <trkpt lat="41.59725" lon="-6.74795">
        <ele>730.213</ele>
        <time>2015-08-14T08:08:56Z</time>
      </trkpt>
      <trkpt lat="41.59676" lon="-6.74762">
        <ele>728.151</ele>
        <time>2015-08-14T08:09:01Z</time>
      </trkpt>
      <trkpt lat="41.59615" lon="-6.74773">
        <ele>727.13</ele>
        <time>2015-08-14T08:09:08Z</time>
      </trkpt>
      <trkpt lat="41.59553" lon="-6.74814">
        <ele>716.49</ele>
        <time>2015-08-14T08:09:16Z</time>
      </trkpt>
      <trkpt lat="41.59522" lon="-6.74908">
        <ele>708.813</ele>
        <time>2015-08-14T08:09:25Z</time>
      </trkpt>
      <trkpt lat="41.59441" lon="-6.75025">
        <ele>701.361</ele>
        <time>2015-08-14T08:09:36Z</time>
      </trkpt>
      <trkpt lat="41.59415" lon="-6.75085">
        <ele>694.665</ele>
        <time>2015-08-14T08:09:42Z</time>
      </trkpt>
      <trkpt lat="41.59385" lon="-6.75078">
        <ele>689.052</ele>
        <time>2015-08-14T08:09:49Z</time>
      </trkpt>
      <trkpt lat="41.59374" lon="-6.74978">
        <ele>682.053</ele>
        <time>2015-08-14T08:09:58Z</time>
      </trkpt>
      <trkpt lat="41.59377" lon="-6.74946">
        <ele>681.108</ele>
        <time>2015-08-14T08:10:01Z</time>
      </trkpt>
      <trkpt lat="41.5929" lon="-6.7493">
        <ele>669.408</ele>
        <time>2015-08-14T08:10:34Z</time>
      </trkpt>
      <trkpt lat="41.59211" lon="-6.74973">
        <ele>662.696</ele>
        <time>2015-08-14T08:10:43Z</time>
      </trkpt>
      <trkpt lat="41.5907" lon="-6.75011">
        <ele>651.235</ele>
        <time>2015-08-14T08:10:59Z</time>
      </trkpt>
      <trkpt lat="41.58903" lon="-6.7508">
        <ele>633.743</ele>
        <time>2015-08-14T08:11:17Z</time>
      </trkpt>
      <trkpt lat="41.58841" lon="-6.75237">
        <ele>623.092</ele>
        <time>2015-08-14T08:11:35Z</time>
      </trkpt>
      <trkpt lat="41.58886" lon="-6.75344">
        <ele>615.452</ele>
        <time>2015-08-14T08:12:11Z</time>
      </trkpt>
      <trkpt lat="41.58891" lon="-6.75532">
        <ele>606.335</ele>
        <time>2015-08-14T08:12:33Z</time>
      </trkpt>
      <trkpt lat="41.58802" lon="-6.75621">
        <ele>603.123</ele>
        <time>2015-08-14T08:12:50Z</time>
      </trkpt>
      <trkpt lat="41.58749" lon="-6.75728">
        <ele>603.267</ele>
        <time>2015-08-14T08:13:05Z</time>
      </trkpt>
      <trkpt lat="41.58592" lon="-6.75839">
        <ele>601.736</ele>
        <time>2015-08-14T08:13:30Z</time>
      </trkpt>
      <trkpt lat="41.58512" lon="-6.75881">
        <ele>601.517</ele>
        <time>2015-08-14T08:13:40Z</time>
      </trkpt>
      <trkpt lat="41.58444" lon="-6.75914">
        <ele>596.918</ele>
        <time>2015-08-14T08:14:09Z</time>
      </trkpt>
      <trkpt lat="41.58269" lon="-6.75946">
        <ele>592.808</ele>
        <time>2015-08-14T08:14:20Z</time>
      </trkpt>
      <trkpt lat="41.58011" lon="-6.76054">
        <ele>591.754</ele>
        <time>2015-08-14T08:14:35Z</time>
      </trkpt>
      <trkpt lat="41.57935" lon="-6.76066">
        <ele>592.673</ele>
        <time>2015-08-14T08:14:39Z</time>
      </trkpt>
      <trkpt lat="41.57628" lon="-6.76038">
        <ele>590.241</ele>
        <time>2015-08-14T08:14:58Z</time>
      </trkpt>
      <trkpt lat="41.57465" lon="-6.75937">
        <ele>578.83</ele>
        <time>2015-08-14T08:15:14Z</time>
      </trkpt>
      <trkpt lat="41.57447" lon="-6.75839">
        <ele>578.62</ele>
        <time>2015-08-14T08:16:07Z</time>
      </trkpt>
      <trkpt lat="41.5735" lon="-6.75817">
        <ele>578.613</ele>
        <time>2015-08-14T08:16:22Z</time>
      </trkpt>
      <trkpt lat="41.57161" lon="-6.75746">
        <ele>577.111</ele>
        <time>2015-08-14T08:16:36Z</time>
      </trkpt>
      <trkpt lat="41.57137" lon="-6.75739">
        <ele>578.565</ele>
        <time>2015-08-14T08:17:08Z</time>
      </trkpt>
      <trkpt lat="41.57066" lon="-6.75392">
        <ele>593.251</ele>
        <time>2015-08-14T08:17:38Z</time>
      </trkpt>
      <trkpt lat="41.57013" lon="-6.75142">
        <ele>597.001</ele>
        <time>2015-08-14T08:17:48Z</time>
      </trkpt>
      <trkpt lat="41.56972" lon="-6.74947">
        <ele>600.011</ele>
        <time>2015-08-14T08:17:55Z</time>
      </trkpt>
      <trkpt lat="41.56799" lon="-6.74227">
        <ele>633.608</ele>
        <time>2015-08-14T08:18:20Z</time>
      </trkpt>
      <trkpt lat="41.56554" lon="-6.73792">
        <ele>615.026</ele>
        <time>2015-08-14T08:19:11Z</time>
      </trkpt>
      <trkpt lat="41.56463" lon="-6.73972">
        <ele>617.385</ele>
        <time>2015-08-14T08:19:33Z</time>
      </trkpt>
      <trkpt lat="41.56396" lon="-6.74032">
        <ele>620.553</ele>
        <time>2015-08-14T08:19:41Z</time>
      </trkpt>
      <trkpt lat="41.56309" lon="-6.74172">
        <ele>625.172</ele>
        <time>2015-08-14T08:19:57Z</time>
      </trkpt>
      <trkpt lat="41.56215" lon="-6.74231">
        <ele>621.882</ele>
        <time>2015-08-14T08:20:08Z</time>
      </trkpt>
      <trkpt lat="41.56041" lon="-6.74303">
        <ele>620.425</ele>
        <time>2015-08-14T08:20:24Z</time>
      </trkpt>
      <trkpt lat="41.55901" lon="-6.74271">
        <ele>619.943</ele>
        <time>2015-08-14T08:20:37Z</time>
      </trkpt>
      <trkpt lat="41.55706" lon="-6.74297">
        <ele>609.667</ele>
        <time>2015-08-14T08:20:55Z</time>
      </trkpt>
      <trkpt lat="41.55562" lon="-6.7431">
        <ele>604.094</ele>
        <time>2015-08-14T08:21:09Z</time>
      </trkpt>
      <trkpt lat="41.55523" lon="-6.74185">
        <ele>599.857</ele>
        <time>2015-08-14T08:22:01Z</time>
      </trkpt>
      <trkpt lat="41.55318" lon="-6.73947">
        <ele>583.822</ele>
        <time>2015-08-14T08:22:37Z</time>
      </trkpt>
      <trkpt lat="41.55244" lon="-6.73906">
        <ele>581.008</ele>
        <time>2015-08-14T08:22:49Z</time>
      </trkpt>
      <trkpt lat="41.5522" lon="-6.73938">
        <ele>579.47</ele>
        <time>2015-08-14T08:23:34Z</time>
      </trkpt>
      <trkpt lat="41.55146" lon="-6.73871">
        <ele>575.549</ele>
        <time>2015-08-14T08:24:07Z</time>
      </trkpt>
      <trkpt lat="41.55001" lon="-6.73841">
        <ele>569.787</ele>
        <time>2015-08-14T08:24:41Z</time>
      </trkpt>
      <trkpt lat="41.54902" lon="-6.73848">
        <ele>564.486</ele>
        <time>2015-08-14T08:24:59Z</time>
      </trkpt>
      <trkpt lat="41.54714" lon="-6.73717">
        <ele>551.286</ele>
        <time>2015-08-14T08:25:32Z</time>
      </trkpt>
      <trkpt lat="41.54513" lon="-6.73721">
        <ele>545.499</ele>
        <time>2015-08-14T08:26:39Z</time>
      </trkpt>
      <trkpt lat="41.54467" lon="-6.73565">
        <ele>539.587</ele>
        <time>2015-08-14T08:27:40Z</time>
      </trkpt>
      <trkpt lat="41.54297" lon="-6.73604">
        <ele>537.151</ele>
        <time>2015-08-14T08:27:59Z</time>
      </trkpt>
      <trkpt lat="41.53837" lon="-6.73718">
        <ele>525.918</ele>
        <time>2015-08-14T08:28:21Z</time>
      </trkpt>
      <trkpt lat="41.53627" lon="-6.73732">
        <ele>528.098</ele>
        <time>2015-08-14T08:28:43Z</time>
      </trkpt>
      <trkpt lat="41.53311" lon="-6.73503">
        <ele>529.417</ele>
        <time>2015-08-14T08:29:27Z</time>
      </trkpt>
      <trkpt lat="41.53251" lon="-6.73428">
        <ele>536.608</ele>
        <time>2015-08-14T08:29:36Z</time>
      </trkpt>
      <trkpt lat="41.53314" lon="-6.73341">
        <ele>539.842</ele>
        <time>2015-08-14T08:30:22Z</time>
      </trkpt>
      <trkpt lat="41.53236" lon="-6.73162">
        <ele>547.281</ele>
        <time>2015-08-14T08:30:42Z</time>
      </trkpt>
      <trkpt lat="41.53181" lon="-6.73061">
        <ele>550.389</ele>
        <time>2015-08-14T08:30:48Z</time>
      </trkpt>
      <trkpt lat="41.53141" lon="-6.72986">
        <ele>551.078</ele>
        <time>2015-08-14T08:30:52Z</time>
      </trkpt>
      <trkpt lat="41.53005" lon="-6.72691">
        <ele>560.898</ele>
        <time>2015-08-14T08:31:06Z</time>
      </trkpt>
      <trkpt lat="41.52926" lon="-6.72461">
        <ele>562.271</ele>
        <time>2015-08-14T08:31:16Z</time>
      </trkpt>
      <trkpt lat="41.52805" lon="-6.72332">
        <ele>571.069</ele>
        <time>2015-08-14T08:31:26Z</time>
      </trkpt>
      <trkpt lat="41.52783" lon="-6.72052">
        <ele>574.853</ele>
        <time>2015-08-14T08:31:38Z</time>
      </trkpt>
      <trkpt lat="41.52774" lon="-6.71862">
        <ele>578.392</ele>
        <time>2015-08-14T08:31:45Z</time>
      </trkpt>
      <trkpt lat="41.52845" lon="-6.71508">
        <ele>577.373</ele>
        <time>2015-08-14T08:31:58Z</time>
      </trkpt>
      <trkpt lat="41.5292" lon="-6.71278">
        <ele>571.62</ele>
        <time>2015-08-14T08:32:07Z</time>
      </trkpt>
      <trkpt lat="41.52946" lon="-6.71021">
        <ele>567.408</ele>
        <time>2015-08-14T08:32:16Z</time>
      </trkpt>
      <trkpt lat="41.52963" lon="-6.70839">
        <ele>560.57</ele>
        <time>2015-08-14T08:32:22Z</time>
      </trkpt>
      <trkpt lat="41.52938" lon="-6.70605">
        <ele>551.469</ele>
        <time>2015-08-14T08:32:30Z</time>
      </trkpt>
      <trkpt lat="41.52918" lon="-6.70475">
        <ele>548.197</ele>
        <time>2015-08-14T08:32:35Z</time>
      </trkpt>
      <trkpt lat="41.52829" lon="-6.70319">
        <ele>545.316</ele>
        <time>2015-08-14T08:32:45Z</time>
      </trkpt>
      <trkpt lat="41.52453" lon="-6.70244">
        <ele>547.516</ele>
        <time>2015-08-14T08:33:32Z</time>
      </trkpt>
      <trkpt lat="41.52174" lon="-6.70143">
        <ele>524.759</ele>
        <time>2015-08-14T08:34:27Z</time>
      </trkpt>
      <trkpt lat="41.52016" lon="-6.70287">
        <ele>515.137</ele>
        <time>2015-08-14T08:34:49Z</time>
      </trkpt>
      <trkpt lat="41.51844" lon="-6.70326">
        <ele>519.351</ele>
        <time>2015-08-14T08:35:08Z</time>
      </trkpt>
      <trkpt lat="41.51764" lon="-6.70361">
        <ele>519.023</ele>
        <time>2015-08-14T08:35:18Z</time>
      </trkpt>
      <trkpt lat="41.51662" lon="-6.70374">
        <ele>516.583</ele>
        <time>2015-08-14T08:35:54Z</time>
      </trkpt>
      <trkpt lat="41.51571" lon="-6.70425">
        <ele>513.411</ele>
        <time>2015-08-14T08:36:07Z</time>
      </trkpt>
      <trkpt lat="41.515" lon="-6.70393">
        <ele>510.008</ele>
        <time>2015-08-14T08:36:18Z</time>
      </trkpt>
      <trkpt lat="41.51453" lon="-6.7047">
        <ele>510.343</ele>
        <time>2015-08-14T08:36:30Z</time>
      </trkpt>
      <trkpt lat="41.51369" lon="-6.70509">
        <ele>512.012</ele>
        <time>2015-08-14T08:36:43Z</time>
      </trkpt>
      <trkpt lat="41.51125" lon="-6.70541">
        <ele>521.21</ele>
        <time>2015-08-14T08:37:19Z</time>
      </trkpt>
      <trkpt lat="41.50861" lon="-6.70581">
        <ele>522.849</ele>
        <time>2015-08-14T08:38:01Z</time>
      </trkpt>
      <trkpt lat="41.507" lon="-6.7047">
        <ele>534.739</ele>
        <time>2015-08-14T08:38:25Z</time>
      </trkpt>
      <trkpt lat="41.50583" lon="-6.70447">
        <ele>531.022</ele>
        <time>2015-08-14T08:38:39Z</time>
      </trkpt>
      <trkpt lat="41.50479" lon="-6.70443">
        <ele>525.85</ele>
        <time>2015-08-14T08:38:51Z</time>
      </trkpt>
      <trkpt lat="41.50449" lon="-6.70381">
        <ele>523.754</ele>
        <time>2015-08-14T08:38:59Z</time>
      </trkpt>
      <trkpt lat="41.50412" lon="-6.70388">
        <ele>521.966</ele>
        <time>2015-08-14T08:39:04Z</time>
      </trkpt>
      <trkpt lat="41.50393" lon="-6.70401">
        <ele>521.229</ele>
        <time>2015-08-14T08:39:08Z</time>
      </trkpt>
      <trkpt lat="41.50357" lon="-6.70324">
        <ele>516.621</ele>
        <time>2015-08-14T08:39:18Z</time>
      </trkpt>
      <trkpt lat="41.50295" lon="-6.70317">
        <ele>511.408</ele>
        <time>2015-08-14T08:39:27Z</time>
      </trkpt>
      <trkpt lat="41.50016" lon="-6.70144">
        <ele>511.347</ele>
        <time>2015-08-14T08:40:18Z</time>
      </trkpt>
      <trkpt lat="41.49796" lon="-6.70022">
        <ele>525.496</ele>
        <time>2015-08-14T08:40:42Z</time>
      </trkpt>
      <trkpt lat="41.49153" lon="-6.69791">
        <ele>477.724</ele>
        <time>2015-08-14T08:42:20Z</time>
      </trkpt>
      <trkpt lat="41.49075" lon="-6.6964">
        <ele>477.053</ele>
        <time>2015-08-14T08:43:18Z</time>
      </trkpt>
      <trkpt lat="41.4901" lon="-6.69618">
        <ele>476.693</ele>
        <time>2015-08-14T08:43:37Z</time>
      </trkpt>
      <trkpt lat="41.48946" lon="-6.69505">
        <ele>487.776</ele>
        <time>2015-08-14T08:44:15Z</time>
      </trkpt>
      <trkpt lat="41.48906" lon="-6.69496">
        <ele>491.854</ele>
        <time>2015-08-14T08:44:22Z</time>
      </trkpt>
      <trkpt lat="41.48793" lon="-6.69366">
        <ele>509.148</ele>
        <time>2015-08-14T08:44:45Z</time>
      </trkpt>
      <trkpt lat="41.48642" lon="-6.69282">
        <ele>524.431</ele>
        <time>2015-08-14T08:45:07Z</time>
      </trkpt>
      <trkpt lat="41.483" lon="-6.69142">
        <ele>541.561</ele>
        <time>2015-08-14T08:46:13Z</time>
      </trkpt>
      <trkpt lat="41.48035" lon="-6.69067">
        <ele>551.207</ele>
        <time>2015-08-14T08:47:06Z</time>
      </trkpt>
      <trkpt lat="41.47885" lon="-6.6898">
        <ele>546.608</ele>
        <time>2015-08-14T08:47:24Z</time>
      </trkpt>
      <trkpt lat="41.47829" lon="-6.68897">
        <ele>542.414</ele>
        <time>2015-08-14T08:47:35Z</time>
      </trkpt>
      <trkpt lat="41.47805" lon="-6.68872">
        <ele>539.813</ele>
        <time>2015-08-14T08:47:40Z</time>
      </trkpt>
      <trkpt lat="41.47752" lon="-6.68862">
        <ele>536.261</ele>
        <time>2015-08-14T08:47:53Z</time>
      </trkpt>
      <trkpt lat="41.47585" lon="-6.68567">
        <ele>513.49</ele>
        <time>2015-08-14T08:48:26Z</time>
      </trkpt>
      <trkpt lat="41.47459" lon="-6.68483">
        <ele>501.75</ele>
        <time>2015-08-14T08:48:47Z</time>
      </trkpt>
      <trkpt lat="41.47402" lon="-6.68523">
        <ele>495.133</ele>
        <time>2015-08-14T08:48:59Z</time>
      </trkpt>
      <trkpt lat="41.47328" lon="-6.68654">
        <ele>490.981</ele>
        <time>2015-08-14T08:49:18Z</time>
      </trkpt>
      <trkpt lat="41.47324" lon="-6.68657">
        <ele>491.135</ele>
        <time>2015-08-14T08:49:19Z</time>
      </trkpt>
      <trkpt lat="41.47263" lon="-6.68629">
        <ele>491.252</ele>
        <time>2015-08-14T08:49:33Z</time>
      </trkpt>
      <trkpt lat="41.47117" lon="-6.68359">
        <ele>488.353</ele>
        <time>2015-08-14T08:50:43Z</time>
      </trkpt>
      <trkpt lat="41.47065" lon="-6.6825">
        <ele>477.708</ele>
        <time>2015-08-14T08:50:58Z</time>
      </trkpt>
      <trkpt lat="41.46955" lon="-6.68229">
        <ele>461.808</ele>
        <time>2015-08-14T08:51:17Z</time>
      </trkpt>
      <trkpt lat="41.4692" lon="-6.68259">
        <ele>463.226</ele>
        <time>2015-08-14T08:51:24Z</time>
      </trkpt>
      <trkpt lat="41.46865" lon="-6.68222">
        <ele>456.575</ele>
        <time>2015-08-14T08:51:37Z</time>
      </trkpt>
      <trkpt lat="41.46741" lon="-6.68187">
        <ele>447.293</ele>
        <time>2015-08-14T08:51:57Z</time>
      </trkpt>
      <trkpt lat="41.46671" lon="-6.68065">
        <ele>441.182</ele>
        <time>2015-08-14T08:56:28Z</time>
      </trkpt>
      <trkpt lat="41.46592" lon="-6.67991">
        <ele>438.682</ele>
        <time>2015-08-14T08:56:41Z</time>
      </trkpt>
      <trkpt lat="41.46461" lon="-6.67868">
        <ele>422.445</ele>
        <time>2015-08-14T08:57:01Z</time>
      </trkpt>
      <trkpt lat="41.4632" lon="-6.67889">
        <ele>411.013</ele>
        <time>2015-08-14T08:57:21Z</time>
      </trkpt>
      <trkpt lat="41.46237" lon="-6.67842">
        <ele>408.737</ele>
        <time>2015-08-14T08:57:31Z</time>
      </trkpt>
      <trkpt lat="41.45962" lon="-6.67806">
        <ele>404.346</ele>
        <time>2015-08-14T08:58:00Z</time>
      </trkpt>
      <trkpt lat="41.45891" lon="-6.67806">
        <ele>392.588</ele>
        <time>2015-08-14T08:58:12Z</time>
      </trkpt>
      <trkpt lat="41.45851" lon="-6.67909">
        <ele>388.116</ele>
        <time>2015-08-14T08:58:57Z</time>
      </trkpt>
      <trkpt lat="41.45543" lon="-6.68109">
        <ele>411.708</ele>
        <time>2015-08-14T08:59:50Z</time>
      </trkpt>
      <trkpt lat="41.45404" lon="-6.68235">
        <ele>423.625</ele>
        <time>2015-08-14T09:00:12Z</time>
      </trkpt>
      <trkpt lat="41.45292" lon="-6.6832">
        <ele>427.814</ele>
        <time>2015-08-14T09:00:27Z</time>
      </trkpt>
      <trkpt lat="41.45238" lon="-6.68344">
        <ele>429.292</ele>
        <time>2015-08-14T09:00:33Z</time>
      </trkpt>
      <trkpt lat="41.45078" lon="-6.68474">
        <ele>405.421</ele>
        <time>2015-08-14T09:00:56Z</time>
      </trkpt>
      <trkpt lat="41.44912" lon="-6.68646">
        <ele>394.521</ele>
        <time>2015-08-14T09:01:23Z</time>
      </trkpt>
      <trkpt lat="41.44746" lon="-6.68794">
        <ele>364.524</ele>
        <time>2015-08-14T09:01:51Z</time>
      </trkpt>
      <trkpt lat="41.44759" lon="-6.68839">
        <ele>369.442</ele>
        <time>2015-08-14T09:01:58Z</time>
      </trkpt>
      <trkpt lat="41.44722" lon="-6.68933">
        <ele>361.786</ele>
        <time>2015-08-14T09:02:09Z</time>
      </trkpt>
      <trkpt lat="41.44704" lon="-6.68955">
        <ele>358.339</ele>
        <time>2015-08-14T09:02:13Z</time>
      </trkpt>
      <trkpt lat="41.44606" lon="-6.68986">
        <ele>342.401</ele>
        <time>2015-08-14T09:02:38Z</time>
      </trkpt>
      <trkpt lat="41.44547" lon="-6.68899">
        <ele>331.621</ele>
        <time>2015-08-14T09:02:54Z</time>
      </trkpt>
      <trkpt lat="41.4452" lon="-6.68899">
        <ele>329.108</ele>
        <time>2015-08-14T09:03:00Z</time>
      </trkpt>
      <trkpt lat="41.4449" lon="-6.68937">
        <ele>323.074</ele>
        <time>2015-08-14T09:03:08Z</time>
      </trkpt>
      <trkpt lat="41.44453" lon="-6.69006">
        <ele>312.843</ele>
        <time>2015-08-14T09:03:18Z</time>
      </trkpt>
      <trkpt lat="41.44426" lon="-6.69176">
        <ele>308.891</ele>
        <time>2015-08-14T09:03:34Z</time>
      </trkpt>
      <trkpt lat="41.44458" lon="-6.69241">
        <ele>307.55</ele>
        <time>2015-08-14T09:03:42Z</time>
      </trkpt>
      <trkpt lat="41.44449" lon="-6.69351">
        <ele>302.16</ele>
        <time>2015-08-14T09:03:53Z</time>
      </trkpt>
      <trkpt lat="41.4446" lon="-6.69396">
        <ele>300.373</ele>
        <time>2015-08-14T09:04:31Z</time>
      </trkpt>
      <trkpt lat="41.44403" lon="-6.69349">
        <ele>289.931</ele>
        <time>2015-08-14T09:04:43Z</time>
      </trkpt>
      <trkpt lat="41.44356" lon="-6.69251">
        <ele>281.245</ele>
        <time>2015-08-14T09:04:59Z</time>
      </trkpt>
      <trkpt lat="41.44269" lon="-6.69191">
        <ele>268.092</ele>
        <time>2015-08-14T09:05:51Z</time>
      </trkpt>
      <trkpt lat="41.44256" lon="-6.69058">
        <ele>260.173</ele>
        <time>2015-08-14T09:06:18Z</time>
      </trkpt>
      <trkpt lat="41.44264" lon="-6.68988">
        <ele>257.52</ele>
        <time>2015-08-14T09:06:29Z</time>
      </trkpt>
      <trkpt lat="41.44223" lon="-6.69017">
        <ele>252.108</ele>
        <time>2015-08-14T09:06:51Z</time>
      </trkpt>
      <trkpt lat="41.44184" lon="-6.68945">
        <ele>253.33</ele>
        <time>2015-08-14T09:08:29Z</time>
      </trkpt>
      <trkpt lat="41.44075" lon="-6.69113">
        <ele>257.489</ele>
        <time>2015-08-14T09:09:37Z</time>
      </trkpt>
      <trkpt lat="41.43995" lon="-6.69175">
        <ele>268.517</ele>
        <time>2015-08-14T09:09:58Z</time>
      </trkpt>
      <trkpt lat="41.43777" lon="-6.6932">
        <ele>317.386</ele>
        <time>2015-08-14T09:10:40Z</time>
      </trkpt>
      <trkpt lat="41.43748" lon="-6.69416">
        <ele>325.446</ele>
        <time>2015-08-14T09:10:55Z</time>
      </trkpt>
      <trkpt lat="41.43718" lon="-6.69547">
        <ele>328.449</ele>
        <time>2015-08-14T09:11:20Z</time>
      </trkpt>
      <trkpt lat="41.43675" lon="-6.69214">
        <ele>367.267</ele>
        <time>2015-08-14T09:12:57Z</time>
      </trkpt>
      <trkpt lat="41.43693" lon="-6.69136">
        <ele>367.581</ele>
        <time>2015-08-14T09:13:05Z</time>
      </trkpt>
      <trkpt lat="41.43668" lon="-6.69106">
        <ele>373.779</ele>
        <time>2015-08-14T09:13:10Z</time>
      </trkpt>
      <trkpt lat="41.43662" lon="-6.69097">
        <ele>374.605</ele>
        <time>2015-08-14T09:13:11Z</time>
      </trkpt>
      <trkpt lat="41.43529" lon="-6.6895">
        <ele>399.525</ele>
        <time>2015-08-14T09:13:33Z</time>
      </trkpt>
      <trkpt lat="41.43455" lon="-6.68946">
        <ele>406.108</ele>
        <time>2015-08-14T09:13:43Z</time>
      </trkpt>
      <trkpt lat="41.43212" lon="-6.68965">
        <ele>437.978</ele>
        <time>2015-08-14T09:14:25Z</time>
      </trkpt>
      <trkpt lat="41.43187" lon="-6.68966">
        <ele>440.777</ele>
        <time>2015-08-14T09:14:30Z</time>
      </trkpt>
      <trkpt lat="41.43124" lon="-6.69149">
        <ele>456.485</ele>
        <time>2015-08-14T09:15:02Z</time>
      </trkpt>
      <trkpt lat="41.42955" lon="-6.69296">
        <ele>486.094</ele>
        <time>2015-08-14T09:15:42Z</time>
      </trkpt>
      <trkpt lat="41.42919" lon="-6.6929">
        <ele>486.044</ele>
        <time>2015-08-14T09:15:48Z</time>
      </trkpt>
      <trkpt lat="41.42841" lon="-6.6927">
        <ele>492.077</ele>
        <time>2015-08-14T09:16:05Z</time>
      </trkpt>
      <trkpt lat="41.42695" lon="-6.6933">
        <ele>485.275</ele>
        <time>2015-08-14T09:16:33Z</time>
      </trkpt>
      <trkpt lat="41.42542" lon="-6.69371">
        <ele>470.219</ele>
        <time>2015-08-14T09:16:56Z</time>
      </trkpt>
      <trkpt lat="41.42433" lon="-6.69455">
        <ele>460.822</ele>
        <time>2015-08-14T09:17:11Z</time>
      </trkpt>
      <trkpt lat="41.42322" lon="-6.69447">
        <ele>457.562</ele>
        <time>2015-08-14T09:17:26Z</time>
      </trkpt>
      <trkpt lat="41.42273" lon="-6.69525">
        <ele>451.208</ele>
        <time>2015-08-14T09:18:39Z</time>
      </trkpt>
      <trkpt lat="41.42179" lon="-6.69588">
        <ele>459.708</ele>
        <time>2015-08-14T09:19:05Z</time>
      </trkpt>
      <trkpt lat="41.42146" lon="-6.69647">
        <ele>464.663</ele>
        <time>2015-08-14T09:19:14Z</time>
      </trkpt>
      <trkpt lat="41.42141" lon="-6.69651">
        <ele>465.472</ele>
        <time>2015-08-14T09:19:15Z</time>
      </trkpt>
      <trkpt lat="41.41769" lon="-6.69776">
        <ele>489.89</ele>
        <time>2015-08-14T09:20:17Z</time>
      </trkpt>
      <trkpt lat="41.4173" lon="-6.69795">
        <ele>493.589</ele>
        <time>2015-08-14T09:20:34Z</time>
      </trkpt>
      <trkpt lat="41.41543" lon="-6.69545">
        <ele>515.779</ele>
        <time>2015-08-14T09:22:12Z</time>
      </trkpt>
      <trkpt lat="41.41361" lon="-6.69363">
        <ele>532.062</ele>
        <time>2015-08-14T09:22:48Z</time>
      </trkpt>
      <trkpt lat="41.41299" lon="-6.69352">
        <ele>534.22</ele>
        <time>2015-08-14T09:22:56Z</time>
      </trkpt>
      <trkpt lat="41.4127" lon="-6.69287">
        <ele>535.164</ele>
        <time>2015-08-14T09:23:25Z</time>
      </trkpt>
      <trkpt lat="41.41266" lon="-6.69283">
        <ele>535.081</ele>
        <time>2015-08-14T09:23:36Z</time>
      </trkpt>
      <trkpt lat="41.41191" lon="-6.69303">
        <ele>532.261</ele>
        <time>2015-08-14T09:23:45Z</time>
      </trkpt>
      <trkpt lat="41.41081" lon="-6.69312">
        <ele>539.517</ele>
        <time>2015-08-14T09:23:52Z</time>
      </trkpt>
      <trkpt lat="41.4094" lon="-6.69241">
        <ele>555.008</ele>
        <time>2015-08-14T09:24:01Z</time>
      </trkpt>
      <trkpt lat="41.40821" lon="-6.69252">
        <ele>567.139</ele>
        <time>2015-08-14T09:24:08Z</time>
      </trkpt>
      <trkpt lat="41.40694" lon="-6.69276">
        <ele>577.358</ele>
        <time>2015-08-14T09:24:15Z</time>
      </trkpt>
      <trkpt lat="41.40582" lon="-6.69314">
        <ele>586.066</ele>
        <time>2015-08-14T09:24:21Z</time>
      </trkpt>
      <trkpt lat="41.404" lon="-6.69355">
        <ele>598.735</ele>
        <time>2015-08-14T09:24:30Z</time>
      </trkpt>
      <trkpt lat="41.40269" lon="-6.69356">
        <ele>604.475</ele>
        <time>2015-08-14T09:24:36Z</time>
      </trkpt>
      <trkpt lat="41.40247" lon="-6.69356">
        <ele>606.328</ele>
        <time>2015-08-14T09:24:37Z</time>
      </trkpt>
      <trkpt lat="41.39978" lon="-6.6933">
        <ele>631.026</ele>
        <time>2015-08-14T09:24:50Z</time>
      </trkpt>
      <trkpt lat="41.3982" lon="-6.69142">
        <ele>652.68</ele>
        <time>2015-08-14T09:25:01Z</time>
      </trkpt>
      <trkpt lat="41.39766" lon="-6.69106">
        <ele>658.241</ele>
        <time>2015-08-14T09:25:04Z</time>
      </trkpt>
      <trkpt lat="41.39667" lon="-6.69078">
        <ele>665.681</ele>
        <time>2015-08-14T09:25:09Z</time>
      </trkpt>
      <trkpt lat="41.3947" lon="-6.68966">
        <ele>677.709</ele>
        <time>2015-08-14T09:25:19Z</time>
      </trkpt>
      <trkpt lat="41.39242" lon="-6.68829">
        <ele>692.708</ele>
        <time>2015-08-14T09:25:30Z</time>
      </trkpt>
      <trkpt lat="41.39094" lon="-6.68782">
        <ele>700.585</ele>
        <time>2015-08-14T09:25:37Z</time>
      </trkpt>
      <trkpt lat="41.38918" lon="-6.6865">
        <ele>703.684</ele>
        <time>2015-08-14T09:26:27Z</time>
      </trkpt>
      <trkpt lat="41.38527" lon="-6.69111">
        <ele>722.142</ele>
        <time>2015-08-14T09:26:59Z</time>
      </trkpt>
      <trkpt lat="41.38509" lon="-6.69131">
        <ele>722.681</ele>
        <time>2015-08-14T09:27:00Z</time>
      </trkpt>
      <trkpt lat="41.38259" lon="-6.69323">
        <ele>724.631</ele>
        <time>2015-08-14T09:27:12Z</time>
      </trkpt>
      <trkpt lat="41.37887" lon="-6.69412">
        <ele>712.044</ele>
        <time>2015-08-14T09:27:28Z</time>
      </trkpt>
      <trkpt lat="41.37751" lon="-6.69361">
        <ele>710.912</ele>
        <time>2015-08-14T09:27:34Z</time>
      </trkpt>
      <trkpt lat="41.37624" lon="-6.69267">
        <ele>717.896</ele>
        <time>2015-08-14T09:27:40Z</time>
      </trkpt>
      <trkpt lat="41.3743" lon="-6.69201">
        <ele>730.669</ele>
        <time>2015-08-14T09:27:48Z</time>
      </trkpt>
      <trkpt lat="41.36976" lon="-6.69241">
        <ele>742.804</ele>
        <time>2015-08-14T09:28:06Z</time>
      </trkpt>
      <trkpt lat="41.36753" lon="-6.69363">
        <ele>744.224</ele>
        <time>2015-08-14T09:28:16Z</time>
      </trkpt>
      <trkpt lat="41.3643" lon="-6.69587">
        <ele>745.608</ele>
        <time>2015-08-14T09:28:30Z</time>
      </trkpt>
      <trkpt lat="41.36114" lon="-6.69892">
        <ele>748.987</ele>
        <time>2015-08-14T09:28:45Z</time>
      </trkpt>
      <trkpt lat="41.36052" lon="-6.69947">
        <ele>751.196</ele>
        <time>2015-08-14T09:28:48Z</time>
      </trkpt>
      <trkpt lat="41.35915" lon="-6.70018">
        <ele>751.164</ele>
        <time>2015-08-14T09:28:54Z</time>
      </trkpt>
      <trkpt lat="41.35778" lon="-6.7004">
        <ele>755.553</ele>
        <time>2015-08-14T09:29:01Z</time>
      </trkpt>
      <trkpt lat="41.35728" lon="-6.70065">
        <ele>755.993</ele>
        <time>2015-08-14T09:29:07Z</time>
      </trkpt>
      <trkpt lat="41.35601" lon="-6.7002">
        <ele>750.376</ele>
        <time>2015-08-14T09:29:19Z</time>
      </trkpt>
      <trkpt lat="41.35499" lon="-6.70045">
        <ele>742.484</ele>
        <time>2015-08-14T09:29:24Z</time>
      </trkpt>
      <trkpt lat="41.3523" lon="-6.701">
        <ele>726.758</ele>
        <time>2015-08-14T09:29:35Z</time>
      </trkpt>
      <trkpt lat="41.34962" lon="-6.70247">
        <ele>721.952</ele>
        <time>2015-08-14T09:29:48Z</time>
      </trkpt>
      <trkpt lat="41.34928" lon="-6.70289">
        <ele>722.453</ele>
        <time>2015-08-14T09:29:53Z</time>
      </trkpt>
      <trkpt lat="41.34507" lon="-6.70586">
        <ele>734.708</ele>
        <time>2015-08-14T09:30:41Z</time>
      </trkpt>
      <trkpt lat="41.34262" lon="-6.71169">
        <ele>741.508</ele>
        <time>2015-08-14T09:39:48Z</time>
      </trkpt>
      <trkpt lat="41.3415" lon="-6.71557">
        <ele>738.956</ele>
        <time>2015-08-14T09:41:50Z</time>
      </trkpt>
      <trkpt lat="41.34072" lon="-6.71649">
        <ele>740.165</ele>
        <time>2015-08-14T09:42:26Z</time>
      </trkpt>
      <trkpt lat="41.34077" lon="-6.71608">
        <ele>739.013</ele>
        <time>2015-08-14T09:42:57Z</time>
      </trkpt>
      <trkpt lat="41.34032" lon="-6.71566">
        <ele>735.462</ele>
        <time>2015-08-14T09:43:33Z</time>
      </trkpt>
      <trkpt lat="41.33976" lon="-6.71644">
        <ele>736.752</ele>
        <time>2015-08-14T09:44:06Z</time>
      </trkpt>
      <trkpt lat="41.33931" lon="-6.71609">
        <ele>730.485</ele>
        <time>2015-08-14T09:44:14Z</time>
      </trkpt>
      <trkpt lat="41.33875" lon="-6.71576">
        <ele>722.263</ele>
        <time>2015-08-14T09:44:25Z</time>
      </trkpt>
      <trkpt lat="41.33806" lon="-6.71702">
        <ele>723.517</ele>
        <time>2015-08-14T09:44:37Z</time>
      </trkpt>
      <trkpt lat="41.33635" lon="-6.72066">
        <ele>738.924</ele>
        <time>2015-08-14T09:44:58Z</time>
      </trkpt>
      <trkpt lat="41.33593" lon="-6.72138">
        <ele>741.304</ele>
        <time>2015-08-14T09:45:06Z</time>
      </trkpt>
      <trkpt lat="41.33551" lon="-6.72168">
        <ele>734.014</ele>
        <time>2015-08-14T09:45:12Z</time>
      </trkpt>
      <trkpt lat="41.33432" lon="-6.7231">
        <ele>721.908</ele>
        <time>2015-08-14T09:45:30Z</time>
      </trkpt>
      <trkpt lat="41.33305" lon="-6.72436">
        <ele>702.333</ele>
        <time>2015-08-14T09:45:50Z</time>
      </trkpt>
      <trkpt lat="41.33232" lon="-6.7254">
        <ele>693.952</ele>
        <time>2015-08-14T09:48:12Z</time>
      </trkpt>
      <trkpt lat="41.33169" lon="-6.73015">
        <ele>682.64</ele>
        <time>2015-08-14T09:49:08Z</time>
      </trkpt>
      <trkpt lat="41.33055" lon="-6.73184">
        <ele>673.369</ele>
        <time>2015-08-14T09:49:47Z</time>
      </trkpt>
      <trkpt lat="41.33" lon="-6.73276">
        <ele>668.969</ele>
        <time>2015-08-14T09:49:57Z</time>
      </trkpt>
      <trkpt lat="41.32958" lon="-6.73301">
        <ele>666.992</ele>
        <time>2015-08-14T09:50:02Z</time>
      </trkpt>
      <trkpt lat="41.32895" lon="-6.73339">
        <ele>660.25</ele>
        <time>2015-08-14T09:50:12Z</time>
      </trkpt>
      <trkpt lat="41.32826" lon="-6.73409">
        <ele>652.384</ele>
        <time>2015-08-14T09:50:23Z</time>
      </trkpt>
      <trkpt lat="41.32708" lon="-6.73684">
        <ele>635.713</ele>
        <time>2015-08-14T09:50:54Z</time>
      </trkpt>
      <trkpt lat="41.3259" lon="-6.73709">
        <ele>635.243</ele>
        <time>2015-08-14T09:51:10Z</time>
      </trkpt>
      <trkpt lat="41.32555" lon="-6.73771">
        <ele>635.307</ele>
        <time>2015-08-14T09:51:16Z</time>
      </trkpt>
      <trkpt lat="41.32493" lon="-6.73908">
        <ele>642.608</ele>
        <time>2015-08-14T09:51:28Z</time>
      </trkpt>
      <trkpt lat="41.32178" lon="-6.74098">
        <ele>681.872</ele>
        <time>2015-08-14T09:52:16Z</time>
      </trkpt>
      <trkpt lat="41.3207" lon="-6.74088">
        <ele>689.131</ele>
        <time>2015-08-14T09:52:30Z</time>
      </trkpt>
      <trkpt lat="41.32003" lon="-6.74211">
        <ele>687.139</ele>
        <time>2015-08-14T09:52:45Z</time>
      </trkpt>
      <trkpt lat="41.31904" lon="-6.74302">
        <ele>695.588</ele>
        <time>2015-08-14T09:53:02Z</time>
      </trkpt>
      <trkpt lat="41.31887" lon="-6.74378">
        <ele>692.168</ele>
        <time>2015-08-14T09:53:09Z</time>
      </trkpt>
      <trkpt lat="41.31835" lon="-6.74428">
        <ele>695.161</ele>
        <time>2015-08-14T09:53:17Z</time>
      </trkpt>
      <trkpt lat="41.31668" lon="-6.74589">
        <ele>691.359</ele>
        <time>2015-08-14T09:53:40Z</time>
      </trkpt>
      <trkpt lat="41.31453" lon="-6.7466">
        <ele>699.653</ele>
        <time>2015-08-14T09:54:46Z</time>
      </trkpt>
      <trkpt lat="41.314" lon="-6.74623">
        <ele>701.628</ele>
        <time>2015-08-14T09:56:27Z</time>
      </trkpt>
      <trkpt lat="41.31348" lon="-6.7456">
        <ele>699.289</ele>
        <time>2015-08-14T09:56:39Z</time>
      </trkpt>
      <trkpt lat="41.31308" lon="-6.74486">
        <ele>697.517</ele>
        <time>2015-08-14T09:56:46Z</time>
      </trkpt>
      <trkpt lat="41.31261" lon="-6.74454">
        <ele>695.008</ele>
        <time>2015-08-14T09:56:50Z</time>
      </trkpt>
      <trkpt lat="41.31179" lon="-6.74425">
        <ele>692.713</ele>
        <time>2015-08-14T09:56:56Z</time>
      </trkpt>
      <trkpt lat="41.31148" lon="-6.74449">
        <ele>691.512</ele>
        <time>2015-08-14T09:58:58Z</time>
      </trkpt>
      <trkpt lat="41.31108" lon="-6.74595">
        <ele>682.28</ele>
        <time>2015-08-14T09:59:17Z</time>
      </trkpt>
      <trkpt lat="41.31029" lon="-6.74733">
        <ele>671.689</ele>
        <time>2015-08-14T09:59:34Z</time>
      </trkpt>
      <trkpt lat="41.31014" lon="-6.7476">
        <ele>671.059</ele>
        <time>2015-08-14T09:59:37Z</time>
      </trkpt>
      <trkpt lat="41.30996" lon="-6.74873">
        <ele>670.022</ele>
        <time>2015-08-14T09:59:46Z</time>
      </trkpt>
      <trkpt lat="41.3092" lon="-6.74996">
        <ele>668.14</ele>
        <time>2015-08-14T09:59:59Z</time>
      </trkpt>
      <trkpt lat="41.30816" lon="-6.75384">
        <ele>666.184</ele>
        <time>2015-08-14T10:00:43Z</time>
      </trkpt>
      <trkpt lat="41.30813" lon="-6.75584">
        <ele>672.518</ele>
        <time>2015-08-14T10:01:00Z</time>
      </trkpt>
      <trkpt lat="41.308" lon="-6.75664">
        <ele>668.798</ele>
        <time>2015-08-14T10:01:07Z</time>
      </trkpt>
      <trkpt lat="41.30652" lon="-6.75928">
        <ele>654.917</ele>
        <time>2015-08-14T10:01:37Z</time>
      </trkpt>
      <trkpt lat="41.30572" lon="-6.75999">
        <ele>649.808</ele>
        <time>2015-08-14T10:01:49Z</time>
      </trkpt>
      <trkpt lat="41.30506" lon="-6.76038">
        <ele>646.772</ele>
        <time>2015-08-14T10:01:58Z</time>
      </trkpt>
      <trkpt lat="41.30314" lon="-6.76043">
        <ele>646.891</ele>
        <time>2015-08-14T10:02:19Z</time>
      </trkpt>
      <trkpt lat="41.30142" lon="-6.76013">
        <ele>662.859</ele>
        <time>2015-08-14T10:02:57Z</time>
      </trkpt>
      <trkpt lat="41.29996" lon="-6.76049">
        <ele>656.698</ele>
        <time>2015-08-14T10:03:25Z</time>
      </trkpt>
      <trkpt lat="41.29886" lon="-6.7601">
        <ele>657.038</ele>
        <time>2015-08-14T10:03:43Z</time>
      </trkpt>
      <trkpt lat="41.29849" lon="-6.76001">
        <ele>652.331</ele>
        <time>2015-08-14T10:07:25Z</time>
      </trkpt>
      <trkpt lat="41.29821" lon="-6.75886">
        <ele>640.759</ele>
        <time>2015-08-14T10:07:55Z</time>
      </trkpt>
      <trkpt lat="41.2982" lon="-6.75711">
        <ele>629.493</ele>
        <time>2015-08-14T10:08:20Z</time>
      </trkpt>
      <trkpt lat="41.29814" lon="-6.75647">
        <ele>622.684</ele>
        <time>2015-08-14T10:09:03Z</time>
      </trkpt>
      <trkpt lat="41.29732" lon="-6.7565">
        <ele>616.307</ele>
        <time>2015-08-14T10:09:32Z</time>
      </trkpt>
      <trkpt lat="41.29647" lon="-6.75705">
        <ele>609.317</ele>
        <time>2015-08-14T10:09:53Z</time>
      </trkpt>
      <trkpt lat="41.2956" lon="-6.75666">
        <ele>597.308</ele>
        <time>2015-08-14T10:11:22Z</time>
      </trkpt>
      <trkpt lat="41.29475" lon="-6.75724">
        <ele>591.099</ele>
        <time>2015-08-14T10:11:37Z</time>
      </trkpt>
      <trkpt lat="41.29379" lon="-6.7582">
        <ele>588.618</ele>
        <time>2015-08-14T10:11:50Z</time>
      </trkpt>
      <trkpt lat="41.29239" lon="-6.75862">
        <ele>572.086</ele>
        <time>2015-08-14T10:12:09Z</time>
      </trkpt>
      <trkpt lat="41.29112" lon="-6.7597">
        <ele>550.025</ele>
        <time>2015-08-14T10:12:33Z</time>
      </trkpt>
      <trkpt lat="41.29064" lon="-6.75898">
        <ele>539.245</ele>
        <time>2015-08-14T10:12:46Z</time>
      </trkpt>
      <trkpt lat="41.28964" lon="-6.75858">
        <ele>522.058</ele>
        <time>2015-08-14T10:13:04Z</time>
      </trkpt>
      <trkpt lat="41.28906" lon="-6.75686">
        <ele>523.946</ele>
        <time>2015-08-14T10:13:24Z</time>
      </trkpt>
      <trkpt lat="41.28899" lon="-6.75639">
        <ele>523.43</ele>
        <time>2015-08-14T10:13:52Z</time>
      </trkpt>
      <trkpt lat="41.28643" lon="-6.75864">
        <ele>571.027</ele>
        <time>2015-08-14T10:14:42Z</time>
      </trkpt>
      <trkpt lat="41.28619" lon="-6.75925">
        <ele>575.968</ele>
        <time>2015-08-14T10:14:50Z</time>
      </trkpt>
      <trkpt lat="41.28576" lon="-6.75992">
        <ele>572.514</ele>
        <time>2015-08-14T10:14:59Z</time>
      </trkpt>
      <trkpt lat="41.28523" lon="-6.76056">
        <ele>565.508</ele>
        <time>2015-08-14T10:15:06Z</time>
      </trkpt>
      <trkpt lat="41.28467" lon="-6.76062">
        <ele>566.173</ele>
        <time>2015-08-14T10:15:13Z</time>
      </trkpt>
      <trkpt lat="41.28253" lon="-6.75876">
        <ele>534.352</ele>
        <time>2015-08-14T10:15:54Z</time>
      </trkpt>
      <trkpt lat="41.28222" lon="-6.75744">
        <ele>531.58</ele>
        <time>2015-08-14T10:16:10Z</time>
      </trkpt>
      <trkpt lat="41.28017" lon="-6.75695">
        <ele>531.519</ele>
        <time>2015-08-14T10:16:40Z</time>
      </trkpt>
      <trkpt lat="41.27913" lon="-6.75687">
        <ele>537.939</ele>
        <time>2015-08-14T10:16:51Z</time>
      </trkpt>
      <trkpt lat="41.27826" lon="-6.75629">
        <ele>545.242</ele>
        <time>2015-08-14T10:18:11Z</time>
      </trkpt>
      <trkpt lat="41.27698" lon="-6.75678">
        <ele>544.68</ele>
        <time>2015-08-14T10:18:45Z</time>
      </trkpt>
      <trkpt lat="41.27678" lon="-6.75805">
        <ele>543.654</ele>
        <time>2015-08-14T10:19:50Z</time>
      </trkpt>
      <trkpt lat="41.27639" lon="-6.7597">
        <ele>550.896</ele>
        <time>2015-08-14T10:20:09Z</time>
      </trkpt>
      <trkpt lat="41.27626" lon="-6.76465">
        <ele>596.431</ele>
        <time>2015-08-14T10:21:20Z</time>
      </trkpt>
      <trkpt lat="41.27592" lon="-6.76552">
        <ele>599.324</ele>
        <time>2015-08-14T10:21:29Z</time>
      </trkpt>
      <trkpt lat="41.27451" lon="-6.76732">
        <ele>604.908</ele>
        <time>2015-08-14T10:21:46Z</time>
      </trkpt>
      <trkpt lat="41.27408" lon="-6.76822">
        <ele>607.24</ele>
        <time>2015-08-14T10:21:52Z</time>
      </trkpt>
      <trkpt lat="41.27381" lon="-6.76886">
        <ele>610.129</ele>
        <time>2015-08-14T10:21:56Z</time>
      </trkpt>
      <trkpt lat="41.27255" lon="-6.77009">
        <ele>621.937</ele>
        <time>2015-08-14T10:22:09Z</time>
      </trkpt>
      <trkpt lat="41.27149" lon="-6.77193">
        <ele>637.686</ele>
        <time>2015-08-14T10:22:50Z</time>
      </trkpt>
      <trkpt lat="41.27097" lon="-6.77248">
        <ele>638.586</ele>
        <time>2015-08-14T10:22:57Z</time>
      </trkpt>
      <trkpt lat="41.26981" lon="-6.77318">
        <ele>634.249</ele>
        <time>2015-08-14T10:23:10Z</time>
      </trkpt>
      <trkpt lat="41.26919" lon="-6.77486">
        <ele>635.547</ele>
        <time>2015-08-14T10:23:22Z</time>
      </trkpt>
      <trkpt lat="41.26659" lon="-6.78015">
        <ele>617.691</ele>
        <time>2015-08-14T10:24:08Z</time>
      </trkpt>
      <trkpt lat="41.26529" lon="-6.78184">
        <ele>615.078</ele>
        <time>2015-08-14T10:24:26Z</time>
      </trkpt>
      <trkpt lat="41.26469" lon="-6.7827">
        <ele>611.033</ele>
        <time>2015-08-14T10:24:41Z</time>
      </trkpt>
      <trkpt lat="41.26433" lon="-6.78436">
        <ele>601.726</ele>
        <time>2015-08-14T10:24:57Z</time>
      </trkpt>
      <trkpt lat="41.26443" lon="-6.78545">
        <ele>597.008</ele>
        <time>2015-08-14T10:25:10Z</time>
      </trkpt>
      <trkpt lat="41.26447" lon="-6.78699">
        <ele>594.088</ele>
        <time>2015-08-14T10:25:59Z</time>
      </trkpt>
      <trkpt lat="41.26286" lon="-6.78746">
        <ele>603.457</ele>
        <time>2015-08-14T10:26:15Z</time>
      </trkpt>
      <trkpt lat="41.26244" lon="-6.78699">
        <ele>606.015</ele>
        <time>2015-08-14T10:26:20Z</time>
      </trkpt>
      <trkpt lat="41.26168" lon="-6.78605">
        <ele>608.334</ele>
        <time>2015-08-14T10:26:28Z</time>
      </trkpt>
      <trkpt lat="41.26133" lon="-6.78647">
        <ele>604.794</ele>
        <time>2015-08-14T10:26:32Z</time>
      </trkpt>
      <trkpt lat="41.26142" lon="-6.78698">
        <ele>605.487</ele>
        <time>2015-08-14T10:26:35Z</time>
      </trkpt>
      <trkpt lat="41.26186" lon="-6.78824">
        <ele>608.935</ele>
        <time>2015-08-14T10:26:42Z</time>
      </trkpt>
      <trkpt lat="41.26156" lon="-6.7897">
        <ele>607.769</ele>
        <time>2015-08-14T10:26:48Z</time>
      </trkpt>
      <trkpt lat="41.26108" lon="-6.7912">
        <ele>602.161</ele>
        <time>2015-08-14T10:26:54Z</time>
      </trkpt>
      <trkpt lat="41.25961" lon="-6.79342">
        <ele>593.021</ele>
        <time>2015-08-14T10:27:06Z</time>
      </trkpt>
      <trkpt lat="41.25943" lon="-6.79654">
        <ele>588.213</ele>
        <time>2015-08-14T10:27:19Z</time>
      </trkpt>
      <trkpt lat="41.2589" lon="-6.79792">
        <ele>580.708</ele>
        <time>2015-08-14T10:27:47Z</time>
      </trkpt>
      <trkpt lat="41.25835" lon="-6.79788">
        <ele>573.267</ele>
        <time>2015-08-14T10:27:58Z</time>
      </trkpt>
      <trkpt lat="41.25811" lon="-6.801">
        <ele>564.676</ele>
        <time>2015-08-14T10:28:25Z</time>
      </trkpt>
      <trkpt lat="41.25805" lon="-6.80133">
        <ele>564.064</ele>
        <time>2015-08-14T10:28:28Z</time>
      </trkpt>
      <trkpt lat="41.25647" lon="-6.80375">
        <ele>543.853</ele>
        <time>2015-08-14T10:29:30Z</time>
      </trkpt>
      <trkpt lat="41.25587" lon="-6.80418">
        <ele>537.443</ele>
        <time>2015-08-14T10:29:38Z</time>
      </trkpt>
      <trkpt lat="41.25476" lon="-6.80557">
        <ele>535.166</ele>
        <time>2015-08-14T10:29:52Z</time>
      </trkpt>
      <trkpt lat="41.25391" lon="-6.80726">
        <ele>529.914</ele>
        <time>2015-08-14T10:30:07Z</time>
      </trkpt>
      <trkpt lat="41.25274" lon="-6.80877">
        <ele>531.248</ele>
        <time>2015-08-14T10:30:52Z</time>
      </trkpt>
      <trkpt lat="41.25212" lon="-6.80914">
        <ele>534.347</ele>
        <time>2015-08-14T10:30:59Z</time>
      </trkpt>
      <trkpt lat="41.24827" lon="-6.80902">
        <ele>527.329</ele>
        <time>2015-08-14T10:31:34Z</time>
      </trkpt>
      <trkpt lat="41.24626" lon="-6.81028">
        <ele>518.621</ele>
        <time>2015-08-14T10:31:55Z</time>
      </trkpt>
      <trkpt lat="41.24533" lon="-6.81072">
        <ele>504.308</ele>
        <time>2015-08-14T10:32:07Z</time>
      </trkpt>
      <trkpt lat="41.24473" lon="-6.81091">
        <ele>496.325</ele>
        <time>2015-08-14T10:32:16Z</time>
      </trkpt>
      <trkpt lat="41.24426" lon="-6.81238">
        <ele>486.894</ele>
        <time>2015-08-14T10:32:30Z</time>
      </trkpt>
      <trkpt lat="41.24367" lon="-6.8132">
        <ele>474.192</ele>
        <time>2015-08-14T10:32:42Z</time>
      </trkpt>
      <trkpt lat="41.24371" lon="-6.81387">
        <ele>466.471</ele>
        <time>2015-08-14T10:32:49Z</time>
      </trkpt>
      <trkpt lat="41.24295" lon="-6.81437">
        <ele>467.991</ele>
        <time>2015-08-14T10:33:00Z</time>
      </trkpt>
      <trkpt lat="41.24242" lon="-6.81423">
        <ele>464.734</ele>
        <time>2015-08-14T10:33:08Z</time>
      </trkpt>
      <trkpt lat="41.24229" lon="-6.81385">
        <ele>461.712</ele>
        <time>2015-08-14T10:33:12Z</time>
      </trkpt>
      <trkpt lat="41.24208" lon="-6.81352">
        <ele>459.396</ele>
        <time>2015-08-14T10:33:17Z</time>
      </trkpt>
      <trkpt lat="41.24096" lon="-6.81239">
        <ele>442.081</ele>
        <time>2015-08-14T10:34:14Z</time>
      </trkpt>
      <trkpt lat="41.24102" lon="-6.81287">
        <ele>440.161</ele>
        <time>2015-08-14T10:34:24Z</time>
      </trkpt>
      <trkpt lat="41.23961" lon="-6.81293">
        <ele>411.917</ele>
        <time>2015-08-14T10:34:50Z</time>
      </trkpt>
      <trkpt lat="41.23937" lon="-6.81205">
        <ele>408.208</ele>
        <time>2015-08-14T10:35:05Z</time>
      </trkpt>
      <trkpt lat="41.23893" lon="-6.81165">
        <ele>398.459</ele>
        <time>2015-08-14T10:35:15Z</time>
      </trkpt>
      <trkpt lat="41.23887" lon="-6.81151">
        <ele>395.538</ele>
        <time>2015-08-14T10:35:19Z</time>
      </trkpt>
      <trkpt lat="41.23863" lon="-6.81196">
        <ele>388.286</ele>
        <time>2015-08-14T10:35:29Z</time>
      </trkpt>
      <trkpt lat="41.23792" lon="-6.81192">
        <ele>373.295</ele>
        <time>2015-08-14T10:35:44Z</time>
      </trkpt>
      <trkpt lat="41.23776" lon="-6.81221">
        <ele>371.015</ele>
        <time>2015-08-14T10:35:48Z</time>
      </trkpt>
      <trkpt lat="41.23751" lon="-6.81242">
        <ele>368.638</ele>
        <time>2015-08-14T10:35:52Z</time>
      </trkpt>
      <trkpt lat="41.2373" lon="-6.81243">
        <ele>365.366</ele>
        <time>2015-08-14T10:35:56Z</time>
      </trkpt>
      <trkpt lat="41.23641" lon="-6.81065">
        <ele>345.25</ele>
        <time>2015-08-14T10:36:29Z</time>
      </trkpt>
      <trkpt lat="41.23582" lon="-6.81017">
        <ele>352.671</ele>
        <time>2015-08-14T10:36:49Z</time>
      </trkpt>
      <trkpt lat="41.23521" lon="-6.80853">
        <ele>374.541</ele>
        <time>2015-08-14T10:37:12Z</time>
      </trkpt>
      <trkpt lat="41.23461" lon="-6.807">
        <ele>396.315</ele>
        <time>2015-08-14T10:37:40Z</time>
      </trkpt>
      <trkpt lat="41.23445" lon="-6.80695">
        <ele>400.008</ele>
        <time>2015-08-14T10:37:45Z</time>
      </trkpt>
      <trkpt lat="41.23414" lon="-6.80763">
        <ele>417.238</ele>
        <time>2015-08-14T10:38:00Z</time>
      </trkpt>
      <trkpt lat="41.2338" lon="-6.80802">
        <ele>425.897</ele>
        <time>2015-08-14T10:38:12Z</time>
      </trkpt>
      <trkpt lat="41.23316" lon="-6.80826">
        <ele>439.355</ele>
        <time>2015-08-14T10:38:27Z</time>
      </trkpt>
      <trkpt lat="41.23099" lon="-6.80944">
        <ele>474.284</ele>
        <time>2015-08-14T10:39:05Z</time>
      </trkpt>
      <trkpt lat="41.23042" lon="-6.80937">
        <ele>478.554</ele>
        <time>2015-08-14T10:39:13Z</time>
      </trkpt>
      <trkpt lat="41.22795" lon="-6.80742">
        <ele>525.537</ele>
        <time>2015-08-14T10:41:57Z</time>
      </trkpt>
      <trkpt lat="41.22687" lon="-6.80731">
        <ele>542.445</ele>
        <time>2015-08-14T10:42:21Z</time>
      </trkpt>
      <trkpt lat="41.22528" lon="-6.80691">
        <ele>561.919</ele>
        <time>2015-08-14T10:42:49Z</time>
      </trkpt>
      <trkpt lat="41.22331" lon="-6.80834">
        <ele>574.344</ele>
        <time>2015-08-14T10:43:20Z</time>
      </trkpt>
      <trkpt lat="41.22235" lon="-6.80863">
        <ele>578.405</ele>
        <time>2015-08-14T10:43:31Z</time>
      </trkpt>
      <trkpt lat="41.22128" lon="-6.80846">
        <ele>583.015</ele>
        <time>2015-08-14T10:43:45Z</time>
      </trkpt>
      <trkpt lat="41.2193" lon="-6.80898">
        <ele>599.108</ele>
        <time>2015-08-14T10:44:14Z</time>
      </trkpt>
      <trkpt lat="41.2177" lon="-6.81245">
        <ele>619.455</ele>
        <time>2015-08-14T10:44:48Z</time>
      </trkpt>
      <trkpt lat="41.21601" lon="-6.81333">
        <ele>636.644</ele>
        <time>2015-08-14T10:45:08Z</time>
      </trkpt>
      <trkpt lat="41.21488" lon="-6.81429">
        <ele>642.042</ele>
        <time>2015-08-14T10:45:20Z</time>
      </trkpt>
      <trkpt lat="41.21343" lon="-6.81615">
        <ele>633.071</ele>
        <time>2015-08-14T10:46:01Z</time>
      </trkpt>
      <trkpt lat="41.21303" lon="-6.81741">
        <ele>624.481</ele>
        <time>2015-08-14T10:46:12Z</time>
      </trkpt>
      <trkpt lat="41.21259" lon="-6.81871">
        <ele>615.364</ele>
        <time>2015-08-14T10:46:24Z</time>
      </trkpt>
      <trkpt lat="41.21239" lon="-6.82264">
        <ele>588.592</ele>
        <time>2015-08-14T10:47:03Z</time>
      </trkpt>
      <trkpt lat="41.21202" lon="-6.82257">
        <ele>588.456</ele>
        <time>2015-08-14T10:47:28Z</time>
      </trkpt>
      <trkpt lat="41.21145" lon="-6.82179">
        <ele>577.427</ele>
        <time>2015-08-14T10:47:44Z</time>
      </trkpt>
      <trkpt lat="41.21121" lon="-6.82106">
        <ele>573.168</ele>
        <time>2015-08-14T10:47:56Z</time>
      </trkpt>
      <trkpt lat="41.21105" lon="-6.82133">
        <ele>567.914</ele>
        <time>2015-08-14T10:48:06Z</time>
      </trkpt>
      <trkpt lat="41.21116" lon="-6.82108">
        <ele>571.508</ele>
        <time>2015-08-14T10:49:11Z</time>
      </trkpt>
      <trkpt lat="41.21077" lon="-6.82191">
        <ele>560.763</ele>
        <time>2015-08-14T10:49:33Z</time>
      </trkpt>
      <trkpt lat="41.20971" lon="-6.82212">
        <ele>552.062</ele>
        <time>2015-08-14T10:50:28Z</time>
      </trkpt>
      <trkpt lat="41.20992" lon="-6.82152">
        <ele>551.52</ele>
        <time>2015-08-14T10:50:45Z</time>
      </trkpt>
      <trkpt lat="41.21024" lon="-6.82113">
        <ele>552.619</ele>
        <time>2015-08-14T10:50:51Z</time>
      </trkpt>
      <trkpt lat="41.20993" lon="-6.81918">
        <ele>552.959</ele>
        <time>2015-08-14T10:51:56Z</time>
      </trkpt>
      <trkpt lat="41.20974" lon="-6.8181">
        <ele>551.322</ele>
        <time>2015-08-14T10:52:05Z</time>
      </trkpt>
      <trkpt lat="41.20986" lon="-6.8171">
        <ele>557.05</ele>
        <time>2015-08-14T10:52:12Z</time>
      </trkpt>
      <trkpt lat="41.20938" lon="-6.81648">
        <ele>556.594</ele>
        <time>2015-08-14T10:52:18Z</time>
      </trkpt>
      <trkpt lat="41.20923" lon="-6.81594">
        <ele>553.436</ele>
        <time>2015-08-14T10:52:22Z</time>
      </trkpt>
      <trkpt lat="41.20935" lon="-6.8152">
        <ele>554.917</ele>
        <time>2015-08-14T10:52:26Z</time>
      </trkpt>
      <trkpt lat="41.20961" lon="-6.8141">
        <ele>557.118</ele>
        <time>2015-08-14T10:52:32Z</time>
      </trkpt>
      <trkpt lat="41.20902" lon="-6.81333">
        <ele>563.208</ele>
        <time>2015-08-14T10:53:29Z</time>
      </trkpt>
      <trkpt lat="41.20804" lon="-6.81484">
        <ele>557.594</ele>
        <time>2015-08-14T10:53:44Z</time>
      </trkpt>
      <trkpt lat="41.20699" lon="-6.81581">
        <ele>555.233</ele>
        <time>2015-08-14T10:53:53Z</time>
      </trkpt>
      <trkpt lat="41.20679" lon="-6.81586">
        <ele>552.261</ele>
        <time>2015-08-14T10:53:55Z</time>
      </trkpt>
      <trkpt lat="41.20638" lon="-6.81494">
        <ele>540.72</ele>
        <time>2015-08-14T10:54:02Z</time>
      </trkpt>
      <trkpt lat="41.20635" lon="-6.81377">
        <ele>536.63</ele>
        <time>2015-08-14T10:54:08Z</time>
      </trkpt>
      <trkpt lat="41.20667" lon="-6.81319">
        <ele>538.913</ele>
        <time>2015-08-14T10:54:13Z</time>
      </trkpt>
      <trkpt lat="41.2065" lon="-6.81156">
        <ele>524.171</ele>
        <time>2015-08-14T10:54:21Z</time>
      </trkpt>
      <trkpt lat="41.2061" lon="-6.81087">
        <ele>522.545</ele>
        <time>2015-08-14T10:54:25Z</time>
      </trkpt>
      <trkpt lat="41.20587" lon="-6.80995">
        <ele>527.242</ele>
        <time>2015-08-14T10:54:29Z</time>
      </trkpt>
      <trkpt lat="41.20581" lon="-6.80803">
        <ele>532.722</ele>
        <time>2015-08-14T10:54:37Z</time>
      </trkpt>
      <trkpt lat="41.20526" lon="-6.80673">
        <ele>528.414</ele>
        <time>2015-08-14T10:54:44Z</time>
      </trkpt>
      <trkpt lat="41.20248" lon="-6.80665">
        <ele>535.808</ele>
        <time>2015-08-14T10:55:01Z</time>
      </trkpt>
      <trkpt lat="41.20154" lon="-6.80682">
        <ele>535.625</ele>
        <time>2015-08-14T10:55:07Z</time>
      </trkpt>
      <trkpt lat="41.20073" lon="-6.80606">
        <ele>541.424</ele>
        <time>2015-08-14T10:55:15Z</time>
      </trkpt>
      <trkpt lat="41.19653" lon="-6.80842">
        <ele>547.712</ele>
        <time>2015-08-14T10:55:38Z</time>
      </trkpt>
      <trkpt lat="41.19416" lon="-6.81041">
        <ele>558.721</ele>
        <time>2015-08-14T10:55:49Z</time>
      </trkpt>
      <trkpt lat="41.19192" lon="-6.8139">
        <ele>569.461</ele>
        <time>2015-08-14T10:56:12Z</time>
      </trkpt>
      <trkpt lat="41.19102" lon="-6.81461">
        <ele>574.644</ele>
        <time>2015-08-14T10:56:18Z</time>
      </trkpt>
      <trkpt lat="41.18952" lon="-6.81576">
        <ele>577.592</ele>
        <time>2015-08-14T10:56:31Z</time>
      </trkpt>
      <trkpt lat="41.18627" lon="-6.82221">
        <ele>604.526</ele>
        <time>2015-08-14T10:57:11Z</time>
      </trkpt>
      <trkpt lat="41.18561" lon="-6.82482">
        <ele>616.881</ele>
        <time>2015-08-14T10:57:23Z</time>
      </trkpt>
      <trkpt lat="41.18494" lon="-6.8263">
        <ele>619.061</ele>
        <time>2015-08-14T10:58:14Z</time>
      </trkpt>
      <trkpt lat="41.18339" lon="-6.84259">
        <ele>611.017</ele>
        <time>2015-08-14T10:59:59Z</time>
      </trkpt>
      <trkpt lat="41.18347" lon="-6.84438">
        <ele>614.108</ele>
        <time>2015-08-14T11:00:05Z</time>
      </trkpt>
      <trkpt lat="41.18414" lon="-6.84646">
        <ele>610.359</ele>
        <time>2015-08-14T11:00:12Z</time>
      </trkpt>
      <trkpt lat="41.18483" lon="-6.84893">
        <ele>603.548</ele>
        <time>2015-08-14T11:00:21Z</time>
      </trkpt>
      <trkpt lat="41.18403" lon="-6.85231">
        <ele>612.146</ele>
        <time>2015-08-14T11:00:34Z</time>
      </trkpt>
      <trkpt lat="41.18416" lon="-6.85265">
        <ele>611.935</ele>
        <time>2015-08-14T11:00:36Z</time>
      </trkpt>
      <trkpt lat="41.1846" lon="-6.85289">
        <ele>613.485</ele>
        <time>2015-08-14T11:00:39Z</time>
      </trkpt>
      <trkpt lat="41.18526" lon="-6.85315">
        <ele>616.238</ele>
        <time>2015-08-14T11:00:43Z</time>
      </trkpt>
      <trkpt lat="41.18554" lon="-6.8537">
        <ele>616.786</ele>
        <time>2015-08-14T11:00:46Z</time>
      </trkpt>
      <trkpt lat="41.18545" lon="-6.8582">
        <ele>623.99</ele>
        <time>2015-08-14T11:01:03Z</time>
      </trkpt>
      <trkpt lat="41.18523" lon="-6.85892">
        <ele>624.986</ele>
        <time>2015-08-14T11:01:06Z</time>
      </trkpt>
      <trkpt lat="41.18475" lon="-6.85944">
        <ele>627.06</ele>
        <time>2015-08-14T11:01:09Z</time>
      </trkpt>
      <trkpt lat="41.18428" lon="-6.86002">
        <ele>626.926</ele>
        <time>2015-08-14T11:01:12Z</time>
      </trkpt>
      <trkpt lat="41.1836" lon="-6.86169">
        <ele>626.908</ele>
        <time>2015-08-14T11:01:18Z</time>
      </trkpt>
      <trkpt lat="41.18288" lon="-6.8637">
        <ele>624.659</ele>
        <time>2015-08-14T11:01:25Z</time>
      </trkpt>
      <trkpt lat="41.18292" lon="-6.86514">
        <ele>624.958</ele>
        <time>2015-08-14T11:01:30Z</time>
      </trkpt>
      <trkpt lat="41.18346" lon="-6.86617">
        <ele>628.986</ele>
        <time>2015-08-14T11:01:34Z</time>
      </trkpt>
      <trkpt lat="41.18528" lon="-6.86818">
        <ele>634.175</ele>
        <time>2015-08-14T11:01:44Z</time>
      </trkpt>
      <trkpt lat="41.18562" lon="-6.87348">
        <ele>620.755</ele>
        <time>2015-08-14T11:02:03Z</time>
      </trkpt>
      <trkpt lat="41.18146" lon="-6.8901">
        <ele>620.148</ele>
        <time>2015-08-14T11:03:21Z</time>
      </trkpt>
      <trkpt lat="41.18263" lon="-6.895">
        <ele>625.556</ele>
        <time>2015-08-14T11:03:48Z</time>
      </trkpt>
      <trkpt lat="41.18271" lon="-6.89664">
        <ele>626.15</ele>
        <time>2015-08-14T11:03:56Z</time>
      </trkpt>
      <trkpt lat="41.18269" lon="-6.90082">
        <ele>632.695</ele>
        <time>2015-08-14T11:04:20Z</time>
      </trkpt>
      <trkpt lat="41.18093" lon="-6.90702">
        <ele>640.049</ele>
        <time>2015-08-14T11:04:51Z</time>
      </trkpt>
      <trkpt lat="41.18064" lon="-6.90952">
        <ele>636.923</ele>
        <time>2015-08-14T11:05:25Z</time>
      </trkpt>
      <trkpt lat="41.18023" lon="-6.90986">
        <ele>638.108</ele>
        <time>2015-08-14T11:05:38Z</time>
      </trkpt>
      <trkpt lat="41.18014" lon="-6.91061">
        <ele>637.85</ele>
        <time>2015-08-14T11:08:18Z</time>
      </trkpt>
      <trkpt lat="41.18004" lon="-6.9109">
        <ele>636.069</ele>
        <time>2015-08-14T11:08:22Z</time>
      </trkpt>
      <trkpt lat="41.1797" lon="-6.91154">
        <ele>635.497</ele>
        <time>2015-08-14T11:08:29Z</time>
      </trkpt>
      <trkpt lat="41.1789" lon="-6.91226">
        <ele>636.486</ele>
        <time>2015-08-14T11:08:40Z</time>
      </trkpt>
      <trkpt lat="41.17642" lon="-6.91387">
        <ele>637.186</ele>
        <time>2015-08-14T11:09:10Z</time>
      </trkpt>
      <trkpt lat="41.17557" lon="-6.9154">
        <ele>632.599</ele>
        <time>2015-08-14T11:11:59Z</time>
      </trkpt>
      <trkpt lat="41.1752" lon="-6.92573">
        <ele>635.667</ele>
        <time>2015-08-14T11:14:03Z</time>
      </trkpt>
      <trkpt lat="41.17575" lon="-6.92698">
        <ele>636.871</ele>
        <time>2015-08-14T11:14:17Z</time>
      </trkpt>
      <trkpt lat="41.17574" lon="-6.92793">
        <ele>639.412</ele>
        <time>2015-08-14T11:14:25Z</time>
      </trkpt>
      <trkpt lat="41.17496" lon="-6.92862">
        <ele>641.432</ele>
        <time>2015-08-14T11:14:38Z</time>
      </trkpt>
      <trkpt lat="41.17482" lon="-6.92979">
        <ele>637.305</ele>
        <time>2015-08-14T11:14:49Z</time>
      </trkpt>
      <trkpt lat="41.17466" lon="-6.93007">
        <ele>636.808</ele>
        <time>2015-08-14T11:14:53Z</time>
      </trkpt>
      <trkpt lat="41.17454" lon="-6.93113">
        <ele>640.432</ele>
        <time>2015-08-14T11:15:07Z</time>
      </trkpt>
      <trkpt lat="41.17368" lon="-6.93219">
        <ele>643.961</ele>
        <time>2015-08-14T11:15:20Z</time>
      </trkpt>
      <trkpt lat="41.1721" lon="-6.93523">
        <ele>655.399</ele>
        <time>2015-08-14T11:15:46Z</time>
      </trkpt>
      <trkpt lat="41.17125" lon="-6.93628">
        <ele>662.138</ele>
        <time>2015-08-14T11:16:00Z</time>
      </trkpt>
      <trkpt lat="41.16885" lon="-6.93985">
        <ele>677.568</ele>
        <time>2015-08-14T11:17:35Z</time>
      </trkpt>
      <trkpt lat="41.1685" lon="-6.94109">
        <ele>674.231</ele>
        <time>2015-08-14T11:17:45Z</time>
      </trkpt>
      <trkpt lat="41.16869" lon="-6.94282">
        <ele>667.579</ele>
        <time>2015-08-14T11:18:52Z</time>
      </trkpt>
      <trkpt lat="41.16748" lon="-6.94493">
        <ele>662.193</ele>
        <time>2015-08-14T11:19:17Z</time>
      </trkpt>
      <trkpt lat="41.16696" lon="-6.947">
        <ele>658.113</ele>
        <time>2015-08-14T11:19:33Z</time>
      </trkpt>
      <trkpt lat="41.16709" lon="-6.94855">
        <ele>658.643</ele>
        <time>2015-08-14T11:19:43Z</time>
      </trkpt>
      <trkpt lat="41.16714" lon="-6.94983">
        <ele>661.407</ele>
        <time>2015-08-14T11:19:50Z</time>
      </trkpt>
      <trkpt lat="41.16768" lon="-6.95076">
        <ele>662.308</ele>
        <time>2015-08-14T11:19:58Z</time>
      </trkpt>
      <trkpt lat="41.16764" lon="-6.95303">
        <ele>665.042</ele>
        <time>2015-08-14T11:20:11Z</time>
      </trkpt>
      <trkpt lat="41.16778" lon="-6.95384">
        <ele>668.631</ele>
        <time>2015-08-14T11:20:16Z</time>
      </trkpt>
      <trkpt lat="41.16573" lon="-6.95516">
        <ele>678.669</ele>
        <time>2015-08-14T11:20:33Z</time>
      </trkpt>
      <trkpt lat="41.16485" lon="-6.95603">
        <ele>673.298</ele>
        <time>2015-08-14T11:21:12Z</time>
      </trkpt>
      <trkpt lat="41.16443" lon="-6.95691">
        <ele>667.018</ele>
        <time>2015-08-14T11:21:18Z</time>
      </trkpt>
      <trkpt lat="41.16369" lon="-6.9571">
        <ele>661.331</ele>
        <time>2015-08-14T11:21:24Z</time>
      </trkpt>
      <trkpt lat="41.16313" lon="-6.95751">
        <ele>655.979</ele>
        <time>2015-08-14T11:21:28Z</time>
      </trkpt>
      <trkpt lat="41.16251" lon="-6.95817">
        <ele>653.293</ele>
        <time>2015-08-14T11:21:35Z</time>
      </trkpt>
      <trkpt lat="41.16301" lon="-6.9583">
        <ele>650.266</ele>
        <time>2015-08-14T11:21:44Z</time>
      </trkpt>
      <trkpt lat="41.16275" lon="-6.9612">
        <ele>654.829</ele>
        <time>2015-08-14T11:22:00Z</time>
      </trkpt>
      <trkpt lat="41.16295" lon="-6.9635">
        <ele>652.421</ele>
        <time>2015-08-14T11:22:17Z</time>
      </trkpt>
      <trkpt lat="41.1639" lon="-6.9661">
        <ele>665.208</ele>
        <time>2015-08-14T11:22:41Z</time>
      </trkpt>
      <trkpt lat="41.16412" lon="-6.96692">
        <ele>670.737</ele>
        <time>2015-08-14T11:24:06Z</time>
      </trkpt>
      <trkpt lat="41.16328" lon="-6.96741">
        <ele>668.426</ele>
        <time>2015-08-14T11:24:18Z</time>
      </trkpt>
      <trkpt lat="41.162" lon="-6.9694">
        <ele>666.334</ele>
        <time>2015-08-14T11:24:36Z</time>
      </trkpt>
      <trkpt lat="41.16152" lon="-6.9703">
        <ele>667.633</ele>
        <time>2015-08-14T11:24:44Z</time>
      </trkpt>
      <trkpt lat="41.16022" lon="-6.97047">
        <ele>664.583</ele>
        <time>2015-08-14T11:24:57Z</time>
      </trkpt>
      <trkpt lat="41.1595" lon="-6.97124">
        <ele>664.436</ele>
        <time>2015-08-14T11:25:04Z</time>
      </trkpt>
      <trkpt lat="41.15811" lon="-6.97442">
        <ele>641.454</ele>
        <time>2015-08-14T11:25:25Z</time>
      </trkpt>
      <trkpt lat="41.15781" lon="-6.97718">
        <ele>638.468</ele>
        <time>2015-08-14T11:25:43Z</time>
      </trkpt>
      <trkpt lat="41.15783" lon="-6.9776">
        <ele>639.626</ele>
        <time>2015-08-14T11:25:47Z</time>
      </trkpt>
      <trkpt lat="41.15676" lon="-6.97804">
        <ele>649.447</ele>
        <time>2015-08-14T11:26:00Z</time>
      </trkpt>
      <trkpt lat="41.15681" lon="-6.9809">
        <ele>642.111</ele>
        <time>2015-08-14T11:26:57Z</time>
      </trkpt>
      <trkpt lat="41.15611" lon="-6.98326">
        <ele>630.008</ele>
        <time>2015-08-14T11:27:20Z</time>
      </trkpt>
      <trkpt lat="41.15583" lon="-6.98499">
        <ele>629.073</ele>
        <time>2015-08-14T11:28:05Z</time>
      </trkpt>
      <trkpt lat="41.15602" lon="-6.98624">
        <ele>622.312</ele>
        <time>2015-08-14T11:28:29Z</time>
      </trkpt>
      <trkpt lat="41.15444" lon="-6.98917">
        <ele>609.94</ele>
        <time>2015-08-14T11:29:41Z</time>
      </trkpt>
      <trkpt lat="41.15468" lon="-6.99085">
        <ele>604.169</ele>
        <time>2015-08-14T11:29:58Z</time>
      </trkpt>
      <trkpt lat="41.1542" lon="-6.99173">
        <ele>601.169</ele>
        <time>2015-08-14T11:30:11Z</time>
      </trkpt>
      <trkpt lat="41.1542" lon="-6.99276">
        <ele>599.972</ele>
        <time>2015-08-14T11:30:20Z</time>
      </trkpt>
      <trkpt lat="41.15383" lon="-6.99367">
        <ele>597.41</ele>
        <time>2015-08-14T11:30:29Z</time>
      </trkpt>
      <trkpt lat="41.15414" lon="-6.99499">
        <ele>594.084</ele>
        <time>2015-08-14T11:30:44Z</time>
      </trkpt>
      <trkpt lat="41.15406" lon="-6.99615">
        <ele>588.123</ele>
        <time>2015-08-14T11:30:52Z</time>
      </trkpt>
      <trkpt lat="41.15361" lon="-6.99675">
        <ele>585.183</ele>
        <time>2015-08-14T11:30:59Z</time>
      </trkpt>
      <trkpt lat="41.15318" lon="-6.99768">
        <ele>584.311</ele>
        <time>2015-08-14T11:31:08Z</time>
      </trkpt>
      <trkpt lat="41.15312" lon="-6.99783">
        <ele>583.108</ele>
        <time>2015-08-14T11:31:10Z</time>
      </trkpt>
      <trkpt lat="41.15365" lon="-7.00029">
        <ele>594.833</ele>
        <time>2015-08-14T11:31:29Z</time>
      </trkpt>
      <trkpt lat="41.15314" lon="-7.00346">
        <ele>597.382</ele>
        <time>2015-08-14T11:31:47Z</time>
      </trkpt>
      <trkpt lat="41.15268" lon="-7.00362">
        <ele>599.15</ele>
        <time>2015-08-14T11:31:56Z</time>
      </trkpt>
      <trkpt lat="41.15176" lon="-7.00492">
        <ele>614.399</ele>
        <time>2015-08-14T11:32:15Z</time>
      </trkpt>
      <trkpt lat="41.15123" lon="-7.00617">
        <ele>625.579</ele>
        <time>2015-08-14T11:32:25Z</time>
      </trkpt>
      <trkpt lat="41.15162" lon="-7.00724">
        <ele>629.712</ele>
        <time>2015-08-14T11:32:34Z</time>
      </trkpt>
      <trkpt lat="41.15219" lon="-7.00765">
        <ele>632.44</ele>
        <time>2015-08-14T11:32:40Z</time>
      </trkpt>
      <trkpt lat="41.15279" lon="-7.00822">
        <ele>633.094</ele>
        <time>2015-08-14T11:32:50Z</time>
      </trkpt>
      <trkpt lat="41.15363" lon="-7.01196">
        <ele>639.475</ele>
        <time>2015-08-14T11:33:24Z</time>
      </trkpt>
      <trkpt lat="41.15441" lon="-7.01262">
        <ele>645.228</ele>
        <time>2015-08-14T11:34:32Z</time>
      </trkpt>
      <trkpt lat="41.15387" lon="-7.01305">
        <ele>644.82</ele>
        <time>2015-08-14T11:34:50Z</time>
      </trkpt>
      <trkpt lat="41.15403" lon="-7.01363">
        <ele>647.808</ele>
        <time>2015-08-14T11:35:32Z</time>
      </trkpt>
      <trkpt lat="41.15457" lon="-7.01517">
        <ele>653.028</ele>
        <time>2015-08-14T11:36:28Z</time>
      </trkpt>
      <trkpt lat="41.1549" lon="-7.016">
        <ele>658.047</ele>
        <time>2015-08-14T11:36:42Z</time>
      </trkpt>
      <trkpt lat="41.15525" lon="-7.01681">
        <ele>660.665</ele>
        <time>2015-08-14T11:36:54Z</time>
      </trkpt>
      <trkpt lat="41.15527" lon="-7.01776">
        <ele>662.794</ele>
        <time>2015-08-14T11:37:04Z</time>
      </trkpt>
      <trkpt lat="41.15393" lon="-7.02213">
        <ele>671.214</ele>
        <time>2015-08-14T11:37:43Z</time>
      </trkpt>
      <trkpt lat="41.15368" lon="-7.02289">
        <ele>673.417</ele>
        <time>2015-08-14T11:37:52Z</time>
      </trkpt>
      <trkpt lat="41.15368" lon="-7.02455">
        <ele>680.175</ele>
        <time>2015-08-14T11:39:21Z</time>
      </trkpt>
      <trkpt lat="41.15458" lon="-7.02653">
        <ele>692.269</ele>
        <time>2015-08-14T11:39:56Z</time>
      </trkpt>
      <trkpt lat="41.15476" lon="-7.02892">
        <ele>700.464</ele>
        <time>2015-08-14T11:40:28Z</time>
      </trkpt>
      <trkpt lat="41.15475" lon="-7.0292">
        <ele>701.406</ele>
        <time>2015-08-14T11:40:35Z</time>
      </trkpt>
      <trkpt lat="41.15619" lon="-7.03723">
        <ele>766.016</ele>
        <time>2015-08-14T11:42:34Z</time>
      </trkpt>
      <trkpt lat="41.15716" lon="-7.03897">
        <ele>786.708</ele>
        <time>2015-08-14T11:43:10Z</time>
      </trkpt>
      <trkpt lat="41.1574" lon="-7.03937">
        <ele>788.337</ele>
        <time>2015-08-14T11:43:21Z</time>
      </trkpt>
      <trkpt lat="41.15934" lon="-7.04155">
        <ele>748.716</ele>
        <time>2015-08-14T11:44:33Z</time>
      </trkpt>
      <trkpt lat="41.15969" lon="-7.04222">
        <ele>738.824</ele>
        <time>2015-08-14T11:44:45Z</time>
      </trkpt>
      <trkpt lat="41.16137" lon="-7.0483">
        <ele>675.113</ele>
        <time>2015-08-14T11:46:04Z</time>
      </trkpt>
      <trkpt lat="41.16206" lon="-7.04966">
        <ele>664.533</ele>
        <time>2015-08-14T11:46:25Z</time>
      </trkpt>
      <trkpt lat="41.16272" lon="-7.0505">
        <ele>650.736</ele>
        <time>2015-08-14T11:46:42Z</time>
      </trkpt>
      <trkpt lat="41.16314" lon="-7.05062">
        <ele>645.354</ele>
        <time>2015-08-14T11:47:09Z</time>
      </trkpt>
      <trkpt lat="41.16295" lon="-7.05144">
        <ele>632.978</ele>
        <time>2015-08-14T11:47:59Z</time>
      </trkpt>
      <trkpt lat="41.16328" lon="-7.05204">
        <ele>621.521</ele>
        <time>2015-08-14T11:48:11Z</time>
      </trkpt>
      <trkpt lat="41.16374" lon="-7.05331">
        <ele>602.841</ele>
        <time>2015-08-14T11:48:30Z</time>
      </trkpt>
      <trkpt lat="41.16467" lon="-7.05642">
        <ele>600.205</ele>
        <time>2015-08-14T11:49:03Z</time>
      </trkpt>
      <trkpt lat="41.1643" lon="-7.06026">
        <ele>601.308</ele>
        <time>2015-08-14T11:49:37Z</time>
      </trkpt>
      <trkpt lat="41.165" lon="-7.06167">
        <ele>589.823</ele>
        <time>2015-08-14T11:50:35Z</time>
      </trkpt>
      <trkpt lat="41.16524" lon="-7.06202">
        <ele>582.732</ele>
        <time>2015-08-14T11:50:42Z</time>
      </trkpt>
      <trkpt lat="41.1649" lon="-7.06222">
        <ele>578.58</ele>
        <time>2015-08-14T11:50:49Z</time>
      </trkpt>
      <trkpt lat="41.16464" lon="-7.06218">
        <ele>573.969</ele>
        <time>2015-08-14T11:50:55Z</time>
      </trkpt>
      <trkpt lat="41.16507" lon="-7.06295">
        <ele>566.919</ele>
        <time>2015-08-14T11:51:06Z</time>
      </trkpt>
      <trkpt lat="41.16524" lon="-7.06335">
        <ele>560.742</ele>
        <time>2015-08-14T11:51:10Z</time>
      </trkpt>
      <trkpt lat="41.16551" lon="-7.06334">
        <ele>561.19</ele>
        <time>2015-08-14T11:51:14Z</time>
      </trkpt>
      <trkpt lat="41.16569" lon="-7.06279">
        <ele>563.594</ele>
        <time>2015-08-14T11:51:20Z</time>
      </trkpt>
      <trkpt lat="41.16603" lon="-7.06391">
        <ele>544.723</ele>
        <time>2015-08-14T11:51:33Z</time>
      </trkpt>
      <trkpt lat="41.16535" lon="-7.0664">
        <ele>527.683</ele>
        <time>2015-08-14T11:51:57Z</time>
      </trkpt>
      <trkpt lat="41.16575" lon="-7.06666">
        <ele>517.111</ele>
        <time>2015-08-14T11:53:01Z</time>
      </trkpt>
      <trkpt lat="41.16486" lon="-7.06698">
        <ele>505.208</ele>
        <time>2015-08-14T11:53:17Z</time>
      </trkpt>
      <trkpt lat="41.16553" lon="-7.06763">
        <ele>492.283</ele>
        <time>2015-08-14T11:53:28Z</time>
      </trkpt>
      <trkpt lat="41.16671" lon="-7.06833">
        <ele>475.342</ele>
        <time>2015-08-14T11:53:40Z</time>
      </trkpt>
      <trkpt lat="41.16671" lon="-7.06937">
        <ele>472.15</ele>
        <time>2015-08-14T11:53:52Z</time>
      </trkpt>
      <trkpt lat="41.16554" lon="-7.06855">
        <ele>465.579</ele>
        <time>2015-08-14T11:54:12Z</time>
      </trkpt>
      <trkpt lat="41.16551" lon="-7.06921">
        <ele>462.099</ele>
        <time>2015-08-14T11:54:18Z</time>
      </trkpt>
      <trkpt lat="41.16557" lon="-7.07036">
        <ele>458.512</ele>
        <time>2015-08-14T11:55:48Z</time>
      </trkpt>
      <trkpt lat="41.16394" lon="-7.07119">
        <ele>470.66</ele>
        <time>2015-08-14T11:56:08Z</time>
      </trkpt>
      <trkpt lat="41.16332" lon="-7.07077">
        <ele>469.784</ele>
        <time>2015-08-14T11:56:13Z</time>
      </trkpt>
      <trkpt lat="41.1621" lon="-7.07024">
        <ele>474.515</ele>
        <time>2015-08-14T11:56:21Z</time>
      </trkpt>
      <trkpt lat="41.16157" lon="-7.07045">
        <ele>472.365</ele>
        <time>2015-08-14T11:56:24Z</time>
      </trkpt>
      <trkpt lat="41.1594" lon="-7.07121">
        <ele>468.111</ele>
        <time>2015-08-14T11:56:36Z</time>
      </trkpt>
      <trkpt lat="41.15618" lon="-7.07158">
        <ele>462.308</ele>
        <time>2015-08-14T11:56:53Z</time>
      </trkpt>
      <trkpt lat="41.1559" lon="-7.07146">
        <ele>459.322</ele>
        <time>2015-08-14T11:56:55Z</time>
      </trkpt>
      <trkpt lat="41.15551" lon="-7.0705">
        <ele>464.351</ele>
        <time>2015-08-14T11:57:00Z</time>
      </trkpt>
      <trkpt lat="41.15475" lon="-7.06909">
        <ele>468.589</ele>
        <time>2015-08-14T11:57:07Z</time>
      </trkpt>
      <trkpt lat="41.15275" lon="-7.06778">
        <ele>477.278</ele>
        <time>2015-08-14T11:57:19Z</time>
      </trkpt>
      <trkpt lat="41.15133" lon="-7.06806">
        <ele>481.468</ele>
        <time>2015-08-14T11:57:32Z</time>
      </trkpt>
      <trkpt lat="41.15127" lon="-7.06904">
        <ele>476.871</ele>
        <time>2015-08-14T11:58:05Z</time>
      </trkpt>
      <trkpt lat="41.15174" lon="-7.07075">
        <ele>463.329</ele>
        <time>2015-08-14T11:58:16Z</time>
      </trkpt>
      <trkpt lat="41.15096" lon="-7.07209">
        <ele>461.143</ele>
        <time>2015-08-14T11:58:24Z</time>
      </trkpt>
      <trkpt lat="41.14987" lon="-7.07515">
        <ele>460.123</ele>
        <time>2015-08-14T11:58:43Z</time>
      </trkpt>
      <trkpt lat="41.14985" lon="-7.07674">
        <ele>451.383</ele>
        <time>2015-08-14T11:58:56Z</time>
      </trkpt>
      <trkpt lat="41.14996" lon="-7.07717">
        <ele>449.011</ele>
        <time>2015-08-14T11:59:00Z</time>
      </trkpt>
      <trkpt lat="41.14925" lon="-7.07826">
        <ele>441.208</ele>
        <time>2015-08-14T11:59:09Z</time>
      </trkpt>
      <trkpt lat="41.1491" lon="-7.07932">
        <ele>441.023</ele>
        <time>2015-08-14T11:59:18Z</time>
      </trkpt>
      <trkpt lat="41.14771" lon="-7.07983">
        <ele>433.342</ele>
        <time>2015-08-14T11:59:32Z</time>
      </trkpt>
      <trkpt lat="41.14587" lon="-7.0822">
        <ele>436.61</ele>
        <time>2015-08-14T11:59:57Z</time>
      </trkpt>
      <trkpt lat="41.14583" lon="-7.08225">
        <ele>436.969</ele>
        <time>2015-08-14T11:59:59Z</time>
      </trkpt>
      <trkpt lat="41.14562" lon="-7.08337">
        <ele>437.869</ele>
        <time>2015-08-14T12:00:52Z</time>
      </trkpt>
      <trkpt lat="41.1454" lon="-7.08358">
        <ele>438.442</ele>
        <time>2015-08-14T12:00:55Z</time>
      </trkpt>
      <trkpt lat="41.14466" lon="-7.08439">
        <ele>432.55</ele>
        <time>2015-08-14T12:01:06Z</time>
      </trkpt>
      <trkpt lat="41.14478" lon="-7.08605">
        <ele>434.684</ele>
        <time>2015-08-14T12:01:57Z</time>
      </trkpt>
      <trkpt lat="41.14566" lon="-7.08786">
        <ele>421.197</ele>
        <time>2015-08-14T12:02:18Z</time>
      </trkpt>
      <trkpt lat="41.14563" lon="-7.08893">
        <ele>415.523</ele>
        <time>2015-08-14T12:02:29Z</time>
      </trkpt>
      <trkpt lat="41.14484" lon="-7.09128">
        <ele>408.325</ele>
        <time>2015-08-14T12:03:00Z</time>
      </trkpt>
      <trkpt lat="41.14508" lon="-7.09226">
        <ele>408.408</ele>
        <time>2015-08-14T12:03:36Z</time>
      </trkpt>
      <trkpt lat="41.1456" lon="-7.09342">
        <ele>401.01</ele>
        <time>2015-08-14T12:03:49Z</time>
      </trkpt>
      <trkpt lat="41.14431" lon="-7.09856">
        <ele>348.349</ele>
        <time>2015-08-14T12:05:00Z</time>
      </trkpt>
      <trkpt lat="41.14358" lon="-7.10339">
        <ele>277.667</ele>
        <time>2015-08-14T12:06:04Z</time>
      </trkpt>
      <trkpt lat="41.14286" lon="-7.1047">
        <ele>259.856</ele>
        <time>2015-08-14T12:06:26Z</time>
      </trkpt>
      <trkpt lat="41.14282" lon="-7.10366">
        <ele>259.666</ele>
        <time>2015-08-14T12:06:47Z</time>
      </trkpt>
      <trkpt lat="41.14261" lon="-7.10298">
        <ele>256.579</ele>
        <time>2015-08-14T12:07:06Z</time>
      </trkpt>
      <trkpt lat="41.14137" lon="-7.10744">
        <ele>195.037</ele>
        <time>2015-08-14T12:08:09Z</time>
      </trkpt>
      <trkpt lat="41.14095" lon="-7.10776">
        <ele>188.661</ele>
        <time>2015-08-14T12:08:18Z</time>
      </trkpt>
      <trkpt lat="41.14058" lon="-7.10769">
        <ele>181.625</ele>
        <time>2015-08-14T12:08:25Z</time>
      </trkpt>
      <trkpt lat="41.1405" lon="-7.10679">
        <ele>185.226</ele>
        <time>2015-08-14T12:08:38Z</time>
      </trkpt>
      <trkpt lat="41.1402" lon="-7.10679">
        <ele>180.708</ele>
        <time>2015-08-14T12:08:44Z</time>
      </trkpt>
      <trkpt lat="41.13983" lon="-7.10712">
        <ele>170.308</ele>
        <time>2015-08-14T12:08:51Z</time>
      </trkpt>
      <trkpt lat="41.13939" lon="-7.10771">
        <ele>162.713</ele>
        <time>2015-08-14T12:09:00Z</time>
      </trkpt>
      <trkpt lat="41.13903" lon="-7.10902">
        <ele>149.722</ele>
        <time>2015-08-14T12:09:16Z</time>
      </trkpt>
      <trkpt lat="41.13875" lon="-7.10919">
        <ele>145.41</ele>
        <time>2015-08-14T12:09:20Z</time>
      </trkpt>
      <trkpt lat="41.1375" lon="-7.10977">
        <ele>131.089</ele>
        <time>2015-08-14T12:09:40Z</time>
      </trkpt>
      <trkpt lat="41.13718" lon="-7.1106">
        <ele>131.679</ele>
        <time>2015-08-14T12:10:19Z</time>
      </trkpt>
      <trkpt lat="41.13717" lon="-7.1112">
        <ele>131.432</ele>
        <time>2015-08-14T12:10:23Z</time>
      </trkpt>
      <trkpt lat="41.13646" lon="-7.11475">
        <ele>131.06</ele>
        <time>2015-08-14T12:11:11Z</time>
      </trkpt>
      <trkpt lat="41.13514" lon="-7.11427">
        <ele>118.654</ele>
        <time>2015-08-14T12:11:26Z</time>
      </trkpt>
      <trkpt lat="41.13256" lon="-7.11361">
        <ele>139.675</ele>
        <time>2015-08-14T12:11:44Z</time>
      </trkpt>
      <trkpt lat="41.13211" lon="-7.11449">
        <ele>146.328</ele>
        <time>2015-08-14T12:11:51Z</time>
      </trkpt>
      <trkpt lat="41.13199" lon="-7.11516">
        <ele>143.52</ele>
        <time>2015-08-14T12:11:54Z</time>
      </trkpt>
      <trkpt lat="41.13146" lon="-7.11998">
        <ele>145.008</ele>
        <time>2015-08-14T12:12:13Z</time>
      </trkpt>
      <trkpt lat="41.13107" lon="-7.12104">
        <ele>145.028</ele>
        <time>2015-08-14T12:12:25Z</time>
      </trkpt>
      <trkpt lat="41.12919" lon="-7.12354">
        <ele>157.227</ele>
        <time>2015-08-14T12:12:49Z</time>
      </trkpt>
      <trkpt lat="41.1282" lon="-7.12443">
        <ele>171.175</ele>
        <time>2015-08-14T12:12:56Z</time>
      </trkpt>
      <trkpt lat="41.12738" lon="-7.12475">
        <ele>178.024</ele>
        <time>2015-08-14T12:13:11Z</time>
      </trkpt>
      <trkpt lat="41.12697" lon="-7.12429">
        <ele>178.614</ele>
        <time>2015-08-14T12:13:18Z</time>
      </trkpt>
      <trkpt lat="41.12625" lon="-7.12418">
        <ele>186.267</ele>
        <time>2015-08-14T12:13:24Z</time>
      </trkpt>
      <trkpt lat="41.12433" lon="-7.125">
        <ele>195.715</ele>
        <time>2015-08-14T12:13:36Z</time>
      </trkpt>
      <trkpt lat="41.1223" lon="-7.12617">
        <ele>211.169</ele>
        <time>2015-08-14T12:13:48Z</time>
      </trkpt>
      <trkpt lat="41.12108" lon="-7.12678">
        <ele>215.373</ele>
        <time>2015-08-14T12:13:55Z</time>
      </trkpt>
      <trkpt lat="41.12063" lon="-7.12787">
        <ele>222.185</ele>
        <time>2015-08-14T12:14:00Z</time>
      </trkpt>
      <trkpt lat="41.12041" lon="-7.12853">
        <ele>218.013</ele>
        <time>2015-08-14T12:14:03Z</time>
      </trkpt>
      <trkpt lat="41.11986" lon="-7.12898">
        <ele>217.508</ele>
        <time>2015-08-14T12:14:07Z</time>
      </trkpt>
      <trkpt lat="41.11781" lon="-7.12846">
        <ele>214.528</ele>
        <time>2015-08-14T12:14:19Z</time>
      </trkpt>
      <trkpt lat="41.11747" lon="-7.12635">
        <ele>217.157</ele>
        <time>2015-08-14T12:14:28Z</time>
      </trkpt>
      <trkpt lat="41.11697" lon="-7.12563">
        <ele>230.655</ele>
        <time>2015-08-14T12:14:32Z</time>
      </trkpt>
      <trkpt lat="41.11634" lon="-7.12511">
        <ele>234.314</ele>
        <time>2015-08-14T12:14:36Z</time>
      </trkpt>
      <trkpt lat="41.11584" lon="-7.12513">
        <ele>234.654</ele>
        <time>2015-08-14T12:14:39Z</time>
      </trkpt>
      <trkpt lat="41.11495" lon="-7.12661">
        <ele>238.647</ele>
        <time>2015-08-14T12:14:47Z</time>
      </trkpt>
      <trkpt lat="41.11304" lon="-7.12783">
        <ele>248.675</ele>
        <time>2015-08-14T12:14:58Z</time>
      </trkpt>
      <trkpt lat="41.11046" lon="-7.129">
        <ele>265.169</ele>
        <time>2015-08-14T12:15:12Z</time>
      </trkpt>
      <trkpt lat="41.10934" lon="-7.12843">
        <ele>276.565</ele>
        <time>2015-08-14T12:15:19Z</time>
      </trkpt>
      <trkpt lat="41.10861" lon="-7.12853">
        <ele>278.368</ele>
        <time>2015-08-14T12:15:23Z</time>
      </trkpt>
      <trkpt lat="41.1079" lon="-7.12881">
        <ele>283.514</ele>
        <time>2015-08-14T12:15:27Z</time>
      </trkpt>
      <trkpt lat="41.10756" lon="-7.12929">
        <ele>283.108</ele>
        <time>2015-08-14T12:15:30Z</time>
      </trkpt>
      <trkpt lat="41.10757" lon="-7.13022">
        <ele>288.757</ele>
        <time>2015-08-14T12:15:34Z</time>
      </trkpt>
      <trkpt lat="41.10758" lon="-7.13044">
        <ele>289.446</ele>
        <time>2015-08-14T12:15:35Z</time>
      </trkpt>
      <trkpt lat="41.10683" lon="-7.13171">
        <ele>291.734</ele>
        <time>2015-08-14T12:15:42Z</time>
      </trkpt>
      <trkpt lat="41.10547" lon="-7.13339">
        <ele>302.583</ele>
        <time>2015-08-14T12:15:51Z</time>
      </trkpt>
      <trkpt lat="41.10386" lon="-7.13431">
        <ele>315.273</ele>
        <time>2015-08-14T12:16:00Z</time>
      </trkpt>
      <trkpt lat="41.10355" lon="-7.13518">
        <ele>314.026</ele>
        <time>2015-08-14T12:16:05Z</time>
      </trkpt>
      <trkpt lat="41.1033" lon="-7.13562">
        <ele>313.264</ele>
        <time>2015-08-14T12:16:08Z</time>
      </trkpt>
      <trkpt lat="41.10213" lon="-7.13626">
        <ele>321.128</ele>
        <time>2015-08-14T12:16:15Z</time>
      </trkpt>
      <trkpt lat="41.10144" lon="-7.13676">
        <ele>319.558</ele>
        <time>2015-08-14T12:16:19Z</time>
      </trkpt>
      <trkpt lat="41.10072" lon="-7.13752">
        <ele>319.752</ele>
        <time>2015-08-14T12:16:24Z</time>
      </trkpt>
      <trkpt lat="41.09947" lon="-7.13755">
        <ele>329.317</ele>
        <time>2015-08-14T12:16:31Z</time>
      </trkpt>
      <trkpt lat="41.09835" lon="-7.13766">
        <ele>333.708</ele>
        <time>2015-08-14T12:16:37Z</time>
      </trkpt>
      <trkpt lat="41.0979" lon="-7.13986">
        <ele>341.096</ele>
        <time>2015-08-14T12:16:48Z</time>
      </trkpt>
      <trkpt lat="41.09726" lon="-7.14053">
        <ele>345.085</ele>
        <time>2015-08-14T12:16:53Z</time>
      </trkpt>
      <trkpt lat="41.09623" lon="-7.14046">
        <ele>350.333</ele>
        <time>2015-08-14T12:16:59Z</time>
      </trkpt>
      <trkpt lat="41.0955" lon="-7.1411">
        <ele>354.872</ele>
        <time>2015-08-14T12:17:05Z</time>
      </trkpt>
      <trkpt lat="41.0943" lon="-7.14084">
        <ele>363.872</ele>
        <time>2015-08-14T12:17:12Z</time>
      </trkpt>
      <trkpt lat="41.09393" lon="-7.14088">
        <ele>366.945</ele>
        <time>2015-08-14T12:17:14Z</time>
      </trkpt>
      <trkpt lat="41.09288" lon="-7.14186">
        <ele>373.613</ele>
        <time>2015-08-14T12:17:21Z</time>
      </trkpt>
      <trkpt lat="41.09235" lon="-7.14234">
        <ele>379.197</ele>
        <time>2015-08-14T12:17:25Z</time>
      </trkpt>
      <trkpt lat="41.09126" lon="-7.1421">
        <ele>382.456</ele>
        <time>2015-08-14T12:17:32Z</time>
      </trkpt>
      <trkpt lat="41.09044" lon="-7.14289">
        <ele>387.659</ele>
        <time>2015-08-14T12:17:38Z</time>
      </trkpt>
      <trkpt lat="41.08934" lon="-7.14387">
        <ele>393.514</ele>
        <time>2015-08-14T12:17:46Z</time>
      </trkpt>
      <trkpt lat="41.08802" lon="-7.14358">
        <ele>397.608</ele>
        <time>2015-08-14T12:17:54Z</time>
      </trkpt>
      <trkpt lat="41.08715" lon="-7.14285">
        <ele>402.876</ele>
        <time>2015-08-14T12:18:02Z</time>
      </trkpt>
      <trkpt lat="41.08495" lon="-7.14282">
        <ele>411.555</ele>
        <time>2015-08-14T13:20:08Z</time>
      </trkpt>
      <trkpt lat="41.08428" lon="-7.14173">
        <ele>412.613</ele>
        <time>2015-08-14T13:20:25Z</time>
      </trkpt>
      <trkpt lat="41.08289" lon="-7.13856">
        <ele>416.122</ele>
        <time>2015-08-14T13:21:17Z</time>
      </trkpt>
      <trkpt lat="41.08242" lon="-7.13809">
        <ele>417.612</ele>
        <time>2015-08-14T13:22:19Z</time>
      </trkpt>
      <trkpt lat="41.08166" lon="-7.13848">
        <ele>419.195</ele>
        <time>2015-08-14T13:22:48Z</time>
      </trkpt>
      <trkpt lat="41.08114" lon="-7.13867">
        <ele>420.523</ele>
        <time>2015-08-14T13:23:02Z</time>
      </trkpt>
      <trkpt lat="41.07918" lon="-7.1399">
        <ele>407.867</ele>
        <time>2015-08-14T13:23:33Z</time>
      </trkpt>
      <trkpt lat="41.07789" lon="-7.1404">
        <ele>399.676</ele>
        <time>2015-08-14T13:23:43Z</time>
      </trkpt>
      <trkpt lat="41.07612" lon="-7.14108">
        <ele>408.19</ele>
        <time>2015-08-14T13:23:55Z</time>
      </trkpt>
      <trkpt lat="41.07551" lon="-7.14166">
        <ele>411.419</ele>
        <time>2015-08-14T13:24:00Z</time>
      </trkpt>
      <trkpt lat="41.07394" lon="-7.14356">
        <ele>411.008</ele>
        <time>2015-08-14T13:24:14Z</time>
      </trkpt>
      <trkpt lat="41.07121" lon="-7.14566">
        <ele>419.448</ele>
        <time>2015-08-14T13:24:56Z</time>
      </trkpt>
      <trkpt lat="41.06988" lon="-7.14627">
        <ele>411.737</ele>
        <time>2015-08-14T13:25:12Z</time>
      </trkpt>
      <trkpt lat="41.06839" lon="-7.14625">
        <ele>407.485</ele>
        <time>2015-08-14T13:25:38Z</time>
      </trkpt>
      <trkpt lat="41.06752" lon="-7.14558">
        <ele>401.184</ele>
        <time>2015-08-14T13:26:12Z</time>
      </trkpt>
      <trkpt lat="41.06625" lon="-7.14579">
        <ele>409.344</ele>
        <time>2015-08-14T13:26:34Z</time>
      </trkpt>
      <trkpt lat="41.06517" lon="-7.14545">
        <ele>420.067</ele>
        <time>2015-08-14T13:26:53Z</time>
      </trkpt>
      <trkpt lat="41.06378" lon="-7.14635">
        <ele>424.345</ele>
        <time>2015-08-14T13:27:34Z</time>
      </trkpt>
      <trkpt lat="41.0622" lon="-7.14731">
        <ele>424.499</ele>
        <time>2015-08-14T13:27:51Z</time>
      </trkpt>
      <trkpt lat="41.0611" lon="-7.14907">
        <ele>424.084</ele>
        <time>2015-08-14T13:28:14Z</time>
      </trkpt>
      <trkpt lat="41.05884" lon="-7.14967">
        <ele>434.507</ele>
        <time>2015-08-14T13:28:38Z</time>
      </trkpt>
      <trkpt lat="41.05772" lon="-7.15036">
        <ele>437.417</ele>
        <time>2015-08-14T13:28:51Z</time>
      </trkpt>
      <trkpt lat="41.05733" lon="-7.15067">
        <ele>437.008</ele>
        <time>2015-08-14T13:29:32Z</time>
      </trkpt>
      <trkpt lat="41.05737" lon="-7.1516">
        <ele>436.019</ele>
        <time>2015-08-14T13:29:40Z</time>
      </trkpt>
      <trkpt lat="41.05735" lon="-7.15255">
        <ele>434.868</ele>
        <time>2015-08-14T13:29:45Z</time>
      </trkpt>
      <trkpt lat="41.05689" lon="-7.15484">
        <ele>427.656</ele>
        <time>2015-08-14T13:29:58Z</time>
      </trkpt>
      <trkpt lat="41.05698" lon="-7.15564">
        <ele>424.665</ele>
        <time>2015-08-14T13:30:17Z</time>
      </trkpt>
      <trkpt lat="41.05511" lon="-7.15687">
        <ele>428.225</ele>
        <time>2015-08-14T13:31:41Z</time>
      </trkpt>
      <trkpt lat="41.05346" lon="-7.15842">
        <ele>442.098</ele>
        <time>2015-08-14T13:32:08Z</time>
      </trkpt>
      <trkpt lat="41.05291" lon="-7.15888">
        <ele>432.596</ele>
        <time>2015-08-14T13:32:17Z</time>
      </trkpt>
      <trkpt lat="41.05224" lon="-7.15876">
        <ele>421.25</ele>
        <time>2015-08-14T13:32:29Z</time>
      </trkpt>
      <trkpt lat="41.05178" lon="-7.15836">
        <ele>413.716</ele>
        <time>2015-08-14T13:32:45Z</time>
      </trkpt>
      <trkpt lat="41.05145" lon="-7.15929">
        <ele>398.876</ele>
        <time>2015-08-14T13:32:59Z</time>
      </trkpt>
      <trkpt lat="41.05043" lon="-7.1603">
        <ele>377.513</ele>
        <time>2015-08-14T13:33:18Z</time>
      </trkpt>
      <trkpt lat="41.04924" lon="-7.16089">
        <ele>360.708</ele>
        <time>2015-08-14T13:33:36Z</time>
      </trkpt>
      <trkpt lat="41.04896" lon="-7.16154">
        <ele>354.512</ele>
        <time>2015-08-14T13:33:45Z</time>
      </trkpt>
      <trkpt lat="41.04854" lon="-7.1619">
        <ele>350.481</ele>
        <time>2015-08-14T13:33:51Z</time>
      </trkpt>
      <trkpt lat="41.04821" lon="-7.16206">
        <ele>346.619</ele>
        <time>2015-08-14T13:34:19Z</time>
      </trkpt>
      <trkpt lat="41.04757" lon="-7.16143">
        <ele>341.638</ele>
        <time>2015-08-14T13:34:35Z</time>
      </trkpt>
      <trkpt lat="41.04583" lon="-7.16255">
        <ele>343.048</ele>
        <time>2015-08-14T13:35:30Z</time>
      </trkpt>
      <trkpt lat="41.04145" lon="-7.16527">
        <ele>321.191</ele>
        <time>2015-08-14T13:36:36Z</time>
      </trkpt>
      <trkpt lat="41.03964" lon="-7.16629">
        <ele>295.549</ele>
        <time>2015-08-14T13:37:26Z</time>
      </trkpt>
      <trkpt lat="41.03959" lon="-7.16689">
        <ele>290.543</ele>
        <time>2015-08-14T13:37:40Z</time>
      </trkpt>
      <trkpt lat="41.03876" lon="-7.16704">
        <ele>294.614</ele>
        <time>2015-08-14T13:38:03Z</time>
      </trkpt>
      <trkpt lat="41.03858" lon="-7.16658">
        <ele>295.954</ele>
        <time>2015-08-14T13:38:11Z</time>
      </trkpt>
      <trkpt lat="41.038" lon="-7.16659">
        <ele>305.409</ele>
        <time>2015-08-14T13:38:23Z</time>
      </trkpt>
      <trkpt lat="41.03755" lon="-7.16578">
        <ele>306.708</ele>
        <time>2015-08-14T13:38:34Z</time>
      </trkpt>
      <trkpt lat="41.03645" lon="-7.16536">
        <ele>317.642</ele>
        <time>2015-08-14T13:39:00Z</time>
      </trkpt>
      <trkpt lat="41.03643" lon="-7.16449">
        <ele>317.341</ele>
        <time>2015-08-14T13:39:57Z</time>
      </trkpt>
      <trkpt lat="41.03597" lon="-7.16415">
        <ele>316.169</ele>
        <time>2015-08-14T13:40:12Z</time>
      </trkpt>
      <trkpt lat="41.03496" lon="-7.1641">
        <ele>310.918</ele>
        <time>2015-08-14T13:40:28Z</time>
      </trkpt>
      <trkpt lat="41.03501" lon="-7.16625">
        <ele>321.938</ele>
        <time>2015-08-14T13:40:57Z</time>
      </trkpt>
      <trkpt lat="41.0341" lon="-7.16637">
        <ele>324.781</ele>
        <time>2015-08-14T13:41:17Z</time>
      </trkpt>
      <trkpt lat="41.03333" lon="-7.16696">
        <ele>317.949</ele>
        <time>2015-08-14T13:44:07Z</time>
      </trkpt>
      <trkpt lat="41.03289" lon="-7.16755">
        <ele>309.273</ele>
        <time>2015-08-14T13:44:30Z</time>
      </trkpt>
      <trkpt lat="41.03242" lon="-7.16794">
        <ele>303.936</ele>
        <time>2015-08-14T13:44:43Z</time>
      </trkpt>
      <trkpt lat="41.03125" lon="-7.16843">
        <ele>313.217</ele>
        <time>2015-08-14T13:44:58Z</time>
      </trkpt>
      <trkpt lat="41.02945" lon="-7.16951">
        <ele>323.418</ele>
        <time>2015-08-14T13:45:18Z</time>
      </trkpt>
      <trkpt lat="41.02876" lon="-7.17066">
        <ele>334.608</ele>
        <time>2015-08-14T13:45:30Z</time>
      </trkpt>
      <trkpt lat="41.02858" lon="-7.17128">
        <ele>343.584</ele>
        <time>2015-08-14T13:45:35Z</time>
      </trkpt>
      <trkpt lat="41.02796" lon="-7.17199">
        <ele>349.343</ele>
        <time>2015-08-14T13:45:44Z</time>
      </trkpt>
      <trkpt lat="41.0276" lon="-7.17262">
        <ele>350.081</ele>
        <time>2015-08-14T13:45:51Z</time>
      </trkpt>
      <trkpt lat="41.0271" lon="-7.17287">
        <ele>346.87</ele>
        <time>2015-08-14T13:45:58Z</time>
      </trkpt>
      <trkpt lat="41.02673" lon="-7.17303">
        <ele>348.46</ele>
        <time>2015-08-14T13:46:04Z</time>
      </trkpt>
      <trkpt lat="41.02665" lon="-7.17341">
        <ele>346.563</ele>
        <time>2015-08-14T13:46:08Z</time>
      </trkpt>
      <trkpt lat="41.02662" lon="-7.17347">
        <ele>346.211</ele>
        <time>2015-08-14T13:46:11Z</time>
      </trkpt>
      <trkpt lat="41.02643" lon="-7.17236">
        <ele>353.415</ele>
        <time>2015-08-14T13:46:58Z</time>
      </trkpt>
      <trkpt lat="41.02567" lon="-7.17132">
        <ele>364.477</ele>
        <time>2015-08-14T13:47:13Z</time>
      </trkpt>
      <trkpt lat="41.02374" lon="-7.17113">
        <ele>357.661</ele>
        <time>2015-08-14T13:48:16Z</time>
      </trkpt>
      <trkpt lat="41.02322" lon="-7.17089">
        <ele>352.227</ele>
        <time>2015-08-14T13:48:59Z</time>
      </trkpt>
      <trkpt lat="41.02367" lon="-7.1724">
        <ele>338.508</ele>
        <time>2015-08-14T13:49:26Z</time>
      </trkpt>
      <trkpt lat="41.02262" lon="-7.17404">
        <ele>325.568</ele>
        <time>2015-08-14T13:49:57Z</time>
      </trkpt>
      <trkpt lat="41.02175" lon="-7.17517">
        <ele>326.847</ele>
        <time>2015-08-14T13:50:14Z</time>
      </trkpt>
      <trkpt lat="41.02166" lon="-7.17531">
        <ele>326.875</ele>
        <time>2015-08-14T13:50:16Z</time>
      </trkpt>
      <trkpt lat="41.02137" lon="-7.17562">
        <ele>323.034</ele>
        <time>2015-08-14T13:50:22Z</time>
      </trkpt>
      <trkpt lat="41.01568" lon="-7.18009">
        <ele>278.384</ele>
        <time>2015-08-14T13:52:21Z</time>
      </trkpt>
      <trkpt lat="41.01167" lon="-7.18126">
        <ele>248.057</ele>
        <time>2015-08-14T13:53:24Z</time>
      </trkpt>
      <trkpt lat="41.01146" lon="-7.18171">
        <ele>246.285</ele>
        <time>2015-08-14T13:53:44Z</time>
      </trkpt>
      <trkpt lat="41.01199" lon="-7.1831">
        <ele>247.339</ele>
        <time>2015-08-14T13:54:26Z</time>
      </trkpt>
      <trkpt lat="41.01173" lon="-7.18341">
        <ele>247.318</ele>
        <time>2015-08-14T13:54:34Z</time>
      </trkpt>
      <trkpt lat="41.01007" lon="-7.18407">
        <ele>252.298</ele>
        <time>2015-08-14T13:54:59Z</time>
      </trkpt>
      <trkpt lat="41.00952" lon="-7.18432">
        <ele>253.017</ele>
        <time>2015-08-14T13:55:04Z</time>
      </trkpt>
      <trkpt lat="41.00718" lon="-7.18521">
        <ele>248.308</ele>
        <time>2015-08-14T13:55:19Z</time>
      </trkpt>
      <trkpt lat="41.00367" lon="-7.18539">
        <ele>243.242</ele>
        <time>2015-08-14T13:56:05Z</time>
      </trkpt>
      <trkpt lat="41.00201" lon="-7.18605">
        <ele>246.771</ele>
        <time>2015-08-14T13:56:15Z</time>
      </trkpt>
      <trkpt lat="41.00061" lon="-7.18644">
        <ele>245.269</ele>
        <time>2015-08-14T13:56:22Z</time>
      </trkpt>
      <trkpt lat="40.99829" lon="-7.18639">
        <ele>247.098</ele>
        <time>2015-08-14T13:56:33Z</time>
      </trkpt>
      <trkpt lat="40.99713" lon="-7.18683">
        <ele>246.868</ele>
        <time>2015-08-14T13:56:39Z</time>
      </trkpt>
      <trkpt lat="40.99565" lon="-7.1873">
        <ele>247.141</ele>
        <time>2015-08-14T13:56:47Z</time>
      </trkpt>
      <trkpt lat="40.99483" lon="-7.18773">
        <ele>247.689</ele>
        <time>2015-08-14T13:56:56Z</time>
      </trkpt>
      <trkpt lat="40.99423" lon="-7.18516">
        <ele>252.993</ele>
        <time>2015-08-14T13:57:50Z</time>
      </trkpt>
      <trkpt lat="40.99289" lon="-7.18517">
        <ele>260.832</ele>
        <time>2015-08-14T13:58:01Z</time>
      </trkpt>
      <trkpt lat="40.9925" lon="-7.18467">
        <ele>268.892</ele>
        <time>2015-08-14T13:58:06Z</time>
      </trkpt>
      <trkpt lat="40.99243" lon="-7.18417">
        <ele>276.011</ele>
        <time>2015-08-14T13:58:10Z</time>
      </trkpt>
      <trkpt lat="40.99285" lon="-7.18424">
        <ele>275.708</ele>
        <time>2015-08-14T13:58:15Z</time>
      </trkpt>
      <trkpt lat="40.99341" lon="-7.18395">
        <ele>282.494</ele>
        <time>2015-08-14T13:58:21Z</time>
      </trkpt>
      <trkpt lat="40.99334" lon="-7.18344">
        <ele>291.083</ele>
        <time>2015-08-14T13:58:25Z</time>
      </trkpt>
      <trkpt lat="40.9913" lon="-7.18355">
        <ele>310.551</ele>
        <time>2015-08-14T13:58:42Z</time>
      </trkpt>
      <trkpt lat="40.99124" lon="-7.18322">
        <ele>313.35</ele>
        <time>2015-08-14T13:58:45Z</time>
      </trkpt>
      <trkpt lat="40.99157" lon="-7.18304">
        <ele>314.28</ele>
        <time>2015-08-14T13:58:48Z</time>
      </trkpt>
      <trkpt lat="40.99205" lon="-7.18288">
        <ele>314.793</ele>
        <time>2015-08-14T13:58:52Z</time>
      </trkpt>
      <trkpt lat="40.99077" lon="-7.18252">
        <ele>327.261</ele>
        <time>2015-08-14T13:59:08Z</time>
      </trkpt>
      <trkpt lat="40.9911" lon="-7.18173">
        <ele>339.385</ele>
        <time>2015-08-14T13:59:16Z</time>
      </trkpt>
      <trkpt lat="40.99093" lon="-7.18145">
        <ele>342.971</ele>
        <time>2015-08-14T13:59:19Z</time>
      </trkpt>
      <trkpt lat="40.98984" lon="-7.1822">
        <ele>348.741</ele>
        <time>2015-08-14T13:59:28Z</time>
      </trkpt>
      <trkpt lat="40.98942" lon="-7.18244">
        <ele>350.115</ele>
        <time>2015-08-14T13:59:31Z</time>
      </trkpt>
      <trkpt lat="40.98739" lon="-7.18319">
        <ele>360.108</ele>
        <time>2015-08-14T13:59:45Z</time>
      </trkpt>
      <trkpt lat="40.98737" lon="-7.18282">
        <ele>367.348</ele>
        <time>2015-08-14T13:59:49Z</time>
      </trkpt>
      <trkpt lat="40.98824" lon="-7.18174">
        <ele>372.727</ele>
        <time>2015-08-14T13:59:58Z</time>
      </trkpt>
      <trkpt lat="40.98898" lon="-7.18087">
        <ele>381.065</ele>
        <time>2015-08-14T14:00:05Z</time>
      </trkpt>
      <trkpt lat="40.98961" lon="-7.17934">
        <ele>390.624</ele>
        <time>2015-08-14T14:00:13Z</time>
      </trkpt>
      <trkpt lat="40.99069" lon="-7.17788">
        <ele>403.044</ele>
        <time>2015-08-14T14:00:23Z</time>
      </trkpt>
      <trkpt lat="40.99061" lon="-7.17739">
        <ele>406.227</ele>
        <time>2015-08-14T14:00:27Z</time>
      </trkpt>
      <trkpt lat="40.98989" lon="-7.17751">
        <ele>408.915</ele>
        <time>2015-08-14T14:00:34Z</time>
      </trkpt>
      <trkpt lat="40.9886" lon="-7.17841">
        <ele>420.389</ele>
        <time>2015-08-14T14:00:46Z</time>
      </trkpt>
      <trkpt lat="40.98804" lon="-7.17882">
        <ele>427.424</ele>
        <time>2015-08-14T14:00:53Z</time>
      </trkpt>
      <trkpt lat="40.98842" lon="-7.17796">
        <ele>429.004</ele>
        <time>2015-08-14T14:01:01Z</time>
      </trkpt>
      <trkpt lat="40.98928" lon="-7.17685">
        <ele>434.314</ele>
        <time>2015-08-14T14:01:10Z</time>
      </trkpt>
      <trkpt lat="40.98964" lon="-7.17557">
        <ele>440.908</ele>
        <time>2015-08-14T14:01:17Z</time>
      </trkpt>
      <trkpt lat="40.98999" lon="-7.17156">
        <ele>459.753</ele>
        <time>2015-08-14T14:01:43Z</time>
      </trkpt>
      <trkpt lat="40.98885" lon="-7.17029">
        <ele>466.982</ele>
        <time>2015-08-14T14:03:22Z</time>
      </trkpt>
      <trkpt lat="40.98816" lon="-7.16996">
        <ele>469.59</ele>
        <time>2015-08-14T14:04:18Z</time>
      </trkpt>
      <trkpt lat="40.98838" lon="-7.16937">
        <ele>469.739</ele>
        <time>2015-08-14T14:04:32Z</time>
      </trkpt>
      <trkpt lat="40.98848" lon="-7.16884">
        <ele>469.659</ele>
        <time>2015-08-14T14:04:44Z</time>
      </trkpt>
      <trkpt lat="40.98779" lon="-7.16833">
        <ele>471.062</ele>
        <time>2015-08-14T14:04:57Z</time>
      </trkpt>
      <trkpt lat="40.98353" lon="-7.16982">
        <ele>469.34</ele>
        <time>2015-08-14T14:06:22Z</time>
      </trkpt>
      <trkpt lat="40.98227" lon="-7.16991">
        <ele>470.314</ele>
        <time>2015-08-14T14:06:43Z</time>
      </trkpt>
      <trkpt lat="40.98192" lon="-7.17014">
        <ele>467.677</ele>
        <time>2015-08-14T14:06:50Z</time>
      </trkpt>
      <trkpt lat="40.98148" lon="-7.17149">
        <ele>464.561</ele>
        <time>2015-08-14T14:07:09Z</time>
      </trkpt>
      <trkpt lat="40.98048" lon="-7.17221">
        <ele>473.027</ele>
        <time>2015-08-14T14:07:30Z</time>
      </trkpt>
      <trkpt lat="40.97852" lon="-7.17362">
        <ele>485.608</ele>
        <time>2015-08-14T14:08:03Z</time>
      </trkpt>
      <trkpt lat="40.97791" lon="-7.17372">
        <ele>488.148</ele>
        <time>2015-08-14T14:08:16Z</time>
      </trkpt>
      <trkpt lat="40.97655" lon="-7.17423">
        <ele>488.427</ele>
        <time>2015-08-14T14:08:39Z</time>
      </trkpt>
      <trkpt lat="40.97599" lon="-7.17498">
        <ele>490.035</ele>
        <time>2015-08-14T14:08:56Z</time>
      </trkpt>
      <trkpt lat="40.97582" lon="-7.17529">
        <ele>488.884</ele>
        <time>2015-08-14T14:09:02Z</time>
      </trkpt>
      <trkpt lat="40.97452" lon="-7.17728">
        <ele>465.234</ele>
        <time>2015-08-14T14:10:24Z</time>
      </trkpt>
      <trkpt lat="40.97355" lon="-7.17796">
        <ele>457.657</ele>
        <time>2015-08-14T14:10:44Z</time>
      </trkpt>
      <trkpt lat="40.9729" lon="-7.17783">
        <ele>452.075</ele>
        <time>2015-08-14T14:11:20Z</time>
      </trkpt>
      <trkpt lat="40.97276" lon="-7.17758">
        <ele>452.929</ele>
        <time>2015-08-14T14:11:24Z</time>
      </trkpt>
      <trkpt lat="40.9722" lon="-7.17681">
        <ele>457.586</ele>
        <time>2015-08-14T14:11:34Z</time>
      </trkpt>
      <trkpt lat="40.97047" lon="-7.17745">
        <ele>450.16</ele>
        <time>2015-08-14T14:12:07Z</time>
      </trkpt>
      <trkpt lat="40.96991" lon="-7.17672">
        <ele>458.626</ele>
        <time>2015-08-14T14:12:57Z</time>
      </trkpt>
      <trkpt lat="40.96921" lon="-7.17719">
        <ele>447.808</ele>
        <time>2015-08-14T14:13:15Z</time>
      </trkpt>
      <trkpt lat="40.96848" lon="-7.17598">
        <ele>444.339</ele>
        <time>2015-08-14T14:13:35Z</time>
      </trkpt>
      <trkpt lat="40.9676" lon="-7.17604">
        <ele>445.328</ele>
        <time>2015-08-14T14:13:53Z</time>
      </trkpt>
      <trkpt lat="40.96751" lon="-7.17623">
        <ele>444.656</ele>
        <time>2015-08-14T14:14:02Z</time>
      </trkpt>
      <trkpt lat="40.96656" lon="-7.17567">
        <ele>454.265</ele>
        <time>2015-08-14T14:14:39Z</time>
      </trkpt>
      <trkpt lat="40.96605" lon="-7.17601">
        <ele>456.215</ele>
        <time>2015-08-14T14:14:51Z</time>
      </trkpt>
      <trkpt lat="40.9652" lon="-7.1754">
        <ele>463.268</ele>
        <time>2015-08-14T14:15:08Z</time>
      </trkpt>
      <trkpt lat="40.96401" lon="-7.17668">
        <ele>465.096</ele>
        <time>2015-08-14T14:16:18Z</time>
      </trkpt>
      <trkpt lat="40.96181" lon="-7.17752">
        <ele>458.45</ele>
        <time>2015-08-14T14:16:57Z</time>
      </trkpt>
      <trkpt lat="40.9599" lon="-7.1775">
        <ele>455.677</ele>
        <time>2015-08-14T14:17:17Z</time>
      </trkpt>
      <trkpt lat="40.95921" lon="-7.17841">
        <ele>453.161</ele>
        <time>2015-08-14T14:17:26Z</time>
      </trkpt>
      <trkpt lat="40.95271" lon="-7.18282">
        <ele>453.027</ele>
        <time>2015-08-14T14:19:15Z</time>
      </trkpt>
      <trkpt lat="40.94849" lon="-7.18518">
        <ele>461.308</ele>
        <time>2015-08-14T14:20:09Z</time>
      </trkpt>
      <trkpt lat="40.9467" lon="-7.18686">
        <ele>467.968</ele>
        <time>2015-08-14T14:20:33Z</time>
      </trkpt>
      <trkpt lat="40.94633" lon="-7.18776">
        <ele>468.267</ele>
        <time>2015-08-14T14:20:41Z</time>
      </trkpt>
      <trkpt lat="40.94565" lon="-7.18859">
        <ele>466.325</ele>
        <time>2015-09-23T05:06:46Z</time>
      </trkpt>
      <trkpt lat="40.94459" lon="-7.18932">
        <ele>468.574</ele>
        <time>2015-09-23T05:07:06Z</time>
      </trkpt>
      <trkpt lat="40.94167" lon="-7.18902">
        <ele>472.084</ele>
        <time>2015-08-14T14:21:29Z</time>
      </trkpt>
      <trkpt lat="40.93976" lon="-7.1883">
        <ele>478.787</ele>
        <time>2015-08-14T14:21:44Z</time>
      </trkpt>
      <trkpt lat="40.93852" lon="-7.18864">
        <ele>485.365</ele>
        <time>2015-08-14T14:21:55Z</time>
      </trkpt>
      <trkpt lat="40.93475" lon="-7.18818">
        <ele>495.539</ele>
        <time>2015-08-14T14:22:23Z</time>
      </trkpt>
      <trkpt lat="40.93355" lon="-7.18875">
        <ele>499.614</ele>
        <time>2015-08-14T14:22:34Z</time>
      </trkpt>
      <trkpt lat="40.93178" lon="-7.18971">
        <ele>505.054</ele>
        <time>2015-08-14T14:22:57Z</time>
      </trkpt>
      <trkpt lat="40.931" lon="-7.18823">
        <ele>508.209</ele>
        <time>2015-08-14T14:23:23Z</time>
      </trkpt>
      <trkpt lat="40.93067" lon="-7.1871">
        <ele>509.008</ele>
        <time>2015-08-14T14:23:32Z</time>
      </trkpt>
      <trkpt lat="40.93024" lon="-7.18686">
        <ele>509.662</ele>
        <time>2015-08-14T14:23:36Z</time>
      </trkpt>
      <trkpt lat="40.92952" lon="-7.18679">
        <ele>508.741</ele>
        <time>2015-08-14T14:23:42Z</time>
      </trkpt>
      <trkpt lat="40.92725" lon="-7.18582">
        <ele>501.199</ele>
        <time>2015-08-14T14:24:16Z</time>
      </trkpt>
      <trkpt lat="40.92668" lon="-7.18475">
        <ele>499.068</ele>
        <time>2015-08-14T14:24:57Z</time>
      </trkpt>
      <trkpt lat="40.92655" lon="-7.18458">
        <ele>499.248</ele>
        <time>2015-08-14T14:24:59Z</time>
      </trkpt>
      <trkpt lat="40.92592" lon="-7.18409">
        <ele>497.291</ele>
        <time>2015-08-14T14:25:06Z</time>
      </trkpt>
      <trkpt lat="40.92482" lon="-7.184">
        <ele>498.149</ele>
        <time>2015-08-14T14:25:17Z</time>
      </trkpt>
      <trkpt lat="40.92236" lon="-7.18512">
        <ele>494.143</ele>
        <time>2015-08-14T14:25:43Z</time>
      </trkpt>
      <trkpt lat="40.92066" lon="-7.18663">
        <ele>482.437</ele>
        <time>2015-08-14T14:26:14Z</time>
      </trkpt>
      <trkpt lat="40.91723" lon="-7.18812">
        <ele>480.049</ele>
        <time>2015-08-14T14:26:56Z</time>
      </trkpt>
      <trkpt lat="40.91686" lon="-7.18895">
        <ele>478.313</ele>
        <time>2015-08-14T14:27:32Z</time>
      </trkpt>
      <trkpt lat="40.91525" lon="-7.18778">
        <ele>475.908</ele>
        <time>2015-08-14T14:27:54Z</time>
      </trkpt>
      <trkpt lat="40.91343" lon="-7.18596">
        <ele>474.984</ele>
        <time>2015-08-14T14:28:08Z</time>
      </trkpt>
      <trkpt lat="40.9115" lon="-7.18624">
        <ele>468.013</ele>
        <time>2015-08-14T14:28:27Z</time>
      </trkpt>
      <trkpt lat="40.91079" lon="-7.18713">
        <ele>462.191</ele>
        <time>2015-08-14T14:29:02Z</time>
      </trkpt>
      <trkpt lat="40.91027" lon="-7.18755">
        <ele>460.25</ele>
        <time>2015-08-14T14:29:11Z</time>
      </trkpt>
      <trkpt lat="40.91015" lon="-7.18765">
        <ele>460.63</ele>
        <time>2015-08-14T14:29:13Z</time>
      </trkpt>
      <trkpt lat="40.90974" lon="-7.18779">
        <ele>461.953</ele>
        <time>2015-08-14T14:29:17Z</time>
      </trkpt>
      <trkpt lat="40.90922" lon="-7.18839">
        <ele>463.071</ele>
        <time>2015-08-14T14:29:23Z</time>
      </trkpt>
      <trkpt lat="40.90876" lon="-7.18878">
        <ele>463.855</ele>
        <time>2015-08-14T14:29:27Z</time>
      </trkpt>
      <trkpt lat="40.90621" lon="-7.19059">
        <ele>467.057</ele>
        <time>2015-08-14T14:29:42Z</time>
      </trkpt>
      <trkpt lat="40.90491" lon="-7.19162">
        <ele>470.6</ele>
        <time>2015-08-14T14:29:50Z</time>
      </trkpt>
      <trkpt lat="40.90378" lon="-7.19363">
        <ele>472.42</ele>
        <time>2015-08-14T14:30:22Z</time>
      </trkpt>
      <trkpt lat="40.89707" lon="-7.19717">
        <ele>469.408</ele>
        <time>2015-08-14T14:31:25Z</time>
      </trkpt>
      <trkpt lat="40.89541" lon="-7.19807">
        <ele>470.576</ele>
        <time>2015-08-14T14:31:38Z</time>
      </trkpt>
      <trkpt lat="40.89288" lon="-7.19961">
        <ele>471.465</ele>
        <time>2015-08-14T14:32:07Z</time>
      </trkpt>
      <trkpt lat="40.89224" lon="-7.19867">
        <ele>468.743</ele>
        <time>2015-08-14T14:32:46Z</time>
      </trkpt>
      <trkpt lat="40.89194" lon="-7.19798">
        <ele>469.742</ele>
        <time>2015-08-14T14:32:53Z</time>
      </trkpt>
      <trkpt lat="40.89149" lon="-7.19772">
        <ele>468.532</ele>
        <time>2015-08-14T14:32:58Z</time>
      </trkpt>
      <trkpt lat="40.89076" lon="-7.19714">
        <ele>470.065</ele>
        <time>2015-08-14T14:33:16Z</time>
      </trkpt>
      <trkpt lat="40.88917" lon="-7.19441">
        <ele>474.053</ele>
        <time>2015-08-14T14:34:08Z</time>
      </trkpt>
      <trkpt lat="40.88761" lon="-7.19183">
        <ele>473.197</ele>
        <time>2015-08-14T14:34:39Z</time>
      </trkpt>
      <trkpt lat="40.88642" lon="-7.19035">
        <ele>476.989</ele>
        <time>2015-08-14T14:34:55Z</time>
      </trkpt>
      <trkpt lat="40.88546" lon="-7.18852">
        <ele>484.906</ele>
        <time>2015-08-14T14:35:09Z</time>
      </trkpt>
      <trkpt lat="40.88493" lon="-7.1873">
        <ele>483.026</ele>
        <time>2015-08-14T14:35:39Z</time>
      </trkpt>
      <trkpt lat="40.88281" lon="-7.1894">
        <ele>487.908</ele>
        <time>2015-08-14T14:36:03Z</time>
      </trkpt>
      <trkpt lat="40.88157" lon="-7.19062">
        <ele>491.099</ele>
        <time>2015-08-14T14:36:11Z</time>
      </trkpt>
      <trkpt lat="40.87863" lon="-7.19356">
        <ele>496.768</ele>
        <time>2015-08-14T14:36:28Z</time>
      </trkpt>
      <trkpt lat="40.87736" lon="-7.19483">
        <ele>499.516</ele>
        <time>2015-08-14T14:36:35Z</time>
      </trkpt>
      <trkpt lat="40.87639" lon="-7.19622">
        <ele>499.615</ele>
        <time>2015-08-14T14:36:42Z</time>
      </trkpt>
      <trkpt lat="40.87506" lon="-7.19884">
        <ele>489.015</ele>
        <time>2015-08-14T14:36:52Z</time>
      </trkpt>
      <trkpt lat="40.87365" lon="-7.20115">
        <ele>486.278</ele>
        <time>2015-08-14T14:37:02Z</time>
      </trkpt>
      <trkpt lat="40.86961" lon="-7.20366">
        <ele>485.296</ele>
        <time>2015-08-14T14:37:21Z</time>
      </trkpt>
      <trkpt lat="40.86812" lon="-7.20528">
        <ele>490.82</ele>
        <time>2015-08-14T14:37:30Z</time>
      </trkpt>
      <trkpt lat="40.86724" lon="-7.20645">
        <ele>493.922</ele>
        <time>2015-08-14T14:37:42Z</time>
      </trkpt>
      <trkpt lat="40.86638" lon="-7.20702">
        <ele>495.362</ele>
        <time>2015-08-14T14:38:21Z</time>
      </trkpt>
      <trkpt lat="40.86607" lon="-7.20751">
        <ele>494.708</ele>
        <time>2015-08-14T14:38:27Z</time>
      </trkpt>
      <trkpt lat="40.86313" lon="-7.20971">
        <ele>497.308</ele>
        <time>2015-08-14T14:38:58Z</time>
      </trkpt>
      <trkpt lat="40.8606" lon="-7.2111">
        <ele>502.873</ele>
        <time>2015-08-14T14:39:20Z</time>
      </trkpt>
      <trkpt lat="40.85676" lon="-7.21447">
        <ele>499.672</ele>
        <time>2015-08-14T14:40:24Z</time>
      </trkpt>
      <trkpt lat="40.85341" lon="-7.21626">
        <ele>502.72</ele>
        <time>2015-08-14T14:41:06Z</time>
      </trkpt>
      <trkpt lat="40.85251" lon="-7.21709">
        <ele>504.049</ele>
        <time>2015-08-14T14:41:17Z</time>
      </trkpt>
      <trkpt lat="40.84951" lon="-7.2208">
        <ele>507.379</ele>
        <time>2015-08-14T14:41:54Z</time>
      </trkpt>
      <trkpt lat="40.84587" lon="-7.22473">
        <ele>500.032</ele>
        <time>2015-08-14T14:42:33Z</time>
      </trkpt>
      <trkpt lat="40.84276" lon="-7.22622">
        <ele>487.93</ele>
        <time>2015-08-14T14:43:15Z</time>
      </trkpt>
      <trkpt lat="40.84213" lon="-7.22773">
        <ele>484.954</ele>
        <time>2015-08-14T14:43:37Z</time>
      </trkpt>
      <trkpt lat="40.83957" lon="-7.22856">
        <ele>491.858</ele>
        <time>2015-08-14T14:51:28Z</time>
      </trkpt>
      <trkpt lat="40.8378" lon="-7.2293">
        <ele>498.452</ele>
        <time>2015-08-14T14:51:50Z</time>
      </trkpt>
      <trkpt lat="40.83723" lon="-7.23007">
        <ele>506.217</ele>
        <time>2015-08-14T14:52:30Z</time>
      </trkpt>
      <trkpt lat="40.83322" lon="-7.22732">
        <ele>485.408</ele>
        <time>2015-08-14T14:53:39Z</time>
      </trkpt>
      <trkpt lat="40.83052" lon="-7.22638">
        <ele>479.946</ele>
        <time>2015-08-14T14:54:18Z</time>
      </trkpt>
      <trkpt lat="40.82933" lon="-7.22433">
        <ele>482.855</ele>
        <time>2015-08-14T14:54:53Z</time>
      </trkpt>
      <trkpt lat="40.8287" lon="-7.22356">
        <ele>487.693</ele>
        <time>2015-08-14T14:55:16Z</time>
      </trkpt>
      <trkpt lat="40.82731" lon="-7.22363">
        <ele>489.062</ele>
        <time>2015-08-14T14:55:35Z</time>
      </trkpt>
      <trkpt lat="40.82628" lon="-7.22352">
        <ele>486.682</ele>
        <time>2015-08-14T14:55:48Z</time>
      </trkpt>
      <trkpt lat="40.82423" lon="-7.22316">
        <ele>468.985</ele>
        <time>2015-08-14T14:56:35Z</time>
      </trkpt>
      <trkpt lat="40.82261" lon="-7.22195">
        <ele>481.693</ele>
        <time>2015-08-14T14:57:07Z</time>
      </trkpt>
      <trkpt lat="40.82029" lon="-7.22086">
        <ele>502.127</ele>
        <time>2015-08-14T14:57:28Z</time>
      </trkpt>
      <trkpt lat="40.81872" lon="-7.22076">
        <ele>509.126</ele>
        <time>2015-08-14T14:57:39Z</time>
      </trkpt>
      <trkpt lat="40.81741" lon="-7.22013">
        <ele>516.347</ele>
        <time>2015-08-14T14:57:49Z</time>
      </trkpt>
      <trkpt lat="40.8158" lon="-7.21979">
        <ele>530.111</ele>
        <time>2015-08-14T14:58:00Z</time>
      </trkpt>
      <trkpt lat="40.81429" lon="-7.21946">
        <ele>549.108</ele>
        <time>2015-08-14T14:58:10Z</time>
      </trkpt>
      <trkpt lat="40.8117" lon="-7.21906">
        <ele>577.243</ele>
        <time>2015-08-14T14:58:27Z</time>
      </trkpt>
      <trkpt lat="40.81081" lon="-7.21869">
        <ele>572.322</ele>
        <time>2015-08-14T14:58:34Z</time>
      </trkpt>
      <trkpt lat="40.81052" lon="-7.21722">
        <ele>555.11</ele>
        <time>2015-08-14T14:58:42Z</time>
      </trkpt>
      <trkpt lat="40.81051" lon="-7.21656">
        <ele>556.749</ele>
        <time>2015-08-14T14:58:45Z</time>
      </trkpt>
      <trkpt lat="40.81051" lon="-7.21588">
        <ele>551.019</ele>
        <time>2015-08-14T14:58:48Z</time>
      </trkpt>
      <trkpt lat="40.81054" lon="-7.21494">
        <ele>542.442</ele>
        <time>2015-08-14T14:58:52Z</time>
      </trkpt>
      <trkpt lat="40.81067" lon="-7.21022">
        <ele>511.76</ele>
        <time>2015-08-14T14:59:14Z</time>
      </trkpt>
      <trkpt lat="40.81028" lon="-7.20946">
        <ele>497.124</ele>
        <time>2015-08-14T14:59:19Z</time>
      </trkpt>
      <trkpt lat="40.80942" lon="-7.20849">
        <ele>483.328</ele>
        <time>2015-08-14T14:59:25Z</time>
      </trkpt>
      <trkpt lat="40.80828" lon="-7.20724">
        <ele>473.289</ele>
        <time>2015-08-14T14:59:33Z</time>
      </trkpt>
      <trkpt lat="40.80711" lon="-7.20675">
        <ele>468.617</ele>
        <time>2015-08-14T14:59:41Z</time>
      </trkpt>
      <trkpt lat="40.80627" lon="-7.206">
        <ele>458.008</ele>
        <time>2015-08-14T14:59:55Z</time>
      </trkpt>
      <trkpt lat="40.80538" lon="-7.20179">
        <ele>437.893</ele>
        <time>2015-08-14T15:00:20Z</time>
      </trkpt>
      <trkpt lat="40.80702" lon="-7.20011">
        <ele>448.422</ele>
        <time>2015-08-14T15:00:36Z</time>
      </trkpt>
      <trkpt lat="40.80857" lon="-7.19893">
        <ele>438.02</ele>
        <time>2015-08-14T15:00:47Z</time>
      </trkpt>
      <trkpt lat="40.80926" lon="-7.19754">
        <ele>446.639</ele>
        <time>2015-08-14T15:01:00Z</time>
      </trkpt>
      <trkpt lat="40.80767" lon="-7.19647">
        <ele>455.439</ele>
        <time>2015-08-14T15:01:15Z</time>
      </trkpt>
      <trkpt lat="40.80643" lon="-7.19612">
        <ele>465.632</ele>
        <time>2015-08-14T15:01:23Z</time>
      </trkpt>
      <trkpt lat="40.80456" lon="-7.19569">
        <ele>469.65</ele>
        <time>2015-08-14T15:01:34Z</time>
      </trkpt>
      <trkpt lat="40.8042" lon="-7.19508">
        <ele>472.794</ele>
        <time>2015-08-14T15:01:38Z</time>
      </trkpt>
      <trkpt lat="40.80395" lon="-7.19353">
        <ele>485.419</ele>
        <time>2015-08-14T15:01:45Z</time>
      </trkpt>
      <trkpt lat="40.80373" lon="-7.19248">
        <ele>492.609</ele>
        <time>2015-08-14T15:01:50Z</time>
      </trkpt>
      <trkpt lat="40.80291" lon="-7.19184">
        <ele>494.819</ele>
        <time>2015-08-14T15:01:56Z</time>
      </trkpt>
      <trkpt lat="40.80124" lon="-7.1904">
        <ele>501.308</ele>
        <time>2015-08-14T15:02:07Z</time>
      </trkpt>
      <trkpt lat="40.80039" lon="-7.18942">
        <ele>509.852</ele>
        <time>2015-08-14T15:02:37Z</time>
      </trkpt>
      <trkpt lat="40.79801" lon="-7.18948">
        <ele>532.321</ele>
        <time>2015-08-14T15:02:59Z</time>
      </trkpt>
      <trkpt lat="40.79741" lon="-7.19018">
        <ele>543.049</ele>
        <time>2015-08-14T15:03:05Z</time>
      </trkpt>
      <trkpt lat="40.7973" lon="-7.19086">
        <ele>546.028</ele>
        <time>2015-08-14T15:03:09Z</time>
      </trkpt>
      <trkpt lat="40.79723" lon="-7.19179">
        <ele>539.578</ele>
        <time>2015-08-14T15:03:14Z</time>
      </trkpt>
      <trkpt lat="40.79677" lon="-7.19351">
        <ele>540.611</ele>
        <time>2015-08-14T15:03:24Z</time>
      </trkpt>
      <trkpt lat="40.79545" lon="-7.19324">
        <ele>546.399</ele>
        <time>2015-08-14T15:03:33Z</time>
      </trkpt>
      <trkpt lat="40.79446" lon="-7.19266">
        <ele>545.893</ele>
        <time>2015-08-14T15:03:39Z</time>
      </trkpt>
      <trkpt lat="40.79242" lon="-7.19283">
        <ele>544.231</ele>
        <time>2015-08-14T15:03:52Z</time>
      </trkpt>
      <trkpt lat="40.79137" lon="-7.19215">
        <ele>552.161</ele>
        <time>2015-08-14T15:04:04Z</time>
      </trkpt>
      <trkpt lat="40.7908" lon="-7.19228">
        <ele>549.607</ele>
        <time>2015-08-14T15:04:10Z</time>
      </trkpt>
      <trkpt lat="40.79037" lon="-7.19257">
        <ele>545.808</ele>
        <time>2015-08-14T15:04:19Z</time>
      </trkpt>
      <trkpt lat="40.78803" lon="-7.19257">
        <ele>546.114</ele>
        <time>2015-08-14T15:04:50Z</time>
      </trkpt>
      <trkpt lat="40.78793" lon="-7.19261">
        <ele>545.863</ele>
        <time>2015-08-14T15:04:51Z</time>
      </trkpt>
      <trkpt lat="40.7862" lon="-7.19363">
        <ele>540.971</ele>
        <time>2015-08-14T15:05:06Z</time>
      </trkpt>
      <trkpt lat="40.78519" lon="-7.19497">
        <ele>540.71</ele>
        <time>2015-08-14T15:05:15Z</time>
      </trkpt>
      <trkpt lat="40.7836" lon="-7.19628">
        <ele>544.93</ele>
        <time>2015-08-14T15:05:25Z</time>
      </trkpt>
      <trkpt lat="40.78251" lon="-7.19762">
        <ele>534.423</ele>
        <time>2015-08-14T15:05:32Z</time>
      </trkpt>
      <trkpt lat="40.78164" lon="-7.19885">
        <ele>533.031</ele>
        <time>2015-08-14T15:05:38Z</time>
      </trkpt>
      <trkpt lat="40.77925" lon="-7.20038">
        <ele>541.155</ele>
        <time>2015-08-14T15:05:51Z</time>
      </trkpt>
      <trkpt lat="40.77852" lon="-7.20107">
        <ele>545.556</ele>
        <time>2015-08-14T15:05:57Z</time>
      </trkpt>
      <trkpt lat="40.7762" lon="-7.20138">
        <ele>555.059</ele>
        <time>2015-08-14T15:06:16Z</time>
      </trkpt>
      <trkpt lat="40.77398" lon="-7.20101">
        <ele>567.914</ele>
        <time>2015-08-14T15:06:40Z</time>
      </trkpt>
      <trkpt lat="40.77186" lon="-7.20145">
        <ele>574.008</ele>
        <time>2015-08-14T15:06:55Z</time>
      </trkpt>
      <trkpt lat="40.76917" lon="-7.20195">
        <ele>577.096</ele>
        <time>2015-08-14T15:08:51Z</time>
      </trkpt>
      <trkpt lat="40.76895" lon="-7.20107">
        <ele>580.665</ele>
        <time>2015-08-14T15:09:09Z</time>
      </trkpt>
      <trkpt lat="40.76785" lon="-7.20089">
        <ele>581.953</ele>
        <time>2015-08-14T15:09:24Z</time>
      </trkpt>
      <trkpt lat="40.76542" lon="-7.20025">
        <ele>570.472</ele>
        <time>2015-08-14T15:09:43Z</time>
      </trkpt>
      <trkpt lat="40.76439" lon="-7.19984">
        <ele>559.982</ele>
        <time>2015-08-14T15:09:52Z</time>
      </trkpt>
      <trkpt lat="40.76425" lon="-7.19931">
        <ele>559.725</ele>
        <time>2015-08-14T15:09:58Z</time>
      </trkpt>
      <trkpt lat="40.76316" lon="-7.19916">
        <ele>555.483</ele>
        <time>2015-08-14T15:10:07Z</time>
      </trkpt>
      <trkpt lat="40.76217" lon="-7.19938">
        <ele>556.587</ele>
        <time>2015-08-14T15:10:14Z</time>
      </trkpt>
      <trkpt lat="40.76055" lon="-7.20134">
        <ele>555.882</ele>
        <time>2015-08-14T15:10:29Z</time>
      </trkpt>
      <trkpt lat="40.75873" lon="-7.20347">
        <ele>571.543</ele>
        <time>2015-08-14T15:10:48Z</time>
      </trkpt>
      <trkpt lat="40.75732" lon="-7.20323">
        <ele>574.317</ele>
        <time>2015-08-14T15:11:05Z</time>
      </trkpt>
      <trkpt lat="40.75709" lon="-7.20336">
        <ele>575.408</ele>
        <time>2015-08-14T15:11:10Z</time>
      </trkpt>
      <trkpt lat="40.75603" lon="-7.20279">
        <ele>578.949</ele>
        <time>2015-08-14T15:11:35Z</time>
      </trkpt>
      <trkpt lat="40.75387" lon="-7.20206">
        <ele>588.148</ele>
        <time>2015-08-14T15:11:52Z</time>
      </trkpt>
      <trkpt lat="40.75314" lon="-7.20156">
        <ele>591.186</ele>
        <time>2015-08-14T15:11:58Z</time>
      </trkpt>
      <trkpt lat="40.75042" lon="-7.20197">
        <ele>608.195</ele>
        <time>2015-08-14T15:12:21Z</time>
      </trkpt>
      <trkpt lat="40.74897" lon="-7.20236">
        <ele>621.495</ele>
        <time>2015-08-14T15:13:18Z</time>
      </trkpt>
      <trkpt lat="40.74858" lon="-7.20353">
        <ele>613.158</ele>
        <time>2015-08-14T15:13:43Z</time>
      </trkpt>
      <trkpt lat="40.74874" lon="-7.20431">
        <ele>616.176</ele>
        <time>2015-08-14T15:14:00Z</time>
      </trkpt>
      <trkpt lat="40.74888" lon="-7.20439">
        <ele>615.53</ele>
        <time>2015-08-14T15:14:23Z</time>
      </trkpt>
      <trkpt lat="40.74859" lon="-7.20553">
        <ele>627.177</ele>
        <time>2015-08-14T15:15:31Z</time>
      </trkpt>
      <trkpt lat="40.7483" lon="-7.20575">
        <ele>628.861</ele>
        <time>2015-08-14T15:16:48Z</time>
      </trkpt>
      <trkpt lat="40.74776" lon="-7.20496">
        <ele>625.027</ele>
        <time>2015-08-14T15:17:01Z</time>
      </trkpt>
      <trkpt lat="40.74768" lon="-7.20438">
        <ele>623.408</ele>
        <time>2015-08-14T15:17:05Z</time>
      </trkpt>
      <trkpt lat="40.74746" lon="-7.20269">
        <ele>622.018</ele>
        <time>2015-08-14T15:17:16Z</time>
      </trkpt>
      <trkpt lat="40.74738" lon="-7.20255">
        <ele>621.627</ele>
        <time>2015-08-14T15:17:43Z</time>
      </trkpt>
      <trkpt lat="40.74247" lon="-7.20278">
        <ele>645.075</ele>
        <time>2015-08-14T15:19:01Z</time>
      </trkpt>
      <trkpt lat="40.74065" lon="-7.20246">
        <ele>645.574</ele>
        <time>2015-08-14T15:19:41Z</time>
      </trkpt>
      <trkpt lat="40.73932" lon="-7.2018">
        <ele>631.784</ele>
        <time>2015-08-14T15:20:23Z</time>
      </trkpt>
      <trkpt lat="40.73868" lon="-7.20208">
        <ele>624.217</ele>
        <time>2015-08-14T15:20:44Z</time>
      </trkpt>
      <trkpt lat="40.73744" lon="-7.20136">
        <ele>620.875</ele>
        <time>2015-08-14T15:21:11Z</time>
      </trkpt>
      <trkpt lat="40.73626" lon="-7.20168">
        <ele>604.469</ele>
        <time>2015-08-14T15:21:43Z</time>
      </trkpt>
      <trkpt lat="40.73493" lon="-7.2029">
        <ele>597.718</ele>
        <time>2015-08-14T15:22:10Z</time>
      </trkpt>
      <trkpt lat="40.73318" lon="-7.20314">
        <ele>577.798</ele>
        <time>2015-08-14T15:22:41Z</time>
      </trkpt>
      <trkpt lat="40.73305" lon="-7.20422">
        <ele>572.217</ele>
        <time>2015-08-14T15:23:07Z</time>
      </trkpt>
      <trkpt lat="40.73332" lon="-7.20494">
        <ele>575.008</ele>
        <time>2015-08-14T15:23:11Z</time>
      </trkpt>
      <trkpt lat="40.73416" lon="-7.20675">
        <ele>561.382</ele>
        <time>2015-08-14T15:23:21Z</time>
      </trkpt>
      <trkpt lat="40.73405" lon="-7.20766">
        <ele>564.111</ele>
        <time>2015-08-14T15:23:25Z</time>
      </trkpt>
      <trkpt lat="40.73406" lon="-7.20954">
        <ele>557.539</ele>
        <time>2015-08-14T15:23:33Z</time>
      </trkpt>
      <trkpt lat="40.73432" lon="-7.21139">
        <ele>545.558</ele>
        <time>2015-08-14T15:23:41Z</time>
      </trkpt>
      <trkpt lat="40.7339" lon="-7.21225">
        <ele>544.288</ele>
        <time>2015-08-14T15:23:45Z</time>
      </trkpt>
      <trkpt lat="40.73313" lon="-7.21417">
        <ele>545.381</ele>
        <time>2015-08-14T15:23:53Z</time>
      </trkpt>
      <trkpt lat="40.73328" lon="-7.21673">
        <ele>539.419</ele>
        <time>2015-08-14T15:24:02Z</time>
      </trkpt>
      <trkpt lat="40.73299" lon="-7.21744">
        <ele>536.963</ele>
        <time>2015-08-14T15:24:05Z</time>
      </trkpt>
      <trkpt lat="40.73226" lon="-7.21865">
        <ele>535.936</ele>
        <time>2015-08-14T15:24:11Z</time>
      </trkpt>
      <trkpt lat="40.73203" lon="-7.22137">
        <ele>538.717</ele>
        <time>2015-08-14T15:24:27Z</time>
      </trkpt>
      <trkpt lat="40.73081" lon="-7.22145">
        <ele>545.518</ele>
        <time>2015-08-14T15:25:02Z</time>
      </trkpt>
      <trkpt lat="40.72961" lon="-7.22197">
        <ele>552.008</ele>
        <time>2015-08-14T15:25:15Z</time>
      </trkpt>
      <trkpt lat="40.72842" lon="-7.22225">
        <ele>551.094</ele>
        <time>2015-08-14T15:25:52Z</time>
      </trkpt>
      <trkpt lat="40.7277" lon="-7.22133">
        <ele>554.263</ele>
        <time>2015-08-14T15:26:40Z</time>
      </trkpt>
      <trkpt lat="40.72738" lon="-7.22052">
        <ele>560.281</ele>
        <time>2015-08-14T15:26:47Z</time>
      </trkpt>
      <trkpt lat="40.72641" lon="-7.21953">
        <ele>568.59</ele>
        <time>2015-08-14T15:26:59Z</time>
      </trkpt>
      <trkpt lat="40.72607" lon="-7.21915">
        <ele>569.49</ele>
        <time>2015-08-14T15:27:03Z</time>
      </trkpt>
      <trkpt lat="40.72537" lon="-7.21732">
        <ele>574.793</ele>
        <time>2015-08-14T15:27:18Z</time>
      </trkpt>
      <trkpt lat="40.72445" lon="-7.21697">
        <ele>573.821</ele>
        <time>2015-08-14T15:27:29Z</time>
      </trkpt>
      <trkpt lat="40.72358" lon="-7.21544">
        <ele>573.455</ele>
        <time>2015-08-14T15:28:03Z</time>
      </trkpt>
      <trkpt lat="40.72201" lon="-7.21286">
        <ele>555.115</ele>
        <time>2015-08-14T15:28:31Z</time>
      </trkpt>
      <trkpt lat="40.72091" lon="-7.21244">
        <ele>555.765</ele>
        <time>2015-08-14T15:28:45Z</time>
      </trkpt>
      <trkpt lat="40.7203" lon="-7.21139">
        <ele>554.911</ele>
        <time>2015-08-14T15:28:55Z</time>
      </trkpt>
      <trkpt lat="40.71945" lon="-7.21026">
        <ele>552.908</ele>
        <time>2015-08-14T15:29:06Z</time>
      </trkpt>
      <trkpt lat="40.71886" lon="-7.20894">
        <ele>547.272</ele>
        <time>2015-08-14T15:29:18Z</time>
      </trkpt>
      <trkpt lat="40.71872" lon="-7.20866">
        <ele>546.541</ele>
        <time>2015-08-14T15:29:22Z</time>
      </trkpt>
      <trkpt lat="40.71779" lon="-7.20802">
        <ele>548.889</ele>
        <time>2015-08-14T15:30:15Z</time>
      </trkpt>
      <trkpt lat="40.71666" lon="-7.20815">
        <ele>553.798</ele>
        <time>2015-08-14T15:30:35Z</time>
      </trkpt>
      <trkpt lat="40.71535" lon="-7.20895">
        <ele>559.098</ele>
        <time>2015-08-14T15:30:57Z</time>
      </trkpt>
      <trkpt lat="40.71408" lon="-7.20989">
        <ele>574.971</ele>
        <time>2015-08-14T15:31:24Z</time>
      </trkpt>
      <trkpt lat="40.71182" lon="-7.21057">
        <ele>595.829</ele>
        <time>2015-08-14T15:31:58Z</time>
      </trkpt>
      <trkpt lat="40.71096" lon="-7.21148">
        <ele>606.013</ele>
        <time>2015-08-14T15:32:12Z</time>
      </trkpt>
      <trkpt lat="40.7106" lon="-7.2118">
        <ele>609.341</ele>
        <time>2015-08-14T15:32:17Z</time>
      </trkpt>
      <trkpt lat="40.7065" lon="-7.21488">
        <ele>612.581</ele>
        <time>2015-08-14T15:33:15Z</time>
      </trkpt>
      <trkpt lat="40.70351" lon="-7.2141">
        <ele>609.009</ele>
        <time>2015-08-14T15:34:06Z</time>
      </trkpt>
      <trkpt lat="40.70284" lon="-7.21485">
        <ele>613.908</ele>
        <time>2015-08-14T15:34:37Z</time>
      </trkpt>
      <trkpt lat="40.70199" lon="-7.21494">
        <ele>613.055</ele>
        <time>2015-08-14T15:35:18Z</time>
      </trkpt>
      <trkpt lat="40.7005" lon="-7.21636">
        <ele>606.284</ele>
        <time>2015-08-14T15:36:20Z</time>
      </trkpt>
      <trkpt lat="40.69785" lon="-7.21725">
        <ele>596.162</ele>
        <time>2015-08-14T15:37:39Z</time>
      </trkpt>
      <trkpt lat="40.6962" lon="-7.21821">
        <ele>593.771</ele>
        <time>2015-08-14T15:37:59Z</time>
      </trkpt>
      <trkpt lat="40.69529" lon="-7.21867">
        <ele>591.371</ele>
        <time>2015-08-14T15:38:11Z</time>
      </trkpt>
      <trkpt lat="40.69407" lon="-7.21836">
        <ele>584.944</ele>
        <time>2015-08-14T15:38:26Z</time>
      </trkpt>
      <trkpt lat="40.69327" lon="-7.2198">
        <ele>593.992</ele>
        <time>2015-08-14T15:38:44Z</time>
      </trkpt>
      <trkpt lat="40.69192" lon="-7.22062">
        <ele>605.456</ele>
        <time>2015-08-14T15:39:07Z</time>
      </trkpt>
      <trkpt lat="40.69135" lon="-7.22121">
        <ele>604.774</ele>
        <time>2015-08-14T15:39:16Z</time>
      </trkpt>
      <trkpt lat="40.69043" lon="-7.22227">
        <ele>607.856</ele>
        <time>2015-08-14T15:39:29Z</time>
      </trkpt>
      <trkpt lat="40.68981" lon="-7.22255">
        <ele>606.921</ele>
        <time>2015-08-14T15:39:40Z</time>
      </trkpt>
      <trkpt lat="40.68873" lon="-7.22443">
        <ele>616.308</ele>
        <time>2015-08-14T15:40:18Z</time>
      </trkpt>
      <trkpt lat="40.68822" lon="-7.22485">
        <ele>619.918</ele>
        <time>2015-08-14T15:40:26Z</time>
      </trkpt>
      <trkpt lat="40.68756" lon="-7.22545">
        <ele>618.137</ele>
        <time>2015-08-14T15:40:37Z</time>
      </trkpt>
      <trkpt lat="40.68588" lon="-7.22776">
        <ele>634.825</ele>
        <time>2015-08-14T15:41:05Z</time>
      </trkpt>
      <trkpt lat="40.68519" lon="-7.23045">
        <ele>647.524</ele>
        <time>2015-08-14T15:41:31Z</time>
      </trkpt>
      <trkpt lat="40.6853" lon="-7.23183">
        <ele>658.094</ele>
        <time>2015-08-14T15:41:52Z</time>
      </trkpt>
      <trkpt lat="40.68433" lon="-7.23149">
        <ele>656.147</ele>
        <time>2015-08-14T15:42:28Z</time>
      </trkpt>
      <trkpt lat="40.68297" lon="-7.23154">
        <ele>658.315</ele>
        <time>2015-08-14T15:42:36Z</time>
      </trkpt>
      <trkpt lat="40.67984" lon="-7.23151">
        <ele>659.389</ele>
        <time>2015-08-14T15:42:53Z</time>
      </trkpt>
      <trkpt lat="40.67933" lon="-7.23061">
        <ele>659.678</ele>
        <time>2015-08-14T15:42:59Z</time>
      </trkpt>
      <trkpt lat="40.67854" lon="-7.22814">
        <ele>646.833</ele>
        <time>2015-08-14T15:43:10Z</time>
      </trkpt>
      <trkpt lat="40.67682" lon="-7.2267">
        <ele>644.526</ele>
        <time>2015-08-14T15:43:21Z</time>
      </trkpt>
      <trkpt lat="40.6757" lon="-7.22492">
        <ele>637.708</ele>
        <time>2015-08-14T15:43:30Z</time>
      </trkpt>
      <trkpt lat="40.67475" lon="-7.22472">
        <ele>635.258</ele>
        <time>2015-08-14T15:43:35Z</time>
      </trkpt>
      <trkpt lat="40.67249" lon="-7.22416">
        <ele>624.987</ele>
        <time>2015-08-14T15:43:46Z</time>
      </trkpt>
      <trkpt lat="40.66813" lon="-7.2237">
        <ele>608.625</ele>
        <time>2015-08-14T15:44:09Z</time>
      </trkpt>
      <trkpt lat="40.66196" lon="-7.22803">
        <ele>630.234</ele>
        <time>2015-08-14T15:44:50Z</time>
      </trkpt>
      <trkpt lat="40.66098" lon="-7.23244">
        <ele>645.874</ele>
        <time>2015-08-14T15:45:12Z</time>
      </trkpt>
      <trkpt lat="40.66082" lon="-7.23458">
        <ele>644.227</ele>
        <time>2015-08-14T15:45:21Z</time>
      </trkpt>
      <trkpt lat="40.65967" lon="-7.23591">
        <ele>649.445</ele>
        <time>2015-08-14T15:45:30Z</time>
      </trkpt>
      <trkpt lat="40.65924" lon="-7.23708">
        <ele>655.519</ele>
        <time>2015-08-14T15:45:36Z</time>
      </trkpt>
      <trkpt lat="40.6585" lon="-7.23816">
        <ele>667.632</ele>
        <time>2015-08-14T15:45:42Z</time>
      </trkpt>
      <trkpt lat="40.65811" lon="-7.2403">
        <ele>671.392</ele>
        <time>2015-08-14T15:45:52Z</time>
      </trkpt>
      <trkpt lat="40.65713" lon="-7.24116">
        <ele>687.511</ele>
        <time>2015-08-14T15:45:59Z</time>
      </trkpt>
      <trkpt lat="40.65668" lon="-7.24211">
        <ele>697.008</ele>
        <time>2015-08-14T15:46:04Z</time>
      </trkpt>
      <trkpt lat="40.65651" lon="-7.24251">
        <ele>698.294</ele>
        <time>2015-08-14T15:46:06Z</time>
      </trkpt>
      <trkpt lat="40.65618" lon="-7.24307">
        <ele>702.583</ele>
        <time>2015-08-14T15:46:09Z</time>
      </trkpt>
      <trkpt lat="40.65605" lon="-7.24323">
        <ele>704.981</ele>
        <time>2015-08-14T15:46:10Z</time>
      </trkpt>
      <trkpt lat="40.65504" lon="-7.24342">
        <ele>705.42</ele>
        <time>2015-08-14T15:46:16Z</time>
      </trkpt>
      <trkpt lat="40.65272" lon="-7.2422">
        <ele>718.89</ele>
        <time>2015-08-14T15:46:31Z</time>
      </trkpt>
      <trkpt lat="40.64881" lon="-7.24175">
        <ele>742.593</ele>
        <time>2015-08-14T15:46:54Z</time>
      </trkpt>
      <trkpt lat="40.64776" lon="-7.24173">
        <ele>739.411</ele>
        <time>2015-08-14T15:47:00Z</time>
      </trkpt>
      <trkpt lat="40.64619" lon="-7.2411">
        <ele>739.745</ele>
        <time>2015-08-14T15:47:09Z</time>
      </trkpt>
      <trkpt lat="40.6438" lon="-7.24144">
        <ele>741.331</ele>
        <time>2015-08-14T15:47:21Z</time>
      </trkpt>
      <trkpt lat="40.64224" lon="-7.24126">
        <ele>743.061</ele>
        <time>2015-08-14T15:47:29Z</time>
      </trkpt>
      <trkpt lat="40.6414" lon="-7.24174">
        <ele>744.607</ele>
        <time>2015-08-14T15:47:35Z</time>
      </trkpt>
      <trkpt lat="40.64056" lon="-7.24357">
        <ele>732.608</ele>
        <time>2015-08-14T15:47:44Z</time>
      </trkpt>
      <trkpt lat="40.63957" lon="-7.24553">
        <ele>717.484</ele>
        <time>2015-08-14T15:47:53Z</time>
      </trkpt>
      <trkpt lat="40.63908" lon="-7.2472">
        <ele>713.773</ele>
        <time>2015-08-14T15:48:02Z</time>
      </trkpt>
      <trkpt lat="40.63801" lon="-7.24763">
        <ele>708.431</ele>
        <time>2015-08-14T15:48:10Z</time>
      </trkpt>
      <trkpt lat="40.63671" lon="-7.24708">
        <ele>714.27</ele>
        <time>2015-08-14T15:48:21Z</time>
      </trkpt>
      <trkpt lat="40.63431" lon="-7.24689">
        <ele>733.22</ele>
        <time>2015-08-14T15:48:39Z</time>
      </trkpt>
      <trkpt lat="40.63222" lon="-7.24691">
        <ele>743.063</ele>
        <time>2015-08-14T15:48:55Z</time>
      </trkpt>
      <trkpt lat="40.63121" lon="-7.24651">
        <ele>749.151</ele>
        <time>2015-08-14T15:49:03Z</time>
      </trkpt>
      <trkpt lat="40.62849" lon="-7.24675">
        <ele>764.515</ele>
        <time>2015-08-14T15:49:22Z</time>
      </trkpt>
      <trkpt lat="40.628" lon="-7.24716">
        <ele>765.759</ele>
        <time>2015-08-14T15:49:26Z</time>
      </trkpt>
      <trkpt lat="40.62652" lon="-7.24794">
        <ele>779.603</ele>
        <time>2015-08-14T15:49:38Z</time>
      </trkpt>
      <trkpt lat="40.62518" lon="-7.24926">
        <ele>779.123</ele>
        <time>2015-08-14T15:49:50Z</time>
      </trkpt>
      <trkpt lat="40.62336" lon="-7.2521">
        <ele>763.808</ele>
        <time>2015-08-14T15:50:10Z</time>
      </trkpt>
      <trkpt lat="40.62304" lon="-7.25321">
        <ele>758.746</ele>
        <time>2015-08-14T15:50:16Z</time>
      </trkpt>
      <trkpt lat="40.62168" lon="-7.25391">
        <ele>756.485</ele>
        <time>2015-08-14T15:50:26Z</time>
      </trkpt>
      <trkpt lat="40.6206" lon="-7.25506">
        <ele>757.593</ele>
        <time>2015-08-14T15:50:36Z</time>
      </trkpt>
      <trkpt lat="40.62011" lon="-7.25583">
        <ele>758.772</ele>
        <time>2015-08-14T15:50:42Z</time>
      </trkpt>
      <trkpt lat="40.61747" lon="-7.25581">
        <ele>777.552</ele>
        <time>2015-08-14T15:51:02Z</time>
      </trkpt>
      <trkpt lat="40.61517" lon="-7.25642">
        <ele>768.265</ele>
        <time>2015-08-14T15:51:17Z</time>
      </trkpt>
      <trkpt lat="40.61237" lon="-7.2572">
        <ele>754.433</ele>
        <time>2015-08-14T15:51:32Z</time>
      </trkpt>
      <trkpt lat="40.61027" lon="-7.25662">
        <ele>752.577</ele>
        <time>2015-08-14T15:51:45Z</time>
      </trkpt>
      <trkpt lat="40.61" lon="-7.2558">
        <ele>746.028</ele>
        <time>2015-08-14T15:51:50Z</time>
      </trkpt>
      <trkpt lat="40.61018" lon="-7.25465">
        <ele>738.389</ele>
        <time>2015-08-14T15:51:55Z</time>
      </trkpt>
      <trkpt lat="40.61046" lon="-7.25329">
        <ele>731.117</ele>
        <time>2015-08-14T15:52:02Z</time>
      </trkpt>
      <trkpt lat="40.6103" lon="-7.25234">
        <ele>731.608</ele>
        <time>2015-08-14T15:52:10Z</time>
      </trkpt>
      <trkpt lat="40.61006" lon="-7.25222">
        <ele>733.673</ele>
        <time>2015-08-14T15:52:21Z</time>
      </trkpt>
      <trkpt lat="40.60729" lon="-7.25331">
        <ele>745.912</ele>
        <time>2015-08-14T15:52:56Z</time>
      </trkpt>
      <trkpt lat="40.6059" lon="-7.25344">
        <ele>746.32</ele>
        <time>2015-08-14T15:53:14Z</time>
      </trkpt>
      <trkpt lat="40.60463" lon="-7.25415">
        <ele>741.729</ele>
        <time>2015-08-14T15:53:34Z</time>
      </trkpt>
      <trkpt lat="40.60296" lon="-7.25725">
        <ele>747.429</ele>
        <time>2015-08-14T15:54:18Z</time>
      </trkpt>
      <trkpt lat="40.60102" lon="-7.25823">
        <ele>750.212</ele>
        <time>2015-08-14T15:55:04Z</time>
      </trkpt>
      <trkpt lat="40.59712" lon="-7.25814">
        <ele>756.38</ele>
        <time>2015-08-14T15:55:38Z</time>
      </trkpt>
      <trkpt lat="40.59412" lon="-7.25672">
        <ele>762.814</ele>
        <time>2015-08-14T15:56:06Z</time>
      </trkpt>
      <trkpt lat="40.59315" lon="-7.25609">
        <ele>763.545</ele>
        <time>2015-08-14T15:56:52Z</time>
      </trkpt>
      <trkpt lat="40.59199" lon="-7.25724">
        <ele>754.947</ele>
        <time>2015-08-14T15:57:51Z</time>
      </trkpt>
      <trkpt lat="40.59174" lon="-7.25812">
        <ele>758.111</ele>
        <time>2015-08-14T15:57:59Z</time>
      </trkpt>
      <trkpt lat="40.59167" lon="-7.25855">
        <ele>761.008</ele>
        <time>2015-08-14T15:58:30Z</time>
      </trkpt>
      <trkpt lat="40.59077" lon="-7.25812">
        <ele>767.545</ele>
        <time>2015-08-14T15:58:45Z</time>
      </trkpt>
      <trkpt lat="40.58583" lon="-7.25383">
        <ele>769.284</ele>
        <time>2015-08-14T15:59:47Z</time>
      </trkpt>
      <trkpt lat="40.58121" lon="-7.25276">
        <ele>770.982</ele>
        <time>2015-08-14T16:00:34Z</time>
      </trkpt>
      <trkpt lat="40.57714" lon="-7.25086">
        <ele>771.431</ele>
        <time>2015-08-14T16:01:07Z</time>
      </trkpt>
      <trkpt lat="40.57442" lon="-7.24972">
        <ele>776.271</ele>
        <time>2015-08-14T16:01:26Z</time>
      </trkpt>
      <trkpt lat="40.57199" lon="-7.24919">
        <ele>777.074</ele>
        <time>2015-08-14T16:01:57Z</time>
      </trkpt>
      <trkpt lat="40.57039" lon="-7.24788">
        <ele>782.382</ele>
        <time>2015-08-14T16:02:20Z</time>
      </trkpt>
      <trkpt lat="40.56686" lon="-7.24588">
        <ele>789.156</ele>
        <time>2015-08-14T16:03:02Z</time>
      </trkpt>
      <trkpt lat="40.56633" lon="-7.24509">
        <ele>791.618</ele>
        <time>2015-08-14T16:03:13Z</time>
      </trkpt>
      <trkpt lat="40.56555" lon="-7.24473">
        <ele>788.998</ele>
        <time>2015-08-14T16:03:22Z</time>
      </trkpt>
      <trkpt lat="40.56323" lon="-7.2451">
        <ele>795.017</ele>
        <time>2015-08-14T16:03:47Z</time>
      </trkpt>
      <trkpt lat="40.56233" lon="-7.24448">
        <ele>797.708</ele>
        <time>2015-08-14T16:04:05Z</time>
      </trkpt>
      <trkpt lat="40.56174" lon="-7.24365">
        <ele>796.672</ele>
        <time>2015-08-14T16:04:15Z</time>
      </trkpt>
      <trkpt lat="40.56041" lon="-7.24362">
        <ele>804.151</ele>
        <time>2015-08-14T16:04:28Z</time>
      </trkpt>
      <trkpt lat="40.55966" lon="-7.24367">
        <ele>808.099</ele>
        <time>2015-08-14T16:04:38Z</time>
      </trkpt>
      <trkpt lat="40.55814" lon="-7.24221">
        <ele>806.188</ele>
        <time>2015-08-14T16:04:56Z</time>
      </trkpt>
      <trkpt lat="40.55584" lon="-7.24155">
        <ele>825.428</ele>
        <time>2015-08-14T16:05:18Z</time>
      </trkpt>
      <trkpt lat="40.55522" lon="-7.24477">
        <ele>829.271</ele>
        <time>2015-08-14T16:06:05Z</time>
      </trkpt>
      <trkpt lat="40.5549" lon="-7.24589">
        <ele>832.419</ele>
        <time>2015-08-14T16:06:17Z</time>
      </trkpt>
      <trkpt lat="40.55347" lon="-7.24649">
        <ele>833.583</ele>
        <time>2015-08-14T16:06:34Z</time>
      </trkpt>
      <trkpt lat="40.55223" lon="-7.24635">
        <ele>831.641</ele>
        <time>2015-08-14T16:06:48Z</time>
      </trkpt>
      <trkpt lat="40.55037" lon="-7.24619">
        <ele>820.581</ele>
        <time>2015-08-14T16:07:08Z</time>
      </trkpt>
      <trkpt lat="40.54969" lon="-7.247">
        <ele>817.609</ele>
        <time>2015-08-14T16:08:37Z</time>
      </trkpt>
      <trkpt lat="40.54914" lon="-7.24862">
        <ele>817.108</ele>
        <time>2015-08-14T16:08:58Z</time>
      </trkpt>
      <trkpt lat="40.54886" lon="-7.24875">
        <ele>819.115</ele>
        <time>2015-08-14T16:09:02Z</time>
      </trkpt>
      <trkpt lat="40.54854" lon="-7.24829">
        <ele>817.334</ele>
        <time>2015-08-14T16:09:07Z</time>
      </trkpt>
      <trkpt lat="40.54796" lon="-7.24768">
        <ele>813.782</ele>
        <time>2015-08-14T16:09:13Z</time>
      </trkpt>
      <trkpt lat="40.54767" lon="-7.24718">
        <ele>816.721</ele>
        <time>2015-08-14T16:09:16Z</time>
      </trkpt>
      <trkpt lat="40.54744" lon="-7.24625">
        <ele>824.031</ele>
        <time>2015-08-14T16:09:20Z</time>
      </trkpt>
      <trkpt lat="40.54672" lon="-7.24163">
        <ele>813.354</ele>
        <time>2015-08-14T16:09:39Z</time>
      </trkpt>
      <trkpt lat="40.546" lon="-7.24059">
        <ele>811.422</ele>
        <time>2015-08-14T16:09:45Z</time>
      </trkpt>
      <trkpt lat="40.54502" lon="-7.24">
        <ele>812.946</ele>
        <time>2015-08-14T16:09:51Z</time>
      </trkpt>
      <trkpt lat="40.54314" lon="-7.24017">
        <ele>822.665</ele>
        <time>2015-08-14T16:10:03Z</time>
      </trkpt>
      <trkpt lat="40.54268" lon="-7.2404">
        <ele>819.568</ele>
        <time>2015-08-14T16:10:08Z</time>
      </trkpt>
      <trkpt lat="40.54106" lon="-7.24067">
        <ele>811.514</ele>
        <time>2015-08-14T16:10:25Z</time>
      </trkpt>
      <trkpt lat="40.53938" lon="-7.23998">
        <ele>826.308</ele>
        <time>2015-08-14T16:10:36Z</time>
      </trkpt>
      <trkpt lat="40.53781" lon="-7.23899">
        <ele>832.477</ele>
        <time>2015-08-14T16:10:50Z</time>
      </trkpt>
      <trkpt lat="40.53734" lon="-7.23925">
        <ele>836.886</ele>
        <time>2015-08-14T16:10:55Z</time>
      </trkpt>
      <trkpt lat="40.53676" lon="-7.2401">
        <ele>845.994</ele>
        <time>2015-08-14T16:11:01Z</time>
      </trkpt>
      <trkpt lat="40.53529" lon="-7.24169">
        <ele>853.143</ele>
        <time>2015-08-14T16:11:12Z</time>
      </trkpt>
      <trkpt lat="40.53372" lon="-7.24293">
        <ele>854.943</ele>
        <time>2015-08-14T16:11:29Z</time>
      </trkpt>
      <trkpt lat="40.53277" lon="-7.24138">
        <ele>849.896</ele>
        <time>2015-08-14T16:11:41Z</time>
      </trkpt>
      <trkpt lat="40.53261" lon="-7.2404">
        <ele>849.324</ele>
        <time>2015-08-14T16:11:45Z</time>
      </trkpt>
      <trkpt lat="40.5328" lon="-7.23907">
        <ele>845.488</ele>
        <time>2015-08-14T16:11:50Z</time>
      </trkpt>
      <trkpt lat="40.53255" lon="-7.23802">
        <ele>844.196</ele>
        <time>2015-08-14T16:11:54Z</time>
      </trkpt>
      <trkpt lat="40.53224" lon="-7.23759">
        <ele>846.931</ele>
        <time>2015-08-14T16:11:56Z</time>
      </trkpt>
      <trkpt lat="40.53081" lon="-7.23617">
        <ele>843.024</ele>
        <time>2015-08-14T16:12:04Z</time>
      </trkpt>
      <trkpt lat="40.52973" lon="-7.23552">
        <ele>837.708</ele>
        <time>2015-08-14T16:12:12Z</time>
      </trkpt>
      <trkpt lat="40.52928" lon="-7.23546">
        <ele>841.08</ele>
        <time>2015-08-14T16:12:19Z</time>
      </trkpt>
      <trkpt lat="40.52806" lon="-7.23432">
        <ele>831.799</ele>
        <time>2015-08-14T16:12:32Z</time>
      </trkpt>
      <trkpt lat="40.52577" lon="-7.23014">
        <ele>822.387</ele>
        <time>2015-08-14T16:12:50Z</time>
      </trkpt>
      <trkpt lat="40.52393" lon="-7.22669">
        <ele>817.286</ele>
        <time>2015-08-14T16:13:07Z</time>
      </trkpt>
      <trkpt lat="40.52329" lon="-7.22631">
        <ele>817.186</ele>
        <time>2015-08-14T16:13:16Z</time>
      </trkpt>
      <trkpt lat="40.52296" lon="-7.22469">
        <ele>811.349</ele>
        <time>2015-08-14T16:13:29Z</time>
      </trkpt>
      <trkpt lat="40.5209" lon="-7.221">
        <ele>802.617</ele>
        <time>2015-08-14T16:13:48Z</time>
      </trkpt>
      <trkpt lat="40.51958" lon="-7.21983">
        <ele>794.941</ele>
        <time>2015-08-14T16:14:00Z</time>
      </trkpt>
      <trkpt lat="40.51497" lon="-7.21692">
        <ele>788.444</ele>
        <time>2015-08-14T16:14:23Z</time>
      </trkpt>
      <trkpt lat="40.5127" lon="-7.21555">
        <ele>805.005</ele>
        <time>2015-08-14T16:14:33Z</time>
      </trkpt>
      <trkpt lat="40.51101" lon="-7.21524">
        <ele>808.815</ele>
        <time>2015-08-14T16:14:40Z</time>
      </trkpt>
      <trkpt lat="40.51007" lon="-7.21563">
        <ele>816.508</ele>
        <time>2015-08-14T16:14:44Z</time>
      </trkpt>
      <trkpt lat="40.50923" lon="-7.21639">
        <ele>822.735</ele>
        <time>2015-08-14T16:14:48Z</time>
      </trkpt>
      <trkpt lat="40.50773" lon="-7.21771">
        <ele>808.284</ele>
        <time>2015-08-14T16:14:55Z</time>
      </trkpt>
      <trkpt lat="40.50672" lon="-7.21787">
        <ele>811.622</ele>
        <time>2015-08-14T16:14:59Z</time>
      </trkpt>
      <trkpt lat="40.50404" lon="-7.21712">
        <ele>824.161</ele>
        <time>2015-08-14T16:15:10Z</time>
      </trkpt>
      <trkpt lat="40.50323" lon="-7.21757">
        <ele>832.461</ele>
        <time>2015-08-14T16:15:14Z</time>
      </trkpt>
      <trkpt lat="40.50192" lon="-7.21907">
        <ele>828.574</ele>
        <time>2015-08-14T16:15:23Z</time>
      </trkpt>
      <trkpt lat="40.5007" lon="-7.21997">
        <ele>823.322</ele>
        <time>2015-08-14T16:15:30Z</time>
      </trkpt>
      <trkpt lat="40.49952" lon="-7.21988">
        <ele>818.036</ele>
        <time>2015-08-14T16:15:35Z</time>
      </trkpt>
      <trkpt lat="40.49826" lon="-7.21879">
        <ele>829.817</ele>
        <time>2015-08-14T16:15:41Z</time>
      </trkpt>
      <trkpt lat="40.49725" lon="-7.21676">
        <ele>828.987</ele>
        <time>2015-08-14T16:15:48Z</time>
      </trkpt>
      <trkpt lat="40.49587" lon="-7.21552">
        <ele>832.815</ele>
        <time>2015-08-14T16:15:55Z</time>
      </trkpt>
      <trkpt lat="40.49411" lon="-7.21569">
        <ele>836.708</ele>
        <time>2015-08-14T16:16:01Z</time>
      </trkpt>
      <trkpt lat="40.49067" lon="-7.21711">
        <ele>844.452</ele>
        <time>2015-08-14T16:16:14Z</time>
      </trkpt>
      <trkpt lat="40.48366" lon="-7.21863">
        <ele>865.271</ele>
        <time>2015-08-14T16:16:39Z</time>
      </trkpt>
      <trkpt lat="40.48187" lon="-7.21846">
        <ele>871.529</ele>
        <time>2015-08-14T16:16:46Z</time>
      </trkpt>
      <trkpt lat="40.48128" lon="-7.21795">
        <ele>872.238</ele>
        <time>2015-08-14T16:16:49Z</time>
      </trkpt>
      <trkpt lat="40.48039" lon="-7.21711">
        <ele>871.288</ele>
        <time>2015-08-14T16:16:55Z</time>
      </trkpt>
      <trkpt lat="40.48002" lon="-7.21704">
        <ele>870.111</ele>
        <time>2015-08-14T16:16:59Z</time>
      </trkpt>
      <trkpt lat="40.47922" lon="-7.21691">
        <ele>872.869</ele>
        <time>2015-08-14T16:17:14Z</time>
      </trkpt>
      <trkpt lat="40.47883" lon="-7.21827">
        <ele>878.833</ele>
        <time>2015-08-14T16:18:10Z</time>
      </trkpt>
      <trkpt lat="40.47893" lon="-7.22103">
        <ele>892.363</ele>
        <time>2015-08-14T16:18:52Z</time>
      </trkpt>
      <trkpt lat="40.47751" lon="-7.22376">
        <ele>903.544</ele>
        <time>2015-08-14T16:19:37Z</time>
      </trkpt>
      <trkpt lat="40.47651" lon="-7.2244">
        <ele>906.218</ele>
        <time>2015-08-14T16:19:54Z</time>
      </trkpt>
      <trkpt lat="40.4753" lon="-7.22553">
        <ele>913.808</ele>
        <time>2015-08-14T16:20:17Z</time>
      </trkpt>
      <trkpt lat="40.47408" lon="-7.22652">
        <ele>916.187</ele>
        <time>2015-08-14T16:20:33Z</time>
      </trkpt>
      <trkpt lat="40.47276" lon="-7.22682">
        <ele>923.466</ele>
        <time>2015-08-14T16:20:47Z</time>
      </trkpt>
      <trkpt lat="40.46959" lon="-7.22693">
        <ele>919.174</ele>
        <time>2015-08-14T16:21:19Z</time>
      </trkpt>
      <trkpt lat="40.46789" lon="-7.22756">
        <ele>912.273</ele>
        <time>2015-08-14T16:21:34Z</time>
      </trkpt>
      <trkpt lat="40.46322" lon="-7.22644">
        <ele>902.133</ele>
        <time>2015-08-14T16:22:18Z</time>
      </trkpt>
      <trkpt lat="40.46203" lon="-7.22657">
        <ele>903.346</ele>
        <time>2015-08-14T16:22:31Z</time>
      </trkpt>
      <trkpt lat="40.45982" lon="-7.2268">
        <ele>903.334</ele>
        <time>2015-08-14T16:22:57Z</time>
      </trkpt>
      <trkpt lat="40.45847" lon="-7.2272">
        <ele>895.568</ele>
        <time>2015-08-14T16:23:10Z</time>
      </trkpt>
      <trkpt lat="40.45666" lon="-7.22675">
        <ele>895.674</ele>
        <time>2015-08-14T16:23:27Z</time>
      </trkpt>
      <trkpt lat="40.45456" lon="-7.22722">
        <ele>889.456</ele>
        <time>2015-08-14T16:23:54Z</time>
      </trkpt>
      <trkpt lat="40.45231" lon="-7.22621">
        <ele>876.421</ele>
        <time>2015-08-14T16:24:14Z</time>
      </trkpt>
      <trkpt lat="40.45067" lon="-7.22625">
        <ele>865.908</ele>
        <time>2015-08-14T16:24:27Z</time>
      </trkpt>
      <trkpt lat="40.44928" lon="-7.22562">
        <ele>853.278</ele>
        <time>2015-08-14T16:24:38Z</time>
      </trkpt>
      <trkpt lat="40.44668" lon="-7.2248">
        <ele>844.327</ele>
        <time>2015-08-14T16:24:57Z</time>
      </trkpt>
      <trkpt lat="40.44549" lon="-7.22482">
        <ele>839.475</ele>
        <time>2015-08-14T16:25:04Z</time>
      </trkpt>
      <trkpt lat="40.44379" lon="-7.22549">
        <ele>839.434</ele>
        <time>2015-08-14T16:25:16Z</time>
      </trkpt>
      <trkpt lat="40.44249" lon="-7.22724">
        <ele>841.084</ele>
        <time>2015-08-14T16:25:28Z</time>
      </trkpt>
      <trkpt lat="40.44036" lon="-7.22951">
        <ele>847.887</ele>
        <time>2015-08-14T16:25:43Z</time>
      </trkpt>
      <trkpt lat="40.43989" lon="-7.23027">
        <ele>847.095</ele>
        <time>2015-08-14T16:25:48Z</time>
      </trkpt>
      <trkpt lat="40.43537" lon="-7.23184">
        <ele>859.029</ele>
        <time>2015-08-14T16:26:13Z</time>
      </trkpt>
      <trkpt lat="40.43211" lon="-7.23302">
        <ele>839.816</ele>
        <time>2015-08-14T16:26:31Z</time>
      </trkpt>
      <trkpt lat="40.4311" lon="-7.233">
        <ele>829.376</ele>
        <time>2015-08-14T16:26:38Z</time>
      </trkpt>
      <trkpt lat="40.42924" lon="-7.23463">
        <ele>817.313</ele>
        <time>2015-08-14T16:26:52Z</time>
      </trkpt>
      <trkpt lat="40.42782" lon="-7.23536">
        <ele>819.708</ele>
        <time>2015-08-14T16:27:02Z</time>
      </trkpt>
      <trkpt lat="40.42653" lon="-7.23616">
        <ele>815.492</ele>
        <time>2015-08-14T16:27:14Z</time>
      </trkpt>
      <trkpt lat="40.42386" lon="-7.23715">
        <ele>788.211</ele>
        <time>2015-08-14T16:27:35Z</time>
      </trkpt>
      <trkpt lat="40.42205" lon="-7.23892">
        <ele>779.999</ele>
        <time>2015-08-14T16:27:54Z</time>
      </trkpt>
      <trkpt lat="40.41914" lon="-7.24055">
        <ele>774.148</ele>
        <time>2015-08-14T16:28:16Z</time>
      </trkpt>
      <trkpt lat="40.41846" lon="-7.24144">
        <ele>769.188</ele>
        <time>2015-08-14T16:28:21Z</time>
      </trkpt>
      <trkpt lat="40.41712" lon="-7.24307">
        <ele>755.181</ele>
        <time>2015-08-14T16:28:31Z</time>
      </trkpt>
      <trkpt lat="40.41521" lon="-7.24366">
        <ele>749.289</ele>
        <time>2015-08-14T16:28:42Z</time>
      </trkpt>
      <trkpt lat="40.4138" lon="-7.24444">
        <ele>732.473</ele>
        <time>2015-08-14T16:28:50Z</time>
      </trkpt>
      <trkpt lat="40.41255" lon="-7.24607">
        <ele>713.789</ele>
        <time>2015-08-14T16:29:00Z</time>
      </trkpt>
      <trkpt lat="40.41092" lon="-7.24639">
        <ele>695.606</ele>
        <time>2015-08-14T16:29:09Z</time>
      </trkpt>
      <trkpt lat="40.40722" lon="-7.24913">
        <ele>660.426</ele>
        <time>2015-08-14T16:29:31Z</time>
      </trkpt>
      <trkpt lat="40.40448" lon="-7.25045">
        <ele>642.608</ele>
        <time>2015-08-14T16:29:48Z</time>
      </trkpt>
      <trkpt lat="40.40073" lon="-7.25024">
        <ele>637.899</ele>
        <time>2015-08-14T16:30:08Z</time>
      </trkpt>
      <trkpt lat="40.39773" lon="-7.25071">
        <ele>618.648</ele>
        <time>2015-08-14T16:30:22Z</time>
      </trkpt>
      <trkpt lat="40.39573" lon="-7.25055">
        <ele>595.886</ele>
        <time>2015-08-14T16:30:31Z</time>
      </trkpt>
      <trkpt lat="40.39498" lon="-7.25043">
        <ele>587.255</ele>
        <time>2015-08-14T16:30:34Z</time>
      </trkpt>
      <trkpt lat="40.38963" lon="-7.24978">
        <ele>548.385</ele>
        <time>2015-08-14T16:30:59Z</time>
      </trkpt>
      <trkpt lat="40.38907" lon="-7.25018">
        <ele>552.178</ele>
        <time>2015-08-14T16:31:03Z</time>
      </trkpt>
      <trkpt lat="40.38839" lon="-7.25192">
        <ele>565.016</ele>
        <time>2015-08-14T16:31:15Z</time>
      </trkpt>
      <trkpt lat="40.38702" lon="-7.25238">
        <ele>578.54</ele>
        <time>2015-08-14T16:31:27Z</time>
      </trkpt>
      <trkpt lat="40.38677" lon="-7.25252">
        <ele>579.089</ele>
        <time>2015-08-14T16:31:29Z</time>
      </trkpt>
      <trkpt lat="40.38532" lon="-7.25285">
        <ele>572.606</ele>
        <time>2015-08-14T16:31:39Z</time>
      </trkpt>
      <trkpt lat="40.38412" lon="-7.25369">
        <ele>570.626</ele>
        <time>2015-08-14T16:31:50Z</time>
      </trkpt>
      <trkpt lat="40.38398" lon="-7.25385">
        <ele>569.908</ele>
        <time>2015-08-14T16:31:54Z</time>
      </trkpt>
      <trkpt lat="40.38294" lon="-7.25403">
        <ele>571.779</ele>
        <time>2015-08-14T16:32:35Z</time>
      </trkpt>
      <trkpt lat="40.38243" lon="-7.25371">
        <ele>571.468</ele>
        <time>2015-08-14T16:32:44Z</time>
      </trkpt>
      <trkpt lat="40.38203" lon="-7.25355">
        <ele>573.726</ele>
        <time>2015-08-14T16:32:50Z</time>
      </trkpt>
      <trkpt lat="40.38017" lon="-7.25393">
        <ele>579.435</ele>
        <time>2015-08-14T16:33:12Z</time>
      </trkpt>
      <trkpt lat="40.37773" lon="-7.25546">
        <ele>610.925</ele>
        <time>2015-08-14T16:34:00Z</time>
      </trkpt>
      <trkpt lat="40.37699" lon="-7.25544">
        <ele>615.528</ele>
        <time>2015-08-14T16:34:09Z</time>
      </trkpt>
      <trkpt lat="40.37651" lon="-7.2554">
        <ele>614.686</ele>
        <time>2015-08-14T16:34:15Z</time>
      </trkpt>
      <trkpt lat="40.37524" lon="-7.255">
        <ele>612.82</ele>
        <time>2015-08-14T16:34:34Z</time>
      </trkpt>
      <trkpt lat="40.37492" lon="-7.25559">
        <ele>598.224</ele>
        <time>2015-08-14T16:34:43Z</time>
      </trkpt>
      <trkpt lat="40.37269" lon="-7.25536">
        <ele>574.004</ele>
        <time>2015-08-14T16:35:14Z</time>
      </trkpt>
      <trkpt lat="40.37088" lon="-7.25593">
        <ele>538.014</ele>
        <time>2015-08-14T16:35:43Z</time>
      </trkpt>
      <trkpt lat="40.3708" lon="-7.25633">
        <ele>534.108</ele>
        <time>2015-08-14T16:35:51Z</time>
      </trkpt>
      <trkpt lat="40.37083" lon="-7.25649">
        <ele>533.213</ele>
        <time>2015-08-14T16:35:55Z</time>
      </trkpt>
      <trkpt lat="40.37072" lon="-7.25656">
        <ele>532.012</ele>
        <time>2015-08-14T16:36:12Z</time>
      </trkpt>
      <trkpt lat="40.37052" lon="-7.25527">
        <ele>533.06</ele>
        <time>2015-08-14T16:36:28Z</time>
      </trkpt>
      <trkpt lat="40.37099" lon="-7.25421">
        <ele>534.129</ele>
        <time>2015-08-14T16:36:44Z</time>
      </trkpt>
      <trkpt lat="40.37103" lon="-7.25414">
        <ele>534.379</ele>
        <time>2015-08-14T16:36:52Z</time>
      </trkpt>
      <trkpt lat="40.37087" lon="-7.25348">
        <ele>527.562</ele>
        <time>2015-08-14T16:37:36Z</time>
      </trkpt>
      <trkpt lat="40.37004" lon="-7.2538">
        <ele>519.76</ele>
        <time>2015-08-14T16:37:59Z</time>
      </trkpt>
      <trkpt lat="40.36853" lon="-7.25398">
        <ele>503.644</ele>
        <time>2015-08-14T16:38:16Z</time>
      </trkpt>
      <trkpt lat="40.3667" lon="-7.2539">
        <ele>495.069</ele>
        <time>2015-08-14T16:38:32Z</time>
      </trkpt>
      <trkpt lat="40.36544" lon="-7.2542">
        <ele>491.504</ele>
        <time>2015-08-14T16:38:42Z</time>
      </trkpt>
      <trkpt lat="40.36506" lon="-7.2539">
        <ele>493.524</ele>
        <time>2015-08-14T16:39:51Z</time>
      </trkpt>
      <trkpt lat="40.36436" lon="-7.25465">
        <ele>491.708</ele>
        <time>2015-08-14T16:40:15Z</time>
      </trkpt>
      <trkpt lat="40.3642" lon="-7.25564">
        <ele>487.857</ele>
        <time>2015-08-14T16:40:27Z</time>
      </trkpt>
      <trkpt lat="40.36413" lon="-7.25673">
        <ele>487.856</ele>
        <time>2015-08-14T16:41:07Z</time>
      </trkpt>
      <trkpt lat="40.36304" lon="-7.25749">
        <ele>485.014</ele>
        <time>2015-08-14T16:41:19Z</time>
      </trkpt>
      <trkpt lat="40.36055" lon="-7.25704">
        <ele>482.973</ele>
        <time>2015-08-14T16:41:39Z</time>
      </trkpt>
      <trkpt lat="40.36003" lon="-7.25789">
        <ele>479.233</ele>
        <time>2015-08-14T16:41:46Z</time>
      </trkpt>
      <trkpt lat="40.35961" lon="-7.25835">
        <ele>477.416</ele>
        <time>2015-08-14T16:41:53Z</time>
      </trkpt>
      <trkpt lat="40.35775" lon="-7.25733">
        <ele>477.934</ele>
        <time>2015-08-14T16:42:11Z</time>
      </trkpt>
      <trkpt lat="40.3567" lon="-7.2574">
        <ele>479.668</ele>
        <time>2015-08-14T16:42:19Z</time>
      </trkpt>
      <trkpt lat="40.35456" lon="-7.25842">
        <ele>479.335</ele>
        <time>2015-08-14T16:42:36Z</time>
      </trkpt>
      <trkpt lat="40.3535" lon="-7.25978">
        <ele>476.786</ele>
        <time>2015-08-14T16:42:47Z</time>
      </trkpt>
      <trkpt lat="40.35326" lon="-7.2603">
        <ele>476.114</ele>
        <time>2015-08-14T16:42:51Z</time>
      </trkpt>
      <trkpt lat="40.35187" lon="-7.26116">
        <ele>476.008</ele>
        <time>2015-08-14T16:43:02Z</time>
      </trkpt>
      <trkpt lat="40.35076" lon="-7.26204">
        <ele>475.134</ele>
        <time>2015-08-14T16:43:10Z</time>
      </trkpt>
      <trkpt lat="40.35008" lon="-7.26226">
        <ele>474.423</ele>
        <time>2015-08-14T16:43:15Z</time>
      </trkpt>
      <trkpt lat="40.34882" lon="-7.26184">
        <ele>478.861</ele>
        <time>2015-08-14T16:43:25Z</time>
      </trkpt>
      <trkpt lat="40.34832" lon="-7.2619">
        <ele>479.14</ele>
        <time>2015-08-14T16:43:29Z</time>
      </trkpt>
      <trkpt lat="40.34797" lon="-7.26334">
        <ele>475.48</ele>
        <time>2015-08-14T16:43:40Z</time>
      </trkpt>
      <trkpt lat="40.34565" lon="-7.26479">
        <ele>474.733</ele>
        <time>2015-08-14T16:43:56Z</time>
      </trkpt>
      <trkpt lat="40.34466" lon="-7.26465">
        <ele>480.871</ele>
        <time>2015-08-14T16:44:03Z</time>
      </trkpt>
      <trkpt lat="40.3441" lon="-7.26512">
        <ele>479.585</ele>
        <time>2015-08-14T16:44:08Z</time>
      </trkpt>
      <trkpt lat="40.34308" lon="-7.26784">
        <ele>472.559</ele>
        <time>2015-08-14T16:44:23Z</time>
      </trkpt>
      <trkpt lat="40.3422" lon="-7.26929">
        <ele>472.703</ele>
        <time>2015-08-14T16:44:33Z</time>
      </trkpt>
      <trkpt lat="40.3414" lon="-7.27198">
        <ele>466.923</ele>
        <time>2015-08-14T16:44:50Z</time>
      </trkpt>
      <trkpt lat="40.3395" lon="-7.27413">
        <ele>467.308</ele>
        <time>2015-08-14T16:45:06Z</time>
      </trkpt>
      <trkpt lat="40.33923" lon="-7.27443">
        <ele>466.836</ele>
        <time>2015-08-14T16:45:09Z</time>
      </trkpt>
      <trkpt lat="40.33941" lon="-7.27564">
        <ele>467.455</ele>
        <time>2015-08-14T16:45:17Z</time>
      </trkpt>
      <trkpt lat="40.33937" lon="-7.27592">
        <ele>468.083</ele>
        <time>2015-08-14T16:45:23Z</time>
      </trkpt>
      <trkpt lat="40.33767" lon="-7.27667">
        <ele>473.042</ele>
        <time>2015-08-14T16:45:54Z</time>
      </trkpt>
      <trkpt lat="40.33662" lon="-7.27647">
        <ele>473.192</ele>
        <time>2015-08-14T16:46:02Z</time>
      </trkpt>
      <trkpt lat="40.33497" lon="-7.27705">
        <ele>475.465</ele>
        <time>2015-08-14T16:46:14Z</time>
      </trkpt>
      <trkpt lat="40.33294" lon="-7.27856">
        <ele>478.343</ele>
        <time>2015-08-14T16:46:31Z</time>
      </trkpt>
      <trkpt lat="40.33149" lon="-7.27853">
        <ele>486.697</ele>
        <time>2015-08-14T16:46:42Z</time>
      </trkpt>
      <trkpt lat="40.3308" lon="-7.27897">
        <ele>490.747</ele>
        <time>2015-08-14T16:46:49Z</time>
      </trkpt>
      <trkpt lat="40.33014" lon="-7.27917">
        <ele>494.029</ele>
        <time>2015-08-14T16:46:56Z</time>
      </trkpt>
      <trkpt lat="40.32944" lon="-7.27834">
        <ele>506.121</ele>
        <time>2015-08-14T16:47:14Z</time>
      </trkpt>
      <trkpt lat="40.32891" lon="-7.27872">
        <ele>512.908</ele>
        <time>2015-08-14T16:47:26Z</time>
      </trkpt>
      <trkpt lat="40.32794" lon="-7.27881">
        <ele>518.675</ele>
        <time>2015-08-14T16:47:43Z</time>
      </trkpt>
      <trkpt lat="40.32756" lon="-7.27913">
        <ele>520.674</ele>
        <time>2015-08-14T16:47:52Z</time>
      </trkpt>
      <trkpt lat="40.32679" lon="-7.28085">
        <ele>516.012</ele>
        <time>2015-08-14T16:48:10Z</time>
      </trkpt>
      <trkpt lat="40.32524" lon="-7.282">
        <ele>522.751</ele>
        <time>2015-08-14T16:48:22Z</time>
      </trkpt>
      <trkpt lat="40.3211" lon="-7.284">
        <ele>520.291</ele>
        <time>2015-08-14T16:48:48Z</time>
      </trkpt>
      <trkpt lat="40.31709" lon="-7.2864">
        <ele>507.454</ele>
        <time>2015-08-14T16:49:09Z</time>
      </trkpt>
      <trkpt lat="40.31529" lon="-7.28697">
        <ele>504.782</ele>
        <time>2015-08-14T16:49:18Z</time>
      </trkpt>
      <trkpt lat="40.31414" lon="-7.28786">
        <ele>502.396</ele>
        <time>2015-08-14T16:49:24Z</time>
      </trkpt>
      <trkpt lat="40.313" lon="-7.28899">
        <ele>497.888</ele>
        <time>2015-08-14T16:49:30Z</time>
      </trkpt>
      <trkpt lat="40.31125" lon="-7.29112">
        <ele>486.524</ele>
        <time>2015-08-14T16:49:41Z</time>
      </trkpt>
      <trkpt lat="40.31037" lon="-7.29175">
        <ele>481.926</ele>
        <time>2015-08-14T16:49:49Z</time>
      </trkpt>
      <trkpt lat="40.30903" lon="-7.28524">
        <ele>483.008</ele>
        <time>2015-08-14T16:50:35Z</time>
      </trkpt>
      <trkpt lat="40.30837" lon="-7.28281">
        <ele>486.099</ele>
        <time>2015-08-14T16:50:44Z</time>
      </trkpt>
      <trkpt lat="40.30639" lon="-7.2798">
        <ele>484.488</ele>
        <time>2015-08-14T16:50:58Z</time>
      </trkpt>
      <trkpt lat="40.30619" lon="-7.27915">
        <ele>485.926</ele>
        <time>2015-08-14T16:51:01Z</time>
      </trkpt>
      <trkpt lat="40.30684" lon="-7.2751">
        <ele>485.695</ele>
        <time>2015-08-14T16:51:16Z</time>
      </trkpt>
      <trkpt lat="40.3067" lon="-7.27076">
        <ele>490.265</ele>
        <time>2015-08-14T16:51:31Z</time>
      </trkpt>
      <trkpt lat="40.30794" lon="-7.26692">
        <ele>492.288</ele>
        <time>2015-08-14T16:51:46Z</time>
      </trkpt>
      <trkpt lat="40.30829" lon="-7.2646">
        <ele>492.966</ele>
        <time>2015-08-14T16:51:55Z</time>
      </trkpt>
      <trkpt lat="40.30796" lon="-7.26295">
        <ele>495.19</ele>
        <time>2015-08-14T16:52:02Z</time>
      </trkpt>
      <trkpt lat="40.30716" lon="-7.26222">
        <ele>495.065</ele>
        <time>2015-08-14T16:52:08Z</time>
      </trkpt>
      <trkpt lat="40.30679" lon="-7.26163">
        <ele>493.168</ele>
        <time>2015-08-14T16:52:12Z</time>
      </trkpt>
      <trkpt lat="40.30684" lon="-7.25556">
        <ele>512.314</ele>
        <time>2015-08-14T16:52:38Z</time>
      </trkpt>
      <trkpt lat="40.30741" lon="-7.25179">
        <ele>525.708</ele>
        <time>2015-08-14T16:52:56Z</time>
      </trkpt>
      <trkpt lat="40.30724" lon="-7.24951">
        <ele>542.797</ele>
        <time>2015-08-14T16:53:07Z</time>
      </trkpt>
      <trkpt lat="40.30702" lon="-7.24676">
        <ele>554.086</ele>
        <time>2015-08-14T16:53:21Z</time>
      </trkpt>
      <trkpt lat="40.30644" lon="-7.24469">
        <ele>550.524</ele>
        <time>2015-08-14T16:53:32Z</time>
      </trkpt>
      <trkpt lat="40.30663" lon="-7.24142">
        <ele>545.083</ele>
        <time>2015-08-14T16:53:48Z</time>
      </trkpt>
      <trkpt lat="40.30699" lon="-7.24109">
        <ele>543.283</ele>
        <time>2015-08-14T16:53:52Z</time>
      </trkpt>
      <trkpt lat="40.3071" lon="-7.24074">
        <ele>542.636</ele>
        <time>2015-08-14T16:53:55Z</time>
      </trkpt>
      <trkpt lat="40.30672" lon="-7.24015">
        <ele>537.744</ele>
        <time>2015-08-14T16:54:00Z</time>
      </trkpt>
      <trkpt lat="40.30432" lon="-7.2391">
        <ele>549.288</ele>
        <time>2015-08-14T16:54:17Z</time>
      </trkpt>
      <trkpt lat="40.30388" lon="-7.23909">
        <ele>552.473</ele>
        <time>2015-08-14T16:54:21Z</time>
      </trkpt>
      <trkpt lat="40.30362" lon="-7.23852">
        <ele>555.685</ele>
        <time>2015-08-14T16:54:27Z</time>
      </trkpt>
      <trkpt lat="40.30333" lon="-7.23438">
        <ele>545.213</ele>
        <time>2015-08-14T16:54:54Z</time>
      </trkpt>
      <trkpt lat="40.30263" lon="-7.23164">
        <ele>542.108</ele>
        <time>2015-08-14T16:55:19Z</time>
      </trkpt>
      <trkpt lat="40.30174" lon="-7.23121">
        <ele>540.078</ele>
        <time>2015-08-14T16:56:04Z</time>
      </trkpt>
      <trkpt lat="40.30085" lon="-7.23185">
        <ele>533.417</ele>
        <time>2015-08-14T16:56:31Z</time>
      </trkpt>
      <trkpt lat="40.30075" lon="-7.23254">
        <ele>529.485</ele>
        <time>2015-08-14T16:57:02Z</time>
      </trkpt>
      <trkpt lat="40.30051" lon="-7.23322">
        <ele>526.994</ele>
        <time>2015-08-14T16:57:10Z</time>
      </trkpt>
      <trkpt lat="40.29998" lon="-7.23442">
        <ele>527.854</ele>
        <time>2015-08-14T16:57:20Z</time>
      </trkpt>
      <trkpt lat="40.29945" lon="-7.23563">
        <ele>525.337</ele>
        <time>2015-08-14T16:57:31Z</time>
      </trkpt>
      <trkpt lat="40.29834" lon="-7.23628">
        <ele>530.635</ele>
        <time>2015-08-14T16:57:59Z</time>
      </trkpt>
      <trkpt lat="40.29696" lon="-7.23731">
        <ele>538.089</ele>
        <time>2015-08-14T16:58:11Z</time>
      </trkpt>
      <trkpt lat="40.29673" lon="-7.23752">
        <ele>538.793</ele>
        <time>2015-08-14T16:58:14Z</time>
      </trkpt>
      <trkpt lat="40.2956" lon="-7.23693">
        <ele>536.765</ele>
        <time>2015-08-14T16:58:52Z</time>
      </trkpt>
      <trkpt lat="40.29502" lon="-7.23695">
        <ele>538.121</ele>
        <time>2015-08-14T16:58:58Z</time>
      </trkpt>
      <trkpt lat="40.29478" lon="-7.23632">
        <ele>531.508</ele>
        <time>2015-08-14T16:59:06Z</time>
      </trkpt>
      <trkpt lat="40.29288" lon="-7.23766">
        <ele>523.55</ele>
        <time>2015-08-14T16:59:29Z</time>
      </trkpt>
      <trkpt lat="40.29124" lon="-7.23789">
        <ele>514.989</ele>
        <time>2015-08-14T16:59:43Z</time>
      </trkpt>
      <trkpt lat="40.29088" lon="-7.23921">
        <ele>521.587</ele>
        <time>2015-08-14T16:59:56Z</time>
      </trkpt>
      <trkpt lat="40.28778" lon="-7.24038">
        <ele>516.316</ele>
        <time>2015-08-14T17:00:26Z</time>
      </trkpt>
      <trkpt lat="40.28691" lon="-7.24055">
        <ele>516.196</ele>
        <time>2015-08-14T17:00:33Z</time>
      </trkpt>
      <trkpt lat="40.2861" lon="-7.24163">
        <ele>518.679</ele>
        <time>2015-08-14T17:00:45Z</time>
      </trkpt>
      <trkpt lat="40.28535" lon="-7.2421">
        <ele>519.137</ele>
        <time>2015-08-14T17:00:53Z</time>
      </trkpt>
      <trkpt lat="40.28524" lon="-7.24217">
        <ele>518.281</ele>
        <time>2015-08-14T17:00:54Z</time>
      </trkpt>
      <trkpt lat="40.28445" lon="-7.24285">
        <ele>514.433</ele>
        <time>2015-08-14T17:01:02Z</time>
      </trkpt>
      <trkpt lat="40.28221" lon="-7.24243">
        <ele>516.123</ele>
        <time>2015-08-14T17:01:24Z</time>
      </trkpt>
      <trkpt lat="40.28178" lon="-7.24283">
        <ele>517.815</ele>
        <time>2015-08-14T17:01:29Z</time>
      </trkpt>
      <trkpt lat="40.28124" lon="-7.24312">
        <ele>515.208</ele>
        <time>2015-08-14T17:01:34Z</time>
      </trkpt>
      <trkpt lat="40.28029" lon="-7.24294">
        <ele>515.644</ele>
        <time>2015-08-14T17:01:42Z</time>
      </trkpt>
      <trkpt lat="40.28019" lon="-7.24269">
        <ele>511.293</ele>
        <time>2015-08-14T17:01:44Z</time>
      </trkpt>
      <trkpt lat="40.27963" lon="-7.24268">
        <ele>509.551</ele>
        <time>2015-08-14T17:01:50Z</time>
      </trkpt>
      <trkpt lat="40.27875" lon="-7.24301">
        <ele>501.05</ele>
        <time>2015-08-14T17:01:57Z</time>
      </trkpt>
      <trkpt lat="40.2776" lon="-7.24405">
        <ele>492.17</ele>
        <time>2015-08-14T17:02:08Z</time>
      </trkpt>
      <trkpt lat="40.27731" lon="-7.2452">
        <ele>492.373</ele>
        <time>2015-08-14T17:02:15Z</time>
      </trkpt>
      <trkpt lat="40.27723" lon="-7.24551">
        <ele>491.321</ele>
        <time>2015-08-14T17:02:17Z</time>
      </trkpt>
      <trkpt lat="40.27697" lon="-7.24597">
        <ele>491.935</ele>
        <time>2015-08-14T17:02:21Z</time>
      </trkpt>
      <trkpt lat="40.27679" lon="-7.24635">
        <ele>493.168</ele>
        <time>2015-08-14T17:02:24Z</time>
      </trkpt>
      <trkpt lat="40.2751" lon="-7.24725">
        <ele>488.842</ele>
        <time>2015-08-14T17:02:36Z</time>
      </trkpt>
      <trkpt lat="40.274" lon="-7.24774">
        <ele>486.526</ele>
        <time>2015-08-14T17:02:43Z</time>
      </trkpt>
      <trkpt lat="40.27292" lon="-7.24717">
        <ele>492.708</ele>
        <time>2015-08-14T17:02:52Z</time>
      </trkpt>
      <trkpt lat="40.27182" lon="-7.24719">
        <ele>494.717</ele>
        <time>2015-08-14T17:02:59Z</time>
      </trkpt>
      <trkpt lat="40.27077" lon="-7.24791">
        <ele>495.456</ele>
        <time>2015-08-14T17:03:07Z</time>
      </trkpt>
      <trkpt lat="40.27007" lon="-7.24895">
        <ele>496.074</ele>
        <time>2015-08-14T17:03:14Z</time>
      </trkpt>
      <trkpt lat="40.26942" lon="-7.24954">
        <ele>494.223</ele>
        <time>2015-08-14T17:03:20Z</time>
      </trkpt>
      <trkpt lat="40.26804" lon="-7.25073">
        <ele>490.763</ele>
        <time>2015-08-14T17:03:36Z</time>
      </trkpt>
      <trkpt lat="40.26704" lon="-7.25043">
        <ele>492.846</ele>
        <time>2015-08-14T17:03:47Z</time>
      </trkpt>
      <trkpt lat="40.26627" lon="-7.2511">
        <ele>500.954</ele>
        <time>2015-08-14T17:03:54Z</time>
      </trkpt>
      <trkpt lat="40.26597" lon="-7.25149">
        <ele>501.568</ele>
        <time>2015-08-14T17:03:57Z</time>
      </trkpt>
      <trkpt lat="40.26562" lon="-7.2522">
        <ele>503.824</ele>
        <time>2015-08-14T17:04:01Z</time>
      </trkpt>
      <trkpt lat="40.26536" lon="-7.2525">
        <ele>505.004</ele>
        <time>2015-08-14T17:04:03Z</time>
      </trkpt>
      <trkpt lat="40.26423" lon="-7.25368">
        <ele>511.014</ele>
        <time>2015-08-14T17:04:12Z</time>
      </trkpt>
      <trkpt lat="40.26204" lon="-7.25564">
        <ele>487.408</ele>
        <time>2015-08-14T17:04:29Z</time>
      </trkpt>
      <trkpt lat="40.26114" lon="-7.25484">
        <ele>484.663</ele>
        <time>2015-08-14T17:04:59Z</time>
      </trkpt>
      <trkpt lat="40.26065" lon="-7.25474">
        <ele>482.472</ele>
        <time>2015-08-14T17:05:03Z</time>
      </trkpt>
      <trkpt lat="40.25942" lon="-7.25437">
        <ele>483.12</ele>
        <time>2015-08-14T17:05:13Z</time>
      </trkpt>
      <trkpt lat="40.25839" lon="-7.25408">
        <ele>482.019</ele>
        <time>2015-08-14T17:05:24Z</time>
      </trkpt>
      <trkpt lat="40.25515" lon="-7.25481">
        <ele>466.849</ele>
        <time>2015-08-14T17:06:26Z</time>
      </trkpt>
      <trkpt lat="40.25248" lon="-7.25461">
        <ele>475.912</ele>
        <time>2015-08-14T17:07:24Z</time>
      </trkpt>
      <trkpt lat="40.25185" lon="-7.25468">
        <ele>476.71</ele>
        <time>2015-08-14T17:07:30Z</time>
      </trkpt>
      <trkpt lat="40.25041" lon="-7.25499">
        <ele>472.564</ele>
        <time>2015-08-14T17:07:44Z</time>
      </trkpt>
      <trkpt lat="40.24792" lon="-7.25475">
        <ele>466.693</ele>
        <time>2015-08-14T17:08:05Z</time>
      </trkpt>
      <trkpt lat="40.24702" lon="-7.25363">
        <ele>467.965</ele>
        <time>2015-08-14T17:08:16Z</time>
      </trkpt>
      <trkpt lat="40.24683" lon="-7.2535">
        <ele>468.221</ele>
        <time>2015-08-14T17:08:18Z</time>
      </trkpt>
      <trkpt lat="40.24451" lon="-7.25352">
        <ele>463.308</ele>
        <time>2015-08-14T17:08:35Z</time>
      </trkpt>
      <trkpt lat="40.23985" lon="-7.24954">
        <ele>466.47</ele>
        <time>2015-08-14T17:09:13Z</time>
      </trkpt>
      <trkpt lat="40.2393" lon="-7.24853">
        <ele>470.169</ele>
        <time>2015-08-14T17:09:30Z</time>
      </trkpt>
      <trkpt lat="40.23781" lon="-7.24804">
        <ele>475.197</ele>
        <time>2015-08-14T17:10:18Z</time>
      </trkpt>
      <trkpt lat="40.23631" lon="-7.24775">
        <ele>465.666</ele>
        <time>2015-08-14T17:10:28Z</time>
      </trkpt>
      <trkpt lat="40.23591" lon="-7.24793">
        <ele>466.136</ele>
        <time>2015-08-14T17:10:31Z</time>
      </trkpt>
      <trkpt lat="40.23531" lon="-7.24876">
        <ele>466.819</ele>
        <time>2015-08-14T17:10:37Z</time>
      </trkpt>
      <trkpt lat="40.23355" lon="-7.25277">
        <ele>460.657</ele>
        <time>2015-08-14T17:11:33Z</time>
      </trkpt>
      <trkpt lat="40.23147" lon="-7.25204">
        <ele>457.351</ele>
        <time>2015-08-14T17:12:00Z</time>
      </trkpt>
      <trkpt lat="40.23171" lon="-7.25346">
        <ele>456.867</ele>
        <time>2015-08-14T17:28:56Z</time>
      </trkpt>
      <trkpt lat="40.23135" lon="-7.25465">
        <ele>457.481</ele>
        <time>2015-08-14T17:29:40Z</time>
      </trkpt>
      <trkpt lat="40.23106" lon="-7.25479">
        <ele>458.019</ele>
        <time>2015-08-14T17:29:46Z</time>
      </trkpt>
      <trkpt lat="40.22903" lon="-7.25477">
        <ele>458.808</ele>
        <time>2015-08-14T17:30:14Z</time>
      </trkpt>
      <trkpt lat="40.22843" lon="-7.25431">
        <ele>459.077</ele>
        <time>2015-08-14T17:30:27Z</time>
      </trkpt>
      <trkpt lat="40.22806" lon="-7.25302">
        <ele>464.016</ele>
        <time>2015-08-14T17:30:55Z</time>
      </trkpt>
      <trkpt lat="40.22694" lon="-7.25307">
        <ele>467.074</ele>
        <time>2015-08-14T17:31:15Z</time>
      </trkpt>
      <trkpt lat="40.22689" lon="-7.25371">
        <ele>467.233</ele>
        <time>2015-08-14T17:31:47Z</time>
      </trkpt>
      <trkpt lat="40.22665" lon="-7.25374">
        <ele>468.113</ele>
        <time>2015-08-14T17:31:52Z</time>
      </trkpt>
      <trkpt lat="40.22482" lon="-7.25369">
        <ele>472.656</ele>
        <time>2015-08-14T17:32:11Z</time>
      </trkpt>
      <trkpt lat="40.22205" lon="-7.25312">
        <ele>475.774</ele>
        <time>2015-08-14T17:32:40Z</time>
      </trkpt>
      <trkpt lat="40.22212" lon="-7.25555">
        <ele>473.078</ele>
        <time>2015-08-14T17:33:02Z</time>
      </trkpt>
      <trkpt lat="40.22145" lon="-7.26002">
        <ele>470.854</ele>
        <time>2015-08-14T17:33:28Z</time>
      </trkpt>
      <trkpt lat="40.22106" lon="-7.26181">
        <ele>469.556</ele>
        <time>2015-08-14T17:33:38Z</time>
      </trkpt>
      <trkpt lat="40.21892" lon="-7.26369">
        <ele>476.911</ele>
        <time>2015-08-14T17:33:56Z</time>
      </trkpt>
      <trkpt lat="40.21838" lon="-7.26458">
        <ele>480.208</ele>
        <time>2015-08-14T17:34:02Z</time>
      </trkpt>
      <trkpt lat="40.21708" lon="-7.26674">
        <ele>480.766</ele>
        <time>2015-08-14T17:34:17Z</time>
      </trkpt>
      <trkpt lat="40.21622" lon="-7.2681">
        <ele>485.915</ele>
        <time>2015-08-14T17:34:29Z</time>
      </trkpt>
      <trkpt lat="40.21425" lon="-7.27242">
        <ele>525.893</ele>
        <time>2015-08-14T17:35:07Z</time>
      </trkpt>
      <trkpt lat="40.21427" lon="-7.27241">
        <ele>526.032</ele>
        <time>2015-08-14T17:35:15Z</time>
      </trkpt>
      <trkpt lat="40.21339" lon="-7.27165">
        <ele>540.232</ele>
        <time>2015-08-14T17:35:35Z</time>
      </trkpt>
      <trkpt lat="40.21254" lon="-7.27167">
        <ele>543.015</ele>
        <time>2015-08-14T17:35:45Z</time>
      </trkpt>
      <trkpt lat="40.21165" lon="-7.27117">
        <ele>554.423</ele>
        <time>2015-08-14T17:35:53Z</time>
      </trkpt>
      <trkpt lat="40.21085" lon="-7.27131">
        <ele>565.827</ele>
        <time>2015-08-14T17:36:00Z</time>
      </trkpt>
      <trkpt lat="40.21059" lon="-7.27133">
        <ele>569.093</ele>
        <time>2015-08-14T17:36:02Z</time>
      </trkpt>
      <trkpt lat="40.20937" lon="-7.27085">
        <ele>590.465</ele>
        <time>2015-08-14T17:36:13Z</time>
      </trkpt>
      <trkpt lat="40.2092" lon="-7.26812">
        <ele>608.021</ele>
        <time>2015-08-14T17:36:31Z</time>
      </trkpt>
      <trkpt lat="40.20907" lon="-7.26651">
        <ele>627.208</ele>
        <time>2015-08-14T17:36:40Z</time>
      </trkpt>
      <trkpt lat="40.20859" lon="-7.26508">
        <ele>655.41</ele>
        <time>2015-08-14T17:36:54Z</time>
      </trkpt>
      <trkpt lat="40.20819" lon="-7.26429">
        <ele>663.869</ele>
        <time>2015-08-14T17:37:04Z</time>
      </trkpt>
      <trkpt lat="40.20786" lon="-7.26428">
        <ele>662.857</ele>
        <time>2015-08-14T17:37:11Z</time>
      </trkpt>
      <trkpt lat="40.20654" lon="-7.26554">
        <ele>649.746</ele>
        <time>2015-08-14T17:37:30Z</time>
      </trkpt>
      <trkpt lat="40.20571" lon="-7.26775">
        <ele>623.046</ele>
        <time>2015-08-14T17:37:53Z</time>
      </trkpt>
      <trkpt lat="40.20441" lon="-7.27002">
        <ele>602.519</ele>
        <time>2015-08-14T17:38:21Z</time>
      </trkpt>
      <trkpt lat="40.20369" lon="-7.2709">
        <ele>594.337</ele>
        <time>2015-08-14T17:38:44Z</time>
      </trkpt>
      <trkpt lat="40.20267" lon="-7.2719">
        <ele>575.071</ele>
        <time>2015-08-14T17:39:04Z</time>
      </trkpt>
      <trkpt lat="40.20224" lon="-7.27224">
        <ele>568.162</ele>
        <time>2015-08-14T17:39:11Z</time>
      </trkpt>
      <trkpt lat="40.2" lon="-7.27249">
        <ele>556.083</ele>
        <time>2015-08-14T17:39:38Z</time>
      </trkpt>
      <trkpt lat="40.19926" lon="-7.27317">
        <ele>549.411</ele>
        <time>2015-08-14T17:39:48Z</time>
      </trkpt>
      <trkpt lat="40.19585" lon="-7.27559">
        <ele>519.808</ele>
        <time>2015-08-14T17:40:31Z</time>
      </trkpt>
      <trkpt lat="40.19392" lon="-7.27623">
        <ele>511.687</ele>
        <time>2015-08-14T17:40:50Z</time>
      </trkpt>
      <trkpt lat="40.19225" lon="-7.27833">
        <ele>496.916</ele>
        <time>2015-08-14T17:41:15Z</time>
      </trkpt>
      <trkpt lat="40.19075" lon="-7.27994">
        <ele>493.824</ele>
        <time>2015-08-14T17:41:33Z</time>
      </trkpt>
      <trkpt lat="40.19063" lon="-7.28018">
        <ele>494.323</ele>
        <time>2015-08-14T17:41:36Z</time>
      </trkpt>
      <trkpt lat="40.18728" lon="-7.27866">
        <ele>456.423</ele>
        <time>2015-08-14T17:44:17Z</time>
      </trkpt>
      <trkpt lat="40.18623" lon="-7.27895">
        <ele>453.856</ele>
        <time>2015-08-14T17:44:35Z</time>
      </trkpt>
      <trkpt lat="40.18506" lon="-7.27935">
        <ele>459.714</ele>
        <time>2015-08-14T17:44:49Z</time>
      </trkpt>
      <trkpt lat="40.18431" lon="-7.27893">
        <ele>452.158</ele>
        <time>2015-08-14T17:44:58Z</time>
      </trkpt>
      <trkpt lat="40.18232" lon="-7.27702">
        <ele>444.369</ele>
        <time>2015-08-14T17:45:27Z</time>
      </trkpt>
      <trkpt lat="40.17907" lon="-7.27811">
        <ele>435.304</ele>
        <time>2015-08-14T17:46:06Z</time>
      </trkpt>
      <trkpt lat="40.17801" lon="-7.27904">
        <ele>436.324</ele>
        <time>2015-08-14T17:46:20Z</time>
      </trkpt>
      <trkpt lat="40.17606" lon="-7.28071">
        <ele>423.208</ele>
        <time>2015-08-14T17:46:46Z</time>
      </trkpt>
      <trkpt lat="40.1758" lon="-7.2813">
        <ele>421.887</ele>
        <time>2015-08-14T17:46:55Z</time>
      </trkpt>
      <trkpt lat="40.17584" lon="-7.28185">
        <ele>422.036</ele>
        <time>2015-08-14T17:47:02Z</time>
      </trkpt>
      <trkpt lat="40.17571" lon="-7.28239">
        <ele>424.124</ele>
        <time>2015-08-14T17:47:10Z</time>
      </trkpt>
      <trkpt lat="40.17506" lon="-7.28319">
        <ele>430.993</ele>
        <time>2015-08-14T17:47:22Z</time>
      </trkpt>
      <trkpt lat="40.17336" lon="-7.28373">
        <ele>422.423</ele>
        <time>2015-08-14T17:47:47Z</time>
      </trkpt>
      <trkpt lat="40.17304" lon="-7.28493">
        <ele>421.746</ele>
        <time>2015-08-14T17:51:28Z</time>
      </trkpt>
      <trkpt lat="40.17365" lon="-7.28109">
        <ele>418.194</ele>
        <time>2015-08-14T18:02:46Z</time>
      </trkpt>
      <trkpt lat="40.1734" lon="-7.27969">
        <ele>414.238</ele>
        <time>2015-08-14T18:02:53Z</time>
      </trkpt>
      <trkpt lat="40.17196" lon="-7.27605">
        <ele>435.147</ele>
        <time>2015-08-14T18:03:09Z</time>
      </trkpt>
      <trkpt lat="40.17161" lon="-7.27535">
        <ele>434.229</ele>
        <time>2015-08-14T18:03:12Z</time>
      </trkpt>
      <trkpt lat="40.17069" lon="-7.27338">
        <ele>427.221</ele>
        <time>2015-08-14T18:03:20Z</time>
      </trkpt>
      <trkpt lat="40.17038" lon="-7.27084">
        <ele>426.108</ele>
        <time>2015-08-14T18:03:29Z</time>
      </trkpt>
      <trkpt lat="40.1709" lon="-7.26538">
        <ele>420.285</ele>
        <time>2015-08-14T18:03:47Z</time>
      </trkpt>
      <trkpt lat="40.17115" lon="-7.26237">
        <ele>428.924</ele>
        <time>2015-08-14T18:03:58Z</time>
      </trkpt>
      <trkpt lat="40.16709" lon="-7.25692">
        <ele>434.672</ele>
        <time>2015-08-14T18:04:28Z</time>
      </trkpt>
      <trkpt lat="40.16712" lon="-7.25272">
        <ele>429.051</ele>
        <time>2015-08-14T18:04:43Z</time>
      </trkpt>
      <trkpt lat="40.16719" lon="-7.24887">
        <ele>418.961</ele>
        <time>2015-08-14T18:04:56Z</time>
      </trkpt>
      <trkpt lat="40.16533" lon="-7.24561">
        <ele>419.284</ele>
        <time>2015-08-14T18:05:10Z</time>
      </trkpt>
      <trkpt lat="40.16484" lon="-7.24426">
        <ele>417.512</ele>
        <time>2015-08-14T18:05:15Z</time>
      </trkpt>
      <trkpt lat="40.16329" lon="-7.23588">
        <ele>418.816</ele>
        <time>2015-08-14T18:05:41Z</time>
      </trkpt>
      <trkpt lat="40.16078" lon="-7.21897">
        <ele>423.523</ele>
        <time>2015-08-14T18:06:32Z</time>
      </trkpt>
      <trkpt lat="40.16197" lon="-7.21096">
        <ele>439.283</ele>
        <time>2015-08-14T18:07:03Z</time>
      </trkpt>
      <trkpt lat="40.16188" lon="-7.20877">
        <ele>442.311</ele>
        <time>2015-08-14T18:07:12Z</time>
      </trkpt>
      <trkpt lat="40.16054" lon="-7.20468">
        <ele>431.908</ele>
        <time>2015-08-14T18:07:29Z</time>
      </trkpt>
      <trkpt lat="40.16036" lon="-7.20373">
        <ele>426.993</ele>
        <time>2015-08-14T18:07:34Z</time>
      </trkpt>
      <trkpt lat="40.16124" lon="-7.1982">
        <ele>427.882</ele>
        <time>2015-08-14T18:07:56Z</time>
      </trkpt>
      <trkpt lat="40.16188" lon="-7.19583">
        <ele>431.64</ele>
        <time>2015-08-14T18:08:06Z</time>
      </trkpt>
      <trkpt lat="40.16293" lon="-7.1927">
        <ele>447.889</ele>
        <time>2015-08-14T18:08:20Z</time>
      </trkpt>
      <trkpt lat="40.16296" lon="-7.19093">
        <ele>455.059</ele>
        <time>2015-08-14T18:08:28Z</time>
      </trkpt>
      <trkpt lat="40.16229" lon="-7.18841">
        <ele>464.052</ele>
        <time>2015-08-14T18:08:41Z</time>
      </trkpt>
      <trkpt lat="40.16192" lon="-7.18683">
        <ele>465.33</ele>
        <time>2015-08-14T18:59:44Z</time>
      </trkpt>
      <trkpt lat="40.16215" lon="-7.18487">
        <ele>468.474</ele>
        <time>2015-08-14T18:59:56Z</time>
      </trkpt>
      <trkpt lat="40.16327" lon="-7.18089">
        <ele>471.747</ele>
        <time>2015-08-14T19:00:12Z</time>
      </trkpt>
      <trkpt lat="40.16421" lon="-7.17713">
        <ele>479.229</ele>
        <time>2015-08-14T19:00:25Z</time>
      </trkpt>
      <trkpt lat="40.16468" lon="-7.16982">
        <ele>487.821</ele>
        <time>2015-08-14T19:00:50Z</time>
      </trkpt>
      <trkpt lat="40.16513" lon="-7.16334">
        <ele>492.808</ele>
        <time>2015-08-14T19:01:11Z</time>
      </trkpt>
      <trkpt lat="40.16601" lon="-7.16181">
        <ele>492.385</ele>
        <time>2015-08-14T19:01:18Z</time>
      </trkpt>
      <trkpt lat="40.16833" lon="-7.16077">
        <ele>485.814</ele>
        <time>2015-08-14T19:01:32Z</time>
      </trkpt>
      <trkpt lat="40.1683" lon="-7.1603">
        <ele>483.282</ele>
        <time>2015-08-14T19:01:39Z</time>
      </trkpt>
      <trkpt lat="40.16746" lon="-7.15945">
        <ele>479.251</ele>
        <time>2015-08-14T19:01:53Z</time>
      </trkpt>
      <trkpt lat="40.16673" lon="-7.15826">
        <ele>475.781</ele>
        <time>2015-08-14T19:02:00Z</time>
      </trkpt>
      <trkpt lat="40.16596" lon="-7.1568">
        <ele>472.084</ele>
        <time>2015-08-14T19:02:07Z</time>
      </trkpt>
      <trkpt lat="40.1658" lon="-7.15635">
        <ele>473.472</ele>
        <time>2015-08-14T19:02:09Z</time>
      </trkpt>
      <trkpt lat="40.16623" lon="-7.15177">
        <ele>485.166</ele>
        <time>2015-08-14T19:02:27Z</time>
      </trkpt>
      <trkpt lat="40.16598" lon="-7.14918">
        <ele>480.749</ele>
        <time>2015-08-14T19:02:37Z</time>
      </trkpt>
      <trkpt lat="40.16395" lon="-7.14232">
        <ele>461.302</ele>
        <time>2015-08-14T19:03:02Z</time>
      </trkpt>
      <trkpt lat="40.163" lon="-7.13945">
        <ele>468.222</ele>
        <time>2015-08-14T19:03:12Z</time>
      </trkpt>
      <trkpt lat="40.16294" lon="-7.13845">
        <ele>473.908</ele>
        <time>2015-08-14T19:03:16Z</time>
      </trkpt>
      <trkpt lat="40.16287" lon="-7.13698">
        <ele>477.615</ele>
        <time>2015-08-14T19:03:24Z</time>
      </trkpt>
      <trkpt lat="40.16279" lon="-7.13635">
        <ele>479.264</ele>
        <time>2015-08-14T19:03:35Z</time>
      </trkpt>
      <trkpt lat="40.16082" lon="-7.13777">
        <ele>475.052</ele>
        <time>2015-08-14T19:04:03Z</time>
      </trkpt>
      <trkpt lat="40.15959" lon="-7.13786">
        <ele>472.961</ele>
        <time>2015-08-14T19:04:22Z</time>
      </trkpt>
      <trkpt lat="40.15876" lon="-7.13654">
        <ele>467.311</ele>
        <time>2015-08-14T19:05:05Z</time>
      </trkpt>
      <trkpt lat="40.15878" lon="-7.13531">
        <ele>464.324</ele>
        <time>2015-08-14T19:05:19Z</time>
      </trkpt>
      <trkpt lat="40.15749" lon="-7.13396">
        <ele>466.022</ele>
        <time>2015-08-14T19:05:38Z</time>
      </trkpt>
      <trkpt lat="40.15688" lon="-7.1323">
        <ele>458.836</ele>
        <time>2015-08-14T19:05:56Z</time>
      </trkpt>
      <trkpt lat="40.15615" lon="-7.13161">
        <ele>457.193</ele>
        <time>2015-08-14T19:06:07Z</time>
      </trkpt>
      <trkpt lat="40.15545" lon="-7.13024">
        <ele>454.365</ele>
        <time>2015-08-14T19:06:22Z</time>
      </trkpt>
      <trkpt lat="40.15446" lon="-7.12881">
        <ele>460.021</ele>
        <time>2015-08-14T19:06:44Z</time>
      </trkpt>
      <trkpt lat="40.15374" lon="-7.12827">
        <ele>466.908</ele>
        <time>2015-08-14T19:07:05Z</time>
      </trkpt>
      <trkpt lat="40.15295" lon="-7.12744">
        <ele>480.82</ele>
        <time>2015-08-14T19:07:42Z</time>
      </trkpt>
      <trkpt lat="40.15219" lon="-7.1272">
        <ele>484.279</ele>
        <time>2015-08-14T19:07:54Z</time>
      </trkpt>
      <trkpt lat="40.15128" lon="-7.12665">
        <ele>490.947</ele>
        <time>2015-08-14T19:08:05Z</time>
      </trkpt>
      <trkpt lat="40.15011" lon="-7.12692">
        <ele>496.746</ele>
        <time>2015-08-14T19:08:25Z</time>
      </trkpt>
      <trkpt lat="40.1502" lon="-7.12662">
        <ele>496.726</ele>
        <time>2015-08-14T19:09:34Z</time>
      </trkpt>
      <trkpt lat="40.15092" lon="-7.12529">
        <ele>482.739</ele>
        <time>2015-08-14T19:09:57Z</time>
      </trkpt>
      <trkpt lat="40.15096" lon="-7.12277">
        <ele>474.957</ele>
        <time>2015-08-14T19:10:35Z</time>
      </trkpt>
      <trkpt lat="40.14978" lon="-7.12172">
        <ele>471.671</ele>
        <time>2015-08-14T19:11:00Z</time>
      </trkpt>
      <trkpt lat="40.14939" lon="-7.1212">
        <ele>467.428</ele>
        <time>2015-08-14T19:11:19Z</time>
      </trkpt>
      <trkpt lat="40.14728" lon="-7.11966">
        <ele>451.089</ele>
        <time>2015-08-14T19:11:54Z</time>
      </trkpt>
      <trkpt lat="40.14504" lon="-7.11884">
        <ele>443.117</ele>
        <time>2015-08-14T19:12:25Z</time>
      </trkpt>
      <trkpt lat="40.14329" lon="-7.11468">
        <ele>437.008</ele>
        <time>2015-08-14T19:13:11Z</time>
      </trkpt>
      <trkpt lat="40.14202" lon="-7.1132">
        <ele>431.033</ele>
        <time>2015-08-14T19:13:30Z</time>
      </trkpt>
      <trkpt lat="40.14191" lon="-7.11017">
        <ele>435.892</ele>
        <time>2015-08-14T19:15:06Z</time>
      </trkpt>
      <trkpt lat="40.14281" lon="-7.10643">
        <ele>420.14</ele>
        <time>2015-08-14T19:15:52Z</time>
      </trkpt>
      <trkpt lat="40.14371" lon="-7.10479">
        <ele>414.529</ele>
        <time>2015-08-14T19:16:14Z</time>
      </trkpt>
      <trkpt lat="40.14387" lon="-7.10383">
        <ele>407.449</ele>
        <time>2015-08-14T19:16:28Z</time>
      </trkpt>
      <trkpt lat="40.14349" lon="-7.10106">
        <ele>406.042</ele>
        <time>2015-08-14T19:16:57Z</time>
      </trkpt>
      <trkpt lat="40.14252" lon="-7.09915">
        <ele>405.56</ele>
        <time>2015-08-14T19:17:23Z</time>
      </trkpt>
      <trkpt lat="40.14213" lon="-7.09765">
        <ele>412.464</ele>
        <time>2015-08-14T19:17:45Z</time>
      </trkpt>
      <trkpt lat="40.14155" lon="-7.09687">
        <ele>402.555</ele>
        <time>2015-08-14T19:17:59Z</time>
      </trkpt>
      <trkpt lat="40.14129" lon="-7.09599">
        <ele>400.007</ele>
        <time>2015-08-14T19:18:11Z</time>
      </trkpt>
      <trkpt lat="40.14126" lon="-7.09587">
        <ele>399.617</ele>
        <time>2015-08-14T19:18:13Z</time>
      </trkpt>
      <trkpt lat="40.14111" lon="-7.0955">
        <ele>397.208</ele>
        <time>2015-08-14T19:18:21Z</time>
      </trkpt>
      <trkpt lat="40.14159" lon="-7.09458">
        <ele>395.396</ele>
        <time>2015-08-14T19:18:40Z</time>
      </trkpt>
      <trkpt lat="40.14147" lon="-7.09269">
        <ele>392.555</ele>
        <time>2015-08-14T19:19:03Z</time>
      </trkpt>
      <trkpt lat="40.13907" lon="-7.09167">
        <ele>386.343</ele>
        <time>2015-08-14T19:20:00Z</time>
      </trkpt>
      <trkpt lat="40.13832" lon="-7.09336">
        <ele>391.182</ele>
        <time>2015-08-14T19:20:23Z</time>
      </trkpt>
      <trkpt lat="40.13739" lon="-7.09459">
        <ele>396.812</ele>
        <time>2015-08-14T19:20:38Z</time>
      </trkpt>
      <trkpt lat="40.13579" lon="-7.09531">
        <ele>405.645</ele>
        <time>2015-08-14T19:21:03Z</time>
      </trkpt>
      <trkpt lat="40.13403" lon="-7.09558">
        <ele>414.723</ele>
        <time>2015-08-14T19:21:28Z</time>
      </trkpt>
      <trkpt lat="40.13306" lon="-7.09603">
        <ele>409.737</ele>
        <time>2015-08-14T19:21:40Z</time>
      </trkpt>
      <trkpt lat="40.13187" lon="-7.09572">
        <ele>404.689</ele>
        <time>2015-08-14T19:21:56Z</time>
      </trkpt>
      <trkpt lat="40.13099" lon="-7.09583">
        <ele>407.406</ele>
        <time>2015-08-14T19:22:10Z</time>
      </trkpt>
      <trkpt lat="40.12951" lon="-7.09679">
        <ele>411.926</ele>
        <time>2015-08-14T19:22:37Z</time>
      </trkpt>
      <trkpt lat="40.12943" lon="-7.09683">
        <ele>412.108</ele>
        <time>2015-08-14T19:22:39Z</time>
      </trkpt>
      <trkpt lat="40.12565" lon="-7.09725">
        <ele>420.939</ele>
        <time>2015-08-14T19:23:57Z</time>
      </trkpt>
      <trkpt lat="40.12421" lon="-7.09692">
        <ele>426.618</ele>
        <time>2015-08-14T19:24:37Z</time>
      </trkpt>
      <trkpt lat="40.12448" lon="-7.09581">
        <ele>435.476</ele>
        <time>2015-08-14T19:26:30Z</time>
      </trkpt>
      <trkpt lat="40.12512" lon="-7.09472">
        <ele>443.565</ele>
        <time>2015-08-14T19:26:38Z</time>
      </trkpt>
      <trkpt lat="40.12553" lon="-7.09233">
        <ele>438.365</ele>
        <time>2015-08-14T19:26:52Z</time>
      </trkpt>
      <trkpt lat="40.12616" lon="-7.08834">
        <ele>422.958</ele>
        <time>2015-08-14T19:27:21Z</time>
      </trkpt>
      <trkpt lat="40.1227" lon="-7.08881">
        <ele>393.076</ele>
        <time>2015-08-14T19:28:01Z</time>
      </trkpt>
      <trkpt lat="40.1223" lon="-7.08957">
        <ele>395.01</ele>
        <time>2015-08-14T19:28:11Z</time>
      </trkpt>
      <trkpt lat="40.12172" lon="-7.08984">
        <ele>394.534</ele>
        <time>2015-08-14T19:28:23Z</time>
      </trkpt>
      <trkpt lat="40.12069" lon="-7.08817">
        <ele>413.955</ele>
        <time>2015-08-14T19:29:15Z</time>
      </trkpt>
      <trkpt lat="40.1198" lon="-7.08803">
        <ele>424.81</ele>
        <time>2015-08-14T19:29:29Z</time>
      </trkpt>
      <trkpt lat="40.11935" lon="-7.08806">
        <ele>429.308</ele>
        <time>2015-08-14T19:29:35Z</time>
      </trkpt>
      <trkpt lat="40.11695" lon="-7.08787">
        <ele>428.994</ele>
        <time>2015-08-14T19:29:57Z</time>
      </trkpt>
      <trkpt lat="40.11509" lon="-7.08984">
        <ele>446.763</ele>
        <time>2015-08-14T19:30:20Z</time>
      </trkpt>
      <trkpt lat="40.11405" lon="-7.08974">
        <ele>453.291</ele>
        <time>2015-08-14T19:30:31Z</time>
      </trkpt>
      <trkpt lat="40.11286" lon="-7.08954">
        <ele>456.11</ele>
        <time>2015-08-14T19:30:43Z</time>
      </trkpt>
      <trkpt lat="40.11248" lon="-7.08918">
        <ele>461.17</ele>
        <time>2015-08-14T19:30:51Z</time>
      </trkpt>
      <trkpt lat="40.11241" lon="-7.0889">
        <ele>460.493</ele>
        <time>2015-08-14T19:30:56Z</time>
      </trkpt>
      <trkpt lat="40.11049" lon="-7.08926">
        <ele>462.571</ele>
        <time>2015-08-14T19:31:19Z</time>
      </trkpt>
      <trkpt lat="40.10738" lon="-7.08901">
        <ele>452.195</ele>
        <time>2015-08-14T19:31:56Z</time>
      </trkpt>
      <trkpt lat="40.10625" lon="-7.08789">
        <ele>455.512</ele>
        <time>2015-08-14T19:32:40Z</time>
      </trkpt>
      <trkpt lat="40.10596" lon="-7.08629">
        <ele>458.132</ele>
        <time>2015-08-14T19:32:57Z</time>
      </trkpt>
      <trkpt lat="40.10541" lon="-7.08417">
        <ele>455.005</ele>
        <time>2015-08-14T19:33:20Z</time>
      </trkpt>
      <trkpt lat="40.10312" lon="-7.08333">
        <ele>467.308</ele>
        <time>2015-08-14T19:37:05Z</time>
      </trkpt>
      <trkpt lat="40.102" lon="-7.07937">
        <ele>472.812</ele>
        <time>2015-08-14T19:39:31Z</time>
      </trkpt>
      <trkpt lat="40.10117" lon="-7.07864">
        <ele>469.741</ele>
        <time>2015-08-14T19:39:45Z</time>
      </trkpt>
      <trkpt lat="40.10121" lon="-7.07689">
        <ele>467.869</ele>
        <time>2015-08-14T19:40:00Z</time>
      </trkpt>
      <trkpt lat="40.10121" lon="-7.07531">
        <ele>465.868</ele>
        <time>2015-08-14T19:40:13Z</time>
      </trkpt>
      <trkpt lat="40.10149" lon="-7.07495">
        <ele>465.348</ele>
        <time>2015-08-14T19:40:18Z</time>
      </trkpt>
      <trkpt lat="40.10218" lon="-7.07428">
        <ele>456.481</ele>
        <time>2015-08-14T19:40:28Z</time>
      </trkpt>
      <trkpt lat="40.10255" lon="-7.07336">
        <ele>450.289</ele>
        <time>2015-08-14T19:40:39Z</time>
      </trkpt>
      <trkpt lat="40.10249" lon="-7.07234">
        <ele>448.623</ele>
        <time>2015-08-14T19:40:49Z</time>
      </trkpt>
      <trkpt lat="40.10312" lon="-7.07082">
        <ele>439.755</ele>
        <time>2015-08-14T19:41:02Z</time>
      </trkpt>
      <trkpt lat="40.10343" lon="-7.0687">
        <ele>434.707</ele>
        <time>2015-08-14T19:41:19Z</time>
      </trkpt>
      <trkpt lat="40.10307" lon="-7.0677">
        <ele>438.417</ele>
        <time>2015-08-14T19:41:29Z</time>
      </trkpt>
      <trkpt lat="40.10206" lon="-7.06691">
        <ele>444.508</ele>
        <time>2015-08-14T19:41:43Z</time>
      </trkpt>
      <trkpt lat="40.10153" lon="-7.06501">
        <ele>452.076</ele>
        <time>2015-08-14T19:42:01Z</time>
      </trkpt>
      <trkpt lat="40.10168" lon="-7.06454">
        <ele>454.065</ele>
        <time>2015-08-14T19:42:06Z</time>
      </trkpt>
      <trkpt lat="40.10174" lon="-7.06445">
        <ele>454.353</ele>
        <time>2015-08-14T19:42:08Z</time>
      </trkpt>
      <trkpt lat="40.10207" lon="-7.06318">
        <ele>450.432</ele>
        <time>2015-08-14T19:42:42Z</time>
      </trkpt>
      <trkpt lat="40.10215" lon="-7.06064">
        <ele>440.632</ele>
        <time>2015-08-14T19:43:02Z</time>
      </trkpt>
      <trkpt lat="40.10216" lon="-7.05894">
        <ele>435.045</ele>
        <time>2015-08-14T19:43:18Z</time>
      </trkpt>
      <trkpt lat="40.10258" lon="-7.05788">
        <ele>428.673</ele>
        <time>2015-08-14T19:43:29Z</time>
      </trkpt>
      <trkpt lat="40.10243" lon="-7.05692">
        <ele>425.677</ele>
        <time>2015-08-14T19:43:38Z</time>
      </trkpt>
      <trkpt lat="40.1034" lon="-7.05573">
        <ele>422.194</ele>
        <time>2015-08-14T19:43:53Z</time>
      </trkpt>
      <trkpt lat="40.1037" lon="-7.05473">
        <ele>420.757</ele>
        <time>2015-08-14T19:44:04Z</time>
      </trkpt>
      <trkpt lat="40.10356" lon="-7.05265">
        <ele>429.522</ele>
        <time>2015-08-14T19:44:20Z</time>
      </trkpt>
      <trkpt lat="40.10304" lon="-7.05123">
        <ele>431.908</ele>
        <time>2015-08-14T19:44:34Z</time>
      </trkpt>
      <trkpt lat="40.10234" lon="-7.05066">
        <ele>428.93</ele>
        <time>2015-08-14T19:44:43Z</time>
      </trkpt>
      <trkpt lat="40.10196" lon="-7.05029">
        <ele>429.099</ele>
        <time>2015-08-14T19:44:52Z</time>
      </trkpt>
      <trkpt lat="40.10164" lon="-7.0488">
        <ele>432.737</ele>
        <time>2015-08-14T19:45:12Z</time>
      </trkpt>
      <trkpt lat="40.10035" lon="-7.04674">
        <ele>427.266</ele>
        <time>2015-08-14T19:45:38Z</time>
      </trkpt>
      <trkpt lat="40.10024" lon="-7.04571">
        <ele>426.426</ele>
        <time>2015-08-14T19:45:48Z</time>
      </trkpt>
      <trkpt lat="40.09798" lon="-7.04303">
        <ele>437.449</ele>
        <time>2015-08-14T19:46:26Z</time>
      </trkpt>
      <trkpt lat="40.09723" lon="-7.04124">
        <ele>431.067</ele>
        <time>2015-08-14T19:46:42Z</time>
      </trkpt>
      <trkpt lat="40.09714" lon="-7.04019">
        <ele>427.131</ele>
        <time>2015-08-14T19:46:51Z</time>
      </trkpt>
      <trkpt lat="40.09673" lon="-7.03939">
        <ele>420.721</ele>
        <time>2015-08-14T19:47:00Z</time>
      </trkpt>
      <trkpt lat="40.09683" lon="-7.0386">
        <ele>415.841</ele>
        <time>2015-08-14T19:47:07Z</time>
      </trkpt>
      <trkpt lat="40.09679" lon="-7.03735">
        <ele>414.105</ele>
        <time>2015-08-14T19:47:22Z</time>
      </trkpt>
      <trkpt lat="40.09524" lon="-7.03397">
        <ele>428.708</ele>
        <time>2015-08-14T19:47:56Z</time>
      </trkpt>
      <trkpt lat="40.09552" lon="-7.03277">
        <ele>437.023</ele>
        <time>2015-08-14T19:48:06Z</time>
      </trkpt>
      <trkpt lat="40.09588" lon="-7.03198">
        <ele>439.432</ele>
        <time>2015-08-14T19:48:13Z</time>
      </trkpt>
      <trkpt lat="40.09659" lon="-7.02921">
        <ele>430.78</ele>
        <time>2015-08-14T19:48:38Z</time>
      </trkpt>
      <trkpt lat="40.09643" lon="-7.02859">
        <ele>432.989</ele>
        <time>2015-08-14T19:48:45Z</time>
      </trkpt>
      <trkpt lat="40.09626" lon="-7.02835">
        <ele>433.569</ele>
        <time>2015-08-14T19:48:51Z</time>
      </trkpt>
      <trkpt lat="40.09482" lon="-7.02683">
        <ele>431.152</ele>
        <time>2015-08-14T19:49:19Z</time>
      </trkpt>
      <trkpt lat="40.0937" lon="-7.02419">
        <ele>433.38</ele>
        <time>2015-08-14T19:49:49Z</time>
      </trkpt>
      <trkpt lat="40.0934" lon="-7.01917">
        <ele>429.034</ele>
        <time>2015-08-14T19:50:35Z</time>
      </trkpt>
      <trkpt lat="40.0917" lon="-7.01358">
        <ele>445.241</ele>
        <time>2015-08-14T19:51:25Z</time>
      </trkpt>
      <trkpt lat="40.09185" lon="-7.01164">
        <ele>436.781</ele>
        <time>2015-08-14T19:51:43Z</time>
      </trkpt>
      <trkpt lat="40.09182" lon="-7.01131">
        <ele>437.809</ele>
        <time>2015-08-14T19:51:48Z</time>
      </trkpt>
      <trkpt lat="40.09123" lon="-7.01049">
        <ele>444.208</ele>
        <time>2015-08-14T19:52:01Z</time>
      </trkpt>
      <trkpt lat="40.09115" lon="-7.00981">
        <ele>444.365</ele>
        <time>2015-08-14T19:52:08Z</time>
      </trkpt>
      <trkpt lat="40.0907" lon="-7.00969">
        <ele>445.184</ele>
        <time>2015-08-14T19:52:15Z</time>
      </trkpt>
      <trkpt lat="40.08967" lon="-7.00907">
        <ele>452.062</ele>
        <time>2015-08-14T19:52:28Z</time>
      </trkpt>
      <trkpt lat="40.08934" lon="-7.00833">
        <ele>447.121</ele>
        <time>2015-08-14T19:52:36Z</time>
      </trkpt>
      <trkpt lat="40.0889" lon="-7.00801">
        <ele>446.051</ele>
        <time>2015-08-14T19:52:43Z</time>
      </trkpt>
      <trkpt lat="40.08861" lon="-7.00804">
        <ele>445.964</ele>
        <time>2015-08-14T19:52:49Z</time>
      </trkpt>
      <trkpt lat="40.0882" lon="-7.00806">
        <ele>447.062</ele>
        <time>2015-08-14T19:53:04Z</time>
      </trkpt>
      <trkpt lat="40.08815" lon="-7.00747">
        <ele>449.926</ele>
        <time>2015-08-14T19:53:14Z</time>
      </trkpt>
      <trkpt lat="40.08839" lon="-7.00693">
        <ele>451.741</ele>
        <time>2015-08-14T19:53:21Z</time>
      </trkpt>
      <trkpt lat="40.0881" lon="-7.00645">
        <ele>456.781</ele>
        <time>2015-08-14T19:53:27Z</time>
      </trkpt>
      <trkpt lat="40.08731" lon="-7.00563">
        <ele>456.309</ele>
        <time>2015-08-14T19:53:38Z</time>
      </trkpt>
      <trkpt lat="40.08658" lon="-7.00507">
        <ele>451.308</ele>
        <time>2015-08-14T19:53:46Z</time>
      </trkpt>
      <trkpt lat="40.08535" lon="-7.00348">
        <ele>451.825</ele>
        <time>2015-08-14T19:54:03Z</time>
      </trkpt>
      <trkpt lat="40.08494" lon="-7.00266">
        <ele>449.214</ele>
        <time>2015-08-14T19:54:17Z</time>
      </trkpt>
      <trkpt lat="40.08459" lon="-7.00066">
        <ele>452.392</ele>
        <time>2015-08-14T19:54:38Z</time>
      </trkpt>
      <trkpt lat="40.08418" lon="-7.00003">
        <ele>455.011</ele>
        <time>2015-08-14T19:54:45Z</time>
      </trkpt>
      <trkpt lat="40.08395" lon="-6.99889">
        <ele>450.381</ele>
        <time>2015-08-14T19:54:57Z</time>
      </trkpt>
      <trkpt lat="40.08422" lon="-6.99821">
        <ele>448.594</ele>
        <time>2015-08-14T19:55:03Z</time>
      </trkpt>
      <trkpt lat="40.0843" lon="-6.99797">
        <ele>447.772</ele>
        <time>2015-08-14T19:55:07Z</time>
      </trkpt>
      <trkpt lat="40.08355" lon="-6.9971">
        <ele>450.816</ele>
        <time>2015-08-14T19:55:41Z</time>
      </trkpt>
      <trkpt lat="40.08198" lon="-6.99344">
        <ele>459.996</ele>
        <time>2015-08-14T19:56:28Z</time>
      </trkpt>
      <trkpt lat="40.08151" lon="-6.99287">
        <ele>456.931</ele>
        <time>2015-08-14T19:56:37Z</time>
      </trkpt>
      <trkpt lat="40.07918" lon="-6.99224">
        <ele>460.924</ele>
        <time>2015-08-14T19:57:57Z</time>
      </trkpt>
      <trkpt lat="40.07767" lon="-6.99161">
        <ele>456.008</ele>
        <time>2015-08-14T19:58:15Z</time>
      </trkpt>
      <trkpt lat="40.0769" lon="-6.99147">
        <ele>451.29</ele>
        <time>2015-08-14T19:58:27Z</time>
      </trkpt>
      <trkpt lat="40.07637" lon="-6.9907">
        <ele>450.379</ele>
        <time>2015-08-14T19:58:37Z</time>
      </trkpt>
      <trkpt lat="40.07575" lon="-6.99039">
        <ele>453.587</ele>
        <time>2015-08-14T19:58:44Z</time>
      </trkpt>
      <trkpt lat="40.07484" lon="-6.99054">
        <ele>450.366</ele>
        <time>2015-08-14T19:58:55Z</time>
      </trkpt>
      <trkpt lat="40.07422" lon="-6.98909">
        <ele>450.866</ele>
        <time>2015-08-14T19:59:09Z</time>
      </trkpt>
      <trkpt lat="40.07352" lon="-6.987">
        <ele>440.999</ele>
        <time>2015-08-14T19:59:34Z</time>
      </trkpt>
      <trkpt lat="40.07415" lon="-6.98507">
        <ele>435.337</ele>
        <time>2015-08-14T20:03:52Z</time>
      </trkpt>
      <trkpt lat="40.07421" lon="-6.98434">
        <ele>432.081</ele>
        <time>2015-08-14T20:04:16Z</time>
      </trkpt>
      <trkpt lat="40.07269" lon="-6.98363">
        <ele>426.396</ele>
        <time>2015-08-14T20:04:59Z</time>
      </trkpt>
      <trkpt lat="40.07219" lon="-6.98413">
        <ele>426.031</ele>
        <time>2015-08-14T20:05:22Z</time>
      </trkpt>
      <trkpt lat="40.07159" lon="-6.98408">
        <ele>426.424</ele>
        <time>2015-08-14T20:05:36Z</time>
      </trkpt>
      <trkpt lat="40.07145" lon="-6.98375">
        <ele>429.108</ele>
        <time>2015-08-14T20:05:44Z</time>
      </trkpt>
      <trkpt lat="40.07157" lon="-6.98338">
        <ele>431.47</ele>
        <time>2015-08-14T20:06:22Z</time>
      </trkpt>
      <trkpt lat="40.07137" lon="-6.98335">
        <ele>432.919</ele>
        <time>2015-08-14T20:06:37Z</time>
      </trkpt>
      <trkpt lat="40.07032" lon="-6.98421">
        <ele>443.077</ele>
        <time>2015-08-14T20:07:17Z</time>
      </trkpt>
      <trkpt lat="40.0697" lon="-6.98438">
        <ele>446.316</ele>
        <time>2015-08-14T20:07:29Z</time>
      </trkpt>
      <trkpt lat="40.06919" lon="-6.98429">
        <ele>446.526</ele>
        <time>2015-08-14T20:07:56Z</time>
      </trkpt>
      <trkpt lat="40.06768" lon="-6.98535">
        <ele>453.099</ele>
        <time>2015-08-14T20:08:39Z</time>
      </trkpt>
      <trkpt lat="40.06529" lon="-6.98749">
        <ele>470.197</ele>
        <time>2015-08-14T20:09:12Z</time>
      </trkpt>
      <trkpt lat="40.06489" lon="-6.98752">
        <ele>474.231</ele>
        <time>2015-08-14T20:09:17Z</time>
      </trkpt>
      <trkpt lat="40.06417" lon="-6.98777">
        <ele>482.936</ele>
        <time>2015-08-14T20:09:26Z</time>
      </trkpt>
      <trkpt lat="40.06385" lon="-6.99055">
        <ele>511.717</ele>
        <time>2015-08-14T20:10:06Z</time>
      </trkpt>
      <trkpt lat="40.0634" lon="-6.98989">
        <ele>513.718</ele>
        <time>2015-08-14T20:10:21Z</time>
      </trkpt>
      <trkpt lat="40.0628" lon="-6.98985">
        <ele>522.308</ele>
        <time>2015-08-14T20:10:32Z</time>
      </trkpt>
      <trkpt lat="40.06292" lon="-6.99031">
        <ele>526.774</ele>
        <time>2015-08-14T20:10:40Z</time>
      </trkpt>
      <trkpt lat="40.06295" lon="-6.99038">
        <ele>527.053</ele>
        <time>2015-08-14T20:10:41Z</time>
      </trkpt>
      <trkpt lat="40.06351" lon="-6.99354">
        <ele>547.481</ele>
        <time>2015-08-14T20:11:17Z</time>
      </trkpt>
      <trkpt lat="40.06323" lon="-6.99479">
        <ele>558.14</ele>
        <time>2015-08-14T20:11:32Z</time>
      </trkpt>
      <trkpt lat="40.06307" lon="-6.99562">
        <ele>567.23</ele>
        <time>2015-08-14T20:11:41Z</time>
      </trkpt>
      <trkpt lat="40.06203" lon="-6.99689">
        <ele>589.363</ele>
        <time>2015-08-14T20:12:03Z</time>
      </trkpt>
      <trkpt lat="40.06136" lon="-6.99686">
        <ele>593.781</ele>
        <time>2015-08-14T20:12:12Z</time>
      </trkpt>
      <trkpt lat="40.05975" lon="-6.99727">
        <ele>594.155</ele>
        <time>2015-08-14T20:12:31Z</time>
      </trkpt>
      <trkpt lat="40.05754" lon="-6.99887">
        <ele>585.196</ele>
        <time>2015-08-14T20:12:47Z</time>
      </trkpt>
      <trkpt lat="40.05566" lon="-6.99895">
        <ele>588.431</ele>
        <time>2015-08-14T20:13:02Z</time>
      </trkpt>
      <trkpt lat="40.05512" lon="-6.9994">
        <ele>588.724</ele>
        <time>2015-08-14T20:13:07Z</time>
      </trkpt>
      <trkpt lat="40.05455" lon="-7.00035">
        <ele>588.608</ele>
        <time>2015-08-14T20:13:14Z</time>
      </trkpt>
      <trkpt lat="40.05382" lon="-7.00174">
        <ele>579.48</ele>
        <time>2015-08-14T20:13:23Z</time>
      </trkpt>
      <trkpt lat="40.05307" lon="-7.00248">
        <ele>574.639</ele>
        <time>2015-08-14T20:13:31Z</time>
      </trkpt>
      <trkpt lat="40.05204" lon="-7.00363">
        <ele>561.817</ele>
        <time>2015-08-14T20:14:36Z</time>
      </trkpt>
      <trkpt lat="40.04845" lon="-7.00509">
        <ele>532.446</ele>
        <time>2015-08-14T20:15:09Z</time>
      </trkpt>
      <trkpt lat="40.04787" lon="-7.00618">
        <ele>523.476</ele>
        <time>2015-08-14T20:15:18Z</time>
      </trkpt>
      <trkpt lat="40.04719" lon="-7.00675">
        <ele>526.589</ele>
        <time>2015-08-14T20:15:28Z</time>
      </trkpt>
      <trkpt lat="40.04643" lon="-7.00896">
        <ele>528.397</ele>
        <time>2015-08-14T20:15:42Z</time>
      </trkpt>
      <trkpt lat="40.04583" lon="-7.00991">
        <ele>520.881</ele>
        <time>2015-08-14T20:15:52Z</time>
      </trkpt>
      <trkpt lat="40.04303" lon="-7.00993">
        <ele>529.437</ele>
        <time>2015-08-14T20:16:18Z</time>
      </trkpt>
      <trkpt lat="40.04248" lon="-7.01023">
        <ele>518.249</ele>
        <time>2015-08-14T20:16:24Z</time>
      </trkpt>
      <trkpt lat="40.04099" lon="-7.00936">
        <ele>501.213</ele>
        <time>2015-08-14T20:16:59Z</time>
      </trkpt>
      <trkpt lat="40.03855" lon="-7.00996">
        <ele>479.908</ele>
        <time>2015-08-14T20:17:17Z</time>
      </trkpt>
      <trkpt lat="40.03612" lon="-7.01182">
        <ele>455.524</ele>
        <time>2015-08-14T20:17:35Z</time>
      </trkpt>
      <trkpt lat="40.03498" lon="-7.01346">
        <ele>454.643</ele>
        <time>2015-08-14T20:23:21Z</time>
      </trkpt>
      <trkpt lat="40.03212" lon="-7.00892">
        <ele>458.891</ele>
        <time>2015-08-14T20:23:56Z</time>
      </trkpt>
      <trkpt lat="40.03123" lon="-7.00751">
        <ele>459.37</ele>
        <time>2015-08-14T20:24:04Z</time>
      </trkpt>
      <trkpt lat="40.0289" lon="-7.00374">
        <ele>472.67</ele>
        <time>2015-08-14T20:24:22Z</time>
      </trkpt>
      <trkpt lat="40.02561" lon="-6.99819">
        <ele>478.533</ele>
        <time>2015-08-14T20:24:46Z</time>
      </trkpt>
      <trkpt lat="40.02373" lon="-6.9958">
        <ele>490.571</ele>
        <time>2015-08-14T20:24:57Z</time>
      </trkpt>
      <trkpt lat="40.02128" lon="-6.99242">
        <ele>499.925</ele>
        <time>2015-05-16T13:06:11Z</time>
      </trkpt>
      <trkpt lat="40.02038" lon="-6.99019">
        <ele>493.776</ele>
        <time>2015-05-16T13:06:17Z</time>
      </trkpt>
      <trkpt lat="40.01997" lon="-6.9885">
        <ele>493.79</ele>
        <time>2015-05-16T13:06:21Z</time>
      </trkpt>
      <trkpt lat="40.01936" lon="-6.98578">
        <ele>498.419</ele>
        <time>2015-05-16T13:06:27Z</time>
      </trkpt>
      <trkpt lat="40.01874" lon="-6.98296">
        <ele>493.308</ele>
        <time>2015-05-16T13:06:33Z</time>
      </trkpt>
      <trkpt lat="40.0174" lon="-6.97716">
        <ele>484.388</ele>
        <time>2015-05-16T13:06:45Z</time>
      </trkpt>
      <trkpt lat="40.0165" lon="-6.96869">
        <ele>484.857</ele>
        <time>2015-05-16T13:07:02Z</time>
      </trkpt>
      <trkpt lat="40.01577" lon="-6.96538">
        <ele>476.895</ele>
        <time>2015-05-16T13:07:09Z</time>
      </trkpt>
      <trkpt lat="40.01395" lon="-6.96079">
        <ele>473.814</ele>
        <time>2015-05-16T13:07:19Z</time>
      </trkpt>
      <trkpt lat="40.01215" lon="-6.95716">
        <ele>460.164</ele>
        <time>2015-05-16T13:07:28Z</time>
      </trkpt>
      <trkpt lat="40.00959" lon="-6.95149">
        <ele>445.967</ele>
        <time>2015-05-16T13:07:39Z</time>
      </trkpt>
      <trkpt lat="40.00846" lon="-6.94792">
        <ele>435.795</ele>
        <time>2015-05-16T13:07:46Z</time>
      </trkpt>
      <trkpt lat="40.00695" lon="-6.93877">
        <ele>416.559</ele>
        <time>2015-05-16T13:08:03Z</time>
      </trkpt>
      <trkpt lat="40.00549" lon="-6.93019">
        <ele>405.322</ele>
        <time>2015-05-16T13:08:20Z</time>
      </trkpt>
      <trkpt lat="40.00539" lon="-6.92782">
        <ele>410.062</ele>
        <time>2015-05-16T13:08:25Z</time>
      </trkpt>
      <trkpt lat="40.00566" lon="-6.9255">
        <ele>408.208</ele>
        <time>2015-05-16T13:08:30Z</time>
      </trkpt>
      <trkpt lat="40.00526" lon="-6.92193">
        <ele>415.708</ele>
        <time>2015-05-16T13:08:38Z</time>
      </trkpt>
      <trkpt lat="40.00519" lon="-6.9204">
        <ele>414.283</ele>
        <time>2015-05-16T13:08:42Z</time>
      </trkpt>
      <trkpt lat="40.0057" lon="-6.91611">
        <ele>416.022</ele>
        <time>2015-05-16T14:11:52Z</time>
      </trkpt>
      <trkpt lat="40.00593" lon="-6.9153">
        <ele>411.25</ele>
        <time>2015-05-16T14:11:58Z</time>
      </trkpt>
      <trkpt lat="40.00577" lon="-6.91395">
        <ele>413.439</ele>
        <time>2015-05-16T14:12:05Z</time>
      </trkpt>
      <trkpt lat="40.00575" lon="-6.91142">
        <ele>409.629</ele>
        <time>2015-05-16T14:12:16Z</time>
      </trkpt>
      <trkpt lat="40.00651" lon="-6.90738">
        <ele>392.332</ele>
        <time>2015-05-16T14:12:29Z</time>
      </trkpt>
      <trkpt lat="40.00644" lon="-6.90612">
        <ele>384.31</ele>
        <time>2015-05-16T14:12:33Z</time>
      </trkpt>
      <trkpt lat="40.00582" lon="-6.90504">
        <ele>376.524</ele>
        <time>2015-05-16T14:12:39Z</time>
      </trkpt>
      <trkpt lat="40.00516" lon="-6.90505">
        <ele>373.894</ele>
        <time>2015-05-16T14:12:41Z</time>
      </trkpt>
      <trkpt lat="40.00407" lon="-6.90532">
        <ele>369.257</ele>
        <time>2015-05-16T14:12:47Z</time>
      </trkpt>
      <trkpt lat="40.00243" lon="-6.90485">
        <ele>358.022</ele>
        <time>2015-05-16T14:12:54Z</time>
      </trkpt>
      <trkpt lat="40.0019" lon="-6.90441">
        <ele>353.408</ele>
        <time>2015-05-16T14:12:56Z</time>
      </trkpt>
      <trkpt lat="40.00158" lon="-6.90303">
        <ele>349.78</ele>
        <time>2015-05-16T14:13:02Z</time>
      </trkpt>
      <trkpt lat="40.00207" lon="-6.90025">
        <ele>335.679</ele>
        <time>2015-05-16T14:13:11Z</time>
      </trkpt>
      <trkpt lat="40.002" lon="-6.89921">
        <ele>326.967</ele>
        <time>2015-05-16T14:13:15Z</time>
      </trkpt>
      <trkpt lat="40.00063" lon="-6.898">
        <ele>317.866</ele>
        <time>2015-05-16T14:13:22Z</time>
      </trkpt>
      <trkpt lat="40.00109" lon="-6.89517">
        <ele>311.186</ele>
        <time>2015-05-16T14:13:33Z</time>
      </trkpt>
      <trkpt lat="40.00098" lon="-6.89414">
        <ele>308.949</ele>
        <time>2015-05-16T14:13:37Z</time>
      </trkpt>
      <trkpt lat="39.99896" lon="-6.89283">
        <ele>302.627</ele>
        <time>2015-05-16T14:13:51Z</time>
      </trkpt>
      <trkpt lat="39.99868" lon="-6.89073">
        <ele>296.111</ele>
        <time>2015-05-16T14:14:04Z</time>
      </trkpt>
      <trkpt lat="39.99888" lon="-6.88946">
        <ele>293.974</ele>
        <time>2015-05-16T14:14:10Z</time>
      </trkpt>
      <trkpt lat="39.99835" lon="-6.88744">
        <ele>291.956</ele>
        <time>2015-05-16T14:14:20Z</time>
      </trkpt>
      <trkpt lat="39.99725" lon="-6.8799">
        <ele>276.121</ele>
        <time>2015-05-16T14:15:16Z</time>
      </trkpt>
      <trkpt lat="39.99869" lon="-6.87845">
        <ele>276.008</ele>
        <time>2015-05-16T14:15:32Z</time>
      </trkpt>
      <trkpt lat="39.99899" lon="-6.878">
        <ele>275.998</ele>
        <time>2015-09-23T10:14:06Z</time>
      </trkpt>
      <trkpt lat="39.99878" lon="-6.87839">
        <ele>275.937</ele>
        <time>2015-09-23T10:14:26Z</time>
      </trkpt>
      <trkpt lat="39.99925" lon="-6.88027">
        <ele>286.295</ele>
        <time>2015-09-23T10:14:46Z</time>
      </trkpt>
      <trkpt lat="39.99903" lon="-6.88152">
        <ele>285.594</ele>
        <time>2015-09-23T10:15:06Z</time>
      </trkpt>
      <trkpt lat="39.99839" lon="-6.88255">
        <ele>285.794</ele>
        <time>2015-09-23T10:15:26Z</time>
      </trkpt>
      <trkpt lat="39.99753" lon="-6.88298">
        <ele>283.337</ele>
        <time>2015-09-23T10:15:46Z</time>
      </trkpt>
      <trkpt lat="39.99882" lon="-6.88937">
        <ele>293.325</ele>
        <time>2015-09-23T10:16:06Z</time>
      </trkpt>
      <trkpt lat="39.99865" lon="-6.89079">
        <ele>296.159</ele>
        <time>2015-09-23T10:16:26Z</time>
      </trkpt>
      <trkpt lat="39.99903" lon="-6.89302">
        <ele>303.169</ele>
        <time>2015-09-23T10:16:46Z</time>
      </trkpt>
      <trkpt lat="40.00062" lon="-6.89384">
        <ele>310.104</ele>
        <time>2015-09-23T10:17:06Z</time>
      </trkpt>
      <trkpt lat="40.00109" lon="-6.89444">
        <ele>307.924</ele>
        <time>2015-09-23T10:17:26Z</time>
      </trkpt>
      <trkpt lat="40.00058" lon="-6.8977">
        <ele>316.908</ele>
        <time>2015-09-23T10:17:46Z</time>
      </trkpt>
      <trkpt lat="40.00092" lon="-6.89826">
        <ele>322.677</ele>
        <time>2015-09-23T10:18:06Z</time>
      </trkpt>
      <trkpt lat="40.00191" lon="-6.89894">
        <ele>324.926</ele>
        <time>2015-09-23T10:18:26Z</time>
      </trkpt>
      <trkpt lat="40.00217" lon="-6.89963">
        <ele>330.824</ele>
        <time>2015-09-23T10:18:46Z</time>
      </trkpt>
      <trkpt lat="40.00156" lon="-6.90353">
        <ele>349.333</ele>
        <time>2015-09-23T10:19:06Z</time>
      </trkpt>
      <trkpt lat="40.00225" lon="-6.90474">
        <ele>354.743</ele>
        <time>2015-09-23T10:19:26Z</time>
      </trkpt>
      <trkpt lat="40.0041" lon="-6.90529">
        <ele>370.086</ele>
        <time>2015-09-23T10:19:46Z</time>
      </trkpt>
      <trkpt lat="40.00577" lon="-6.90504">
        <ele>375.954</ele>
        <time>2015-09-23T10:20:06Z</time>
      </trkpt>
      <trkpt lat="40.00624" lon="-6.90559">
        <ele>383.998</ele>
        <time>2015-09-23T10:20:26Z</time>
      </trkpt>
      <trkpt lat="40.0065" lon="-6.90667">
        <ele>387.037</ele>
        <time>2015-09-23T10:20:46Z</time>
      </trkpt>
      <trkpt lat="40.00577" lon="-6.91092">
        <ele>406.849</ele>
        <time>2015-09-23T10:21:06Z</time>
      </trkpt>
      <trkpt lat="40.00564" lon="-6.91328">
        <ele>410.813</ele>
        <time>2015-09-23T10:21:26Z</time>
      </trkpt>
      <trkpt lat="40.0059" lon="-6.91525">
        <ele>410.108</ele>
        <time>2015-09-23T10:21:46Z</time>
      </trkpt>
      <trkpt lat="40.00538" lon="-6.91722">
        <ele>418.584</ele>
        <time>2015-09-23T10:22:06Z</time>
      </trkpt>
      <trkpt lat="40.00517" lon="-6.92031">
        <ele>413.313</ele>
        <time>2015-09-23T10:22:26Z</time>
      </trkpt>
      <trkpt lat="40.00564" lon="-6.92486">
        <ele>408.261</ele>
        <time>2015-09-23T10:22:46Z</time>
      </trkpt>
      <trkpt lat="40.00534" lon="-6.92907">
        <ele>401.79</ele>
        <time>2015-09-23T10:23:06Z</time>
      </trkpt>
      <trkpt lat="40.00762" lon="-6.94375">
        <ele>433.64</ele>
        <time>2015-09-23T10:23:26Z</time>
      </trkpt>
      <trkpt lat="40.00843" lon="-6.94778">
        <ele>434.713</ele>
        <time>2015-09-23T10:23:46Z</time>
      </trkpt>
      <trkpt lat="40.01002" lon="-6.95263">
        <ele>452.681</ele>
        <time>2015-09-23T10:24:06Z</time>
      </trkpt>
      <trkpt lat="40.01457" lon="-6.96207">
        <ele>477.095</ele>
        <time>2015-09-23T10:24:26Z</time>
      </trkpt>
      <trkpt lat="40.01607" lon="-6.96649">
        <ele>477.983</ele>
        <time>2015-09-23T10:24:46Z</time>
      </trkpt>
      <trkpt lat="40.01663" lon="-6.96962">
        <ele>487.525</ele>
        <time>2015-09-23T10:25:06Z</time>
      </trkpt>
      <trkpt lat="40.01727" lon="-6.97649">
        <ele>484.717</ele>
        <time>2015-09-23T10:25:26Z</time>
      </trkpt>
      <trkpt lat="40.02066" lon="-6.99104">
        <ele>494.808</ele>
        <time>2015-09-23T10:25:46Z</time>
      </trkpt>
      <trkpt lat="40.02197" lon="-6.99372">
        <ele>496.219</ele>
        <time>2015-08-14T20:26:44Z</time>
      </trkpt>
      <trkpt lat="40.02132" lon="-6.99349">
        <ele>498.978</ele>
        <time>2015-08-14T20:27:21Z</time>
      </trkpt>
      <trkpt lat="40.02071" lon="-6.99399">
        <ele>495.276</ele>
        <time>2015-08-14T20:27:34Z</time>
      </trkpt>
      <trkpt lat="40.01982" lon="-6.99523">
        <ele>495.065</ele>
        <time>2015-08-14T20:27:58Z</time>
      </trkpt>
      <trkpt lat="40.01936" lon="-6.99599">
        <ele>495.385</ele>
        <time>2015-08-14T20:28:10Z</time>
      </trkpt>
      <trkpt lat="40.01929" lon="-6.99669">
        <ele>495.428</ele>
        <time>2015-08-14T20:28:39Z</time>
      </trkpt>
      <trkpt lat="40.01882" lon="-6.99867">
        <ele>492.066</ele>
        <time>2015-08-14T20:29:03Z</time>
      </trkpt>
      <trkpt lat="40.01893" lon="-7.00102">
        <ele>490.49</ele>
        <time>2015-08-14T20:29:28Z</time>
      </trkpt>
      <trkpt lat="40.01852" lon="-7.00298">
        <ele>482.657</ele>
        <time>2015-08-14T20:29:50Z</time>
      </trkpt>
      <trkpt lat="40.01868" lon="-7.00398">
        <ele>481.2</ele>
        <time>2015-08-14T20:30:00Z</time>
      </trkpt>
      <trkpt lat="40.01855" lon="-7.00575">
        <ele>481.42</ele>
        <time>2015-08-14T20:30:16Z</time>
      </trkpt>
      <trkpt lat="40.01784" lon="-7.00715">
        <ele>482.608</ele>
        <time>2015-08-14T20:30:30Z</time>
      </trkpt>
      <trkpt lat="40.01774" lon="-7.0091">
        <ele>477.966</ele>
        <time>2015-08-14T20:30:48Z</time>
      </trkpt>
      <trkpt lat="40.01694" lon="-7.00986">
        <ele>474.485</ele>
        <time>2015-08-14T20:31:02Z</time>
      </trkpt>
      <trkpt lat="40.01585" lon="-7.0116">
        <ele>465.383</ele>
        <time>2015-08-14T20:31:22Z</time>
      </trkpt>
      <trkpt lat="40.01545" lon="-7.0133">
        <ele>466.352</ele>
        <time>2015-08-14T20:31:37Z</time>
      </trkpt>
      <trkpt lat="40.01488" lon="-7.01468">
        <ele>462.262</ele>
        <time>2015-08-14T20:31:51Z</time>
      </trkpt>
      <trkpt lat="40.01369" lon="-7.01593">
        <ele>456.265</ele>
        <time>2015-08-14T20:32:11Z</time>
      </trkpt>
      <trkpt lat="40.01211" lon="-7.0163">
        <ele>458.973</ele>
        <time>2015-08-14T20:32:29Z</time>
      </trkpt>
      <trkpt lat="40.01061" lon="-7.01797">
        <ele>472.787</ele>
        <time>2015-08-14T20:32:53Z</time>
      </trkpt>
      <trkpt lat="40.00976" lon="-7.01896">
        <ele>469.673</ele>
        <time>2015-08-14T20:33:09Z</time>
      </trkpt>
      <trkpt lat="40.00935" lon="-7.02003">
        <ele>469.585</ele>
        <time>2015-08-14T20:33:26Z</time>
      </trkpt>
      <trkpt lat="40.00822" lon="-7.02089">
        <ele>470.613</ele>
        <time>2015-08-14T20:33:44Z</time>
      </trkpt>
      <trkpt lat="40.00775" lon="-7.02035">
        <ele>469.808</ele>
        <time>2015-08-14T20:33:55Z</time>
      </trkpt>
      <trkpt lat="40.00605" lon="-7.02048">
        <ele>465.098</ele>
        <time>2015-08-14T20:34:24Z</time>
      </trkpt>
      <trkpt lat="40.00425" lon="-7.02151">
        <ele>458.647</ele>
        <time>2015-08-14T20:34:47Z</time>
      </trkpt>
      <trkpt lat="40.00335" lon="-7.02245">
        <ele>449.265</ele>
        <time>2015-08-14T20:35:09Z</time>
      </trkpt>
      <trkpt lat="40.00373" lon="-7.02436">
        <ele>454.684</ele>
        <time>2015-08-14T20:35:48Z</time>
      </trkpt>
      <trkpt lat="40.0036" lon="-7.02503">
        <ele>453.964</ele>
        <time>2015-08-14T20:35:55Z</time>
      </trkpt>
      <trkpt lat="40.00288" lon="-7.02757">
        <ele>448.987</ele>
        <time>2015-08-14T20:36:29Z</time>
      </trkpt>
      <trkpt lat="40.00187" lon="-7.02788">
        <ele>450.045</ele>
        <time>2015-08-14T20:36:54Z</time>
      </trkpt>
      <trkpt lat="40.00112" lon="-7.02881">
        <ele>444.039</ele>
        <time>2015-08-14T20:37:09Z</time>
      </trkpt>
      <trkpt lat="39.99858" lon="-7.02966">
        <ele>441.914</ele>
        <time>2015-08-14T20:37:42Z</time>
      </trkpt>
      <trkpt lat="39.99704" lon="-7.02994">
        <ele>444.254</ele>
        <time>2015-08-14T20:38:19Z</time>
      </trkpt>
      <trkpt lat="39.99635" lon="-7.02959">
        <ele>438.409</ele>
        <time>2015-08-14T20:38:30Z</time>
      </trkpt>
      <trkpt lat="39.99504" lon="-7.02993">
        <ele>437.608</ele>
        <time>2015-08-14T20:38:46Z</time>
      </trkpt>
      <trkpt lat="39.9943" lon="-7.03105">
        <ele>439.392</ele>
        <time>2015-08-14T20:39:02Z</time>
      </trkpt>
      <trkpt lat="39.99403" lon="-7.03271">
        <ele>444.421</ele>
        <time>2015-08-14T20:39:18Z</time>
      </trkpt>
      <trkpt lat="39.99279" lon="-7.03428">
        <ele>444.029</ele>
        <time>2015-08-14T20:39:38Z</time>
      </trkpt>
      <trkpt lat="39.99239" lon="-7.03503">
        <ele>444.558</ele>
        <time>2015-08-14T20:39:47Z</time>
      </trkpt>
      <trkpt lat="39.99206" lon="-7.03723">
        <ele>442.138</ele>
        <time>2015-08-14T20:40:18Z</time>
      </trkpt>
      <trkpt lat="39.99205" lon="-7.03769">
        <ele>441.871</ele>
        <time>2015-08-14T20:40:24Z</time>
      </trkpt>
      <trkpt lat="39.99037" lon="-7.03929">
        <ele>436.729</ele>
        <time>2015-08-14T20:41:04Z</time>
      </trkpt>
      <trkpt lat="39.98943" lon="-7.04067">
        <ele>438.053</ele>
        <time>2015-08-14T20:41:19Z</time>
      </trkpt>
      <trkpt lat="39.98915" lon="-7.04274">
        <ele>435.052</ele>
        <time>2015-08-14T20:41:37Z</time>
      </trkpt>
      <trkpt lat="39.98923" lon="-7.04366">
        <ele>431.953</ele>
        <time>2015-08-14T20:41:45Z</time>
      </trkpt>
      <trkpt lat="39.9885" lon="-7.04541">
        <ele>421.708</ele>
        <time>2015-08-14T20:42:02Z</time>
      </trkpt>
      <trkpt lat="39.98847" lon="-7.04625">
        <ele>416.008</ele>
        <time>2015-08-14T20:42:10Z</time>
      </trkpt>
      <trkpt lat="39.98815" lon="-7.04731">
        <ele>410.966</ele>
        <time>2015-08-14T20:42:21Z</time>
      </trkpt>
      <trkpt lat="39.98682" lon="-7.04857">
        <ele>406.175</ele>
        <time>2015-08-14T20:42:41Z</time>
      </trkpt>
      <trkpt lat="39.98564" lon="-7.04905">
        <ele>404.773</ele>
        <time>2015-08-14T20:42:57Z</time>
      </trkpt>
      <trkpt lat="39.98453" lon="-7.04999">
        <ele>413.312</ele>
        <time>2015-08-14T20:43:18Z</time>
      </trkpt>
      <trkpt lat="39.98358" lon="-7.05152">
        <ele>407.452</ele>
        <time>2015-08-14T20:43:35Z</time>
      </trkpt>
      <trkpt lat="39.98175" lon="-7.05204">
        <ele>412.255</ele>
        <time>2015-08-14T20:43:56Z</time>
      </trkpt>
      <trkpt lat="39.98108" lon="-7.05271">
        <ele>417.663</ele>
        <time>2015-08-14T20:44:06Z</time>
      </trkpt>
      <trkpt lat="39.98085" lon="-7.05301">
        <ele>419.837</ele>
        <time>2015-08-14T20:44:10Z</time>
      </trkpt>
      <trkpt lat="39.9807" lon="-7.05551">
        <ele>418.841</ele>
        <time>2015-08-14T20:44:32Z</time>
      </trkpt>
      <trkpt lat="39.9813" lon="-7.05798">
        <ele>425.381</ele>
        <time>2015-08-14T20:44:54Z</time>
      </trkpt>
      <trkpt lat="39.98076" lon="-7.06029">
        <ele>418.009</ele>
        <time>2015-08-14T20:45:18Z</time>
      </trkpt>
      <trkpt lat="39.97992" lon="-7.06231">
        <ele>411.808</ele>
        <time>2015-08-14T20:45:42Z</time>
      </trkpt>
      <trkpt lat="39.97967" lon="-7.06525">
        <ele>418.665</ele>
        <time>2015-08-14T20:46:08Z</time>
      </trkpt>
      <trkpt lat="39.98106" lon="-7.06877">
        <ele>421.444</ele>
        <time>2015-08-14T20:46:39Z</time>
      </trkpt>
      <trkpt lat="39.98105" lon="-7.06962">
        <ele>418.532</ele>
        <time>2015-08-14T20:46:46Z</time>
      </trkpt>
      <trkpt lat="39.98036" lon="-7.07094">
        <ele>417.931</ele>
        <time>2015-08-14T20:46:59Z</time>
      </trkpt>
      <trkpt lat="39.97865" lon="-7.07223">
        <ele>419.041</ele>
        <time>2015-08-14T20:47:22Z</time>
      </trkpt>
      <trkpt lat="39.97843" lon="-7.07273">
        <ele>420.154</ele>
        <time>2015-08-14T20:47:27Z</time>
      </trkpt>
      <trkpt lat="39.97828" lon="-7.07442">
        <ele>425.462</ele>
        <time>2015-08-14T20:47:44Z</time>
      </trkpt>
      <trkpt lat="39.97795" lon="-7.07526">
        <ele>424.286</ele>
        <time>2015-08-14T20:47:52Z</time>
      </trkpt>
      <trkpt lat="39.97664" lon="-7.07706">
        <ele>426.123</ele>
        <time>2015-08-14T20:48:11Z</time>
      </trkpt>
      <trkpt lat="39.97604" lon="-7.07732">
        <ele>428.283</ele>
        <time>2015-08-14T20:48:18Z</time>
      </trkpt>
      <trkpt lat="39.97529" lon="-7.07765">
        <ele>428.011</ele>
        <time>2015-08-14T20:48:29Z</time>
      </trkpt>
      <trkpt lat="39.97465" lon="-7.07875">
        <ele>426.508</ele>
        <time>2015-08-14T20:48:40Z</time>
      </trkpt>
      <trkpt lat="39.97341" lon="-7.08021">
        <ele>424.463</ele>
        <time>2015-08-14T20:48:56Z</time>
      </trkpt>
      <trkpt lat="39.97303" lon="-7.08122">
        <ele>423.852</ele>
        <time>2015-08-14T20:49:05Z</time>
      </trkpt>
      <trkpt lat="39.97255" lon="-7.08196">
        <ele>420.45</ele>
        <time>2015-08-14T20:49:14Z</time>
      </trkpt>
      <trkpt lat="39.97236" lon="-7.08262">
        <ele>419.469</ele>
        <time>2015-08-14T20:49:22Z</time>
      </trkpt>
      <trkpt lat="39.97169" lon="-7.08426">
        <ele>419.759</ele>
        <time>2015-08-14T20:49:41Z</time>
      </trkpt>
      <trkpt lat="39.97114" lon="-7.08484">
        <ele>420.842</ele>
        <time>2015-08-14T20:49:49Z</time>
      </trkpt>
      <trkpt lat="39.97084" lon="-7.08549">
        <ele>422.03</ele>
        <time>2015-08-14T20:49:55Z</time>
      </trkpt>
      <trkpt lat="39.9703" lon="-7.08577">
        <ele>419.854</ele>
        <time>2015-08-14T20:50:01Z</time>
      </trkpt>
      <trkpt lat="39.9696" lon="-7.08586">
        <ele>421.413</ele>
        <time>2015-08-14T20:50:08Z</time>
      </trkpt>
      <trkpt lat="39.96914" lon="-7.08642">
        <ele>420.943</ele>
        <time>2015-08-14T20:50:15Z</time>
      </trkpt>
      <trkpt lat="39.96859" lon="-7.0889">
        <ele>423.807</ele>
        <time>2015-08-14T20:50:38Z</time>
      </trkpt>
      <trkpt lat="39.96873" lon="-7.09185">
        <ele>429.508</ele>
        <time>2015-08-14T20:51:05Z</time>
      </trkpt>
      <trkpt lat="39.96864" lon="-7.09265">
        <ele>431.332</ele>
        <time>2015-08-14T20:51:13Z</time>
      </trkpt>
      <trkpt lat="39.96864" lon="-7.09314">
        <ele>429.331</ele>
        <time>2015-08-14T20:51:19Z</time>
      </trkpt>
      <trkpt lat="39.96848" lon="-7.09356">
        <ele>425.449</ele>
        <time>2015-08-14T20:51:43Z</time>
      </trkpt>
      <trkpt lat="39.96801" lon="-7.0938">
        <ele>425.038</ele>
        <time>2015-08-14T20:51:51Z</time>
      </trkpt>
      <trkpt lat="39.96774" lon="-7.094">
        <ele>424.978</ele>
        <time>2015-08-14T20:51:55Z</time>
      </trkpt>
      <trkpt lat="39.96715" lon="-7.09486">
        <ele>426.081</ele>
        <time>2015-08-14T20:52:04Z</time>
      </trkpt>
      <trkpt lat="39.96458" lon="-7.09675">
        <ele>430.029</ele>
        <time>2015-08-14T20:52:39Z</time>
      </trkpt>
      <trkpt lat="39.96249" lon="-7.10021">
        <ele>422.013</ele>
        <time>2015-08-14T20:53:33Z</time>
      </trkpt>
      <trkpt lat="39.96077" lon="-7.10305">
        <ele>422.545</ele>
        <time>2015-08-14T20:54:00Z</time>
      </trkpt>
      <trkpt lat="39.96047" lon="-7.104">
        <ele>419.047</ele>
        <time>2015-08-14T20:54:08Z</time>
      </trkpt>
      <trkpt lat="39.95966" lon="-7.10458">
        <ele>418.711</ele>
        <time>2015-08-14T20:55:34Z</time>
      </trkpt>
      <trkpt lat="39.95883" lon="-7.10466">
        <ele>417.808</ele>
        <time>2015-08-14T20:55:44Z</time>
      </trkpt>
      <trkpt lat="39.95707" lon="-7.10349">
        <ele>416.675</ele>
        <time>2015-08-14T20:56:06Z</time>
      </trkpt>
      <trkpt lat="39.95425" lon="-7.10491">
        <ele>416.054</ele>
        <time>2015-08-14T20:57:11Z</time>
      </trkpt>
      <trkpt lat="39.9532" lon="-7.1059">
        <ele>410.362</ele>
        <time>2015-08-14T20:57:59Z</time>
      </trkpt>
      <trkpt lat="39.95054" lon="-7.10706">
        <ele>407.071</ele>
        <time>2015-08-14T20:58:35Z</time>
      </trkpt>
      <trkpt lat="39.9492" lon="-7.10816">
        <ele>402.061</ele>
        <time>2015-08-14T20:58:55Z</time>
      </trkpt>
      <trkpt lat="39.94875" lon="-7.10776">
        <ele>400.034</ele>
        <time>2015-08-14T20:59:38Z</time>
      </trkpt>
      <trkpt lat="39.94812" lon="-7.10793">
        <ele>398.842</ele>
        <time>2015-08-14T20:59:48Z</time>
      </trkpt>
      <trkpt lat="39.94705" lon="-7.11001">
        <ele>398.486</ele>
        <time>2015-08-14T21:00:16Z</time>
      </trkpt>
      <trkpt lat="39.94655" lon="-7.11052">
        <ele>398.966</ele>
        <time>2015-08-14T21:00:24Z</time>
      </trkpt>
      <trkpt lat="39.94617" lon="-7.11107">
        <ele>397.929</ele>
        <time>2015-08-14T21:00:31Z</time>
      </trkpt>
      <trkpt lat="39.94493" lon="-7.11147">
        <ele>398.321</ele>
        <time>2015-08-14T21:00:48Z</time>
      </trkpt>
      <trkpt lat="39.94433" lon="-7.11252">
        <ele>398.108</ele>
        <time>2015-08-14T21:01:00Z</time>
      </trkpt>
      <trkpt lat="39.94386" lon="-7.11566">
        <ele>387.317</ele>
        <time>2015-08-14T21:01:56Z</time>
      </trkpt>
      <trkpt lat="39.94268" lon="-7.11531">
        <ele>385.866</ele>
        <time>2015-08-14T21:02:30Z</time>
      </trkpt>
      <trkpt lat="39.94267" lon="-7.11586">
        <ele>386.194</ele>
        <time>2015-08-14T21:02:37Z</time>
      </trkpt>
      <trkpt lat="39.94277" lon="-7.11647">
        <ele>382.323</ele>
        <time>2015-08-14T21:02:43Z</time>
      </trkpt>
      <trkpt lat="39.94201" lon="-7.11727">
        <ele>384.553</ele>
        <time>2015-08-14T21:02:57Z</time>
      </trkpt>
      <trkpt lat="39.94159" lon="-7.11906">
        <ele>375.686</ele>
        <time>2015-08-14T21:03:16Z</time>
      </trkpt>
      <trkpt lat="39.94104" lon="-7.11979">
        <ele>371.684</ele>
        <time>2015-08-14T21:03:25Z</time>
      </trkpt>
      <trkpt lat="39.93973" lon="-7.12082">
        <ele>367.078</ele>
        <time>2015-08-14T21:03:41Z</time>
      </trkpt>
      <trkpt lat="39.93951" lon="-7.12166">
        <ele>367.362</ele>
        <time>2015-08-14T21:03:49Z</time>
      </trkpt>
      <trkpt lat="39.93952" lon="-7.122">
        <ele>365.983</ele>
        <time>2015-08-14T21:03:52Z</time>
      </trkpt>
      <trkpt lat="39.93897" lon="-7.12235">
        <ele>366.311</ele>
        <time>2015-08-14T21:04:04Z</time>
      </trkpt>
      <trkpt lat="39.93885" lon="-7.12238">
        <ele>365.908</ele>
        <time>2015-08-14T21:04:11Z</time>
      </trkpt>
      <trkpt lat="39.93877" lon="-7.12365">
        <ele>359.387</ele>
        <time>2015-08-14T21:05:26Z</time>
      </trkpt>
      <trkpt lat="39.93912" lon="-7.12356">
        <ele>360.356</ele>
        <time>2015-08-14T21:05:42Z</time>
      </trkpt>
      <trkpt lat="39.93907" lon="-7.12415">
        <ele>358.714</ele>
        <time>2015-08-14T21:05:51Z</time>
      </trkpt>
      <trkpt lat="39.93922" lon="-7.12454">
        <ele>360.253</ele>
        <time>2015-08-14T21:05:57Z</time>
      </trkpt>
      <trkpt lat="39.93988" lon="-7.12898">
        <ele>368.023</ele>
        <time>2015-08-14T21:06:51Z</time>
      </trkpt>
      <trkpt lat="39.93956" lon="-7.13216">
        <ele>353.186</ele>
        <time>2015-08-14T21:07:31Z</time>
      </trkpt>
      <trkpt lat="39.93851" lon="-7.13298">
        <ele>349.514</ele>
        <time>2015-08-14T21:07:56Z</time>
      </trkpt>
      <trkpt lat="39.93543" lon="-7.13447">
        <ele>350.988</ele>
        <time>2015-08-14T21:08:27Z</time>
      </trkpt>
      <trkpt lat="39.93463" lon="-7.13533">
        <ele>354.433</ele>
        <time>2015-08-14T21:08:37Z</time>
      </trkpt>
      <trkpt lat="39.93372" lon="-7.13563">
        <ele>355.423</ele>
        <time>2015-08-14T21:08:46Z</time>
      </trkpt>
      <trkpt lat="39.9315" lon="-7.13702">
        <ele>346.615</ele>
        <time>2015-08-14T21:09:07Z</time>
      </trkpt>
      <trkpt lat="39.92984" lon="-7.13729">
        <ele>347.108</ele>
        <time>2015-08-14T21:09:23Z</time>
      </trkpt>
      <trkpt lat="39.92826" lon="-7.13765">
        <ele>340.854</ele>
        <time>2015-08-14T21:09:38Z</time>
      </trkpt>
      <trkpt lat="39.92724" lon="-7.13964">
        <ele>335.413</ele>
        <time>2015-08-14T21:09:56Z</time>
      </trkpt>
      <trkpt lat="39.92556" lon="-7.14101">
        <ele>333.441</ele>
        <time>2015-08-14T21:10:13Z</time>
      </trkpt>
      <trkpt lat="39.92451" lon="-7.1413">
        <ele>337.39</ele>
        <time>2015-08-14T21:10:24Z</time>
      </trkpt>
      <trkpt lat="39.9226" lon="-7.14101">
        <ele>339.57</ele>
        <time>2015-08-14T21:10:40Z</time>
      </trkpt>
      <trkpt lat="39.92095" lon="-7.14159">
        <ele>348.283</ele>
        <time>2015-08-14T21:10:54Z</time>
      </trkpt>
      <trkpt lat="39.91952" lon="-7.14255">
        <ele>347.111</ele>
        <time>2015-08-14T21:11:08Z</time>
      </trkpt>
      <trkpt lat="39.9183" lon="-7.14408">
        <ele>345.295</ele>
        <time>2015-08-14T21:11:28Z</time>
      </trkpt>
      <trkpt lat="39.91661" lon="-7.14765">
        <ele>336.142</ele>
        <time>2015-08-14T21:11:59Z</time>
      </trkpt>
      <trkpt lat="39.91569" lon="-7.14856">
        <ele>340.122</ele>
        <time>2015-08-14T21:12:11Z</time>
      </trkpt>
      <trkpt lat="39.91547" lon="-7.14869">
        <ele>339.214</ele>
        <time>2015-08-14T21:12:14Z</time>
      </trkpt>
      <trkpt lat="39.91438" lon="-7.14906">
        <ele>337.408</ele>
        <time>2015-08-14T21:12:30Z</time>
      </trkpt>
      <trkpt lat="39.91347" lon="-7.14982">
        <ele>335.825</ele>
        <time>2015-08-14T21:12:45Z</time>
      </trkpt>
      <trkpt lat="39.91182" lon="-7.15323">
        <ele>333.724</ele>
        <time>2015-08-14T21:13:19Z</time>
      </trkpt>
      <trkpt lat="39.9112" lon="-7.15735">
        <ele>331.822</ele>
        <time>2015-08-14T21:13:55Z</time>
      </trkpt>
      <trkpt lat="39.91082" lon="-7.16063">
        <ele>330.321</ele>
        <time>2015-08-14T21:14:23Z</time>
      </trkpt>
      <trkpt lat="39.91026" lon="-7.16155">
        <ele>330.161</ele>
        <time>2015-08-14T21:14:33Z</time>
      </trkpt>
      <trkpt lat="39.9099" lon="-7.16446">
        <ele>326.754</ele>
        <time>2015-08-14T21:14:57Z</time>
      </trkpt>
      <trkpt lat="39.90899" lon="-7.1673">
        <ele>325.962</ele>
        <time>2015-08-14T21:15:22Z</time>
      </trkpt>
      <trkpt lat="39.90853" lon="-7.16936">
        <ele>327.676</ele>
        <time>2015-08-14T21:15:48Z</time>
      </trkpt>
      <trkpt lat="39.90873" lon="-7.17">
        <ele>329.028</ele>
        <time>2015-08-14T21:15:56Z</time>
      </trkpt>
      <trkpt lat="39.90886" lon="-7.17062">
        <ele>329.089</ele>
        <time>2015-08-14T21:16:02Z</time>
      </trkpt>
      <trkpt lat="39.90829" lon="-7.17223">
        <ele>329.017</ele>
        <time>2015-08-14T21:16:18Z</time>
      </trkpt>
      <trkpt lat="39.90815" lon="-7.17312">
        <ele>327.708</ele>
        <time>2015-08-14T21:16:38Z</time>
      </trkpt>
      <trkpt lat="39.90833" lon="-7.17517">
        <ele>326.033</ele>
        <time>2015-08-14T21:16:49Z</time>
      </trkpt>
      <trkpt lat="39.90818" lon="-7.17889">
        <ele>323.142</ele>
        <time>2015-08-14T21:17:12Z</time>
      </trkpt>
      <trkpt lat="39.90826" lon="-7.18193">
        <ele>326.23</ele>
        <time>2015-08-14T21:17:25Z</time>
      </trkpt>
      <trkpt lat="39.90828" lon="-7.18625">
        <ele>321.979</ele>
        <time>2015-08-14T21:17:41Z</time>
      </trkpt>
      <trkpt lat="39.90767" lon="-7.19197">
        <ele>319.859</ele>
        <time>2015-08-14T21:18:01Z</time>
      </trkpt>
      <trkpt lat="39.90769" lon="-7.19493">
        <ele>295.392</ele>
        <time>2015-08-14T21:18:12Z</time>
      </trkpt>
      <trkpt lat="39.90736" lon="-7.20062">
        <ele>280.06</ele>
        <time>2015-08-14T21:18:34Z</time>
      </trkpt>
      <trkpt lat="39.90693" lon="-7.20286">
        <ele>255.394</ele>
        <time>2015-08-14T21:18:43Z</time>
      </trkpt>
      <trkpt lat="39.90775" lon="-7.20837">
        <ele>226.622</ele>
        <time>2015-08-14T21:19:05Z</time>
      </trkpt>
      <trkpt lat="39.90838" lon="-7.20941">
        <ele>229.162</ele>
        <time>2015-08-14T21:19:11Z</time>
      </trkpt>
      <trkpt lat="39.90868" lon="-7.21139">
        <ele>219.308</ele>
        <time>2015-08-14T21:19:20Z</time>
      </trkpt>
      <trkpt lat="39.90928" lon="-7.21414">
        <ele>213.208</ele>
        <time>2015-08-14T21:19:32Z</time>
      </trkpt>
      <trkpt lat="39.90955" lon="-7.21825">
        <ele>214.653</ele>
        <time>2015-08-14T21:19:47Z</time>
      </trkpt>
      <trkpt lat="39.90961" lon="-7.2196">
        <ele>213.362</ele>
        <time>2015-08-14T21:19:55Z</time>
      </trkpt>
      <trkpt lat="39.91054" lon="-7.22108">
        <ele>214.87</ele>
        <time>2015-08-14T21:20:32Z</time>
      </trkpt>
      <trkpt lat="39.90868" lon="-7.22225">
        <ele>205.199</ele>
        <time>2015-08-14T21:21:20Z</time>
      </trkpt>
      <trkpt lat="39.90832" lon="-7.22313">
        <ele>202.089</ele>
        <time>2015-08-14T21:21:25Z</time>
      </trkpt>
      <trkpt lat="39.90829" lon="-7.22473">
        <ele>201.062</ele>
        <time>2015-08-14T21:21:32Z</time>
      </trkpt>
      <trkpt lat="39.90816" lon="-7.2292">
        <ele>198.56</ele>
        <time>2015-08-14T21:21:49Z</time>
      </trkpt>
      <trkpt lat="39.90805" lon="-7.22964">
        <ele>199.484</ele>
        <time>2015-08-14T21:21:51Z</time>
      </trkpt>
      <trkpt lat="39.90661" lon="-7.23217">
        <ele>193.618</ele>
        <time>2015-08-14T21:22:03Z</time>
      </trkpt>
      <trkpt lat="39.90523" lon="-7.23367">
        <ele>190.198</ele>
        <time>2015-08-14T21:22:12Z</time>
      </trkpt>
      <trkpt lat="39.90181" lon="-7.23458">
        <ele>196.017</ele>
        <time>2015-08-14T21:22:30Z</time>
      </trkpt>
      <trkpt lat="39.90068" lon="-7.23519">
        <ele>194.208</ele>
        <time>2015-08-14T21:22:36Z</time>
      </trkpt>
      <trkpt lat="39.8972" lon="-7.23583">
        <ele>190.052</ele>
        <time>2015-08-14T21:22:53Z</time>
      </trkpt>
      <trkpt lat="39.8963" lon="-7.2362">
        <ele>190.761</ele>
        <time>2015-08-14T21:22:58Z</time>
      </trkpt>
      <trkpt lat="39.89502" lon="-7.2383">
        <ele>188.169</ele>
        <time>2015-08-14T21:23:09Z</time>
      </trkpt>
      <trkpt lat="39.89314" lon="-7.24019">
        <ele>182.158</ele>
        <time>2015-08-14T21:23:20Z</time>
      </trkpt>
      <trkpt lat="39.89129" lon="-7.24198">
        <ele>184.468</ele>
        <time>2015-08-14T21:23:30Z</time>
      </trkpt>
      <trkpt lat="39.88517" lon="-7.24436">
        <ele>201.791</ele>
        <time>2015-08-14T21:23:58Z</time>
      </trkpt>
      <trkpt lat="39.88379" lon="-7.24484">
        <ele>202.049</ele>
        <time>2015-08-14T21:24:05Z</time>
      </trkpt>
      <trkpt lat="39.87879" lon="-7.2496">
        <ele>191.763</ele>
        <time>2015-08-14T21:24:34Z</time>
      </trkpt>
      <trkpt lat="39.87819" lon="-7.25026">
        <ele>194.077</ele>
        <time>2015-08-14T21:24:43Z</time>
      </trkpt>
      <trkpt lat="39.87843" lon="-7.25221">
        <ele>190.461</ele>
        <time>2015-08-14T21:25:21Z</time>
      </trkpt>
      <trkpt lat="39.87831" lon="-7.25552">
        <ele>190.927</ele>
        <time>2015-08-14T21:25:36Z</time>
      </trkpt>
      <trkpt lat="39.87832" lon="-7.26235">
        <ele>191.008</ele>
        <time>2015-08-14T21:26:06Z</time>
      </trkpt>
      <trkpt lat="39.8791" lon="-7.26526">
        <ele>187.028</ele>
        <time>2015-08-14T21:26:21Z</time>
      </trkpt>
      <trkpt lat="39.87861" lon="-7.26799">
        <ele>187.737</ele>
        <time>2015-08-14T21:26:35Z</time>
      </trkpt>
      <trkpt lat="39.87874" lon="-7.27005">
        <ele>178.785</ele>
        <time>2015-08-14T21:26:45Z</time>
      </trkpt>
      <trkpt lat="39.87768" lon="-7.27463">
        <ele>182.634</ele>
        <time>2015-08-14T21:27:09Z</time>
      </trkpt>
      <trkpt lat="39.87761" lon="-7.27887">
        <ele>186.624</ele>
        <time>2015-08-14T21:27:29Z</time>
      </trkpt>
      <trkpt lat="39.87935" lon="-7.28031">
        <ele>181.817</ele>
        <time>2015-08-14T21:27:44Z</time>
      </trkpt>
      <trkpt lat="39.88088" lon="-7.28082">
        <ele>179.025</ele>
        <time>2015-08-14T21:27:54Z</time>
      </trkpt>
      <trkpt lat="39.8817" lon="-7.28157">
        <ele>177.059</ele>
        <time>2015-08-14T21:28:00Z</time>
      </trkpt>
      <trkpt lat="39.88248" lon="-7.2818">
        <ele>177.024</ele>
        <time>2015-08-14T21:28:05Z</time>
      </trkpt>
      <trkpt lat="39.88382" lon="-7.28207">
        <ele>172.704</ele>
        <time>2015-08-14T21:28:13Z</time>
      </trkpt>
      <trkpt lat="39.88428" lon="-7.28219">
        <ele>170.714</ele>
        <time>2015-08-14T21:28:17Z</time>
      </trkpt>
      <trkpt lat="39.8839" lon="-7.28827">
        <ele>168.008</ele>
        <time>2015-08-14T21:28:55Z</time>
      </trkpt>
      <trkpt lat="39.88138" lon="-7.29284">
        <ele>184.283</ele>
        <time>2015-08-14T21:29:52Z</time>
      </trkpt>
      <trkpt lat="39.88117" lon="-7.29392">
        <ele>185.112</ele>
        <time>2015-08-14T21:30:02Z</time>
      </trkpt>
      <trkpt lat="39.88099" lon="-7.29503">
        <ele>187.26</ele>
        <time>2015-08-14T21:30:13Z</time>
      </trkpt>
      <trkpt lat="39.87944" lon="-7.29674">
        <ele>182.269</ele>
        <time>2015-08-14T21:30:55Z</time>
      </trkpt>
      <trkpt lat="39.87846" lon="-7.29825">
        <ele>181.579</ele>
        <time>2015-08-14T21:31:10Z</time>
      </trkpt>
      <trkpt lat="39.87796" lon="-7.29925">
        <ele>175.592</ele>
        <time>2015-08-14T21:31:22Z</time>
      </trkpt>
      <trkpt lat="39.8774" lon="-7.29952">
        <ele>171.48</ele>
        <time>2015-08-14T21:31:47Z</time>
      </trkpt>
      <trkpt lat="39.87608" lon="-7.29999">
        <ele>165.934</ele>
        <time>2015-08-14T21:32:06Z</time>
      </trkpt>
      <trkpt lat="39.87537" lon="-7.30129">
        <ele>164.687</ele>
        <time>2015-08-14T21:32:30Z</time>
      </trkpt>
      <trkpt lat="39.87377" lon="-7.30224">
        <ele>165.642</ele>
        <time>2015-08-14T21:33:30Z</time>
      </trkpt>
      <trkpt lat="39.87198" lon="-7.30513">
        <ele>171.626</ele>
        <time>2015-08-14T21:34:04Z</time>
      </trkpt>
      <trkpt lat="39.87267" lon="-7.30613">
        <ele>176.608</ele>
        <time>2015-08-14T21:34:39Z</time>
      </trkpt>
      <trkpt lat="39.87234" lon="-7.30789">
        <ele>180.869</ele>
        <time>2015-08-14T21:35:20Z</time>
      </trkpt>
      <trkpt lat="39.87044" lon="-7.31044">
        <ele>187.258</ele>
        <time>2015-08-14T21:35:48Z</time>
      </trkpt>
      <trkpt lat="39.86947" lon="-7.31206">
        <ele>193.976</ele>
        <time>2015-08-14T21:36:04Z</time>
      </trkpt>
      <trkpt lat="39.86789" lon="-7.31475">
        <ele>196.515</ele>
        <time>2015-08-14T21:36:30Z</time>
      </trkpt>
      <trkpt lat="39.86655" lon="-7.31607">
        <ele>198.485</ele>
        <time>2015-08-14T21:36:45Z</time>
      </trkpt>
      <trkpt lat="39.86632" lon="-7.31711">
        <ele>195.978</ele>
        <time>2015-08-14T21:36:53Z</time>
      </trkpt>
      <trkpt lat="39.86539" lon="-7.31859">
        <ele>194.016</ele>
        <time>2015-08-14T21:37:07Z</time>
      </trkpt>
      <trkpt lat="39.86337" lon="-7.32022">
        <ele>194.61</ele>
        <time>2015-08-14T21:37:30Z</time>
      </trkpt>
      <trkpt lat="39.86336" lon="-7.32019">
        <ele>194.653</ele>
        <time>2015-08-14T21:37:47Z</time>
      </trkpt>
      <trkpt lat="39.86401" lon="-7.32186">
        <ele>201.404</ele>
        <time>2015-08-14T21:38:11Z</time>
      </trkpt>
      <trkpt lat="39.86386" lon="-7.32283">
        <ele>203.214</ele>
        <time>2015-08-14T21:38:16Z</time>
      </trkpt>
      <trkpt lat="39.86358" lon="-7.32367">
        <ele>208.208</ele>
        <time>2015-08-14T21:38:21Z</time>
      </trkpt>
      <trkpt lat="39.86382" lon="-7.32453">
        <ele>210.096</ele>
        <time>2015-08-14T21:38:26Z</time>
      </trkpt>
      <trkpt lat="39.86394" lon="-7.32495">
        <ele>209.035</ele>
        <time>2015-08-14T21:38:28Z</time>
      </trkpt>
      <trkpt lat="39.86445" lon="-7.32704">
        <ele>188.213</ele>
        <time>2015-08-14T21:38:40Z</time>
      </trkpt>
      <trkpt lat="39.86257" lon="-7.32902">
        <ele>188.282</ele>
        <time>2015-08-14T21:38:56Z</time>
      </trkpt>
      <trkpt lat="39.86176" lon="-7.32968">
        <ele>189.922</ele>
        <time>2015-08-14T21:39:05Z</time>
      </trkpt>
      <trkpt lat="39.86082" lon="-7.33104">
        <ele>179.165</ele>
        <time>2015-08-14T21:39:14Z</time>
      </trkpt>
      <trkpt lat="39.8592" lon="-7.33213">
        <ele>173.063</ele>
        <time>2015-08-14T21:39:25Z</time>
      </trkpt>
      <trkpt lat="39.85838" lon="-7.33244">
        <ele>175.747</ele>
        <time>2015-08-14T21:39:33Z</time>
      </trkpt>
      <trkpt lat="39.85844" lon="-7.33342">
        <ele>153.253</ele>
        <time>2015-08-14T21:39:40Z</time>
      </trkpt>
      <trkpt lat="39.85877" lon="-7.33428">
        <ele>166.404</ele>
        <time>2015-08-14T21:39:46Z</time>
      </trkpt>
      <trkpt lat="39.85825" lon="-7.33513">
        <ele>172.114</ele>
        <time>2015-08-14T21:39:53Z</time>
      </trkpt>
      <trkpt lat="39.85749" lon="-7.33721">
        <ele>182.608</ele>
        <time>2015-08-14T21:40:03Z</time>
      </trkpt>
      <trkpt lat="39.85738" lon="-7.33783">
        <ele>183.976</ele>
        <time>2015-08-14T21:40:06Z</time>
      </trkpt>
      <trkpt lat="39.8582" lon="-7.3393">
        <ele>197.645</ele>
        <time>2015-08-14T21:40:16Z</time>
      </trkpt>
      <trkpt lat="39.85736" lon="-7.34098">
        <ele>210.063</ele>
        <time>2015-08-14T21:40:26Z</time>
      </trkpt>
      <trkpt lat="39.85725" lon="-7.34202">
        <ele>211.362</ele>
        <time>2015-08-14T21:40:31Z</time>
      </trkpt>
      <trkpt lat="39.85839" lon="-7.34386">
        <ele>227.262</ele>
        <time>2015-08-14T21:40:41Z</time>
      </trkpt>
      <trkpt lat="39.8593" lon="-7.34582">
        <ele>245.425</ele>
        <time>2015-08-14T21:40:50Z</time>
      </trkpt>
      <trkpt lat="39.85967" lon="-7.34699">
        <ele>251.473</ele>
        <time>2015-08-14T21:40:55Z</time>
      </trkpt>
      <trkpt lat="39.8596" lon="-7.34852">
        <ele>262.327</ele>
        <time>2015-08-14T21:41:01Z</time>
      </trkpt>
      <trkpt lat="39.85967" lon="-7.34948">
        <ele>272.175</ele>
        <time>2015-08-14T21:41:05Z</time>
      </trkpt>
      <trkpt lat="39.85996" lon="-7.3501">
        <ele>273.728</ele>
        <time>2015-08-14T21:41:08Z</time>
      </trkpt>
      <trkpt lat="39.8609" lon="-7.35087">
        <ele>282.62</ele>
        <time>2015-08-14T21:41:14Z</time>
      </trkpt>
      <trkpt lat="39.86134" lon="-7.35154">
        <ele>282.608</ele>
        <time>2015-08-14T21:41:18Z</time>
      </trkpt>
      <trkpt lat="39.8614" lon="-7.35437">
        <ele>301.388</ele>
        <time>2015-08-14T21:41:30Z</time>
      </trkpt>
      <trkpt lat="39.86164" lon="-7.35502">
        <ele>305.027</ele>
        <time>2015-08-14T21:41:33Z</time>
      </trkpt>
      <trkpt lat="39.86227" lon="-7.35564">
        <ele>309.395</ele>
        <time>2015-08-14T21:41:38Z</time>
      </trkpt>
      <trkpt lat="39.86423" lon="-7.35529">
        <ele>317.814</ele>
        <time>2015-08-14T21:41:49Z</time>
      </trkpt>
      <trkpt lat="39.86461" lon="-7.35532">
        <ele>321.384</ele>
        <time>2015-08-14T21:41:51Z</time>
      </trkpt>
      <trkpt lat="39.86634" lon="-7.35665">
        <ele>333.817</ele>
        <time>2015-08-14T21:42:01Z</time>
      </trkpt>
      <trkpt lat="39.86951" lon="-7.36379">
        <ele>345.485</ele>
        <time>2015-08-14T21:42:30Z</time>
      </trkpt>
      <trkpt lat="39.87099" lon="-7.3653">
        <ele>350.519</ele>
        <time>2015-08-14T21:42:39Z</time>
      </trkpt>
      <trkpt lat="39.87121" lon="-7.36818">
        <ele>355.032</ele>
        <time>2015-08-14T21:42:51Z</time>
      </trkpt>
      <trkpt lat="39.87524" lon="-7.37371">
        <ele>367.192</ele>
        <time>2015-08-14T21:43:17Z</time>
      </trkpt>
      <trkpt lat="39.87606" lon="-7.37486">
        <ele>371.811</ele>
        <time>2015-08-14T21:43:23Z</time>
      </trkpt>
      <trkpt lat="39.87629" lon="-7.37561">
        <ele>371.008</ele>
        <time>2015-08-14T21:43:27Z</time>
      </trkpt>
      <trkpt lat="39.87766" lon="-7.38442">
        <ele>347.744</ele>
        <time>2015-08-14T21:44:17Z</time>
      </trkpt>
      <trkpt lat="39.87779" lon="-7.38598">
        <ele>347.183</ele>
        <time>2015-08-14T21:44:26Z</time>
      </trkpt>
      <trkpt lat="39.87782" lon="-7.38658">
        <ele>348.051</ele>
        <time>2015-08-14T21:44:32Z</time>
      </trkpt>
      <trkpt lat="39.87778" lon="-7.38668">
        <ele>348.02</ele>
        <time>2015-08-14T21:44:36Z</time>
      </trkpt>
      <trkpt lat="39.87663" lon="-7.38953">
        <ele>346.16</ele>
        <time>2015-08-14T21:45:38Z</time>
      </trkpt>
      <trkpt lat="39.87588" lon="-7.39038">
        <ele>348.643</ele>
        <time>2015-08-14T21:45:49Z</time>
      </trkpt>
      <trkpt lat="39.87395" lon="-7.39093">
        <ele>339.211</ele>
        <time>2015-08-14T21:46:18Z</time>
      </trkpt>
      <trkpt lat="39.87322" lon="-7.3903">
        <ele>333.185</ele>
        <time>2015-08-14T21:46:29Z</time>
      </trkpt>
      <trkpt lat="39.87213" lon="-7.39051">
        <ele>329.185</ele>
        <time>2015-08-14T21:46:41Z</time>
      </trkpt>
      <trkpt lat="39.87181" lon="-7.39057">
        <ele>329.989</ele>
        <time>2015-08-14T21:47:02Z</time>
      </trkpt>
      <trkpt lat="39.87329" lon="-7.39406">
        <ele>320.517</ele>
        <time>2015-08-14T21:47:43Z</time>
      </trkpt>
      <trkpt lat="39.87305" lon="-7.39565">
        <ele>313.608</ele>
        <time>2015-08-14T21:48:29Z</time>
      </trkpt>
      <trkpt lat="39.87493" lon="-7.39619">
        <ele>319.639</ele>
        <time>2015-08-14T21:49:16Z</time>
      </trkpt>
      <trkpt lat="39.87347" lon="-7.39703">
        <ele>315.748</ele>
        <time>2015-08-14T21:49:36Z</time>
      </trkpt>
      <trkpt lat="39.87289" lon="-7.39703">
        <ele>314.036</ele>
        <time>2015-08-14T21:49:44Z</time>
      </trkpt>
      <trkpt lat="39.87266" lon="-7.39699">
        <ele>312.275</ele>
        <time>2015-08-14T21:49:48Z</time>
      </trkpt>
      <trkpt lat="39.87115" lon="-7.39836">
        <ele>305.075</ele>
        <time>2015-08-14T21:50:14Z</time>
      </trkpt>
      <trkpt lat="39.8697" lon="-7.39966">
        <ele>307.768</ele>
        <time>2015-08-14T21:50:49Z</time>
      </trkpt>
      <trkpt lat="39.86803" lon="-7.4019">
        <ele>321.796</ele>
        <time>2015-08-14T21:51:16Z</time>
      </trkpt>
      <trkpt lat="39.86798" lon="-7.40198">
        <ele>321.81</ele>
        <time>2015-08-14T21:51:21Z</time>
      </trkpt>
      <trkpt lat="39.86686" lon="-7.40331">
        <ele>316.984</ele>
        <time>2015-08-14T21:52:10Z</time>
      </trkpt>
      <trkpt lat="39.86385" lon="-7.40455">
        <ele>322.607</ele>
        <time>2015-08-14T21:52:47Z</time>
      </trkpt>
      <trkpt lat="39.86236" lon="-7.40592">
        <ele>334.917</ele>
        <time>2015-08-14T21:53:07Z</time>
      </trkpt>
      <trkpt lat="39.86368" lon="-7.40934">
        <ele>342.208</ele>
        <time>2015-08-14T21:54:15Z</time>
      </trkpt>
      <trkpt lat="39.86448" lon="-7.41349">
        <ele>355.679</ele>
        <time>2015-08-14T21:54:52Z</time>
      </trkpt>
      <trkpt lat="39.86495" lon="-7.41423">
        <ele>355.058</ele>
        <time>2015-08-14T21:55:05Z</time>
      </trkpt>
      <trkpt lat="39.86399" lon="-7.41434">
        <ele>354.066</ele>
        <time>2015-08-14T21:55:36Z</time>
      </trkpt>
      <trkpt lat="39.86322" lon="-7.415">
        <ele>351.075</ele>
        <time>2015-08-14T21:55:50Z</time>
      </trkpt>
      <trkpt lat="39.86129" lon="-7.41592">
        <ele>347.385</ele>
        <time>2015-08-14T21:56:18Z</time>
      </trkpt>
      <trkpt lat="39.86047" lon="-7.41629">
        <ele>346.398</ele>
        <time>2015-08-14T21:56:29Z</time>
      </trkpt>
      <trkpt lat="39.85933" lon="-7.41642">
        <ele>342.636</ele>
        <time>2015-08-14T21:56:43Z</time>
      </trkpt>
      <trkpt lat="39.85836" lon="-7.4159">
        <ele>342.01</ele>
        <time>2015-08-14T21:56:55Z</time>
      </trkpt>
      <trkpt lat="39.858" lon="-7.41594">
        <ele>341.833</ele>
        <time>2015-08-14T21:57:01Z</time>
      </trkpt>
      <trkpt lat="39.85537" lon="-7.41598">
        <ele>333.823</ele>
        <time>2015-08-14T21:57:37Z</time>
      </trkpt>
      <trkpt lat="39.85454" lon="-7.41518">
        <ele>334.315</ele>
        <time>2015-08-14T21:57:51Z</time>
      </trkpt>
      <trkpt lat="39.85438" lon="-7.41317">
        <ele>336.108</ele>
        <time>2015-08-14T21:58:10Z</time>
      </trkpt>
      <trkpt lat="39.85408" lon="-7.41247">
        <ele>335.344</ele>
        <time>2015-08-14T21:58:17Z</time>
      </trkpt>
      <trkpt lat="39.85123" lon="-7.41048">
        <ele>312.183</ele>
        <time>2015-08-14T21:59:13Z</time>
      </trkpt>
      <trkpt lat="39.85097" lon="-7.41051">
        <ele>309.631</ele>
        <time>2015-08-14T21:59:20Z</time>
      </trkpt>
      <trkpt lat="39.85024" lon="-7.40942">
        <ele>302.99</ele>
        <time>2015-08-14T21:59:42Z</time>
      </trkpt>
      <trkpt lat="39.85013" lon="-7.40932">
        <ele>302.61</ele>
        <time>2015-08-14T21:59:44Z</time>
      </trkpt>
      <trkpt lat="39.84982" lon="-7.40947">
        <ele>302.353</ele>
        <time>2015-08-14T21:59:48Z</time>
      </trkpt>
      <trkpt lat="39.84895" lon="-7.41096">
        <ele>292.651</ele>
        <time>2015-08-14T22:00:01Z</time>
      </trkpt>
      <trkpt lat="39.84786" lon="-7.41076">
        <ele>293.725</ele>
        <time>2015-08-14T22:00:13Z</time>
      </trkpt>
      <trkpt lat="39.847" lon="-7.40976">
        <ele>297.666</ele>
        <time>2015-08-14T22:00:24Z</time>
      </trkpt>
      <trkpt lat="39.84669" lon="-7.40794">
        <ele>305.429</ele>
        <time>2015-08-14T22:00:41Z</time>
      </trkpt>
      <trkpt lat="39.84563" lon="-7.40509">
        <ele>318.521</ele>
        <time>2015-08-14T22:01:10Z</time>
      </trkpt>
      <trkpt lat="39.84502" lon="-7.40465">
        <ele>323.008</ele>
        <time>2015-08-14T22:01:16Z</time>
      </trkpt>
      <trkpt lat="39.84455" lon="-7.40387">
        <ele>326.627</ele>
        <time>2015-08-14T22:01:22Z</time>
      </trkpt>
      <trkpt lat="39.84351" lon="-7.40351">
        <ele>328.556</ele>
        <time>2015-08-14T22:01:30Z</time>
      </trkpt>
      <trkpt lat="39.84196" lon="-7.40362">
        <ele>335.974</ele>
        <time>2015-08-14T22:01:39Z</time>
      </trkpt>
      <trkpt lat="39.84063" lon="-7.40417">
        <ele>341.733</ele>
        <time>2015-08-14T22:01:48Z</time>
      </trkpt>
      <trkpt lat="39.83952" lon="-7.40466">
        <ele>340.553</ele>
        <time>2015-08-14T22:01:56Z</time>
      </trkpt>
      <trkpt lat="39.83887" lon="-7.40533">
        <ele>341.046</ele>
        <time>2015-08-14T22:02:01Z</time>
      </trkpt>
      <trkpt lat="39.83825" lon="-7.40669">
        <ele>341.994</ele>
        <time>2015-08-14T22:02:09Z</time>
      </trkpt>
      <trkpt lat="39.83807" lon="-7.40725">
        <ele>340.948</ele>
        <time>2015-08-14T22:02:12Z</time>
      </trkpt>
      <trkpt lat="39.83704" lon="-7.40819">
        <ele>348.756</ele>
        <time>2015-08-14T22:02:20Z</time>
      </trkpt>
      <trkpt lat="39.83606" lon="-7.40952">
        <ele>355.259</ele>
        <time>2015-08-14T22:02:28Z</time>
      </trkpt>
      <trkpt lat="39.83501" lon="-7.41113">
        <ele>361.014</ele>
        <time>2015-08-14T22:02:37Z</time>
      </trkpt>
      <trkpt lat="39.83472" lon="-7.41286">
        <ele>357.008</ele>
        <time>2015-08-14T22:02:45Z</time>
      </trkpt>
      <trkpt lat="39.83459" lon="-7.41372">
        <ele>358.216</ele>
        <time>2015-08-14T22:02:49Z</time>
      </trkpt>
      <trkpt lat="39.83304" lon="-7.41651">
        <ele>361.915</ele>
        <time>2015-08-14T22:03:05Z</time>
      </trkpt>
      <trkpt lat="39.83278" lon="-7.41921">
        <ele>357.973</ele>
        <time>2015-08-14T22:03:18Z</time>
      </trkpt>
      <trkpt lat="39.83183" lon="-7.42081">
        <ele>353.652</ele>
        <time>2015-08-14T22:03:28Z</time>
      </trkpt>
      <trkpt lat="39.83148" lon="-7.42244">
        <ele>356.522</ele>
        <time>2015-08-14T22:03:35Z</time>
      </trkpt>
      <trkpt lat="39.83189" lon="-7.42464">
        <ele>363.465</ele>
        <time>2015-08-14T22:03:45Z</time>
      </trkpt>
      <trkpt lat="39.83179" lon="-7.42636">
        <ele>355.623</ele>
        <time>2015-08-14T22:03:53Z</time>
      </trkpt>
      <trkpt lat="39.8303" lon="-7.42887">
        <ele>360.937</ele>
        <time>2015-08-14T22:04:08Z</time>
      </trkpt>
      <trkpt lat="39.82981" lon="-7.43">
        <ele>363.415</ele>
        <time>2015-08-14T22:04:13Z</time>
      </trkpt>
      <trkpt lat="39.82786" lon="-7.43314">
        <ele>367.765</ele>
        <time>2015-08-14T22:04:29Z</time>
      </trkpt>
      <trkpt lat="39.8281" lon="-7.43751">
        <ele>371.011</ele>
        <time>2015-08-14T22:04:47Z</time>
      </trkpt>
      <trkpt lat="39.82795" lon="-7.43844">
        <ele>373.408</ele>
        <time>2015-08-14T22:04:52Z</time>
      </trkpt>
      <trkpt lat="39.8271" lon="-7.43946">
        <ele>371.422</ele>
        <time>2015-08-14T22:04:59Z</time>
      </trkpt>
      <trkpt lat="39.8263" lon="-7.44056">
        <ele>371.751</ele>
        <time>2015-08-14T22:05:09Z</time>
      </trkpt>
      <trkpt lat="39.82241" lon="-7.44029">
        <ele>366.019</ele>
        <time>2015-08-14T22:06:52Z</time>
      </trkpt>
      <trkpt lat="39.82138" lon="-7.43946">
        <ele>359.718</ele>
        <time>2015-08-14T22:07:28Z</time>
      </trkpt>
      <trkpt lat="39.82091" lon="-7.43942">
        <ele>355.228</ele>
        <time>2015-08-14T22:07:41Z</time>
      </trkpt>
      <trkpt lat="39.81897" lon="-7.44048">
        <ele>345.151</ele>
        <time>2015-08-14T22:08:27Z</time>
      </trkpt>
      <trkpt lat="39.81843" lon="-7.44057">
        <ele>344.359</ele>
        <time>2015-08-14T22:08:48Z</time>
      </trkpt>
      <trkpt lat="39.81874" lon="-7.44483">
        <ele>336.793</ele>
        <time>2015-08-14T22:10:21Z</time>
      </trkpt>
      <trkpt lat="39.81789" lon="-7.44704">
        <ele>327.786</ele>
        <time>2015-08-14T22:11:11Z</time>
      </trkpt>
      <trkpt lat="39.81843" lon="-7.44911">
        <ele>335.76</ele>
        <time>2015-08-14T22:12:09Z</time>
      </trkpt>
      <trkpt lat="39.81893" lon="-7.44902">
        <ele>340.926</ele>
        <time>2015-08-14T22:12:57Z</time>
      </trkpt>
      <trkpt lat="39.8199" lon="-7.44962">
        <ele>348.708</ele>
        <time>2015-08-14T22:13:15Z</time>
      </trkpt>
      <trkpt lat="39.8207" lon="-7.45032">
        <ele>351.339</ele>
        <time>2015-08-14T22:13:30Z</time>
      </trkpt>
      <trkpt lat="39.82073" lon="-7.45065">
        <ele>349.558</ele>
        <time>2015-08-14T22:13:34Z</time>
      </trkpt>
      <trkpt lat="39.82071" lon="-7.45133">
        <ele>342.296</ele>
        <time>2015-08-14T22:13:41Z</time>
      </trkpt>
      <trkpt lat="39.82036" lon="-7.45138">
        <ele>338.985</ele>
        <time>2015-08-14T22:13:47Z</time>
      </trkpt>
      <trkpt lat="39.81968" lon="-7.45133">
        <ele>338.215</ele>
        <time>2015-08-14T22:13:55Z</time>
      </trkpt>
      <trkpt lat="39.81878" lon="-7.45202">
        <ele>331.328</ele>
        <time>2015-08-14T22:14:11Z</time>
      </trkpt>
      <trkpt lat="39.81887" lon="-7.45323">
        <ele>336.646</ele>
        <time>2015-08-14T22:14:21Z</time>
      </trkpt>
      <trkpt lat="39.81908" lon="-7.45467">
        <ele>346.84</ele>
        <time>2015-08-14T22:14:39Z</time>
      </trkpt>
      <trkpt lat="39.81825" lon="-7.45538">
        <ele>350.972</ele>
        <time>2015-08-15T07:18:51Z</time>
      </trkpt>
      <trkpt lat="39.81696" lon="-7.45661">
        <ele>361.413</ele>
        <time>2015-08-15T07:19:07Z</time>
      </trkpt>
      <trkpt lat="39.81678" lon="-7.45766">
        <ele>356.414</ele>
        <time>2015-08-15T07:19:15Z</time>
      </trkpt>
      <trkpt lat="39.81647" lon="-7.45976">
        <ele>358.208</ele>
        <time>2015-08-15T07:19:39Z</time>
      </trkpt>
      <trkpt lat="39.81501" lon="-7.46106">
        <ele>360.918</ele>
        <time>2015-08-15T07:20:25Z</time>
      </trkpt>
      <trkpt lat="39.81346" lon="-7.46135">
        <ele>365.927</ele>
        <time>2015-08-15T07:20:40Z</time>
      </trkpt>
      <trkpt lat="39.8127" lon="-7.46262">
        <ele>369.515</ele>
        <time>2015-08-15T07:21:13Z</time>
      </trkpt>
      <trkpt lat="39.81074" lon="-7.46388">
        <ele>372.624</ele>
        <time>2015-08-15T07:21:47Z</time>
      </trkpt>
      <trkpt lat="39.81004" lon="-7.46514">
        <ele>378.784</ele>
        <time>2015-08-15T07:22:06Z</time>
      </trkpt>
      <trkpt lat="39.80844" lon="-7.46658">
        <ele>387.287</ele>
        <time>2015-08-15T07:22:31Z</time>
      </trkpt>
      <trkpt lat="39.8083" lon="-7.46694">
        <ele>388.855</ele>
        <time>2015-08-15T07:22:35Z</time>
      </trkpt>
      <trkpt lat="39.8079" lon="-7.46759">
        <ele>386.639</ele>
        <time>2015-08-15T07:22:45Z</time>
      </trkpt>
      <trkpt lat="39.80669" lon="-7.46868">
        <ele>380.525</ele>
        <time>2015-08-15T07:23:18Z</time>
      </trkpt>
      <trkpt lat="39.80595" lon="-7.46905">
        <ele>373.826</ele>
        <time>2015-08-15T07:23:49Z</time>
      </trkpt>
      <trkpt lat="39.80331" lon="-7.4711">
        <ele>355.808</ele>
        <time>2015-08-15T07:25:06Z</time>
      </trkpt>
      <trkpt lat="39.80197" lon="-7.4745">
        <ele>350.808</ele>
        <time>2015-08-15T07:25:49Z</time>
      </trkpt>
      <trkpt lat="39.80073" lon="-7.47486">
        <ele>335.183</ele>
        <time>2015-08-15T07:26:09Z</time>
      </trkpt>
      <trkpt lat="39.80001" lon="-7.47714">
        <ele>318.442</ele>
        <time>2015-08-15T07:26:46Z</time>
      </trkpt>
      <trkpt lat="39.80072" lon="-7.478">
        <ele>322.23</ele>
        <time>2015-08-15T07:27:18Z</time>
      </trkpt>
      <trkpt lat="39.80188" lon="-7.47817">
        <ele>325.359</ele>
        <time>2015-08-15T07:27:34Z</time>
      </trkpt>
      <trkpt lat="39.80172" lon="-7.47928">
        <ele>337.049</ele>
        <time>2015-08-15T07:27:47Z</time>
      </trkpt>
      <trkpt lat="39.80137" lon="-7.48084">
        <ele>342.922</ele>
        <time>2015-08-15T07:28:02Z</time>
      </trkpt>
      <trkpt lat="39.80219" lon="-7.48152">
        <ele>347.25</ele>
        <time>2015-08-15T07:28:12Z</time>
      </trkpt>
      <trkpt lat="39.80298" lon="-7.48213">
        <ele>359.594</ele>
        <time>2015-08-15T07:28:18Z</time>
      </trkpt>
      <trkpt lat="39.80488" lon="-7.48222">
        <ele>362.983</ele>
        <time>2015-08-15T07:28:31Z</time>
      </trkpt>
      <trkpt lat="39.80567" lon="-7.48282">
        <ele>361.825</ele>
        <time>2015-08-15T07:28:41Z</time>
      </trkpt>
      <trkpt lat="39.80464" lon="-7.4842">
        <ele>354.017</ele>
        <time>2015-08-15T07:28:52Z</time>
      </trkpt>
      <trkpt lat="39.79952" lon="-7.49158">
        <ele>317.308</ele>
        <time>2015-08-15T07:29:25Z</time>
      </trkpt>
      <trkpt lat="39.79715" lon="-7.4953">
        <ele>332.199</ele>
        <time>2015-08-15T07:29:41Z</time>
      </trkpt>
      <trkpt lat="39.79684" lon="-7.49617">
        <ele>321.348</ele>
        <time>2015-08-15T07:29:47Z</time>
      </trkpt>
      <trkpt lat="39.79442" lon="-7.50099">
        <ele>339.066</ele>
        <time>2015-08-15T07:30:12Z</time>
      </trkpt>
      <trkpt lat="39.79383" lon="-7.50373">
        <ele>353.445</ele>
        <time>2015-08-15T07:30:21Z</time>
      </trkpt>
      <trkpt lat="39.79386" lon="-7.50603">
        <ele>345.015</ele>
        <time>2015-08-15T07:30:28Z</time>
      </trkpt>
      <trkpt lat="39.79402" lon="-7.50887">
        <ele>328.868</ele>
        <time>2015-08-15T07:30:36Z</time>
      </trkpt>
      <trkpt lat="39.79453" lon="-7.51648">
        <ele>358.656</ele>
        <time>2015-08-15T07:30:57Z</time>
      </trkpt>
      <trkpt lat="39.79537" lon="-7.52076">
        <ele>352.01</ele>
        <time>2015-08-15T07:31:09Z</time>
      </trkpt>
      <trkpt lat="39.79717" lon="-7.53245">
        <ele>375.437</ele>
        <time>2015-08-15T07:31:42Z</time>
      </trkpt>
      <trkpt lat="39.79814" lon="-7.53413">
        <ele>378.649</ele>
        <time>2015-08-15T07:31:51Z</time>
      </trkpt>
      <trkpt lat="39.7986" lon="-7.53414">
        <ele>378.013</ele>
        <time>2015-08-15T07:31:57Z</time>
      </trkpt>
      <trkpt lat="39.7989" lon="-7.53428">
        <ele>379.408</ele>
        <time>2015-08-15T07:32:02Z</time>
      </trkpt>
      <trkpt lat="39.79782" lon="-7.53647">
        <ele>383.964</ele>
        <time>2015-08-15T07:32:19Z</time>
      </trkpt>
      <trkpt lat="39.79694" lon="-7.53853">
        <ele>385.343</ele>
        <time>2015-08-15T07:32:29Z</time>
      </trkpt>
      <trkpt lat="39.79448" lon="-7.54477">
        <ele>378.841</ele>
        <time>2015-08-15T07:32:54Z</time>
      </trkpt>
      <trkpt lat="39.79134" lon="-7.55558">
        <ele>388.88</ele>
        <time>2015-08-15T07:33:31Z</time>
      </trkpt>
      <trkpt lat="39.7897" lon="-7.55976">
        <ele>377.76</ele>
        <time>2015-08-15T07:33:46Z</time>
      </trkpt>
      <trkpt lat="39.78692" lon="-7.5662">
        <ele>380.853</ele>
        <time>2015-08-15T07:34:08Z</time>
      </trkpt>
      <trkpt lat="39.78609" lon="-7.56834">
        <ele>386.121</ele>
        <time>2015-08-15T07:34:20Z</time>
      </trkpt>
      <trkpt lat="39.78621" lon="-7.56898">
        <ele>384.875</ele>
        <time>2015-08-15T07:34:27Z</time>
      </trkpt>
      <trkpt lat="39.78601" lon="-7.56926">
        <ele>383.971</ele>
        <time>2015-08-15T07:34:31Z</time>
      </trkpt>
      <trkpt lat="39.7854" lon="-7.56916">
        <ele>384.541</ele>
        <time>2015-08-15T07:34:39Z</time>
      </trkpt>
      <trkpt lat="39.78438" lon="-7.56996">
        <ele>387.915</ele>
        <time>2015-08-15T07:34:57Z</time>
      </trkpt>
      <trkpt lat="39.78305" lon="-7.57402">
        <ele>388.508</ele>
        <time>2015-08-15T07:35:22Z</time>
      </trkpt>
      <trkpt lat="39.77791" lon="-7.58367">
        <ele>384.268</ele>
        <time>2015-08-15T07:36:08Z</time>
      </trkpt>
      <trkpt lat="39.77657" lon="-7.58476">
        <ele>378.827</ele>
        <time>2015-08-15T07:36:15Z</time>
      </trkpt>
      <trkpt lat="39.77239" lon="-7.58654">
        <ele>402.495</ele>
        <time>2015-08-15T07:36:33Z</time>
      </trkpt>
      <trkpt lat="39.77103" lon="-7.58723">
        <ele>417.494</ele>
        <time>2015-08-15T07:36:39Z</time>
      </trkpt>
      <trkpt lat="39.77002" lon="-7.58812">
        <ele>421.734</ele>
        <time>2015-08-15T07:36:44Z</time>
      </trkpt>
      <trkpt lat="39.76711" lon="-7.59376">
        <ele>396.157</ele>
        <time>2015-08-15T07:37:06Z</time>
      </trkpt>
      <trkpt lat="39.7637" lon="-7.598">
        <ele>394.335</ele>
        <time>2015-08-15T07:37:25Z</time>
      </trkpt>
      <trkpt lat="39.7601" lon="-7.60356">
        <ele>381.449</ele>
        <time>2015-08-15T07:37:48Z</time>
      </trkpt>
      <trkpt lat="39.75946" lon="-7.60392">
        <ele>376.814</ele>
        <time>2015-08-15T07:37:52Z</time>
      </trkpt>
      <trkpt lat="39.75856" lon="-7.60442">
        <ele>371.454</ele>
        <time>2015-08-15T07:37:59Z</time>
      </trkpt>
      <trkpt lat="39.75836" lon="-7.60487">
        <ele>371.209</ele>
        <time>2015-08-15T07:38:03Z</time>
      </trkpt>
      <trkpt lat="39.75775" lon="-7.60567">
        <ele>364.408</ele>
        <time>2015-08-15T07:38:13Z</time>
      </trkpt>
      <trkpt lat="39.75739" lon="-7.60805">
        <ele>364.682</ele>
        <time>2015-08-15T07:38:26Z</time>
      </trkpt>
      <trkpt lat="39.7562" lon="-7.61013">
        <ele>372.141</ele>
        <time>2015-08-15T07:38:37Z</time>
      </trkpt>
      <trkpt lat="39.75457" lon="-7.61294">
        <ele>372.319</ele>
        <time>2015-08-15T07:38:49Z</time>
      </trkpt>
      <trkpt lat="39.75119" lon="-7.6211">
        <ele>345.518</ele>
        <time>2015-08-15T07:39:23Z</time>
      </trkpt>
      <trkpt lat="39.75122" lon="-7.62149">
        <ele>349.198</ele>
        <time>2015-08-15T07:39:26Z</time>
      </trkpt>
      <trkpt lat="39.75175" lon="-7.62164">
        <ele>346.411</ele>
        <time>2015-08-15T07:39:32Z</time>
      </trkpt>
      <trkpt lat="39.75174" lon="-7.62079">
        <ele>344.469</ele>
        <time>2015-08-15T07:39:39Z</time>
      </trkpt>
      <trkpt lat="39.75155" lon="-7.62065">
        <ele>344.883</ele>
        <time>2015-08-15T07:39:41Z</time>
      </trkpt>
      <trkpt lat="39.74974" lon="-7.62034">
        <ele>340.974</ele>
        <time>2015-08-15T07:39:54Z</time>
      </trkpt>
      <trkpt lat="39.7332" lon="-7.62165">
        <ele>314.156</ele>
        <time>2015-08-15T07:41:18Z</time>
      </trkpt>
      <trkpt lat="39.72894" lon="-7.6236">
        <ele>308.321</ele>
        <time>2015-08-15T07:41:36Z</time>
      </trkpt>
      <trkpt lat="39.72588" lon="-7.62443">
        <ele>306.708</ele>
        <time>2015-08-15T07:41:50Z</time>
      </trkpt>
      <trkpt lat="39.72454" lon="-7.6256">
        <ele>308.388</ele>
        <time>2015-08-15T07:41:58Z</time>
      </trkpt>
      <trkpt lat="39.72133" lon="-7.6261">
        <ele>308.487</ele>
        <time>2015-08-15T07:42:12Z</time>
      </trkpt>
      <trkpt lat="39.71924" lon="-7.62651">
        <ele>301.735</ele>
        <time>2015-08-15T07:42:21Z</time>
      </trkpt>
      <trkpt lat="39.715" lon="-7.62889">
        <ele>298.084</ele>
        <time>2015-08-15T07:43:49Z</time>
      </trkpt>
      <trkpt lat="39.71453" lon="-7.6297">
        <ele>297.534</ele>
        <time>2015-08-15T07:43:59Z</time>
      </trkpt>
      <trkpt lat="39.71393" lon="-7.63009">
        <ele>303.717</ele>
        <time>2015-08-15T07:44:08Z</time>
      </trkpt>
      <trkpt lat="39.71374" lon="-7.63028">
        <ele>304.995</ele>
        <time>2015-08-15T07:44:12Z</time>
      </trkpt>
      <trkpt lat="39.71372" lon="-7.631">
        <ele>310.029</ele>
        <time>2015-08-15T07:44:26Z</time>
      </trkpt>
      <trkpt lat="39.71306" lon="-7.63117">
        <ele>312.267</ele>
        <time>2015-08-15T07:44:38Z</time>
      </trkpt>
      <trkpt lat="39.71276" lon="-7.63145">
        <ele>309.581</ele>
        <time>2015-08-15T07:44:53Z</time>
      </trkpt>
      <trkpt lat="39.71192" lon="-7.6313">
        <ele>306.919</ele>
        <time>2015-08-15T07:45:07Z</time>
      </trkpt>
      <trkpt lat="39.71088" lon="-7.63217">
        <ele>309.108</ele>
        <time>2015-08-15T07:45:23Z</time>
      </trkpt>
      <trkpt lat="39.70823" lon="-7.63136">
        <ele>309.677</ele>
        <time>2015-08-15T07:47:01Z</time>
      </trkpt>
      <trkpt lat="39.70503" lon="-7.63198">
        <ele>310.956</ele>
        <time>2015-08-15T07:47:50Z</time>
      </trkpt>
      <trkpt lat="39.70363" lon="-7.63178">
        <ele>300.994</ele>
        <time>2015-08-15T07:48:10Z</time>
      </trkpt>
      <trkpt lat="39.70335" lon="-7.63251">
        <ele>303.943</ele>
        <time>2015-08-15T07:48:19Z</time>
      </trkpt>
      <trkpt lat="39.70229" lon="-7.63318">
        <ele>297.343</ele>
        <time>2015-08-15T07:48:33Z</time>
      </trkpt>
      <trkpt lat="39.70197" lon="-7.63423">
        <ele>294.316</ele>
        <time>2015-08-15T07:48:44Z</time>
      </trkpt>
      <trkpt lat="39.70111" lon="-7.63511">
        <ele>290.074</ele>
        <time>2015-08-15T07:49:03Z</time>
      </trkpt>
      <trkpt lat="39.70064" lon="-7.63516">
        <ele>286.938</ele>
        <time>2015-08-15T07:49:11Z</time>
      </trkpt>
      <trkpt lat="39.70034" lon="-7.63478">
        <ele>286.639</ele>
        <time>2015-08-15T07:49:20Z</time>
      </trkpt>
      <trkpt lat="39.69913" lon="-7.63678">
        <ele>275.101</ele>
        <time>2015-08-15T07:49:45Z</time>
      </trkpt>
      <trkpt lat="39.69921" lon="-7.63713">
        <ele>276.321</ele>
        <time>2015-08-15T07:50:18Z</time>
      </trkpt>
      <trkpt lat="39.69985" lon="-7.63736">
        <ele>277.408</ele>
        <time>2015-08-15T07:50:30Z</time>
      </trkpt>
      <trkpt lat="39.69991" lon="-7.63768">
        <ele>276.764</ele>
        <time>2015-08-15T07:50:35Z</time>
      </trkpt>
      <trkpt lat="39.69976" lon="-7.6386">
        <ele>278.973</ele>
        <time>2015-08-15T07:50:46Z</time>
      </trkpt>
      <trkpt lat="39.70012" lon="-7.63903">
        <ele>280.861</ele>
        <time>2015-08-15T07:50:56Z</time>
      </trkpt>
      <trkpt lat="39.69952" lon="-7.64005">
        <ele>286.51</ele>
        <time>2015-08-15T07:51:12Z</time>
      </trkpt>
      <trkpt lat="39.69762" lon="-7.64145">
        <ele>278.39</ele>
        <time>2015-08-15T07:51:43Z</time>
      </trkpt>
      <trkpt lat="39.69735" lon="-7.6429">
        <ele>282.343</ele>
        <time>2015-08-15T07:52:11Z</time>
      </trkpt>
      <trkpt lat="39.69784" lon="-7.64446">
        <ele>278.731</ele>
        <time>2015-08-15T07:52:45Z</time>
      </trkpt>
      <trkpt lat="39.69758" lon="-7.64492">
        <ele>277.625</ele>
        <time>2015-08-15T07:52:52Z</time>
      </trkpt>
      <trkpt lat="39.69716" lon="-7.6453">
        <ele>274.348</ele>
        <time>2015-08-15T07:52:59Z</time>
      </trkpt>
      <trkpt lat="39.69709" lon="-7.64664">
        <ele>270.161</ele>
        <time>2015-08-15T07:53:14Z</time>
      </trkpt>
      <trkpt lat="39.69524" lon="-7.64819">
        <ele>261.517</ele>
        <time>2015-08-15T07:54:08Z</time>
      </trkpt>
      <trkpt lat="39.6926" lon="-7.64864">
        <ele>237.508</ele>
        <time>2015-08-15T07:54:51Z</time>
      </trkpt>
      <trkpt lat="39.69244" lon="-7.64871">
        <ele>236.185</ele>
        <time>2015-08-15T07:54:54Z</time>
      </trkpt>
      <trkpt lat="39.69201" lon="-7.64885">
        <ele>231.784</ele>
        <time>2015-08-15T07:55:09Z</time>
      </trkpt>
      <trkpt lat="39.69158" lon="-7.65122">
        <ele>199.872</ele>
        <time>2015-08-15T07:56:15Z</time>
      </trkpt>
      <trkpt lat="39.69108" lon="-7.65231">
        <ele>185.741</ele>
        <time>2015-08-15T07:56:34Z</time>
      </trkpt>
      <trkpt lat="39.69077" lon="-7.65214">
        <ele>183.531</ele>
        <time>2015-08-15T07:56:42Z</time>
      </trkpt>
      <trkpt lat="39.69003" lon="-7.6518">
        <ele>179.134</ele>
        <time>2015-08-15T07:56:56Z</time>
      </trkpt>
      <trkpt lat="39.68887" lon="-7.65261">
        <ele>148.052</ele>
        <time>2015-08-15T07:57:37Z</time>
      </trkpt>
      <trkpt lat="39.68733" lon="-7.65289">
        <ele>135.176</ele>
        <time>2015-08-15T07:58:00Z</time>
      </trkpt>
      <trkpt lat="39.68647" lon="-7.65299">
        <ele>140.564</ele>
        <time>2015-08-15T07:58:10Z</time>
      </trkpt>
      <trkpt lat="39.68602" lon="-7.65326">
        <ele>132.906</ele>
        <time>2015-08-15T07:58:18Z</time>
      </trkpt>
      <trkpt lat="39.68558" lon="-7.65388">
        <ele>128.416</ele>
        <time>2015-08-15T07:58:28Z</time>
      </trkpt>
      <trkpt lat="39.68398" lon="-7.65512">
        <ele>110.208</ele>
        <time>2015-08-15T07:58:54Z</time>
      </trkpt>
      <trkpt lat="39.68299" lon="-7.6557">
        <ele>109.117</ele>
        <time>2015-08-15T07:59:01Z</time>
      </trkpt>
      <trkpt lat="39.67881" lon="-7.65524">
        <ele>99.866</ele>
        <time>2015-08-15T07:59:24Z</time>
      </trkpt>
      <trkpt lat="39.67625" lon="-7.65424">
        <ele>96.014</ele>
        <time>2015-08-15T07:59:38Z</time>
      </trkpt>
      <trkpt lat="39.67474" lon="-7.65432">
        <ele>92.783</ele>
        <time>2015-08-15T07:59:47Z</time>
      </trkpt>
      <trkpt lat="39.67376" lon="-7.6541">
        <ele>89.573</ele>
        <time>2015-08-15T07:59:55Z</time>
      </trkpt>
      <trkpt lat="39.67041" lon="-7.6549">
        <ele>86.446</ele>
        <time>2015-08-15T08:00:15Z</time>
      </trkpt>
      <trkpt lat="39.66865" lon="-7.65495">
        <ele>89.184</ele>
        <time>2015-08-15T08:00:23Z</time>
      </trkpt>
      <trkpt lat="39.66576" lon="-7.65489">
        <ele>86.418</ele>
        <time>2015-08-15T08:00:36Z</time>
      </trkpt>
      <trkpt lat="39.66429" lon="-7.65472">
        <ele>86.688</ele>
        <time>2015-08-15T08:00:43Z</time>
      </trkpt>
      <trkpt lat="39.65968" lon="-7.65513">
        <ele>84.124</ele>
        <time>2015-08-15T08:01:08Z</time>
      </trkpt>
      <trkpt lat="39.65784" lon="-7.6554">
        <ele>83.026</ele>
        <time>2015-08-15T08:01:18Z</time>
      </trkpt>
      <trkpt lat="39.65738" lon="-7.65546">
        <ele>88.508</ele>
        <time>2015-08-15T08:01:26Z</time>
      </trkpt>
      <trkpt lat="39.65682" lon="-7.65638">
        <ele>87.479</ele>
        <time>2015-08-15T08:01:39Z</time>
      </trkpt>
      <trkpt lat="39.65657" lon="-7.65788">
        <ele>82.298</ele>
        <time>2015-08-15T08:01:47Z</time>
      </trkpt>
      <trkpt lat="39.65636" lon="-7.65981">
        <ele>90.946</ele>
        <time>2015-08-15T08:01:57Z</time>
      </trkpt>
      <trkpt lat="39.65665" lon="-7.66314">
        <ele>98.415</ele>
        <time>2015-08-15T08:10:04Z</time>
      </trkpt>
      <trkpt lat="39.65664" lon="-7.66448">
        <ele>102.315</ele>
        <time>2015-08-15T08:10:12Z</time>
      </trkpt>
      <trkpt lat="39.65566" lon="-7.66659">
        <ele>105.998</ele>
        <time>2015-08-15T08:10:26Z</time>
      </trkpt>
      <trkpt lat="39.65396" lon="-7.66961">
        <ele>90.436</ele>
        <time>2015-08-15T08:10:45Z</time>
      </trkpt>
      <trkpt lat="39.65346" lon="-7.66976">
        <ele>94.14</ele>
        <time>2015-08-15T08:10:49Z</time>
      </trkpt>
      <trkpt lat="39.65305" lon="-7.67002">
        <ele>95.136</ele>
        <time>2015-08-15T08:10:53Z</time>
      </trkpt>
      <trkpt lat="39.65262" lon="-7.67258">
        <ele>98.217</ele>
        <time>2015-08-15T08:11:09Z</time>
      </trkpt>
      <trkpt lat="39.65204" lon="-7.67306">
        <ele>98.818</ele>
        <time>2015-08-15T08:11:14Z</time>
      </trkpt>
      <trkpt lat="39.65025" lon="-7.6739">
        <ele>99.508</ele>
        <time>2015-08-15T08:11:28Z</time>
      </trkpt>
      <trkpt lat="39.64907" lon="-7.67541">
        <ele>106.854</ele>
        <time>2015-08-15T08:11:39Z</time>
      </trkpt>
      <trkpt lat="39.64815" lon="-7.6767">
        <ele>106.943</ele>
        <time>2015-08-15T08:11:48Z</time>
      </trkpt>
      <trkpt lat="39.64775" lon="-7.67709">
        <ele>98.011</ele>
        <time>2015-08-15T08:11:53Z</time>
      </trkpt>
      <trkpt lat="39.64605" lon="-7.67569">
        <ele>98.98</ele>
        <time>2015-08-15T08:12:35Z</time>
      </trkpt>
      <trkpt lat="39.64595" lon="-7.67647">
        <ele>93.53</ele>
        <time>2015-08-15T08:14:22Z</time>
      </trkpt>
      <trkpt lat="39.64564" lon="-7.67707">
        <ele>87.453</ele>
        <time>2015-08-15T08:14:33Z</time>
      </trkpt>
      <trkpt lat="39.64448" lon="-7.67834">
        <ele>80.691</ele>
        <time>2015-08-15T08:15:01Z</time>
      </trkpt>
      <trkpt lat="39.64352" lon="-7.68027">
        <ele>82.515</ele>
        <time>2015-08-15T08:15:39Z</time>
      </trkpt>
      <trkpt lat="39.64307" lon="-7.68066">
        <ele>96.266</ele>
        <time>2015-08-15T08:15:50Z</time>
      </trkpt>
      <trkpt lat="39.64275" lon="-7.68258">
        <ele>120.929</ele>
        <time>2015-08-15T08:16:24Z</time>
      </trkpt>
      <trkpt lat="39.6417" lon="-7.68083">
        <ele>136.121</ele>
        <time>2015-08-15T08:17:20Z</time>
      </trkpt>
      <trkpt lat="39.64079" lon="-7.68014">
        <ele>153.008</ele>
        <time>2015-08-15T08:17:57Z</time>
      </trkpt>
      <trkpt lat="39.64065" lon="-7.67942">
        <ele>161.687</ele>
        <time>2015-08-15T08:18:15Z</time>
      </trkpt>
      <trkpt lat="39.64035" lon="-7.67902">
        <ele>168.136</ele>
        <time>2015-08-15T08:18:24Z</time>
      </trkpt>
      <trkpt lat="39.63969" lon="-7.67869">
        <ele>169.314</ele>
        <time>2015-08-15T08:18:38Z</time>
      </trkpt>
      <trkpt lat="39.63517" lon="-7.6776">
        <ele>218.313</ele>
        <time>2015-08-15T08:21:17Z</time>
      </trkpt>
      <trkpt lat="39.63424" lon="-7.67696">
        <ele>225.343</ele>
        <time>2015-08-15T08:21:44Z</time>
      </trkpt>
      <trkpt lat="39.63069" lon="-7.67487">
        <ele>251.756</ele>
        <time>2015-08-15T08:22:44Z</time>
      </trkpt>
      <trkpt lat="39.62843" lon="-7.67408">
        <ele>273.564</ele>
        <time>2015-08-15T08:23:24Z</time>
      </trkpt>
      <trkpt lat="39.627" lon="-7.67344">
        <ele>276.138</ele>
        <time>2015-08-15T08:23:43Z</time>
      </trkpt>
      <trkpt lat="39.6258" lon="-7.67345">
        <ele>280.258</ele>
        <time>2015-08-15T08:24:01Z</time>
      </trkpt>
      <trkpt lat="39.62324" lon="-7.6713">
        <ele>287.952</ele>
        <time>2015-08-15T08:24:57Z</time>
      </trkpt>
      <trkpt lat="39.62115" lon="-7.66961">
        <ele>297.717</ele>
        <time>2015-08-15T08:25:22Z</time>
      </trkpt>
      <trkpt lat="39.62035" lon="-7.66936">
        <ele>298.008</ele>
        <time>2015-08-15T08:25:31Z</time>
      </trkpt>
      <trkpt lat="39.61858" lon="-7.66884">
        <ele>304.056</ele>
        <time>2015-08-15T08:25:52Z</time>
      </trkpt>
      <trkpt lat="39.61771" lon="-7.66838">
        <ele>305.415</ele>
        <time>2015-08-15T08:26:04Z</time>
      </trkpt>
      <trkpt lat="39.6171" lon="-7.66756">
        <ele>312.133</ele>
        <time>2015-08-15T08:26:17Z</time>
      </trkpt>
      <trkpt lat="39.61579" lon="-7.66681">
        <ele>314.752</ele>
        <time>2015-08-15T08:26:35Z</time>
      </trkpt>
      <trkpt lat="39.613" lon="-7.66603">
        <ele>324.072</ele>
        <time>2015-08-15T08:27:06Z</time>
      </trkpt>
      <trkpt lat="39.61137" lon="-7.66419">
        <ele>323.265</ele>
        <time>2015-08-15T08:27:34Z</time>
      </trkpt>
      <trkpt lat="39.61066" lon="-7.6637">
        <ele>323.873</ele>
        <time>2015-08-15T08:27:47Z</time>
      </trkpt>
      <trkpt lat="39.6106" lon="-7.66359">
        <ele>324.197</ele>
        <time>2015-08-15T08:28:00Z</time>
      </trkpt>
      <trkpt lat="39.61059" lon="-7.66356">
        <ele>324.425</ele>
        <time>2015-08-15T08:28:18Z</time>
      </trkpt>
      <trkpt lat="39.60943" lon="-7.66348">
        <ele>325.426</ele>
        <time>2015-08-15T08:28:34Z</time>
      </trkpt>
      <trkpt lat="39.60793" lon="-7.6632">
        <ele>318.208</ele>
        <time>2015-08-15T08:28:42Z</time>
      </trkpt>
      <trkpt lat="39.60547" lon="-7.66204">
        <ele>312.008</ele>
        <time>2015-08-15T08:28:55Z</time>
      </trkpt>
      <trkpt lat="39.6046" lon="-7.6605">
        <ele>308.893</ele>
        <time>2015-08-15T08:29:04Z</time>
      </trkpt>
      <trkpt lat="39.60275" lon="-7.6604">
        <ele>303.372</ele>
        <time>2015-08-15T08:29:17Z</time>
      </trkpt>
      <trkpt lat="39.60128" lon="-7.65978">
        <ele>298.96</ele>
        <time>2015-08-15T08:29:28Z</time>
      </trkpt>
      <trkpt lat="39.60058" lon="-7.66221">
        <ele>283.099</ele>
        <time>2015-08-15T08:29:42Z</time>
      </trkpt>
      <trkpt lat="39.60016" lon="-7.66251">
        <ele>280.379</ele>
        <time>2015-08-15T08:29:45Z</time>
      </trkpt>
      <trkpt lat="39.59948" lon="-7.66252">
        <ele>277.072</ele>
        <time>2015-08-15T08:29:49Z</time>
      </trkpt>
      <trkpt lat="39.59878" lon="-7.66235">
        <ele>275.59</ele>
        <time>2015-08-15T08:29:53Z</time>
      </trkpt>
      <trkpt lat="39.59821" lon="-7.66188">
        <ele>270.474</ele>
        <time>2015-08-15T08:29:58Z</time>
      </trkpt>
      <trkpt lat="39.59859" lon="-7.66028">
        <ele>270.221</ele>
        <time>2015-08-15T08:30:08Z</time>
      </trkpt>
      <trkpt lat="39.59835" lon="-7.65984">
        <ele>269.841</ele>
        <time>2015-08-15T08:30:11Z</time>
      </trkpt>
      <trkpt lat="39.59461" lon="-7.6592">
        <ele>254.705</ele>
        <time>2015-08-15T08:30:38Z</time>
      </trkpt>
      <trkpt lat="39.59213" lon="-7.65754">
        <ele>247.808</ele>
        <time>2015-08-15T08:30:58Z</time>
      </trkpt>
      <trkpt lat="39.59114" lon="-7.65727">
        <ele>244.133</ele>
        <time>2015-08-15T08:31:06Z</time>
      </trkpt>
      <trkpt lat="39.59027" lon="-7.65546">
        <ele>235.522</ele>
        <time>2015-08-15T08:31:18Z</time>
      </trkpt>
      <trkpt lat="39.58844" lon="-7.65447">
        <ele>224.98</ele>
        <time>2015-08-15T08:31:30Z</time>
      </trkpt>
      <trkpt lat="39.58653" lon="-7.65408">
        <ele>214.119</ele>
        <time>2015-08-15T08:31:43Z</time>
      </trkpt>
      <trkpt lat="39.5852" lon="-7.65446">
        <ele>205.229</ele>
        <time>2015-08-15T08:31:52Z</time>
      </trkpt>
      <trkpt lat="39.58455" lon="-7.65432">
        <ele>198.992</ele>
        <time>2015-08-15T08:31:56Z</time>
      </trkpt>
      <trkpt lat="39.58441" lon="-7.65428">
        <ele>198.55</ele>
        <time>2015-08-15T08:31:57Z</time>
      </trkpt>
      <trkpt lat="39.58388" lon="-7.65403">
        <ele>195.014</ele>
        <time>2015-08-15T08:32:03Z</time>
      </trkpt>
      <trkpt lat="39.58412" lon="-7.65271">
        <ele>206.452</ele>
        <time>2015-08-15T08:32:33Z</time>
      </trkpt>
      <trkpt lat="39.58288" lon="-7.6516">
        <ele>192.753</ele>
        <time>2015-08-15T08:32:43Z</time>
      </trkpt>
      <trkpt lat="39.58173" lon="-7.65069">
        <ele>183.308</ele>
        <time>2015-08-15T08:32:52Z</time>
      </trkpt>
      <trkpt lat="39.58134" lon="-7.64765">
        <ele>193.908</ele>
        <time>2015-08-15T08:33:09Z</time>
      </trkpt>
      <trkpt lat="39.57947" lon="-7.64696">
        <ele>191.436</ele>
        <time>2015-08-15T08:33:24Z</time>
      </trkpt>
      <trkpt lat="39.57843" lon="-7.64531">
        <ele>196.255</ele>
        <time>2015-08-15T08:33:34Z</time>
      </trkpt>
      <trkpt lat="39.57722" lon="-7.64399">
        <ele>199.933</ele>
        <time>2015-08-15T08:33:44Z</time>
      </trkpt>
      <trkpt lat="39.57617" lon="-7.6426">
        <ele>212.072</ele>
        <time>2015-08-15T08:33:53Z</time>
      </trkpt>
      <trkpt lat="39.57425" lon="-7.64061">
        <ele>229.942</ele>
        <time>2015-08-15T08:34:06Z</time>
      </trkpt>
      <trkpt lat="39.57278" lon="-7.63732">
        <ele>221.075</ele>
        <time>2015-08-15T08:34:23Z</time>
      </trkpt>
      <trkpt lat="39.57117" lon="-7.63485">
        <ele>237.343</ele>
        <time>2015-08-15T08:34:38Z</time>
      </trkpt>
      <trkpt lat="39.57037" lon="-7.63402">
        <ele>243.987</ele>
        <time>2015-08-15T08:34:45Z</time>
      </trkpt>
      <trkpt lat="39.57018" lon="-7.63373">
        <ele>244.513</ele>
        <time>2015-08-15T08:34:47Z</time>
      </trkpt>
      <trkpt lat="39.56985" lon="-7.63172">
        <ele>245.643</ele>
        <time>2015-08-15T08:34:56Z</time>
      </trkpt>
      <trkpt lat="39.56992" lon="-7.62547">
        <ele>200.707</ele>
        <time>2015-08-15T08:35:26Z</time>
      </trkpt>
      <trkpt lat="39.57031" lon="-7.62412">
        <ele>192.408</ele>
        <time>2015-08-15T08:35:38Z</time>
      </trkpt>
      <trkpt lat="39.57041" lon="-7.62376">
        <ele>188.752</ele>
        <time>2015-08-15T08:35:43Z</time>
      </trkpt>
      <trkpt lat="39.56747" lon="-7.62556">
        <ele>175.921</ele>
        <time>2015-08-15T08:36:15Z</time>
      </trkpt>
      <trkpt lat="39.56532" lon="-7.62695">
        <ele>170.419</ele>
        <time>2015-08-15T08:36:27Z</time>
      </trkpt>
      <trkpt lat="39.56262" lon="-7.62609">
        <ele>163.818</ele>
        <time>2015-08-15T08:36:41Z</time>
      </trkpt>
      <trkpt lat="39.56221" lon="-7.62606">
        <ele>164.748</ele>
        <time>2015-08-15T08:36:44Z</time>
      </trkpt>
      <trkpt lat="39.56185" lon="-7.6263">
        <ele>166.221</ele>
        <time>2015-08-15T08:36:48Z</time>
      </trkpt>
      <trkpt lat="39.56172" lon="-7.62652">
        <ele>164.829</ele>
        <time>2015-08-15T08:36:52Z</time>
      </trkpt>
      <trkpt lat="39.56157" lon="-7.62628">
        <ele>166.323</ele>
        <time>2015-08-15T08:37:11Z</time>
      </trkpt>
      <trkpt lat="39.56176" lon="-7.62356">
        <ele>171.358</ele>
        <time>2015-08-15T08:37:41Z</time>
      </trkpt>
      <trkpt lat="39.56226" lon="-7.62232">
        <ele>178.952</ele>
        <time>2015-08-15T08:38:37Z</time>
      </trkpt>
      <trkpt lat="39.56207" lon="-7.62058">
        <ele>202.617</ele>
        <time>2015-08-15T08:39:11Z</time>
      </trkpt>
      <trkpt lat="39.5615" lon="-7.61985">
        <ele>214.208</ele>
        <time>2015-08-15T08:39:34Z</time>
      </trkpt>
      <trkpt lat="39.56197" lon="-7.61915">
        <ele>220.996</ele>
        <time>2015-08-15T08:39:46Z</time>
      </trkpt>
      <trkpt lat="39.56298" lon="-7.61833">
        <ele>233.915</ele>
        <time>2015-08-15T08:40:01Z</time>
      </trkpt>
      <trkpt lat="39.56356" lon="-7.61748">
        <ele>233.713</ele>
        <time>2015-08-15T08:40:15Z</time>
      </trkpt>
      <trkpt lat="39.5643" lon="-7.61535">
        <ele>253.572</ele>
        <time>2015-08-15T08:40:55Z</time>
      </trkpt>
      <trkpt lat="39.5655" lon="-7.61113">
        <ele>253.392</ele>
        <time>2015-08-15T08:41:44Z</time>
      </trkpt>
      <trkpt lat="39.56531" lon="-7.60843">
        <ele>251.235</ele>
        <time>2015-08-15T08:42:09Z</time>
      </trkpt>
      <trkpt lat="39.56567" lon="-7.60735">
        <ele>252.043</ele>
        <time>2015-08-15T08:42:22Z</time>
      </trkpt>
      <trkpt lat="39.56504" lon="-7.60602">
        <ele>253.967</ele>
        <time>2015-08-15T08:42:59Z</time>
      </trkpt>
      <trkpt lat="39.5647" lon="-7.60449">
        <ele>260.967</ele>
        <time>2015-08-15T08:43:13Z</time>
      </trkpt>
      <trkpt lat="39.56449" lon="-7.60345">
        <ele>256.381</ele>
        <time>2015-08-15T08:43:24Z</time>
      </trkpt>
      <trkpt lat="39.5639" lon="-7.60373">
        <ele>262.019</ele>
        <time>2015-08-15T08:43:35Z</time>
      </trkpt>
      <trkpt lat="39.56331" lon="-7.60399">
        <ele>259.208</ele>
        <time>2015-08-15T08:43:45Z</time>
      </trkpt>
      <trkpt lat="39.56221" lon="-7.60203">
        <ele>244.777</ele>
        <time>2015-08-15T08:44:11Z</time>
      </trkpt>
      <trkpt lat="39.56178" lon="-7.60133">
        <ele>252.346</ele>
        <time>2015-08-15T08:44:26Z</time>
      </trkpt>
      <trkpt lat="39.56114" lon="-7.60095">
        <ele>255.014</ele>
        <time>2015-08-15T08:44:39Z</time>
      </trkpt>
      <trkpt lat="39.56091" lon="-7.60066">
        <ele>259.733</ele>
        <time>2015-08-15T08:44:48Z</time>
      </trkpt>
      <trkpt lat="39.55932" lon="-7.59727">
        <ele>267.133</ele>
        <time>2015-08-15T08:45:42Z</time>
      </trkpt>
      <trkpt lat="39.55932" lon="-7.59727">
        <ele>267.286</ele>
        <time>2015-08-15T08:46:01Z</time>
      </trkpt>
      <trkpt lat="39.56182" lon="-7.59706">
        <ele>274.074</ele>
        <time>2015-08-15T08:46:32Z</time>
      </trkpt>
      <trkpt lat="39.56345" lon="-7.59596">
        <ele>284.058</ele>
        <time>2015-08-15T08:46:54Z</time>
      </trkpt>
      <trkpt lat="39.56556" lon="-7.59387">
        <ele>284.295</ele>
        <time>2015-08-15T08:47:23Z</time>
      </trkpt>
      <trkpt lat="39.56731" lon="-7.59323">
        <ele>293.649</ele>
        <time>2015-08-15T08:47:40Z</time>
      </trkpt>
      <trkpt lat="39.56869" lon="-7.59321">
        <ele>294.423</ele>
        <time>2015-08-15T08:47:53Z</time>
      </trkpt>
      <trkpt lat="39.56831" lon="-7.59264">
        <ele>293.108</ele>
        <time>2015-08-15T08:48:23Z</time>
      </trkpt>
      <trkpt lat="39.56543" lon="-7.59054">
        <ele>295.29</ele>
        <time>2015-08-15T08:48:42Z</time>
      </trkpt>
      <trkpt lat="39.56395" lon="-7.58929">
        <ele>291.329</ele>
        <time>2015-08-15T08:48:52Z</time>
      </trkpt>
      <trkpt lat="39.56205" lon="-7.58508">
        <ele>286.687</ele>
        <time>2015-08-15T08:49:12Z</time>
      </trkpt>
      <trkpt lat="39.56068" lon="-7.58123">
        <ele>287.916</ele>
        <time>2015-08-15T08:49:28Z</time>
      </trkpt>
      <trkpt lat="39.56031" lon="-7.57919">
        <ele>295.026</ele>
        <time>2015-08-15T08:49:39Z</time>
      </trkpt>
      <trkpt lat="39.55978" lon="-7.57785">
        <ele>296.939</ele>
        <time>2015-08-15T08:49:48Z</time>
      </trkpt>
      <trkpt lat="39.55878" lon="-7.57646">
        <ele>300.877</ele>
        <time>2015-08-15T08:49:58Z</time>
      </trkpt>
      <trkpt lat="39.55834" lon="-7.57551">
        <ele>298.271</ele>
        <time>2015-08-15T08:50:03Z</time>
      </trkpt>
      <trkpt lat="39.55778" lon="-7.57387">
        <ele>300.973</ele>
        <time>2015-08-15T08:50:11Z</time>
      </trkpt>
      <trkpt lat="39.55727" lon="-7.5717">
        <ele>300.285</ele>
        <time>2015-08-15T08:50:22Z</time>
      </trkpt>
      <trkpt lat="39.55639" lon="-7.57068">
        <ele>302.913</ele>
        <time>2015-08-15T08:50:51Z</time>
      </trkpt>
      <trkpt lat="39.55569" lon="-7.57012">
        <ele>307.608</ele>
        <time>2015-08-15T08:50:59Z</time>
      </trkpt>
      <trkpt lat="39.55469" lon="-7.56923">
        <ele>307.828</ele>
        <time>2015-08-15T08:51:11Z</time>
      </trkpt>
      <trkpt lat="39.55359" lon="-7.56704">
        <ele>313.017</ele>
        <time>2015-08-15T08:51:30Z</time>
      </trkpt>
      <trkpt lat="39.55302" lon="-7.56602">
        <ele>307.775</ele>
        <time>2015-08-15T08:51:40Z</time>
      </trkpt>
      <trkpt lat="39.55129" lon="-7.56476">
        <ele>303.814</ele>
        <time>2015-08-15T08:51:59Z</time>
      </trkpt>
      <trkpt lat="39.54914" lon="-7.56432">
        <ele>303.544</ele>
        <time>2015-08-15T08:52:17Z</time>
      </trkpt>
      <trkpt lat="39.54659" lon="-7.56474">
        <ele>310.227</ele>
        <time>2015-08-15T08:52:39Z</time>
      </trkpt>
      <trkpt lat="39.54479" lon="-7.56405">
        <ele>316.465</ele>
        <time>2015-08-15T08:52:55Z</time>
      </trkpt>
      <trkpt lat="39.54286" lon="-7.56288">
        <ele>316.579</ele>
        <time>2015-08-15T08:53:12Z</time>
      </trkpt>
      <trkpt lat="39.54262" lon="-7.56261">
        <ele>315.215</ele>
        <time>2015-08-15T08:53:16Z</time>
      </trkpt>
      <trkpt lat="39.54143" lon="-7.55942">
        <ele>321.765</ele>
        <time>2015-08-15T08:54:11Z</time>
      </trkpt>
      <trkpt lat="39.54078" lon="-7.55818">
        <ele>319.311</ele>
        <time>2015-08-15T08:54:23Z</time>
      </trkpt>
      <trkpt lat="39.54035" lon="-7.55611">
        <ele>318.008</ele>
        <time>2015-08-15T08:54:47Z</time>
      </trkpt>
      <trkpt lat="39.54006" lon="-7.55453">
        <ele>315.852</ele>
        <time>2015-08-15T08:55:07Z</time>
      </trkpt>
      <trkpt lat="39.54003" lon="-7.55412">
        <ele>314.251</ele>
        <time>2015-08-15T08:55:12Z</time>
      </trkpt>
      <trkpt lat="39.53828" lon="-7.55108">
        <ele>314.929</ele>
        <time>2015-08-15T08:55:53Z</time>
      </trkpt>
      <trkpt lat="39.53782" lon="-7.5504">
        <ele>314.968</ele>
        <time>2015-08-15T08:56:02Z</time>
      </trkpt>
      <trkpt lat="39.53671" lon="-7.54482">
        <ele>314.978</ele>
        <time>2015-08-15T08:56:49Z</time>
      </trkpt>
      <trkpt lat="39.53598" lon="-7.54189">
        <ele>312.421</ele>
        <time>2015-08-15T08:57:09Z</time>
      </trkpt>
      <trkpt lat="39.53558" lon="-7.53739">
        <ele>311.589</ele>
        <time>2015-08-15T08:57:52Z</time>
      </trkpt>
      <trkpt lat="39.5348" lon="-7.53548">
        <ele>314.633</ele>
        <time>2015-08-15T08:58:07Z</time>
      </trkpt>
      <trkpt lat="39.5346" lon="-7.53216">
        <ele>316.241</ele>
        <time>2015-08-15T08:58:36Z</time>
      </trkpt>
      <trkpt lat="39.53315" lon="-7.53118">
        <ele>311.781</ele>
        <time>2015-08-15T08:58:55Z</time>
      </trkpt>
      <trkpt lat="39.53052" lon="-7.53133">
        <ele>296.709</ele>
        <time>2015-08-15T08:59:27Z</time>
      </trkpt>
      <trkpt lat="39.53037" lon="-7.53133">
        <ele>296.308</ele>
        <time>2015-08-15T08:59:29Z</time>
      </trkpt>
      <trkpt lat="39.52891" lon="-7.53062">
        <ele>304.065</ele>
        <time>2015-08-15T08:59:50Z</time>
      </trkpt>
      <trkpt lat="39.52785" lon="-7.52988">
        <ele>310.744</ele>
        <time>2015-08-15T09:00:12Z</time>
      </trkpt>
      <trkpt lat="39.52747" lon="-7.52848">
        <ele>316.042</ele>
        <time>2015-08-15T09:00:33Z</time>
      </trkpt>
      <trkpt lat="39.52667" lon="-7.52802">
        <ele>313.871</ele>
        <time>2015-08-15T09:00:42Z</time>
      </trkpt>
      <trkpt lat="39.52059" lon="-7.52469">
        <ele>316.121</ele>
        <time>2015-08-15T09:01:58Z</time>
      </trkpt>
      <trkpt lat="39.51983" lon="-7.52392">
        <ele>326.324</ele>
        <time>2015-08-15T09:02:08Z</time>
      </trkpt>
      <trkpt lat="39.51946" lon="-7.52114">
        <ele>330.022</ele>
        <time>2015-08-15T09:02:46Z</time>
      </trkpt>
      <trkpt lat="39.51944" lon="-7.52113">
        <ele>330.026</ele>
        <time>2015-08-15T09:02:47Z</time>
      </trkpt>
      <trkpt lat="39.51791" lon="-7.52135">
        <ele>328.315</ele>
        <time>2015-08-15T09:03:04Z</time>
      </trkpt>
      <trkpt lat="39.51434" lon="-7.51931">
        <ele>334.265</ele>
        <time>2015-08-15T09:03:44Z</time>
      </trkpt>
      <trkpt lat="39.51218" lon="-7.51868">
        <ele>342.111</ele>
        <time>2015-08-15T09:04:11Z</time>
      </trkpt>
      <trkpt lat="39.51055" lon="-7.51869">
        <ele>337.508</ele>
        <time>2015-08-15T09:04:39Z</time>
      </trkpt>
      <trkpt lat="39.50741" lon="-7.51849">
        <ele>339.042</ele>
        <time>2015-08-15T09:05:23Z</time>
      </trkpt>
      <trkpt lat="39.50505" lon="-7.51975">
        <ele>341.031</ele>
        <time>2015-08-15T09:05:45Z</time>
      </trkpt>
      <trkpt lat="39.50285" lon="-7.52022">
        <ele>347.659</ele>
        <time>2015-08-15T09:06:02Z</time>
      </trkpt>
      <trkpt lat="39.49981" lon="-7.52029">
        <ele>350.718</ele>
        <time>2015-08-15T09:06:18Z</time>
      </trkpt>
      <trkpt lat="39.49739" lon="-7.51906">
        <ele>345.088</ele>
        <time>2015-08-15T09:06:29Z</time>
      </trkpt>
      <trkpt lat="39.49141" lon="-7.51593">
        <ele>352.021</ele>
        <time>2015-08-15T09:06:56Z</time>
      </trkpt>
      <trkpt lat="39.49048" lon="-7.51495">
        <ele>356.089</ele>
        <time>2015-08-15T09:07:02Z</time>
      </trkpt>
      <trkpt lat="39.48962" lon="-7.51396">
        <ele>363.493</ele>
        <time>2015-08-15T09:07:08Z</time>
      </trkpt>
      <trkpt lat="39.48895" lon="-7.51364">
        <ele>367.959</ele>
        <time>2015-08-15T09:07:12Z</time>
      </trkpt>
      <trkpt lat="39.48726" lon="-7.51203">
        <ele>369.603</ele>
        <time>2015-08-15T09:07:23Z</time>
      </trkpt>
      <trkpt lat="39.47996" lon="-7.50796">
        <ele>389.323</ele>
        <time>2015-08-15T09:07:57Z</time>
      </trkpt>
      <trkpt lat="39.47953" lon="-7.50766">
        <ele>389.708</ele>
        <time>2015-08-15T09:07:59Z</time>
      </trkpt>
      <trkpt lat="39.47674" lon="-7.50573">
        <ele>389.946</ele>
        <time>2015-08-15T09:08:12Z</time>
      </trkpt>
      <trkpt lat="39.47376" lon="-7.50369">
        <ele>387.795</ele>
        <time>2015-08-15T09:08:26Z</time>
      </trkpt>
      <trkpt lat="39.47379" lon="-7.50212">
        <ele>384.743</ele>
        <time>2015-08-15T09:11:48Z</time>
      </trkpt>
      <trkpt lat="39.47432" lon="-7.4998">
        <ele>383.252</ele>
        <time>2015-08-15T09:12:00Z</time>
      </trkpt>
      <trkpt lat="39.47517" lon="-7.49881">
        <ele>374.182</ele>
        <time>2015-08-15T09:12:08Z</time>
      </trkpt>
      <trkpt lat="39.47591" lon="-7.49032">
        <ele>379.395</ele>
        <time>2015-08-15T09:12:45Z</time>
      </trkpt>
      <trkpt lat="39.47599" lon="-7.4891">
        <ele>384.283</ele>
        <time>2015-08-15T09:12:51Z</time>
      </trkpt>
      <trkpt lat="39.47713" lon="-7.48829">
        <ele>384.987</ele>
        <time>2015-08-15T09:13:02Z</time>
      </trkpt>
      <trkpt lat="39.47815" lon="-7.48611">
        <ele>372.715</ele>
        <time>2015-08-15T09:13:16Z</time>
      </trkpt>
      <trkpt lat="39.47879" lon="-7.48165">
        <ele>385.565</ele>
        <time>2015-08-15T09:13:39Z</time>
      </trkpt>
      <trkpt lat="39.47875" lon="-7.48108">
        <ele>388.611</ele>
        <time>2015-08-15T09:13:43Z</time>
      </trkpt>
      <trkpt lat="39.47985" lon="-7.47891">
        <ele>391.508</ele>
        <time>2015-08-15T09:13:59Z</time>
      </trkpt>
      <trkpt lat="39.47993" lon="-7.47874">
        <ele>392.242</ele>
        <time>2015-08-15T09:14:00Z</time>
      </trkpt>
      <trkpt lat="39.48012" lon="-7.47831">
        <ele>392.761</ele>
        <time>2015-08-15T09:14:17Z</time>
      </trkpt>
      <trkpt lat="39.47803" lon="-7.47851">
        <ele>396.379</ele>
        <time>2015-08-15T09:14:50Z</time>
      </trkpt>
      <trkpt lat="39.47575" lon="-7.47783">
        <ele>400.038</ele>
        <time>2015-08-15T09:15:26Z</time>
      </trkpt>
      <trkpt lat="39.47482" lon="-7.47835">
        <ele>397.358</ele>
        <time>2015-08-15T09:15:39Z</time>
      </trkpt>
      <trkpt lat="39.47382" lon="-7.47834">
        <ele>399.031</ele>
        <time>2015-08-15T09:15:52Z</time>
      </trkpt>
      <trkpt lat="39.47343" lon="-7.47837">
        <ele>399.549</ele>
        <time>2015-08-15T09:16:00Z</time>
      </trkpt>
      <trkpt lat="39.47004" lon="-7.47692">
        <ele>404.293</ele>
        <time>2015-08-15T09:16:52Z</time>
      </trkpt>
      <trkpt lat="39.46823" lon="-7.47666">
        <ele>410.895</ele>
        <time>2015-08-15T09:17:24Z</time>
      </trkpt>
      <trkpt lat="39.46726" lon="-7.47541">
        <ele>418.249</ele>
        <time>2015-08-15T09:17:50Z</time>
      </trkpt>
      <trkpt lat="39.46568" lon="-7.47467">
        <ele>419.323</ele>
        <time>2015-08-15T09:18:14Z</time>
      </trkpt>
      <trkpt lat="39.46499" lon="-7.47421">
        <ele>417.008</ele>
        <time>2015-08-15T09:18:27Z</time>
      </trkpt>
      <trkpt lat="39.46394" lon="-7.47442">
        <ele>416.79</ele>
        <time>2015-08-15T09:18:43Z</time>
      </trkpt>
      <trkpt lat="39.45879" lon="-7.4722">
        <ele>420.149</ele>
        <time>2015-08-15T09:19:52Z</time>
      </trkpt>
      <trkpt lat="39.45798" lon="-7.47255">
        <ele>420.447</ele>
        <time>2015-08-15T09:20:05Z</time>
      </trkpt>
      <trkpt lat="39.45739" lon="-7.47357">
        <ele>418.036</ele>
        <time>2015-08-15T09:20:20Z</time>
      </trkpt>
      <trkpt lat="39.45714" lon="-7.47381">
        <ele>418.916</ele>
        <time>2015-08-15T09:20:26Z</time>
      </trkpt>
      <trkpt lat="39.45426" lon="-7.47265">
        <ele>414.799</ele>
        <time>2015-08-15T09:21:10Z</time>
      </trkpt>
      <trkpt lat="39.45258" lon="-7.47247">
        <ele>415.817</ele>
        <time>2015-08-15T09:21:36Z</time>
      </trkpt>
      <trkpt lat="39.45104" lon="-7.47168">
        <ele>420.061</ele>
        <time>2015-08-15T09:21:57Z</time>
      </trkpt>
      <trkpt lat="39.44975" lon="-7.47118">
        <ele>415.742</ele>
        <time>2015-08-15T09:22:14Z</time>
      </trkpt>
      <trkpt lat="39.44868" lon="-7.47166">
        <ele>415.022</ele>
        <time>2015-08-15T09:22:27Z</time>
      </trkpt>
      <trkpt lat="39.44761" lon="-7.47191">
        <ele>413.514</ele>
        <time>2015-08-15T09:22:37Z</time>
      </trkpt>
      <trkpt lat="39.44078" lon="-7.46846">
        <ele>422.708</ele>
        <time>2015-08-15T09:23:44Z</time>
      </trkpt>
      <trkpt lat="39.44054" lon="-7.46593">
        <ele>418.025</ele>
        <time>2015-08-15T09:24:10Z</time>
      </trkpt>
      <trkpt lat="39.44102" lon="-7.46503">
        <ele>417.694</ele>
        <time>2015-08-15T09:24:15Z</time>
      </trkpt>
      <trkpt lat="39.44261" lon="-7.46267">
        <ele>414.462</ele>
        <time>2015-08-15T09:24:30Z</time>
      </trkpt>
      <trkpt lat="39.44421" lon="-7.46302">
        <ele>407.741</ele>
        <time>2015-08-15T09:24:40Z</time>
      </trkpt>
      <trkpt lat="39.44591" lon="-7.4632">
        <ele>399.171</ele>
        <time>2015-08-15T09:24:51Z</time>
      </trkpt>
      <trkpt lat="39.44746" lon="-7.46111">
        <ele>393.184</ele>
        <time>2015-08-15T09:25:06Z</time>
      </trkpt>
      <trkpt lat="39.4483" lon="-7.46073">
        <ele>387.522</ele>
        <time>2015-08-15T09:25:13Z</time>
      </trkpt>
      <trkpt lat="39.44901" lon="-7.45909">
        <ele>389.086</ele>
        <time>2015-08-15T09:25:24Z</time>
      </trkpt>
      <trkpt lat="39.44966" lon="-7.45719">
        <ele>391.425</ele>
        <time>2015-08-15T09:25:38Z</time>
      </trkpt>
      <trkpt lat="39.45" lon="-7.45635">
        <ele>386.026</ele>
        <time>2015-08-15T09:25:45Z</time>
      </trkpt>
      <trkpt lat="39.44811" lon="-7.45546">
        <ele>390.608</ele>
        <time>2015-08-15T09:26:07Z</time>
      </trkpt>
      <trkpt lat="39.44669" lon="-7.45557">
        <ele>397.108</ele>
        <time>2015-08-15T09:26:16Z</time>
      </trkpt>
      <trkpt lat="39.44422" lon="-7.45607">
        <ele>401.093</ele>
        <time>2015-08-15T09:26:29Z</time>
      </trkpt>
      <trkpt lat="39.4426" lon="-7.45628">
        <ele>401.592</ele>
        <time>2015-08-15T09:26:37Z</time>
      </trkpt>
      <trkpt lat="39.43752" lon="-7.45555">
        <ele>417.05</ele>
        <time>2015-08-15T09:27:33Z</time>
      </trkpt>
      <trkpt lat="39.43571" lon="-7.45427">
        <ele>426.849</ele>
        <time>2015-08-15T09:27:59Z</time>
      </trkpt>
      <trkpt lat="39.43482" lon="-7.454">
        <ele>430.829</ele>
        <time>2015-08-15T09:28:05Z</time>
      </trkpt>
      <trkpt lat="39.43377" lon="-7.45394">
        <ele>427.382</ele>
        <time>2015-08-15T09:28:11Z</time>
      </trkpt>
      <trkpt lat="39.43145" lon="-7.45281">
        <ele>430.37</ele>
        <time>2015-08-15T09:28:27Z</time>
      </trkpt>
      <trkpt lat="39.43023" lon="-7.45283">
        <ele>435.214</ele>
        <time>2015-08-15T09:28:36Z</time>
      </trkpt>
      <trkpt lat="39.43012" lon="-7.4528">
        <ele>436.027</ele>
        <time>2015-08-15T09:28:37Z</time>
      </trkpt>
      <trkpt lat="39.42792" lon="-7.4516">
        <ele>438.268</ele>
        <time>2015-08-15T09:28:52Z</time>
      </trkpt>
      <trkpt lat="39.42523" lon="-7.45084">
        <ele>442.814</ele>
        <time>2015-08-15T09:29:08Z</time>
      </trkpt>
      <trkpt lat="39.42383" lon="-7.45183">
        <ele>458.708</ele>
        <time>2015-08-15T09:29:20Z</time>
      </trkpt>
      <trkpt lat="39.42289" lon="-7.45203">
        <ele>466.743</ele>
        <time>2015-08-15T09:29:26Z</time>
      </trkpt>
      <trkpt lat="39.42182" lon="-7.45213">
        <ele>471.222</ele>
        <time>2015-08-15T09:29:33Z</time>
      </trkpt>
      <trkpt lat="39.42118" lon="-7.45193">
        <ele>476.18</ele>
        <time>2015-08-15T09:29:37Z</time>
      </trkpt>
      <trkpt lat="39.41902" lon="-7.45058">
        <ele>493.849</ele>
        <time>2015-08-15T09:29:52Z</time>
      </trkpt>
      <trkpt lat="39.41834" lon="-7.44935">
        <ele>502.539</ele>
        <time>2015-08-15T09:30:00Z</time>
      </trkpt>
      <trkpt lat="39.41751" lon="-7.4484">
        <ele>509.442</ele>
        <time>2015-08-15T09:30:07Z</time>
      </trkpt>
      <trkpt lat="39.41589" lon="-7.44779">
        <ele>524.03</ele>
        <time>2015-08-15T09:30:20Z</time>
      </trkpt>
      <trkpt lat="39.41572" lon="-7.44783">
        <ele>527.374</ele>
        <time>2015-08-15T09:30:40Z</time>
      </trkpt>
      <trkpt lat="39.41556" lon="-7.44718">
        <ele>526.143</ele>
        <time>2015-08-15T09:30:46Z</time>
      </trkpt>
      <trkpt lat="39.41429" lon="-7.44555">
        <ele>521.664</ele>
        <time>2015-08-15T09:30:57Z</time>
      </trkpt>
      <trkpt lat="39.41371" lon="-7.44476">
        <ele>523.11</ele>
        <time>2015-08-15T09:31:01Z</time>
      </trkpt>
      <trkpt lat="39.41265" lon="-7.44309">
        <ele>520.208</ele>
        <time>2015-08-15T09:31:09Z</time>
      </trkpt>
      <trkpt lat="39.4115" lon="-7.44182">
        <ele>523.345</ele>
        <time>2015-08-15T09:31:18Z</time>
      </trkpt>
      <trkpt lat="39.41132" lon="-7.43658">
        <ele>534.914</ele>
        <time>2015-08-15T09:31:46Z</time>
      </trkpt>
      <trkpt lat="39.41139" lon="-7.43612">
        <ele>533.072</ele>
        <time>2015-08-15T09:31:52Z</time>
      </trkpt>
      <trkpt lat="39.40949" lon="-7.43502">
        <ele>543.411</ele>
        <time>2015-08-15T09:32:09Z</time>
      </trkpt>
      <trkpt lat="39.40615" lon="-7.4333">
        <ele>548.421</ele>
        <time>2015-08-15T09:32:26Z</time>
      </trkpt>
      <trkpt lat="39.40235" lon="-7.43028">
        <ele>564.544</ele>
        <time>2015-08-15T09:32:46Z</time>
      </trkpt>
      <trkpt lat="39.39953" lon="-7.42786">
        <ele>567.682</ele>
        <time>2015-08-15T09:33:02Z</time>
      </trkpt>
      <trkpt lat="39.39907" lon="-7.42813">
        <ele>572.126</ele>
        <time>2015-08-15T09:33:34Z</time>
      </trkpt>
      <trkpt lat="39.3975" lon="-7.42572">
        <ele>578.011</ele>
        <time>2015-08-15T09:33:53Z</time>
      </trkpt>
      <trkpt lat="39.39587" lon="-7.4235">
        <ele>577.021</ele>
        <time>2015-08-15T09:34:06Z</time>
      </trkpt>
      <trkpt lat="39.39437" lon="-7.41886">
        <ele>566.603</ele>
        <time>2015-08-15T09:34:35Z</time>
      </trkpt>
      <trkpt lat="39.39303" lon="-7.416">
        <ele>557.808</ele>
        <time>2015-08-15T09:34:58Z</time>
      </trkpt>
      <trkpt lat="39.39028" lon="-7.41121">
        <ele>543.022</ele>
        <time>2015-08-15T09:35:22Z</time>
      </trkpt>
      <trkpt lat="39.38639" lon="-7.40038">
        <ele>526.091</ele>
        <time>2015-08-15T09:36:23Z</time>
      </trkpt>
      <trkpt lat="39.38604" lon="-7.39932">
        <ele>526.629</ele>
        <time>2015-08-15T09:36:28Z</time>
      </trkpt>
      <trkpt lat="39.38457" lon="-7.39814">
        <ele>528.758</ele>
        <time>2015-08-15T09:36:39Z</time>
      </trkpt>
      <trkpt lat="39.38399" lon="-7.39682">
        <ele>530.558</ele>
        <time>2015-08-15T09:36:46Z</time>
      </trkpt>
      <trkpt lat="39.38302" lon="-7.39463">
        <ele>528.611</ele>
        <time>2015-08-15T09:36:58Z</time>
      </trkpt>
      <trkpt lat="39.37939" lon="-7.39028">
        <ele>520.269</ele>
        <time>2015-08-15T09:37:32Z</time>
      </trkpt>
      <trkpt lat="39.37789" lon="-7.3885">
        <ele>519.893</ele>
        <time>2015-08-15T09:37:47Z</time>
      </trkpt>
      <trkpt lat="39.37519" lon="-7.38879">
        <ele>525.492</ele>
        <time>2015-08-15T09:38:41Z</time>
      </trkpt>
      <trkpt lat="39.37252" lon="-7.38848">
        <ele>532.673</ele>
        <time>2015-08-15T09:39:23Z</time>
      </trkpt>
      <trkpt lat="39.37069" lon="-7.38813">
        <ele>537.92</ele>
        <time>2015-08-15T09:39:33Z</time>
      </trkpt>
      <trkpt lat="39.36921" lon="-7.3885">
        <ele>543.308</ele>
        <time>2015-08-15T09:39:40Z</time>
      </trkpt>
      <trkpt lat="39.36769" lon="-7.38925">
        <ele>541.53</ele>
        <time>2015-08-15T09:39:48Z</time>
      </trkpt>
      <trkpt lat="39.36696" lon="-7.39013">
        <ele>545.089</ele>
        <time>2015-08-15T09:39:53Z</time>
      </trkpt>
      <trkpt lat="39.3666" lon="-7.39082">
        <ele>547.937</ele>
        <time>2015-08-15T09:39:58Z</time>
      </trkpt>
      <trkpt lat="39.36604" lon="-7.39073">
        <ele>543.996</ele>
        <time>2015-08-15T09:40:03Z</time>
      </trkpt>
      <trkpt lat="39.36553" lon="-7.39113">
        <ele>547.556</ele>
        <time>2015-08-15T09:40:07Z</time>
      </trkpt>
      <trkpt lat="39.36542" lon="-7.39128">
        <ele>549.969</ele>
        <time>2015-08-15T09:40:08Z</time>
      </trkpt>
      <trkpt lat="39.36528" lon="-7.39323">
        <ele>553.957</ele>
        <time>2015-08-15T09:40:18Z</time>
      </trkpt>
      <trkpt lat="39.36458" lon="-7.39458">
        <ele>567.541</ele>
        <time>2015-08-15T09:40:26Z</time>
      </trkpt>
      <trkpt lat="39.36433" lon="-7.39538">
        <ele>568.492</ele>
        <time>2015-08-15T09:40:31Z</time>
      </trkpt>
      <trkpt lat="39.36508" lon="-7.39574">
        <ele>572.573</ele>
        <time>2015-08-15T09:40:38Z</time>
      </trkpt>
      <trkpt lat="39.36547" lon="-7.3972">
        <ele>580.22</ele>
        <time>2015-08-15T09:40:46Z</time>
      </trkpt>
      <trkpt lat="39.36555" lon="-7.39741">
        <ele>583.108</ele>
        <time>2015-08-15T09:40:47Z</time>
      </trkpt>
      <trkpt lat="39.36611" lon="-7.398">
        <ele>587.15</ele>
        <time>2015-08-15T09:40:51Z</time>
      </trkpt>
      <trkpt lat="39.36748" lon="-7.39888">
        <ele>588.099</ele>
        <time>2015-08-15T09:40:59Z</time>
      </trkpt>
      <trkpt lat="39.36772" lon="-7.3992">
        <ele>591.087</ele>
        <time>2015-08-15T09:41:01Z</time>
      </trkpt>
      <trkpt lat="39.36788" lon="-7.40155">
        <ele>602.286</ele>
        <time>2015-08-15T09:41:11Z</time>
      </trkpt>
      <trkpt lat="39.36773" lon="-7.40251">
        <ele>603.416</ele>
        <time>2015-08-15T09:41:16Z</time>
      </trkpt>
      <trkpt lat="39.36702" lon="-7.40277">
        <ele>608.039</ele>
        <time>2015-08-15T09:41:21Z</time>
      </trkpt>
      <trkpt lat="39.36659" lon="-7.40342">
        <ele>611.847</ele>
        <time>2015-08-15T09:41:25Z</time>
      </trkpt>
      <trkpt lat="39.36627" lon="-7.40388">
        <ele>612.441</ele>
        <time>2015-08-15T09:41:28Z</time>
      </trkpt>
      <trkpt lat="39.36491" lon="-7.40359">
        <ele>614.669</ele>
        <time>2015-08-15T09:41:37Z</time>
      </trkpt>
      <trkpt lat="39.36376" lon="-7.40396">
        <ele>616.004</ele>
        <time>2015-08-15T09:41:44Z</time>
      </trkpt>
      <trkpt lat="39.36149" lon="-7.40383">
        <ele>619.324</ele>
        <time>2015-08-15T09:41:58Z</time>
      </trkpt>
      <trkpt lat="39.36006" lon="-7.40365">
        <ele>622.008</ele>
        <time>2015-08-15T09:42:06Z</time>
      </trkpt>
      <trkpt lat="39.35958" lon="-7.40404">
        <ele>626.147</ele>
        <time>2015-08-15T09:42:10Z</time>
      </trkpt>
      <trkpt lat="39.35802" lon="-7.40609">
        <ele>632.436</ele>
        <time>2015-08-15T09:42:24Z</time>
      </trkpt>
      <trkpt lat="39.35693" lon="-7.40667">
        <ele>637.924</ele>
        <time>2015-08-15T09:42:31Z</time>
      </trkpt>
      <trkpt lat="39.35523" lon="-7.40679">
        <ele>641.573</ele>
        <time>2015-08-15T09:42:40Z</time>
      </trkpt>
      <trkpt lat="39.35112" lon="-7.40547">
        <ele>646.093</ele>
        <time>2015-08-15T09:43:00Z</time>
      </trkpt>
      <trkpt lat="39.34994" lon="-7.40566">
        <ele>647.066</ele>
        <time>2015-08-15T09:43:06Z</time>
      </trkpt>
      <trkpt lat="39.34566" lon="-7.4078">
        <ele>666.614</ele>
        <time>2015-08-15T09:43:28Z</time>
      </trkpt>
      <trkpt lat="39.34378" lon="-7.40942">
        <ele>675.448</ele>
        <time>2015-08-15T09:43:39Z</time>
      </trkpt>
      <trkpt lat="39.34146" lon="-7.41127">
        <ele>680.075</ele>
        <time>2015-08-15T09:43:51Z</time>
      </trkpt>
      <trkpt lat="39.33977" lon="-7.41381">
        <ele>668.828</ele>
        <time>2015-08-15T09:44:02Z</time>
      </trkpt>
      <trkpt lat="39.33709" lon="-7.41794">
        <ele>680.72</ele>
        <time>2015-08-15T09:44:20Z</time>
      </trkpt>
      <trkpt lat="39.33589" lon="-7.41971">
        <ele>665.808</ele>
        <time>2015-08-15T09:44:30Z</time>
      </trkpt>
      <trkpt lat="39.33581" lon="-7.42144">
        <ele>660.868</ele>
        <time>2015-08-15T09:44:41Z</time>
      </trkpt>
      <trkpt lat="39.33362" lon="-7.42178">
        <ele>641.777</ele>
        <time>2015-08-15T09:45:01Z</time>
      </trkpt>
      <trkpt lat="39.33334" lon="-7.42259">
        <ele>641.785</ele>
        <time>2015-08-15T09:45:08Z</time>
      </trkpt>
      <trkpt lat="39.33339" lon="-7.42316">
        <ele>639.964</ele>
        <time>2015-08-15T09:45:12Z</time>
      </trkpt>
      <trkpt lat="39.33281" lon="-7.42402">
        <ele>631.424</ele>
        <time>2015-08-15T09:45:21Z</time>
      </trkpt>
      <trkpt lat="39.33321" lon="-7.42583">
        <ele>622.637</ele>
        <time>2015-08-15T09:45:34Z</time>
      </trkpt>
      <trkpt lat="39.3331" lon="-7.42672">
        <ele>617.785</ele>
        <time>2015-08-15T09:45:43Z</time>
      </trkpt>
      <trkpt lat="39.33336" lon="-7.42734">
        <ele>614.129</ele>
        <time>2015-08-15T09:45:49Z</time>
      </trkpt>
      <trkpt lat="39.33322" lon="-7.42768">
        <ele>610.768</ele>
        <time>2015-08-15T09:45:54Z</time>
      </trkpt>
      <trkpt lat="39.3325" lon="-7.42683">
        <ele>600.842</ele>
        <time>2015-08-15T09:46:06Z</time>
      </trkpt>
      <trkpt lat="39.33195" lon="-7.42556">
        <ele>592.126</ele>
        <time>2015-08-15T09:46:15Z</time>
      </trkpt>
      <trkpt lat="39.33119" lon="-7.42288">
        <ele>580.408</ele>
        <time>2015-08-15T09:46:34Z</time>
      </trkpt>
      <trkpt lat="39.33036" lon="-7.4229">
        <ele>570.317</ele>
        <time>2015-08-15T09:46:42Z</time>
      </trkpt>
      <trkpt lat="39.32961" lon="-7.42244">
        <ele>567.846</ele>
        <time>2015-08-15T09:46:50Z</time>
      </trkpt>
      <trkpt lat="39.32849" lon="-7.42303">
        <ele>559.734</ele>
        <time>2015-08-15T09:47:00Z</time>
      </trkpt>
      <trkpt lat="39.32752" lon="-7.423">
        <ele>552.153</ele>
        <time>2015-08-15T09:47:08Z</time>
      </trkpt>
      <trkpt lat="39.32655" lon="-7.4221">
        <ele>542.473</ele>
        <time>2015-08-15T09:47:18Z</time>
      </trkpt>
      <trkpt lat="39.3258" lon="-7.42044">
        <ele>533.646</ele>
        <time>2015-08-15T09:47:32Z</time>
      </trkpt>
      <trkpt lat="39.32593" lon="-7.42213">
        <ele>524.314</ele>
        <time>2015-08-15T09:47:45Z</time>
      </trkpt>
      <trkpt lat="39.32644" lon="-7.42345">
        <ele>520.788</ele>
        <time>2015-08-15T09:47:52Z</time>
      </trkpt>
      <trkpt lat="39.32731" lon="-7.42508">
        <ele>511.034</ele>
        <time>2015-08-15T09:48:00Z</time>
      </trkpt>
      <trkpt lat="39.3283" lon="-7.42625">
        <ele>498.855</ele>
        <time>2015-08-15T09:48:10Z</time>
      </trkpt>
      <trkpt lat="39.32873" lon="-7.42679">
        <ele>495.71</ele>
        <time>2015-08-15T09:48:17Z</time>
      </trkpt>
      <trkpt lat="39.32908" lon="-7.42753">
        <ele>497.308</ele>
        <time>2015-08-15T09:48:28Z</time>
      </trkpt>
      <trkpt lat="39.32854" lon="-7.42917">
        <ele>489.284</ele>
        <time>2015-08-15T09:48:39Z</time>
      </trkpt>
      <trkpt lat="39.32822" lon="-7.43195">
        <ele>477.433</ele>
        <time>2015-08-15T09:48:55Z</time>
      </trkpt>
      <trkpt lat="39.32594" lon="-7.43465">
        <ele>463.091</ele>
        <time>2015-08-15T09:49:11Z</time>
      </trkpt>
      <trkpt lat="39.32374" lon="-7.43642">
        <ele>472.44</ele>
        <time>2015-08-15T09:49:24Z</time>
      </trkpt>
      <trkpt lat="39.32117" lon="-7.4375">
        <ele>481.23</ele>
        <time>2015-08-15T09:49:38Z</time>
      </trkpt>
      <trkpt lat="39.31982" lon="-7.43891">
        <ele>480.983</ele>
        <time>2015-08-15T09:49:47Z</time>
      </trkpt>
      <trkpt lat="39.31725" lon="-7.43972">
        <ele>494.021</ele>
        <time>2015-08-15T09:50:00Z</time>
      </trkpt>
      <trkpt lat="39.31544" lon="-7.44005">
        <ele>489.255</ele>
        <time>2015-08-15T09:50:10Z</time>
      </trkpt>
      <trkpt lat="39.31468" lon="-7.44052">
        <ele>486.027</ele>
        <time>2015-08-15T09:50:15Z</time>
      </trkpt>
      <trkpt lat="39.31344" lon="-7.44138">
        <ele>482.668</ele>
        <time>2015-08-15T09:50:22Z</time>
      </trkpt>
      <trkpt lat="39.31312" lon="-7.44153">
        <ele>483.914</ele>
        <time>2015-08-15T09:50:24Z</time>
      </trkpt>
      <trkpt lat="39.31191" lon="-7.44137">
        <ele>488.108</ele>
        <time>2015-08-15T09:50:31Z</time>
      </trkpt>
      <trkpt lat="39.3109" lon="-7.44067">
        <ele>488.183</ele>
        <time>2015-08-15T09:50:43Z</time>
      </trkpt>
      <trkpt lat="39.31057" lon="-7.4408">
        <ele>486.972</ele>
        <time>2015-08-15T09:51:04Z</time>
      </trkpt>
      <trkpt lat="39.31042" lon="-7.44017">
        <ele>486.61</ele>
        <time>2015-08-15T09:51:16Z</time>
      </trkpt>
      <trkpt lat="39.30974" lon="-7.43943">
        <ele>484.139</ele>
        <time>2015-08-15T09:51:25Z</time>
      </trkpt>
      <trkpt lat="39.30933" lon="-7.43917">
        <ele>481.159</ele>
        <time>2015-08-15T09:51:29Z</time>
      </trkpt>
      <trkpt lat="39.30709" lon="-7.4381">
        <ele>476.112</ele>
        <time>2015-08-15T09:51:49Z</time>
      </trkpt>
      <trkpt lat="39.30678" lon="-7.43747">
        <ele>470.04</ele>
        <time>2015-08-15T09:51:53Z</time>
      </trkpt>
      <trkpt lat="39.30568" lon="-7.43451">
        <ele>456.274</ele>
        <time>2015-08-15T09:52:10Z</time>
      </trkpt>
      <trkpt lat="39.30515" lon="-7.43387">
        <ele>456.054</ele>
        <time>2015-08-15T09:52:15Z</time>
      </trkpt>
      <trkpt lat="39.30187" lon="-7.4336">
        <ele>464.556</ele>
        <time>2015-08-15T09:52:40Z</time>
      </trkpt>
      <trkpt lat="39.29988" lon="-7.43201">
        <ele>468.811</ele>
        <time>2015-08-15T09:53:01Z</time>
      </trkpt>
      <trkpt lat="39.29798" lon="-7.43088">
        <ele>460.908</ele>
        <time>2015-08-15T09:53:22Z</time>
      </trkpt>
      <trkpt lat="39.29574" lon="-7.4305">
        <ele>449.046</ele>
        <time>2015-08-15T09:53:45Z</time>
      </trkpt>
      <trkpt lat="39.29428" lon="-7.43164">
        <ele>454.115</ele>
        <time>2015-08-15T09:54:13Z</time>
      </trkpt>
      <trkpt lat="39.29336" lon="-7.43278">
        <ele>457.623</ele>
        <time>2015-08-15T09:54:28Z</time>
      </trkpt>
      <trkpt lat="39.2925" lon="-7.43409">
        <ele>458.522</ele>
        <time>2015-08-15T09:54:42Z</time>
      </trkpt>
      <trkpt lat="39.29173" lon="-7.43471">
        <ele>457.512</ele>
        <time>2015-08-15T09:54:52Z</time>
      </trkpt>
      <trkpt lat="39.29061" lon="-7.43424">
        <ele>467.175</ele>
        <time>2015-08-15T09:55:06Z</time>
      </trkpt>
      <trkpt lat="39.28939" lon="-7.43219">
        <ele>462.493</ele>
        <time>2015-08-15T09:55:28Z</time>
      </trkpt>
      <trkpt lat="39.28887" lon="-7.43183">
        <ele>460.887</ele>
        <time>2015-08-15T09:55:34Z</time>
      </trkpt>
      <trkpt lat="39.28765" lon="-7.4319">
        <ele>452.751</ele>
        <time>2015-08-15T09:55:44Z</time>
      </trkpt>
      <trkpt lat="39.28678" lon="-7.43287">
        <ele>440.901</ele>
        <time>2015-08-15T09:55:54Z</time>
      </trkpt>
      <trkpt lat="39.28577" lon="-7.4325">
        <ele>433.011</ele>
        <time>2015-08-15T09:56:02Z</time>
      </trkpt>
      <trkpt lat="39.28468" lon="-7.43069">
        <ele>427.208</ele>
        <time>2015-08-15T09:56:14Z</time>
      </trkpt>
      <trkpt lat="39.28347" lon="-7.43087">
        <ele>412.566</ele>
        <time>2015-08-15T09:56:22Z</time>
      </trkpt>
      <trkpt lat="39.2798" lon="-7.43116">
        <ele>390.045</ele>
        <time>2015-08-15T09:56:55Z</time>
      </trkpt>
      <trkpt lat="39.2793" lon="-7.43131">
        <ele>388.683</ele>
        <time>2015-08-15T09:57:06Z</time>
      </trkpt>
      <trkpt lat="39.27868" lon="-7.43204">
        <ele>383.152</ele>
        <time>2015-08-15T09:57:19Z</time>
      </trkpt>
      <trkpt lat="39.27851" lon="-7.4321">
        <ele>381.932</ele>
        <time>2015-08-15T09:57:22Z</time>
      </trkpt>
      <trkpt lat="39.27741" lon="-7.42965">
        <ele>385.745</ele>
        <time>2015-08-15T09:57:45Z</time>
      </trkpt>
      <trkpt lat="39.27636" lon="-7.42806">
        <ele>392.673</ele>
        <time>2015-08-15T09:57:56Z</time>
      </trkpt>
      <trkpt lat="39.27394" lon="-7.42487">
        <ele>381.947</ele>
        <time>2015-08-15T09:58:12Z</time>
      </trkpt>
      <trkpt lat="39.2688" lon="-7.41905">
        <ele>383.114</ele>
        <time>2015-08-15T09:58:50Z</time>
      </trkpt>
      <trkpt lat="39.26399" lon="-7.41636">
        <ele>378.254</ele>
        <time>2015-08-15T09:59:22Z</time>
      </trkpt>
      <trkpt lat="39.26366" lon="-7.41619">
        <ele>380.409</ele>
        <time>2015-08-15T09:59:27Z</time>
      </trkpt>
      <trkpt lat="39.26105" lon="-7.41926">
        <ele>369.508</ele>
        <time>2015-08-15T10:00:29Z</time>
      </trkpt>
      <trkpt lat="39.25936" lon="-7.41987">
        <ele>364.912</ele>
        <time>2015-08-15T10:00:51Z</time>
      </trkpt>
      <trkpt lat="39.25863" lon="-7.4188">
        <ele>364.781</ele>
        <time>2015-08-15T10:01:04Z</time>
      </trkpt>
      <trkpt lat="39.25779" lon="-7.41675">
        <ele>363.039</ele>
        <time>2015-08-15T10:01:21Z</time>
      </trkpt>
      <trkpt lat="39.25621" lon="-7.41445">
        <ele>369.088</ele>
        <time>2015-08-15T10:01:41Z</time>
      </trkpt>
      <trkpt lat="39.2536" lon="-7.41424">
        <ele>362.078</ele>
        <time>2015-08-15T10:02:02Z</time>
      </trkpt>
      <trkpt lat="39.24857" lon="-7.4126">
        <ele>376.361</ele>
        <time>2015-08-15T10:02:47Z</time>
      </trkpt>
      <trkpt lat="39.24695" lon="-7.4129">
        <ele>380.059</ele>
        <time>2015-08-15T10:03:08Z</time>
      </trkpt>
      <trkpt lat="39.24617" lon="-7.41253">
        <ele>381.463</ele>
        <time>2015-08-15T10:03:19Z</time>
      </trkpt>
      <trkpt lat="39.24335" lon="-7.40999">
        <ele>379.151</ele>
        <time>2015-08-15T10:03:59Z</time>
      </trkpt>
      <trkpt lat="39.23973" lon="-7.40754">
        <ele>384.101</ele>
        <time>2015-08-15T10:04:39Z</time>
      </trkpt>
      <trkpt lat="39.23594" lon="-7.40133">
        <ele>405.811</ele>
        <time>2015-08-15T10:05:28Z</time>
      </trkpt>
      <trkpt lat="39.23556" lon="-7.40111">
        <ele>405.008</ele>
        <time>2015-08-15T10:05:32Z</time>
      </trkpt>
      <trkpt lat="39.2352" lon="-7.40109">
        <ele>404.686</ele>
        <time>2015-08-15T10:05:37Z</time>
      </trkpt>
      <trkpt lat="39.23478" lon="-7.3992">
        <ele>400.025</ele>
        <time>2015-08-15T10:05:53Z</time>
      </trkpt>
      <trkpt lat="39.23416" lon="-7.39783">
        <ele>395.193</ele>
        <time>2015-08-15T10:06:06Z</time>
      </trkpt>
      <trkpt lat="39.2328" lon="-7.39765">
        <ele>396.422</ele>
        <time>2015-08-15T10:06:24Z</time>
      </trkpt>
      <trkpt lat="39.22856" lon="-7.39725">
        <ele>401.322</ele>
        <time>2015-08-15T10:06:55Z</time>
      </trkpt>
      <trkpt lat="39.2279" lon="-7.3976">
        <ele>402.735</ele>
        <time>2015-08-15T10:07:01Z</time>
      </trkpt>
      <trkpt lat="39.22734" lon="-7.39862">
        <ele>409.053</ele>
        <time>2015-08-15T10:07:08Z</time>
      </trkpt>
      <trkpt lat="39.22433" lon="-7.40089">
        <ele>408.057</ele>
        <time>2015-08-15T10:07:48Z</time>
      </trkpt>
      <trkpt lat="39.22306" lon="-7.3997">
        <ele>404.944</ele>
        <time>2015-08-15T10:08:10Z</time>
      </trkpt>
      <trkpt lat="39.22097" lon="-7.39708">
        <ele>392.505</ele>
        <time>2015-08-15T10:08:32Z</time>
      </trkpt>
      <trkpt lat="39.22" lon="-7.39618">
        <ele>388.015</ele>
        <time>2015-08-15T10:08:41Z</time>
      </trkpt>
      <trkpt lat="39.21941" lon="-7.39576">
        <ele>386.108</ele>
        <time>2015-08-15T10:08:46Z</time>
      </trkpt>
      <trkpt lat="39.2183" lon="-7.39429">
        <ele>381.145</ele>
        <time>2015-08-15T10:08:57Z</time>
      </trkpt>
      <trkpt lat="39.21727" lon="-7.39383">
        <ele>384.714</ele>
        <time>2015-08-15T10:09:04Z</time>
      </trkpt>
      <trkpt lat="39.2147" lon="-7.39616">
        <ele>396.382</ele>
        <time>2015-08-15T10:09:25Z</time>
      </trkpt>
      <trkpt lat="39.21225" lon="-7.39749">
        <ele>403.011</ele>
        <time>2015-08-15T10:09:40Z</time>
      </trkpt>
      <trkpt lat="39.2095" lon="-7.39903">
        <ele>379.641</ele>
        <time>2015-08-15T10:09:57Z</time>
      </trkpt>
      <trkpt lat="39.20614" lon="-7.40638">
        <ele>351.244</ele>
        <time>2015-08-15T10:10:51Z</time>
      </trkpt>
      <trkpt lat="39.19961" lon="-7.40847">
        <ele>337.122</ele>
        <time>2015-08-15T10:11:33Z</time>
      </trkpt>
      <trkpt lat="39.19793" lon="-7.40951">
        <ele>342.066</ele>
        <time>2015-08-15T10:11:43Z</time>
      </trkpt>
      <trkpt lat="39.18601" lon="-7.40937">
        <ele>326.748</ele>
        <time>2015-08-15T10:12:42Z</time>
      </trkpt>
      <trkpt lat="39.183" lon="-7.40763">
        <ele>333.261</ele>
        <time>2015-08-15T10:12:58Z</time>
      </trkpt>
      <trkpt lat="39.18091" lon="-7.40773">
        <ele>339.017</ele>
        <time>2015-08-15T10:13:09Z</time>
      </trkpt>
      <trkpt lat="39.17969" lon="-7.40741">
        <ele>338.008</ele>
        <time>2015-08-15T10:13:15Z</time>
      </trkpt>
      <trkpt lat="39.1773" lon="-7.40663">
        <ele>341.235</ele>
        <time>2015-08-15T10:13:27Z</time>
      </trkpt>
      <trkpt lat="39.17264" lon="-7.40429">
        <ele>342.034</ele>
        <time>2015-08-15T10:13:49Z</time>
      </trkpt>
      <trkpt lat="39.1681" lon="-7.40203">
        <ele>339.342</ele>
        <time>2015-08-15T10:14:10Z</time>
      </trkpt>
      <trkpt lat="39.15607" lon="-7.40054">
        <ele>364.261</ele>
        <time>2015-08-15T10:15:05Z</time>
      </trkpt>
      <trkpt lat="39.15457" lon="-7.40014">
        <ele>364.181</ele>
        <time>2015-08-15T10:15:13Z</time>
      </trkpt>
      <trkpt lat="39.15182" lon="-7.39901">
        <ele>350.474</ele>
        <time>2015-08-15T10:15:26Z</time>
      </trkpt>
      <trkpt lat="39.14986" lon="-7.39869">
        <ele>345.632</ele>
        <time>2015-08-15T10:15:35Z</time>
      </trkpt>
      <trkpt lat="39.14903" lon="-7.39853">
        <ele>342.916</ele>
        <time>2015-08-15T10:15:39Z</time>
      </trkpt>
      <trkpt lat="39.14752" lon="-7.39773">
        <ele>339.237</ele>
        <time>2015-08-15T10:16:13Z</time>
      </trkpt>
      <trkpt lat="39.14612" lon="-7.39615">
        <ele>339.049</ele>
        <time>2015-08-15T10:16:26Z</time>
      </trkpt>
      <trkpt lat="39.14497" lon="-7.39508">
        <ele>338.713</ele>
        <time>2015-08-15T10:16:33Z</time>
      </trkpt>
      <trkpt lat="39.14277" lon="-7.39259">
        <ele>336.008</ele>
        <time>2015-08-15T10:17:02Z</time>
      </trkpt>
      <trkpt lat="39.14107" lon="-7.39336">
        <ele>328.894</ele>
        <time>2015-08-15T10:17:28Z</time>
      </trkpt>
      <trkpt lat="39.13852" lon="-7.39283">
        <ele>317.543</ele>
        <time>2015-08-15T10:18:35Z</time>
      </trkpt>
      <trkpt lat="39.13653" lon="-7.39215">
        <ele>316.581</ele>
        <time>2015-08-15T10:18:53Z</time>
      </trkpt>
      <trkpt lat="39.13409" lon="-7.39115">
        <ele>316.15</ele>
        <time>2015-08-15T10:19:18Z</time>
      </trkpt>
      <trkpt lat="39.13244" lon="-7.38995">
        <ele>321.22</ele>
        <time>2015-08-15T10:19:38Z</time>
      </trkpt>
      <trkpt lat="39.12943" lon="-7.38827">
        <ele>321.353</ele>
        <time>2015-08-15T10:20:19Z</time>
      </trkpt>
      <trkpt lat="39.12636" lon="-7.38611">
        <ele>309.111</ele>
        <time>2015-08-15T10:20:55Z</time>
      </trkpt>
      <trkpt lat="39.12367" lon="-7.38613">
        <ele>322.075</ele>
        <time>2015-08-15T10:21:34Z</time>
      </trkpt>
      <trkpt lat="39.12064" lon="-7.38574">
        <ele>321.822</ele>
        <time>2015-08-15T10:22:24Z</time>
      </trkpt>
      <trkpt lat="39.11829" lon="-7.38363">
        <ele>321.862</ele>
        <time>2015-08-15T10:27:40Z</time>
      </trkpt>
      <trkpt lat="39.11757" lon="-7.38341">
        <ele>321.208</ele>
        <time>2015-08-15T10:27:51Z</time>
      </trkpt>
      <trkpt lat="39.11264" lon="-7.38234">
        <ele>297.308</ele>
        <time>2015-08-15T10:29:07Z</time>
      </trkpt>
      <trkpt lat="39.11015" lon="-7.38275">
        <ele>299.453</ele>
        <time>2015-08-15T10:31:20Z</time>
      </trkpt>
      <trkpt lat="39.10877" lon="-7.38342">
        <ele>311.832</ele>
        <time>2015-08-15T10:31:39Z</time>
      </trkpt>
      <trkpt lat="39.10844" lon="-7.38367">
        <ele>310.65</ele>
        <time>2015-08-15T10:31:43Z</time>
      </trkpt>
      <trkpt lat="39.10504" lon="-7.38525">
        <ele>304.679</ele>
        <time>2015-08-15T10:32:23Z</time>
      </trkpt>
      <trkpt lat="39.10429" lon="-7.38667">
        <ele>300.089</ele>
        <time>2015-08-15T10:32:42Z</time>
      </trkpt>
      <trkpt lat="39.10384" lon="-7.38917">
        <ele>301.752</ele>
        <time>2015-08-15T10:33:12Z</time>
      </trkpt>
      <trkpt lat="39.10339" lon="-7.39003">
        <ele>304.28</ele>
        <time>2015-08-15T10:33:23Z</time>
      </trkpt>
      <trkpt lat="39.10244" lon="-7.39056">
        <ele>303.884</ele>
        <time>2015-08-15T10:33:34Z</time>
      </trkpt>
      <trkpt lat="39.0984" lon="-7.39565">
        <ele>276.393</ele>
        <time>2015-08-15T10:35:04Z</time>
      </trkpt>
      <trkpt lat="39.09814" lon="-7.39655">
        <ele>278.465</ele>
        <time>2015-08-15T10:35:20Z</time>
      </trkpt>
      <trkpt lat="39.09813" lon="-7.39758">
        <ele>278.021</ele>
        <time>2015-08-15T10:35:43Z</time>
      </trkpt>
      <trkpt lat="39.09807" lon="-7.39771">
        <ele>278.708</ele>
        <time>2015-08-15T10:35:46Z</time>
      </trkpt>
      <trkpt lat="39.09485" lon="-7.40023">
        <ele>271.74</ele>
        <time>2015-08-15T10:36:53Z</time>
      </trkpt>
      <trkpt lat="39.09365" lon="-7.40239">
        <ele>272.339</ele>
        <time>2015-08-15T10:37:25Z</time>
      </trkpt>
      <trkpt lat="39.09361" lon="-7.40243">
        <ele>272.387</ele>
        <time>2015-08-15T10:37:27Z</time>
      </trkpt>
      <trkpt lat="39.0903" lon="-7.40521">
        <ele>271.396</ele>
        <time>2015-08-15T10:39:07Z</time>
      </trkpt>
      <trkpt lat="39.08942" lon="-7.40936">
        <ele>270.936</ele>
        <time>2015-08-15T10:39:58Z</time>
      </trkpt>
      <trkpt lat="39.08898" lon="-7.40986">
        <ele>269.799</ele>
        <time>2015-08-15T10:40:12Z</time>
      </trkpt>
      <trkpt lat="39.08861" lon="-7.41117">
        <ele>261.487</ele>
        <time>2015-08-15T10:40:42Z</time>
      </trkpt>
      <trkpt lat="39.08964" lon="-7.41438">
        <ele>250.891</ele>
        <time>2015-08-15T10:43:56Z</time>
      </trkpt>
      <trkpt lat="39.08929" lon="-7.41482">
        <ele>252.316</ele>
        <time>2015-08-15T10:44:07Z</time>
      </trkpt>
      <trkpt lat="39.08835" lon="-7.41594">
        <ele>250.876</ele>
        <time>2015-08-15T10:44:19Z</time>
      </trkpt>
      <trkpt lat="39.08642" lon="-7.41696">
        <ele>249.213</ele>
        <time>2015-08-15T10:45:31Z</time>
      </trkpt>
      <trkpt lat="39.08492" lon="-7.41827">
        <ele>250.408</ele>
        <time>2015-08-15T10:45:47Z</time>
      </trkpt>
      <trkpt lat="39.08264" lon="-7.42001">
        <ele>247.162</ele>
        <time>2015-08-15T10:46:05Z</time>
      </trkpt>
      <trkpt lat="39.08169" lon="-7.42125">
        <ele>244.841</ele>
        <time>2015-08-15T10:46:15Z</time>
      </trkpt>
      <trkpt lat="39.08038" lon="-7.42334">
        <ele>243.079</ele>
        <time>2015-08-15T10:46:31Z</time>
      </trkpt>
      <trkpt lat="39.07968" lon="-7.42504">
        <ele>242.078</ele>
        <time>2015-08-15T10:46:43Z</time>
      </trkpt>
      <trkpt lat="39.07833" lon="-7.42556">
        <ele>242.018</ele>
        <time>2015-08-15T10:46:55Z</time>
      </trkpt>
      <trkpt lat="39.07684" lon="-7.42551">
        <ele>239.641</ele>
        <time>2015-08-15T10:47:06Z</time>
      </trkpt>
      <trkpt lat="39.07595" lon="-7.4259">
        <ele>239.769</ele>
        <time>2015-08-15T10:47:14Z</time>
      </trkpt>
      <trkpt lat="39.07511" lon="-7.42655">
        <ele>240.633</ele>
        <time>2015-08-15T10:47:24Z</time>
      </trkpt>
      <trkpt lat="39.07476" lon="-7.42688">
        <ele>240.912</ele>
        <time>2015-08-15T10:48:16Z</time>
      </trkpt>
      <trkpt lat="39.07339" lon="-7.42856">
        <ele>237.832</ele>
        <time>2015-08-15T10:48:35Z</time>
      </trkpt>
      <trkpt lat="39.0717" lon="-7.43296">
        <ele>250.005</ele>
        <time>2015-08-15T10:49:14Z</time>
      </trkpt>
      <trkpt lat="39.06972" lon="-7.43458">
        <ele>244.508</ele>
        <time>2015-08-15T10:49:41Z</time>
      </trkpt>
      <trkpt lat="39.06958" lon="-7.4356">
        <ele>242.932</ele>
        <time>2015-08-15T10:50:53Z</time>
      </trkpt>
      <trkpt lat="39.06877" lon="-7.43564">
        <ele>234.231</ele>
        <time>2015-08-15T10:51:01Z</time>
      </trkpt>
      <trkpt lat="39.0662" lon="-7.43571">
        <ele>242.389</ele>
        <time>2015-08-15T10:51:14Z</time>
      </trkpt>
      <trkpt lat="39.0648" lon="-7.43604">
        <ele>242.138</ele>
        <time>2015-08-15T10:51:20Z</time>
      </trkpt>
      <trkpt lat="39.06193" lon="-7.4378">
        <ele>242.948</ele>
        <time>2015-08-15T10:51:33Z</time>
      </trkpt>
      <trkpt lat="39.05993" lon="-7.43953">
        <ele>234.441</ele>
        <time>2015-08-15T10:51:42Z</time>
      </trkpt>
      <trkpt lat="39.05727" lon="-7.44233">
        <ele>235.529</ele>
        <time>2015-08-15T10:51:55Z</time>
      </trkpt>
      <trkpt lat="39.05603" lon="-7.44322">
        <ele>236.443</ele>
        <time>2015-08-15T10:52:30Z</time>
      </trkpt>
      <trkpt lat="39.05525" lon="-7.44433">
        <ele>236.531</ele>
        <time>2015-08-15T10:52:47Z</time>
      </trkpt>
      <trkpt lat="39.05448" lon="-7.44332">
        <ele>252.361</ele>
        <time>2015-08-15T10:53:03Z</time>
      </trkpt>
      <trkpt lat="39.05403" lon="-7.44164">
        <ele>260.607</ele>
        <time>2015-08-15T10:53:19Z</time>
      </trkpt>
      <trkpt lat="39.05451" lon="-7.44085">
        <ele>266.008</ele>
        <time>2015-08-15T10:53:26Z</time>
      </trkpt>
      <trkpt lat="39.05482" lon="-7.44">
        <ele>274.234</ele>
        <time>2015-08-15T10:53:32Z</time>
      </trkpt>
      <trkpt lat="39.05497" lon="-7.43897">
        <ele>277.013</ele>
        <time>2015-08-15T10:53:40Z</time>
      </trkpt>
      <trkpt lat="39.05397" lon="-7.4372">
        <ele>288.621</ele>
        <time>2015-08-15T10:54:03Z</time>
      </trkpt>
      <trkpt lat="39.05324" lon="-7.43796">
        <ele>295.37</ele>
        <time>2015-08-15T10:54:22Z</time>
      </trkpt>
      <trkpt lat="39.05257" lon="-7.43864">
        <ele>290.64</ele>
        <time>2015-08-15T10:54:37Z</time>
      </trkpt>
      <trkpt lat="39.04612" lon="-7.43098">
        <ele>262.033</ele>
        <time>2015-08-15T10:56:25Z</time>
      </trkpt>
      <trkpt lat="38.99304" lon="-7.34309">
        <ele>322.261</ele>
        <time>2015-08-15T11:02:11Z</time>
      </trkpt>
      <trkpt lat="38.99216" lon="-7.34192">
        <ele>324.575</ele>
        <time>2015-08-15T11:02:17Z</time>
      </trkpt>
      <trkpt lat="38.9896" lon="-7.33994">
        <ele>323.743</ele>
        <time>2015-08-15T11:02:30Z</time>
      </trkpt>
      <trkpt lat="38.98786" lon="-7.3385">
        <ele>322.764</ele>
        <time>2015-08-15T11:02:39Z</time>
      </trkpt>
      <trkpt lat="38.97737" lon="-7.32302">
        <ele>318.71</ele>
        <time>2015-08-15T11:03:42Z</time>
      </trkpt>
      <trkpt lat="38.97649" lon="-7.32153">
        <ele>322.508</ele>
        <time>2015-08-15T11:03:49Z</time>
      </trkpt>
      <trkpt lat="38.97501" lon="-7.31552">
        <ele>337.055</ele>
        <time>2015-08-15T11:04:11Z</time>
      </trkpt>
      <trkpt lat="38.97264" lon="-7.31109">
        <ele>339.014</ele>
        <time>2015-08-15T11:04:30Z</time>
      </trkpt>
      <trkpt lat="38.97123" lon="-7.30851">
        <ele>339.292</ele>
        <time>2015-08-15T11:04:42Z</time>
      </trkpt>
      <trkpt lat="38.97013" lon="-7.30703">
        <ele>337.491</ele>
        <time>2015-08-15T11:04:50Z</time>
      </trkpt>
      <trkpt lat="38.96906" lon="-7.30563">
        <ele>336.171</ele>
        <time>2015-08-15T11:04:57Z</time>
      </trkpt>
      <trkpt lat="38.96862" lon="-7.30505">
        <ele>333.044</ele>
        <time>2015-08-15T11:05:00Z</time>
      </trkpt>
      <trkpt lat="38.96658" lon="-7.30321">
        <ele>334.172</ele>
        <time>2015-08-15T11:05:13Z</time>
      </trkpt>
      <trkpt lat="38.96539" lon="-7.30177">
        <ele>335.996</ele>
        <time>2015-08-15T11:05:21Z</time>
      </trkpt>
      <trkpt lat="38.95975" lon="-7.29686">
        <ele>356.038</ele>
        <time>2015-08-15T11:06:32Z</time>
      </trkpt>
      <trkpt lat="38.95885" lon="-7.29608">
        <ele>358.07</ele>
        <time>2015-08-15T11:07:03Z</time>
      </trkpt>
      <trkpt lat="38.95678" lon="-7.29834">
        <ele>359.617</ele>
        <time>2015-08-15T11:07:30Z</time>
      </trkpt>
      <trkpt lat="38.95369" lon="-7.30002">
        <ele>357.908</ele>
        <time>2015-08-15T11:07:47Z</time>
      </trkpt>
      <trkpt lat="38.94877" lon="-7.3027">
        <ele>360.354</ele>
        <time>2015-08-15T11:08:09Z</time>
      </trkpt>
      <trkpt lat="38.93956" lon="-7.30773">
        <ele>363.293</ele>
        <time>2015-08-15T11:08:48Z</time>
      </trkpt>
      <trkpt lat="38.92022" lon="-7.31836">
        <ele>360.091</ele>
        <time>2015-08-15T11:10:09Z</time>
      </trkpt>
      <trkpt lat="38.9197" lon="-7.31936">
        <ele>361.77</ele>
        <time>2015-08-15T11:10:14Z</time>
      </trkpt>
      <trkpt lat="38.91894" lon="-7.32065">
        <ele>362.72</ele>
        <time>2015-08-15T11:10:22Z</time>
      </trkpt>
      <trkpt lat="38.91847" lon="-7.32079">
        <ele>363.293</ele>
        <time>2015-08-15T11:10:26Z</time>
      </trkpt>
      <trkpt lat="38.91501" lon="-7.3198">
        <ele>360.511</ele>
        <time>2015-08-15T11:10:58Z</time>
      </trkpt>
      <trkpt lat="38.91236" lon="-7.32034">
        <ele>354.495</ele>
        <time>2015-08-15T11:11:30Z</time>
      </trkpt>
      <trkpt lat="38.90996" lon="-7.32147">
        <ele>354.326</ele>
        <time>2015-08-15T11:11:42Z</time>
      </trkpt>
      <trkpt lat="38.90711" lon="-7.32355">
        <ele>360.747</ele>
        <time>2015-08-15T11:11:56Z</time>
      </trkpt>
      <trkpt lat="38.90461" lon="-7.32431">
        <ele>355.311</ele>
        <time>2015-08-15T11:12:07Z</time>
      </trkpt>
      <trkpt lat="38.89029" lon="-7.32754">
        <ele>340.808</ele>
        <time>2015-08-15T11:13:03Z</time>
      </trkpt>
      <trkpt lat="38.88883" lon="-7.32817">
        <ele>345.473</ele>
        <time>2015-08-15T11:13:10Z</time>
      </trkpt>
      <trkpt lat="38.88098" lon="-7.33169">
        <ele>354.082</ele>
        <time>2015-08-15T11:13:44Z</time>
      </trkpt>
      <trkpt lat="38.87195" lon="-7.33562">
        <ele>342.73</ele>
        <time>2015-08-15T11:14:19Z</time>
      </trkpt>
      <trkpt lat="38.87041" lon="-7.33533">
        <ele>344.179</ele>
        <time>2015-08-15T11:14:25Z</time>
      </trkpt>
      <trkpt lat="38.86691" lon="-7.33387">
        <ele>337.099</ele>
        <time>2015-08-15T11:14:39Z</time>
      </trkpt>
      <trkpt lat="38.86534" lon="-7.33321">
        <ele>336.212</ele>
        <time>2015-08-15T11:14:45Z</time>
      </trkpt>
      <trkpt lat="38.85606" lon="-7.32959">
        <ele>314.99</ele>
        <time>2015-08-15T11:15:21Z</time>
      </trkpt>
      <trkpt lat="38.8548" lon="-7.3293">
        <ele>307.874</ele>
        <time>2015-08-15T11:15:29Z</time>
      </trkpt>
      <trkpt lat="38.8543" lon="-7.32926">
        <ele>307.528</ele>
        <time>2015-08-15T11:15:35Z</time>
      </trkpt>
      <trkpt lat="38.85261" lon="-7.33426">
        <ele>316.389</ele>
        <time>2015-08-15T11:16:04Z</time>
      </trkpt>
      <trkpt lat="38.85044" lon="-7.33669">
        <ele>331.817</ele>
        <time>2015-08-15T11:16:16Z</time>
      </trkpt>
      <trkpt lat="38.84911" lon="-7.33836">
        <ele>342.208</ele>
        <time>2015-08-15T11:16:24Z</time>
      </trkpt>
      <trkpt lat="38.84878" lon="-7.33976">
        <ele>340.063</ele>
        <time>2015-08-15T11:16:29Z</time>
      </trkpt>
      <trkpt lat="38.84882" lon="-7.34609">
        <ele>313.052</ele>
        <time>2015-08-15T11:16:53Z</time>
      </trkpt>
      <trkpt lat="38.84457" lon="-7.34787">
        <ele>304.41</ele>
        <time>2015-08-15T11:18:05Z</time>
      </trkpt>
      <trkpt lat="38.84433" lon="-7.34826">
        <ele>303.659</ele>
        <time>2015-08-15T11:18:12Z</time>
      </trkpt>
      <trkpt lat="38.84413" lon="-7.34899">
        <ele>301.149</ele>
        <time>2015-08-15T11:18:30Z</time>
      </trkpt>
      <trkpt lat="38.8424" lon="-7.34816">
        <ele>301.082</ele>
        <time>2015-08-15T11:19:01Z</time>
      </trkpt>
      <trkpt lat="38.8412" lon="-7.34706">
        <ele>302.95</ele>
        <time>2015-08-15T11:19:21Z</time>
      </trkpt>
      <trkpt lat="38.84103" lon="-7.34692">
        <ele>302.884</ele>
        <time>2015-08-15T11:19:24Z</time>
      </trkpt>
      <trkpt lat="38.84039" lon="-7.34695">
        <ele>304.567</ele>
        <time>2015-08-15T11:19:32Z</time>
      </trkpt>
      <trkpt lat="38.83824" lon="-7.34668">
        <ele>302.681</ele>
        <time>2015-08-15T11:19:52Z</time>
      </trkpt>
      <trkpt lat="38.83683" lon="-7.34618">
        <ele>305.719</ele>
        <time>2015-08-15T11:20:03Z</time>
      </trkpt>
      <trkpt lat="38.8354" lon="-7.34524">
        <ele>311.508</ele>
        <time>2015-08-15T11:20:14Z</time>
      </trkpt>
      <trkpt lat="38.83495" lon="-7.34494">
        <ele>313.017</ele>
        <time>2015-08-15T11:20:18Z</time>
      </trkpt>
      <trkpt lat="38.83343" lon="-7.34395">
        <ele>310.616</ele>
        <time>2015-08-15T11:20:28Z</time>
      </trkpt>
      <trkpt lat="38.80167" lon="-7.32323">
        <ele>305.024</ele>
        <time>2015-08-15T11:22:45Z</time>
      </trkpt>
      <trkpt lat="38.78943" lon="-7.32255">
        <ele>281.093</ele>
        <time>2015-08-15T11:23:53Z</time>
      </trkpt>
      <trkpt lat="38.7863" lon="-7.32515">
        <ele>271.523</ele>
        <time>2015-08-15T11:24:09Z</time>
      </trkpt>
      <trkpt lat="38.78486" lon="-7.32651">
        <ele>268.056</ele>
        <time>2015-08-15T11:24:19Z</time>
      </trkpt>
      <trkpt lat="38.78453" lon="-7.32675">
        <ele>268.474</ele>
        <time>2015-08-15T11:24:29Z</time>
      </trkpt>
      <trkpt lat="38.78261" lon="-7.32277">
        <ele>254.678</ele>
        <time>2015-08-15T11:24:55Z</time>
      </trkpt>
      <trkpt lat="38.78044" lon="-7.31972">
        <ele>251.459</ele>
        <time>2015-08-15T11:25:12Z</time>
      </trkpt>
      <trkpt lat="38.77892" lon="-7.31828">
        <ele>266.003</ele>
        <time>2015-08-15T11:25:28Z</time>
      </trkpt>
      <trkpt lat="38.77859" lon="-7.31748">
        <ele>269.923</ele>
        <time>2015-08-15T11:25:36Z</time>
      </trkpt>
      <trkpt lat="38.7781" lon="-7.3166">
        <ele>271.108</ele>
        <time>2015-08-15T11:25:47Z</time>
      </trkpt>
      <trkpt lat="38.77384" lon="-7.31292">
        <ele>275.236</ele>
        <time>2015-08-15T11:27:39Z</time>
      </trkpt>
      <trkpt lat="38.77123" lon="-7.31072">
        <ele>279.575</ele>
        <time>2015-08-15T11:27:55Z</time>
      </trkpt>
      <trkpt lat="38.76603" lon="-7.30436">
        <ele>268.773</ele>
        <time>2015-08-15T11:28:26Z</time>
      </trkpt>
      <trkpt lat="38.75913" lon="-7.2959">
        <ele>235.372</ele>
        <time>2015-08-15T11:29:04Z</time>
      </trkpt>
      <trkpt lat="38.75589" lon="-7.29313">
        <ele>233.472</ele>
        <time>2015-08-15T11:29:21Z</time>
      </trkpt>
      <trkpt lat="38.75141" lon="-7.28709">
        <ele>216.165</ele>
        <time>2015-08-15T11:29:49Z</time>
      </trkpt>
      <trkpt lat="38.75076" lon="-7.28638">
        <ele>215.863</ele>
        <time>2015-08-15T11:29:53Z</time>
      </trkpt>
      <trkpt lat="38.7465" lon="-7.28419">
        <ele>212.227</ele>
        <time>2015-08-15T11:30:13Z</time>
      </trkpt>
      <trkpt lat="38.74583" lon="-7.28346">
        <ele>209.935</ele>
        <time>2015-08-15T11:30:17Z</time>
      </trkpt>
      <trkpt lat="38.74335" lon="-7.28043">
        <ele>198.486</ele>
        <time>2015-08-15T11:30:33Z</time>
      </trkpt>
      <trkpt lat="38.74222" lon="-7.27774">
        <ele>196.314</ele>
        <time>2015-08-15T11:30:46Z</time>
      </trkpt>
      <trkpt lat="38.74151" lon="-7.27665">
        <ele>190.308</ele>
        <time>2015-08-15T11:30:53Z</time>
      </trkpt>
      <trkpt lat="38.73824" lon="-7.27307">
        <ele>168.734</ele>
        <time>2015-08-15T11:31:14Z</time>
      </trkpt>
      <trkpt lat="38.7366" lon="-7.27148">
        <ele>166.873</ele>
        <time>2015-08-15T11:31:24Z</time>
      </trkpt>
      <trkpt lat="38.73605" lon="-7.27109">
        <ele>167.911</ele>
        <time>2015-08-15T11:31:31Z</time>
      </trkpt>
      <trkpt lat="38.73466" lon="-7.27667">
        <ele>180.09</ele>
        <time>2015-08-15T11:32:24Z</time>
      </trkpt>
      <trkpt lat="38.73305" lon="-7.28155">
        <ele>166.03</ele>
        <time>2015-08-15T11:32:49Z</time>
      </trkpt>
      <trkpt lat="38.7327" lon="-7.28455">
        <ele>171.013</ele>
        <time>2015-08-15T11:33:02Z</time>
      </trkpt>
      <trkpt lat="38.73242" lon="-7.28524">
        <ele>169.051</ele>
        <time>2015-08-15T11:33:05Z</time>
      </trkpt>
      <trkpt lat="38.72938" lon="-7.29053">
        <ele>172.265</ele>
        <time>2015-08-15T11:33:27Z</time>
      </trkpt>
      <trkpt lat="38.72907" lon="-7.29161">
        <ele>175.226</ele>
        <time>2015-08-15T11:33:31Z</time>
      </trkpt>
      <trkpt lat="38.72833" lon="-7.2952">
        <ele>184.747</ele>
        <time>2015-08-15T11:33:44Z</time>
      </trkpt>
      <trkpt lat="38.72757" lon="-7.29737">
        <ele>190.111</ele>
        <time>2015-08-15T11:33:59Z</time>
      </trkpt>
      <trkpt lat="38.72728" lon="-7.29622">
        <ele>185.108</ele>
        <time>2015-08-15T11:34:34Z</time>
      </trkpt>
      <trkpt lat="38.72582" lon="-7.29634">
        <ele>192.373</ele>
        <time>2015-08-15T11:34:52Z</time>
      </trkpt>
      <trkpt lat="38.7237" lon="-7.29576">
        <ele>206.162</ele>
        <time>2015-08-15T11:35:25Z</time>
      </trkpt>
      <trkpt lat="38.7235" lon="-7.29569">
        <ele>205.94</ele>
        <time>2015-08-15T11:35:28Z</time>
      </trkpt>
      <trkpt lat="38.71877" lon="-7.29408">
        <ele>209.219</ele>
        <time>2015-08-15T11:36:25Z</time>
      </trkpt>
      <trkpt lat="38.71728" lon="-7.2945">
        <ele>214.079</ele>
        <time>2015-08-15T11:36:42Z</time>
      </trkpt>
      <trkpt lat="38.7157" lon="-7.29398">
        <ele>208.392</ele>
        <time>2015-08-15T11:36:58Z</time>
      </trkpt>
      <trkpt lat="38.71413" lon="-7.29241">
        <ele>204.02</ele>
        <time>2015-08-15T11:37:21Z</time>
      </trkpt>
      <trkpt lat="38.71242" lon="-7.28985">
        <ele>198.054</ele>
        <time>2015-08-15T11:37:52Z</time>
      </trkpt>
      <trkpt lat="38.71208" lon="-7.28965">
        <ele>196.547</ele>
        <time>2015-08-15T11:37:56Z</time>
      </trkpt>
      <trkpt lat="38.71053" lon="-7.28899">
        <ele>192.629</ele>
        <time>2015-08-15T11:38:10Z</time>
      </trkpt>
      <trkpt lat="38.70981" lon="-7.28834">
        <ele>191.721</ele>
        <time>2015-08-15T11:38:33Z</time>
      </trkpt>
      <trkpt lat="38.70947" lon="-7.28917">
        <ele>191.108</ele>
        <time>2015-08-15T11:38:45Z</time>
      </trkpt>
      <trkpt lat="38.70911" lon="-7.28934">
        <ele>187.845</ele>
        <time>2015-08-15T11:38:50Z</time>
      </trkpt>
      <trkpt lat="38.708" lon="-7.28993">
        <ele>179.934</ele>
        <time>2015-08-15T11:39:07Z</time>
      </trkpt>
      <trkpt lat="38.70661" lon="-7.29044">
        <ele>176.382</ele>
        <time>2015-08-15T11:39:28Z</time>
      </trkpt>
      <trkpt lat="38.70497" lon="-7.29216">
        <ele>172.631</ele>
        <time>2015-08-15T11:39:55Z</time>
      </trkpt>
      <trkpt lat="38.70437" lon="-7.29321">
        <ele>179.261</ele>
        <time>2015-08-15T11:40:08Z</time>
      </trkpt>
      <trkpt lat="38.70434" lon="-7.29331">
        <ele>179.954</ele>
        <time>2015-08-15T11:40:09Z</time>
      </trkpt>
      <trkpt lat="38.70397" lon="-7.29492">
        <ele>174.782</ele>
        <time>2015-08-15T11:40:30Z</time>
      </trkpt>
      <trkpt lat="38.70322" lon="-7.29612">
        <ele>167.696</ele>
        <time>2015-08-15T11:40:48Z</time>
      </trkpt>
      <trkpt lat="38.70313" lon="-7.29628">
        <ele>167.488</ele>
        <time>2015-08-15T11:40:51Z</time>
      </trkpt>
      <trkpt lat="38.70168" lon="-7.30288">
        <ele>174.524</ele>
        <time>2015-08-15T11:42:21Z</time>
      </trkpt>
      <trkpt lat="38.70086" lon="-7.30594">
        <ele>173.026</ele>
        <time>2015-08-15T11:42:52Z</time>
      </trkpt>
      <trkpt lat="38.69894" lon="-7.31034">
        <ele>179.808</ele>
        <time>2015-08-15T11:43:53Z</time>
      </trkpt>
      <trkpt lat="38.6975" lon="-7.31185">
        <ele>178.479</ele>
        <time>2015-08-15T11:44:26Z</time>
      </trkpt>
      <trkpt lat="38.69703" lon="-7.31158">
        <ele>186.418</ele>
        <time>2015-08-15T11:44:42Z</time>
      </trkpt>
      <trkpt lat="38.69466" lon="-7.31322">
        <ele>185.436</ele>
        <time>2015-08-15T11:46:40Z</time>
      </trkpt>
      <trkpt lat="38.69409" lon="-7.31409">
        <ele>182.395</ele>
        <time>2015-08-15T11:47:02Z</time>
      </trkpt>
      <trkpt lat="38.69171" lon="-7.31504">
        <ele>188.415</ele>
        <time>2015-08-15T11:47:49Z</time>
      </trkpt>
      <trkpt lat="38.68917" lon="-7.31768">
        <ele>190.368</ele>
        <time>2015-08-15T11:48:46Z</time>
      </trkpt>
      <trkpt lat="38.68833" lon="-7.31875">
        <ele>190.036</ele>
        <time>2015-08-15T11:49:01Z</time>
      </trkpt>
      <trkpt lat="38.68671" lon="-7.32186">
        <ele>193.65</ele>
        <time>2015-08-15T11:49:47Z</time>
      </trkpt>
      <trkpt lat="38.6865" lon="-7.323">
        <ele>192.858</ele>
        <time>2015-08-15T11:50:15Z</time>
      </trkpt>
      <trkpt lat="38.6866" lon="-7.32332">
        <ele>192.052</ele>
        <time>2015-08-15T11:52:18Z</time>
      </trkpt>
      <trkpt lat="38.68542" lon="-7.32352">
        <ele>196.617</ele>
        <time>2015-08-15T11:52:31Z</time>
      </trkpt>
      <trkpt lat="38.68485" lon="-7.32347">
        <ele>202.808</ele>
        <time>2015-08-15T11:52:36Z</time>
      </trkpt>
      <trkpt lat="38.68447" lon="-7.32292">
        <ele>206.866</ele>
        <time>2015-08-15T11:52:41Z</time>
      </trkpt>
      <trkpt lat="38.68397" lon="-7.32111">
        <ele>213.285</ele>
        <time>2015-08-15T11:52:52Z</time>
      </trkpt>
      <trkpt lat="38.68325" lon="-7.32049">
        <ele>218.543</ele>
        <time>2015-08-15T11:53:00Z</time>
      </trkpt>
      <trkpt lat="38.68248" lon="-7.32035">
        <ele>229.462</ele>
        <time>2015-08-15T11:53:09Z</time>
      </trkpt>
      <trkpt lat="38.68191" lon="-7.31979">
        <ele>233.492</ele>
        <time>2015-08-15T11:53:20Z</time>
      </trkpt>
      <trkpt lat="38.68167" lon="-7.31961">
        <ele>234.635</ele>
        <time>2015-08-15T11:53:25Z</time>
      </trkpt>
      <trkpt lat="38.68073" lon="-7.31967">
        <ele>235.943</ele>
        <time>2015-08-15T11:53:34Z</time>
      </trkpt>
      <trkpt lat="38.68003" lon="-7.32047">
        <ele>234.337</ele>
        <time>2015-08-15T11:53:41Z</time>
      </trkpt>
      <trkpt lat="38.67851" lon="-7.32218">
        <ele>234.414</ele>
        <time>2015-08-15T11:53:56Z</time>
      </trkpt>
      <trkpt lat="38.67722" lon="-7.32306">
        <ele>235.054</ele>
        <time>2015-08-15T11:54:04Z</time>
      </trkpt>
      <trkpt lat="38.67563" lon="-7.32441">
        <ele>235.109</ele>
        <time>2015-08-15T11:54:16Z</time>
      </trkpt>
      <trkpt lat="38.6751" lon="-7.32688">
        <ele>239.008</ele>
        <time>2015-08-15T11:54:29Z</time>
      </trkpt>
      <trkpt lat="38.67513" lon="-7.32815">
        <ele>237.542</ele>
        <time>2015-08-15T11:54:35Z</time>
      </trkpt>
      <trkpt lat="38.67516" lon="-7.32991">
        <ele>244.461</ele>
        <time>2015-08-15T11:54:48Z</time>
      </trkpt>
      <trkpt lat="38.67239" lon="-7.32891">
        <ele>243.369</ele>
        <time>2015-08-15T11:55:17Z</time>
      </trkpt>
      <trkpt lat="38.67172" lon="-7.32902">
        <ele>239.648</ele>
        <time>2015-08-15T11:55:21Z</time>
      </trkpt>
      <trkpt lat="38.6708" lon="-7.32918">
        <ele>233.968</ele>
        <time>2015-08-15T11:55:26Z</time>
      </trkpt>
      <trkpt lat="38.66804" lon="-7.3288">
        <ele>244.641</ele>
        <time>2015-08-15T11:55:43Z</time>
      </trkpt>
      <trkpt lat="38.6663" lon="-7.3293">
        <ele>239.949</ele>
        <time>2015-08-15T11:55:53Z</time>
      </trkpt>
      <trkpt lat="38.66321" lon="-7.32925">
        <ele>234.013</ele>
        <time>2015-08-15T11:56:09Z</time>
      </trkpt>
      <trkpt lat="38.66225" lon="-7.32982">
        <ele>235.021</ele>
        <time>2015-08-15T11:56:14Z</time>
      </trkpt>
      <trkpt lat="38.66026" lon="-7.33134">
        <ele>236.141</ele>
        <time>2015-08-15T11:56:25Z</time>
      </trkpt>
      <trkpt lat="38.65858" lon="-7.33516">
        <ele>244.605</ele>
        <time>2015-08-15T11:56:42Z</time>
      </trkpt>
      <trkpt lat="38.65783" lon="-7.33569">
        <ele>245.008</ele>
        <time>2015-08-15T11:56:46Z</time>
      </trkpt>
      <trkpt lat="38.65287" lon="-7.33855">
        <ele>242.343</ele>
        <time>2015-08-15T11:57:10Z</time>
      </trkpt>
      <trkpt lat="38.65074" lon="-7.33923">
        <ele>241.752</ele>
        <time>2015-08-15T11:57:20Z</time>
      </trkpt>
      <trkpt lat="38.64904" lon="-7.34176">
        <ele>237.38</ele>
        <time>2015-08-15T11:57:33Z</time>
      </trkpt>
      <trkpt lat="38.64822" lon="-7.34222">
        <ele>238.029</ele>
        <time>2015-08-15T11:57:37Z</time>
      </trkpt>
      <trkpt lat="38.64433" lon="-7.34491">
        <ele>228.229</ele>
        <time>2015-08-15T11:57:57Z</time>
      </trkpt>
      <trkpt lat="38.64123" lon="-7.34769">
        <ele>224.482</ele>
        <time>2015-08-15T11:58:21Z</time>
      </trkpt>
      <trkpt lat="38.63751" lon="-7.34645">
        <ele>210.79</ele>
        <time>2015-08-15T11:58:58Z</time>
      </trkpt>
      <trkpt lat="38.63516" lon="-7.34529">
        <ele>198.294</ele>
        <time>2015-08-15T11:59:11Z</time>
      </trkpt>
      <trkpt lat="38.63117" lon="-7.3449">
        <ele>194.965</ele>
        <time>2015-08-15T11:59:31Z</time>
      </trkpt>
      <trkpt lat="38.63043" lon="-7.34559">
        <ele>201.668</ele>
        <time>2015-08-15T11:59:36Z</time>
      </trkpt>
      <trkpt lat="38.63011" lon="-7.34616">
        <ele>198.014</ele>
        <time>2015-08-15T11:59:39Z</time>
      </trkpt>
      <trkpt lat="38.62967" lon="-7.34658">
        <ele>199.408</ele>
        <time>2015-08-15T11:59:43Z</time>
      </trkpt>
      <trkpt lat="38.62797" lon="-7.34625">
        <ele>197.357</ele>
        <time>2015-08-15T11:59:54Z</time>
      </trkpt>
      <trkpt lat="38.62442" lon="-7.3457">
        <ele>191.496</ele>
        <time>2015-08-15T12:00:23Z</time>
      </trkpt>
      <trkpt lat="38.6237" lon="-7.34489">
        <ele>185.894</ele>
        <time>2015-08-15T12:01:26Z</time>
      </trkpt>
      <trkpt lat="38.62168" lon="-7.34385">
        <ele>176.993</ele>
        <time>2015-08-15T12:01:45Z</time>
      </trkpt>
      <trkpt lat="38.62128" lon="-7.3436">
        <ele>176.083</ele>
        <time>2015-08-15T12:01:49Z</time>
      </trkpt>
      <trkpt lat="38.6208" lon="-7.34292">
        <ele>172.536</ele>
        <time>2015-08-15T12:02:28Z</time>
      </trkpt>
      <trkpt lat="38.62025" lon="-7.34331">
        <ele>173.264</ele>
        <time>2015-08-15T12:02:38Z</time>
      </trkpt>
      <trkpt lat="38.61964" lon="-7.34326">
        <ele>175.618</ele>
        <time>2015-08-15T12:02:44Z</time>
      </trkpt>
      <trkpt lat="38.61717" lon="-7.34344">
        <ele>177.541</ele>
        <time>2015-08-15T12:03:02Z</time>
      </trkpt>
      <trkpt lat="38.61475" lon="-7.34388">
        <ele>179.281</ele>
        <time>2015-08-15T12:03:20Z</time>
      </trkpt>
      <trkpt lat="38.61373" lon="-7.34511">
        <ele>172.009</ele>
        <time>2015-08-15T12:03:29Z</time>
      </trkpt>
      <trkpt lat="38.61275" lon="-7.34569">
        <ele>167.408</ele>
        <time>2015-08-15T12:03:36Z</time>
      </trkpt>
      <trkpt lat="38.61139" lon="-7.34884">
        <ele>158.495</ele>
        <time>2015-08-15T12:03:51Z</time>
      </trkpt>
      <trkpt lat="38.60858" lon="-7.35043">
        <ele>165.414</ele>
        <time>2015-08-15T12:04:06Z</time>
      </trkpt>
      <trkpt lat="38.60781" lon="-7.3507">
        <ele>162.972</ele>
        <time>2015-08-15T12:04:10Z</time>
      </trkpt>
      <trkpt lat="38.60638" lon="-7.35048">
        <ele>154.671</ele>
        <time>2015-08-15T12:04:17Z</time>
      </trkpt>
      <trkpt lat="38.60539" lon="-7.35037">
        <ele>145.721</ele>
        <time>2015-08-15T12:04:23Z</time>
      </trkpt>
      <trkpt lat="38.60339" lon="-7.35186">
        <ele>149.254</ele>
        <time>2015-08-15T12:04:36Z</time>
      </trkpt>
      <trkpt lat="38.60303" lon="-7.35201">
        <ele>148.622</ele>
        <time>2015-08-15T12:04:38Z</time>
      </trkpt>
      <trkpt lat="38.60189" lon="-7.35167">
        <ele>165.186</ele>
        <time>2015-08-15T12:04:44Z</time>
      </trkpt>
      <trkpt lat="38.60069" lon="-7.35073">
        <ele>155.012</ele>
        <time>2015-08-15T12:04:51Z</time>
      </trkpt>
      <trkpt lat="38.59845" lon="-7.34817">
        <ele>154.932</ele>
        <time>2015-08-15T12:05:06Z</time>
      </trkpt>
      <trkpt lat="38.59798" lon="-7.34791">
        <ele>153.905</ele>
        <time>2015-08-15T12:05:09Z</time>
      </trkpt>
      <trkpt lat="38.59355" lon="-7.34943">
        <ele>172.508</ele>
        <time>2015-08-15T12:05:33Z</time>
      </trkpt>
      <trkpt lat="38.59202" lon="-7.34876">
        <ele>182.682</ele>
        <time>2015-08-15T12:05:42Z</time>
      </trkpt>
      <trkpt lat="38.59097" lon="-7.34846">
        <ele>177.581</ele>
        <time>2015-08-15T12:05:48Z</time>
      </trkpt>
      <trkpt lat="38.58981" lon="-7.34826">
        <ele>181.549</ele>
        <time>2015-08-15T12:05:55Z</time>
      </trkpt>
      <trkpt lat="38.58923" lon="-7.34861">
        <ele>179.298</ele>
        <time>2015-08-15T12:06:00Z</time>
      </trkpt>
      <trkpt lat="38.58903" lon="-7.34882">
        <ele>182.258</ele>
        <time>2015-08-15T12:06:04Z</time>
      </trkpt>
      <trkpt lat="38.58952" lon="-7.3467">
        <ele>172.151</ele>
        <time>2015-08-15T12:06:31Z</time>
      </trkpt>
      <trkpt lat="38.59083" lon="-7.34564">
        <ele>165.789</ele>
        <time>2015-08-15T12:06:46Z</time>
      </trkpt>
      <trkpt lat="38.59104" lon="-7.34509">
        <ele>166.183</ele>
        <time>2015-08-15T12:06:51Z</time>
      </trkpt>
      <trkpt lat="38.59118" lon="-7.34339">
        <ele>166.139</ele>
        <time>2015-08-15T12:07:05Z</time>
      </trkpt>
      <trkpt lat="38.59157" lon="-7.34243">
        <ele>160.801</ele>
        <time>2015-08-15T12:07:13Z</time>
      </trkpt>
      <trkpt lat="38.5917" lon="-7.34111">
        <ele>156.321</ele>
        <time>2015-08-15T12:08:14Z</time>
      </trkpt>
      <trkpt lat="38.59128" lon="-7.34167">
        <ele>158.908</ele>
        <time>2015-08-15T12:08:46Z</time>
      </trkpt>
      <trkpt lat="38.59029" lon="-7.34118">
        <ele>168.544</ele>
        <time>2015-08-15T12:09:03Z</time>
      </trkpt>
      <trkpt lat="38.58966" lon="-7.34103">
        <ele>166.523</ele>
        <time>2015-08-15T12:09:10Z</time>
      </trkpt>
      <trkpt lat="38.5882" lon="-7.34059">
        <ele>174.671</ele>
        <time>2015-08-15T12:09:25Z</time>
      </trkpt>
      <trkpt lat="38.58638" lon="-7.3384">
        <ele>165.28</ele>
        <time>2015-08-15T12:10:00Z</time>
      </trkpt>
      <trkpt lat="38.58498" lon="-7.33813">
        <ele>159.04</ele>
        <time>2015-08-15T12:10:21Z</time>
      </trkpt>
      <trkpt lat="38.58449" lon="-7.33763">
        <ele>156.693</ele>
        <time>2015-08-15T12:10:30Z</time>
      </trkpt>
      <trkpt lat="38.58397" lon="-7.3362">
        <ele>168.771</ele>
        <time>2015-08-15T12:10:52Z</time>
      </trkpt>
      <trkpt lat="38.58364" lon="-7.3354">
        <ele>170.385</ele>
        <time>2015-08-15T12:11:00Z</time>
      </trkpt>
      <trkpt lat="38.58252" lon="-7.33455">
        <ele>173.241</ele>
        <time>2015-08-15T12:11:24Z</time>
      </trkpt>
      <trkpt lat="38.58179" lon="-7.33514">
        <ele>178.681</ele>
        <time>2015-08-15T12:11:42Z</time>
      </trkpt>
      <trkpt lat="38.58116" lon="-7.33648">
        <ele>178.409</ele>
        <time>2015-08-15T12:12:05Z</time>
      </trkpt>
      <trkpt lat="38.58055" lon="-7.33648">
        <ele>172.608</ele>
        <time>2015-08-15T12:12:16Z</time>
      </trkpt>
      <trkpt lat="38.58009" lon="-7.33664">
        <ele>171.025</ele>
        <time>2015-08-15T12:12:24Z</time>
      </trkpt>
      <trkpt lat="38.57889" lon="-7.33491">
        <ele>179.774</ele>
        <time>2015-08-15T12:12:46Z</time>
      </trkpt>
      <trkpt lat="38.57884" lon="-7.33446">
        <ele>182.812</ele>
        <time>2015-08-15T12:12:50Z</time>
      </trkpt>
      <trkpt lat="38.57874" lon="-7.33296">
        <ele>177.111</ele>
        <time>2015-08-15T12:13:04Z</time>
      </trkpt>
      <trkpt lat="38.5783" lon="-7.33119">
        <ele>172.481</ele>
        <time>2015-08-15T12:13:25Z</time>
      </trkpt>
      <trkpt lat="38.57603" lon="-7.329">
        <ele>162.554</ele>
        <time>2015-08-15T12:14:17Z</time>
      </trkpt>
      <trkpt lat="38.57573" lon="-7.32886">
        <ele>162.392</ele>
        <time>2015-08-15T12:14:26Z</time>
      </trkpt>
      <trkpt lat="38.57438" lon="-7.32693">
        <ele>177.476</ele>
        <time>2015-08-15T12:14:56Z</time>
      </trkpt>
      <trkpt lat="38.57394" lon="-7.32653">
        <ele>176.392</ele>
        <time>2015-08-15T12:15:55Z</time>
      </trkpt>
      <trkpt lat="38.57329" lon="-7.32712">
        <ele>177.873</ele>
        <time>2015-08-15T12:16:08Z</time>
      </trkpt>
      <trkpt lat="38.57327" lon="-7.32793">
        <ele>182.12</ele>
        <time>2015-08-15T12:16:16Z</time>
      </trkpt>
      <trkpt lat="38.57313" lon="-7.32814">
        <ele>181.708</ele>
        <time>2015-08-15T12:16:19Z</time>
      </trkpt>
      <trkpt lat="38.57154" lon="-7.3286">
        <ele>190.45</ele>
        <time>2015-08-15T12:16:35Z</time>
      </trkpt>
      <trkpt lat="38.57132" lon="-7.32857">
        <ele>190.319</ele>
        <time>2015-08-15T12:16:37Z</time>
      </trkpt>
      <trkpt lat="38.5704" lon="-7.32779">
        <ele>187.557</ele>
        <time>2015-08-15T12:16:48Z</time>
      </trkpt>
      <trkpt lat="38.56911" lon="-7.32754">
        <ele>186.416</ele>
        <time>2015-08-15T12:17:05Z</time>
      </trkpt>
      <trkpt lat="38.56866" lon="-7.32631">
        <ele>186.746</ele>
        <time>2015-08-15T12:17:18Z</time>
      </trkpt>
      <trkpt lat="38.56845" lon="-7.32586">
        <ele>186.039</ele>
        <time>2015-08-15T12:17:50Z</time>
      </trkpt>
      <trkpt lat="38.56699" lon="-7.32574">
        <ele>177.427</ele>
        <time>2015-08-15T12:18:11Z</time>
      </trkpt>
      <trkpt lat="38.56528" lon="-7.32546">
        <ele>169.041</ele>
        <time>2015-08-15T12:18:29Z</time>
      </trkpt>
      <trkpt lat="38.56191" lon="-7.32674">
        <ele>159.951</ele>
        <time>2015-08-15T12:19:09Z</time>
      </trkpt>
      <trkpt lat="38.56118" lon="-7.32755">
        <ele>165.501</ele>
        <time>2015-08-15T12:19:23Z</time>
      </trkpt>
      <trkpt lat="38.56018" lon="-7.32928">
        <ele>176.011</ele>
        <time>2015-08-15T12:19:48Z</time>
      </trkpt>
      <trkpt lat="38.55889" lon="-7.33031">
        <ele>188.108</ele>
        <time>2015-08-15T12:20:16Z</time>
      </trkpt>
      <trkpt lat="38.55868" lon="-7.33106">
        <ele>190.446</ele>
        <time>2015-08-15T12:20:27Z</time>
      </trkpt>
      <trkpt lat="38.55668" lon="-7.33169">
        <ele>188.185</ele>
        <time>2015-08-15T12:21:24Z</time>
      </trkpt>
      <trkpt lat="38.55594" lon="-7.33471">
        <ele>189.533</ele>
        <time>2015-08-15T12:22:01Z</time>
      </trkpt>
      <trkpt lat="38.55431" lon="-7.33733">
        <ele>202.012</ele>
        <time>2015-08-15T12:22:27Z</time>
      </trkpt>
      <trkpt lat="38.55273" lon="-7.33919">
        <ele>191.512</ele>
        <time>2015-08-15T12:22:49Z</time>
      </trkpt>
      <trkpt lat="38.55114" lon="-7.33949">
        <ele>201.185</ele>
        <time>2015-08-15T12:23:07Z</time>
      </trkpt>
      <trkpt lat="38.55017" lon="-7.33885">
        <ele>202.633</ele>
        <time>2015-08-15T12:23:47Z</time>
      </trkpt>
      <trkpt lat="38.54802" lon="-7.34019">
        <ele>212.947</ele>
        <time>2015-08-15T12:24:41Z</time>
      </trkpt>
      <trkpt lat="38.54774" lon="-7.34087">
        <ele>211.896</ele>
        <time>2015-08-15T12:25:55Z</time>
      </trkpt>
      <trkpt lat="38.54683" lon="-7.34307">
        <ele>213.131</ele>
        <time>2015-08-15T12:26:15Z</time>
      </trkpt>
      <trkpt lat="38.54601" lon="-7.34426">
        <ele>217.224</ele>
        <time>2015-08-15T12:26:29Z</time>
      </trkpt>
      <trkpt lat="38.54465" lon="-7.34593">
        <ele>215.608</ele>
        <time>2015-08-15T12:26:54Z</time>
      </trkpt>
      <trkpt lat="38.54414" lon="-7.34615">
        <ele>215.05</ele>
        <time>2015-08-15T12:27:48Z</time>
      </trkpt>
      <trkpt lat="38.54396" lon="-7.34635">
        <ele>215.029</ele>
        <time>2015-08-15T12:27:54Z</time>
      </trkpt>
      <trkpt lat="38.54354" lon="-7.34733">
        <ele>215.997</ele>
        <time>2015-08-15T12:28:05Z</time>
      </trkpt>
      <trkpt lat="38.54344" lon="-7.34906">
        <ele>222.236</ele>
        <time>2015-08-15T12:28:23Z</time>
      </trkpt>
      <trkpt lat="38.54339" lon="-7.34948">
        <ele>223.716</ele>
        <time>2015-08-15T12:29:03Z</time>
      </trkpt>
      <trkpt lat="38.54232" lon="-7.34848">
        <ele>223.579</ele>
        <time>2015-08-15T12:29:25Z</time>
      </trkpt>
      <trkpt lat="38.54025" lon="-7.34825">
        <ele>222.047</ele>
        <time>2015-08-15T12:29:46Z</time>
      </trkpt>
      <trkpt lat="38.53979" lon="-7.34833">
        <ele>221.021</ele>
        <time>2015-08-15T12:29:53Z</time>
      </trkpt>
      <trkpt lat="38.53682" lon="-7.35032">
        <ele>222.614</ele>
        <time>2015-08-15T12:31:10Z</time>
      </trkpt>
      <trkpt lat="38.53496" lon="-7.3498">
        <ele>223.454</ele>
        <time>2015-08-15T12:31:36Z</time>
      </trkpt>
      <trkpt lat="38.53193" lon="-7.34763">
        <ele>219.009</ele>
        <time>2015-08-15T12:32:13Z</time>
      </trkpt>
      <trkpt lat="38.53084" lon="-7.34652">
        <ele>223.508</ele>
        <time>2015-08-15T12:32:48Z</time>
      </trkpt>
      <trkpt lat="38.52815" lon="-7.34536">
        <ele>211.572</ele>
        <time>2015-08-15T12:33:26Z</time>
      </trkpt>
      <trkpt lat="38.52579" lon="-7.34286">
        <ele>202.691</ele>
        <time>2015-08-15T12:34:17Z</time>
      </trkpt>
      <trkpt lat="38.5218" lon="-7.33955">
        <ele>208.139</ele>
        <time>2015-08-15T12:35:38Z</time>
      </trkpt>
      <trkpt lat="38.5156" lon="-7.33946">
        <ele>205.088</ele>
        <time>2015-08-15T12:37:14Z</time>
      </trkpt>
      <trkpt lat="38.51335" lon="-7.33808">
        <ele>198.928</ele>
        <time>2015-08-15T12:37:50Z</time>
      </trkpt>
      <trkpt lat="38.51144" lon="-7.33736">
        <ele>203.961</ele>
        <time>2015-08-15T12:38:17Z</time>
      </trkpt>
      <trkpt lat="38.50803" lon="-7.33474">
        <ele>191.959</ele>
        <time>2015-08-15T12:39:16Z</time>
      </trkpt>
      <trkpt lat="38.50546" lon="-7.33429">
        <ele>195.963</ele>
        <time>2015-08-15T12:39:51Z</time>
      </trkpt>
      <trkpt lat="38.50352" lon="-7.33497">
        <ele>193.923</ele>
        <time>2015-08-15T12:40:18Z</time>
      </trkpt>
      <trkpt lat="38.50245" lon="-7.33509">
        <ele>190.983</ele>
        <time>2015-08-15T12:40:31Z</time>
      </trkpt>
      <trkpt lat="38.50041" lon="-7.33615">
        <ele>198.111</ele>
        <time>2015-08-15T12:40:58Z</time>
      </trkpt>
      <trkpt lat="38.49655" lon="-7.33697">
        <ele>185.908</ele>
        <time>2015-08-15T12:41:49Z</time>
      </trkpt>
      <trkpt lat="38.49333" lon="-7.33665">
        <ele>181.923</ele>
        <time>2015-08-15T12:42:21Z</time>
      </trkpt>
      <trkpt lat="38.49052" lon="-7.33546">
        <ele>188.752</ele>
        <time>2015-08-15T12:42:51Z</time>
      </trkpt>
      <trkpt lat="38.48923" lon="-7.3353">
        <ele>186.92</ele>
        <time>2015-08-15T12:43:04Z</time>
      </trkpt>
      <trkpt lat="38.48851" lon="-7.33557">
        <ele>190.259</ele>
        <time>2015-08-15T12:43:12Z</time>
      </trkpt>
      <trkpt lat="38.4876" lon="-7.33604">
        <ele>183.739</ele>
        <time>2015-08-15T12:43:23Z</time>
      </trkpt>
      <trkpt lat="38.48287" lon="-7.33674">
        <ele>186.822</ele>
        <time>2015-08-15T12:44:13Z</time>
      </trkpt>
      <trkpt lat="38.48197" lon="-7.33705">
        <ele>186.77</ele>
        <time>2015-08-15T12:44:23Z</time>
      </trkpt>
      <trkpt lat="38.48038" lon="-7.3367">
        <ele>187.724</ele>
        <time>2015-08-15T12:44:41Z</time>
      </trkpt>
      <trkpt lat="38.47851" lon="-7.3361">
        <ele>187.748</ele>
        <time>2015-08-15T12:45:00Z</time>
      </trkpt>
      <trkpt lat="38.47759" lon="-7.3353">
        <ele>185.561</ele>
        <time>2015-08-15T12:45:14Z</time>
      </trkpt>
      <trkpt lat="38.47662" lon="-7.33642">
        <ele>184.017</ele>
        <time>2015-08-15T12:45:35Z</time>
      </trkpt>
      <trkpt lat="38.4764" lon="-7.33705">
        <ele>180.708</ele>
        <time>2015-08-15T12:45:40Z</time>
      </trkpt>
      <trkpt lat="38.47633" lon="-7.33993">
        <ele>180.955</ele>
        <time>2015-08-15T12:45:59Z</time>
      </trkpt>
      <trkpt lat="38.47652" lon="-7.34227">
        <ele>170.814</ele>
        <time>2015-08-15T12:46:12Z</time>
      </trkpt>
      <trkpt lat="38.47734" lon="-7.34407">
        <ele>165.142</ele>
        <time>2015-08-15T12:46:23Z</time>
      </trkpt>
      <trkpt lat="38.47757" lon="-7.34529">
        <ele>159.551</ele>
        <time>2015-08-15T12:46:31Z</time>
      </trkpt>
      <trkpt lat="38.47782" lon="-7.34595">
        <ele>158.611</ele>
        <time>2015-08-15T12:46:37Z</time>
      </trkpt>
      <trkpt lat="38.47705" lon="-7.34706">
        <ele>159.094</ele>
        <time>2015-08-15T12:46:50Z</time>
      </trkpt>
      <trkpt lat="38.47724" lon="-7.34806">
        <ele>163.172</ele>
        <time>2015-08-15T12:46:58Z</time>
      </trkpt>
      <trkpt lat="38.47737" lon="-7.34969">
        <ele>154.356</ele>
        <time>2015-08-15T12:47:10Z</time>
      </trkpt>
      <trkpt lat="38.47776" lon="-7.35266">
        <ele>159.782</ele>
        <time>2015-08-15T12:47:26Z</time>
      </trkpt>
      <trkpt lat="38.47735" lon="-7.35393">
        <ele>159.743</ele>
        <time>2015-08-15T12:47:35Z</time>
      </trkpt>
      <trkpt lat="38.47646" lon="-7.35399">
        <ele>162.117</ele>
        <time>2015-08-15T12:47:42Z</time>
      </trkpt>
      <trkpt lat="38.47521" lon="-7.35395">
        <ele>168.208</ele>
        <time>2015-08-15T12:47:52Z</time>
      </trkpt>
      <trkpt lat="38.47496" lon="-7.35594">
        <ele>169.769</ele>
        <time>2015-08-15T12:48:08Z</time>
      </trkpt>
      <trkpt lat="38.47474" lon="-7.35973">
        <ele>173.138</ele>
        <time>2015-08-15T12:48:32Z</time>
      </trkpt>
      <trkpt lat="38.4755" lon="-7.3641">
        <ele>182.876</ele>
        <time>2015-08-15T12:49:08Z</time>
      </trkpt>
      <trkpt lat="38.47529" lon="-7.36521">
        <ele>184.785</ele>
        <time>2015-08-15T12:49:16Z</time>
      </trkpt>
      <trkpt lat="38.47425" lon="-7.36675">
        <ele>193.315</ele>
        <time>2015-08-15T12:49:31Z</time>
      </trkpt>
      <trkpt lat="38.47411" lon="-7.3671">
        <ele>190.698</ele>
        <time>2015-08-15T12:49:36Z</time>
      </trkpt>
      <trkpt lat="38.47114" lon="-7.36965">
        <ele>182.546</ele>
        <time>2015-08-15T12:50:41Z</time>
      </trkpt>
      <trkpt lat="38.47052" lon="-7.37051">
        <ele>179.38</ele>
        <time>2015-08-15T12:50:52Z</time>
      </trkpt>
      <trkpt lat="38.46969" lon="-7.37252">
        <ele>180.297</ele>
        <time>2015-08-15T12:51:10Z</time>
      </trkpt>
      <trkpt lat="38.4695" lon="-7.37298">
        <ele>180.823</ele>
        <time>2015-08-15T12:51:13Z</time>
      </trkpt>
      <trkpt lat="38.46797" lon="-7.37693">
        <ele>206.325</ele>
        <time>2015-08-15T12:51:39Z</time>
      </trkpt>
      <trkpt lat="38.46771" lon="-7.37837">
        <ele>207.508</ele>
        <time>2015-08-15T12:52:00Z</time>
      </trkpt>
      <trkpt lat="38.46764" lon="-7.37926">
        <ele>208.06</ele>
        <time>2015-08-15T12:52:10Z</time>
      </trkpt>
      <trkpt lat="38.46112" lon="-7.37644">
        <ele>195.069</ele>
        <time>2015-08-15T12:53:12Z</time>
      </trkpt>
      <trkpt lat="38.46026" lon="-7.37571">
        <ele>192.097</ele>
        <time>2015-08-15T12:53:19Z</time>
      </trkpt>
      <trkpt lat="38.45945" lon="-7.37496">
        <ele>182.746</ele>
        <time>2015-08-15T12:53:25Z</time>
      </trkpt>
      <trkpt lat="38.45895" lon="-7.37406">
        <ele>177.036</ele>
        <time>2015-08-15T12:53:31Z</time>
      </trkpt>
      <trkpt lat="38.45882" lon="-7.37397">
        <ele>177.189</ele>
        <time>2015-08-15T12:53:32Z</time>
      </trkpt>
      <trkpt lat="38.45547" lon="-7.37234">
        <ele>201.197</ele>
        <time>2015-08-15T12:53:58Z</time>
      </trkpt>
      <trkpt lat="38.45529" lon="-7.37231">
        <ele>202.371</ele>
        <time>2015-08-15T12:54:00Z</time>
      </trkpt>
      <trkpt lat="38.45444" lon="-7.374">
        <ele>204.859</ele>
        <time>2015-08-15T12:54:15Z</time>
      </trkpt>
      <trkpt lat="38.45275" lon="-7.37522">
        <ele>212.603</ele>
        <time>2015-08-15T14:30:41Z</time>
      </trkpt>
      <trkpt lat="38.45249" lon="-7.3756">
        <ele>215.423</ele>
        <time>2015-08-15T14:31:28Z</time>
      </trkpt>
      <trkpt lat="38.44975" lon="-7.37573">
        <ele>232.208</ele>
        <time>2015-08-15T14:32:04Z</time>
      </trkpt>
      <trkpt lat="38.44907" lon="-7.37615">
        <ele>244.466</ele>
        <time>2015-08-15T14:32:10Z</time>
      </trkpt>
      <trkpt lat="38.44839" lon="-7.37616">
        <ele>245.755</ele>
        <time>2015-08-15T14:32:15Z</time>
      </trkpt>
      <trkpt lat="38.44759" lon="-7.37639">
        <ele>250.683</ele>
        <time>2015-08-15T14:32:21Z</time>
      </trkpt>
      <trkpt lat="38.4469" lon="-7.37672">
        <ele>255.892</ele>
        <time>2015-08-15T14:32:26Z</time>
      </trkpt>
      <trkpt lat="38.44567" lon="-7.37673">
        <ele>267.462</ele>
        <time>2015-08-15T14:32:35Z</time>
      </trkpt>
      <trkpt lat="38.44489" lon="-7.37855">
        <ele>285.185</ele>
        <time>2015-08-15T14:32:49Z</time>
      </trkpt>
      <trkpt lat="38.44419" lon="-7.37869">
        <ele>290.093</ele>
        <time>2015-08-15T14:32:55Z</time>
      </trkpt>
      <trkpt lat="38.44333" lon="-7.37848">
        <ele>286.517</ele>
        <time>2015-08-15T14:33:02Z</time>
      </trkpt>
      <trkpt lat="38.44263" lon="-7.37878">
        <ele>285.231</ele>
        <time>2015-08-15T14:33:08Z</time>
      </trkpt>
      <trkpt lat="38.44236" lon="-7.37899">
        <ele>289.161</ele>
        <time>2015-08-15T14:33:12Z</time>
      </trkpt>
      <trkpt lat="38.44213" lon="-7.3799">
        <ele>296.907</ele>
        <time>2015-08-15T14:33:34Z</time>
      </trkpt>
      <trkpt lat="38.44068" lon="-7.38175">
        <ele>285.008</ele>
        <time>2015-08-15T14:33:50Z</time>
      </trkpt>
      <trkpt lat="38.43949" lon="-7.38242">
        <ele>274.774</ele>
        <time>2015-08-15T14:33:59Z</time>
      </trkpt>
      <trkpt lat="38.43851" lon="-7.38246">
        <ele>261.733</ele>
        <time>2015-08-15T14:34:06Z</time>
      </trkpt>
      <trkpt lat="38.43767" lon="-7.38212">
        <ele>245.981</ele>
        <time>2015-08-15T14:34:13Z</time>
      </trkpt>
      <trkpt lat="38.437" lon="-7.38258">
        <ele>239.97</ele>
        <time>2015-08-15T14:34:19Z</time>
      </trkpt>
      <trkpt lat="38.43645" lon="-7.38336">
        <ele>237.14</ele>
        <time>2015-08-15T14:34:25Z</time>
      </trkpt>
      <trkpt lat="38.43591" lon="-7.38356">
        <ele>230.353</ele>
        <time>2015-08-15T14:34:29Z</time>
      </trkpt>
      <trkpt lat="38.43489" lon="-7.38345">
        <ele>214.571</ele>
        <time>2015-08-15T14:34:38Z</time>
      </trkpt>
      <trkpt lat="38.43435" lon="-7.38542">
        <ele>200.075</ele>
        <time>2015-08-15T14:34:50Z</time>
      </trkpt>
      <trkpt lat="38.43242" lon="-7.38852">
        <ele>178.195</ele>
        <time>2015-08-15T14:35:05Z</time>
      </trkpt>
      <trkpt lat="38.43075" lon="-7.39098">
        <ele>169.849</ele>
        <time>2015-08-15T14:35:15Z</time>
      </trkpt>
      <trkpt lat="38.4301" lon="-7.39267">
        <ele>170.523</ele>
        <time>2015-08-15T14:35:21Z</time>
      </trkpt>
      <trkpt lat="38.42996" lon="-7.39422">
        <ele>175.608</ele>
        <time>2015-08-15T14:35:26Z</time>
      </trkpt>
      <trkpt lat="38.431" lon="-7.4006">
        <ele>175.98</ele>
        <time>2015-08-15T14:35:46Z</time>
      </trkpt>
      <trkpt lat="38.43127" lon="-7.40326">
        <ele>175.919</ele>
        <time>2015-08-15T14:35:54Z</time>
      </trkpt>
      <trkpt lat="38.43122" lon="-7.40427">
        <ele>179.287</ele>
        <time>2015-08-15T14:35:57Z</time>
      </trkpt>
      <trkpt lat="38.43079" lon="-7.40624">
        <ele>183.976</ele>
        <time>2015-08-15T14:36:03Z</time>
      </trkpt>
      <trkpt lat="38.42991" lon="-7.40798">
        <ele>186.396</ele>
        <time>2015-08-15T14:36:09Z</time>
      </trkpt>
      <trkpt lat="38.42861" lon="-7.40931">
        <ele>185.599</ele>
        <time>2015-08-15T14:36:15Z</time>
      </trkpt>
      <trkpt lat="38.42595" lon="-7.41031">
        <ele>176.827</ele>
        <time>2015-08-15T14:36:25Z</time>
      </trkpt>
      <trkpt lat="38.4204" lon="-7.41045">
        <ele>178.021</ele>
        <time>2015-08-15T14:36:45Z</time>
      </trkpt>
      <trkpt lat="38.41687" lon="-7.41221">
        <ele>157.421</ele>
        <time>2015-08-15T14:37:00Z</time>
      </trkpt>
      <trkpt lat="38.41585" lon="-7.41291">
        <ele>157.041</ele>
        <time>2015-08-15T14:37:09Z</time>
      </trkpt>
      <trkpt lat="38.4169" lon="-7.41758">
        <ele>171.005</ele>
        <time>2015-08-15T14:37:36Z</time>
      </trkpt>
      <trkpt lat="38.4167" lon="-7.42326">
        <ele>186.808</ele>
        <time>2015-08-15T14:37:55Z</time>
      </trkpt>
      <trkpt lat="38.41564" lon="-7.43059">
        <ele>173.923</ele>
        <time>2015-08-15T14:38:19Z</time>
      </trkpt>
      <trkpt lat="38.4149" lon="-7.43647">
        <ele>169.442</ele>
        <time>2015-08-15T14:38:36Z</time>
      </trkpt>
      <trkpt lat="38.41488" lon="-7.43908">
        <ele>170.16</ele>
        <time>2015-08-15T14:38:45Z</time>
      </trkpt>
      <trkpt lat="38.41503" lon="-7.44075">
        <ele>172.659</ele>
        <time>2015-08-15T14:38:52Z</time>
      </trkpt>
      <trkpt lat="38.41502" lon="-7.44117">
        <ele>172.029</ele>
        <time>2015-08-15T14:38:56Z</time>
      </trkpt>
      <trkpt lat="38.41451" lon="-7.44116">
        <ele>172.892</ele>
        <time>2015-08-15T14:39:12Z</time>
      </trkpt>
      <trkpt lat="38.41358" lon="-7.4397">
        <ele>173.87</ele>
        <time>2015-08-15T14:39:22Z</time>
      </trkpt>
      <trkpt lat="38.41201" lon="-7.43753">
        <ele>167.514</ele>
        <time>2015-08-15T14:39:34Z</time>
      </trkpt>
      <trkpt lat="38.40936" lon="-7.43468">
        <ele>165.099</ele>
        <time>2015-08-15T14:39:59Z</time>
      </trkpt>
      <trkpt lat="38.40887" lon="-7.43765">
        <ele>162.007</ele>
        <time>2015-08-15T14:40:43Z</time>
      </trkpt>
      <trkpt lat="38.40489" lon="-7.44224">
        <ele>162.227</ele>
        <time>2015-08-15T14:41:24Z</time>
      </trkpt>
      <trkpt lat="38.40388" lon="-7.44257">
        <ele>160.008</ele>
        <time>2015-08-15T14:41:31Z</time>
      </trkpt>
      <trkpt lat="38.40177" lon="-7.44217">
        <ele>156.91</ele>
        <time>2015-08-15T14:41:48Z</time>
      </trkpt>
      <trkpt lat="38.40072" lon="-7.44247">
        <ele>156.859</ele>
        <time>2015-08-15T14:41:56Z</time>
      </trkpt>
      <trkpt lat="38.3966" lon="-7.44467">
        <ele>162.417</ele>
        <time>2015-08-15T14:42:27Z</time>
      </trkpt>
      <trkpt lat="38.39521" lon="-7.44533">
        <ele>160.796</ele>
        <time>2015-08-15T14:42:37Z</time>
      </trkpt>
      <trkpt lat="38.39415" lon="-7.44464">
        <ele>154.726</ele>
        <time>2015-08-15T14:42:48Z</time>
      </trkpt>
      <trkpt lat="38.39261" lon="-7.44462">
        <ele>160.219</ele>
        <time>2015-08-15T14:43:01Z</time>
      </trkpt>
      <trkpt lat="38.3898" lon="-7.44729">
        <ele>173.927</ele>
        <time>2015-08-15T14:43:27Z</time>
      </trkpt>
      <trkpt lat="38.38703" lon="-7.44928">
        <ele>187.131</ele>
        <time>2015-08-15T14:43:53Z</time>
      </trkpt>
      <trkpt lat="38.38476" lon="-7.44931">
        <ele>177.377</ele>
        <time>2015-08-15T14:44:20Z</time>
      </trkpt>
      <trkpt lat="38.38384" lon="-7.45083">
        <ele>178.861</ele>
        <time>2015-08-15T14:44:37Z</time>
      </trkpt>
      <trkpt lat="38.38308" lon="-7.45123">
        <ele>178.527</ele>
        <time>2015-08-15T14:44:48Z</time>
      </trkpt>
      <trkpt lat="38.38214" lon="-7.45123">
        <ele>179.408</ele>
        <time>2015-08-15T14:45:05Z</time>
      </trkpt>
      <trkpt lat="38.38125" lon="-7.45347">
        <ele>181.568</ele>
        <time>2015-08-15T14:46:14Z</time>
      </trkpt>
      <trkpt lat="38.38074" lon="-7.45442">
        <ele>181.077</ele>
        <time>2015-08-15T14:46:22Z</time>
      </trkpt>
      <trkpt lat="38.37949" lon="-7.45556">
        <ele>185.065</ele>
        <time>2015-08-15T14:46:35Z</time>
      </trkpt>
      <trkpt lat="38.37845" lon="-7.45718">
        <ele>189.114</ele>
        <time>2015-08-15T14:46:46Z</time>
      </trkpt>
      <trkpt lat="38.37578" lon="-7.46117">
        <ele>183.184</ele>
        <time>2015-08-15T14:47:15Z</time>
      </trkpt>
      <trkpt lat="38.37422" lon="-7.46216">
        <ele>183.447</ele>
        <time>2015-08-15T14:47:26Z</time>
      </trkpt>
      <trkpt lat="38.36925" lon="-7.46398">
        <ele>189.335</ele>
        <time>2015-08-15T14:47:59Z</time>
      </trkpt>
      <trkpt lat="38.36852" lon="-7.46587">
        <ele>193.169</ele>
        <time>2015-08-15T14:48:12Z</time>
      </trkpt>
      <trkpt lat="38.36749" lon="-7.46848">
        <ele>189.141</ele>
        <time>2015-08-15T14:49:00Z</time>
      </trkpt>
      <trkpt lat="38.36567" lon="-7.4698">
        <ele>195.181</ele>
        <time>2015-08-15T14:49:31Z</time>
      </trkpt>
      <trkpt lat="38.3635" lon="-7.46995">
        <ele>194.409</ele>
        <time>2015-08-15T14:50:08Z</time>
      </trkpt>
      <trkpt lat="38.3616" lon="-7.47328">
        <ele>193.208</ele>
        <time>2015-08-15T14:51:25Z</time>
      </trkpt>
      <trkpt lat="38.36072" lon="-7.47431">
        <ele>194.615</ele>
        <time>2015-08-15T14:51:32Z</time>
      </trkpt>
      <trkpt lat="38.35966" lon="-7.47553">
        <ele>191.724</ele>
        <time>2015-08-15T14:51:39Z</time>
      </trkpt>
      <trkpt lat="38.35448" lon="-7.48155">
        <ele>194.442</ele>
        <time>2015-08-15T14:52:08Z</time>
      </trkpt>
      <trkpt lat="38.35041" lon="-7.48632">
        <ele>214.861</ele>
        <time>2015-08-15T14:52:30Z</time>
      </trkpt>
      <trkpt lat="38.34629" lon="-7.49108">
        <ele>201.661</ele>
        <time>2015-08-15T14:52:54Z</time>
      </trkpt>
      <trkpt lat="38.34538" lon="-7.49317">
        <ele>199.114</ele>
        <time>2015-08-15T14:53:02Z</time>
      </trkpt>
      <trkpt lat="38.34316" lon="-7.4995">
        <ele>202.712</ele>
        <time>2015-08-15T14:53:23Z</time>
      </trkpt>
      <trkpt lat="38.34204" lon="-7.50353">
        <ele>205.546</ele>
        <time>2015-08-15T14:53:37Z</time>
      </trkpt>
      <trkpt lat="38.34171" lon="-7.50462">
        <ele>206.751</ele>
        <time>2015-08-15T14:53:42Z</time>
      </trkpt>
      <trkpt lat="38.34127" lon="-7.50602">
        <ele>210.401</ele>
        <time>2015-08-15T14:54:01Z</time>
      </trkpt>
      <trkpt lat="38.33896" lon="-7.50564">
        <ele>212.511</ele>
        <time>2015-08-15T14:54:30Z</time>
      </trkpt>
      <trkpt lat="38.33766" lon="-7.50659">
        <ele>215.708</ele>
        <time>2015-08-15T14:55:17Z</time>
      </trkpt>
      <trkpt lat="38.33572" lon="-7.5095">
        <ele>214.886</ele>
        <time>2015-08-15T14:55:50Z</time>
      </trkpt>
      <trkpt lat="38.33517" lon="-7.51202">
        <ele>217.315</ele>
        <time>2015-08-15T14:56:09Z</time>
      </trkpt>
      <trkpt lat="38.33517" lon="-7.51549">
        <ele>215.633</ele>
        <time>2015-08-15T14:56:36Z</time>
      </trkpt>
      <trkpt lat="38.33512" lon="-7.51729">
        <ele>213.282</ele>
        <time>2015-08-15T14:56:53Z</time>
      </trkpt>
      <trkpt lat="38.33465" lon="-7.51821">
        <ele>209.622</ele>
        <time>2015-08-15T14:57:02Z</time>
      </trkpt>
      <trkpt lat="38.33319" lon="-7.51984">
        <ele>226.235</ele>
        <time>2015-08-15T14:57:23Z</time>
      </trkpt>
      <trkpt lat="38.33253" lon="-7.51947">
        <ele>230.773</ele>
        <time>2015-08-15T14:57:39Z</time>
      </trkpt>
      <trkpt lat="38.33317" lon="-7.52011">
        <ele>224.027</ele>
        <time>2015-08-15T14:58:22Z</time>
      </trkpt>
      <trkpt lat="38.33314" lon="-7.52038">
        <ele>221.838</ele>
        <time>2015-08-15T14:58:30Z</time>
      </trkpt>
      <trkpt lat="38.33186" lon="-7.52188">
        <ele>214.97</ele>
        <time>2015-08-15T14:58:42Z</time>
      </trkpt>
      <trkpt lat="38.33052" lon="-7.52289">
        <ele>226.317</ele>
        <time>2015-08-15T14:58:50Z</time>
      </trkpt>
      <trkpt lat="38.32977" lon="-7.52384">
        <ele>231.108</ele>
        <time>2015-08-15T14:58:56Z</time>
      </trkpt>
      <trkpt lat="38.32944" lon="-7.52524">
        <ele>219.484</ele>
        <time>2015-08-15T14:59:02Z</time>
      </trkpt>
      <trkpt lat="38.3295" lon="-7.53046">
        <ele>225.793</ele>
        <time>2015-08-15T14:59:20Z</time>
      </trkpt>
      <trkpt lat="38.32899" lon="-7.53363">
        <ele>227.141</ele>
        <time>2015-08-15T14:59:31Z</time>
      </trkpt>
      <trkpt lat="38.32772" lon="-7.535">
        <ele>219.86</ele>
        <time>2015-08-15T14:59:38Z</time>
      </trkpt>
      <trkpt lat="38.32641" lon="-7.53511">
        <ele>228.27</ele>
        <time>2015-08-15T14:59:44Z</time>
      </trkpt>
      <trkpt lat="38.32558" lon="-7.53508">
        <ele>234.743</ele>
        <time>2015-08-15T14:59:48Z</time>
      </trkpt>
      <trkpt lat="38.32477" lon="-7.53553">
        <ele>235.261</ele>
        <time>2015-08-15T14:59:52Z</time>
      </trkpt>
      <trkpt lat="38.32458" lon="-7.53571">
        <ele>232.665</ele>
        <time>2015-08-15T14:59:53Z</time>
      </trkpt>
      <trkpt lat="38.32216" lon="-7.5384">
        <ele>221.214</ele>
        <time>2015-08-15T15:00:07Z</time>
      </trkpt>
      <trkpt lat="38.32001" lon="-7.53995">
        <ele>216.054</ele>
        <time>2015-08-15T15:00:17Z</time>
      </trkpt>
      <trkpt lat="38.31808" lon="-7.54298">
        <ele>194.409</ele>
        <time>2015-08-15T15:00:29Z</time>
      </trkpt>
      <trkpt lat="38.31393" lon="-7.5478">
        <ele>206.608</ele>
        <time>2015-08-15T15:00:49Z</time>
      </trkpt>
      <trkpt lat="38.31311" lon="-7.5483">
        <ele>217.292</ele>
        <time>2015-08-15T15:00:53Z</time>
      </trkpt>
      <trkpt lat="38.30996" lon="-7.54718">
        <ele>228.731</ele>
        <time>2015-08-15T15:01:07Z</time>
      </trkpt>
      <trkpt lat="38.30887" lon="-7.54673">
        <ele>221.419</ele>
        <time>2015-08-15T15:01:12Z</time>
      </trkpt>
      <trkpt lat="38.30792" lon="-7.54687">
        <ele>218.298</ele>
        <time>2015-08-15T15:01:17Z</time>
      </trkpt>
      <trkpt lat="38.30714" lon="-7.5484">
        <ele>214.528</ele>
        <time>2015-08-15T15:01:24Z</time>
      </trkpt>
      <trkpt lat="38.30635" lon="-7.55081">
        <ele>197.741</ele>
        <time>2015-08-15T15:01:33Z</time>
      </trkpt>
      <trkpt lat="38.3023" lon="-7.55373">
        <ele>169.339</ele>
        <time>2015-08-15T15:01:50Z</time>
      </trkpt>
      <trkpt lat="38.30037" lon="-7.55462">
        <ele>152.023</ele>
        <time>2015-08-15T15:01:57Z</time>
      </trkpt>
      <trkpt lat="38.29452" lon="-7.55587">
        <ele>157.233</ele>
        <time>2015-08-15T15:02:18Z</time>
      </trkpt>
      <trkpt lat="38.29389" lon="-7.55608">
        <ele>163.323</ele>
        <time>2015-08-15T15:02:21Z</time>
      </trkpt>
      <trkpt lat="38.29208" lon="-7.55797">
        <ele>169.115</ele>
        <time>2015-08-15T15:02:32Z</time>
      </trkpt>
      <trkpt lat="38.2912" lon="-7.55825">
        <ele>167.708</ele>
        <time>2015-08-15T15:02:36Z</time>
      </trkpt>
      <trkpt lat="38.28992" lon="-7.55759">
        <ele>159.864</ele>
        <time>2015-08-15T15:02:42Z</time>
      </trkpt>
      <trkpt lat="38.28797" lon="-7.55493">
        <ele>173.523</ele>
        <time>2015-08-15T15:02:53Z</time>
      </trkpt>
      <trkpt lat="38.28683" lon="-7.55376">
        <ele>176.861</ele>
        <time>2015-08-15T15:02:59Z</time>
      </trkpt>
      <trkpt lat="38.28598" lon="-7.55342">
        <ele>176.78</ele>
        <time>2015-08-15T15:03:03Z</time>
      </trkpt>
      <trkpt lat="38.28485" lon="-7.55358">
        <ele>183.38</ele>
        <time>2015-08-15T15:03:08Z</time>
      </trkpt>
      <trkpt lat="38.28421" lon="-7.554">
        <ele>186.963</ele>
        <time>2015-08-15T15:03:11Z</time>
      </trkpt>
      <trkpt lat="38.28268" lon="-7.55556">
        <ele>181.021</ele>
        <time>2015-08-15T15:03:21Z</time>
      </trkpt>
      <trkpt lat="38.28236" lon="-7.55606">
        <ele>178.735</ele>
        <time>2015-08-15T15:03:27Z</time>
      </trkpt>
      <trkpt lat="38.28203" lon="-7.55633">
        <ele>178.014</ele>
        <time>2015-08-15T15:03:34Z</time>
      </trkpt>
      <trkpt lat="38.28187" lon="-7.55546">
        <ele>182.654</ele>
        <time>2015-08-15T15:03:46Z</time>
      </trkpt>
      <trkpt lat="38.28064" lon="-7.55415">
        <ele>187.209</ele>
        <time>2015-08-15T15:04:00Z</time>
      </trkpt>
      <trkpt lat="38.28044" lon="-7.55386">
        <ele>185.508</ele>
        <time>2015-08-15T15:04:02Z</time>
      </trkpt>
      <trkpt lat="38.2771" lon="-7.54922">
        <ele>166.552</ele>
        <time>2015-08-15T15:05:12Z</time>
      </trkpt>
      <trkpt lat="38.27453" lon="-7.54769">
        <ele>155.281</ele>
        <time>2015-08-15T15:05:37Z</time>
      </trkpt>
      <trkpt lat="38.27381" lon="-7.54099">
        <ele>154.799</ele>
        <time>2015-08-15T15:06:22Z</time>
      </trkpt>
      <trkpt lat="38.27294" lon="-7.53944">
        <ele>153.238</ele>
        <time>2015-08-15T15:06:34Z</time>
      </trkpt>
      <trkpt lat="38.27238" lon="-7.53875">
        <ele>155.138</ele>
        <time>2015-08-15T15:06:41Z</time>
      </trkpt>
      <trkpt lat="38.27153" lon="-7.53869">
        <ele>158.921</ele>
        <time>2015-08-15T15:06:48Z</time>
      </trkpt>
      <trkpt lat="38.27034" lon="-7.53896">
        <ele>159.569</ele>
        <time>2015-08-15T15:07:02Z</time>
      </trkpt>
      <trkpt lat="38.27101" lon="-7.53767">
        <ele>157.613</ele>
        <time>2015-08-15T15:07:15Z</time>
      </trkpt>
      <trkpt lat="38.27117" lon="-7.53675">
        <ele>155.545</ele>
        <time>2015-08-15T15:07:22Z</time>
      </trkpt>
      <trkpt lat="38.27038" lon="-7.53347">
        <ele>157.147</ele>
        <time>2015-08-15T15:07:47Z</time>
      </trkpt>
      <trkpt lat="38.26976" lon="-7.53255">
        <ele>162.111</ele>
        <time>2015-08-15T15:07:54Z</time>
      </trkpt>
      <trkpt lat="38.26952" lon="-7.53165">
        <ele>165.808</ele>
        <time>2015-08-15T15:07:59Z</time>
      </trkpt>
      <trkpt lat="38.26908" lon="-7.52824">
        <ele>155.375</ele>
        <time>2015-08-15T15:08:23Z</time>
      </trkpt>
      <trkpt lat="38.26767" lon="-7.52804">
        <ele>161.514</ele>
        <time>2015-08-15T15:08:54Z</time>
      </trkpt>
      <trkpt lat="38.26531" lon="-7.52265">
        <ele>158.912</ele>
        <time>2015-08-15T15:09:32Z</time>
      </trkpt>
      <trkpt lat="38.26648" lon="-7.52047">
        <ele>157.031</ele>
        <time>2015-08-15T15:09:57Z</time>
      </trkpt>
      <trkpt lat="38.26518" lon="-7.51959">
        <ele>160.011</ele>
        <time>2015-08-15T15:10:13Z</time>
      </trkpt>
      <trkpt lat="38.26398" lon="-7.51952">
        <ele>160.824</ele>
        <time>2015-08-15T15:10:25Z</time>
      </trkpt>
      <trkpt lat="38.26353" lon="-7.51921">
        <ele>163.552</ele>
        <time>2015-08-15T15:10:32Z</time>
      </trkpt>
      <trkpt lat="38.26277" lon="-7.519">
        <ele>165.226</ele>
        <time>2015-08-15T15:10:43Z</time>
      </trkpt>
      <trkpt lat="38.26044" lon="-7.5172">
        <ele>172.272</ele>
        <time>2015-08-15T15:11:06Z</time>
      </trkpt>
      <trkpt lat="38.25775" lon="-7.51536">
        <ele>176.713</ele>
        <time>2015-08-15T15:11:27Z</time>
      </trkpt>
      <trkpt lat="38.25689" lon="-7.51424">
        <ele>175.114</ele>
        <time>2015-08-15T15:11:36Z</time>
      </trkpt>
      <trkpt lat="38.25527" lon="-7.51304">
        <ele>172.808</ele>
        <time>2015-08-15T15:11:51Z</time>
      </trkpt>
      <trkpt lat="38.25453" lon="-7.51189">
        <ele>162.218</ele>
        <time>2015-08-15T15:12:20Z</time>
      </trkpt>
      <trkpt lat="38.2535" lon="-7.51388">
        <ele>165.037</ele>
        <time>2015-08-15T15:12:43Z</time>
      </trkpt>
      <trkpt lat="38.25263" lon="-7.51386">
        <ele>167.755</ele>
        <time>2015-08-15T15:12:51Z</time>
      </trkpt>
      <trkpt lat="38.24984" lon="-7.5112">
        <ele>166.444</ele>
        <time>2015-08-15T15:13:23Z</time>
      </trkpt>
      <trkpt lat="38.24865" lon="-7.51006">
        <ele>159.754</ele>
        <time>2015-08-15T15:13:38Z</time>
      </trkpt>
      <trkpt lat="38.24823" lon="-7.51017">
        <ele>159.947</ele>
        <time>2015-08-15T15:13:43Z</time>
      </trkpt>
      <trkpt lat="38.24803" lon="-7.51194">
        <ele>177.455</ele>
        <time>2015-08-15T15:13:58Z</time>
      </trkpt>
      <trkpt lat="38.24754" lon="-7.51242">
        <ele>185.879</ele>
        <time>2015-08-15T15:14:04Z</time>
      </trkpt>
      <trkpt lat="38.24672" lon="-7.51388">
        <ele>198.197</ele>
        <time>2015-08-15T15:14:19Z</time>
      </trkpt>
      <trkpt lat="38.24608" lon="-7.51374">
        <ele>198.923</ele>
        <time>2015-08-15T15:14:26Z</time>
      </trkpt>
      <trkpt lat="38.24468" lon="-7.51264">
        <ele>199.325</ele>
        <time>2015-08-15T15:14:43Z</time>
      </trkpt>
      <trkpt lat="38.24254" lon="-7.51224">
        <ele>194.408</ele>
        <time>2015-08-15T15:15:05Z</time>
      </trkpt>
      <trkpt lat="38.24197" lon="-7.51181">
        <ele>195.84</ele>
        <time>2015-08-15T15:15:12Z</time>
      </trkpt>
      <trkpt lat="38.24188" lon="-7.51168">
        <ele>194.889</ele>
        <time>2015-08-15T15:15:14Z</time>
      </trkpt>
      <trkpt lat="38.23973" lon="-7.51122">
        <ele>185.267</ele>
        <time>2015-08-15T15:15:51Z</time>
      </trkpt>
      <trkpt lat="38.2393" lon="-7.51151">
        <ele>180.086</ele>
        <time>2015-08-15T15:15:56Z</time>
      </trkpt>
      <trkpt lat="38.23832" lon="-7.51238">
        <ele>167.646</ele>
        <time>2015-08-15T15:16:11Z</time>
      </trkpt>
      <trkpt lat="38.23969" lon="-7.51285">
        <ele>168.629</ele>
        <time>2015-08-15T15:16:28Z</time>
      </trkpt>
      <trkpt lat="38.24021" lon="-7.51374">
        <ele>166.287</ele>
        <time>2015-08-15T15:16:36Z</time>
      </trkpt>
      <trkpt lat="38.24144" lon="-7.51357">
        <ele>166.911</ele>
        <time>2015-08-15T15:16:48Z</time>
      </trkpt>
      <trkpt lat="38.24121" lon="-7.51424">
        <ele>170.834</ele>
        <time>2015-08-15T15:16:56Z</time>
      </trkpt>
      <trkpt lat="38.23986" lon="-7.51494">
        <ele>161.455</ele>
        <time>2015-08-15T15:17:09Z</time>
      </trkpt>
      <trkpt lat="38.24029" lon="-7.51543">
        <ele>162.81</ele>
        <time>2015-08-15T15:17:16Z</time>
      </trkpt>
      <trkpt lat="38.24107" lon="-7.51509">
        <ele>165.808</ele>
        <time>2015-08-15T15:17:24Z</time>
      </trkpt>
      <trkpt lat="38.24132" lon="-7.51514">
        <ele>166.984</ele>
        <time>2015-08-15T15:17:27Z</time>
      </trkpt>
      <trkpt lat="38.24137" lon="-7.51547">
        <ele>167.173</ele>
        <time>2015-08-15T15:17:30Z</time>
      </trkpt>
      <trkpt lat="38.24099" lon="-7.51643">
        <ele>164.481</ele>
        <time>2015-08-15T15:17:39Z</time>
      </trkpt>
      <trkpt lat="38.24103" lon="-7.51657">
        <ele>164.31</ele>
        <time>2015-08-15T15:17:40Z</time>
      </trkpt>
      <trkpt lat="38.24136" lon="-7.51807">
        <ele>158.02</ele>
        <time>2015-08-15T15:17:51Z</time>
      </trkpt>
      <trkpt lat="38.24023" lon="-7.51776">
        <ele>167.513</ele>
        <time>2015-08-15T15:18:02Z</time>
      </trkpt>
      <trkpt lat="38.23983" lon="-7.51829">
        <ele>163.361</ele>
        <time>2015-08-15T15:18:08Z</time>
      </trkpt>
      <trkpt lat="38.23963" lon="-7.51855">
        <ele>162.345</ele>
        <time>2015-08-15T15:18:11Z</time>
      </trkpt>
      <trkpt lat="38.2387" lon="-7.51777">
        <ele>170.669</ele>
        <time>2015-08-15T15:18:22Z</time>
      </trkpt>
      <trkpt lat="38.23813" lon="-7.51842">
        <ele>170.604</ele>
        <time>2015-08-15T15:18:29Z</time>
      </trkpt>
      <trkpt lat="38.23783" lon="-7.51856">
        <ele>173.324</ele>
        <time>2015-08-15T15:18:32Z</time>
      </trkpt>
      <trkpt lat="38.23687" lon="-7.51789">
        <ele>176.208</ele>
        <time>2015-08-15T15:18:42Z</time>
      </trkpt>
      <trkpt lat="38.23626" lon="-7.5184">
        <ele>178.997</ele>
        <time>2015-08-15T15:18:49Z</time>
      </trkpt>
      <trkpt lat="38.236" lon="-7.5189">
        <ele>175.846</ele>
        <time>2015-08-15T15:18:53Z</time>
      </trkpt>
      <trkpt lat="38.2354" lon="-7.51904">
        <ele>168.574</ele>
        <time>2015-08-15T15:18:59Z</time>
      </trkpt>
      <trkpt lat="38.23524" lon="-7.51912">
        <ele>166.293</ele>
        <time>2015-08-15T15:19:01Z</time>
      </trkpt>
      <trkpt lat="38.23499" lon="-7.52128">
        <ele>161.833</ele>
        <time>2015-08-15T15:19:18Z</time>
      </trkpt>
      <trkpt lat="38.23424" lon="-7.52147">
        <ele>164.596</ele>
        <time>2015-08-15T15:19:25Z</time>
      </trkpt>
      <trkpt lat="38.23415" lon="-7.52136">
        <ele>166.334</ele>
        <time>2015-08-15T15:19:26Z</time>
      </trkpt>
      <trkpt lat="38.23343" lon="-7.52018">
        <ele>166.058</ele>
        <time>2015-08-15T15:19:35Z</time>
      </trkpt>
      <trkpt lat="38.2322" lon="-7.52029">
        <ele>170.239</ele>
        <time>2015-08-15T15:19:44Z</time>
      </trkpt>
      <trkpt lat="38.23123" lon="-7.52053">
        <ele>175.201</ele>
        <time>2015-08-15T15:19:51Z</time>
      </trkpt>
      <trkpt lat="38.23074" lon="-7.52119">
        <ele>183.421</ele>
        <time>2015-08-15T15:19:58Z</time>
      </trkpt>
      <trkpt lat="38.23019" lon="-7.52241">
        <ele>184.108</ele>
        <time>2015-08-15T15:20:10Z</time>
      </trkpt>
      <trkpt lat="38.22901" lon="-7.52498">
        <ele>175.024</ele>
        <time>2015-08-15T15:20:26Z</time>
      </trkpt>
      <trkpt lat="38.22811" lon="-7.52827">
        <ele>175.733</ele>
        <time>2015-08-15T15:20:44Z</time>
      </trkpt>
      <trkpt lat="38.22687" lon="-7.52951">
        <ele>171.961</ele>
        <time>2015-08-15T15:20:55Z</time>
      </trkpt>
      <trkpt lat="38.22705" lon="-7.53062">
        <ele>176.75</ele>
        <time>2015-08-15T15:21:03Z</time>
      </trkpt>
      <trkpt lat="38.22639" lon="-7.53232">
        <ele>174.07</ele>
        <time>2015-08-15T15:21:16Z</time>
      </trkpt>
      <trkpt lat="38.22644" lon="-7.53315">
        <ele>173.023</ele>
        <time>2015-08-15T15:21:22Z</time>
      </trkpt>
      <trkpt lat="38.22612" lon="-7.53395">
        <ele>162.991</ele>
        <time>2015-08-15T15:21:29Z</time>
      </trkpt>
      <trkpt lat="38.22532" lon="-7.53436">
        <ele>157.375</ele>
        <time>2015-08-15T15:21:37Z</time>
      </trkpt>
      <trkpt lat="38.22285" lon="-7.53387">
        <ele>161.227</ele>
        <time>2015-08-15T15:21:54Z</time>
      </trkpt>
      <trkpt lat="38.22225" lon="-7.53279">
        <ele>172.968</ele>
        <time>2015-08-15T15:22:01Z</time>
      </trkpt>
      <trkpt lat="38.22183" lon="-7.53254">
        <ele>171.214</ele>
        <time>2015-08-15T15:22:05Z</time>
      </trkpt>
      <trkpt lat="38.22067" lon="-7.53285">
        <ele>170.608</ele>
        <time>2015-08-15T15:22:14Z</time>
      </trkpt>
      <trkpt lat="38.21972" lon="-7.53426">
        <ele>182.053</ele>
        <time>2015-08-15T15:22:24Z</time>
      </trkpt>
      <trkpt lat="38.21947" lon="-7.53446">
        <ele>184.562</ele>
        <time>2015-08-15T15:22:26Z</time>
      </trkpt>
      <trkpt lat="38.21905" lon="-7.53461">
        <ele>187.56</ele>
        <time>2015-08-15T15:22:29Z</time>
      </trkpt>
      <trkpt lat="38.21843" lon="-7.53501">
        <ele>190.739</ele>
        <time>2015-08-15T15:22:36Z</time>
      </trkpt>
      <trkpt lat="38.21823" lon="-7.53552">
        <ele>194.759</ele>
        <time>2015-08-15T15:22:42Z</time>
      </trkpt>
      <trkpt lat="38.21758" lon="-7.53663">
        <ele>191.652</ele>
        <time>2015-08-15T15:22:57Z</time>
      </trkpt>
      <trkpt lat="38.2164" lon="-7.53739">
        <ele>190.46</ele>
        <time>2015-08-15T15:23:50Z</time>
      </trkpt>
      <trkpt lat="38.21619" lon="-7.53834">
        <ele>191.074</ele>
        <time>2015-08-15T15:24:35Z</time>
      </trkpt>
      <trkpt lat="38.21571" lon="-7.53817">
        <ele>190.919</ele>
        <time>2015-08-15T15:24:59Z</time>
      </trkpt>
      <trkpt lat="38.21469" lon="-7.53823">
        <ele>195.209</ele>
        <time>2015-08-15T15:25:16Z</time>
      </trkpt>
      <trkpt lat="38.21462" lon="-7.53825">
        <ele>195.419</ele>
        <time>2015-08-15T15:25:17Z</time>
      </trkpt>
      <trkpt lat="38.21407" lon="-7.53829">
        <ele>195.908</ele>
        <time>2015-08-15T15:25:25Z</time>
      </trkpt>
      <trkpt lat="38.21327" lon="-7.53801">
        <ele>196.652</ele>
        <time>2015-08-15T15:25:37Z</time>
      </trkpt>
      <trkpt lat="38.21263" lon="-7.53836">
        <ele>191.861</ele>
        <time>2015-08-15T15:25:50Z</time>
      </trkpt>
      <trkpt lat="38.21246" lon="-7.53813">
        <ele>192.819</ele>
        <time>2015-08-15T15:25:54Z</time>
      </trkpt>
      <trkpt lat="38.21245" lon="-7.53804">
        <ele>193.568</ele>
        <time>2015-08-15T15:25:55Z</time>
      </trkpt>
      <trkpt lat="38.21225" lon="-7.53756">
        <ele>192.998</ele>
        <time>2015-08-15T15:25:59Z</time>
      </trkpt>
      <trkpt lat="38.21" lon="-7.53416">
        <ele>182.021</ele>
        <time>2015-08-15T15:26:17Z</time>
      </trkpt>
      <trkpt lat="38.20907" lon="-7.53277">
        <ele>193.739</ele>
        <time>2015-08-15T15:26:23Z</time>
      </trkpt>
      <trkpt lat="38.20729" lon="-7.53094">
        <ele>192.983</ele>
        <time>2015-08-15T15:26:32Z</time>
      </trkpt>
      <trkpt lat="38.20523" lon="-7.52897">
        <ele>188.421</ele>
        <time>2015-08-15T15:26:42Z</time>
      </trkpt>
      <trkpt lat="38.20418" lon="-7.5275">
        <ele>186.541</ele>
        <time>2015-08-15T15:26:48Z</time>
      </trkpt>
      <trkpt lat="38.20235" lon="-7.52423">
        <ele>207.305</ele>
        <time>2015-08-15T15:27:00Z</time>
      </trkpt>
      <trkpt lat="38.20063" lon="-7.52093">
        <ele>191.408</ele>
        <time>2015-08-15T15:27:12Z</time>
      </trkpt>
      <trkpt lat="38.19952" lon="-7.51568">
        <ele>181.123</ele>
        <time>2015-08-15T15:27:28Z</time>
      </trkpt>
      <trkpt lat="38.1988" lon="-7.51357">
        <ele>177.642</ele>
        <time>2015-08-15T15:27:35Z</time>
      </trkpt>
      <trkpt lat="38.19844" lon="-7.51271">
        <ele>172.84</ele>
        <time>2015-08-15T15:27:38Z</time>
      </trkpt>
      <trkpt lat="38.19806" lon="-7.51177">
        <ele>171.679</ele>
        <time>2015-08-15T15:27:42Z</time>
      </trkpt>
      <trkpt lat="38.19772" lon="-7.51099">
        <ele>171.969</ele>
        <time>2015-08-15T15:27:47Z</time>
      </trkpt>
      <trkpt lat="38.19739" lon="-7.51055">
        <ele>176.692</ele>
        <time>2015-08-15T15:27:52Z</time>
      </trkpt>
      <trkpt lat="38.19804" lon="-7.50386">
        <ele>169.26</ele>
        <time>2015-08-15T15:28:20Z</time>
      </trkpt>
      <trkpt lat="38.19796" lon="-7.50125">
        <ele>169.614</ele>
        <time>2015-08-15T15:28:31Z</time>
      </trkpt>
      <trkpt lat="38.19758" lon="-7.50045">
        <ele>175.857</ele>
        <time>2015-08-15T15:28:36Z</time>
      </trkpt>
      <trkpt lat="38.19701" lon="-7.50011">
        <ele>176.7</ele>
        <time>2015-08-15T15:28:40Z</time>
      </trkpt>
      <trkpt lat="38.19668" lon="-7.50005">
        <ele>173.42</ele>
        <time>2015-08-15T15:28:42Z</time>
      </trkpt>
      <trkpt lat="38.1951" lon="-7.49983">
        <ele>181.408</ele>
        <time>2015-08-15T15:28:52Z</time>
      </trkpt>
      <trkpt lat="38.19465" lon="-7.49897">
        <ele>166.916</ele>
        <time>2015-08-15T15:28:58Z</time>
      </trkpt>
      <trkpt lat="38.1951" lon="-7.49801">
        <ele>161.135</ele>
        <time>2015-08-15T15:29:05Z</time>
      </trkpt>
      <trkpt lat="38.19654" lon="-7.49754">
        <ele>114.043</ele>
        <time>2015-08-15T15:29:21Z</time>
      </trkpt>
      <trkpt lat="38.19738" lon="-7.49671">
        <ele>99.962</ele>
        <time>2015-08-15T15:29:28Z</time>
      </trkpt>
      <trkpt lat="38.19774" lon="-7.49557">
        <ele>93.222</ele>
        <time>2015-08-15T15:29:35Z</time>
      </trkpt>
      <trkpt lat="38.1976" lon="-7.49363">
        <ele>144.725</ele>
        <time>2015-08-15T15:29:48Z</time>
      </trkpt>
      <trkpt lat="38.19806" lon="-7.48909">
        <ele>161.093</ele>
        <time>2015-08-15T15:30:09Z</time>
      </trkpt>
      <trkpt lat="38.19803" lon="-7.48745">
        <ele>161.027</ele>
        <time>2015-08-15T15:30:18Z</time>
      </trkpt>
      <trkpt lat="38.19935" lon="-7.48058">
        <ele>175.912</ele>
        <time>2015-08-15T15:30:58Z</time>
      </trkpt>
      <trkpt lat="38.19955" lon="-7.47129">
        <ele>176.632</ele>
        <time>2015-08-15T15:31:26Z</time>
      </trkpt>
      <trkpt lat="38.19963" lon="-7.4659">
        <ele>179.005</ele>
        <time>2015-08-15T15:31:42Z</time>
      </trkpt>
      <trkpt lat="38.19674" lon="-7.4524">
        <ele>192.108</ele>
        <time>2015-08-15T15:32:25Z</time>
      </trkpt>
      <trkpt lat="38.19573" lon="-7.45001">
        <ele>196.332</ele>
        <time>2015-08-15T15:32:34Z</time>
      </trkpt>
      <trkpt lat="38.19384" lon="-7.44721">
        <ele>191.051</ele>
        <time>2015-08-15T15:32:45Z</time>
      </trkpt>
      <trkpt lat="38.19152" lon="-7.44407">
        <ele>185.359</ele>
        <time>2015-08-15T15:32:56Z</time>
      </trkpt>
      <trkpt lat="38.19088" lon="-7.44317">
        <ele>185.518</ele>
        <time>2015-08-15T15:32:59Z</time>
      </trkpt>
      <trkpt lat="38.18775" lon="-7.43922">
        <ele>179.548</ele>
        <time>2015-08-15T15:33:13Z</time>
      </trkpt>
      <trkpt lat="38.18013" lon="-7.43287">
        <ele>148.491</ele>
        <time>2015-08-15T15:33:42Z</time>
      </trkpt>
      <trkpt lat="38.17645" lon="-7.42986">
        <ele>139.019</ele>
        <time>2015-08-15T15:33:55Z</time>
      </trkpt>
      <trkpt lat="38.17355" lon="-7.42651">
        <ele>134.993</ele>
        <time>2015-08-15T15:34:07Z</time>
      </trkpt>
      <trkpt lat="38.17101" lon="-7.42334">
        <ele>112.837</ele>
        <time>2015-08-15T15:34:18Z</time>
      </trkpt>
      <trkpt lat="38.16992" lon="-7.42199">
        <ele>103.149</ele>
        <time>2015-08-15T15:34:24Z</time>
      </trkpt>
      <trkpt lat="38.1687" lon="-7.42075">
        <ele>109.013</ele>
        <time>2015-08-15T15:34:31Z</time>
      </trkpt>
      <trkpt lat="38.1648" lon="-7.42038">
        <ele>112.608</ele>
        <time>2015-08-15T15:34:54Z</time>
      </trkpt>
      <trkpt lat="38.16325" lon="-7.421">
        <ele>121.724</ele>
        <time>2015-08-15T15:35:06Z</time>
      </trkpt>
      <trkpt lat="38.16143" lon="-7.42124">
        <ele>132.183</ele>
        <time>2015-08-15T15:35:17Z</time>
      </trkpt>
      <trkpt lat="38.15837" lon="-7.42275">
        <ele>143.451</ele>
        <time>2015-08-15T15:35:36Z</time>
      </trkpt>
      <trkpt lat="38.15746" lon="-7.42398">
        <ele>136.85</ele>
        <time>2015-08-15T15:35:44Z</time>
      </trkpt>
      <trkpt lat="38.15708" lon="-7.42789">
        <ele>137.24</ele>
        <time>2015-08-15T15:36:03Z</time>
      </trkpt>
      <trkpt lat="38.15039" lon="-7.43457">
        <ele>138.833</ele>
        <time>2015-08-15T15:36:40Z</time>
      </trkpt>
      <trkpt lat="38.14877" lon="-7.43701">
        <ele>139.881</ele>
        <time>2015-08-15T15:36:51Z</time>
      </trkpt>
      <trkpt lat="38.14709" lon="-7.43973">
        <ele>128.215</ele>
        <time>2015-08-15T15:37:02Z</time>
      </trkpt>
      <trkpt lat="38.14575" lon="-7.44255">
        <ele>136.592</ele>
        <time>2015-08-15T15:37:20Z</time>
      </trkpt>
      <trkpt lat="38.14597" lon="-7.44379">
        <ele>133.673</ele>
        <time>2015-08-15T15:37:27Z</time>
      </trkpt>
      <trkpt lat="38.14581" lon="-7.44475">
        <ele>136.72</ele>
        <time>2015-08-15T15:37:32Z</time>
      </trkpt>
      <trkpt lat="38.14503" lon="-7.4464">
        <ele>153.108</ele>
        <time>2015-08-15T15:37:41Z</time>
      </trkpt>
      <trkpt lat="38.1448" lon="-7.44935">
        <ele>160.91</ele>
        <time>2015-08-15T15:38:02Z</time>
      </trkpt>
      <trkpt lat="38.14502" lon="-7.45126">
        <ele>165.369</ele>
        <time>2015-08-15T15:38:27Z</time>
      </trkpt>
      <trkpt lat="38.14339" lon="-7.45252">
        <ele>173.897</ele>
        <time>2015-08-15T15:39:00Z</time>
      </trkpt>
      <trkpt lat="38.14269" lon="-7.45118">
        <ele>181.586</ele>
        <time>2015-08-15T15:39:37Z</time>
      </trkpt>
      <trkpt lat="38.14297" lon="-7.45035">
        <ele>183.136</ele>
        <time>2015-08-15T15:39:55Z</time>
      </trkpt>
      <trkpt lat="38.14288" lon="-7.44941">
        <ele>180.139</ele>
        <time>2015-08-15T15:40:38Z</time>
      </trkpt>
      <trkpt lat="38.14184" lon="-7.44921">
        <ele>183.877</ele>
        <time>2015-08-15T15:41:55Z</time>
      </trkpt>
      <trkpt lat="38.14014" lon="-7.44868">
        <ele>189.921</ele>
        <time>2015-08-15T15:43:21Z</time>
      </trkpt>
      <trkpt lat="38.13967" lon="-7.4505">
        <ele>184.781</ele>
        <time>2015-08-15T15:44:48Z</time>
      </trkpt>
      <trkpt lat="38.13897" lon="-7.45054">
        <ele>188.661</ele>
        <time>2015-08-15T15:44:59Z</time>
      </trkpt>
      <trkpt lat="38.13607" lon="-7.45">
        <ele>195.617</ele>
        <time>2015-08-15T15:45:40Z</time>
      </trkpt>
      <trkpt lat="38.13471" lon="-7.44857">
        <ele>199.008</ele>
        <time>2015-08-15T15:45:55Z</time>
      </trkpt>
      <trkpt lat="38.13388" lon="-7.44715">
        <ele>198.369</ele>
        <time>2015-08-15T15:46:09Z</time>
      </trkpt>
      <trkpt lat="38.13405" lon="-7.44642">
        <ele>199.438</ele>
        <time>2015-08-15T15:46:19Z</time>
      </trkpt>
      <trkpt lat="38.13404" lon="-7.4462">
        <ele>199.856</ele>
        <time>2015-08-15T15:46:22Z</time>
      </trkpt>
      <trkpt lat="38.13407" lon="-7.44608">
        <ele>200.295</ele>
        <time>2015-08-15T15:51:46Z</time>
      </trkpt>
      <trkpt lat="38.134" lon="-7.44495">
        <ele>205.265</ele>
        <time>2015-08-15T15:52:04Z</time>
      </trkpt>
      <trkpt lat="38.13355" lon="-7.44429">
        <ele>207.048</ele>
        <time>2015-08-15T15:52:16Z</time>
      </trkpt>
      <trkpt lat="38.13243" lon="-7.44351">
        <ele>209.086</ele>
        <time>2015-08-15T15:52:47Z</time>
      </trkpt>
      <trkpt lat="38.13029" lon="-7.44314">
        <ele>209.94</ele>
        <time>2015-08-15T15:53:13Z</time>
      </trkpt>
      <trkpt lat="38.12861" lon="-7.44306">
        <ele>211.031</ele>
        <time>2015-08-15T15:53:29Z</time>
      </trkpt>
      <trkpt lat="38.12795" lon="-7.44252">
        <ele>211.961</ele>
        <time>2015-08-15T15:53:35Z</time>
      </trkpt>
      <trkpt lat="38.12527" lon="-7.44028">
        <ele>219.007</ele>
        <time>2015-08-15T15:53:54Z</time>
      </trkpt>
      <trkpt lat="38.12364" lon="-7.43934">
        <ele>221.108</ele>
        <time>2015-08-15T15:54:05Z</time>
      </trkpt>
      <trkpt lat="38.122" lon="-7.43943">
        <ele>218.034</ele>
        <time>2015-08-15T15:54:15Z</time>
      </trkpt>
      <trkpt lat="38.12067" lon="-7.43948">
        <ele>219.933</ele>
        <time>2015-08-15T15:54:23Z</time>
      </trkpt>
      <trkpt lat="38.11773" lon="-7.43767">
        <ele>223.221</ele>
        <time>2015-08-15T15:54:40Z</time>
      </trkpt>
      <trkpt lat="38.11543" lon="-7.43646">
        <ele>224.86</ele>
        <time>2015-08-15T15:54:53Z</time>
      </trkpt>
      <trkpt lat="38.11268" lon="-7.43608">
        <ele>218.28</ele>
        <time>2015-08-15T15:55:09Z</time>
      </trkpt>
      <trkpt lat="38.11048" lon="-7.43625">
        <ele>210.043</ele>
        <time>2015-08-15T15:55:22Z</time>
      </trkpt>
      <trkpt lat="38.10998" lon="-7.43593">
        <ele>210.621</ele>
        <time>2015-08-15T15:55:26Z</time>
      </trkpt>
      <trkpt lat="38.10965" lon="-7.43558">
        <ele>210.755</ele>
        <time>2015-08-15T15:55:31Z</time>
      </trkpt>
      <trkpt lat="38.10959" lon="-7.43554">
        <ele>210.582</ele>
        <time>2015-08-15T15:55:40Z</time>
      </trkpt>
      <trkpt lat="38.10929" lon="-7.43591">
        <ele>208.243</ele>
        <time>2015-08-15T15:56:01Z</time>
      </trkpt>
      <trkpt lat="38.10821" lon="-7.43597">
        <ele>204.317</ele>
        <time>2015-08-15T15:56:15Z</time>
      </trkpt>
      <trkpt lat="38.10547" lon="-7.43448">
        <ele>203.108</ele>
        <time>2015-08-15T15:56:40Z</time>
      </trkpt>
      <trkpt lat="38.10248" lon="-7.43368">
        <ele>206.379</ele>
        <time>2015-08-15T15:57:03Z</time>
      </trkpt>
      <trkpt lat="38.09837" lon="-7.43176">
        <ele>210.398</ele>
        <time>2015-08-15T15:58:08Z</time>
      </trkpt>
      <trkpt lat="38.09515" lon="-7.43117">
        <ele>215.876</ele>
        <time>2015-08-15T15:59:06Z</time>
      </trkpt>
      <trkpt lat="38.0945" lon="-7.43104">
        <ele>214.925</ele>
        <time>2015-08-15T15:59:34Z</time>
      </trkpt>
      <trkpt lat="38.09447" lon="-7.4307">
        <ele>213.675</ele>
        <time>2015-08-15T15:59:45Z</time>
      </trkpt>
      <trkpt lat="38.09022" lon="-7.42466">
        <ele>225.868</ele>
        <time>2015-08-15T16:00:48Z</time>
      </trkpt>
      <trkpt lat="38.08908" lon="-7.42286">
        <ele>225.956</ele>
        <time>2015-08-15T16:01:08Z</time>
      </trkpt>
      <trkpt lat="38.08853" lon="-7.42223">
        <ele>226.06</ele>
        <time>2015-08-15T16:01:17Z</time>
      </trkpt>
      <trkpt lat="38.08635" lon="-7.41923">
        <ele>208.132</ele>
        <time>2015-08-15T16:01:57Z</time>
      </trkpt>
      <trkpt lat="38.0849" lon="-7.41975">
        <ele>205.792</ele>
        <time>2015-08-15T16:02:12Z</time>
      </trkpt>
      <trkpt lat="38.08401" lon="-7.42007">
        <ele>204.011</ele>
        <time>2015-08-15T16:02:19Z</time>
      </trkpt>
      <trkpt lat="38.08383" lon="-7.42016">
        <ele>203.308</ele>
        <time>2015-08-15T16:02:23Z</time>
      </trkpt>
      <trkpt lat="38.08216" lon="-7.4222">
        <ele>203.884</ele>
        <time>2015-08-15T16:02:53Z</time>
      </trkpt>
      <trkpt lat="38.08183" lon="-7.42298">
        <ele>203.863</ele>
        <time>2015-08-15T16:03:05Z</time>
      </trkpt>
      <trkpt lat="38.0795" lon="-7.42561">
        <ele>203.841</ele>
        <time>2015-08-15T16:03:41Z</time>
      </trkpt>
      <trkpt lat="38.07552" lon="-7.43015">
        <ele>200.55</ele>
        <time>2015-08-15T16:04:29Z</time>
      </trkpt>
      <trkpt lat="38.07517" lon="-7.43055">
        <ele>201.45</ele>
        <time>2015-08-15T16:04:34Z</time>
      </trkpt>
      <trkpt lat="38.07468" lon="-7.43051">
        <ele>202.043</ele>
        <time>2015-08-15T16:06:03Z</time>
      </trkpt>
      <trkpt lat="38.07468" lon="-7.43127">
        <ele>201.081</ele>
        <time>2015-08-15T16:06:22Z</time>
      </trkpt>
      <trkpt lat="38.07381" lon="-7.43209">
        <ele>200.245</ele>
        <time>2015-08-15T16:06:50Z</time>
      </trkpt>
      <trkpt lat="38.07181" lon="-7.4344">
        <ele>200.213</ele>
        <time>2015-08-15T16:07:36Z</time>
      </trkpt>
      <trkpt lat="38.0664" lon="-7.42684">
        <ele>208.643</ele>
        <time>2015-08-15T16:09:13Z</time>
      </trkpt>
      <trkpt lat="38.06579" lon="-7.42617">
        <ele>209.807</ele>
        <time>2015-08-15T16:09:26Z</time>
      </trkpt>
      <trkpt lat="38.06553" lon="-7.4256">
        <ele>206.108</ele>
        <time>2015-08-15T16:09:36Z</time>
      </trkpt>
      <trkpt lat="38.06533" lon="-7.42546">
        <ele>206.352</ele>
        <time>2015-08-15T16:09:40Z</time>
      </trkpt>
      <trkpt lat="38.06321" lon="-7.42537">
        <ele>206.081</ele>
        <time>2015-08-15T16:10:08Z</time>
      </trkpt>
      <trkpt lat="38.06212" lon="-7.42593">
        <ele>204.499</ele>
        <time>2015-08-15T16:10:20Z</time>
      </trkpt>
      <trkpt lat="38.05804" lon="-7.42807">
        <ele>200.948</ele>
        <time>2015-08-15T16:10:59Z</time>
      </trkpt>
      <trkpt lat="38.05798" lon="-7.42825">
        <ele>200.568</ele>
        <time>2015-08-15T16:11:07Z</time>
      </trkpt>
      <trkpt lat="38.05784" lon="-7.42883">
        <ele>200.231</ele>
        <time>2015-08-15T16:11:31Z</time>
      </trkpt>
      <trkpt lat="38.05744" lon="-7.4291">
        <ele>199.419</ele>
        <time>2015-08-15T16:11:39Z</time>
      </trkpt>
      <trkpt lat="38.05561" lon="-7.43228">
        <ele>198.063</ele>
        <time>2015-08-15T16:12:07Z</time>
      </trkpt>
      <trkpt lat="38.05314" lon="-7.43546">
        <ele>206.868</ele>
        <time>2015-08-15T16:12:29Z</time>
      </trkpt>
      <trkpt lat="38.05194" lon="-7.43716">
        <ele>203.042</ele>
        <time>2015-08-15T16:12:40Z</time>
      </trkpt>
      <trkpt lat="38.04967" lon="-7.4414">
        <ele>199.726</ele>
        <time>2015-08-15T16:13:04Z</time>
      </trkpt>
      <trkpt lat="38.04765" lon="-7.44264">
        <ele>197.308</ele>
        <time>2015-08-15T16:13:17Z</time>
      </trkpt>
      <trkpt lat="38.04641" lon="-7.44314">
        <ele>191.377</ele>
        <time>2015-08-15T16:13:25Z</time>
      </trkpt>
      <trkpt lat="38.04446" lon="-7.44487">
        <ele>181.476</ele>
        <time>2015-08-15T16:13:40Z</time>
      </trkpt>
      <trkpt lat="38.04376" lon="-7.44507">
        <ele>184.564</ele>
        <time>2015-08-15T16:13:44Z</time>
      </trkpt>
      <trkpt lat="38.04107" lon="-7.44443">
        <ele>198.593</ele>
        <time>2015-08-15T16:14:01Z</time>
      </trkpt>
      <trkpt lat="38.03996" lon="-7.4449">
        <ele>197.733</ele>
        <time>2015-08-15T16:14:08Z</time>
      </trkpt>
      <trkpt lat="38.03818" lon="-7.44657">
        <ele>204.026</ele>
        <time>2015-08-15T16:14:20Z</time>
      </trkpt>
      <trkpt lat="38.03628" lon="-7.44976">
        <ele>204.224</ele>
        <time>2015-08-15T16:14:36Z</time>
      </trkpt>
      <trkpt lat="38.03495" lon="-7.45388">
        <ele>209.878</ele>
        <time>2015-08-15T16:14:53Z</time>
      </trkpt>
      <trkpt lat="38.03298" lon="-7.45884">
        <ele>204.358</ele>
        <time>2015-08-15T16:15:16Z</time>
      </trkpt>
      <trkpt lat="38.03184" lon="-7.46082">
        <ele>201.052</ele>
        <time>2015-08-15T16:15:27Z</time>
      </trkpt>
      <trkpt lat="38.03015" lon="-7.46379">
        <ele>190.617</ele>
        <time>2015-08-15T16:15:42Z</time>
      </trkpt>
      <trkpt lat="38.02883" lon="-7.46599">
        <ele>192.308</ele>
        <time>2015-08-15T16:15:54Z</time>
      </trkpt>
      <trkpt lat="38.02658" lon="-7.4688">
        <ele>195.036</ele>
        <time>2015-08-15T16:16:09Z</time>
      </trkpt>
      <trkpt lat="38.02647" lon="-7.46899">
        <ele>195.015</ele>
        <time>2015-08-15T16:16:10Z</time>
      </trkpt>
      <trkpt lat="38.02479" lon="-7.474">
        <ele>202.293</ele>
        <time>2015-08-15T16:16:32Z</time>
      </trkpt>
      <trkpt lat="38.02443" lon="-7.47489">
        <ele>202.492</ele>
        <time>2015-08-15T16:16:39Z</time>
      </trkpt>
      <trkpt lat="38.02386" lon="-7.47595">
        <ele>198.052</ele>
        <time>2015-08-15T16:16:55Z</time>
      </trkpt>
      <trkpt lat="38.02456" lon="-7.48011">
        <ele>197.465</ele>
        <time>2015-08-15T16:17:46Z</time>
      </trkpt>
      <trkpt lat="38.02518" lon="-7.48146">
        <ele>194.443</ele>
        <time>2015-08-15T16:18:00Z</time>
      </trkpt>
      <trkpt lat="38.02528" lon="-7.48165">
        <ele>194.137</ele>
        <time>2015-08-15T16:18:23Z</time>
      </trkpt>
      <trkpt lat="38.02532" lon="-7.48176">
        <ele>193.945</ele>
        <time>2015-08-15T16:19:42Z</time>
      </trkpt>
      <trkpt lat="38.02503" lon="-7.48305">
        <ele>190.947</ele>
        <time>2015-08-15T16:20:03Z</time>
      </trkpt>
      <trkpt lat="38.0239" lon="-7.48362">
        <ele>194.911</ele>
        <time>2015-08-15T16:20:22Z</time>
      </trkpt>
      <trkpt lat="38.02353" lon="-7.48542">
        <ele>196.508</ele>
        <time>2015-08-15T16:20:44Z</time>
      </trkpt>
      <trkpt lat="38.02278" lon="-7.48703">
        <ele>204.635</ele>
        <time>2015-08-15T16:20:58Z</time>
      </trkpt>
      <trkpt lat="38.02256" lon="-7.48909">
        <ele>213.824</ele>
        <time>2015-08-15T16:21:10Z</time>
      </trkpt>
      <trkpt lat="38.02266" lon="-7.4921">
        <ele>209.892</ele>
        <time>2015-08-15T16:21:32Z</time>
      </trkpt>
      <trkpt lat="38.02263" lon="-7.49219">
        <ele>209.581</ele>
        <time>2015-08-15T16:21:34Z</time>
      </trkpt>
      <trkpt lat="38.02205" lon="-7.49675">
        <ele>200.251</ele>
        <time>2015-08-15T16:22:30Z</time>
      </trkpt>
      <trkpt lat="38.02179" lon="-7.49821">
        <ele>196.664</ele>
        <time>2015-08-15T16:22:39Z</time>
      </trkpt>
      <trkpt lat="38.01995" lon="-7.5005">
        <ele>204.812</ele>
        <time>2015-08-15T16:22:57Z</time>
      </trkpt>
      <trkpt lat="38.01957" lon="-7.50151">
        <ele>209.366</ele>
        <time>2015-08-15T16:23:06Z</time>
      </trkpt>
      <trkpt lat="38.01888" lon="-7.50584">
        <ele>203.918</ele>
        <time>2015-08-15T16:23:28Z</time>
      </trkpt>
      <trkpt lat="38.01694" lon="-7.50882">
        <ele>201.398</ele>
        <time>2015-08-15T16:23:47Z</time>
      </trkpt>
      <trkpt lat="38.01612" lon="-7.51059">
        <ele>200.917</ele>
        <time>2015-08-15T16:24:01Z</time>
      </trkpt>
      <trkpt lat="38.01439" lon="-7.53432">
        <ele>185.508</ele>
        <time>2015-08-15T16:25:44Z</time>
      </trkpt>
      <trkpt lat="38.01494" lon="-7.54104">
        <ele>183.052</ele>
        <time>2015-08-15T16:26:17Z</time>
      </trkpt>
      <trkpt lat="38.01495" lon="-7.54364">
        <ele>181.311</ele>
        <time>2015-08-15T16:26:29Z</time>
      </trkpt>
      <trkpt lat="38.01497" lon="-7.54726">
        <ele>176.059</ele>
        <time>2015-08-15T16:27:31Z</time>
      </trkpt>
      <trkpt lat="38.01542" lon="-7.5486">
        <ele>178.098</ele>
        <time>2015-08-15T16:27:44Z</time>
      </trkpt>
      <trkpt lat="38.01456" lon="-7.5519">
        <ele>174.428</ele>
        <time>2015-08-15T16:28:16Z</time>
      </trkpt>
      <trkpt lat="38.01405" lon="-7.55575">
        <ele>180.061</ele>
        <time>2015-08-15T16:28:33Z</time>
      </trkpt>
      <trkpt lat="38.01332" lon="-7.55881">
        <ele>177.319</ele>
        <time>2015-08-15T16:28:47Z</time>
      </trkpt>
      <trkpt lat="38.01225" lon="-7.56227">
        <ele>173.053</ele>
        <time>2015-08-15T16:29:10Z</time>
      </trkpt>
      <trkpt lat="38.00945" lon="-7.56306">
        <ele>168.035</ele>
        <time>2015-08-15T16:30:37Z</time>
      </trkpt>
      <trkpt lat="38.00984" lon="-7.56368">
        <ele>169.586</ele>
        <time>2015-08-15T16:30:48Z</time>
      </trkpt>
      <trkpt lat="38.01048" lon="-7.56466">
        <ele>172.714</ele>
        <time>2015-08-15T16:30:56Z</time>
      </trkpt>
      <trkpt lat="38.01115" lon="-7.56549">
        <ele>171.508</ele>
        <time>2015-08-15T16:31:03Z</time>
      </trkpt>
      <trkpt lat="38.01121" lon="-7.56598">
        <ele>172.164</ele>
        <time>2015-08-15T16:31:09Z</time>
      </trkpt>
      <trkpt lat="38.00986" lon="-7.57063">
        <ele>171.913</ele>
        <time>2015-08-15T16:31:49Z</time>
      </trkpt>
      <trkpt lat="38.00964" lon="-7.57415">
        <ele>161.111</ele>
        <time>2015-08-15T16:32:16Z</time>
      </trkpt>
      <trkpt lat="38.00907" lon="-7.57556">
        <ele>163.51</ele>
        <time>2015-08-15T16:32:29Z</time>
      </trkpt>
      <trkpt lat="38.00839" lon="-7.5791">
        <ele>152.25</ele>
        <time>2015-08-15T16:32:59Z</time>
      </trkpt>
      <trkpt lat="38.00646" lon="-7.579">
        <ele>146.833</ele>
        <time>2015-08-15T16:33:32Z</time>
      </trkpt>
      <trkpt lat="38.00519" lon="-7.57925">
        <ele>144.851</ele>
        <time>2015-08-15T16:33:43Z</time>
      </trkpt>
      <trkpt lat="38.00327" lon="-7.57842">
        <ele>140.665</ele>
        <time>2015-08-15T16:34:10Z</time>
      </trkpt>
      <trkpt lat="38.00304" lon="-7.57916">
        <ele>138.811</ele>
        <time>2015-08-15T16:34:26Z</time>
      </trkpt>
      <trkpt lat="38.00296" lon="-7.58065">
        <ele>147.121</ele>
        <time>2015-08-15T16:34:44Z</time>
      </trkpt>
      <trkpt lat="38.0027" lon="-7.58289">
        <ele>143.303</ele>
        <time>2015-08-15T16:35:11Z</time>
      </trkpt>
      <trkpt lat="38.00295" lon="-7.58462">
        <ele>138.108</ele>
        <time>2015-08-15T16:35:30Z</time>
      </trkpt>
      <trkpt lat="38.00355" lon="-7.58538">
        <ele>141.532</ele>
        <time>2015-08-15T16:35:41Z</time>
      </trkpt>
      <trkpt lat="38.00417" lon="-7.58627">
        <ele>138.091</ele>
        <time>2015-08-15T16:35:52Z</time>
      </trkpt>
      <trkpt lat="38.00464" lon="-7.58752">
        <ele>146.049</ele>
        <time>2015-08-15T16:36:05Z</time>
      </trkpt>
      <trkpt lat="38.00457" lon="-7.59071">
        <ele>135.468</ele>
        <time>2015-08-15T16:36:37Z</time>
      </trkpt>
      <trkpt lat="38.00423" lon="-7.59292">
        <ele>131.968</ele>
        <time>2015-08-15T16:37:05Z</time>
      </trkpt>
      <trkpt lat="38.00444" lon="-7.59332">
        <ele>133.031</ele>
        <time>2015-08-15T16:37:16Z</time>
      </trkpt>
      <trkpt lat="38.00426" lon="-7.59472">
        <ele>132.389</ele>
        <time>2015-08-15T16:37:31Z</time>
      </trkpt>
      <trkpt lat="38.00489" lon="-7.5987">
        <ele>139.713</ele>
        <time>2015-08-15T16:38:46Z</time>
      </trkpt>
      <trkpt lat="38.00471" lon="-7.59958">
        <ele>140.418</ele>
        <time>2015-08-15T16:39:03Z</time>
      </trkpt>
      <trkpt lat="38.00617" lon="-7.60035">
        <ele>141.198</ele>
        <time>2015-08-15T16:39:33Z</time>
      </trkpt>
      <trkpt lat="38.00497" lon="-7.60408">
        <ele>137.717</ele>
        <time>2015-08-15T16:40:08Z</time>
      </trkpt>
      <trkpt lat="38.00358" lon="-7.60706">
        <ele>140.608</ele>
        <time>2015-08-15T16:40:30Z</time>
      </trkpt>
      <trkpt lat="38.00287" lon="-7.61031">
        <ele>134.672</ele>
        <time>2015-08-15T16:41:07Z</time>
      </trkpt>
      <trkpt lat="38.00294" lon="-7.61282">
        <ele>133.171</ele>
        <time>2015-08-15T16:41:23Z</time>
      </trkpt>
      <trkpt lat="38.00408" lon="-7.61667">
        <ele>134.759</ele>
        <time>2015-08-15T16:41:45Z</time>
      </trkpt>
      <trkpt lat="38.00501" lon="-7.61948">
        <ele>137.998</ele>
        <time>2015-08-15T16:42:02Z</time>
      </trkpt>
      <trkpt lat="38.00521" lon="-7.62173">
        <ele>143.288</ele>
        <time>2015-08-15T16:42:15Z</time>
      </trkpt>
      <trkpt lat="38.00519" lon="-7.62205">
        <ele>143.471</ele>
        <time>2015-08-15T16:42:19Z</time>
      </trkpt>
      <trkpt lat="38.00393" lon="-7.62387">
        <ele>143.949</ele>
        <time>2015-08-15T16:42:54Z</time>
      </trkpt>
      <trkpt lat="38.00292" lon="-7.62477">
        <ele>139.233</ele>
        <time>2015-08-15T16:43:07Z</time>
      </trkpt>
      <trkpt lat="38.0016" lon="-7.62524">
        <ele>143.837</ele>
        <time>2015-08-15T16:43:20Z</time>
      </trkpt>
      <trkpt lat="38.00075" lon="-7.62575">
        <ele>138.249</ele>
        <time>2015-08-15T16:44:06Z</time>
      </trkpt>
      <trkpt lat="37.9997" lon="-7.62728">
        <ele>131.013</ele>
        <time>2015-08-15T16:44:25Z</time>
      </trkpt>
      <trkpt lat="37.99808" lon="-7.62763">
        <ele>129.608</ele>
        <time>2015-08-15T16:44:41Z</time>
      </trkpt>
      <trkpt lat="37.99648" lon="-7.62783">
        <ele>119.724</ele>
        <time>2015-08-15T16:44:57Z</time>
      </trkpt>
      <trkpt lat="37.99359" lon="-7.63049">
        <ele>118.973</ele>
        <time>2015-08-15T16:45:48Z</time>
      </trkpt>
      <trkpt lat="37.99208" lon="-7.63188">
        <ele>106.551</ele>
        <time>2015-08-15T16:46:12Z</time>
      </trkpt>
      <trkpt lat="37.9915" lon="-7.63325">
        <ele>105.28</ele>
        <time>2015-08-15T16:46:29Z</time>
      </trkpt>
      <trkpt lat="37.99058" lon="-7.63441">
        <ele>101.21</ele>
        <time>2015-08-15T16:46:40Z</time>
      </trkpt>
      <trkpt lat="37.98877" lon="-7.63669">
        <ele>85.993</ele>
        <time>2015-08-15T16:47:12Z</time>
      </trkpt>
      <trkpt lat="37.98789" lon="-7.63575">
        <ele>86.571</ele>
        <time>2015-08-15T16:47:40Z</time>
      </trkpt>
      <trkpt lat="37.98718" lon="-7.63575">
        <ele>89.025</ele>
        <time>2015-08-15T16:47:50Z</time>
      </trkpt>
      <trkpt lat="37.98541" lon="-7.63516">
        <ele>73.565</ele>
        <time>2015-08-15T16:48:14Z</time>
      </trkpt>
      <trkpt lat="37.98558" lon="-7.63427">
        <ele>73.068</ele>
        <time>2015-08-15T16:48:40Z</time>
      </trkpt>
      <trkpt lat="37.98475" lon="-7.63401">
        <ele>75.314</ele>
        <time>2015-08-15T16:49:06Z</time>
      </trkpt>
      <trkpt lat="37.98389" lon="-7.63438">
        <ele>78.108</ele>
        <time>2015-08-15T16:49:17Z</time>
      </trkpt>
      <trkpt lat="37.9829" lon="-7.63574">
        <ele>79.227</ele>
        <time>2015-08-15T16:49:32Z</time>
      </trkpt>
      <trkpt lat="37.98247" lon="-7.63602">
        <ele>76.696</ele>
        <time>2015-08-15T16:49:37Z</time>
      </trkpt>
      <trkpt lat="37.98171" lon="-7.63679">
        <ele>72.674</ele>
        <time>2015-08-15T16:49:48Z</time>
      </trkpt>
      <trkpt lat="37.97892" lon="-7.63827">
        <ele>74.073</ele>
        <time>2015-08-15T16:50:29Z</time>
      </trkpt>
      <trkpt lat="37.97843" lon="-7.63907">
        <ele>69.983</ele>
        <time>2015-08-15T16:50:38Z</time>
      </trkpt>
      <trkpt lat="37.97748" lon="-7.63986">
        <ele>73.046</ele>
        <time>2015-08-15T16:50:52Z</time>
      </trkpt>
      <trkpt lat="37.97657" lon="-7.64201">
        <ele>77.124</ele>
        <time>2015-08-15T16:51:16Z</time>
      </trkpt>
      <trkpt lat="37.97594" lon="-7.64306">
        <ele>74.678</ele>
        <time>2015-08-15T16:51:30Z</time>
      </trkpt>
      <trkpt lat="37.97488" lon="-7.64384">
        <ele>77.634</ele>
        <time>2015-08-15T16:51:45Z</time>
      </trkpt>
      <trkpt lat="37.97439" lon="-7.64444">
        <ele>77.455</ele>
        <time>2015-08-15T16:51:57Z</time>
      </trkpt>
      <trkpt lat="37.9741" lon="-7.6448">
        <ele>77.41</ele>
        <time>2015-08-15T16:52:06Z</time>
      </trkpt>
      <trkpt lat="37.97471" lon="-7.64536">
        <ele>77.008</ele>
        <time>2015-08-15T16:52:27Z</time>
      </trkpt>
      <trkpt lat="37.97358" lon="-7.6472">
        <ele>95.614</ele>
        <time>2015-08-15T16:53:34Z</time>
      </trkpt>
      <trkpt lat="37.97357" lon="-7.64721">
        <ele>95.633</ele>
        <time>2015-08-15T16:53:50Z</time>
      </trkpt>
      <trkpt lat="37.97357" lon="-7.64722">
        <ele>95.751</ele>
        <time>2015-08-15T16:53:55Z</time>
      </trkpt>
      <trkpt lat="37.97357" lon="-7.64723">
        <ele>95.85</ele>
        <time>2015-08-15T16:53:56Z</time>
      </trkpt>
      <trkpt lat="37.97358" lon="-7.64727">
        <ele>96.25</ele>
        <time>2015-08-15T16:53:57Z</time>
      </trkpt>
      <trkpt lat="37.97365" lon="-7.64739">
        <ele>98.083</ele>
        <time>2015-08-15T16:54:00Z</time>
      </trkpt>
      <trkpt lat="37.97465" lon="-7.64869">
        <ele>102.871</ele>
        <time>2015-08-15T16:54:13Z</time>
      </trkpt>
      <trkpt lat="37.97578" lon="-7.65019">
        <ele>100.045</ele>
        <time>2015-08-15T16:54:22Z</time>
      </trkpt>
      <trkpt lat="37.97731" lon="-7.65193">
        <ele>105.165</ele>
        <time>2015-08-15T16:54:32Z</time>
      </trkpt>
      <trkpt lat="37.97979" lon="-7.65355">
        <ele>78.668</ele>
        <time>2015-08-15T16:54:45Z</time>
      </trkpt>
      <trkpt lat="37.98321" lon="-7.65553">
        <ele>97.214</ele>
        <time>2015-08-15T16:55:01Z</time>
      </trkpt>
      <trkpt lat="37.98499" lon="-7.65701">
        <ele>110.208</ele>
        <time>2015-08-15T16:55:10Z</time>
      </trkpt>
      <trkpt lat="37.98719" lon="-7.66025">
        <ele>110.167</ele>
        <time>2015-08-15T16:55:29Z</time>
      </trkpt>
      <trkpt lat="37.98602" lon="-7.66092">
        <ele>115.096</ele>
        <time>2015-08-15T16:56:25Z</time>
      </trkpt>
      <trkpt lat="37.98491" lon="-7.66322">
        <ele>123.024</ele>
        <time>2015-08-15T16:56:41Z</time>
      </trkpt>
      <trkpt lat="37.9838" lon="-7.66611">
        <ele>119.033</ele>
        <time>2015-08-15T16:56:58Z</time>
      </trkpt>
      <trkpt lat="37.98315" lon="-7.66688">
        <ele>125.043</ele>
        <time>2015-08-15T16:57:04Z</time>
      </trkpt>
      <trkpt lat="37.98268" lon="-7.66769">
        <ele>129.716</ele>
        <time>2015-08-15T16:57:10Z</time>
      </trkpt>
      <trkpt lat="37.98231" lon="-7.66871">
        <ele>134.644</ele>
        <time>2015-08-15T16:57:17Z</time>
      </trkpt>
      <trkpt lat="37.98059" lon="-7.6708">
        <ele>139.248</ele>
        <time>2015-08-15T16:57:34Z</time>
      </trkpt>
      <trkpt lat="37.97972" lon="-7.67328">
        <ele>125.831</ele>
        <time>2015-08-15T16:57:51Z</time>
      </trkpt>
      <trkpt lat="37.97904" lon="-7.67382">
        <ele>128.061</ele>
        <time>2015-08-15T16:57:57Z</time>
      </trkpt>
      <trkpt lat="37.97671" lon="-7.67404">
        <ele>141.807</ele>
        <time>2015-08-15T16:58:13Z</time>
      </trkpt>
      <trkpt lat="37.97592" lon="-7.67439">
        <ele>142.408</ele>
        <time>2015-08-15T16:58:19Z</time>
      </trkpt>
      <trkpt lat="37.97278" lon="-7.67688">
        <ele>144.854</ele>
        <time>2015-08-15T16:58:43Z</time>
      </trkpt>
      <trkpt lat="37.97109" lon="-7.67836">
        <ele>138.843</ele>
        <time>2015-08-15T16:58:56Z</time>
      </trkpt>
      <trkpt lat="37.97023" lon="-7.67927">
        <ele>128.381</ele>
        <time>2015-08-15T16:59:04Z</time>
      </trkpt>
      <trkpt lat="37.96828" lon="-7.68041">
        <ele>123.79</ele>
        <time>2015-08-15T16:59:18Z</time>
      </trkpt>
      <trkpt lat="37.96646" lon="-7.68103">
        <ele>112.58</ele>
        <time>2015-08-15T16:59:32Z</time>
      </trkpt>
      <trkpt lat="37.96548" lon="-7.68176">
        <ele>107.373</ele>
        <time>2015-08-15T16:59:46Z</time>
      </trkpt>
      <trkpt lat="37.96456" lon="-7.68423">
        <ele>99.051</ele>
        <time>2015-08-15T17:00:03Z</time>
      </trkpt>
      <trkpt lat="37.96465" lon="-7.68477">
        <ele>100.335</ele>
        <time>2015-08-15T17:00:07Z</time>
      </trkpt>
      <trkpt lat="37.96499" lon="-7.6863">
        <ele>93.629</ele>
        <time>2015-08-15T17:00:16Z</time>
      </trkpt>
      <trkpt lat="37.9648" lon="-7.68762">
        <ele>91.1</ele>
        <time>2015-08-15T17:00:24Z</time>
      </trkpt>
      <trkpt lat="37.96467" lon="-7.69129">
        <ele>75.52</ele>
        <time>2015-08-15T17:00:48Z</time>
      </trkpt>
      <trkpt lat="37.96508" lon="-7.6926">
        <ele>78.408</ele>
        <time>2015-08-15T17:01:04Z</time>
      </trkpt>
      <trkpt lat="37.96487" lon="-7.69535">
        <ele>82.473</ele>
        <time>2015-08-15T17:01:20Z</time>
      </trkpt>
      <trkpt lat="37.96466" lon="-7.69816">
        <ele>88.382</ele>
        <time>2015-08-15T17:01:33Z</time>
      </trkpt>
      <trkpt lat="37.96529" lon="-7.70276">
        <ele>94.23</ele>
        <time>2015-08-15T17:01:54Z</time>
      </trkpt>
      <trkpt lat="37.96403" lon="-7.70472">
        <ele>100.079</ele>
        <time>2015-08-15T17:02:08Z</time>
      </trkpt>
      <trkpt lat="37.96385" lon="-7.70504">
        <ele>99.429</ele>
        <time>2015-08-15T17:02:14Z</time>
      </trkpt>
      <trkpt lat="37.96301" lon="-7.70515">
        <ele>98.382</ele>
        <time>2015-08-15T17:02:54Z</time>
      </trkpt>
      <trkpt lat="37.96329" lon="-7.70187">
        <ele>102.03</ele>
        <time>2015-08-15T17:03:37Z</time>
      </trkpt>
      <trkpt lat="37.96307" lon="-7.70064">
        <ele>108.194</ele>
        <time>2015-08-15T17:03:45Z</time>
      </trkpt>
      <trkpt lat="37.96254" lon="-7.69976">
        <ele>114.854</ele>
        <time>2015-08-15T17:03:53Z</time>
      </trkpt>
      <trkpt lat="37.96211" lon="-7.69934">
        <ele>118.856</ele>
        <time>2015-08-15T17:03:58Z</time>
      </trkpt>
      <trkpt lat="37.96138" lon="-7.69836">
        <ele>123.311</ele>
        <time>2015-08-15T17:04:08Z</time>
      </trkpt>
      <trkpt lat="37.96078" lon="-7.69795">
        <ele>121.708</ele>
        <time>2015-08-15T17:04:14Z</time>
      </trkpt>
      <trkpt lat="37.95714" lon="-7.69448">
        <ele>128.496</ele>
        <time>2015-08-15T17:04:53Z</time>
      </trkpt>
      <trkpt lat="37.95539" lon="-7.69673">
        <ele>143.915</ele>
        <time>2015-08-15T17:06:34Z</time>
      </trkpt>
      <trkpt lat="37.95433" lon="-7.69835">
        <ele>148.893</ele>
        <time>2015-08-15T17:06:51Z</time>
      </trkpt>
      <trkpt lat="37.95196" lon="-7.70242">
        <ele>157.962</ele>
        <time>2015-08-15T17:07:23Z</time>
      </trkpt>
      <trkpt lat="37.95131" lon="-7.70405">
        <ele>159.642</ele>
        <time>2015-08-15T17:07:33Z</time>
      </trkpt>
      <trkpt lat="37.94863" lon="-7.70618">
        <ele>169.385</ele>
        <time>2015-08-15T17:08:04Z</time>
      </trkpt>
      <trkpt lat="37.94739" lon="-7.70795">
        <ele>177.513</ele>
        <time>2015-08-15T17:08:16Z</time>
      </trkpt>
      <trkpt lat="37.94573" lon="-7.71026">
        <ele>176.037</ele>
        <time>2015-08-15T17:08:32Z</time>
      </trkpt>
      <trkpt lat="37.9438" lon="-7.71291">
        <ele>166.412</ele>
        <time>2015-08-15T17:08:54Z</time>
      </trkpt>
      <trkpt lat="37.94319" lon="-7.71458">
        <ele>158.832</ele>
        <time>2015-08-15T17:09:07Z</time>
      </trkpt>
      <trkpt lat="37.94301" lon="-7.7153">
        <ele>155.805</ele>
        <time>2015-08-15T17:09:14Z</time>
      </trkpt>
      <trkpt lat="37.94241" lon="-7.71636">
        <ele>144.308</ele>
        <time>2015-08-15T17:09:28Z</time>
      </trkpt>
      <trkpt lat="37.9417" lon="-7.7164">
        <ele>136.492</ele>
        <time>2015-08-15T17:10:20Z</time>
      </trkpt>
      <trkpt lat="37.94163" lon="-7.71928">
        <ele>147.051</ele>
        <time>2015-08-15T17:10:40Z</time>
      </trkpt>
      <trkpt lat="37.94046" lon="-7.72103">
        <ele>158.189</ele>
        <time>2015-08-15T17:10:52Z</time>
      </trkpt>
      <trkpt lat="37.94027" lon="-7.72172">
        <ele>158.028</ele>
        <time>2015-08-15T17:10:57Z</time>
      </trkpt>
      <trkpt lat="37.93909" lon="-7.7256">
        <ele>157.368</ele>
        <time>2015-08-15T17:11:21Z</time>
      </trkpt>
      <trkpt lat="37.93942" lon="-7.72791">
        <ele>168.491</ele>
        <time>2015-08-15T17:11:34Z</time>
      </trkpt>
      <trkpt lat="37.94033" lon="-7.73135">
        <ele>172.919</ele>
        <time>2015-08-15T17:11:49Z</time>
      </trkpt>
      <trkpt lat="37.94178" lon="-7.73377">
        <ele>192.223</ele>
        <time>2015-08-15T17:12:02Z</time>
      </trkpt>
      <trkpt lat="37.94187" lon="-7.73526">
        <ele>194.749</ele>
        <time>2015-08-15T17:12:09Z</time>
      </trkpt>
      <trkpt lat="37.94155" lon="-7.73711">
        <ele>189.902</ele>
        <time>2015-08-15T17:12:21Z</time>
      </trkpt>
      <trkpt lat="37.94097" lon="-7.73842">
        <ele>177.022</ele>
        <time>2015-08-15T17:12:29Z</time>
      </trkpt>
      <trkpt lat="37.9409" lon="-7.74063">
        <ele>177.708</ele>
        <time>2015-08-15T17:12:40Z</time>
      </trkpt>
      <trkpt lat="37.93893" lon="-7.74154">
        <ele>189.355</ele>
        <time>2015-08-15T17:12:53Z</time>
      </trkpt>
      <trkpt lat="37.93845" lon="-7.74229">
        <ele>196.744</ele>
        <time>2015-08-15T17:12:58Z</time>
      </trkpt>
      <trkpt lat="37.93789" lon="-7.74453">
        <ele>194.732</ele>
        <time>2015-08-15T17:13:07Z</time>
      </trkpt>
      <trkpt lat="37.93746" lon="-7.74628">
        <ele>194.051</ele>
        <time>2015-08-15T17:13:13Z</time>
      </trkpt>
      <trkpt lat="37.93583" lon="-7.75181">
        <ele>186.531</ele>
        <time>2015-08-15T17:13:32Z</time>
      </trkpt>
      <trkpt lat="37.93575" lon="-7.75251">
        <ele>187.324</ele>
        <time>2015-08-15T17:13:38Z</time>
      </trkpt>
      <trkpt lat="37.93576" lon="-7.75272">
        <ele>187.332</ele>
        <time>2015-08-15T17:13:43Z</time>
      </trkpt>
      <trkpt lat="37.93422" lon="-7.75063">
        <ele>187.016</ele>
        <time>2015-08-15T17:14:23Z</time>
      </trkpt>
      <trkpt lat="37.93313" lon="-7.75131">
        <ele>183.887</ele>
        <time>2015-08-15T17:14:56Z</time>
      </trkpt>
      <trkpt lat="37.93101" lon="-7.7513">
        <ele>178.042</ele>
        <time>2015-08-15T17:15:18Z</time>
      </trkpt>
      <trkpt lat="37.92884" lon="-7.75128">
        <ele>160.026</ele>
        <time>2015-08-15T17:15:38Z</time>
      </trkpt>
      <trkpt lat="37.92811" lon="-7.75124">
        <ele>160.308</ele>
        <time>2015-08-15T17:15:47Z</time>
      </trkpt>
      <trkpt lat="37.92746" lon="-7.75058">
        <ele>163.599</ele>
        <time>2015-08-15T17:17:26Z</time>
      </trkpt>
      <trkpt lat="37.92624" lon="-7.7506">
        <ele>171.148</ele>
        <time>2015-08-15T17:17:40Z</time>
      </trkpt>
      <trkpt lat="37.92512" lon="-7.75077">
        <ele>172.296</ele>
        <time>2015-08-15T17:17:51Z</time>
      </trkpt>
      <trkpt lat="37.92354" lon="-7.7508">
        <ele>173.395</ele>
        <time>2015-08-15T17:18:06Z</time>
      </trkpt>
      <trkpt lat="37.92313" lon="-7.7505">
        <ele>174.635</ele>
        <time>2015-08-15T17:18:13Z</time>
      </trkpt>
      <trkpt lat="37.92087" lon="-7.75059">
        <ele>173.028</ele>
        <time>2015-08-15T17:18:33Z</time>
      </trkpt>
      <trkpt lat="37.92025" lon="-7.7506">
        <ele>171.976</ele>
        <time>2015-08-15T17:18:40Z</time>
      </trkpt>
      <trkpt lat="37.91876" lon="-7.75138">
        <ele>170.52</ele>
        <time>2015-08-15T17:19:00Z</time>
      </trkpt>
      <trkpt lat="37.9187" lon="-7.75239">
        <ele>173.029</ele>
        <time>2015-08-15T17:19:12Z</time>
      </trkpt>
      <trkpt lat="37.91792" lon="-7.75179">
        <ele>171.3</ele>
        <time>2015-08-15T17:19:53Z</time>
      </trkpt>
      <trkpt lat="37.91455" lon="-7.75146">
        <ele>172.42</ele>
        <time>2015-08-15T17:20:17Z</time>
      </trkpt>
      <trkpt lat="37.91433" lon="-7.75354">
        <ele>170.708</ele>
        <time>2015-08-15T17:21:11Z</time>
      </trkpt>
      <trkpt lat="37.90918" lon="-7.75324">
        <ele>167.313</ele>
        <time>2015-08-15T17:22:01Z</time>
      </trkpt>
      <trkpt lat="37.90916" lon="-7.75332">
        <ele>167.092</ele>
        <time>2015-08-15T17:22:12Z</time>
      </trkpt>
      <trkpt lat="37.90948" lon="-7.75477">
        <ele>166.02</ele>
        <time>2015-08-15T17:22:28Z</time>
      </trkpt>
      <trkpt lat="37.9106" lon="-7.7561">
        <ele>160.969</ele>
        <time>2015-08-15T17:22:46Z</time>
      </trkpt>
      <trkpt lat="37.91229" lon="-7.75796">
        <ele>168.869</ele>
        <time>2015-08-15T17:23:19Z</time>
      </trkpt>
      <trkpt lat="37.91977" lon="-7.76518">
        <ele>171.652</ele>
        <time>2015-08-15T17:24:46Z</time>
      </trkpt>
      <trkpt lat="37.92143" lon="-7.76656">
        <ele>170.24</ele>
        <time>2015-08-15T17:25:02Z</time>
      </trkpt>
      <trkpt lat="37.92198" lon="-7.76817">
        <ele>172.074</ele>
        <time>2015-08-15T17:25:13Z</time>
      </trkpt>
      <trkpt lat="37.92259" lon="-7.77052">
        <ele>173.019</ele>
        <time>2015-08-15T17:25:26Z</time>
      </trkpt>
      <trkpt lat="37.92268" lon="-7.77111">
        <ele>170.709</ele>
        <time>2015-08-15T17:25:31Z</time>
      </trkpt>
      <trkpt lat="37.92225" lon="-7.77332">
        <ele>166.219</ele>
        <time>2015-08-15T17:25:47Z</time>
      </trkpt>
      <trkpt lat="37.92295" lon="-7.77554">
        <ele>162.908</ele>
        <time>2015-08-15T17:26:06Z</time>
      </trkpt>
      <trkpt lat="37.92328" lon="-7.7759">
        <ele>164.482</ele>
        <time>2015-08-15T17:26:15Z</time>
      </trkpt>
      <trkpt lat="37.92243" lon="-7.77642">
        <ele>162.361</ele>
        <time>2015-08-15T17:29:08Z</time>
      </trkpt>
      <trkpt lat="37.92343" lon="-7.77792">
        <ele>164.059</ele>
        <time>2015-08-15T17:29:33Z</time>
      </trkpt>
      <trkpt lat="37.9242" lon="-7.77983">
        <ele>162.068</ele>
        <time>2015-08-15T17:30:06Z</time>
      </trkpt>
      <trkpt lat="37.925" lon="-7.78078">
        <ele>164.058</ele>
        <time>2015-08-15T17:30:34Z</time>
      </trkpt>
      <trkpt lat="37.92521" lon="-7.78185">
        <ele>165.561</ele>
        <time>2015-08-15T17:30:43Z</time>
      </trkpt>
      <trkpt lat="37.92565" lon="-7.7835">
        <ele>176.739</ele>
        <time>2015-08-15T17:30:55Z</time>
      </trkpt>
      <trkpt lat="37.92723" lon="-7.78765">
        <ele>185.033</ele>
        <time>2015-08-15T17:31:40Z</time>
      </trkpt>
      <trkpt lat="37.92698" lon="-7.78834">
        <ele>185.021</ele>
        <time>2015-08-15T17:31:59Z</time>
      </trkpt>
      <trkpt lat="37.92678" lon="-7.78932">
        <ele>187.241</ele>
        <time>2015-08-15T17:32:18Z</time>
      </trkpt>
      <trkpt lat="37.92787" lon="-7.7888">
        <ele>185.005</ele>
        <time>2015-08-15T17:32:45Z</time>
      </trkpt>
      <trkpt lat="37.92919" lon="-7.79093">
        <ele>175.708</ele>
        <time>2015-08-15T17:33:26Z</time>
      </trkpt>
      <trkpt lat="37.9249" lon="-7.79345">
        <ele>190.033</ele>
        <time>2015-08-15T17:34:54Z</time>
      </trkpt>
      <trkpt lat="37.92498" lon="-7.79388">
        <ele>190.162</ele>
        <time>2015-08-15T17:37:06Z</time>
      </trkpt>
      <trkpt lat="37.92389" lon="-7.79521">
        <ele>194.79</ele>
        <time>2015-08-15T17:37:51Z</time>
      </trkpt>
      <trkpt lat="37.92374" lon="-7.79557">
        <ele>195.049</ele>
        <time>2015-08-15T17:37:58Z</time>
      </trkpt>
      <trkpt lat="37.92238" lon="-7.79726">
        <ele>186.499</ele>
        <time>2015-08-15T17:38:30Z</time>
      </trkpt>
      <trkpt lat="37.92134" lon="-7.79769">
        <ele>186.842</ele>
        <time>2015-08-15T17:38:45Z</time>
      </trkpt>
      <trkpt lat="37.91956" lon="-7.79919">
        <ele>186.94</ele>
        <time>2015-08-15T17:39:10Z</time>
      </trkpt>
      <trkpt lat="37.91855" lon="-7.79993">
        <ele>185.474</ele>
        <time>2015-08-15T17:39:24Z</time>
      </trkpt>
      <trkpt lat="37.91731" lon="-7.80139">
        <ele>179.066</ele>
        <time>2015-08-15T17:39:42Z</time>
      </trkpt>
      <trkpt lat="37.9171" lon="-7.80364">
        <ele>174.029</ele>
        <time>2015-08-15T17:40:25Z</time>
      </trkpt>
      <trkpt lat="37.91725" lon="-7.80546">
        <ele>166.721</ele>
        <time>2015-08-15T17:40:40Z</time>
      </trkpt>
      <trkpt lat="37.91615" lon="-7.80753">
        <ele>176.508</ele>
        <time>2015-08-15T17:40:58Z</time>
      </trkpt>
      <trkpt lat="37.91549" lon="-7.81191">
        <ele>176.677</ele>
        <time>2015-08-15T17:41:35Z</time>
      </trkpt>
      <trkpt lat="37.91379" lon="-7.81299">
        <ele>170.586</ele>
        <time>2015-08-15T17:42:00Z</time>
      </trkpt>
      <trkpt lat="37.9134" lon="-7.81376">
        <ele>173.814</ele>
        <time>2015-08-15T17:42:04Z</time>
      </trkpt>
      <trkpt lat="37.91266" lon="-7.81578">
        <ele>171.883</ele>
        <time>2015-08-15T17:42:13Z</time>
      </trkpt>
      <trkpt lat="37.91226" lon="-7.8186">
        <ele>165.173</ele>
        <time>2015-08-15T17:42:25Z</time>
      </trkpt>
      <trkpt lat="37.91159" lon="-7.81939">
        <ele>160.556</ele>
        <time>2015-08-15T17:42:30Z</time>
      </trkpt>
      <trkpt lat="37.91156" lon="-7.81941">
        <ele>160.894</ele>
        <time>2015-08-15T17:43:46Z</time>
      </trkpt>
      <trkpt lat="37.91203" lon="-7.8196">
        <ele>159.778</ele>
        <time>2015-08-15T17:44:22Z</time>
      </trkpt>
      <trkpt lat="37.912" lon="-7.8203">
        <ele>160.443</ele>
        <time>2015-08-15T17:44:30Z</time>
      </trkpt>
      <trkpt lat="37.91202" lon="-7.82074">
        <ele>160.864</ele>
        <time>2015-08-15T17:44:34Z</time>
      </trkpt>
      <trkpt lat="37.91165" lon="-7.82206">
        <ele>154.81</ele>
        <time>2015-08-15T17:44:47Z</time>
      </trkpt>
      <trkpt lat="37.91142" lon="-7.8235">
        <ele>150.308</ele>
        <time>2015-08-15T17:45:00Z</time>
      </trkpt>
      <trkpt lat="37.90927" lon="-7.82574">
        <ele>135.065</ele>
        <time>2015-08-15T17:45:45Z</time>
      </trkpt>
      <trkpt lat="37.90902" lon="-7.8263">
        <ele>144.374</ele>
        <time>2015-08-15T17:45:58Z</time>
      </trkpt>
      <trkpt lat="37.90894" lon="-7.82681">
        <ele>148.112</ele>
        <time>2015-08-15T17:46:08Z</time>
      </trkpt>
      <trkpt lat="37.90961" lon="-7.82795">
        <ele>154.251</ele>
        <time>2015-08-15T17:46:25Z</time>
      </trkpt>
      <trkpt lat="37.91033" lon="-7.82813">
        <ele>159.451</ele>
        <time>2015-08-15T17:46:34Z</time>
      </trkpt>
      <trkpt lat="37.91088" lon="-7.82838">
        <ele>162.374</ele>
        <time>2015-08-15T17:46:40Z</time>
      </trkpt>
      <trkpt lat="37.912" lon="-7.82922">
        <ele>159.152</ele>
        <time>2015-08-15T17:46:54Z</time>
      </trkpt>
      <trkpt lat="37.91427" lon="-7.83227">
        <ele>165.816</ele>
        <time>2015-08-15T17:47:35Z</time>
      </trkpt>
      <trkpt lat="37.91541" lon="-7.83264">
        <ele>165.937</ele>
        <time>2015-08-15T17:47:47Z</time>
      </trkpt>
      <trkpt lat="37.91656" lon="-7.83379">
        <ele>171.349</ele>
        <time>2015-08-15T17:48:10Z</time>
      </trkpt>
      <trkpt lat="37.91689" lon="-7.83417">
        <ele>167.413</ele>
        <time>2015-08-15T17:48:16Z</time>
      </trkpt>
      <trkpt lat="37.91711" lon="-7.83813">
        <ele>175.408</ele>
        <time>2015-08-15T17:48:52Z</time>
      </trkpt>
      <trkpt lat="37.92039" lon="-7.83947">
        <ele>183.154</ele>
        <time>2015-08-15T17:49:35Z</time>
      </trkpt>
      <trkpt lat="37.92262" lon="-7.8425">
        <ele>184.133</ele>
        <time>2015-08-15T17:50:11Z</time>
      </trkpt>
      <trkpt lat="37.92259" lon="-7.84246">
        <ele>184.351</ele>
        <time>2015-08-15T17:50:25Z</time>
      </trkpt>
      <trkpt lat="37.92387" lon="-7.84292">
        <ele>181.07</ele>
        <time>2015-08-15T17:51:20Z</time>
      </trkpt>
      <trkpt lat="37.92733" lon="-7.84713">
        <ele>185.92</ele>
        <time>2015-08-15T17:52:34Z</time>
      </trkpt>
      <trkpt lat="37.92773" lon="-7.84766">
        <ele>183.133</ele>
        <time>2015-08-15T17:52:43Z</time>
      </trkpt>
      <trkpt lat="37.92756" lon="-7.85136">
        <ele>157.031</ele>
        <time>2015-08-15T17:53:22Z</time>
      </trkpt>
      <trkpt lat="37.92876" lon="-7.85222">
        <ele>156.055</ele>
        <time>2015-08-15T17:54:47Z</time>
      </trkpt>
      <trkpt lat="37.9278" lon="-7.85247">
        <ele>158.794</ele>
        <time>2015-08-15T17:55:39Z</time>
      </trkpt>
      <trkpt lat="37.92726" lon="-7.85235">
        <ele>156.657</ele>
        <time>2015-08-15T17:55:53Z</time>
      </trkpt>
      <trkpt lat="37.92734" lon="-7.85403">
        <ele>172.422</ele>
        <time>2015-08-15T17:56:46Z</time>
      </trkpt>
      <trkpt lat="37.92702" lon="-7.85461">
        <ele>171.408</ele>
        <time>2015-08-15T17:56:58Z</time>
      </trkpt>
      <trkpt lat="37.92712" lon="-7.85488">
        <ele>169.85</ele>
        <time>2015-08-15T17:57:02Z</time>
      </trkpt>
      <trkpt lat="37.92739" lon="-7.85611">
        <ele>177.239</ele>
        <time>2015-08-15T17:57:20Z</time>
      </trkpt>
      <trkpt lat="37.92686" lon="-7.85789">
        <ele>182.777</ele>
        <time>2015-08-15T17:57:44Z</time>
      </trkpt>
      <trkpt lat="37.927" lon="-7.85831">
        <ele>183.836</ele>
        <time>2015-08-15T17:57:50Z</time>
      </trkpt>
      <trkpt lat="37.92791" lon="-7.85956">
        <ele>180.876</ele>
        <time>2015-08-15T17:58:14Z</time>
      </trkpt>
      <trkpt lat="37.92858" lon="-7.86005">
        <ele>182.249</ele>
        <time>2015-08-15T17:58:27Z</time>
      </trkpt>
      <trkpt lat="37.92879" lon="-7.86112">
        <ele>186.697</ele>
        <time>2015-08-15T17:58:42Z</time>
      </trkpt>
      <trkpt lat="37.92874" lon="-7.8626">
        <ele>187.681</ele>
        <time>2015-08-15T17:59:01Z</time>
      </trkpt>
      <trkpt lat="37.92796" lon="-7.8637">
        <ele>191.141</ele>
        <time>2015-08-15T17:59:18Z</time>
      </trkpt>
      <trkpt lat="37.92794" lon="-7.86428">
        <ele>193.281</ele>
        <time>2015-08-15T17:59:24Z</time>
      </trkpt>
      <trkpt lat="37.92847" lon="-7.86603">
        <ele>187.909</ele>
        <time>2015-08-15T18:01:49Z</time>
      </trkpt>
      <trkpt lat="37.92719" lon="-7.86468">
        <ele>187.108</ele>
        <time>2015-08-15T18:02:59Z</time>
      </trkpt>
      <trkpt lat="37.92617" lon="-7.86385">
        <ele>182.435</ele>
        <time>2015-08-15T18:04:34Z</time>
      </trkpt>
      <trkpt lat="37.92573" lon="-7.86421">
        <ele>186.494</ele>
        <time>2015-08-15T18:04:45Z</time>
      </trkpt>
      <trkpt lat="37.92538" lon="-7.86337">
        <ele>189.562</ele>
        <time>2015-08-15T18:04:58Z</time>
      </trkpt>
      <trkpt lat="37.92459" lon="-7.86242">
        <ele>188.371</ele>
        <time>2015-08-15T18:05:17Z</time>
      </trkpt>
      <trkpt lat="37.92417" lon="-7.86221">
        <ele>186.061</ele>
        <time>2015-08-15T18:05:29Z</time>
      </trkpt>
      <trkpt lat="37.92223" lon="-7.86187">
        <ele>180.574</ele>
        <time>2015-08-15T18:05:52Z</time>
      </trkpt>
      <trkpt lat="37.92082" lon="-7.86099">
        <ele>180.022</ele>
        <time>2015-08-15T18:06:12Z</time>
      </trkpt>
      <trkpt lat="37.91988" lon="-7.86083">
        <ele>182.456</ele>
        <time>2015-08-15T18:06:24Z</time>
      </trkpt>
      <trkpt lat="37.91972" lon="-7.86073">
        <ele>182.677</ele>
        <time>2015-08-15T18:06:26Z</time>
      </trkpt>
      <trkpt lat="37.91929" lon="-7.85938">
        <ele>179.861</ele>
        <time>2015-08-15T18:06:40Z</time>
      </trkpt>
      <trkpt lat="37.9172" lon="-7.85812">
        <ele>172.227</ele>
        <time>2015-08-15T18:07:16Z</time>
      </trkpt>
      <trkpt lat="37.91677" lon="-7.85684">
        <ele>176.108</ele>
        <time>2015-08-15T18:07:29Z</time>
      </trkpt>
      <trkpt lat="37.9166" lon="-7.85628">
        <ele>176.538</ele>
        <time>2015-08-15T18:07:35Z</time>
      </trkpt>
      <trkpt lat="37.91597" lon="-7.85599">
        <ele>174.697</ele>
        <time>2015-08-15T18:07:43Z</time>
      </trkpt>
      <trkpt lat="37.91482" lon="-7.85512">
        <ele>172.815</ele>
        <time>2015-08-15T18:07:58Z</time>
      </trkpt>
      <trkpt lat="37.91456" lon="-7.85415">
        <ele>166.854</ele>
        <time>2015-08-15T18:08:08Z</time>
      </trkpt>
      <trkpt lat="37.91376" lon="-7.85349">
        <ele>165.864</ele>
        <time>2015-08-15T18:08:18Z</time>
      </trkpt>
      <trkpt lat="37.91268" lon="-7.85343">
        <ele>159.927</ele>
        <time>2015-08-15T18:08:35Z</time>
      </trkpt>
      <trkpt lat="37.91163" lon="-7.85358">
        <ele>153.545</ele>
        <time>2015-08-15T18:08:47Z</time>
      </trkpt>
      <trkpt lat="37.91186" lon="-7.8544">
        <ele>151.599</ele>
        <time>2015-08-15T18:08:57Z</time>
      </trkpt>
      <trkpt lat="37.91199" lon="-7.85487">
        <ele>151.895</ele>
        <time>2015-08-15T18:09:06Z</time>
      </trkpt>
      <trkpt lat="37.91211" lon="-7.85737">
        <ele>159.449</ele>
        <time>2015-08-15T18:11:42Z</time>
      </trkpt>
      <trkpt lat="37.91194" lon="-7.85764">
        <ele>163.023</ele>
        <time>2015-08-15T18:11:51Z</time>
      </trkpt>
      <trkpt lat="37.91102" lon="-7.85829">
        <ele>170.708</ele>
        <time>2015-08-15T18:13:04Z</time>
      </trkpt>
      <trkpt lat="37.91032" lon="-7.85871">
        <ele>174.02</ele>
        <time>2015-08-15T18:13:14Z</time>
      </trkpt>
      <trkpt lat="37.90959" lon="-7.85794">
        <ele>174.829</ele>
        <time>2015-08-15T18:13:28Z</time>
      </trkpt>
      <trkpt lat="37.90884" lon="-7.85827">
        <ele>174.547</ele>
        <time>2015-08-15T18:13:38Z</time>
      </trkpt>
      <trkpt lat="37.90795" lon="-7.85924">
        <ele>175.256</ele>
        <time>2015-08-15T18:13:51Z</time>
      </trkpt>
      <trkpt lat="37.9078" lon="-7.8602">
        <ele>178.296</ele>
        <time>2015-08-15T18:14:00Z</time>
      </trkpt>
      <trkpt lat="37.90731" lon="-7.8616">
        <ele>180.439</ele>
        <time>2015-08-15T18:15:16Z</time>
      </trkpt>
      <trkpt lat="37.90721" lon="-7.86171">
        <ele>180.957</ele>
        <time>2015-08-15T18:16:14Z</time>
      </trkpt>
      <trkpt lat="37.90674" lon="-7.86229">
        <ele>182.191</ele>
        <time>2015-08-15T18:16:23Z</time>
      </trkpt>
      <trkpt lat="37.90588" lon="-7.86314">
        <ele>178.841</ele>
        <time>2015-08-15T18:16:33Z</time>
      </trkpt>
      <trkpt lat="37.90506" lon="-7.86354">
        <ele>180.081</ele>
        <time>2015-08-15T18:16:40Z</time>
      </trkpt>
      <trkpt lat="37.90161" lon="-7.86401">
        <ele>176.609</ele>
        <time>2015-08-15T18:17:13Z</time>
      </trkpt>
      <trkpt lat="37.8999" lon="-7.86217">
        <ele>171.008</ele>
        <time>2015-08-15T18:17:37Z</time>
      </trkpt>
      <trkpt lat="37.89912" lon="-7.86188">
        <ele>170.235</ele>
        <time>2015-08-15T18:17:44Z</time>
      </trkpt>
      <trkpt lat="37.89819" lon="-7.86186">
        <ele>168.584</ele>
        <time>2015-08-15T18:17:53Z</time>
      </trkpt>
      <trkpt lat="37.89759" lon="-7.86138">
        <ele>167.672</ele>
        <time>2015-08-15T18:18:01Z</time>
      </trkpt>
      <trkpt lat="37.8973" lon="-7.86061">
        <ele>165.051</ele>
        <time>2015-08-15T18:18:08Z</time>
      </trkpt>
      <trkpt lat="37.89455" lon="-7.85946">
        <ele>160.741</ele>
        <time>2015-08-15T18:18:44Z</time>
      </trkpt>
      <trkpt lat="37.89181" lon="-7.85962">
        <ele>147.224</ele>
        <time>2015-08-15T18:19:11Z</time>
      </trkpt>
      <trkpt lat="37.89017" lon="-7.85934">
        <ele>141.242</ele>
        <time>2015-08-15T18:19:27Z</time>
      </trkpt>
      <trkpt lat="37.88963" lon="-7.859">
        <ele>138.896</ele>
        <time>2015-08-15T18:19:33Z</time>
      </trkpt>
      <trkpt lat="37.88948" lon="-7.85869">
        <ele>140.461</ele>
        <time>2015-08-15T18:19:37Z</time>
      </trkpt>
      <trkpt lat="37.88932" lon="-7.85794">
        <ele>144.221</ele>
        <time>2015-08-15T18:19:50Z</time>
      </trkpt>
      <trkpt lat="37.88878" lon="-7.85701">
        <ele>137.213</ele>
        <time>2015-08-15T18:20:53Z</time>
      </trkpt>
      <trkpt lat="37.88831" lon="-7.85686">
        <ele>140.408</ele>
        <time>2015-08-15T18:21:00Z</time>
      </trkpt>
      <trkpt lat="37.88779" lon="-7.85781">
        <ele>145.347</ele>
        <time>2015-08-15T18:21:17Z</time>
      </trkpt>
      <trkpt lat="37.88806" lon="-7.85828">
        <ele>150.646</ele>
        <time>2015-08-15T18:21:26Z</time>
      </trkpt>
      <trkpt lat="37.88846" lon="-7.85849">
        <ele>154.134</ele>
        <time>2015-08-15T18:21:35Z</time>
      </trkpt>
      <trkpt lat="37.8885" lon="-7.8593">
        <ele>154.213</ele>
        <time>2015-08-15T18:21:46Z</time>
      </trkpt>
      <trkpt lat="37.88835" lon="-7.86068">
        <ele>154.493</ele>
        <time>2015-08-15T18:21:58Z</time>
      </trkpt>
      <trkpt lat="37.88813" lon="-7.8626">
        <ele>163.766</ele>
        <time>2015-08-15T18:22:13Z</time>
      </trkpt>
      <trkpt lat="37.88719" lon="-7.86421">
        <ele>163.884</ele>
        <time>2015-08-15T18:22:31Z</time>
      </trkpt>
      <trkpt lat="37.88783" lon="-7.86446">
        <ele>159.418</ele>
        <time>2015-08-15T18:22:55Z</time>
      </trkpt>
      <trkpt lat="37.88792" lon="-7.86502">
        <ele>155.718</ele>
        <time>2015-08-15T18:23:01Z</time>
      </trkpt>
      <trkpt lat="37.88795" lon="-7.86577">
        <ele>148.698</ele>
        <time>2015-08-15T18:23:08Z</time>
      </trkpt>
      <trkpt lat="37.88852" lon="-7.86589">
        <ele>146.517</ele>
        <time>2015-08-15T18:23:19Z</time>
      </trkpt>
      <trkpt lat="37.88902" lon="-7.86688">
        <ele>146.508</ele>
        <time>2015-08-15T18:23:36Z</time>
      </trkpt>
      <trkpt lat="37.88912" lon="-7.86823">
        <ele>150.192</ele>
        <time>2015-08-15T18:24:29Z</time>
      </trkpt>
      <trkpt lat="37.88917" lon="-7.86835">
        <ele>151.141</ele>
        <time>2015-08-15T18:24:30Z</time>
      </trkpt>
      <trkpt lat="37.88962" lon="-7.86964">
        <ele>149.339</ele>
        <time>2015-08-15T18:24:40Z</time>
      </trkpt>
      <trkpt lat="37.8905" lon="-7.87068">
        <ele>158.278</ele>
        <time>2015-08-15T18:24:52Z</time>
      </trkpt>
      <trkpt lat="37.89051" lon="-7.87118">
        <ele>158.618</ele>
        <time>2015-08-15T18:24:56Z</time>
      </trkpt>
      <trkpt lat="37.89005" lon="-7.87214">
        <ele>161.121</ele>
        <time>2015-08-15T18:25:03Z</time>
      </trkpt>
      <trkpt lat="37.88966" lon="-7.8742">
        <ele>174.179</ele>
        <time>2015-08-15T18:25:17Z</time>
      </trkpt>
      <trkpt lat="37.89081" lon="-7.87502">
        <ele>177.153</ele>
        <time>2015-08-15T18:25:30Z</time>
      </trkpt>
      <trkpt lat="37.89097" lon="-7.87644">
        <ele>175.973</ele>
        <time>2015-08-15T18:25:40Z</time>
      </trkpt>
      <trkpt lat="37.89105" lon="-7.87929">
        <ele>182.085</ele>
        <time>2015-08-15T18:25:54Z</time>
      </trkpt>
      <trkpt lat="37.89122" lon="-7.88415">
        <ele>182.713</ele>
        <time>2015-08-15T18:26:21Z</time>
      </trkpt>
      <trkpt lat="37.89094" lon="-7.88662">
        <ele>175.108</ele>
        <time>2015-08-15T18:26:35Z</time>
      </trkpt>
      <trkpt lat="37.89088" lon="-7.88705">
        <ele>175.498</ele>
        <time>2015-08-15T18:26:37Z</time>
      </trkpt>
      <trkpt lat="37.89069" lon="-7.88847">
        <ele>167.577</ele>
        <time>2015-08-15T18:26:44Z</time>
      </trkpt>
      <trkpt lat="37.89054" lon="-7.88886">
        <ele>164.315</ele>
        <time>2015-08-15T18:26:47Z</time>
      </trkpt>
      <trkpt lat="37.88726" lon="-7.89099">
        <ele>162.134</ele>
        <time>2015-08-15T18:27:12Z</time>
      </trkpt>
      <trkpt lat="37.8871" lon="-7.89209">
        <ele>169.484</ele>
        <time>2015-08-15T18:27:21Z</time>
      </trkpt>
      <trkpt lat="37.88687" lon="-7.89285">
        <ele>173.257</ele>
        <time>2015-08-15T18:27:29Z</time>
      </trkpt>
      <trkpt lat="37.88636" lon="-7.8934">
        <ele>172.995</ele>
        <time>2015-08-15T18:27:39Z</time>
      </trkpt>
      <trkpt lat="37.88634" lon="-7.89355">
        <ele>173.099</ele>
        <time>2015-08-15T18:27:43Z</time>
      </trkpt>
      <trkpt lat="37.88602" lon="-7.8941">
        <ele>172.519</ele>
        <time>2015-08-15T18:28:06Z</time>
      </trkpt>
      <trkpt lat="37.88413" lon="-7.8966">
        <ele>164.209</ele>
        <time>2015-08-15T18:28:33Z</time>
      </trkpt>
      <trkpt lat="37.88385" lon="-7.89715">
        <ele>164.619</ele>
        <time>2015-08-15T18:28:37Z</time>
      </trkpt>
      <trkpt lat="37.88437" lon="-7.89977">
        <ele>163.508</ele>
        <time>2015-08-15T18:30:07Z</time>
      </trkpt>
      <trkpt lat="37.88387" lon="-7.9008">
        <ele>168.062</ele>
        <time>2015-08-15T18:30:21Z</time>
      </trkpt>
      <trkpt lat="37.88395" lon="-7.9021">
        <ele>175.341</ele>
        <time>2015-08-15T18:30:35Z</time>
      </trkpt>
      <trkpt lat="37.88359" lon="-7.90329">
        <ele>179.219</ele>
        <time>2015-08-15T18:30:46Z</time>
      </trkpt>
      <trkpt lat="37.88357" lon="-7.90392">
        <ele>180.688</ele>
        <time>2015-08-15T18:30:51Z</time>
      </trkpt>
      <trkpt lat="37.88359" lon="-7.90668">
        <ele>187.038</ele>
        <time>2015-08-15T18:31:09Z</time>
      </trkpt>
      <trkpt lat="37.8831" lon="-7.91302">
        <ele>172.041</ele>
        <time>2015-08-15T18:31:58Z</time>
      </trkpt>
      <trkpt lat="37.88244" lon="-7.91491">
        <ele>167.389</ele>
        <time>2015-08-15T18:32:43Z</time>
      </trkpt>
      <trkpt lat="37.88204" lon="-7.91537">
        <ele>160.393</ele>
        <time>2015-08-15T18:32:51Z</time>
      </trkpt>
      <trkpt lat="37.88297" lon="-7.91648">
        <ele>157.124</ele>
        <time>2015-08-15T18:33:39Z</time>
      </trkpt>
      <trkpt lat="37.88326" lon="-7.91739">
        <ele>159.604</ele>
        <time>2015-08-15T18:33:46Z</time>
      </trkpt>
      <trkpt lat="37.88421" lon="-7.91877">
        <ele>163.414</ele>
        <time>2015-08-15T18:33:59Z</time>
      </trkpt>
      <trkpt lat="37.88425" lon="-7.91907">
        <ele>163.408</ele>
        <time>2015-08-15T18:34:37Z</time>
      </trkpt>
      <trkpt lat="37.8839" lon="-7.91977">
        <ele>170.373</ele>
        <time>2015-08-15T18:34:46Z</time>
      </trkpt>
      <trkpt lat="37.88298" lon="-7.92006">
        <ele>174.582</ele>
        <time>2015-08-15T18:34:59Z</time>
      </trkpt>
      <trkpt lat="37.88041" lon="-7.92418">
        <ele>167.59</ele>
        <time>2015-08-15T18:35:43Z</time>
      </trkpt>
      <trkpt lat="37.88038" lon="-7.92527">
        <ele>162.329</ele>
        <time>2015-08-15T18:35:54Z</time>
      </trkpt>
      <trkpt lat="37.8803" lon="-7.92675">
        <ele>154.079</ele>
        <time>2015-08-15T18:36:09Z</time>
      </trkpt>
      <trkpt lat="37.87892" lon="-7.92803">
        <ele>148.242</ele>
        <time>2015-08-15T18:36:35Z</time>
      </trkpt>
      <trkpt lat="37.87848" lon="-7.92781">
        <ele>149.92</ele>
        <time>2015-08-15T18:36:47Z</time>
      </trkpt>
      <trkpt lat="37.87784" lon="-7.929">
        <ele>148.624</ele>
        <time>2015-08-15T18:37:00Z</time>
      </trkpt>
      <trkpt lat="37.87729" lon="-7.92995">
        <ele>153.381</ele>
        <time>2015-08-15T18:37:12Z</time>
      </trkpt>
      <trkpt lat="37.87677" lon="-7.92919">
        <ele>148.061</ele>
        <time>2015-08-15T18:38:48Z</time>
      </trkpt>
      <trkpt lat="37.87601" lon="-7.93135">
        <ele>151.017</ele>
        <time>2015-08-15T18:39:13Z</time>
      </trkpt>
      <trkpt lat="37.87571" lon="-7.93417">
        <ele>160.008</ele>
        <time>2015-08-15T18:39:41Z</time>
      </trkpt>
      <trkpt lat="37.87578" lon="-7.93585">
        <ele>154.499</ele>
        <time>2015-08-15T18:39:55Z</time>
      </trkpt>
      <trkpt lat="37.8755" lon="-7.93805">
        <ele>154.118</ele>
        <time>2015-08-15T18:40:14Z</time>
      </trkpt>
      <trkpt lat="37.87484" lon="-7.93848">
        <ele>155.846</ele>
        <time>2015-08-15T18:40:22Z</time>
      </trkpt>
      <trkpt lat="37.8744" lon="-7.93915">
        <ele>149.855</ele>
        <time>2015-08-15T18:40:30Z</time>
      </trkpt>
      <trkpt lat="37.87334" lon="-7.93952">
        <ele>148.395</ele>
        <time>2015-08-15T18:42:56Z</time>
      </trkpt>
      <trkpt lat="37.87253" lon="-7.93979">
        <ele>146.628</ele>
        <time>2015-08-15T18:43:03Z</time>
      </trkpt>
      <trkpt lat="37.87115" lon="-7.94065">
        <ele>142.316</ele>
        <time>2015-08-15T18:43:14Z</time>
      </trkpt>
      <trkpt lat="37.87008" lon="-7.94042">
        <ele>141.82</ele>
        <time>2015-08-15T18:43:32Z</time>
      </trkpt>
      <trkpt lat="37.86922" lon="-7.9424">
        <ele>138.277</ele>
        <time>2015-08-15T18:43:46Z</time>
      </trkpt>
      <trkpt lat="37.86837" lon="-7.94448">
        <ele>140.661</ele>
        <time>2015-08-15T18:43:55Z</time>
      </trkpt>
      <trkpt lat="37.86796" lon="-7.94546">
        <ele>139.127</ele>
        <time>2015-08-15T18:43:59Z</time>
      </trkpt>
      <trkpt lat="37.86765" lon="-7.94621">
        <ele>134.808</ele>
        <time>2015-08-15T18:44:02Z</time>
      </trkpt>
      <trkpt lat="37.86596" lon="-7.95028">
        <ele>147.548</ele>
        <time>2015-08-15T18:44:19Z</time>
      </trkpt>
      <trkpt lat="37.86478" lon="-7.95207">
        <ele>145.947</ele>
        <time>2015-08-15T18:44:32Z</time>
      </trkpt>
      <trkpt lat="37.86425" lon="-7.95259">
        <ele>147.865</ele>
        <time>2015-08-15T18:44:39Z</time>
      </trkpt>
      <trkpt lat="37.86432" lon="-7.95342">
        <ele>146.534</ele>
        <time>2015-08-15T18:44:47Z</time>
      </trkpt>
      <trkpt lat="37.86451" lon="-7.95449">
        <ele>142.934</ele>
        <time>2015-08-15T18:44:55Z</time>
      </trkpt>
      <trkpt lat="37.86401" lon="-7.95558">
        <ele>141.757</ele>
        <time>2015-08-15T18:45:04Z</time>
      </trkpt>
      <trkpt lat="37.86323" lon="-7.95655">
        <ele>147.665</ele>
        <time>2015-08-15T18:45:15Z</time>
      </trkpt>
      <trkpt lat="37.85989" lon="-7.95864">
        <ele>135.579</ele>
        <time>2015-08-15T18:46:11Z</time>
      </trkpt>
      <trkpt lat="37.85957" lon="-7.95913">
        <ele>134.538</ele>
        <time>2015-08-15T18:46:18Z</time>
      </trkpt>
      <trkpt lat="37.85925" lon="-7.96026">
        <ele>143.17</ele>
        <time>2015-08-15T18:47:00Z</time>
      </trkpt>
      <trkpt lat="37.85942" lon="-7.96045">
        <ele>145.217</ele>
        <time>2015-08-15T18:47:07Z</time>
      </trkpt>
      <trkpt lat="37.85956" lon="-7.9607">
        <ele>145.308</ele>
        <time>2015-08-15T18:47:59Z</time>
      </trkpt>
      <trkpt lat="37.85938" lon="-7.96131">
        <ele>142.974</ele>
        <time>2015-08-15T18:48:17Z</time>
      </trkpt>
      <trkpt lat="37.8601" lon="-7.96214">
        <ele>146.963</ele>
        <time>2015-08-15T18:48:32Z</time>
      </trkpt>
      <trkpt lat="37.85969" lon="-7.96327">
        <ele>148.131</ele>
        <time>2015-08-15T18:48:56Z</time>
      </trkpt>
      <trkpt lat="37.85977" lon="-7.96438">
        <ele>144.39</ele>
        <time>2015-08-15T18:49:46Z</time>
      </trkpt>
      <trkpt lat="37.85918" lon="-7.9662">
        <ele>142.23</ele>
        <time>2015-08-15T18:50:08Z</time>
      </trkpt>
      <trkpt lat="37.85699" lon="-7.96718">
        <ele>134.063</ele>
        <time>2015-08-15T18:50:37Z</time>
      </trkpt>
      <trkpt lat="37.85659" lon="-7.96879">
        <ele>140.851</ele>
        <time>2015-08-15T18:50:53Z</time>
      </trkpt>
      <trkpt lat="37.85542" lon="-7.97035">
        <ele>146.255</ele>
        <time>2015-08-15T18:51:10Z</time>
      </trkpt>
      <trkpt lat="37.85383" lon="-7.97254">
        <ele>151.225</ele>
        <time>2015-08-15T18:51:33Z</time>
      </trkpt>
      <trkpt lat="37.85286" lon="-7.97412">
        <ele>155.726</ele>
        <time>2015-08-15T18:51:49Z</time>
      </trkpt>
      <trkpt lat="37.85234" lon="-7.97541">
        <ele>156.508</ele>
        <time>2015-08-15T18:52:01Z</time>
      </trkpt>
      <trkpt lat="37.85185" lon="-7.97638">
        <ele>159.608</ele>
        <time>2015-08-15T18:52:14Z</time>
      </trkpt>
      <trkpt lat="37.85139" lon="-7.9775">
        <ele>159.073</ele>
        <time>2015-08-15T18:52:29Z</time>
      </trkpt>
      <trkpt lat="37.8514" lon="-7.97782">
        <ele>158.672</ele>
        <time>2015-08-15T18:52:35Z</time>
      </trkpt>
      <trkpt lat="37.85043" lon="-7.98027">
        <ele>148.97</ele>
        <time>2015-08-15T18:53:09Z</time>
      </trkpt>
      <trkpt lat="37.84971" lon="-7.98161">
        <ele>145.969</ele>
        <time>2015-08-15T18:53:41Z</time>
      </trkpt>
      <trkpt lat="37.84871" lon="-7.9829">
        <ele>159.949</ele>
        <time>2015-08-15T18:53:59Z</time>
      </trkpt>
      <trkpt lat="37.84845" lon="-7.98328">
        <ele>160.852</ele>
        <time>2015-08-15T18:54:03Z</time>
      </trkpt>
      <trkpt lat="37.84784" lon="-7.98372">
        <ele>159.84</ele>
        <time>2015-08-15T18:54:09Z</time>
      </trkpt>
      <trkpt lat="37.84404" lon="-7.98715">
        <ele>157.454</ele>
        <time>2015-08-15T18:54:49Z</time>
      </trkpt>
      <trkpt lat="37.84212" lon="-7.9904">
        <ele>156.255</ele>
        <time>2015-08-15T18:55:12Z</time>
      </trkpt>
      <trkpt lat="37.8406" lon="-7.99249">
        <ele>168.107</ele>
        <time>2015-08-15T18:55:27Z</time>
      </trkpt>
      <trkpt lat="37.84001" lon="-7.99328">
        <ele>164.017</ele>
        <time>2015-08-15T18:55:35Z</time>
      </trkpt>
      <trkpt lat="37.83776" lon="-7.99597">
        <ele>171.608</ele>
        <time>2015-08-15T18:55:59Z</time>
      </trkpt>
      <trkpt lat="37.83622" lon="-7.99759">
        <ele>172.926</ele>
        <time>2015-08-15T18:56:10Z</time>
      </trkpt>
      <trkpt lat="37.83532" lon="-7.99889">
        <ele>173.595</ele>
        <time>2015-08-15T18:56:20Z</time>
      </trkpt>
      <trkpt lat="37.83484" lon="-7.99957">
        <ele>173.083</ele>
        <time>2015-08-15T18:56:26Z</time>
      </trkpt>
      <trkpt lat="37.8335" lon="-8.00051">
        <ele>166.552</ele>
        <time>2015-08-15T18:56:40Z</time>
      </trkpt>
      <trkpt lat="37.83264" lon="-8.00134">
        <ele>163.682</ele>
        <time>2015-08-15T18:56:51Z</time>
      </trkpt>
      <trkpt lat="37.83108" lon="-8.00147">
        <ele>158.055</ele>
        <time>2015-08-15T18:57:08Z</time>
      </trkpt>
      <trkpt lat="37.83089" lon="-8.00154">
        <ele>158.493</ele>
        <time>2015-08-15T18:57:28Z</time>
      </trkpt>
      <trkpt lat="37.83081" lon="-8.00346">
        <ele>162.567</ele>
        <time>2015-08-15T18:57:52Z</time>
      </trkpt>
      <trkpt lat="37.82965" lon="-8.00584">
        <ele>162.615</ele>
        <time>2015-08-15T18:58:16Z</time>
      </trkpt>
      <trkpt lat="37.82936" lon="-8.00704">
        <ele>162.565</ele>
        <time>2015-08-15T18:58:27Z</time>
      </trkpt>
      <trkpt lat="37.82923" lon="-8.00803">
        <ele>161.911</ele>
        <time>2015-08-15T18:58:36Z</time>
      </trkpt>
      <trkpt lat="37.8284" lon="-8.01105">
        <ele>171.808</ele>
        <time>2015-08-15T18:59:08Z</time>
      </trkpt>
      <trkpt lat="37.82701" lon="-8.01728">
        <ele>182.482</ele>
        <time>2015-08-15T19:00:09Z</time>
      </trkpt>
      <trkpt lat="37.8243" lon="-8.02274">
        <ele>191.811</ele>
        <time>2015-08-15T19:00:55Z</time>
      </trkpt>
      <trkpt lat="37.82403" lon="-8.02325">
        <ele>192.219</ele>
        <time>2015-08-15T19:01:01Z</time>
      </trkpt>
      <trkpt lat="37.82093" lon="-8.02032">
        <ele>191.398</ele>
        <time>2015-08-15T19:01:50Z</time>
      </trkpt>
      <trkpt lat="37.82049" lon="-8.01993">
        <ele>190.538</ele>
        <time>2015-08-15T19:02:00Z</time>
      </trkpt>
      <trkpt lat="37.81334" lon="-8.01545">
        <ele>188.451</ele>
        <time>2015-08-15T19:03:02Z</time>
      </trkpt>
      <trkpt lat="37.81161" lon="-8.01427">
        <ele>192.269</ele>
        <time>2015-08-15T19:03:17Z</time>
      </trkpt>
      <trkpt lat="37.81098" lon="-8.01441">
        <ele>190.643</ele>
        <time>2015-08-15T19:03:27Z</time>
      </trkpt>
      <trkpt lat="37.80248" lon="-8.01626">
        <ele>173.242</ele>
        <time>2015-08-15T19:04:36Z</time>
      </trkpt>
      <trkpt lat="37.80076" lon="-8.01582">
        <ele>169.622</ele>
        <time>2015-08-15T19:04:49Z</time>
      </trkpt>
      <trkpt lat="37.79961" lon="-8.016">
        <ele>169.914</ele>
        <time>2015-08-15T19:04:57Z</time>
      </trkpt>
      <trkpt lat="37.7992" lon="-8.01614">
        <ele>172.508</ele>
        <time>2015-08-15T19:05:03Z</time>
      </trkpt>
      <trkpt lat="37.7955" lon="-8.01633">
        <ele>187.955</ele>
        <time>2015-08-15T19:05:47Z</time>
      </trkpt>
      <trkpt lat="37.79451" lon="-8.01633">
        <ele>191.214</ele>
        <time>2015-08-15T19:05:53Z</time>
      </trkpt>
      <trkpt lat="37.79085" lon="-8.01546">
        <ele>188.512</ele>
        <time>2015-08-15T19:06:18Z</time>
      </trkpt>
      <trkpt lat="37.78509" lon="-8.01283">
        <ele>180.291</ele>
        <time>2015-08-15T19:07:00Z</time>
      </trkpt>
      <trkpt lat="37.78117" lon="-8.01039">
        <ele>169.671</ele>
        <time>2015-08-15T19:07:33Z</time>
      </trkpt>
      <trkpt lat="37.78015" lon="-8.0105">
        <ele>174.644</ele>
        <time>2015-08-15T19:07:44Z</time>
      </trkpt>
      <trkpt lat="37.77992" lon="-8.01093">
        <ele>174.412</ele>
        <time>2015-08-15T19:07:49Z</time>
      </trkpt>
      <trkpt lat="37.77971" lon="-8.01147">
        <ele>177.466</ele>
        <time>2015-08-15T19:08:10Z</time>
      </trkpt>
      <trkpt lat="37.77958" lon="-8.0114">
        <ele>178.057</ele>
        <time>2015-08-15T19:09:36Z</time>
      </trkpt>
      <trkpt lat="37.77951" lon="-8.01134">
        <ele>178.2</ele>
        <time>2015-08-15T19:09:38Z</time>
      </trkpt>
      <trkpt lat="37.77906" lon="-8.01093">
        <ele>179.22</ele>
        <time>2015-08-15T19:09:48Z</time>
      </trkpt>
      <trkpt lat="37.77898" lon="-8.01074">
        <ele>181.108</ele>
        <time>2015-08-15T19:09:55Z</time>
      </trkpt>
      <trkpt lat="37.77833" lon="-8.01052">
        <ele>184.036</ele>
        <time>2015-08-15T19:18:10Z</time>
      </trkpt>
      <trkpt lat="37.77802" lon="-8.01089">
        <ele>184.835</ele>
        <time>2015-08-15T19:18:21Z</time>
      </trkpt>
      <trkpt lat="37.77741" lon="-8.01188">
        <ele>186.763</ele>
        <time>2015-08-15T19:18:47Z</time>
      </trkpt>
      <trkpt lat="37.77711" lon="-8.0118">
        <ele>185.692</ele>
        <time>2015-08-15T19:19:38Z</time>
      </trkpt>
      <trkpt lat="37.77628" lon="-8.01296">
        <ele>184.832</ele>
        <time>2015-08-15T19:20:04Z</time>
      </trkpt>
      <trkpt lat="37.77575" lon="-8.01336">
        <ele>184.215</ele>
        <time>2015-08-15T19:20:20Z</time>
      </trkpt>
      <trkpt lat="37.77534" lon="-8.01384">
        <ele>183.563</ele>
        <time>2015-08-15T19:20:35Z</time>
      </trkpt>
      <trkpt lat="37.77214" lon="-8.01594">
        <ele>179.357</ele>
        <time>2015-08-15T19:26:42Z</time>
      </trkpt>
      <trkpt lat="37.77142" lon="-8.01639">
        <ele>178.085</ele>
        <time>2015-08-15T19:27:24Z</time>
      </trkpt>
      <trkpt lat="37.77102" lon="-8.01619">
        <ele>179.889</ele>
        <time>2015-08-15T19:28:01Z</time>
      </trkpt>
      <trkpt lat="37.77086" lon="-8.01577">
        <ele>180.117</ele>
        <time>2015-08-15T19:28:12Z</time>
      </trkpt>
      <trkpt lat="37.7696" lon="-8.01349">
        <ele>183.808</ele>
        <time>2015-08-15T19:28:36Z</time>
      </trkpt>
      <trkpt lat="37.7687" lon="-8.01213">
        <ele>176.089</ele>
        <time>2015-08-15T19:28:45Z</time>
      </trkpt>
      <trkpt lat="37.7675" lon="-8.01026">
        <ele>170.078</ele>
        <time>2015-08-15T19:28:57Z</time>
      </trkpt>
      <trkpt lat="37.76725" lon="-8.00991">
        <ele>166.956</ele>
        <time>2015-08-15T19:29:00Z</time>
      </trkpt>
      <trkpt lat="37.76665" lon="-8.0097">
        <ele>164.085</ele>
        <time>2015-08-15T19:29:06Z</time>
      </trkpt>
      <trkpt lat="37.76171" lon="-8.00875">
        <ele>176.755</ele>
        <time>2015-08-15T19:29:42Z</time>
      </trkpt>
      <trkpt lat="37.75689" lon="-8.0073">
        <ele>188.998</ele>
        <time>2015-08-15T19:30:08Z</time>
      </trkpt>
      <trkpt lat="37.75425" lon="-8.00639">
        <ele>193.966</ele>
        <time>2015-08-15T19:30:22Z</time>
      </trkpt>
      <trkpt lat="37.75377" lon="-8.00627">
        <ele>191.81</ele>
        <time>2015-08-15T19:30:25Z</time>
      </trkpt>
      <trkpt lat="37.75273" lon="-8.00558">
        <ele>190.926</ele>
        <time>2015-08-15T19:30:31Z</time>
      </trkpt>
      <trkpt lat="37.75127" lon="-8.00456">
        <ele>196.947</ele>
        <time>2015-08-15T19:30:39Z</time>
      </trkpt>
      <trkpt lat="37.75038" lon="-8.00362">
        <ele>196.311</ele>
        <time>2015-08-15T19:30:46Z</time>
      </trkpt>
      <trkpt lat="37.74862" lon="-8.003">
        <ele>186.108</ele>
        <time>2015-08-15T19:31:14Z</time>
      </trkpt>
      <trkpt lat="37.74739" lon="-8.00249">
        <ele>180.853</ele>
        <time>2015-08-15T19:31:25Z</time>
      </trkpt>
      <trkpt lat="37.7466" lon="-8.00378">
        <ele>184.692</ele>
        <time>2015-08-15T19:31:37Z</time>
      </trkpt>
      <trkpt lat="37.74547" lon="-8.00472">
        <ele>189.09</ele>
        <time>2015-08-15T19:31:45Z</time>
      </trkpt>
      <trkpt lat="37.74425" lon="-8.0062">
        <ele>189.779</ele>
        <time>2015-08-15T19:31:57Z</time>
      </trkpt>
      <trkpt lat="37.74389" lon="-8.00669">
        <ele>190.939</ele>
        <time>2015-08-15T19:32:02Z</time>
      </trkpt>
      <trkpt lat="37.74386" lon="-8.00673">
        <ele>190.882</ele>
        <time>2015-08-15T19:32:06Z</time>
      </trkpt>
      <trkpt lat="37.7431" lon="-8.00662">
        <ele>190.04</ele>
        <time>2015-08-15T19:32:52Z</time>
      </trkpt>
      <trkpt lat="37.74238" lon="-8.00624">
        <ele>188.134</ele>
        <time>2015-08-15T19:32:58Z</time>
      </trkpt>
      <trkpt lat="37.74153" lon="-8.00609">
        <ele>188.486</ele>
        <time>2015-08-15T19:33:04Z</time>
      </trkpt>
      <trkpt lat="37.74065" lon="-8.00571">
        <ele>187.46</ele>
        <time>2015-08-15T19:33:10Z</time>
      </trkpt>
      <trkpt lat="37.73877" lon="-8.00464">
        <ele>189.226</ele>
        <time>2015-08-15T19:33:24Z</time>
      </trkpt>
      <trkpt lat="37.73755" lon="-8.00462">
        <ele>186.808</ele>
        <time>2015-08-15T19:33:32Z</time>
      </trkpt>
      <trkpt lat="37.73459" lon="-8.00421">
        <ele>185.059</ele>
        <time>2015-08-15T19:33:48Z</time>
      </trkpt>
      <trkpt lat="37.73389" lon="-8.00372">
        <ele>185.488</ele>
        <time>2015-08-15T19:33:53Z</time>
      </trkpt>
      <trkpt lat="37.73349" lon="-8.00346">
        <ele>187.246</ele>
        <time>2015-08-15T19:33:57Z</time>
      </trkpt>
      <trkpt lat="37.73301" lon="-8.00351">
        <ele>188.835</ele>
        <time>2015-08-15T19:34:01Z</time>
      </trkpt>
      <trkpt lat="37.7329" lon="-8.00354">
        <ele>188.925</ele>
        <time>2015-08-15T19:34:02Z</time>
      </trkpt>
      <trkpt lat="37.73247" lon="-8.0039">
        <ele>191.268</ele>
        <time>2015-08-15T19:34:06Z</time>
      </trkpt>
      <trkpt lat="37.73187" lon="-8.00434">
        <ele>191.246</ele>
        <time>2015-08-15T19:34:11Z</time>
      </trkpt>
      <trkpt lat="37.73137" lon="-8.00451">
        <ele>187.94</ele>
        <time>2015-08-15T19:34:15Z</time>
      </trkpt>
      <trkpt lat="37.73015" lon="-8.00434">
        <ele>181.746</ele>
        <time>2015-08-15T19:34:22Z</time>
      </trkpt>
      <trkpt lat="37.72903" lon="-8.00424">
        <ele>175.388</ele>
        <time>2015-08-15T19:34:28Z</time>
      </trkpt>
      <trkpt lat="37.72864" lon="-8.00423">
        <ele>175.216</ele>
        <time>2015-08-15T19:34:31Z</time>
      </trkpt>
      <trkpt lat="37.72816" lon="-8.0045">
        <ele>174.908</ele>
        <time>2015-08-15T19:34:35Z</time>
      </trkpt>
      <trkpt lat="37.72778" lon="-8.00457">
        <ele>177.125</ele>
        <time>2015-08-15T19:34:38Z</time>
      </trkpt>
      <trkpt lat="37.72609" lon="-8.00357">
        <ele>178.244</ele>
        <time>2015-08-15T19:34:50Z</time>
      </trkpt>
      <trkpt lat="37.72522" lon="-8.00346">
        <ele>179.312</ele>
        <time>2015-08-15T19:34:55Z</time>
      </trkpt>
      <trkpt lat="37.72433" lon="-8.00337">
        <ele>182.791</ele>
        <time>2015-08-15T19:35:01Z</time>
      </trkpt>
      <trkpt lat="37.72346" lon="-8.00275">
        <ele>182.621</ele>
        <time>2015-08-15T19:35:07Z</time>
      </trkpt>
      <trkpt lat="37.72253" lon="-8.00097">
        <ele>181.214</ele>
        <time>2015-08-15T19:35:19Z</time>
      </trkpt>
      <trkpt lat="37.72214" lon="-8.00052">
        <ele>184.252</ele>
        <time>2015-08-15T19:35:25Z</time>
      </trkpt>
      <trkpt lat="37.72127" lon="-8.00014">
        <ele>181.236</ele>
        <time>2015-08-15T19:35:36Z</time>
      </trkpt>
      <trkpt lat="37.72046" lon="-7.99854">
        <ele>175.143</ele>
        <time>2015-08-15T19:35:47Z</time>
      </trkpt>
      <trkpt lat="37.71895" lon="-7.99723">
        <ele>167.064</ele>
        <time>2015-08-15T19:35:58Z</time>
      </trkpt>
      <trkpt lat="37.7174" lon="-7.99529">
        <ele>168.11</ele>
        <time>2015-08-15T19:36:10Z</time>
      </trkpt>
      <trkpt lat="37.7155" lon="-7.99348">
        <ele>161.308</ele>
        <time>2015-08-15T19:36:26Z</time>
      </trkpt>
      <trkpt lat="37.71515" lon="-7.99236">
        <ele>160.935</ele>
        <time>2015-08-15T19:36:37Z</time>
      </trkpt>
      <trkpt lat="37.71549" lon="-7.99147">
        <ele>158.274</ele>
        <time>2015-08-15T19:36:55Z</time>
      </trkpt>
      <trkpt lat="37.7152" lon="-7.98869">
        <ele>149.782</ele>
        <time>2015-08-15T19:37:20Z</time>
      </trkpt>
      <trkpt lat="37.71393" lon="-7.98697">
        <ele>160.041</ele>
        <time>2015-08-15T19:37:34Z</time>
      </trkpt>
      <trkpt lat="37.71366" lon="-7.98319">
        <ele>166.931</ele>
        <time>2015-08-15T19:37:53Z</time>
      </trkpt>
      <trkpt lat="37.71354" lon="-7.98123">
        <ele>176.284</ele>
        <time>2015-08-15T19:38:03Z</time>
      </trkpt>
      <trkpt lat="37.71079" lon="-7.9753">
        <ele>189.852</ele>
        <time>2015-08-15T19:38:45Z</time>
      </trkpt>
      <trkpt lat="37.71031" lon="-7.97472">
        <ele>191.166</ele>
        <time>2015-08-15T19:38:55Z</time>
      </trkpt>
      <trkpt lat="37.70822" lon="-7.97397">
        <ele>182.431</ele>
        <time>2015-08-15T19:39:15Z</time>
      </trkpt>
      <trkpt lat="37.70584" lon="-7.9734">
        <ele>184.761</ele>
        <time>2015-08-15T19:39:28Z</time>
      </trkpt>
      <trkpt lat="37.70419" lon="-7.97226">
        <ele>190.907</ele>
        <time>2015-08-15T19:39:39Z</time>
      </trkpt>
      <trkpt lat="37.70291" lon="-7.97135">
        <ele>196.508</ele>
        <time>2015-08-15T19:39:47Z</time>
      </trkpt>
      <trkpt lat="37.70269" lon="-7.97121">
        <ele>197.244</ele>
        <time>2015-08-15T19:39:49Z</time>
      </trkpt>
      <trkpt lat="37.70031" lon="-7.9708">
        <ele>197.183</ele>
        <time>2015-08-15T19:40:02Z</time>
      </trkpt>
      <trkpt lat="37.6977" lon="-7.97036">
        <ele>201.681</ele>
        <time>2015-08-15T19:40:16Z</time>
      </trkpt>
      <trkpt lat="37.6972" lon="-7.97029">
        <ele>204.05</ele>
        <time>2015-08-15T19:40:20Z</time>
      </trkpt>
      <trkpt lat="37.69692" lon="-7.97024">
        <ele>204.07</ele>
        <time>2015-08-15T19:40:23Z</time>
      </trkpt>
      <trkpt lat="37.69562" lon="-7.96843">
        <ele>198.583</ele>
        <time>2015-08-15T19:40:37Z</time>
      </trkpt>
      <trkpt lat="37.6952" lon="-7.96783">
        <ele>193.831</ele>
        <time>2015-08-15T19:40:45Z</time>
      </trkpt>
      <trkpt lat="37.69469" lon="-7.96916">
        <ele>195.075</ele>
        <time>2015-08-15T19:41:02Z</time>
      </trkpt>
      <trkpt lat="37.69376" lon="-7.97195">
        <ele>196.598</ele>
        <time>2015-08-15T19:41:14Z</time>
      </trkpt>
      <trkpt lat="37.69257" lon="-7.97562">
        <ele>201.215</ele>
        <time>2015-08-15T19:41:28Z</time>
      </trkpt>
      <trkpt lat="37.69145" lon="-7.97962">
        <ele>198.726</ele>
        <time>2015-08-15T19:41:42Z</time>
      </trkpt>
      <trkpt lat="37.69087" lon="-7.98275">
        <ele>190.408</ele>
        <time>2015-08-15T19:41:52Z</time>
      </trkpt>
      <trkpt lat="37.6898" lon="-7.98831">
        <ele>202.07</ele>
        <time>2015-08-15T19:42:09Z</time>
      </trkpt>
      <trkpt lat="37.68913" lon="-7.99118">
        <ele>202.659</ele>
        <time>2015-08-15T19:42:19Z</time>
      </trkpt>
      <trkpt lat="37.68915" lon="-7.99436">
        <ele>192.367</ele>
        <time>2015-08-15T19:42:29Z</time>
      </trkpt>
      <trkpt lat="37.68958" lon="-8.00564">
        <ele>183.486</ele>
        <time>2015-08-15T19:43:03Z</time>
      </trkpt>
      <trkpt lat="37.69068" lon="-8.01596">
        <ele>168.886</ele>
        <time>2015-08-15T19:43:34Z</time>
      </trkpt>
      <trkpt lat="37.69155" lon="-8.02037">
        <ele>175.999</ele>
        <time>2015-08-15T19:43:48Z</time>
      </trkpt>
      <trkpt lat="37.69158" lon="-8.02464">
        <ele>170.917</ele>
        <time>2015-08-15T19:44:02Z</time>
      </trkpt>
      <trkpt lat="37.69227" lon="-8.02895">
        <ele>159.411</ele>
        <time>2015-08-15T19:44:17Z</time>
      </trkpt>
      <trkpt lat="37.69357" lon="-8.03235">
        <ele>174.359</ele>
        <time>2015-08-15T19:44:30Z</time>
      </trkpt>
      <trkpt lat="37.69467" lon="-8.03511">
        <ele>180.603</ele>
        <time>2015-08-15T19:44:40Z</time>
      </trkpt>
      <trkpt lat="37.69501" lon="-8.03659">
        <ele>181.323</ele>
        <time>2015-08-15T19:44:45Z</time>
      </trkpt>
      <trkpt lat="37.69569" lon="-8.03974">
        <ele>186.108</ele>
        <time>2015-08-15T19:45:01Z</time>
      </trkpt>
      <trkpt lat="37.69539" lon="-8.04086">
        <ele>187.676</ele>
        <time>2015-08-15T19:45:16Z</time>
      </trkpt>
      <trkpt lat="37.69495" lon="-8.04163">
        <ele>188.495</ele>
        <time>2015-08-15T19:45:25Z</time>
      </trkpt>
      <trkpt lat="37.69415" lon="-8.04186">
        <ele>188.133</ele>
        <time>2015-08-15T19:45:37Z</time>
      </trkpt>
      <trkpt lat="37.69407" lon="-8.04228">
        <ele>185.532</ele>
        <time>2015-08-15T19:45:41Z</time>
      </trkpt>
      <trkpt lat="37.69315" lon="-8.04516">
        <ele>188.252</ele>
        <time>2015-08-15T19:46:08Z</time>
      </trkpt>
      <trkpt lat="37.692" lon="-8.04542">
        <ele>185.585</ele>
        <time>2015-08-15T19:46:24Z</time>
      </trkpt>
      <trkpt lat="37.69113" lon="-8.04774">
        <ele>190.953</ele>
        <time>2015-08-15T19:46:45Z</time>
      </trkpt>
      <trkpt lat="37.68929" lon="-8.04924">
        <ele>199.987</ele>
        <time>2015-08-15T19:47:22Z</time>
      </trkpt>
      <trkpt lat="37.68929" lon="-8.04924">
        <ele>199.954</ele>
        <time>2015-08-15T19:47:23Z</time>
      </trkpt>
      <trkpt lat="37.6893" lon="-8.04924">
        <ele>199.956</ele>
        <time>2015-08-15T19:47:54Z</time>
      </trkpt>
      <trkpt lat="37.68927" lon="-8.04933">
        <ele>199.811</ele>
        <time>2015-08-15T19:48:08Z</time>
      </trkpt>
      <trkpt lat="37.69001" lon="-8.04995">
        <ele>202.808</ele>
        <time>2015-08-15T19:48:22Z</time>
      </trkpt>
      <trkpt lat="37.69168" lon="-8.05127">
        <ele>195.016</ele>
        <time>2015-08-15T19:48:42Z</time>
      </trkpt>
      <trkpt lat="37.69242" lon="-8.05145">
        <ele>196.715</ele>
        <time>2015-08-15T19:49:01Z</time>
      </trkpt>
      <trkpt lat="37.69288" lon="-8.05372">
        <ele>202.133</ele>
        <time>2015-08-15T19:49:33Z</time>
      </trkpt>
      <trkpt lat="37.69334" lon="-8.05536">
        <ele>205.452</ele>
        <time>2015-08-15T19:49:46Z</time>
      </trkpt>
      <trkpt lat="37.69345" lon="-8.05634">
        <ele>205.642</ele>
        <time>2015-08-15T19:49:52Z</time>
      </trkpt>
      <trkpt lat="37.69355" lon="-8.05775">
        <ele>209.165</ele>
        <time>2015-08-15T19:50:01Z</time>
      </trkpt>
      <trkpt lat="37.69343" lon="-8.06151">
        <ele>232.543</ele>
        <time>2015-08-15T19:50:35Z</time>
      </trkpt>
      <trkpt lat="37.69303" lon="-8.06288">
        <ele>235.687</ele>
        <time>2015-08-15T19:50:48Z</time>
      </trkpt>
      <trkpt lat="37.69337" lon="-8.06503">
        <ele>234.195</ele>
        <time>2015-08-15T19:51:06Z</time>
      </trkpt>
      <trkpt lat="37.69408" lon="-8.06665">
        <ele>226.149</ele>
        <time>2015-08-15T19:51:21Z</time>
      </trkpt>
      <trkpt lat="37.69568" lon="-8.07176">
        <ele>233.823</ele>
        <time>2015-08-15T19:52:04Z</time>
      </trkpt>
      <trkpt lat="37.69579" lon="-8.07278">
        <ele>233.608</ele>
        <time>2015-08-15T19:52:11Z</time>
      </trkpt>
      <trkpt lat="37.69654" lon="-8.07621">
        <ele>229.29</ele>
        <time>2015-08-15T19:52:36Z</time>
      </trkpt>
      <trkpt lat="37.69636" lon="-8.07789">
        <ele>220.669</ele>
        <time>2015-08-15T19:52:51Z</time>
      </trkpt>
      <trkpt lat="37.69638" lon="-8.07811">
        <ele>220.027</ele>
        <time>2015-08-15T19:52:55Z</time>
      </trkpt>
      <trkpt lat="37.69713" lon="-8.07882">
        <ele>216.256</ele>
        <time>2015-08-15T19:53:17Z</time>
      </trkpt>
      <trkpt lat="37.69824" lon="-8.07905">
        <ele>219.176</ele>
        <time>2015-08-15T19:53:31Z</time>
      </trkpt>
      <trkpt lat="37.69847" lon="-8.07924">
        <ele>220.369</ele>
        <time>2015-08-15T19:53:35Z</time>
      </trkpt>
      <trkpt lat="37.6991" lon="-8.08131">
        <ele>231.687</ele>
        <time>2015-08-15T19:54:06Z</time>
      </trkpt>
      <trkpt lat="37.69916" lon="-8.08321">
        <ele>241.291</ele>
        <time>2015-08-15T19:55:09Z</time>
      </trkpt>
      <trkpt lat="37.69964" lon="-8.08391">
        <ele>243.684</ele>
        <time>2015-08-15T19:55:24Z</time>
      </trkpt>
      <trkpt lat="37.69964" lon="-8.08479">
        <ele>248.507</ele>
        <time>2015-08-15T19:56:42Z</time>
      </trkpt>
      <trkpt lat="37.70006" lon="-8.08524">
        <ele>246.817</ele>
        <time>2015-08-16T07:02:30Z</time>
      </trkpt>
      <trkpt lat="37.70027" lon="-8.08544">
        <ele>247.508</ele>
        <time>2015-08-16T07:03:35Z</time>
      </trkpt>
      <trkpt lat="37.70003" lon="-8.08548">
        <ele>247.199</ele>
        <time>2015-08-16T07:03:42Z</time>
      </trkpt>
      <trkpt lat="37.69712" lon="-8.08842">
        <ele>231.018</ele>
        <time>2015-08-16T07:04:49Z</time>
      </trkpt>
      <trkpt lat="37.69656" lon="-8.08746">
        <ele>229.366</ele>
        <time>2015-08-16T07:05:08Z</time>
      </trkpt>
      <trkpt lat="37.69571" lon="-8.08752">
        <ele>228.185</ele>
        <time>2015-08-16T07:05:18Z</time>
      </trkpt>
      <trkpt lat="37.6953" lon="-8.08787">
        <ele>228.165</ele>
        <time>2015-08-16T07:05:23Z</time>
      </trkpt>
      <trkpt lat="37.69487" lon="-8.08848">
        <ele>221.528</ele>
        <time>2015-08-16T07:05:29Z</time>
      </trkpt>
      <trkpt lat="37.69357" lon="-8.08958">
        <ele>213.196</ele>
        <time>2015-08-16T07:05:45Z</time>
      </trkpt>
      <trkpt lat="37.69396" lon="-8.09111">
        <ele>212.29</ele>
        <time>2015-08-16T07:06:01Z</time>
      </trkpt>
      <trkpt lat="37.69418" lon="-8.0939">
        <ele>211.166</ele>
        <time>2015-08-16T07:06:14Z</time>
      </trkpt>
      <trkpt lat="37.69412" lon="-8.09472">
        <ele>213.629</ele>
        <time>2015-08-16T07:06:18Z</time>
      </trkpt>
      <trkpt lat="37.6941" lon="-8.09491">
        <ele>213.021</ele>
        <time>2015-08-16T07:06:20Z</time>
      </trkpt>
      <trkpt lat="37.69405" lon="-8.095">
        <ele>212.608</ele>
        <time>2015-08-16T07:06:22Z</time>
      </trkpt>
      <trkpt lat="37.69395" lon="-8.09508">
        <ele>211.917</ele>
        <time>2015-08-16T07:06:26Z</time>
      </trkpt>
      <trkpt lat="37.6938" lon="-8.09851">
        <ele>208.576</ele>
        <time>2015-08-16T07:07:11Z</time>
      </trkpt>
      <trkpt lat="37.69219" lon="-8.10178">
        <ele>221.934</ele>
        <time>2015-08-16T07:07:31Z</time>
      </trkpt>
      <trkpt lat="37.68611" lon="-8.11362">
        <ele>229.073</ele>
        <time>2015-08-16T07:08:31Z</time>
      </trkpt>
      <trkpt lat="37.68323" lon="-8.11877">
        <ele>231.473</ele>
        <time>2015-08-16T07:08:54Z</time>
      </trkpt>
      <trkpt lat="37.6817" lon="-8.12371">
        <ele>219.156</ele>
        <time>2015-08-16T07:09:14Z</time>
      </trkpt>
      <trkpt lat="37.67875" lon="-8.13251">
        <ele>229.054</ele>
        <time>2015-08-16T07:09:51Z</time>
      </trkpt>
      <trkpt lat="37.6776" lon="-8.13427">
        <ele>229.888</ele>
        <time>2015-08-16T07:10:06Z</time>
      </trkpt>
      <trkpt lat="37.67752" lon="-8.1347">
        <ele>230.814</ele>
        <time>2015-08-16T07:10:13Z</time>
      </trkpt>
      <trkpt lat="37.67711" lon="-8.13599">
        <ele>236.254</ele>
        <time>2015-08-16T07:10:40Z</time>
      </trkpt>
      <trkpt lat="37.67669" lon="-8.13744">
        <ele>236.209</ele>
        <time>2015-08-16T07:10:49Z</time>
      </trkpt>
      <trkpt lat="37.6769" lon="-8.13883">
        <ele>235.108</ele>
        <time>2015-08-16T07:10:58Z</time>
      </trkpt>
      <trkpt lat="37.67654" lon="-8.13996">
        <ele>236.152</ele>
        <time>2015-08-16T07:11:04Z</time>
      </trkpt>
      <trkpt lat="37.67598" lon="-8.14156">
        <ele>232.121</ele>
        <time>2015-08-16T07:11:15Z</time>
      </trkpt>
      <trkpt lat="37.67629" lon="-8.142">
        <ele>235.159</ele>
        <time>2015-08-16T07:11:31Z</time>
      </trkpt>
      <trkpt lat="37.67514" lon="-8.14411">
        <ele>236.898</ele>
        <time>2015-08-16T07:11:46Z</time>
      </trkpt>
      <trkpt lat="37.67466" lon="-8.1451">
        <ele>237.458</ele>
        <time>2015-08-16T07:11:51Z</time>
      </trkpt>
      <trkpt lat="37.67318" lon="-8.14852">
        <ele>238.231</ele>
        <time>2015-08-16T07:12:10Z</time>
      </trkpt>
      <trkpt lat="37.67176" lon="-8.15164">
        <ele>250.029</ele>
        <time>2015-08-16T07:12:34Z</time>
      </trkpt>
      <trkpt lat="37.67061" lon="-8.15442">
        <ele>253.023</ele>
        <time>2015-08-16T07:12:45Z</time>
      </trkpt>
      <trkpt lat="37.66807" lon="-8.16048">
        <ele>255.712</ele>
        <time>2015-08-16T07:13:07Z</time>
      </trkpt>
      <trkpt lat="37.66311" lon="-8.1724">
        <ele>240.532</ele>
        <time>2015-08-16T07:13:48Z</time>
      </trkpt>
      <trkpt lat="37.66232" lon="-8.17607">
        <ele>245.905</ele>
        <time>2015-08-16T07:14:03Z</time>
      </trkpt>
      <trkpt lat="37.66237" lon="-8.17678">
        <ele>248.508</ele>
        <time>2015-08-16T07:14:09Z</time>
      </trkpt>
      <trkpt lat="37.66254" lon="-8.17689">
        <ele>247.672</ele>
        <time>2015-08-16T07:14:13Z</time>
      </trkpt>
      <trkpt lat="37.66245" lon="-8.17823">
        <ele>244.991</ele>
        <time>2015-08-16T07:14:28Z</time>
      </trkpt>
      <trkpt lat="37.66253" lon="-8.17986">
        <ele>247.449</ele>
        <time>2015-08-16T07:14:37Z</time>
      </trkpt>
      <trkpt lat="37.66299" lon="-8.18935">
        <ele>234.148</ele>
        <time>2015-08-16T07:17:32Z</time>
      </trkpt>
      <trkpt lat="37.66194" lon="-8.19165">
        <ele>231.918</ele>
        <time>2015-08-16T07:18:01Z</time>
      </trkpt>
      <trkpt lat="37.66094" lon="-8.19587">
        <ele>231.771</ele>
        <time>2015-08-16T07:18:45Z</time>
      </trkpt>
      <trkpt lat="37.65919" lon="-8.19903">
        <ele>220.219</ele>
        <time>2015-08-16T07:19:22Z</time>
      </trkpt>
      <trkpt lat="37.65919" lon="-8.20023">
        <ele>217.383</ele>
        <time>2015-08-16T07:19:34Z</time>
      </trkpt>
      <trkpt lat="37.65934" lon="-8.20066">
        <ele>217.487</ele>
        <time>2015-08-16T07:19:38Z</time>
      </trkpt>
      <trkpt lat="37.65935" lon="-8.20078">
        <ele>217.142</ele>
        <time>2015-08-16T07:19:40Z</time>
      </trkpt>
      <trkpt lat="37.65899" lon="-8.20192">
        <ele>220.326</ele>
        <time>2015-08-16T07:19:54Z</time>
      </trkpt>
      <trkpt lat="37.65821" lon="-8.20364">
        <ele>224.908</ele>
        <time>2015-08-16T07:20:22Z</time>
      </trkpt>
      <trkpt lat="37.65669" lon="-8.20493">
        <ele>222.959</ele>
        <time>2015-08-16T07:20:43Z</time>
      </trkpt>
      <trkpt lat="37.65583" lon="-8.20572">
        <ele>218.498</ele>
        <time>2015-08-16T07:21:00Z</time>
      </trkpt>
      <trkpt lat="37.65521" lon="-8.20876">
        <ele>222.276</ele>
        <time>2015-08-16T07:21:32Z</time>
      </trkpt>
      <trkpt lat="37.6544" lon="-8.21038">
        <ele>215.815</ele>
        <time>2015-08-16T07:21:51Z</time>
      </trkpt>
      <trkpt lat="37.6542" lon="-8.21283">
        <ele>211.025</ele>
        <time>2015-08-16T07:22:13Z</time>
      </trkpt>
      <trkpt lat="37.65418" lon="-8.21315">
        <ele>209.738</ele>
        <time>2015-08-16T07:22:17Z</time>
      </trkpt>
      <trkpt lat="37.65456" lon="-8.21392">
        <ele>205.366</ele>
        <time>2015-08-16T07:22:35Z</time>
      </trkpt>
      <trkpt lat="37.65412" lon="-8.21499">
        <ele>203.43</ele>
        <time>2015-08-16T07:22:53Z</time>
      </trkpt>
      <trkpt lat="37.65282" lon="-8.21628">
        <ele>195.456</ele>
        <time>2015-08-16T07:24:33Z</time>
      </trkpt>
      <trkpt lat="37.6526" lon="-8.21658">
        <ele>197.259</ele>
        <time>2015-08-16T07:24:40Z</time>
      </trkpt>
      <trkpt lat="37.65215" lon="-8.21744">
        <ele>199.814</ele>
        <time>2015-08-16T07:24:56Z</time>
      </trkpt>
      <trkpt lat="37.65211" lon="-8.21765">
        <ele>197.508</ele>
        <time>2015-08-16T07:25:00Z</time>
      </trkpt>
      <trkpt lat="37.65117" lon="-8.21955">
        <ele>189.416</ele>
        <time>2015-08-16T07:25:33Z</time>
      </trkpt>
      <trkpt lat="37.65115" lon="-8.22094">
        <ele>194.465</ele>
        <time>2015-08-16T07:25:59Z</time>
      </trkpt>
      <trkpt lat="37.65288" lon="-8.2229">
        <ele>198.733</ele>
        <time>2015-08-16T07:26:36Z</time>
      </trkpt>
      <trkpt lat="37.65223" lon="-8.22347">
        <ele>214.492</ele>
        <time>2015-08-16T07:27:00Z</time>
      </trkpt>
      <trkpt lat="37.65122" lon="-8.22345">
        <ele>218.892</ele>
        <time>2015-08-16T07:27:12Z</time>
      </trkpt>
      <trkpt lat="37.65102" lon="-8.22401">
        <ele>221.595</ele>
        <time>2015-08-16T07:27:23Z</time>
      </trkpt>
      <trkpt lat="37.65128" lon="-8.22438">
        <ele>223.413</ele>
        <time>2015-08-16T07:27:37Z</time>
      </trkpt>
      <trkpt lat="37.65176" lon="-8.22489">
        <ele>221.197</ele>
        <time>2015-08-16T07:27:50Z</time>
      </trkpt>
      <trkpt lat="37.65237" lon="-8.22597">
        <ele>217.614</ele>
        <time>2015-08-16T07:28:09Z</time>
      </trkpt>
      <trkpt lat="37.65229" lon="-8.22624">
        <ele>215.754</ele>
        <time>2015-08-16T07:28:17Z</time>
      </trkpt>
      <trkpt lat="37.65141" lon="-8.22771">
        <ele>206.409</ele>
        <time>2015-08-16T07:28:53Z</time>
      </trkpt>
      <trkpt lat="37.65188" lon="-8.23084">
        <ele>199.008</ele>
        <time>2015-08-16T07:29:32Z</time>
      </trkpt>
      <trkpt lat="37.65235" lon="-8.2325">
        <ele>192.442</ele>
        <time>2015-08-16T07:29:45Z</time>
      </trkpt>
      <trkpt lat="37.65305" lon="-8.2334">
        <ele>188.511</ele>
        <time>2015-08-16T07:30:01Z</time>
      </trkpt>
      <trkpt lat="37.65209" lon="-8.23326">
        <ele>188.339</ele>
        <time>2015-08-16T07:30:22Z</time>
      </trkpt>
      <trkpt lat="37.6518" lon="-8.23372">
        <ele>186.748</ele>
        <time>2015-08-16T07:30:29Z</time>
      </trkpt>
      <trkpt lat="37.65189" lon="-8.2345">
        <ele>184.598</ele>
        <time>2015-08-16T07:30:35Z</time>
      </trkpt>
      <trkpt lat="37.65196" lon="-8.23573">
        <ele>188.021</ele>
        <time>2015-08-16T07:30:44Z</time>
      </trkpt>
      <trkpt lat="37.65043" lon="-8.23741">
        <ele>175.799</ele>
        <time>2015-08-16T07:31:00Z</time>
      </trkpt>
      <trkpt lat="37.64999" lon="-8.23798">
        <ele>179.383</ele>
        <time>2015-08-16T07:31:07Z</time>
      </trkpt>
      <trkpt lat="37.64983" lon="-8.23667">
        <ele>177.084</ele>
        <time>2015-08-16T07:31:25Z</time>
      </trkpt>
      <trkpt lat="37.64907" lon="-8.23728">
        <ele>178.607</ele>
        <time>2015-08-16T07:31:40Z</time>
      </trkpt>
      <trkpt lat="37.64755" lon="-8.23747">
        <ele>172.717</ele>
        <time>2015-08-16T07:31:58Z</time>
      </trkpt>
      <trkpt lat="37.64452" lon="-8.23476">
        <ele>178.508</ele>
        <time>2015-08-16T07:32:30Z</time>
      </trkpt>
      <trkpt lat="37.64284" lon="-8.2335">
        <ele>183.639</ele>
        <time>2015-08-16T07:32:51Z</time>
      </trkpt>
      <trkpt lat="37.64193" lon="-8.23425">
        <ele>186.838</ele>
        <time>2015-08-16T07:33:09Z</time>
      </trkpt>
      <trkpt lat="37.64179" lon="-8.23458">
        <ele>186.626</ele>
        <time>2015-08-16T07:33:13Z</time>
      </trkpt>
      <trkpt lat="37.64135" lon="-8.23729">
        <ele>200.745</ele>
        <time>2015-08-16T07:33:43Z</time>
      </trkpt>
      <trkpt lat="37.6412" lon="-8.23803">
        <ele>201.265</ele>
        <time>2015-08-16T07:33:50Z</time>
      </trkpt>
      <trkpt lat="37.63994" lon="-8.24103">
        <ele>198.698</ele>
        <time>2015-08-16T07:34:12Z</time>
      </trkpt>
      <trkpt lat="37.63818" lon="-8.24574">
        <ele>180.216</ele>
        <time>2015-08-16T07:34:44Z</time>
      </trkpt>
      <trkpt lat="37.63778" lon="-8.24767">
        <ele>171.85</ele>
        <time>2015-08-16T07:34:59Z</time>
      </trkpt>
      <trkpt lat="37.63665" lon="-8.24933">
        <ele>174.537</ele>
        <time>2015-08-16T07:35:23Z</time>
      </trkpt>
      <trkpt lat="37.63601" lon="-8.25036">
        <ele>181.949</ele>
        <time>2015-08-16T07:35:30Z</time>
      </trkpt>
      <trkpt lat="37.63618" lon="-8.25135">
        <ele>185.513</ele>
        <time>2015-08-16T07:35:40Z</time>
      </trkpt>
      <trkpt lat="37.63515" lon="-8.25179">
        <ele>183.608</ele>
        <time>2015-08-16T07:35:55Z</time>
      </trkpt>
      <trkpt lat="37.63331" lon="-8.2533">
        <ele>176.334</ele>
        <time>2015-08-16T07:36:11Z</time>
      </trkpt>
      <trkpt lat="37.63037" lon="-8.25475">
        <ele>180.723</ele>
        <time>2015-08-16T07:36:32Z</time>
      </trkpt>
      <trkpt lat="37.62859" lon="-8.25787">
        <ele>194.771</ele>
        <time>2015-08-16T07:36:54Z</time>
      </trkpt>
      <trkpt lat="37.62725" lon="-8.26043">
        <ele>196.44</ele>
        <time>2015-08-16T07:37:15Z</time>
      </trkpt>
      <trkpt lat="37.62733" lon="-8.26067">
        <ele>196.83</ele>
        <time>2015-08-16T07:37:23Z</time>
      </trkpt>
      <trkpt lat="37.62807" lon="-8.26168">
        <ele>191.973</ele>
        <time>2015-08-16T07:37:35Z</time>
      </trkpt>
      <trkpt lat="37.62856" lon="-8.26334">
        <ele>188.731</ele>
        <time>2015-08-16T07:37:50Z</time>
      </trkpt>
      <trkpt lat="37.62919" lon="-8.26459">
        <ele>175.485</ele>
        <time>2015-08-16T07:38:01Z</time>
      </trkpt>
      <trkpt lat="37.62876" lon="-8.26576">
        <ele>170.785</ele>
        <time>2015-08-16T07:38:10Z</time>
      </trkpt>
      <trkpt lat="37.62775" lon="-8.26717">
        <ele>166.089</ele>
        <time>2015-08-16T07:38:24Z</time>
      </trkpt>
      <trkpt lat="37.62674" lon="-8.26839">
        <ele>172.417</ele>
        <time>2015-08-16T07:38:35Z</time>
      </trkpt>
      <trkpt lat="37.62669" lon="-8.26884">
        <ele>174.808</ele>
        <time>2015-08-16T07:38:38Z</time>
      </trkpt>
      <trkpt lat="37.62661" lon="-8.26976">
        <ele>173.069</ele>
        <time>2015-08-16T07:38:43Z</time>
      </trkpt>
      <trkpt lat="37.6268" lon="-8.2719">
        <ele>173.438</ele>
        <time>2015-08-16T07:38:54Z</time>
      </trkpt>
      <trkpt lat="37.62729" lon="-8.27302">
        <ele>174.276</ele>
        <time>2015-08-16T07:39:02Z</time>
      </trkpt>
      <trkpt lat="37.62765" lon="-8.27345">
        <ele>178.865</ele>
        <time>2015-08-16T07:39:17Z</time>
      </trkpt>
      <trkpt lat="37.62748" lon="-8.27441">
        <ele>177.085</ele>
        <time>2015-08-16T07:39:38Z</time>
      </trkpt>
      <trkpt lat="37.627" lon="-8.27653">
        <ele>178.158</ele>
        <time>2015-08-16T07:39:55Z</time>
      </trkpt>
      <trkpt lat="37.62705" lon="-8.27871">
        <ele>182.016</ele>
        <time>2015-08-16T07:40:11Z</time>
      </trkpt>
      <trkpt lat="37.62646" lon="-8.28035">
        <ele>188.51</ele>
        <time>2015-08-16T07:40:23Z</time>
      </trkpt>
      <trkpt lat="37.62631" lon="-8.28191">
        <ele>187.141</ele>
        <time>2015-08-16T07:40:34Z</time>
      </trkpt>
      <trkpt lat="37.62633" lon="-8.28201">
        <ele>187.281</ele>
        <time>2015-08-16T07:40:35Z</time>
      </trkpt>
      <trkpt lat="37.6253" lon="-8.28222">
        <ele>191.009</ele>
        <time>2015-08-16T07:40:55Z</time>
      </trkpt>
      <trkpt lat="37.62476" lon="-8.28158">
        <ele>196.708</ele>
        <time>2015-08-16T07:41:01Z</time>
      </trkpt>
      <trkpt lat="37.62461" lon="-8.28014">
        <ele>191.755</ele>
        <time>2015-08-16T07:41:11Z</time>
      </trkpt>
      <trkpt lat="37.62456" lon="-8.28004">
        <ele>190.934</ele>
        <time>2015-08-16T07:41:13Z</time>
      </trkpt>
      <trkpt lat="37.62196" lon="-8.27982">
        <ele>188.142</ele>
        <time>2015-08-16T07:41:40Z</time>
      </trkpt>
      <trkpt lat="37.62174" lon="-8.27983">
        <ele>186.181</ele>
        <time>2015-08-16T07:41:43Z</time>
      </trkpt>
      <trkpt lat="37.62103" lon="-8.28271">
        <ele>189.581</ele>
        <time>2015-08-16T07:42:06Z</time>
      </trkpt>
      <trkpt lat="37.6213" lon="-8.28521">
        <ele>196.764</ele>
        <time>2015-08-16T07:42:25Z</time>
      </trkpt>
      <trkpt lat="37.62075" lon="-8.28913">
        <ele>213.682</ele>
        <time>2015-08-16T07:43:03Z</time>
      </trkpt>
      <trkpt lat="37.6203" lon="-8.2905">
        <ele>221.346</ele>
        <time>2015-08-16T07:43:21Z</time>
      </trkpt>
      <trkpt lat="37.62099" lon="-8.29151">
        <ele>228.352</ele>
        <time>2015-08-16T07:44:35Z</time>
      </trkpt>
      <trkpt lat="37.62136" lon="-8.29216">
        <ele>224.653</ele>
        <time>2015-08-16T07:44:41Z</time>
      </trkpt>
      <trkpt lat="37.62144" lon="-8.29262">
        <ele>223.808</ele>
        <time>2015-08-16T07:44:44Z</time>
      </trkpt>
      <trkpt lat="37.62186" lon="-8.29538">
        <ele>229.108</ele>
        <time>2015-08-16T07:44:59Z</time>
      </trkpt>
      <trkpt lat="37.62226" lon="-8.29593">
        <ele>226.316</ele>
        <time>2015-08-16T07:45:03Z</time>
      </trkpt>
      <trkpt lat="37.62549" lon="-8.30009">
        <ele>230.525</ele>
        <time>2015-08-16T07:45:33Z</time>
      </trkpt>
      <trkpt lat="37.62556" lon="-8.30064">
        <ele>232.083</ele>
        <time>2015-08-16T07:45:37Z</time>
      </trkpt>
      <trkpt lat="37.62558" lon="-8.30097">
        <ele>231.422</ele>
        <time>2015-08-16T07:45:42Z</time>
      </trkpt>
      <trkpt lat="37.62558" lon="-8.301">
        <ele>231.322</ele>
        <time>2015-08-16T07:45:55Z</time>
      </trkpt>
      <trkpt lat="37.62561" lon="-8.30113">
        <ele>230.855</ele>
        <time>2015-08-16T07:46:14Z</time>
      </trkpt>
      <trkpt lat="37.62562" lon="-8.30127">
        <ele>230.893</ele>
        <time>2015-08-16T07:46:17Z</time>
      </trkpt>
      <trkpt lat="37.62567" lon="-8.30139">
        <ele>230.677</ele>
        <time>2015-08-16T07:46:19Z</time>
      </trkpt>
      <trkpt lat="37.62645" lon="-8.3026">
        <ele>231.439</ele>
        <time>2015-08-16T07:46:32Z</time>
      </trkpt>
      <trkpt lat="37.62721" lon="-8.30299">
        <ele>225.801</ele>
        <time>2015-08-16T07:46:39Z</time>
      </trkpt>
      <trkpt lat="37.62773" lon="-8.30374">
        <ele>226.721</ele>
        <time>2015-08-16T07:46:44Z</time>
      </trkpt>
      <trkpt lat="37.6289" lon="-8.30535">
        <ele>227.208</ele>
        <time>2015-08-16T07:46:55Z</time>
      </trkpt>
      <trkpt lat="37.6292" lon="-8.30597">
        <ele>229.294</ele>
        <time>2015-08-16T07:46:59Z</time>
      </trkpt>
      <trkpt lat="37.63086" lon="-8.30998">
        <ele>221.963</ele>
        <time>2015-08-16T07:47:23Z</time>
      </trkpt>
      <trkpt lat="37.63095" lon="-8.31036">
        <ele>223.161</ele>
        <time>2015-08-16T07:47:26Z</time>
      </trkpt>
      <trkpt lat="37.63054" lon="-8.31094">
        <ele>224.55</ele>
        <time>2015-08-16T07:47:31Z</time>
      </trkpt>
      <trkpt lat="37.63027" lon="-8.31151">
        <ele>221.43</ele>
        <time>2015-08-16T07:47:37Z</time>
      </trkpt>
      <trkpt lat="37.63062" lon="-8.31304">
        <ele>222.263</ele>
        <time>2015-08-16T07:47:46Z</time>
      </trkpt>
      <trkpt lat="37.63095" lon="-8.31474">
        <ele>226.391</ele>
        <time>2015-08-16T07:47:56Z</time>
      </trkpt>
      <trkpt lat="37.63078" lon="-8.31764">
        <ele>218.825</ele>
        <time>2015-08-16T07:48:12Z</time>
      </trkpt>
      <trkpt lat="37.63144" lon="-8.31911">
        <ele>227.943</ele>
        <time>2015-08-16T07:48:22Z</time>
      </trkpt>
      <trkpt lat="37.63312" lon="-8.32153">
        <ele>240.064</ele>
        <time>2015-08-16T07:48:54Z</time>
      </trkpt>
      <trkpt lat="37.63366" lon="-8.32227">
        <ele>234.61</ele>
        <time>2015-08-16T07:49:03Z</time>
      </trkpt>
      <trkpt lat="37.63369" lon="-8.32234">
        <ele>235.308</ele>
        <time>2015-08-16T07:49:06Z</time>
      </trkpt>
      <trkpt lat="37.63326" lon="-8.32294">
        <ele>238.325</ele>
        <time>2015-08-16T07:49:23Z</time>
      </trkpt>
      <trkpt lat="37.63247" lon="-8.32405">
        <ele>237.664</ele>
        <time>2015-08-16T07:49:32Z</time>
      </trkpt>
      <trkpt lat="37.63212" lon="-8.32508">
        <ele>240.542</ele>
        <time>2015-08-16T07:49:39Z</time>
      </trkpt>
      <trkpt lat="37.6317" lon="-8.32639">
        <ele>243.091</ele>
        <time>2015-08-16T07:49:50Z</time>
      </trkpt>
      <trkpt lat="37.63228" lon="-8.32866">
        <ele>248.011</ele>
        <time>2015-08-16T07:50:08Z</time>
      </trkpt>
      <trkpt lat="37.63192" lon="-8.33123">
        <ele>250.434</ele>
        <time>2015-08-16T07:50:26Z</time>
      </trkpt>
      <trkpt lat="37.63218" lon="-8.33262">
        <ele>251.222</ele>
        <time>2015-08-16T07:50:35Z</time>
      </trkpt>
      <trkpt lat="37.63218" lon="-8.33289">
        <ele>248.286</ele>
        <time>2015-08-16T07:50:38Z</time>
      </trkpt>
      <trkpt lat="37.63073" lon="-8.33425">
        <ele>243.589</ele>
        <time>2015-08-16T07:51:12Z</time>
      </trkpt>
      <trkpt lat="37.63042" lon="-8.33472">
        <ele>246.006</ele>
        <time>2015-08-16T07:51:19Z</time>
      </trkpt>
      <trkpt lat="37.6302" lon="-8.33672">
        <ele>247.626</ele>
        <time>2015-08-16T07:51:46Z</time>
      </trkpt>
      <trkpt lat="37.62915" lon="-8.33869">
        <ele>234.308</ele>
        <time>2015-08-16T07:52:15Z</time>
      </trkpt>
      <trkpt lat="37.62948" lon="-8.34011">
        <ele>235.699</ele>
        <time>2015-08-16T07:52:34Z</time>
      </trkpt>
      <trkpt lat="37.62934" lon="-8.34047">
        <ele>235.638</ele>
        <time>2015-08-16T07:52:56Z</time>
      </trkpt>
      <trkpt lat="37.62811" lon="-8.34128">
        <ele>239.596</ele>
        <time>2015-08-16T07:53:16Z</time>
      </trkpt>
      <trkpt lat="37.62778" lon="-8.34157">
        <ele>238.155</ele>
        <time>2015-08-16T07:53:27Z</time>
      </trkpt>
      <trkpt lat="37.62785" lon="-8.34208">
        <ele>237.125</ele>
        <time>2015-08-16T07:53:49Z</time>
      </trkpt>
      <trkpt lat="37.62922" lon="-8.34476">
        <ele>249.098</ele>
        <time>2015-08-16T07:54:23Z</time>
      </trkpt>
      <trkpt lat="37.63046" lon="-8.34539">
        <ele>259.396</ele>
        <time>2015-08-16T07:54:42Z</time>
      </trkpt>
      <trkpt lat="37.6311" lon="-8.34617">
        <ele>260.12</ele>
        <time>2015-08-16T07:54:53Z</time>
      </trkpt>
      <trkpt lat="37.63189" lon="-8.34718">
        <ele>250.571</ele>
        <time>2015-08-16T07:55:07Z</time>
      </trkpt>
      <trkpt lat="37.63296" lon="-8.34769">
        <ele>238.141</ele>
        <time>2015-08-16T07:55:20Z</time>
      </trkpt>
      <trkpt lat="37.63494" lon="-8.3478">
        <ele>229.815</ele>
        <time>2015-08-16T07:55:45Z</time>
      </trkpt>
      <trkpt lat="37.63595" lon="-8.34932">
        <ele>244.008</ele>
        <time>2015-08-16T07:56:21Z</time>
      </trkpt>
      <trkpt lat="37.63664" lon="-8.34998">
        <ele>236.728</ele>
        <time>2015-08-16T07:56:31Z</time>
      </trkpt>
      <trkpt lat="37.63898" lon="-8.35069">
        <ele>251.987</ele>
        <time>2015-08-16T07:57:15Z</time>
      </trkpt>
      <trkpt lat="37.64083" lon="-8.35184">
        <ele>271.335</ele>
        <time>2015-08-16T07:57:43Z</time>
      </trkpt>
      <trkpt lat="37.6411" lon="-8.352">
        <ele>272.214</ele>
        <time>2015-08-16T07:57:47Z</time>
      </trkpt>
      <trkpt lat="37.6444" lon="-8.35339">
        <ele>248.314</ele>
        <time>2015-08-16T07:58:34Z</time>
      </trkpt>
      <trkpt lat="37.64556" lon="-8.35327">
        <ele>245.737</ele>
        <time>2015-08-16T07:58:50Z</time>
      </trkpt>
      <trkpt lat="37.64597" lon="-8.35355">
        <ele>243.585</ele>
        <time>2015-08-16T07:58:57Z</time>
      </trkpt>
      <trkpt lat="37.64639" lon="-8.35449">
        <ele>247.769</ele>
        <time>2015-08-16T07:59:10Z</time>
      </trkpt>
      <trkpt lat="37.64669" lon="-8.35499">
        <ele>250.145</ele>
        <time>2015-08-16T07:59:33Z</time>
      </trkpt>
      <trkpt lat="37.64577" lon="-8.35536">
        <ele>247.347</ele>
        <time>2015-08-16T08:00:54Z</time>
      </trkpt>
      <trkpt lat="37.64477" lon="-8.35667">
        <ele>256.211</ele>
        <time>2015-08-16T08:01:23Z</time>
      </trkpt>
      <trkpt lat="37.64447" lon="-8.35743">
        <ele>262.308</ele>
        <time>2015-08-16T08:01:32Z</time>
      </trkpt>
      <trkpt lat="37.64398" lon="-8.35789">
        <ele>263.825</ele>
        <time>2015-08-16T08:01:39Z</time>
      </trkpt>
      <trkpt lat="37.64365" lon="-8.35815">
        <ele>266.074</ele>
        <time>2015-08-16T08:01:43Z</time>
      </trkpt>
      <trkpt lat="37.6433" lon="-8.35857">
        <ele>268.412</ele>
        <time>2015-08-16T08:01:51Z</time>
      </trkpt>
      <trkpt lat="37.6435" lon="-8.3595">
        <ele>274.211</ele>
        <time>2015-08-16T08:02:21Z</time>
      </trkpt>
      <trkpt lat="37.64428" lon="-8.36077">
        <ele>286.631</ele>
        <time>2015-08-16T08:02:38Z</time>
      </trkpt>
      <trkpt lat="37.64429" lon="-8.36124">
        <ele>290.474</ele>
        <time>2015-08-16T08:02:45Z</time>
      </trkpt>
      <trkpt lat="37.64382" lon="-8.36174">
        <ele>295.142</ele>
        <time>2015-08-16T08:02:53Z</time>
      </trkpt>
      <trkpt lat="37.64342" lon="-8.36202">
        <ele>293.796</ele>
        <time>2015-08-16T08:03:44Z</time>
      </trkpt>
      <trkpt lat="37.64382" lon="-8.36251">
        <ele>288.366</ele>
        <time>2015-08-16T08:04:04Z</time>
      </trkpt>
      <trkpt lat="37.64358" lon="-8.36378">
        <ele>267.129</ele>
        <time>2015-08-16T08:04:22Z</time>
      </trkpt>
      <trkpt lat="37.64328" lon="-8.36547">
        <ele>236.021</ele>
        <time>2015-08-16T08:04:45Z</time>
      </trkpt>
      <trkpt lat="37.6445" lon="-8.3659">
        <ele>212.708</ele>
        <time>2015-08-16T08:05:10Z</time>
      </trkpt>
      <trkpt lat="37.64414" lon="-8.36611">
        <ele>215.447</ele>
        <time>2015-08-16T08:06:07Z</time>
      </trkpt>
      <trkpt lat="37.64421" lon="-8.36674">
        <ele>220.436</ele>
        <time>2015-08-16T08:06:54Z</time>
      </trkpt>
      <trkpt lat="37.64417" lon="-8.36779">
        <ele>225.354</ele>
        <time>2015-08-16T08:07:09Z</time>
      </trkpt>
      <trkpt lat="37.64371" lon="-8.36906">
        <ele>230.873</ele>
        <time>2015-08-16T08:07:23Z</time>
      </trkpt>
      <trkpt lat="37.6424" lon="-8.37186">
        <ele>241.313</ele>
        <time>2015-08-16T08:07:49Z</time>
      </trkpt>
      <trkpt lat="37.64103" lon="-8.37363">
        <ele>250.986</ele>
        <time>2015-08-16T08:08:10Z</time>
      </trkpt>
      <trkpt lat="37.64047" lon="-8.3758">
        <ele>257.664</ele>
        <time>2015-08-16T08:08:29Z</time>
      </trkpt>
      <trkpt lat="37.64005" lon="-8.37697">
        <ele>263.088</ele>
        <time>2015-08-16T08:08:39Z</time>
      </trkpt>
      <trkpt lat="37.64001" lon="-8.37706">
        <ele>263.062</ele>
        <time>2015-08-16T08:08:40Z</time>
      </trkpt>
      <trkpt lat="37.64055" lon="-8.38032">
        <ele>275.883</ele>
        <time>2015-08-16T08:09:08Z</time>
      </trkpt>
      <trkpt lat="37.64066" lon="-8.38125">
        <ele>285.111</ele>
        <time>2015-08-16T08:09:21Z</time>
      </trkpt>
      <trkpt lat="37.64047" lon="-8.38249">
        <ele>287.308</ele>
        <time>2015-08-16T08:09:58Z</time>
      </trkpt>
      <trkpt lat="37.63989" lon="-8.38342">
        <ele>292.967</ele>
        <time>2015-08-16T08:10:08Z</time>
      </trkpt>
      <trkpt lat="37.63888" lon="-8.38436">
        <ele>300.436</ele>
        <time>2015-08-16T08:10:21Z</time>
      </trkpt>
      <trkpt lat="37.63761" lon="-8.38514">
        <ele>310.084</ele>
        <time>2015-08-16T08:10:36Z</time>
      </trkpt>
      <trkpt lat="37.63741" lon="-8.38522">
        <ele>308.473</ele>
        <time>2015-08-16T08:10:38Z</time>
      </trkpt>
      <trkpt lat="37.63705" lon="-8.38523">
        <ele>307.473</ele>
        <time>2015-08-16T08:11:23Z</time>
      </trkpt>
      <trkpt lat="37.63722" lon="-8.38577">
        <ele>303.646</ele>
        <time>2015-08-16T08:11:37Z</time>
      </trkpt>
      <trkpt lat="37.63741" lon="-8.3867">
        <ele>307.444</ele>
        <time>2015-08-16T08:11:50Z</time>
      </trkpt>
      <trkpt lat="37.63721" lon="-8.38703">
        <ele>300.018</ele>
        <time>2015-08-16T08:11:54Z</time>
      </trkpt>
      <trkpt lat="37.63705" lon="-8.38754">
        <ele>292.129</ele>
        <time>2015-08-16T08:12:00Z</time>
      </trkpt>
      <trkpt lat="37.63748" lon="-8.38754">
        <ele>296.8</ele>
        <time>2015-08-16T08:12:14Z</time>
      </trkpt>
      <trkpt lat="37.63765" lon="-8.38797">
        <ele>288.22</ele>
        <time>2015-08-16T08:12:26Z</time>
      </trkpt>
      <trkpt lat="37.63777" lon="-8.38878">
        <ele>276.408</ele>
        <time>2015-08-16T08:12:41Z</time>
      </trkpt>
      <trkpt lat="37.63754" lon="-8.38935">
        <ele>268.033</ele>
        <time>2015-08-16T08:12:51Z</time>
      </trkpt>
      <trkpt lat="37.63755" lon="-8.38939">
        <ele>267.772</ele>
        <time>2015-08-16T08:12:53Z</time>
      </trkpt>
      <trkpt lat="37.63846" lon="-8.38875">
        <ele>272.89</ele>
        <time>2015-08-16T08:13:26Z</time>
      </trkpt>
      <trkpt lat="37.63787" lon="-8.39065">
        <ele>249.329</ele>
        <time>2015-08-16T08:14:05Z</time>
      </trkpt>
      <trkpt lat="37.63796" lon="-8.39235">
        <ele>225.959</ele>
        <time>2015-08-16T08:16:57Z</time>
      </trkpt>
      <trkpt lat="37.6374" lon="-8.39234">
        <ele>227.212</ele>
        <time>2015-08-16T08:17:16Z</time>
      </trkpt>
      <trkpt lat="37.63674" lon="-8.39104">
        <ele>235.65</ele>
        <time>2015-08-16T08:17:26Z</time>
      </trkpt>
      <trkpt lat="37.63606" lon="-8.38962">
        <ele>237.844</ele>
        <time>2015-08-16T08:17:34Z</time>
      </trkpt>
      <trkpt lat="37.63573" lon="-8.38898">
        <ele>242.378</ele>
        <time>2015-08-16T08:17:38Z</time>
      </trkpt>
      <trkpt lat="37.63463" lon="-8.38829">
        <ele>244.033</ele>
        <time>2015-08-16T08:17:46Z</time>
      </trkpt>
      <trkpt lat="37.6344" lon="-8.38805">
        <ele>244.226</ele>
        <time>2015-08-16T08:17:48Z</time>
      </trkpt>
      <trkpt lat="37.63354" lon="-8.38588">
        <ele>263.408</ele>
        <time>2015-08-16T08:17:59Z</time>
      </trkpt>
      <trkpt lat="37.63303" lon="-8.38448">
        <ele>268.048</ele>
        <time>2015-08-16T08:18:06Z</time>
      </trkpt>
      <trkpt lat="37.63116" lon="-8.38246">
        <ele>295.327</ele>
        <time>2015-08-16T08:18:19Z</time>
      </trkpt>
      <trkpt lat="37.63047" lon="-8.38176">
        <ele>297.435</ele>
        <time>2015-08-16T08:18:24Z</time>
      </trkpt>
      <trkpt lat="37.62949" lon="-8.38132">
        <ele>306.464</ele>
        <time>2015-08-16T08:18:30Z</time>
      </trkpt>
      <trkpt lat="37.62884" lon="-8.38095">
        <ele>320.554</ele>
        <time>2015-08-16T08:18:35Z</time>
      </trkpt>
      <trkpt lat="37.62856" lon="-8.37942">
        <ele>330.077</ele>
        <time>2015-08-16T08:18:45Z</time>
      </trkpt>
      <trkpt lat="37.6285" lon="-8.37883">
        <ele>325.785</ele>
        <time>2015-08-16T08:18:53Z</time>
      </trkpt>
      <trkpt lat="37.62802" lon="-8.37977">
        <ele>333.419</ele>
        <time>2015-08-16T08:19:16Z</time>
      </trkpt>
      <trkpt lat="37.62763" lon="-8.3801">
        <ele>338.037</ele>
        <time>2015-08-16T08:19:22Z</time>
      </trkpt>
      <trkpt lat="37.62757" lon="-8.3804">
        <ele>338.949</ele>
        <time>2015-08-16T08:19:25Z</time>
      </trkpt>
      <trkpt lat="37.62778" lon="-8.38153">
        <ele>343.513</ele>
        <time>2015-08-16T08:19:38Z</time>
      </trkpt>
      <trkpt lat="37.62821" lon="-8.38333">
        <ele>348.908</ele>
        <time>2015-08-16T08:19:56Z</time>
      </trkpt>
      <trkpt lat="37.62924" lon="-8.38404">
        <ele>354.254</ele>
        <time>2015-08-16T08:20:21Z</time>
      </trkpt>
      <trkpt lat="37.62901" lon="-8.3856">
        <ele>356.413</ele>
        <time>2015-08-16T08:20:40Z</time>
      </trkpt>
      <trkpt lat="37.62925" lon="-8.38658">
        <ele>356.791</ele>
        <time>2015-08-16T08:20:52Z</time>
      </trkpt>
      <trkpt lat="37.62921" lon="-8.38732">
        <ele>358.76</ele>
        <time>2015-08-16T08:21:01Z</time>
      </trkpt>
      <trkpt lat="37.62803" lon="-8.38855">
        <ele>355.99</ele>
        <time>2015-08-16T08:21:23Z</time>
      </trkpt>
      <trkpt lat="37.62729" lon="-8.39046">
        <ele>367.373</ele>
        <time>2015-08-16T08:21:41Z</time>
      </trkpt>
      <trkpt lat="37.62652" lon="-8.39138">
        <ele>360.161</ele>
        <time>2015-08-16T08:22:14Z</time>
      </trkpt>
      <trkpt lat="37.62615" lon="-8.39218">
        <ele>352.725</ele>
        <time>2015-08-16T08:22:26Z</time>
      </trkpt>
      <trkpt lat="37.62627" lon="-8.39254">
        <ele>348.536</ele>
        <time>2015-08-16T08:22:33Z</time>
      </trkpt>
      <trkpt lat="37.62674" lon="-8.3926">
        <ele>348.117</ele>
        <time>2015-08-16T08:22:40Z</time>
      </trkpt>
      <trkpt lat="37.62689" lon="-8.39302">
        <ele>347.418</ele>
        <time>2015-08-16T08:22:48Z</time>
      </trkpt>
      <trkpt lat="37.62653" lon="-8.39351">
        <ele>348.808</ele>
        <time>2015-08-16T08:22:56Z</time>
      </trkpt>
      <trkpt lat="37.62609" lon="-8.39433">
        <ele>347.174</ele>
        <time>2015-08-16T08:23:06Z</time>
      </trkpt>
      <trkpt lat="37.62482" lon="-8.39494">
        <ele>330.583</ele>
        <time>2015-08-16T08:23:21Z</time>
      </trkpt>
      <trkpt lat="37.62463" lon="-8.39748">
        <ele>321.651</ele>
        <time>2015-08-16T08:23:46Z</time>
      </trkpt>
      <trkpt lat="37.62151" lon="-8.3987">
        <ele>300.35</ele>
        <time>2015-08-16T08:24:26Z</time>
      </trkpt>
      <trkpt lat="37.62085" lon="-8.39979">
        <ele>294.15</ele>
        <time>2015-08-16T08:24:38Z</time>
      </trkpt>
      <trkpt lat="37.62045" lon="-8.40174">
        <ele>278.343</ele>
        <time>2015-08-16T08:24:55Z</time>
      </trkpt>
      <trkpt lat="37.62059" lon="-8.40262">
        <ele>271.821</ele>
        <time>2015-08-16T08:25:03Z</time>
      </trkpt>
      <trkpt lat="37.62044" lon="-8.40325">
        <ele>261.915</ele>
        <time>2015-08-16T08:25:10Z</time>
      </trkpt>
      <trkpt lat="37.6194" lon="-8.40416">
        <ele>261.883</ele>
        <time>2015-08-16T08:25:26Z</time>
      </trkpt>
      <trkpt lat="37.61765" lon="-8.40567">
        <ele>250.825</ele>
        <time>2015-08-16T08:25:51Z</time>
      </trkpt>
      <trkpt lat="37.61719" lon="-8.4069">
        <ele>244.517</ele>
        <time>2015-08-16T08:26:03Z</time>
      </trkpt>
      <trkpt lat="37.61662" lon="-8.40714">
        <ele>240.208</ele>
        <time>2015-08-16T08:26:10Z</time>
      </trkpt>
      <trkpt lat="37.61563" lon="-8.4085">
        <ele>234.969</ele>
        <time>2015-08-16T08:26:25Z</time>
      </trkpt>
      <trkpt lat="37.61423" lon="-8.40936">
        <ele>222.888</ele>
        <time>2015-08-16T08:26:43Z</time>
      </trkpt>
      <trkpt lat="37.61419" lon="-8.41085">
        <ele>225.146</ele>
        <time>2015-08-16T08:26:59Z</time>
      </trkpt>
      <trkpt lat="37.61408" lon="-8.41351">
        <ele>218.075</ele>
        <time>2015-08-16T08:27:23Z</time>
      </trkpt>
      <trkpt lat="37.61431" lon="-8.41403">
        <ele>216.065</ele>
        <time>2015-08-16T08:27:29Z</time>
      </trkpt>
      <trkpt lat="37.61405" lon="-8.41457">
        <ele>215.498</ele>
        <time>2015-08-16T08:27:35Z</time>
      </trkpt>
      <trkpt lat="37.61286" lon="-8.41607">
        <ele>213.016</ele>
        <time>2015-08-16T08:28:02Z</time>
      </trkpt>
      <trkpt lat="37.61245" lon="-8.41622">
        <ele>216.69</ele>
        <time>2015-08-16T08:28:06Z</time>
      </trkpt>
      <trkpt lat="37.61096" lon="-8.41559">
        <ele>210.742</ele>
        <time>2015-08-16T08:28:21Z</time>
      </trkpt>
      <trkpt lat="37.61022" lon="-8.41504">
        <ele>210.822</ele>
        <time>2015-08-16T08:28:29Z</time>
      </trkpt>
      <trkpt lat="37.60773" lon="-8.41304">
        <ele>201.514</ele>
        <time>2015-08-16T08:28:52Z</time>
      </trkpt>
      <trkpt lat="37.60632" lon="-8.41362">
        <ele>195.408</ele>
        <time>2015-08-16T08:29:12Z</time>
      </trkpt>
      <trkpt lat="37.604" lon="-8.41196">
        <ele>189.425</ele>
        <time>2015-08-16T08:30:01Z</time>
      </trkpt>
      <trkpt lat="37.60302" lon="-8.41161">
        <ele>190.674</ele>
        <time>2015-08-16T08:30:22Z</time>
      </trkpt>
      <trkpt lat="37.60173" lon="-8.41027">
        <ele>190.982</ele>
        <time>2015-08-16T08:31:06Z</time>
      </trkpt>
      <trkpt lat="37.60102" lon="-8.40998">
        <ele>187.641</ele>
        <time>2015-08-16T08:31:18Z</time>
      </trkpt>
      <trkpt lat="37.59821" lon="-8.41103">
        <ele>185.241</ele>
        <time>2015-08-16T08:32:06Z</time>
      </trkpt>
      <trkpt lat="37.59704" lon="-8.41196">
        <ele>189.874</ele>
        <time>2015-08-16T08:32:29Z</time>
      </trkpt>
      <trkpt lat="37.59557" lon="-8.41275">
        <ele>175.382</ele>
        <time>2015-08-16T08:32:50Z</time>
      </trkpt>
      <trkpt lat="37.59394" lon="-8.41519">
        <ele>173.316</ele>
        <time>2015-08-16T08:33:22Z</time>
      </trkpt>
      <trkpt lat="37.59167" lon="-8.41635">
        <ele>168.918</ele>
        <time>2015-08-16T08:33:49Z</time>
      </trkpt>
      <trkpt lat="37.59056" lon="-8.41771">
        <ele>174.998</ele>
        <time>2015-08-16T08:34:08Z</time>
      </trkpt>
      <trkpt lat="37.59044" lon="-8.41783">
        <ele>173.717</ele>
        <time>2015-08-16T08:34:12Z</time>
      </trkpt>
      <trkpt lat="37.58919" lon="-8.42019">
        <ele>168.008</ele>
        <time>2015-08-16T08:34:46Z</time>
      </trkpt>
      <trkpt lat="37.58889" lon="-8.42176">
        <ele>177.722</ele>
        <time>2015-08-16T08:35:18Z</time>
      </trkpt>
      <trkpt lat="37.58938" lon="-8.42227">
        <ele>180.311</ele>
        <time>2015-08-16T08:35:35Z</time>
      </trkpt>
      <trkpt lat="37.58971" lon="-8.42361">
        <ele>169.659</ele>
        <time>2015-08-16T08:35:53Z</time>
      </trkpt>
      <trkpt lat="37.58981" lon="-8.42449">
        <ele>160.388</ele>
        <time>2015-08-16T08:36:09Z</time>
      </trkpt>
      <trkpt lat="37.59075" lon="-8.42554">
        <ele>155.358</ele>
        <time>2015-08-16T08:36:30Z</time>
      </trkpt>
      <trkpt lat="37.59107" lon="-8.42809">
        <ele>151.451</ele>
        <time>2015-08-16T08:37:02Z</time>
      </trkpt>
      <trkpt lat="37.59128" lon="-8.42876">
        <ele>153.679</ele>
        <time>2015-08-16T08:37:09Z</time>
      </trkpt>
      <trkpt lat="37.5914" lon="-8.42953">
        <ele>148.453</ele>
        <time>2015-08-16T08:37:19Z</time>
      </trkpt>
      <trkpt lat="37.59125" lon="-8.4304">
        <ele>149.072</ele>
        <time>2015-08-16T08:37:29Z</time>
      </trkpt>
      <trkpt lat="37.59056" lon="-8.43097">
        <ele>151.513</ele>
        <time>2015-08-16T08:37:39Z</time>
      </trkpt>
      <trkpt lat="37.58981" lon="-8.43186">
        <ele>147.214</ele>
        <time>2015-08-16T08:37:50Z</time>
      </trkpt>
      <trkpt lat="37.58988" lon="-8.43284">
        <ele>155.908</ele>
        <time>2015-08-16T08:38:00Z</time>
      </trkpt>
      <trkpt lat="37.5903" lon="-8.43405">
        <ele>154.118</ele>
        <time>2015-08-16T08:38:25Z</time>
      </trkpt>
      <trkpt lat="37.591" lon="-8.43437">
        <ele>158.087</ele>
        <time>2015-08-16T08:38:46Z</time>
      </trkpt>
      <trkpt lat="37.59138" lon="-8.43437">
        <ele>159.275</ele>
        <time>2015-08-16T08:38:51Z</time>
      </trkpt>
      <trkpt lat="37.59176" lon="-8.43392">
        <ele>167.814</ele>
        <time>2015-08-16T08:38:58Z</time>
      </trkpt>
      <trkpt lat="37.59192" lon="-8.4341">
        <ele>164.914</ele>
        <time>2015-08-16T08:39:05Z</time>
      </trkpt>
      <trkpt lat="37.59154" lon="-8.43613">
        <ele>178.627</ele>
        <time>2015-08-16T08:39:25Z</time>
      </trkpt>
      <trkpt lat="37.59257" lon="-8.43706">
        <ele>172.785</ele>
        <time>2015-08-16T08:39:42Z</time>
      </trkpt>
      <trkpt lat="37.5927" lon="-8.43779">
        <ele>158.969</ele>
        <time>2015-08-16T08:39:51Z</time>
      </trkpt>
      <trkpt lat="37.59235" lon="-8.4385">
        <ele>154.682</ele>
        <time>2015-08-16T08:39:59Z</time>
      </trkpt>
      <trkpt lat="37.59018" lon="-8.43927">
        <ele>153.443</ele>
        <time>2015-08-16T08:40:26Z</time>
      </trkpt>
      <trkpt lat="37.5896" lon="-8.43996">
        <ele>165.517</ele>
        <time>2015-08-16T08:40:36Z</time>
      </trkpt>
      <trkpt lat="37.58915" lon="-8.44008">
        <ele>167.908</ele>
        <time>2015-08-16T08:40:43Z</time>
      </trkpt>
      <trkpt lat="37.58783" lon="-8.4418">
        <ele>183.269</ele>
        <time>2015-08-16T08:41:09Z</time>
      </trkpt>
      <trkpt lat="37.58779" lon="-8.44188">
        <ele>184.138</ele>
        <time>2015-08-16T08:41:10Z</time>
      </trkpt>
      <trkpt lat="37.58722" lon="-8.44306">
        <ele>189.036</ele>
        <time>2015-08-16T08:41:28Z</time>
      </trkpt>
      <trkpt lat="37.58718" lon="-8.44326">
        <ele>187.965</ele>
        <time>2015-08-16T08:41:30Z</time>
      </trkpt>
      <trkpt lat="37.58713" lon="-8.44375">
        <ele>184.435</ele>
        <time>2015-08-16T08:41:36Z</time>
      </trkpt>
      <trkpt lat="37.58567" lon="-8.44566">
        <ele>166.328</ele>
        <time>2015-08-16T08:42:05Z</time>
      </trkpt>
      <trkpt lat="37.58442" lon="-8.44614">
        <ele>157.636</ele>
        <time>2015-08-16T08:42:19Z</time>
      </trkpt>
      <trkpt lat="37.58405" lon="-8.44631">
        <ele>154.14</ele>
        <time>2015-08-16T08:42:24Z</time>
      </trkpt>
      <trkpt lat="37.58349" lon="-8.44579">
        <ele>148.842</ele>
        <time>2015-08-16T08:42:33Z</time>
      </trkpt>
      <trkpt lat="37.58329" lon="-8.44561">
        <ele>147.722</ele>
        <time>2015-08-16T08:42:36Z</time>
      </trkpt>
      <trkpt lat="37.58316" lon="-8.44557">
        <ele>147.714</ele>
        <time>2015-08-16T08:42:38Z</time>
      </trkpt>
      <trkpt lat="37.58261" lon="-8.44606">
        <ele>146.508</ele>
        <time>2015-08-16T08:42:49Z</time>
      </trkpt>
      <trkpt lat="37.58182" lon="-8.44638">
        <ele>132.655</ele>
        <time>2015-08-16T08:43:06Z</time>
      </trkpt>
      <trkpt lat="37.58172" lon="-8.44686">
        <ele>126.394</ele>
        <time>2015-08-16T08:43:10Z</time>
      </trkpt>
      <trkpt lat="37.58172" lon="-8.4472">
        <ele>123.682</ele>
        <time>2015-08-16T08:43:12Z</time>
      </trkpt>
      <trkpt lat="37.58137" lon="-8.44789">
        <ele>126.291</ele>
        <time>2015-08-16T08:43:17Z</time>
      </trkpt>
      <trkpt lat="37.58068" lon="-8.44789">
        <ele>131.031</ele>
        <time>2015-08-16T08:43:22Z</time>
      </trkpt>
      <trkpt lat="37.57863" lon="-8.4481">
        <ele>134.194</ele>
        <time>2015-08-16T08:43:36Z</time>
      </trkpt>
      <trkpt lat="37.57563" lon="-8.44884">
        <ele>126.522</ele>
        <time>2015-08-16T08:43:52Z</time>
      </trkpt>
      <trkpt lat="37.57461" lon="-8.44908">
        <ele>120.116</ele>
        <time>2015-08-16T08:43:58Z</time>
      </trkpt>
      <trkpt lat="37.5741" lon="-8.44925">
        <ele>116.382</ele>
        <time>2015-08-16T08:44:01Z</time>
      </trkpt>
      <trkpt lat="37.56981" lon="-8.45127">
        <ele>107.743</ele>
        <time>2015-08-16T08:44:26Z</time>
      </trkpt>
      <trkpt lat="37.56848" lon="-8.45204">
        <ele>111.917</ele>
        <time>2015-08-16T08:44:34Z</time>
      </trkpt>
      <trkpt lat="37.56831" lon="-8.45394">
        <ele>120.908</ele>
        <time>2015-08-16T08:44:44Z</time>
      </trkpt>
      <trkpt lat="37.56803" lon="-8.45442">
        <ele>124.279</ele>
        <time>2015-08-16T08:44:47Z</time>
      </trkpt>
      <trkpt lat="37.56709" lon="-8.45483">
        <ele>132.498</ele>
        <time>2015-08-16T08:44:53Z</time>
      </trkpt>
      <trkpt lat="37.56477" lon="-8.45566">
        <ele>124.636</ele>
        <time>2015-08-16T08:45:07Z</time>
      </trkpt>
      <trkpt lat="37.56336" lon="-8.45611">
        <ele>114.175</ele>
        <time>2015-08-16T08:45:15Z</time>
      </trkpt>
      <trkpt lat="37.55918" lon="-8.45524">
        <ele>100.135</ele>
        <time>2015-08-16T08:45:37Z</time>
      </trkpt>
      <trkpt lat="37.55611" lon="-8.45277">
        <ele>107.058</ele>
        <time>2015-08-16T08:45:56Z</time>
      </trkpt>
      <trkpt lat="37.55435" lon="-8.4514">
        <ele>113.326</ele>
        <time>2015-08-16T08:46:11Z</time>
      </trkpt>
      <trkpt lat="37.55161" lon="-8.45565">
        <ele>127.88</ele>
        <time>2015-08-16T08:46:41Z</time>
      </trkpt>
      <trkpt lat="37.55112" lon="-8.45641">
        <ele>132.094</ele>
        <time>2015-08-16T08:46:45Z</time>
      </trkpt>
      <trkpt lat="37.55006" lon="-8.45715">
        <ele>136.257</ele>
        <time>2015-08-16T08:46:51Z</time>
      </trkpt>
      <trkpt lat="37.54298" lon="-8.46133">
        <ele>108.422</ele>
        <time>2015-08-16T08:47:25Z</time>
      </trkpt>
      <trkpt lat="37.53801" lon="-8.46427">
        <ele>127.308</ele>
        <time>2015-08-16T08:47:47Z</time>
      </trkpt>
      <trkpt lat="37.53734" lon="-8.46507">
        <ele>127.71</ele>
        <time>2015-08-16T08:47:52Z</time>
      </trkpt>
      <trkpt lat="37.53545" lon="-8.46897">
        <ele>111.089</ele>
        <time>2015-08-16T08:48:08Z</time>
      </trkpt>
      <trkpt lat="37.53524" lon="-8.46939">
        <ele>110.617</ele>
        <time>2015-08-16T08:48:10Z</time>
      </trkpt>
      <trkpt lat="37.53365" lon="-8.47064">
        <ele>107.496</ele>
        <time>2015-08-16T08:48:19Z</time>
      </trkpt>
      <trkpt lat="37.5328" lon="-8.47121">
        <ele>101.076</ele>
        <time>2015-08-16T08:48:23Z</time>
      </trkpt>
      <trkpt lat="37.53032" lon="-8.47171">
        <ele>92.089</ele>
        <time>2015-08-16T08:48:34Z</time>
      </trkpt>
      <trkpt lat="37.52937" lon="-8.47121">
        <ele>99.697</ele>
        <time>2015-08-16T08:48:39Z</time>
      </trkpt>
      <trkpt lat="37.52887" lon="-8.47095">
        <ele>92.671</ele>
        <time>2015-08-16T08:48:42Z</time>
      </trkpt>
      <trkpt lat="37.52711" lon="-8.47105">
        <ele>86.127</ele>
        <time>2015-08-16T08:48:51Z</time>
      </trkpt>
      <trkpt lat="37.52556" lon="-8.47169">
        <ele>85.568</ele>
        <time>2015-08-16T08:48:58Z</time>
      </trkpt>
      <trkpt lat="37.52415" lon="-8.47242">
        <ele>80.114</ele>
        <time>2015-08-16T08:49:04Z</time>
      </trkpt>
      <trkpt lat="37.52188" lon="-8.47354">
        <ele>67.008</ele>
        <time>2015-08-16T08:49:14Z</time>
      </trkpt>
      <trkpt lat="37.52117" lon="-8.4739">
        <ele>67.893</ele>
        <time>2015-08-16T08:49:18Z</time>
      </trkpt>
      <trkpt lat="37.52072" lon="-8.47411">
        <ele>65.452</ele>
        <time>2015-08-16T08:49:22Z</time>
      </trkpt>
      <trkpt lat="37.51634" lon="-8.47405">
        <ele>53.07</ele>
        <time>2015-08-16T08:49:57Z</time>
      </trkpt>
      <trkpt lat="37.51394" lon="-8.47536">
        <ele>53.189</ele>
        <time>2015-08-16T08:50:27Z</time>
      </trkpt>
      <trkpt lat="37.51366" lon="-8.47563">
        <ele>52.869</ele>
        <time>2015-08-16T08:50:33Z</time>
      </trkpt>
      <trkpt lat="37.51332" lon="-8.47584">
        <ele>51.942</ele>
        <time>2015-08-16T08:50:52Z</time>
      </trkpt>
      <trkpt lat="37.51335" lon="-8.47616">
        <ele>50.11</ele>
        <time>2015-08-16T08:51:22Z</time>
      </trkpt>
      <trkpt lat="37.51272" lon="-8.47604">
        <ele>49.624</ele>
        <time>2015-08-16T08:52:20Z</time>
      </trkpt>
      <trkpt lat="37.51265" lon="-8.47559">
        <ele>49.548</ele>
        <time>2015-08-16T08:52:53Z</time>
      </trkpt>
      <trkpt lat="37.51243" lon="-8.47563">
        <ele>48.761</ele>
        <time>2015-08-16T08:53:08Z</time>
      </trkpt>
      <trkpt lat="37.51149" lon="-8.47612">
        <ele>47.917</ele>
        <time>2015-08-16T08:54:26Z</time>
      </trkpt>
      <trkpt lat="37.51033" lon="-8.47539">
        <ele>48.608</ele>
        <time>2015-08-16T08:54:46Z</time>
      </trkpt>
      <trkpt lat="37.50947" lon="-8.47545">
        <ele>64.415</ele>
        <time>2015-08-16T08:55:07Z</time>
      </trkpt>
      <trkpt lat="37.50927" lon="-8.47415">
        <ele>61.594</ele>
        <time>2015-08-16T08:55:27Z</time>
      </trkpt>
      <trkpt lat="37.50862" lon="-8.47194">
        <ele>62.852</ele>
        <time>2015-08-16T08:55:41Z</time>
      </trkpt>
      <trkpt lat="37.50834" lon="-8.47042">
        <ele>69.921</ele>
        <time>2015-08-16T08:55:49Z</time>
      </trkpt>
      <trkpt lat="37.5088" lon="-8.46877">
        <ele>64.471</ele>
        <time>2015-08-16T08:55:58Z</time>
      </trkpt>
      <trkpt lat="37.50977" lon="-8.46573">
        <ele>63.454</ele>
        <time>2015-08-16T08:56:13Z</time>
      </trkpt>
      <trkpt lat="37.51018" lon="-8.46378">
        <ele>68.362</ele>
        <time>2015-08-16T08:56:22Z</time>
      </trkpt>
      <trkpt lat="37.51015" lon="-8.46374">
        <ele>68.776</ele>
        <time>2015-08-16T08:56:53Z</time>
      </trkpt>
      <trkpt lat="37.50968" lon="-8.4633">
        <ele>70.719</ele>
        <time>2015-08-16T08:57:07Z</time>
      </trkpt>
      <trkpt lat="37.5089" lon="-8.46209">
        <ele>80.009</ele>
        <time>2015-08-16T08:57:22Z</time>
      </trkpt>
      <trkpt lat="37.5084" lon="-8.46172">
        <ele>84.719</ele>
        <time>2015-08-16T08:57:29Z</time>
      </trkpt>
      <trkpt lat="37.50631" lon="-8.46214">
        <ele>113.608</ele>
        <time>2015-08-16T08:57:50Z</time>
      </trkpt>
      <trkpt lat="37.50531" lon="-8.46193">
        <ele>120.912</ele>
        <time>2015-08-16T08:58:00Z</time>
      </trkpt>
      <trkpt lat="37.50482" lon="-8.46276">
        <ele>135.241</ele>
        <time>2015-08-16T08:58:17Z</time>
      </trkpt>
      <trkpt lat="37.50444" lon="-8.46277">
        <ele>138.949</ele>
        <time>2015-08-16T08:58:22Z</time>
      </trkpt>
      <trkpt lat="37.50374" lon="-8.46278">
        <ele>143.548</ele>
        <time>2015-08-16T08:58:31Z</time>
      </trkpt>
      <trkpt lat="37.5036" lon="-8.46279">
        <ele>143.088</ele>
        <time>2015-08-16T08:58:34Z</time>
      </trkpt>
      <trkpt lat="37.50169" lon="-8.46329">
        <ele>135.011</ele>
        <time>2015-08-16T08:58:55Z</time>
      </trkpt>
      <trkpt lat="37.50097" lon="-8.46303">
        <ele>129.339</ele>
        <time>2015-08-16T08:59:02Z</time>
      </trkpt>
      <trkpt lat="37.49982" lon="-8.46282">
        <ele>120.223</ele>
        <time>2015-08-16T08:59:13Z</time>
      </trkpt>
      <trkpt lat="37.49873" lon="-8.46181">
        <ele>121.692</ele>
        <time>2015-08-16T08:59:26Z</time>
      </trkpt>
      <trkpt lat="37.49822" lon="-8.46177">
        <ele>119.173</ele>
        <time>2015-08-16T08:59:30Z</time>
      </trkpt>
      <trkpt lat="37.49715" lon="-8.46144">
        <ele>118.32</ele>
        <time>2015-08-16T08:59:48Z</time>
      </trkpt>
      <trkpt lat="37.4962" lon="-8.46201">
        <ele>122.608</ele>
        <time>2015-08-16T09:00:16Z</time>
      </trkpt>
      <trkpt lat="37.49576" lon="-8.46276">
        <ele>129.68</ele>
        <time>2015-08-16T09:00:24Z</time>
      </trkpt>
      <trkpt lat="37.49535" lon="-8.46355">
        <ele>124.029</ele>
        <time>2015-08-16T09:00:35Z</time>
      </trkpt>
      <trkpt lat="37.4947" lon="-8.46408">
        <ele>119.317</ele>
        <time>2015-08-16T09:00:45Z</time>
      </trkpt>
      <trkpt lat="37.493" lon="-8.46378">
        <ele>118.076</ele>
        <time>2015-08-16T09:01:03Z</time>
      </trkpt>
      <trkpt lat="37.4924" lon="-8.46438">
        <ele>114.956</ele>
        <time>2015-08-16T09:01:14Z</time>
      </trkpt>
      <trkpt lat="37.49219" lon="-8.46424">
        <ele>114.089</ele>
        <time>2015-08-16T09:01:43Z</time>
      </trkpt>
      <trkpt lat="37.49179" lon="-8.46485">
        <ele>111.447</ele>
        <time>2015-08-16T09:02:04Z</time>
      </trkpt>
      <trkpt lat="37.49145" lon="-8.46518">
        <ele>108.771</ele>
        <time>2015-08-16T09:02:11Z</time>
      </trkpt>
      <trkpt lat="37.48994" lon="-8.46593">
        <ele>105.673</ele>
        <time>2015-08-16T09:02:32Z</time>
      </trkpt>
      <trkpt lat="37.48859" lon="-8.46599">
        <ele>101.585</ele>
        <time>2015-08-16T09:02:48Z</time>
      </trkpt>
      <trkpt lat="37.48765" lon="-8.46566">
        <ele>96.513</ele>
        <time>2015-08-16T09:03:28Z</time>
      </trkpt>
      <trkpt lat="37.48706" lon="-8.46588">
        <ele>90.108</ele>
        <time>2015-08-16T09:03:38Z</time>
      </trkpt>
      <trkpt lat="37.48655" lon="-8.46638">
        <ele>86.728</ele>
        <time>2015-08-16T09:03:51Z</time>
      </trkpt>
      <trkpt lat="37.48603" lon="-8.46709">
        <ele>76.187</ele>
        <time>2015-08-16T09:04:02Z</time>
      </trkpt>
      <trkpt lat="37.48545" lon="-8.46763">
        <ele>65.115</ele>
        <time>2015-08-16T09:04:12Z</time>
      </trkpt>
      <trkpt lat="37.48531" lon="-8.46793">
        <ele>61.724</ele>
        <time>2015-08-16T09:04:24Z</time>
      </trkpt>
      <trkpt lat="37.48569" lon="-8.46833">
        <ele>61.054</ele>
        <time>2015-08-16T09:04:33Z</time>
      </trkpt>
      <trkpt lat="37.48771" lon="-8.46882">
        <ele>61.357</ele>
        <time>2015-08-16T09:04:54Z</time>
      </trkpt>
      <trkpt lat="37.48807" lon="-8.46937">
        <ele>59.255</ele>
        <time>2015-08-16T09:04:59Z</time>
      </trkpt>
      <trkpt lat="37.49" lon="-8.47085">
        <ele>58.879</ele>
        <time>2015-08-16T09:05:18Z</time>
      </trkpt>
      <trkpt lat="37.49029" lon="-8.47225">
        <ele>59.391</ele>
        <time>2015-08-16T09:05:28Z</time>
      </trkpt>
      <trkpt lat="37.4899" lon="-8.47324">
        <ele>55.881</ele>
        <time>2015-08-16T09:05:37Z</time>
      </trkpt>
      <trkpt lat="37.48982" lon="-8.47371">
        <ele>58.619</ele>
        <time>2015-08-16T09:05:42Z</time>
      </trkpt>
      <trkpt lat="37.49025" lon="-8.47456">
        <ele>57.908</ele>
        <time>2015-08-16T09:05:49Z</time>
      </trkpt>
      <trkpt lat="37.49056" lon="-8.47529">
        <ele>54.03</ele>
        <time>2015-08-16T09:05:54Z</time>
      </trkpt>
      <trkpt lat="37.491" lon="-8.47576">
        <ele>55.699</ele>
        <time>2015-08-16T09:06:00Z</time>
      </trkpt>
      <trkpt lat="37.49234" lon="-8.47574">
        <ele>57.997</ele>
        <time>2015-08-16T09:06:14Z</time>
      </trkpt>
      <trkpt lat="37.49245" lon="-8.47693">
        <ele>53.846</ele>
        <time>2015-08-16T09:06:25Z</time>
      </trkpt>
      <trkpt lat="37.49235" lon="-8.47798">
        <ele>57.116</ele>
        <time>2015-08-16T09:06:39Z</time>
      </trkpt>
      <trkpt lat="37.49162" lon="-8.47904">
        <ele>60.449</ele>
        <time>2015-08-16T09:07:14Z</time>
      </trkpt>
      <trkpt lat="37.4914" lon="-8.47977">
        <ele>61.897</ele>
        <time>2015-08-16T09:07:24Z</time>
      </trkpt>
      <trkpt lat="37.49216" lon="-8.47965">
        <ele>66.861</ele>
        <time>2015-08-16T09:07:36Z</time>
      </trkpt>
      <trkpt lat="37.49251" lon="-8.47969">
        <ele>63.523</ele>
        <time>2015-08-16T09:07:42Z</time>
      </trkpt>
      <trkpt lat="37.49326" lon="-8.48003">
        <ele>59.183</ele>
        <time>2015-08-16T09:07:53Z</time>
      </trkpt>
      <trkpt lat="37.494" lon="-8.47999">
        <ele>57.911</ele>
        <time>2015-08-16T09:08:02Z</time>
      </trkpt>
      <trkpt lat="37.49403" lon="-8.48003">
        <ele>58.008</ele>
        <time>2015-08-16T09:08:05Z</time>
      </trkpt>
      <trkpt lat="37.49345" lon="-8.48113">
        <ele>51.923</ele>
        <time>2015-08-16T09:08:41Z</time>
      </trkpt>
      <trkpt lat="37.49347" lon="-8.48386">
        <ele>57.182</ele>
        <time>2015-08-16T09:08:57Z</time>
      </trkpt>
      <trkpt lat="37.49086" lon="-8.48455">
        <ele>53.31</ele>
        <time>2015-08-16T09:09:17Z</time>
      </trkpt>
      <trkpt lat="37.48635" lon="-8.48588">
        <ele>54.259</ele>
        <time>2015-08-16T09:09:41Z</time>
      </trkpt>
      <trkpt lat="37.48533" lon="-8.48693">
        <ele>54.389</ele>
        <time>2015-08-16T09:09:49Z</time>
      </trkpt>
      <trkpt lat="37.48403" lon="-8.48842">
        <ele>54.162</ele>
        <time>2015-08-16T09:10:00Z</time>
      </trkpt>
      <trkpt lat="37.48312" lon="-8.48835">
        <ele>53.67</ele>
        <time>2015-08-16T09:10:08Z</time>
      </trkpt>
      <trkpt lat="37.48215" lon="-8.48863">
        <ele>56.054</ele>
        <time>2015-08-16T09:10:22Z</time>
      </trkpt>
      <trkpt lat="37.48267" lon="-8.48864">
        <ele>57.262</ele>
        <time>2015-08-16T09:10:37Z</time>
      </trkpt>
      <trkpt lat="37.48307" lon="-8.48852">
        <ele>54.583</ele>
        <time>2015-08-16T09:10:43Z</time>
      </trkpt>
      <trkpt lat="37.48313" lon="-8.48883">
        <ele>54.411</ele>
        <time>2015-08-16T09:10:49Z</time>
      </trkpt>
      <trkpt lat="37.48224" lon="-8.49163">
        <ele>53.508</ele>
        <time>2015-08-16T09:11:17Z</time>
      </trkpt>
      <trkpt lat="37.48192" lon="-8.49218">
        <ele>54.277</ele>
        <time>2015-08-16T09:11:23Z</time>
      </trkpt>
      <trkpt lat="37.48099" lon="-8.49298">
        <ele>56.546</ele>
        <time>2015-08-16T09:13:53Z</time>
      </trkpt>
      <trkpt lat="37.47905" lon="-8.49413">
        <ele>59.194</ele>
        <time>2015-08-16T09:14:29Z</time>
      </trkpt>
      <trkpt lat="37.47817" lon="-8.49545">
        <ele>57.823</ele>
        <time>2015-08-16T09:14:52Z</time>
      </trkpt>
      <trkpt lat="37.47763" lon="-8.49667">
        <ele>61.713</ele>
        <time>2015-08-16T09:15:39Z</time>
      </trkpt>
      <trkpt lat="37.47794" lon="-8.49769">
        <ele>62.726</ele>
        <time>2015-08-16T09:15:58Z</time>
      </trkpt>
      <trkpt lat="37.47702" lon="-8.49896">
        <ele>60.194</ele>
        <time>2015-08-16T09:16:27Z</time>
      </trkpt>
      <trkpt lat="37.47609" lon="-8.49981">
        <ele>63.028</ele>
        <time>2015-08-16T09:16:42Z</time>
      </trkpt>
      <trkpt lat="37.47565" lon="-8.50092">
        <ele>61.058</ele>
        <time>2015-08-16T09:16:53Z</time>
      </trkpt>
      <trkpt lat="37.47444" lon="-8.50206">
        <ele>62.452</ele>
        <time>2015-08-16T09:17:21Z</time>
      </trkpt>
      <trkpt lat="37.47324" lon="-8.50185">
        <ele>64.717</ele>
        <time>2015-08-16T09:18:05Z</time>
      </trkpt>
      <trkpt lat="37.47267" lon="-8.50216">
        <ele>69.608</ele>
        <time>2015-08-16T09:18:18Z</time>
      </trkpt>
      <trkpt lat="37.47205" lon="-8.50276">
        <ele>66.576</ele>
        <time>2015-08-16T09:18:28Z</time>
      </trkpt>
      <trkpt lat="37.47135" lon="-8.50338">
        <ele>65.775</ele>
        <time>2015-08-16T09:18:51Z</time>
      </trkpt>
      <trkpt lat="37.47035" lon="-8.50598">
        <ele>63.993</ele>
        <time>2015-08-16T09:19:29Z</time>
      </trkpt>
      <trkpt lat="37.46944" lon="-8.50655">
        <ele>66.312</ele>
        <time>2015-08-16T09:19:41Z</time>
      </trkpt>
      <trkpt lat="37.46885" lon="-8.50697">
        <ele>67.432</ele>
        <time>2015-08-16T09:19:50Z</time>
      </trkpt>
      <trkpt lat="37.46859" lon="-8.50765">
        <ele>66.945</ele>
        <time>2015-08-16T09:19:57Z</time>
      </trkpt>
      <trkpt lat="37.46801" lon="-8.50818">
        <ele>69.113</ele>
        <time>2015-08-16T09:20:06Z</time>
      </trkpt>
      <trkpt lat="37.4677" lon="-8.50816">
        <ele>69.677</ele>
        <time>2015-08-16T09:20:11Z</time>
      </trkpt>
      <trkpt lat="37.46665" lon="-8.50675">
        <ele>70.215</ele>
        <time>2015-08-16T09:20:44Z</time>
      </trkpt>
      <trkpt lat="37.46584" lon="-8.50669">
        <ele>73.465</ele>
        <time>2015-08-16T09:20:58Z</time>
      </trkpt>
      <trkpt lat="37.46388" lon="-8.50711">
        <ele>72.611</ele>
        <time>2015-08-16T09:21:33Z</time>
      </trkpt>
      <trkpt lat="37.46368" lon="-8.50722">
        <ele>73.008</ele>
        <time>2015-08-16T09:21:39Z</time>
      </trkpt>
      <trkpt lat="37.46211" lon="-8.50652">
        <ele>78.072</ele>
        <time>2015-08-16T09:22:17Z</time>
      </trkpt>
      <trkpt lat="37.46083" lon="-8.50577">
        <ele>76.321</ele>
        <time>2015-08-16T09:22:36Z</time>
      </trkpt>
      <trkpt lat="37.45974" lon="-8.50637">
        <ele>77.899</ele>
        <time>2015-08-16T09:22:51Z</time>
      </trkpt>
      <trkpt lat="37.45879" lon="-8.50549">
        <ele>75.148</ele>
        <time>2015-08-16T09:23:07Z</time>
      </trkpt>
      <trkpt lat="37.4572" lon="-8.50497">
        <ele>77.188</ele>
        <time>2015-08-16T09:23:27Z</time>
      </trkpt>
      <trkpt lat="37.45582" lon="-8.50556">
        <ele>77.061</ele>
        <time>2015-08-16T09:23:46Z</time>
      </trkpt>
      <trkpt lat="37.45479" lon="-8.5063">
        <ele>76.689</ele>
        <time>2015-08-16T09:23:59Z</time>
      </trkpt>
      <trkpt lat="37.45353" lon="-8.50609">
        <ele>78.613</ele>
        <time>2015-08-16T09:24:15Z</time>
      </trkpt>
      <trkpt lat="37.45248" lon="-8.50615">
        <ele>84.111</ele>
        <time>2015-08-16T09:24:29Z</time>
      </trkpt>
      <trkpt lat="37.44799" lon="-8.50679">
        <ele>87.121</ele>
        <time>2015-08-16T09:25:17Z</time>
      </trkpt>
      <trkpt lat="37.44693" lon="-8.5077">
        <ele>88.603</ele>
        <time>2015-08-16T09:25:39Z</time>
      </trkpt>
      <trkpt lat="37.44516" lon="-8.50715">
        <ele>83.708</ele>
        <time>2015-08-16T09:26:04Z</time>
      </trkpt>
      <trkpt lat="37.44496" lon="-8.50689">
        <ele>85.982</ele>
        <time>2015-08-16T09:26:15Z</time>
      </trkpt>
      <trkpt lat="37.44386" lon="-8.50856">
        <ele>99.431</ele>
        <time>2015-08-16T09:26:47Z</time>
      </trkpt>
      <trkpt lat="37.44289" lon="-8.51081">
        <ele>103.769</ele>
        <time>2015-08-16T09:27:00Z</time>
      </trkpt>
      <trkpt lat="37.44299" lon="-8.51317">
        <ele>109.788</ele>
        <time>2015-08-16T09:27:12Z</time>
      </trkpt>
      <trkpt lat="37.4429" lon="-8.51378">
        <ele>110.348</ele>
        <time>2015-08-16T09:27:15Z</time>
      </trkpt>
      <trkpt lat="37.44228" lon="-8.5143">
        <ele>110.711</ele>
        <time>2015-08-16T09:27:20Z</time>
      </trkpt>
      <trkpt lat="37.44169" lon="-8.51477">
        <ele>109.279</ele>
        <time>2015-08-16T09:27:25Z</time>
      </trkpt>
      <trkpt lat="37.44134" lon="-8.51658">
        <ele>111.263</ele>
        <time>2015-08-16T09:27:35Z</time>
      </trkpt>
      <trkpt lat="37.44122" lon="-8.51733">
        <ele>112.772</ele>
        <time>2015-08-16T09:27:39Z</time>
      </trkpt>
      <trkpt lat="37.44064" lon="-8.51799">
        <ele>116.313</ele>
        <time>2015-08-16T09:27:44Z</time>
      </trkpt>
      <trkpt lat="37.43888" lon="-8.51787">
        <ele>117.314</ele>
        <time>2015-08-16T09:27:55Z</time>
      </trkpt>
      <trkpt lat="37.43833" lon="-8.51825">
        <ele>118.708</ele>
        <time>2015-08-16T09:27:59Z</time>
      </trkpt>
      <trkpt lat="37.43791" lon="-8.51865">
        <ele>122.028</ele>
        <time>2015-08-16T09:28:02Z</time>
      </trkpt>
      <trkpt lat="37.43679" lon="-8.51943">
        <ele>123.937</ele>
        <time>2015-08-16T09:28:09Z</time>
      </trkpt>
      <trkpt lat="37.43542" lon="-8.51955">
        <ele>124.435</ele>
        <time>2015-08-16T09:28:17Z</time>
      </trkpt>
      <trkpt lat="37.43429" lon="-8.5205">
        <ele>131.744</ele>
        <time>2015-08-16T09:28:25Z</time>
      </trkpt>
      <trkpt lat="37.43229" lon="-8.52252">
        <ele>137.464</ele>
        <time>2015-08-16T09:28:41Z</time>
      </trkpt>
      <trkpt lat="37.43163" lon="-8.52282">
        <ele>138.357</ele>
        <time>2015-08-16T09:28:45Z</time>
      </trkpt>
      <trkpt lat="37.43074" lon="-8.52356">
        <ele>143.655</ele>
        <time>2015-08-16T09:28:51Z</time>
      </trkpt>
      <trkpt lat="37.43032" lon="-8.52417">
        <ele>145.419</ele>
        <time>2015-08-16T09:28:55Z</time>
      </trkpt>
      <trkpt lat="37.43117" lon="-8.52729">
        <ele>166.128</ele>
        <time>2015-08-16T09:29:10Z</time>
      </trkpt>
      <trkpt lat="37.43175" lon="-8.52794">
        <ele>162.189</ele>
        <time>2015-08-16T09:29:14Z</time>
      </trkpt>
      <trkpt lat="37.43258" lon="-8.52867">
        <ele>150.017</ele>
        <time>2015-08-16T09:29:19Z</time>
      </trkpt>
      <trkpt lat="37.43293" lon="-8.52937">
        <ele>141.108</ele>
        <time>2015-08-16T09:29:23Z</time>
      </trkpt>
      <trkpt lat="37.43285" lon="-8.53014">
        <ele>140.863</ele>
        <time>2015-08-16T09:29:27Z</time>
      </trkpt>
      <trkpt lat="37.43236" lon="-8.53062">
        <ele>149.242</ele>
        <time>2015-08-16T09:29:31Z</time>
      </trkpt>
      <trkpt lat="37.43092" lon="-8.5311">
        <ele>153.29</ele>
        <time>2015-08-16T09:29:39Z</time>
      </trkpt>
      <trkpt lat="37.42958" lon="-8.53159">
        <ele>152.099</ele>
        <time>2015-08-16T09:29:46Z</time>
      </trkpt>
      <trkpt lat="37.42645" lon="-8.5328">
        <ele>161.019</ele>
        <time>2015-08-16T09:30:02Z</time>
      </trkpt>
      <trkpt lat="37.42568" lon="-8.53353">
        <ele>158.862</ele>
        <time>2015-08-16T09:30:07Z</time>
      </trkpt>
      <trkpt lat="37.42516" lon="-8.53462">
        <ele>164.31</ele>
        <time>2015-08-16T09:30:12Z</time>
      </trkpt>
      <trkpt lat="37.42426" lon="-8.53714">
        <ele>167.574</ele>
        <time>2015-08-16T09:30:23Z</time>
      </trkpt>
      <trkpt lat="37.42277" lon="-8.53871">
        <ele>170.784</ele>
        <time>2015-08-16T09:30:33Z</time>
      </trkpt>
      <trkpt lat="37.4206" lon="-8.54162">
        <ele>186.807</ele>
        <time>2015-08-16T09:30:49Z</time>
      </trkpt>
      <trkpt lat="37.42008" lon="-8.54342">
        <ele>195.117</ele>
        <time>2015-08-16T09:30:58Z</time>
      </trkpt>
      <trkpt lat="37.41967" lon="-8.54535">
        <ele>175.308</ele>
        <time>2015-08-16T09:31:07Z</time>
      </trkpt>
      <trkpt lat="37.4203" lon="-8.54649">
        <ele>174.179</ele>
        <time>2015-08-16T09:31:14Z</time>
      </trkpt>
      <trkpt lat="37.42074" lon="-8.54693">
        <ele>172.238</ele>
        <time>2015-08-16T09:31:17Z</time>
      </trkpt>
      <trkpt lat="37.42103" lon="-8.54749">
        <ele>164.226</ele>
        <time>2015-08-16T09:31:20Z</time>
      </trkpt>
      <trkpt lat="37.4209" lon="-8.55045">
        <ele>143.825</ele>
        <time>2015-08-16T09:31:34Z</time>
      </trkpt>
      <trkpt lat="37.42144" lon="-8.55104">
        <ele>146.145</ele>
        <time>2015-08-16T09:31:38Z</time>
      </trkpt>
      <trkpt lat="37.42253" lon="-8.55208">
        <ele>141.778</ele>
        <time>2015-08-16T09:31:45Z</time>
      </trkpt>
      <trkpt lat="37.42305" lon="-8.55256">
        <ele>143.526</ele>
        <time>2015-08-16T09:31:50Z</time>
      </trkpt>
      <trkpt lat="37.42318" lon="-8.55273">
        <ele>142.26</ele>
        <time>2015-08-16T09:31:53Z</time>
      </trkpt>
      <trkpt lat="37.42312" lon="-8.5534">
        <ele>136.889</ele>
        <time>2015-08-16T09:32:08Z</time>
      </trkpt>
      <trkpt lat="37.42271" lon="-8.55355">
        <ele>135.506</ele>
        <time>2015-08-16T09:32:16Z</time>
      </trkpt>
      <trkpt lat="37.42266" lon="-8.55533">
        <ele>139.626</ele>
        <time>2015-08-16T09:32:35Z</time>
      </trkpt>
      <trkpt lat="37.42266" lon="-8.55574">
        <ele>142.508</ele>
        <time>2015-08-16T09:32:39Z</time>
      </trkpt>
      <trkpt lat="37.42216" lon="-8.55533">
        <ele>142.999</ele>
        <time>2015-08-16T09:32:55Z</time>
      </trkpt>
      <trkpt lat="37.42212" lon="-8.55541">
        <ele>144.078</ele>
        <time>2015-08-16T09:32:57Z</time>
      </trkpt>
      <trkpt lat="37.42221" lon="-8.5565">
        <ele>154.686</ele>
        <time>2015-08-16T09:33:17Z</time>
      </trkpt>
      <trkpt lat="37.42244" lon="-8.55679">
        <ele>154.785</ele>
        <time>2015-08-16T09:33:23Z</time>
      </trkpt>
      <trkpt lat="37.42242" lon="-8.55843">
        <ele>168.335</ele>
        <time>2015-08-16T09:33:40Z</time>
      </trkpt>
      <trkpt lat="37.42239" lon="-8.55863">
        <ele>170.268</ele>
        <time>2015-08-16T09:33:42Z</time>
      </trkpt>
      <trkpt lat="37.42141" lon="-8.5596">
        <ele>189.886</ele>
        <time>2015-08-16T09:34:01Z</time>
      </trkpt>
      <trkpt lat="37.42139" lon="-8.56048">
        <ele>199.31</ele>
        <time>2015-08-16T09:34:13Z</time>
      </trkpt>
      <trkpt lat="37.42121" lon="-8.56155">
        <ele>203.373</ele>
        <time>2015-08-16T09:34:27Z</time>
      </trkpt>
      <trkpt lat="37.42074" lon="-8.56142">
        <ele>198.585</ele>
        <time>2015-08-16T09:34:36Z</time>
      </trkpt>
      <trkpt lat="37.41973" lon="-8.56238">
        <ele>204.613</ele>
        <time>2015-08-16T09:34:55Z</time>
      </trkpt>
      <trkpt lat="37.41958" lon="-8.56314">
        <ele>214.208</ele>
        <time>2015-08-16T09:35:04Z</time>
      </trkpt>
      <trkpt lat="37.41768" lon="-8.5619">
        <ele>243.198</ele>
        <time>2015-08-16T09:37:27Z</time>
      </trkpt>
      <trkpt lat="37.41723" lon="-8.56225">
        <ele>248.247</ele>
        <time>2015-08-16T09:37:38Z</time>
      </trkpt>
      <trkpt lat="37.4177" lon="-8.5641">
        <ele>247.545</ele>
        <time>2015-08-16T09:38:07Z</time>
      </trkpt>
      <trkpt lat="37.41747" lon="-8.56453">
        <ele>244.844</ele>
        <time>2015-08-16T09:38:17Z</time>
      </trkpt>
      <trkpt lat="37.41607" lon="-8.56415">
        <ele>263.354</ele>
        <time>2015-08-16T09:38:38Z</time>
      </trkpt>
      <trkpt lat="37.41522" lon="-8.56452">
        <ele>255.417</ele>
        <time>2015-08-16T09:38:55Z</time>
      </trkpt>
      <trkpt lat="37.41489" lon="-8.5656">
        <ele>264.645</ele>
        <time>2015-08-16T09:39:05Z</time>
      </trkpt>
      <trkpt lat="37.41378" lon="-8.56584">
        <ele>289.289</ele>
        <time>2015-08-16T09:39:44Z</time>
      </trkpt>
      <trkpt lat="37.41356" lon="-8.56587">
        <ele>294.725</ele>
        <time>2015-08-16T09:39:48Z</time>
      </trkpt>
      <trkpt lat="37.41343" lon="-8.56533">
        <ele>290.726</ele>
        <time>2015-08-16T09:39:58Z</time>
      </trkpt>
      <trkpt lat="37.41243" lon="-8.56465">
        <ele>302.208</ele>
        <time>2015-08-16T09:40:19Z</time>
      </trkpt>
      <trkpt lat="37.41167" lon="-8.56442">
        <ele>317.308</ele>
        <time>2015-08-16T09:40:32Z</time>
      </trkpt>
      <trkpt lat="37.41139" lon="-8.56401">
        <ele>322.693</ele>
        <time>2015-08-16T09:40:40Z</time>
      </trkpt>
      <trkpt lat="37.41143" lon="-8.56314">
        <ele>315.322</ele>
        <time>2015-08-16T09:40:51Z</time>
      </trkpt>
      <trkpt lat="37.4111" lon="-8.56278">
        <ele>319.32</ele>
        <time>2015-08-16T09:40:58Z</time>
      </trkpt>
      <trkpt lat="37.41014" lon="-8.56171">
        <ele>328.769</ele>
        <time>2015-08-16T09:41:18Z</time>
      </trkpt>
      <trkpt lat="37.40892" lon="-8.56154">
        <ele>356.999</ele>
        <time>2015-08-16T09:41:41Z</time>
      </trkpt>
      <trkpt lat="37.40841" lon="-8.56009">
        <ele>365.282</ele>
        <time>2015-08-16T09:42:03Z</time>
      </trkpt>
      <trkpt lat="37.40806" lon="-8.55966">
        <ele>370.89</ele>
        <time>2015-08-16T09:42:16Z</time>
      </trkpt>
      <trkpt lat="37.40782" lon="-8.55833">
        <ele>356.924</ele>
        <time>2015-08-16T09:42:34Z</time>
      </trkpt>
      <trkpt lat="37.40676" lon="-8.55773">
        <ele>366.168</ele>
        <time>2015-08-16T09:42:50Z</time>
      </trkpt>
      <trkpt lat="37.40592" lon="-8.55658">
        <ele>359.242</ele>
        <time>2015-08-16T09:43:06Z</time>
      </trkpt>
      <trkpt lat="37.4055" lon="-8.55562">
        <ele>352.926</ele>
        <time>2015-08-16T09:43:17Z</time>
      </trkpt>
      <trkpt lat="37.40458" lon="-8.55535">
        <ele>363.908</ele>
        <time>2015-08-16T09:43:30Z</time>
      </trkpt>
      <trkpt lat="37.40428" lon="-8.55502">
        <ele>366.187</ele>
        <time>2015-08-16T09:43:35Z</time>
      </trkpt>
      <trkpt lat="37.4039" lon="-8.55413">
        <ele>360.116</ele>
        <time>2015-08-16T09:43:44Z</time>
      </trkpt>
      <trkpt lat="37.40297" lon="-8.55329">
        <ele>368.744</ele>
        <time>2015-08-16T09:43:58Z</time>
      </trkpt>
      <trkpt lat="37.40283" lon="-8.55319">
        <ele>369.433</ele>
        <time>2015-08-16T09:44:00Z</time>
      </trkpt>
      <trkpt lat="37.40114" lon="-8.54942">
        <ele>377.633</ele>
        <time>2015-08-16T09:44:40Z</time>
      </trkpt>
      <trkpt lat="37.39919" lon="-8.5487">
        <ele>405.836</ele>
        <time>2015-08-16T09:45:05Z</time>
      </trkpt>
      <trkpt lat="37.39831" lon="-8.54595">
        <ele>419.894</ele>
        <time>2015-08-16T09:45:30Z</time>
      </trkpt>
      <trkpt lat="37.39714" lon="-8.54527">
        <ele>426.428</ele>
        <time>2015-08-16T09:45:51Z</time>
      </trkpt>
      <trkpt lat="37.39614" lon="-8.54488">
        <ele>413.812</ele>
        <time>2015-08-16T09:46:06Z</time>
      </trkpt>
      <trkpt lat="37.39547" lon="-8.54412">
        <ele>412.332</ele>
        <time>2015-08-16T09:46:18Z</time>
      </trkpt>
      <trkpt lat="37.39528" lon="-8.54334">
        <ele>413.005</ele>
        <time>2015-08-16T09:46:33Z</time>
      </trkpt>
      <trkpt lat="37.39462" lon="-8.54293">
        <ele>418.308</ele>
        <time>2015-08-16T09:46:46Z</time>
      </trkpt>
      <trkpt lat="37.39441" lon="-8.54247">
        <ele>423.282</ele>
        <time>2015-08-16T09:46:53Z</time>
      </trkpt>
      <trkpt lat="37.39354" lon="-8.5404">
        <ele>442.921</ele>
        <time>2015-08-16T09:47:25Z</time>
      </trkpt>
      <trkpt lat="37.39209" lon="-8.53964">
        <ele>456.929</ele>
        <time>2015-08-16T09:47:51Z</time>
      </trkpt>
      <trkpt lat="37.39203" lon="-8.5396">
        <ele>457.358</ele>
        <time>2015-08-16T09:47:52Z</time>
      </trkpt>
      <trkpt lat="37.39152" lon="-8.53853">
        <ele>459.918</ele>
        <time>2015-08-16T09:48:03Z</time>
      </trkpt>
      <trkpt lat="37.38949" lon="-8.53717">
        <ele>477.321</ele>
        <time>2015-08-16T09:48:30Z</time>
      </trkpt>
      <trkpt lat="37.38888" lon="-8.53654">
        <ele>465.629</ele>
        <time>2015-08-16T09:48:42Z</time>
      </trkpt>
      <trkpt lat="37.38857" lon="-8.5353">
        <ele>458.133</ele>
        <time>2015-08-16T09:49:01Z</time>
      </trkpt>
      <trkpt lat="37.38909" lon="-8.53465">
        <ele>452.524</ele>
        <time>2015-08-16T09:49:16Z</time>
      </trkpt>
      <trkpt lat="37.38908" lon="-8.53366">
        <ele>441.004</ele>
        <time>2015-08-16T09:49:29Z</time>
      </trkpt>
      <trkpt lat="37.38925" lon="-8.53319">
        <ele>440.814</ele>
        <time>2015-08-16T09:49:35Z</time>
      </trkpt>
      <trkpt lat="37.38774" lon="-8.53215">
        <ele>455.608</ele>
        <time>2015-08-16T09:50:03Z</time>
      </trkpt>
      <trkpt lat="37.38623" lon="-8.53077">
        <ele>452.793</ele>
        <time>2015-08-16T09:50:27Z</time>
      </trkpt>
      <trkpt lat="37.38584" lon="-8.52998">
        <ele>447.092</ele>
        <time>2015-08-16T09:50:39Z</time>
      </trkpt>
      <trkpt lat="37.38607" lon="-8.5284">
        <ele>434.96</ele>
        <time>2015-08-16T09:50:57Z</time>
      </trkpt>
      <trkpt lat="37.38599" lon="-8.5282">
        <ele>435.529</ele>
        <time>2015-08-16T09:51:05Z</time>
      </trkpt>
      <trkpt lat="37.38587" lon="-8.5273">
        <ele>441.449</ele>
        <time>2015-08-16T09:52:27Z</time>
      </trkpt>
      <trkpt lat="37.38612" lon="-8.52675">
        <ele>439.072</ele>
        <time>2015-08-16T09:52:34Z</time>
      </trkpt>
      <trkpt lat="37.3858" lon="-8.52516">
        <ele>442.19</ele>
        <time>2015-08-16T09:52:55Z</time>
      </trkpt>
      <trkpt lat="37.38478" lon="-8.52299">
        <ele>440.284</ele>
        <time>2015-08-16T09:53:20Z</time>
      </trkpt>
      <trkpt lat="37.38504" lon="-8.52091">
        <ele>431.173</ele>
        <time>2015-08-16T09:53:41Z</time>
      </trkpt>
      <trkpt lat="37.38435" lon="-8.52057">
        <ele>440.485</ele>
        <time>2015-08-16T09:53:48Z</time>
      </trkpt>
      <trkpt lat="37.38353" lon="-8.52008">
        <ele>436.913</ele>
        <time>2015-08-16T09:53:59Z</time>
      </trkpt>
      <trkpt lat="37.38289" lon="-8.51919">
        <ele>434.008</ele>
        <time>2015-08-16T09:54:11Z</time>
      </trkpt>
      <trkpt lat="37.38277" lon="-8.51732">
        <ele>425.318</ele>
        <time>2015-08-16T09:54:29Z</time>
      </trkpt>
      <trkpt lat="37.38291" lon="-8.51643">
        <ele>418.427</ele>
        <time>2015-08-16T09:54:37Z</time>
      </trkpt>
      <trkpt lat="37.38232" lon="-8.51527">
        <ele>414.445</ele>
        <time>2015-08-16T09:54:50Z</time>
      </trkpt>
      <trkpt lat="37.38142" lon="-8.51551">
        <ele>422.624</ele>
        <time>2015-08-16T09:55:03Z</time>
      </trkpt>
      <trkpt lat="37.38108" lon="-8.51534">
        <ele>418.974</ele>
        <time>2015-08-16T09:55:09Z</time>
      </trkpt>
      <trkpt lat="37.38066" lon="-8.51456">
        <ele>413.457</ele>
        <time>2015-08-16T09:55:17Z</time>
      </trkpt>
      <trkpt lat="37.38114" lon="-8.51279">
        <ele>397.655</ele>
        <time>2015-08-16T09:55:34Z</time>
      </trkpt>
      <trkpt lat="37.38092" lon="-8.51181">
        <ele>396.199</ele>
        <time>2015-08-16T09:55:45Z</time>
      </trkpt>
      <trkpt lat="37.38125" lon="-8.51137">
        <ele>383.964</ele>
        <time>2015-08-16T09:55:52Z</time>
      </trkpt>
      <trkpt lat="37.3814" lon="-8.51126">
        <ele>380.706</ele>
        <time>2015-08-16T09:55:56Z</time>
      </trkpt>
      <trkpt lat="37.38139" lon="-8.51125">
        <ele>381.116</ele>
        <time>2015-08-16T09:56:38Z</time>
      </trkpt>
      <trkpt lat="37.38138" lon="-8.51123">
        <ele>381.408</ele>
        <time>2015-08-16T09:56:41Z</time>
      </trkpt>
      <trkpt lat="37.38133" lon="-8.51122">
        <ele>382.357</ele>
        <time>2015-08-16T09:56:43Z</time>
      </trkpt>
      <trkpt lat="37.38114" lon="-8.51123">
        <ele>386.346</ele>
        <time>2015-08-16T09:56:47Z</time>
      </trkpt>
      <trkpt lat="37.38099" lon="-8.51116">
        <ele>391.164</ele>
        <time>2015-08-16T09:56:49Z</time>
      </trkpt>
      <trkpt lat="37.38077" lon="-8.51074">
        <ele>395.893</ele>
        <time>2015-08-16T09:56:53Z</time>
      </trkpt>
      <trkpt lat="37.38032" lon="-8.50989">
        <ele>393.423</ele>
        <time>2015-08-16T09:57:00Z</time>
      </trkpt>
      <trkpt lat="37.37967" lon="-8.51015">
        <ele>396.266</ele>
        <time>2015-08-16T09:57:07Z</time>
      </trkpt>
      <trkpt lat="37.37876" lon="-8.51179">
        <ele>417.924</ele>
        <time>2015-08-16T09:57:18Z</time>
      </trkpt>
      <trkpt lat="37.3783" lon="-8.51192">
        <ele>429.688</ele>
        <time>2015-08-16T09:57:22Z</time>
      </trkpt>
      <trkpt lat="37.37816" lon="-8.51156">
        <ele>429.463</ele>
        <time>2015-08-16T09:57:25Z</time>
      </trkpt>
      <trkpt lat="37.37784" lon="-8.5108">
        <ele>419.344</ele>
        <time>2015-08-16T09:57:30Z</time>
      </trkpt>
      <trkpt lat="37.37695" lon="-8.51089">
        <ele>421.018</ele>
        <time>2015-08-16T09:57:37Z</time>
      </trkpt>
      <trkpt lat="37.37629" lon="-8.51172">
        <ele>411.308</ele>
        <time>2015-08-16T09:57:44Z</time>
      </trkpt>
      <trkpt lat="37.37691" lon="-8.51332">
        <ele>422.257</ele>
        <time>2015-08-16T09:57:54Z</time>
      </trkpt>
      <trkpt lat="37.37674" lon="-8.51422">
        <ele>423.986</ele>
        <time>2015-08-16T09:57:59Z</time>
      </trkpt>
      <trkpt lat="37.37621" lon="-8.51486">
        <ele>411.644</ele>
        <time>2015-08-16T09:58:04Z</time>
      </trkpt>
      <trkpt lat="37.37647" lon="-8.51593">
        <ele>415.943</ele>
        <time>2015-08-16T09:58:12Z</time>
      </trkpt>
      <trkpt lat="37.3753" lon="-8.51729">
        <ele>411.163</ele>
        <time>2015-08-16T09:58:23Z</time>
      </trkpt>
      <trkpt lat="37.37478" lon="-8.51922">
        <ele>411.056</ele>
        <time>2015-08-16T09:58:33Z</time>
      </trkpt>
      <trkpt lat="37.37471" lon="-8.52004">
        <ele>411.054</ele>
        <time>2015-08-16T09:58:37Z</time>
      </trkpt>
      <trkpt lat="37.37431" lon="-8.52062">
        <ele>410.668</ele>
        <time>2015-08-16T09:58:41Z</time>
      </trkpt>
      <trkpt lat="37.37397" lon="-8.52145">
        <ele>407.582</ele>
        <time>2015-08-16T09:58:46Z</time>
      </trkpt>
      <trkpt lat="37.37381" lon="-8.52172">
        <ele>406.943</ele>
        <time>2015-08-16T09:58:48Z</time>
      </trkpt>
      <trkpt lat="37.37273" lon="-8.52209">
        <ele>405.817</ele>
        <time>2015-08-16T09:58:57Z</time>
      </trkpt>
      <trkpt lat="37.3724" lon="-8.52222">
        <ele>407.208</ele>
        <time>2015-08-16T09:59:00Z</time>
      </trkpt>
      <trkpt lat="37.37185" lon="-8.51987">
        <ele>405.319</ele>
        <time>2015-08-16T09:59:15Z</time>
      </trkpt>
      <trkpt lat="37.37116" lon="-8.51967">
        <ele>416.278</ele>
        <time>2015-08-16T09:59:21Z</time>
      </trkpt>
      <trkpt lat="37.37066" lon="-8.51935">
        <ele>409.336</ele>
        <time>2015-08-16T09:59:25Z</time>
      </trkpt>
      <trkpt lat="37.36979" lon="-8.51905">
        <ele>411.935</ele>
        <time>2015-08-16T09:59:32Z</time>
      </trkpt>
      <trkpt lat="37.36873" lon="-8.51912">
        <ele>412.895</ele>
        <time>2015-08-16T09:59:40Z</time>
      </trkpt>
      <trkpt lat="37.3681" lon="-8.51985">
        <ele>426.418</ele>
        <time>2015-08-16T09:59:47Z</time>
      </trkpt>
      <trkpt lat="37.36777" lon="-8.52004">
        <ele>426.846</ele>
        <time>2015-08-16T09:59:50Z</time>
      </trkpt>
      <trkpt lat="37.36742" lon="-8.52089">
        <ele>432.58</ele>
        <time>2015-08-16T09:59:56Z</time>
      </trkpt>
      <trkpt lat="37.36677" lon="-8.52135">
        <ele>431.585</ele>
        <time>2015-08-16T10:00:01Z</time>
      </trkpt>
      <trkpt lat="37.36609" lon="-8.52154">
        <ele>422.989</ele>
        <time>2015-08-16T10:00:05Z</time>
      </trkpt>
      <trkpt lat="37.36527" lon="-8.52191">
        <ele>425.717</ele>
        <time>2015-08-16T10:00:11Z</time>
      </trkpt>
      <trkpt lat="37.36512" lon="-8.52262">
        <ele>423.508</ele>
        <time>2015-08-16T10:00:16Z</time>
      </trkpt>
      <trkpt lat="37.36429" lon="-8.52347">
        <ele>429.189</ele>
        <time>2015-08-16T10:00:24Z</time>
      </trkpt>
      <trkpt lat="37.36389" lon="-8.52561">
        <ele>432.658</ele>
        <time>2015-08-16T10:00:35Z</time>
      </trkpt>
      <trkpt lat="37.36369" lon="-8.52646">
        <ele>428.676</ele>
        <time>2015-08-16T10:00:39Z</time>
      </trkpt>
      <trkpt lat="37.36319" lon="-8.52705">
        <ele>437.865</ele>
        <time>2015-08-16T10:00:43Z</time>
      </trkpt>
      <trkpt lat="37.36228" lon="-8.52731">
        <ele>446.745</ele>
        <time>2015-08-16T10:00:48Z</time>
      </trkpt>
      <trkpt lat="37.36188" lon="-8.52726">
        <ele>445.868</ele>
        <time>2015-08-16T10:00:50Z</time>
      </trkpt>
      <trkpt lat="37.3612" lon="-8.5272">
        <ele>445.666</ele>
        <time>2015-08-16T10:00:54Z</time>
      </trkpt>
      <trkpt lat="37.36043" lon="-8.5279">
        <ele>445.12</ele>
        <time>2015-08-16T10:01:02Z</time>
      </trkpt>
      <trkpt lat="37.36021" lon="-8.53004">
        <ele>454.246</ele>
        <time>2015-08-16T10:01:15Z</time>
      </trkpt>
      <trkpt lat="37.36022" lon="-8.53123">
        <ele>453.788</ele>
        <time>2015-08-16T10:01:21Z</time>
      </trkpt>
      <trkpt lat="37.36058" lon="-8.53268">
        <ele>460.216</ele>
        <time>2015-08-16T10:01:30Z</time>
      </trkpt>
      <trkpt lat="37.36019" lon="-8.53316">
        <ele>448.908</ele>
        <time>2015-08-16T10:01:35Z</time>
      </trkpt>
      <trkpt lat="37.36017" lon="-8.53352">
        <ele>448.585</ele>
        <time>2015-08-16T10:01:38Z</time>
      </trkpt>
      <trkpt lat="37.3605" lon="-8.53407">
        <ele>452.064</ele>
        <time>2015-08-16T10:01:42Z</time>
      </trkpt>
      <trkpt lat="37.36075" lon="-8.53453">
        <ele>450.862</ele>
        <time>2015-08-16T10:01:45Z</time>
      </trkpt>
      <trkpt lat="37.3618" lon="-8.53576">
        <ele>451.541</ele>
        <time>2015-08-16T10:01:55Z</time>
      </trkpt>
      <trkpt lat="37.36202" lon="-8.53619">
        <ele>455.151</ele>
        <time>2015-08-16T10:01:58Z</time>
      </trkpt>
      <trkpt lat="37.36197" lon="-8.53857">
        <ele>453.614</ele>
        <time>2015-08-16T10:02:10Z</time>
      </trkpt>
      <trkpt lat="37.36158" lon="-8.53957">
        <ele>456.932</ele>
        <time>2015-08-16T10:02:15Z</time>
      </trkpt>
      <trkpt lat="37.36137" lon="-8.54016">
        <ele>454.356</ele>
        <time>2015-08-16T10:02:19Z</time>
      </trkpt>
      <trkpt lat="37.36191" lon="-8.54133">
        <ele>456.478</ele>
        <time>2015-08-16T10:02:27Z</time>
      </trkpt>
      <trkpt lat="37.36132" lon="-8.54236">
        <ele>449.233</ele>
        <time>2015-08-16T10:02:35Z</time>
      </trkpt>
      <trkpt lat="37.36094" lon="-8.5425">
        <ele>442.426</ele>
        <time>2015-08-16T10:02:38Z</time>
      </trkpt>
      <trkpt lat="37.35988" lon="-8.54349">
        <ele>439.208</ele>
        <time>2015-08-16T10:02:49Z</time>
      </trkpt>
      <trkpt lat="37.35889" lon="-8.54533">
        <ele>445.648</ele>
        <time>2015-08-16T10:03:01Z</time>
      </trkpt>
      <trkpt lat="37.35872" lon="-8.54553">
        <ele>441.837</ele>
        <time>2015-08-16T10:03:03Z</time>
      </trkpt>
      <trkpt lat="37.35726" lon="-8.54555">
        <ele>459.545</ele>
        <time>2015-08-16T10:03:14Z</time>
      </trkpt>
      <trkpt lat="37.3568" lon="-8.54588">
        <ele>457.594</ele>
        <time>2015-08-16T10:03:18Z</time>
      </trkpt>
      <trkpt lat="37.35562" lon="-8.54532">
        <ele>461.814</ele>
        <time>2015-08-16T10:03:28Z</time>
      </trkpt>
      <trkpt lat="37.35486" lon="-8.54602">
        <ele>470.277</ele>
        <time>2015-08-16T10:03:35Z</time>
      </trkpt>
      <trkpt lat="37.35422" lon="-8.54673">
        <ele>472.295</ele>
        <time>2015-08-16T10:03:41Z</time>
      </trkpt>
      <trkpt lat="37.35356" lon="-8.54584">
        <ele>478.929</ele>
        <time>2015-08-16T10:03:49Z</time>
      </trkpt>
      <trkpt lat="37.35174" lon="-8.54543">
        <ele>493.444</ele>
        <time>2015-08-16T10:04:01Z</time>
      </trkpt>
      <trkpt lat="37.34982" lon="-8.54532">
        <ele>504.205</ele>
        <time>2015-08-16T10:04:14Z</time>
      </trkpt>
      <trkpt lat="37.34923" lon="-8.54442">
        <ele>505.515</ele>
        <time>2015-08-16T10:04:21Z</time>
      </trkpt>
      <trkpt lat="37.34863" lon="-8.54428">
        <ele>506.508</ele>
        <time>2015-08-16T10:04:27Z</time>
      </trkpt>
      <trkpt lat="37.3483" lon="-8.54597">
        <ele>511.415</ele>
        <time>2015-08-16T10:04:40Z</time>
      </trkpt>
      <trkpt lat="37.34817" lon="-8.54706">
        <ele>511.884</ele>
        <time>2015-08-16T10:04:47Z</time>
      </trkpt>
      <trkpt lat="37.3469" lon="-8.54668">
        <ele>505.092</ele>
        <time>2015-08-16T10:04:57Z</time>
      </trkpt>
      <trkpt lat="37.34628" lon="-8.54753">
        <ele>502.781</ele>
        <time>2015-08-16T10:05:04Z</time>
      </trkpt>
      <trkpt lat="37.34654" lon="-8.54963">
        <ele>488.531</ele>
        <time>2015-08-16T10:05:16Z</time>
      </trkpt>
      <trkpt lat="37.34589" lon="-8.55126">
        <ele>481.434</ele>
        <time>2015-08-16T10:05:29Z</time>
      </trkpt>
      <trkpt lat="37.34596" lon="-8.55187">
        <ele>483.872</ele>
        <time>2015-08-16T10:05:34Z</time>
      </trkpt>
      <trkpt lat="37.3455" lon="-8.55249">
        <ele>475.736</ele>
        <time>2015-08-16T10:05:39Z</time>
      </trkpt>
      <trkpt lat="37.34542" lon="-8.55263">
        <ele>474.235</ele>
        <time>2015-08-16T10:05:40Z</time>
      </trkpt>
      <trkpt lat="37.34531" lon="-8.55295">
        <ele>472.686</ele>
        <time>2015-08-16T10:05:42Z</time>
      </trkpt>
      <trkpt lat="37.34536" lon="-8.55412">
        <ele>474.114</ele>
        <time>2015-08-16T10:05:49Z</time>
      </trkpt>
      <trkpt lat="37.34378" lon="-8.55584">
        <ele>454.908</ele>
        <time>2015-08-16T10:06:03Z</time>
      </trkpt>
      <trkpt lat="37.34333" lon="-8.55807">
        <ele>441.824</ele>
        <time>2015-08-16T10:06:19Z</time>
      </trkpt>
      <trkpt lat="37.34254" lon="-8.5585">
        <ele>437.653</ele>
        <time>2015-08-16T10:06:26Z</time>
      </trkpt>
      <trkpt lat="37.34175" lon="-8.55817">
        <ele>446.541</ele>
        <time>2015-08-16T10:06:33Z</time>
      </trkpt>
      <trkpt lat="37.3414" lon="-8.55922">
        <ele>440.44</ele>
        <time>2015-08-16T10:06:41Z</time>
      </trkpt>
      <trkpt lat="37.34114" lon="-8.55945">
        <ele>440.72</ele>
        <time>2015-08-16T10:06:44Z</time>
      </trkpt>
      <trkpt lat="37.33972" lon="-8.55947">
        <ele>430.473</ele>
        <time>2015-08-16T10:06:57Z</time>
      </trkpt>
      <trkpt lat="37.3391" lon="-8.55912">
        <ele>430.461</ele>
        <time>2015-08-16T10:07:02Z</time>
      </trkpt>
      <trkpt lat="37.3389" lon="-8.5591">
        <ele>427.325</ele>
        <time>2015-08-16T10:07:04Z</time>
      </trkpt>
      <trkpt lat="37.33838" lon="-8.5601">
        <ele>439.325</ele>
        <time>2015-08-16T10:07:13Z</time>
      </trkpt>
      <trkpt lat="37.33728" lon="-8.55932">
        <ele>447.726</ele>
        <time>2015-08-16T10:07:24Z</time>
      </trkpt>
      <trkpt lat="37.33714" lon="-8.55885">
        <ele>453.208</ele>
        <time>2015-08-16T10:07:27Z</time>
      </trkpt>
      <trkpt lat="37.33669" lon="-8.55811">
        <ele>443.908</ele>
        <time>2015-08-16T10:07:33Z</time>
      </trkpt>
      <trkpt lat="37.33593" lon="-8.55863">
        <ele>462.913</ele>
        <time>2015-08-16T10:07:40Z</time>
      </trkpt>
      <trkpt lat="37.33544" lon="-8.55857">
        <ele>463.782</ele>
        <time>2015-08-16T10:07:44Z</time>
      </trkpt>
      <trkpt lat="37.33554" lon="-8.55768">
        <ele>447.75</ele>
        <time>2015-08-16T10:07:50Z</time>
      </trkpt>
      <trkpt lat="37.33563" lon="-8.55701">
        <ele>447.729</ele>
        <time>2015-08-16T10:07:54Z</time>
      </trkpt>
      <trkpt lat="37.33525" lon="-8.55628">
        <ele>456.479</ele>
        <time>2015-08-16T10:07:59Z</time>
      </trkpt>
      <trkpt lat="37.33429" lon="-8.55631">
        <ele>460.642</ele>
        <time>2015-08-16T10:08:07Z</time>
      </trkpt>
      <trkpt lat="37.33395" lon="-8.55592">
        <ele>462.04</ele>
        <time>2015-08-16T10:08:11Z</time>
      </trkpt>
      <trkpt lat="37.334" lon="-8.55508">
        <ele>459.664</ele>
        <time>2015-08-16T10:08:16Z</time>
      </trkpt>
      <trkpt lat="37.33373" lon="-8.55477">
        <ele>468.727</ele>
        <time>2015-08-16T10:08:19Z</time>
      </trkpt>
      <trkpt lat="37.33235" lon="-8.55431">
        <ele>476.868</ele>
        <time>2015-08-16T10:08:33Z</time>
      </trkpt>
      <trkpt lat="37.33179" lon="-8.55455">
        <ele>497.014</ele>
        <time>2015-08-16T10:08:56Z</time>
      </trkpt>
      <trkpt lat="37.33141" lon="-8.55433">
        <ele>500.508</ele>
        <time>2015-08-16T10:09:11Z</time>
      </trkpt>
      <trkpt lat="37.33095" lon="-8.55523">
        <ele>503.373</ele>
        <time>2015-08-16T10:09:33Z</time>
      </trkpt>
      <trkpt lat="37.33098" lon="-8.55576">
        <ele>506.742</ele>
        <time>2015-08-16T10:09:43Z</time>
      </trkpt>
      <trkpt lat="37.33103" lon="-8.55594">
        <ele>509.02</ele>
        <time>2015-08-16T10:09:47Z</time>
      </trkpt>
      <trkpt lat="37.33175" lon="-8.55711">
        <ele>521.079</ele>
        <time>2015-08-16T10:10:13Z</time>
      </trkpt>
      <trkpt lat="37.33183" lon="-8.55769">
        <ele>521.669</ele>
        <time>2015-08-16T10:10:24Z</time>
      </trkpt>
      <trkpt lat="37.33199" lon="-8.55833">
        <ele>530.552</ele>
        <time>2015-08-16T10:10:44Z</time>
      </trkpt>
      <trkpt lat="37.33053" lon="-8.55824">
        <ele>534.29</ele>
        <time>2015-08-16T10:11:11Z</time>
      </trkpt>
      <trkpt lat="37.32956" lon="-8.55849">
        <ele>534.024</ele>
        <time>2015-08-16T10:11:20Z</time>
      </trkpt>
      <trkpt lat="37.32858" lon="-8.5585">
        <ele>544.891</ele>
        <time>2015-08-16T10:11:29Z</time>
      </trkpt>
      <trkpt lat="37.32803" lon="-8.55878">
        <ele>543.981</ele>
        <time>2015-08-16T10:11:37Z</time>
      </trkpt>
      <trkpt lat="37.32738" lon="-8.5607">
        <ele>570.219</ele>
        <time>2015-08-16T10:12:10Z</time>
      </trkpt>
      <trkpt lat="37.32678" lon="-8.56126">
        <ele>575.308</ele>
        <time>2015-08-16T10:12:17Z</time>
      </trkpt>
      <trkpt lat="37.32709" lon="-8.56195">
        <ele>582.04</ele>
        <time>2015-08-16T10:12:24Z</time>
      </trkpt>
      <trkpt lat="37.32772" lon="-8.56224">
        <ele>593.879</ele>
        <time>2015-08-16T10:12:30Z</time>
      </trkpt>
      <trkpt lat="37.32744" lon="-8.56311">
        <ele>597.897</ele>
        <time>2015-08-16T10:12:37Z</time>
      </trkpt>
      <trkpt lat="37.32697" lon="-8.56488">
        <ele>607.116</ele>
        <time>2015-08-16T10:12:48Z</time>
      </trkpt>
      <trkpt lat="37.32668" lon="-8.5657">
        <ele>605.296</ele>
        <time>2015-08-16T10:12:53Z</time>
      </trkpt>
      <trkpt lat="37.32644" lon="-8.56594">
        <ele>606.079</ele>
        <time>2015-08-16T10:12:55Z</time>
      </trkpt>
      <trkpt lat="37.32633" lon="-8.56604">
        <ele>606.647</ele>
        <time>2015-08-16T10:12:56Z</time>
      </trkpt>
      <trkpt lat="37.32567" lon="-8.56647">
        <ele>605.791</ele>
        <time>2015-08-16T10:13:05Z</time>
      </trkpt>
      <trkpt lat="37.32418" lon="-8.56598">
        <ele>596.541</ele>
        <time>2015-08-16T10:13:23Z</time>
      </trkpt>
      <trkpt lat="37.32364" lon="-8.56545">
        <ele>596.581</ele>
        <time>2015-08-16T10:13:28Z</time>
      </trkpt>
      <trkpt lat="37.32287" lon="-8.56382">
        <ele>603.409</ele>
        <time>2015-08-16T10:13:38Z</time>
      </trkpt>
      <trkpt lat="37.32115" lon="-8.56139">
        <ele>575.408</ele>
        <time>2015-08-16T10:13:56Z</time>
      </trkpt>
      <trkpt lat="37.32059" lon="-8.56169">
        <ele>588.915</ele>
        <time>2015-08-16T10:14:02Z</time>
      </trkpt>
      <trkpt lat="37.31971" lon="-8.56281">
        <ele>597.244</ele>
        <time>2015-08-16T10:14:09Z</time>
      </trkpt>
      <trkpt lat="37.31815" lon="-8.56481">
        <ele>608.222</ele>
        <time>2015-08-16T10:14:21Z</time>
      </trkpt>
      <trkpt lat="37.31754" lon="-8.56588">
        <ele>615.271</ele>
        <time>2015-08-16T10:14:28Z</time>
      </trkpt>
      <trkpt lat="37.31732" lon="-8.56883">
        <ele>648.581</ele>
        <time>2015-08-16T10:16:03Z</time>
      </trkpt>
      <trkpt lat="37.31547" lon="-8.56827">
        <ele>661.714</ele>
        <time>2015-08-16T10:16:26Z</time>
      </trkpt>
      <trkpt lat="37.31505" lon="-8.56995">
        <ele>679.192</ele>
        <time>2015-08-16T10:16:42Z</time>
      </trkpt>
      <trkpt lat="37.31459" lon="-8.57008">
        <ele>679.956</ele>
        <time>2015-08-16T10:16:47Z</time>
      </trkpt>
      <trkpt lat="37.31333" lon="-8.57016">
        <ele>693.995</ele>
        <time>2015-08-16T10:16:59Z</time>
      </trkpt>
      <trkpt lat="37.31272" lon="-8.57175">
        <ele>715.549</ele>
        <time>2015-08-16T10:17:14Z</time>
      </trkpt>
      <trkpt lat="37.31285" lon="-8.57394">
        <ele>732.923</ele>
        <time>2015-08-16T10:17:32Z</time>
      </trkpt>
      <trkpt lat="37.31309" lon="-8.57488">
        <ele>744.008</ele>
        <time>2015-08-16T10:17:40Z</time>
      </trkpt>
      <trkpt lat="37.31338" lon="-8.57537">
        <ele>756.17</ele>
        <time>2015-08-16T10:17:46Z</time>
      </trkpt>
      <trkpt lat="37.31376" lon="-8.57459">
        <ele>764.759</ele>
        <time>2015-08-16T10:18:00Z</time>
      </trkpt>
      <trkpt lat="37.31403" lon="-8.57529">
        <ele>775.097</ele>
        <time>2015-08-16T10:18:11Z</time>
      </trkpt>
      <trkpt lat="37.31463" lon="-8.57609">
        <ele>782.466</ele>
        <time>2015-08-16T10:18:23Z</time>
      </trkpt>
      <trkpt lat="37.31469" lon="-8.57512">
        <ele>787.996</ele>
        <time>2015-08-16T10:18:37Z</time>
      </trkpt>
      <trkpt lat="37.31557" lon="-8.57486">
        <ele>792.049</ele>
        <time>2015-08-16T10:18:47Z</time>
      </trkpt>
      <trkpt lat="37.3163" lon="-8.57488">
        <ele>791.577</ele>
        <time>2015-08-16T10:18:55Z</time>
      </trkpt>
      <trkpt lat="37.31698" lon="-8.57568">
        <ele>792.831</ele>
        <time>2015-08-16T10:19:05Z</time>
      </trkpt>
      <trkpt lat="37.31714" lon="-8.57619">
        <ele>801.826</ele>
        <time>2015-08-16T10:19:10Z</time>
      </trkpt>
      <trkpt lat="37.31718" lon="-8.57704">
        <ele>808.447</ele>
        <time>2015-08-16T10:19:18Z</time>
      </trkpt>
      <trkpt lat="37.31796" lon="-8.57763">
        <ele>815.711</ele>
        <time>2015-08-16T10:19:28Z</time>
      </trkpt>
      <trkpt lat="37.31838" lon="-8.57803">
        <ele>817.908</ele>
        <time>2015-08-16T10:19:35Z</time>
      </trkpt>
      <trkpt lat="37.31715" lon="-8.58264">
        <ele>822.963</ele>
        <time>2015-08-16T10:20:08Z</time>
      </trkpt>
      <trkpt lat="37.31716" lon="-8.58349">
        <ele>827.952</ele>
        <time>2015-08-16T10:20:14Z</time>
      </trkpt>
      <trkpt lat="37.31754" lon="-8.58418">
        <ele>832.63</ele>
        <time>2015-08-16T10:20:22Z</time>
      </trkpt>
      <trkpt lat="37.31782" lon="-8.58489">
        <ele>836.039</ele>
        <time>2015-08-16T10:20:30Z</time>
      </trkpt>
      <trkpt lat="37.31783" lon="-8.58514">
        <ele>833.619</ele>
        <time>2015-08-16T10:20:32Z</time>
      </trkpt>
      <trkpt lat="37.31673" lon="-8.58739">
        <ele>850.452</ele>
        <time>2015-08-16T10:20:49Z</time>
      </trkpt>
      <trkpt lat="37.31654" lon="-8.58863">
        <ele>861.34</ele>
        <time>2015-08-16T10:20:57Z</time>
      </trkpt>
      <trkpt lat="37.31656" lon="-8.58936">
        <ele>864.524</ele>
        <time>2015-08-16T10:21:02Z</time>
      </trkpt>
      <trkpt lat="37.31586" lon="-8.58991">
        <ele>874.549</ele>
        <time>2015-08-16T10:21:10Z</time>
      </trkpt>
      <trkpt lat="37.31549" lon="-8.59047">
        <ele>875.602</ele>
        <time>2015-08-16T10:21:17Z</time>
      </trkpt>
      <trkpt lat="37.31559" lon="-8.5911">
        <ele>876.022</ele>
        <time>2015-08-16T10:21:22Z</time>
      </trkpt>
      <trkpt lat="37.31579" lon="-8.59198">
        <ele>880.108</ele>
        <time>2015-08-16T10:21:32Z</time>
      </trkpt>
      <trkpt lat="37.31622" lon="-8.59213">
        <ele>882.155</ele>
        <time>2015-08-16T10:21:42Z</time>
      </trkpt>
      <trkpt lat="37.31661" lon="-8.59225">
        <ele>883.124</ele>
        <time>2015-08-16T10:22:50Z</time>
      </trkpt>
      <trkpt lat="37.31635" lon="-8.59356">
        <ele>886.682</ele>
        <time>2015-08-16T10:23:17Z</time>
      </trkpt>
      <trkpt lat="37.31638" lon="-8.59427">
        <ele>887.771</ele>
        <time>2015-08-16T10:23:25Z</time>
      </trkpt>
      <trkpt lat="37.31668" lon="-8.59441">
        <ele>886.661</ele>
        <time>2015-08-16T10:23:29Z</time>
      </trkpt>
      <trkpt lat="37.31721" lon="-8.59475">
        <ele>881.044</ele>
        <time>2015-08-16T10:23:36Z</time>
      </trkpt>
      <trkpt lat="37.31726" lon="-8.59524">
        <ele>875.612</ele>
        <time>2015-08-16T10:23:40Z</time>
      </trkpt>
      <trkpt lat="37.3169" lon="-8.59678">
        <ele>869.736</ele>
        <time>2015-08-16T10:23:50Z</time>
      </trkpt>
      <trkpt lat="37.31626" lon="-8.59812">
        <ele>858.839</ele>
        <time>2015-08-16T10:24:00Z</time>
      </trkpt>
      <trkpt lat="37.31563" lon="-8.59884">
        <ele>857.601</ele>
        <time>2015-08-16T10:24:07Z</time>
      </trkpt>
      <trkpt lat="37.31537" lon="-8.60138">
        <ele>841.521</ele>
        <time>2015-08-16T10:24:23Z</time>
      </trkpt>
      <trkpt lat="37.31525" lon="-8.60198">
        <ele>836.008</ele>
        <time>2015-08-16T10:24:27Z</time>
      </trkpt>
      <trkpt lat="37.3126" lon="-8.60375">
        <ele>817.484</ele>
        <time>2015-08-16T10:24:48Z</time>
      </trkpt>
      <trkpt lat="37.312" lon="-8.60438">
        <ele>812.653</ele>
        <time>2015-08-16T10:24:53Z</time>
      </trkpt>
      <trkpt lat="37.31143" lon="-8.60554">
        <ele>804.691</ele>
        <time>2015-08-16T10:25:00Z</time>
      </trkpt>
      <trkpt lat="37.31042" lon="-8.60683">
        <ele>795.93</ele>
        <time>2015-08-16T10:25:10Z</time>
      </trkpt>
      <trkpt lat="37.30964" lon="-8.60711">
        <ele>788.53</ele>
        <time>2015-08-16T10:25:21Z</time>
      </trkpt>
      <trkpt lat="37.31026" lon="-8.60791">
        <ele>780.343</ele>
        <time>2015-08-16T10:25:48Z</time>
      </trkpt>
      <trkpt lat="37.3105" lon="-8.60823">
        <ele>775.671</ele>
        <time>2015-08-16T10:25:52Z</time>
      </trkpt>
      <trkpt lat="37.31071" lon="-8.60859">
        <ele>771.635</ele>
        <time>2015-08-16T10:25:56Z</time>
      </trkpt>
      <trkpt lat="37.31091" lon="-8.60943">
        <ele>762.139</ele>
        <time>2015-08-16T10:26:03Z</time>
      </trkpt>
      <trkpt lat="37.31058" lon="-8.61213">
        <ele>769.201</ele>
        <time>2015-08-16T10:28:08Z</time>
      </trkpt>
      <trkpt lat="37.31017" lon="-8.61292">
        <ele>771.421</ele>
        <time>2015-08-16T10:28:16Z</time>
      </trkpt>
      <trkpt lat="37.31" lon="-8.61388">
        <ele>762.008</ele>
        <time>2015-08-16T10:28:24Z</time>
      </trkpt>
      <trkpt lat="37.30978" lon="-8.61493">
        <ele>751.044</ele>
        <time>2015-08-16T10:28:32Z</time>
      </trkpt>
      <trkpt lat="37.30872" lon="-8.61596">
        <ele>738.863</ele>
        <time>2015-08-16T10:28:44Z</time>
      </trkpt>
      <trkpt lat="37.30812" lon="-8.61631">
        <ele>735.151</ele>
        <time>2015-08-16T10:28:50Z</time>
      </trkpt>
      <trkpt lat="37.30739" lon="-8.61645">
        <ele>725.22</ele>
        <time>2015-08-16T10:28:58Z</time>
      </trkpt>
      <trkpt lat="37.30715" lon="-8.61656">
        <ele>721.54</ele>
        <time>2015-08-16T10:29:02Z</time>
      </trkpt>
      <trkpt lat="37.30695" lon="-8.61799">
        <ele>707.423</ele>
        <time>2015-08-16T10:29:16Z</time>
      </trkpt>
      <trkpt lat="37.30683" lon="-8.6194">
        <ele>693.511</ele>
        <time>2015-08-16T10:29:25Z</time>
      </trkpt>
      <trkpt lat="37.30725" lon="-8.62208">
        <ele>683.745</ele>
        <time>2015-08-16T10:29:42Z</time>
      </trkpt>
      <trkpt lat="37.3079" lon="-8.62451">
        <ele>658.259</ele>
        <time>2015-08-16T10:29:58Z</time>
      </trkpt>
      <trkpt lat="37.30846" lon="-8.62533">
        <ele>646.503</ele>
        <time>2015-08-16T10:30:06Z</time>
      </trkpt>
      <trkpt lat="37.30889" lon="-8.626">
        <ele>641.423</ele>
        <time>2015-08-16T10:30:13Z</time>
      </trkpt>
      <trkpt lat="37.3093" lon="-8.62729">
        <ele>623.608</ele>
        <time>2015-08-16T10:30:24Z</time>
      </trkpt>
      <trkpt lat="37.30895" lon="-8.62856">
        <ele>599.196</ele>
        <time>2015-08-16T10:31:20Z</time>
      </trkpt>
      <trkpt lat="37.30906" lon="-8.63182">
        <ele>563.295</ele>
        <time>2015-08-16T10:32:06Z</time>
      </trkpt>
      <trkpt lat="37.30912" lon="-8.63203">
        <ele>562.023</ele>
        <time>2015-08-16T10:32:09Z</time>
      </trkpt>
      <trkpt lat="37.3104" lon="-8.63369">
        <ele>534.642</ele>
        <time>2015-08-16T10:33:04Z</time>
      </trkpt>
      <trkpt lat="37.30903" lon="-8.63344">
        <ele>537.442</ele>
        <time>2015-08-16T10:33:29Z</time>
      </trkpt>
      <trkpt lat="37.30825" lon="-8.63287">
        <ele>542.695</ele>
        <time>2015-08-16T10:33:46Z</time>
      </trkpt>
      <trkpt lat="37.3076" lon="-8.63272">
        <ele>529.253</ele>
        <time>2015-08-16T10:33:58Z</time>
      </trkpt>
      <trkpt lat="37.30688" lon="-8.63205">
        <ele>518.167</ele>
        <time>2015-08-16T10:34:13Z</time>
      </trkpt>
      <trkpt lat="37.3065" lon="-8.63242">
        <ele>507.714</ele>
        <time>2015-08-16T10:34:26Z</time>
      </trkpt>
      <trkpt lat="37.30607" lon="-8.63234">
        <ele>506.654</ele>
        <time>2015-08-16T10:34:34Z</time>
      </trkpt>
      <trkpt lat="37.30599" lon="-8.63493">
        <ele>514.809</ele>
        <time>2015-08-16T10:35:08Z</time>
      </trkpt>
      <trkpt lat="37.30558" lon="-8.63574">
        <ele>520.308</ele>
        <time>2015-08-16T10:35:18Z</time>
      </trkpt>
      <trkpt lat="37.30537" lon="-8.63617">
        <ele>520.492</ele>
        <time>2015-08-16T10:35:25Z</time>
      </trkpt>
      <trkpt lat="37.3045" lon="-8.63663">
        <ele>518.761</ele>
        <time>2015-08-16T10:35:58Z</time>
      </trkpt>
      <trkpt lat="37.30304" lon="-8.63732">
        <ele>513.669</ele>
        <time>2015-08-16T10:36:09Z</time>
      </trkpt>
      <trkpt lat="37.30252" lon="-8.63812">
        <ele>517.698</ele>
        <time>2015-08-16T10:36:20Z</time>
      </trkpt>
      <trkpt lat="37.30254" lon="-8.63835">
        <ele>517.598</ele>
        <time>2015-08-16T10:36:25Z</time>
      </trkpt>
      <trkpt lat="37.30387" lon="-8.63965">
        <ele>502.211</ele>
        <time>2015-08-16T10:36:48Z</time>
      </trkpt>
      <trkpt lat="37.30406" lon="-8.64185">
        <ele>492.649</ele>
        <time>2015-08-16T10:37:11Z</time>
      </trkpt>
      <trkpt lat="37.30369" lon="-8.64292">
        <ele>486.533</ele>
        <time>2015-08-16T10:37:24Z</time>
      </trkpt>
      <trkpt lat="37.30201" lon="-8.64467">
        <ele>484.495</ele>
        <time>2015-08-16T10:38:29Z</time>
      </trkpt>
      <trkpt lat="37.3001" lon="-8.64559">
        <ele>456.049</ele>
        <time>2015-08-16T10:39:08Z</time>
      </trkpt>
      <trkpt lat="37.30025" lon="-8.64614">
        <ele>444.423</ele>
        <time>2015-08-16T10:39:19Z</time>
      </trkpt>
      <trkpt lat="37.29927" lon="-8.64485">
        <ele>446.708</ele>
        <time>2015-08-16T10:39:41Z</time>
      </trkpt>
      <trkpt lat="37.29902" lon="-8.644">
        <ele>450.61</ele>
        <time>2015-08-16T10:39:46Z</time>
      </trkpt>
      <trkpt lat="37.29892" lon="-8.6435">
        <ele>450.129</ele>
        <time>2015-08-16T10:39:55Z</time>
      </trkpt>
      <trkpt lat="37.29821" lon="-8.64381">
        <ele>434.997</ele>
        <time>2015-08-16T10:40:07Z</time>
      </trkpt>
      <trkpt lat="37.29687" lon="-8.64506">
        <ele>440.216</ele>
        <time>2015-08-16T10:40:35Z</time>
      </trkpt>
      <trkpt lat="37.29678" lon="-8.64524">
        <ele>440.166</ele>
        <time>2015-08-16T10:40:37Z</time>
      </trkpt>
      <trkpt lat="37.29609" lon="-8.64619">
        <ele>431.399</ele>
        <time>2015-08-16T10:40:48Z</time>
      </trkpt>
      <trkpt lat="37.29441" lon="-8.64737">
        <ele>412.027</ele>
        <time>2015-08-16T10:41:31Z</time>
      </trkpt>
      <trkpt lat="37.294" lon="-8.64726">
        <ele>409.951</ele>
        <time>2015-08-16T10:41:36Z</time>
      </trkpt>
      <trkpt lat="37.29313" lon="-8.64748">
        <ele>395.993</ele>
        <time>2015-08-16T10:41:48Z</time>
      </trkpt>
      <trkpt lat="37.29283" lon="-8.647">
        <ele>392.065</ele>
        <time>2015-08-16T10:41:56Z</time>
      </trkpt>
      <trkpt lat="37.29171" lon="-8.64718">
        <ele>386.421</ele>
        <time>2015-08-16T10:42:17Z</time>
      </trkpt>
      <trkpt lat="37.2904" lon="-8.64757">
        <ele>381.608</ele>
        <time>2015-08-16T10:43:19Z</time>
      </trkpt>
      <trkpt lat="37.28976" lon="-8.64805">
        <ele>375.57</ele>
        <time>2015-08-16T10:43:29Z</time>
      </trkpt>
      <trkpt lat="37.28901" lon="-8.64937">
        <ele>355.989</ele>
        <time>2015-08-16T10:43:47Z</time>
      </trkpt>
      <trkpt lat="37.28807" lon="-8.65029">
        <ele>348.427</ele>
        <time>2015-08-16T10:44:04Z</time>
      </trkpt>
      <trkpt lat="37.28761" lon="-8.65165">
        <ele>327.856</ele>
        <time>2015-08-16T10:44:23Z</time>
      </trkpt>
      <trkpt lat="37.28631" lon="-8.65302">
        <ele>304.376</ele>
        <time>2015-08-16T10:44:50Z</time>
      </trkpt>
      <trkpt lat="37.2861" lon="-8.65388">
        <ele>288.179</ele>
        <time>2015-08-16T10:45:02Z</time>
      </trkpt>
      <trkpt lat="37.28581" lon="-8.65278">
        <ele>285.047</ele>
        <time>2015-08-16T10:45:21Z</time>
      </trkpt>
      <trkpt lat="37.28595" lon="-8.65203">
        <ele>276.151</ele>
        <time>2015-08-16T10:45:33Z</time>
      </trkpt>
      <trkpt lat="37.28552" lon="-8.65253">
        <ele>267.352</ele>
        <time>2015-08-16T10:45:45Z</time>
      </trkpt>
      <trkpt lat="37.28461" lon="-8.65423">
        <ele>240.853</ele>
        <time>2015-08-16T10:46:18Z</time>
      </trkpt>
      <trkpt lat="37.28448" lon="-8.65361">
        <ele>232.308</ele>
        <time>2015-08-16T10:46:31Z</time>
      </trkpt>
      <trkpt lat="37.28426" lon="-8.6552">
        <ele>225.908</ele>
        <time>2015-08-16T10:46:52Z</time>
      </trkpt>
      <trkpt lat="37.28367" lon="-8.65659">
        <ele>215.386</ele>
        <time>2015-08-16T10:47:08Z</time>
      </trkpt>
      <trkpt lat="37.28171" lon="-8.65931">
        <ele>203.195</ele>
        <time>2015-08-16T10:47:47Z</time>
      </trkpt>
      <trkpt lat="37.28078" lon="-8.66135">
        <ele>201.763</ele>
        <time>2015-08-16T10:48:13Z</time>
      </trkpt>
      <trkpt lat="37.28066" lon="-8.66165">
        <ele>200.592</ele>
        <time>2015-08-16T10:48:17Z</time>
      </trkpt>
      <trkpt lat="37.28038" lon="-8.66171">
        <ele>196.512</ele>
        <time>2015-08-16T10:48:21Z</time>
      </trkpt>
      <trkpt lat="37.27954" lon="-8.66337">
        <ele>192.295</ele>
        <time>2015-08-16T10:48:44Z</time>
      </trkpt>
      <trkpt lat="37.27906" lon="-8.66358">
        <ele>186.933</ele>
        <time>2015-08-16T10:48:52Z</time>
      </trkpt>
      <trkpt lat="37.27898" lon="-8.66483">
        <ele>184.117</ele>
        <time>2015-08-16T10:49:06Z</time>
      </trkpt>
      <trkpt lat="37.27852" lon="-8.66516">
        <ele>187.595</ele>
        <time>2015-08-16T10:49:13Z</time>
      </trkpt>
      <trkpt lat="37.27782" lon="-8.66496">
        <ele>180.849</ele>
        <time>2015-08-16T10:49:21Z</time>
      </trkpt>
      <trkpt lat="37.27682" lon="-8.6652">
        <ele>167.323</ele>
        <time>2015-08-16T10:49:34Z</time>
      </trkpt>
      <trkpt lat="37.27679" lon="-8.66524">
        <ele>166.808</ele>
        <time>2015-08-16T10:49:35Z</time>
      </trkpt>
      <trkpt lat="37.27675" lon="-8.66529">
        <ele>166.25</ele>
        <time>2015-08-16T10:49:37Z</time>
      </trkpt>
      <trkpt lat="37.27671" lon="-8.6653">
        <ele>165.859</ele>
        <time>2015-08-16T10:49:39Z</time>
      </trkpt>
      <trkpt lat="37.27668" lon="-8.66529">
        <ele>165.387</ele>
        <time>2015-08-16T10:49:40Z</time>
      </trkpt>
      <trkpt lat="37.2763" lon="-8.6651">
        <ele>162.986</ele>
        <time>2015-08-16T10:49:46Z</time>
      </trkpt>
      <trkpt lat="37.27554" lon="-8.66508">
        <ele>162.926</ele>
        <time>2015-08-16T10:49:52Z</time>
      </trkpt>
      <trkpt lat="37.27446" lon="-8.66529">
        <ele>156.979</ele>
        <time>2015-08-16T10:49:59Z</time>
      </trkpt>
      <trkpt lat="37.27348" lon="-8.66591">
        <ele>154.237</ele>
        <time>2015-08-16T10:50:08Z</time>
      </trkpt>
      <trkpt lat="37.27143" lon="-8.66574">
        <ele>152.611</ele>
        <time>2015-08-16T10:50:23Z</time>
      </trkpt>
      <trkpt lat="37.27016" lon="-8.66541">
        <ele>155.159</ele>
        <time>2015-08-16T10:50:37Z</time>
      </trkpt>
      <trkpt lat="37.26896" lon="-8.66604">
        <ele>148.803</ele>
        <time>2015-08-16T10:51:18Z</time>
      </trkpt>
      <trkpt lat="37.26695" lon="-8.66818">
        <ele>145.023</ele>
        <time>2015-08-16T10:51:37Z</time>
      </trkpt>
      <trkpt lat="37.2663" lon="-8.66885">
        <ele>145.308</ele>
        <time>2015-08-16T10:51:46Z</time>
      </trkpt>
      <trkpt lat="37.26529" lon="-8.6687">
        <ele>145.486</ele>
        <time>2015-08-16T10:52:15Z</time>
      </trkpt>
      <trkpt lat="37.26357" lon="-8.66844">
        <ele>144.155</ele>
        <time>2015-08-16T10:52:26Z</time>
      </trkpt>
      <trkpt lat="37.26018" lon="-8.66865">
        <ele>132.393</ele>
        <time>2015-08-16T10:52:48Z</time>
      </trkpt>
      <trkpt lat="37.25844" lon="-8.66899">
        <ele>130.542</ele>
        <time>2015-08-16T10:52:59Z</time>
      </trkpt>
      <trkpt lat="37.25541" lon="-8.66915">
        <ele>134.192</ele>
        <time>2015-08-16T10:53:17Z</time>
      </trkpt>
      <trkpt lat="37.254" lon="-8.66876">
        <ele>121.365</ele>
        <time>2015-08-16T10:53:26Z</time>
      </trkpt>
      <trkpt lat="37.25304" lon="-8.66859">
        <ele>122.653</ele>
        <time>2015-08-16T10:53:34Z</time>
      </trkpt>
      <trkpt lat="37.25155" lon="-8.66923">
        <ele>119.717</ele>
        <time>2015-08-16T10:53:44Z</time>
      </trkpt>
      <trkpt lat="37.24933" lon="-8.67038">
        <ele>119.517</ele>
        <time>2015-08-16T10:53:58Z</time>
      </trkpt>
      <trkpt lat="37.24813" lon="-8.67145">
        <ele>114.287</ele>
        <time>2015-08-16T10:54:06Z</time>
      </trkpt>
      <trkpt lat="37.24758" lon="-8.67246">
        <ele>115.115</ele>
        <time>2015-08-16T10:54:12Z</time>
      </trkpt>
      <trkpt lat="37.24583" lon="-8.67452">
        <ele>109.508</ele>
        <time>2015-08-16T10:54:28Z</time>
      </trkpt>
      <trkpt lat="37.245" lon="-8.67647">
        <ele>115.372</ele>
        <time>2015-08-16T10:54:39Z</time>
      </trkpt>
      <trkpt lat="37.24127" lon="-8.67838">
        <ele>103.941</ele>
        <time>2015-08-16T10:55:04Z</time>
      </trkpt>
      <trkpt lat="37.23942" lon="-8.67999">
        <ele>99.939</ele>
        <time>2015-08-16T10:55:16Z</time>
      </trkpt>
      <trkpt lat="37.23838" lon="-8.68038">
        <ele>110.278</ele>
        <time>2015-08-16T10:55:22Z</time>
      </trkpt>
      <trkpt lat="37.23764" lon="-8.68045">
        <ele>98.528</ele>
        <time>2015-08-16T10:55:26Z</time>
      </trkpt>
      <trkpt lat="37.23548" lon="-8.68041">
        <ele>98.681</ele>
        <time>2015-08-16T10:55:38Z</time>
      </trkpt>
      <trkpt lat="37.23321" lon="-8.68044">
        <ele>92.149</ele>
        <time>2015-08-16T10:55:50Z</time>
      </trkpt>
      <trkpt lat="37.23261" lon="-8.68042">
        <ele>92.643</ele>
        <time>2015-08-16T10:55:53Z</time>
      </trkpt>
      <trkpt lat="37.23194" lon="-8.68038">
        <ele>91.793</ele>
        <time>2015-08-16T10:55:57Z</time>
      </trkpt>
      <trkpt lat="37.23157" lon="-8.68039">
        <ele>89.665</ele>
        <time>2015-08-16T10:56:00Z</time>
      </trkpt>
      <trkpt lat="37.23092" lon="-8.68052">
        <ele>86.521</ele>
        <time>2015-08-16T10:56:34Z</time>
      </trkpt>
      <trkpt lat="37.231" lon="-8.67915">
        <ele>90.608</ele>
        <time>2015-08-16T10:57:01Z</time>
      </trkpt>
      <trkpt lat="37.22931" lon="-8.67995">
        <ele>89.98</ele>
        <time>2015-08-16T10:57:20Z</time>
      </trkpt>
      <trkpt lat="37.22831" lon="-8.68">
        <ele>93.129</ele>
        <time>2015-08-16T10:57:36Z</time>
      </trkpt>
      <trkpt lat="37.22741" lon="-8.68023">
        <ele>98.247</ele>
        <time>2015-08-16T10:57:49Z</time>
      </trkpt>
      <trkpt lat="37.22719" lon="-8.68125">
        <ele>91.936</ele>
        <time>2015-08-16T10:58:04Z</time>
      </trkpt>
      <trkpt lat="37.22663" lon="-8.68212">
        <ele>90.856</ele>
        <time>2015-08-16T10:58:18Z</time>
      </trkpt>
      <trkpt lat="37.22548" lon="-8.68291">
        <ele>95.259</ele>
        <time>2015-08-16T10:58:39Z</time>
      </trkpt>
      <trkpt lat="37.22488" lon="-8.68335">
        <ele>97.797</ele>
        <time>2015-08-16T10:58:49Z</time>
      </trkpt>
      <trkpt lat="37.22296" lon="-8.68538">
        <ele>100.821</ele>
        <time>2015-08-16T10:59:25Z</time>
      </trkpt>
      <trkpt lat="37.22255" lon="-8.68563">
        <ele>102.478</ele>
        <time>2015-08-16T10:59:38Z</time>
      </trkpt>
      <trkpt lat="37.22226" lon="-8.68619">
        <ele>98.933</ele>
        <time>2015-08-16T10:59:46Z</time>
      </trkpt>
      <trkpt lat="37.22045" lon="-8.68743">
        <ele>112.226</ele>
        <time>2015-08-16T11:00:14Z</time>
      </trkpt>
      <trkpt lat="37.21999" lon="-8.68694">
        <ele>115.208</ele>
        <time>2015-08-16T11:00:28Z</time>
      </trkpt>
      <trkpt lat="37.21987" lon="-8.68739">
        <ele>110.168</ele>
        <time>2015-08-16T11:00:33Z</time>
      </trkpt>
      <trkpt lat="37.2193" lon="-8.68799">
        <ele>106.397</ele>
        <time>2015-08-16T11:00:44Z</time>
      </trkpt>
      <trkpt lat="37.21868" lon="-8.68894">
        <ele>95.815</ele>
        <time>2015-08-16T11:00:59Z</time>
      </trkpt>
      <trkpt lat="37.21784" lon="-8.68957">
        <ele>85.444</ele>
        <time>2015-08-16T11:01:13Z</time>
      </trkpt>
      <trkpt lat="37.21759" lon="-8.68933">
        <ele>86.854</ele>
        <time>2015-08-16T11:01:18Z</time>
      </trkpt>
      <trkpt lat="37.21712" lon="-8.68769">
        <ele>91.437</ele>
        <time>2015-08-16T11:01:35Z</time>
      </trkpt>
      <trkpt lat="37.21717" lon="-8.68723">
        <ele>94.045</ele>
        <time>2015-08-16T11:01:44Z</time>
      </trkpt>
      <trkpt lat="37.21683" lon="-8.68778">
        <ele>90.919</ele>
        <time>2015-08-16T11:02:12Z</time>
      </trkpt>
      <trkpt lat="37.21657" lon="-8.68785">
        <ele>91.482</ele>
        <time>2015-08-16T11:02:18Z</time>
      </trkpt>
      <trkpt lat="37.21618" lon="-8.68748">
        <ele>93.743</ele>
        <time>2015-08-16T11:02:26Z</time>
      </trkpt>
      <trkpt lat="37.21609" lon="-8.68733">
        <ele>95.017</ele>
        <time>2015-08-16T11:02:29Z</time>
      </trkpt>
      <trkpt lat="37.21615" lon="-8.68829">
        <ele>97.708</ele>
        <time>2015-08-16T11:02:49Z</time>
      </trkpt>
      <trkpt lat="37.21561" lon="-8.68868">
        <ele>109.889</ele>
        <time>2015-08-16T11:03:03Z</time>
      </trkpt>
      <trkpt lat="37.21552" lon="-8.68889">
        <ele>109.438</ele>
        <time>2015-08-16T11:03:07Z</time>
      </trkpt>
      <trkpt lat="37.21551" lon="-8.68904">
        <ele>109.076</ele>
        <time>2015-08-16T11:03:09Z</time>
      </trkpt>
      <trkpt lat="37.2155" lon="-8.69131">
        <ele>97.435</ele>
        <time>2015-08-16T11:03:44Z</time>
      </trkpt>
      <trkpt lat="37.21271" lon="-8.69167">
        <ele>110.415</ele>
        <time>2015-08-16T11:04:23Z</time>
      </trkpt>
      <trkpt lat="37.21227" lon="-8.6913">
        <ele>115.828</ele>
        <time>2015-08-16T11:04:31Z</time>
      </trkpt>
      <trkpt lat="37.2119" lon="-8.69066">
        <ele>120.786</ele>
        <time>2015-08-16T11:04:39Z</time>
      </trkpt>
      <trkpt lat="37.21241" lon="-8.68907">
        <ele>135.68</ele>
        <time>2015-08-16T11:05:00Z</time>
      </trkpt>
      <trkpt lat="37.21124" lon="-8.68942">
        <ele>139.821</ele>
        <time>2015-08-16T11:05:18Z</time>
      </trkpt>
      <trkpt lat="37.21065" lon="-8.68908">
        <ele>142.541</ele>
        <time>2015-08-16T11:05:27Z</time>
      </trkpt>
      <trkpt lat="37.21048" lon="-8.68886">
        <ele>142.505</ele>
        <time>2015-08-16T11:05:31Z</time>
      </trkpt>
      <trkpt lat="37.21064" lon="-8.68731">
        <ele>145.208</ele>
        <time>2015-08-16T11:06:05Z</time>
      </trkpt>
      <trkpt lat="37.21029" lon="-8.68677">
        <ele>148.343</ele>
        <time>2015-08-16T11:06:18Z</time>
      </trkpt>
      <trkpt lat="37.20957" lon="-8.68619">
        <ele>152.422</ele>
        <time>2015-08-16T11:06:29Z</time>
      </trkpt>
      <trkpt lat="37.20925" lon="-8.68554">
        <ele>152.37</ele>
        <time>2015-08-16T11:06:36Z</time>
      </trkpt>
      <trkpt lat="37.20612" lon="-8.68457">
        <ele>155.639</ele>
        <time>2015-08-16T11:07:48Z</time>
      </trkpt>
      <trkpt lat="37.20365" lon="-8.68573">
        <ele>154.499</ele>
        <time>2015-08-16T11:08:23Z</time>
      </trkpt>
      <trkpt lat="37.20254" lon="-8.68499">
        <ele>151.842</ele>
        <time>2015-08-16T11:08:38Z</time>
      </trkpt>
      <trkpt lat="37.20124" lon="-8.68322">
        <ele>151.23</ele>
        <time>2015-08-16T11:09:04Z</time>
      </trkpt>
      <trkpt lat="37.20045" lon="-8.68355">
        <ele>153.074</ele>
        <time>2015-08-16T11:09:40Z</time>
      </trkpt>
      <trkpt lat="37.19971" lon="-8.68362">
        <ele>147.748</ele>
        <time>2015-08-16T11:09:59Z</time>
      </trkpt>
      <trkpt lat="37.19846" lon="-8.6851">
        <ele>134.761</ele>
        <time>2015-08-16T11:10:39Z</time>
      </trkpt>
      <trkpt lat="37.19816" lon="-8.68591">
        <ele>135.017</ele>
        <time>2015-08-16T11:10:49Z</time>
      </trkpt>
      <trkpt lat="37.19806" lon="-8.68608">
        <ele>134.108</ele>
        <time>2015-08-16T11:10:52Z</time>
      </trkpt>
      <trkpt lat="37.19737" lon="-8.68619">
        <ele>122.075</ele>
        <time>2015-08-16T11:11:06Z</time>
      </trkpt>
      <trkpt lat="37.19681" lon="-8.68722">
        <ele>120.034</ele>
        <time>2015-08-16T11:11:20Z</time>
      </trkpt>
      <trkpt lat="37.19672" lon="-8.68787">
        <ele>116.222</ele>
        <time>2015-08-16T11:11:33Z</time>
      </trkpt>
      <trkpt lat="37.19562" lon="-8.68753">
        <ele>103.061</ele>
        <time>2015-08-16T11:11:51Z</time>
      </trkpt>
      <trkpt lat="37.1948" lon="-8.68768">
        <ele>92.431</ele>
        <time>2015-08-16T11:12:05Z</time>
      </trkpt>
      <trkpt lat="37.19459" lon="-8.68681">
        <ele>82.174</ele>
        <time>2015-08-16T11:12:15Z</time>
      </trkpt>
      <trkpt lat="37.19478" lon="-8.68629">
        <ele>78.292</ele>
        <time>2015-08-16T11:12:22Z</time>
      </trkpt>
      <trkpt lat="37.19481" lon="-8.68597">
        <ele>75.026</ele>
        <time>2015-08-16T11:12:26Z</time>
      </trkpt>
      <trkpt lat="37.19349" lon="-8.68555">
        <ele>65.536</ele>
        <time>2015-08-16T11:12:43Z</time>
      </trkpt>
      <trkpt lat="37.1928" lon="-8.6862">
        <ele>59.217</ele>
        <time>2015-08-16T11:12:55Z</time>
      </trkpt>
      <trkpt lat="37.19285" lon="-8.68669">
        <ele>56.018</ele>
        <time>2015-08-16T11:13:01Z</time>
      </trkpt>
      <trkpt lat="37.19314" lon="-8.68807">
        <ele>62.108</ele>
        <time>2015-08-16T11:13:27Z</time>
      </trkpt>
      <trkpt lat="37.19303" lon="-8.68959">
        <ele>56.654</ele>
        <time>2015-08-16T11:13:50Z</time>
      </trkpt>
      <trkpt lat="37.19299" lon="-8.69047">
        <ele>48.973</ele>
        <time>2015-08-16T11:13:58Z</time>
      </trkpt>
      <trkpt lat="37.19275" lon="-8.69111">
        <ele>46.511</ele>
        <time>2015-08-16T11:14:09Z</time>
      </trkpt>
      <trkpt lat="37.19191" lon="-8.69204">
        <ele>40.01</ele>
        <time>2015-08-16T11:14:48Z</time>
      </trkpt>
      <trkpt lat="37.19101" lon="-8.69201">
        <ele>53.25</ele>
        <time>2015-08-16T11:15:01Z</time>
      </trkpt>
      <trkpt lat="37.19061" lon="-8.69257">
        <ele>50.073</ele>
        <time>2015-08-16T11:15:08Z</time>
      </trkpt>
      <trkpt lat="37.18976" lon="-8.69397">
        <ele>39.511</ele>
        <time>2015-08-16T11:15:23Z</time>
      </trkpt>
      <trkpt lat="37.18896" lon="-8.69294">
        <ele>44.955</ele>
        <time>2015-08-16T11:15:39Z</time>
      </trkpt>
      <trkpt lat="37.18862" lon="-8.69295">
        <ele>41.487</ele>
        <time>2015-08-16T11:15:49Z</time>
      </trkpt>
      <trkpt lat="37.18856" lon="-8.69321">
        <ele>35.842</ele>
        <time>2015-08-16T11:15:57Z</time>
      </trkpt>
      <trkpt lat="37.18731" lon="-8.69268">
        <ele>32.726</ele>
        <time>2015-08-16T11:16:23Z</time>
      </trkpt>
      <trkpt lat="37.18342" lon="-8.69458">
        <ele>34.608</ele>
        <time>2015-08-16T11:17:08Z</time>
      </trkpt>
      <trkpt lat="37.18265" lon="-8.69498">
        <ele>33.789</ele>
        <time>2015-08-16T11:17:14Z</time>
      </trkpt>
      <trkpt lat="37.18084" lon="-8.69497">
        <ele>33.488</ele>
        <time>2015-08-16T11:17:27Z</time>
      </trkpt>
      <trkpt lat="37.17985" lon="-8.69557">
        <ele>34.546</ele>
        <time>2015-08-16T11:17:35Z</time>
      </trkpt>
      <trkpt lat="37.17802" lon="-8.69764">
        <ele>31.945</ele>
        <time>2015-08-16T11:17:51Z</time>
      </trkpt>
      <trkpt lat="37.17695" lon="-8.69823">
        <ele>31.315</ele>
        <time>2015-08-16T11:17:59Z</time>
      </trkpt>
      <trkpt lat="37.17677" lon="-8.69835">
        <ele>30.888</ele>
        <time>2015-08-16T11:18:09Z</time>
      </trkpt>
      <trkpt lat="37.17445" lon="-8.69759">
        <ele>21.666</ele>
        <time>2015-08-16T11:18:49Z</time>
      </trkpt>
      <trkpt lat="37.17328" lon="-8.69833">
        <ele>27.42</ele>
        <time>2015-08-16T11:19:21Z</time>
      </trkpt>
      <trkpt lat="37.17004" lon="-8.7016">
        <ele>35.829</ele>
        <time>2015-08-16T11:19:54Z</time>
      </trkpt>
      <trkpt lat="37.16928" lon="-8.70288">
        <ele>41.3</ele>
        <time>2015-08-16T11:20:03Z</time>
      </trkpt>
      <trkpt lat="37.16757" lon="-8.70428">
        <ele>47.02</ele>
        <time>2015-08-16T11:20:21Z</time>
      </trkpt>
      <trkpt lat="37.16695" lon="-8.7052">
        <ele>50.508</ele>
        <time>2015-08-16T11:20:29Z</time>
      </trkpt>
      <trkpt lat="37.16581" lon="-8.70621">
        <ele>54.093</ele>
        <time>2015-08-16T11:20:41Z</time>
      </trkpt>
      <trkpt lat="37.16206" lon="-8.7093">
        <ele>48.452</ele>
        <time>2015-08-16T11:21:18Z</time>
      </trkpt>
      <trkpt lat="37.16077" lon="-8.7098">
        <ele>56.87</ele>
        <time>2015-08-16T11:21:28Z</time>
      </trkpt>
      <trkpt lat="37.16031" lon="-8.7104">
        <ele>60.869</ele>
        <time>2015-08-16T11:21:33Z</time>
      </trkpt>
      <trkpt lat="37.15912" lon="-8.71168">
        <ele>62.359</ele>
        <time>2015-08-16T11:21:44Z</time>
      </trkpt>
      <trkpt lat="37.15856" lon="-8.71206">
        <ele>62.242</ele>
        <time>2015-08-16T11:21:48Z</time>
      </trkpt>
      <trkpt lat="37.1574" lon="-8.71286">
        <ele>57.05</ele>
        <time>2015-08-16T11:21:55Z</time>
      </trkpt>
      <trkpt lat="37.15544" lon="-8.71424">
        <ele>47.194</ele>
        <time>2015-08-16T11:22:07Z</time>
      </trkpt>
      <trkpt lat="37.15497" lon="-8.71488">
        <ele>38.674</ele>
        <time>2015-08-16T11:22:11Z</time>
      </trkpt>
      <trkpt lat="37.15447" lon="-8.71582">
        <ele>33.356</ele>
        <time>2015-08-16T11:22:16Z</time>
      </trkpt>
      <trkpt lat="37.15378" lon="-8.7168">
        <ele>22.121</ele>
        <time>2015-08-16T11:22:22Z</time>
      </trkpt>
      <trkpt lat="37.15133" lon="-8.7176">
        <ele>14.108</ele>
        <time>2015-08-16T11:22:38Z</time>
      </trkpt>
      <trkpt lat="37.15004" lon="-8.71798">
        <ele>13.658</ele>
        <time>2015-08-16T11:22:52Z</time>
      </trkpt>
      <trkpt lat="37.14996" lon="-8.71807">
        <ele>14.237</ele>
        <time>2015-08-16T11:22:56Z</time>
      </trkpt>
      <trkpt lat="37.14979" lon="-8.7181">
        <ele>14.915</ele>
        <time>2015-08-16T11:23:05Z</time>
      </trkpt>
      <trkpt lat="37.14946" lon="-8.71753">
        <ele>15.114</ele>
        <time>2015-08-16T11:23:11Z</time>
      </trkpt>
      <trkpt lat="37.14851" lon="-8.7163">
        <ele>16.244</ele>
        <time>2015-08-16T11:23:19Z</time>
      </trkpt>
      <trkpt lat="37.14837" lon="-8.71613">
        <ele>15.037</ele>
        <time>2015-08-16T11:23:20Z</time>
      </trkpt>
      <trkpt lat="37.14451" lon="-8.71173">
        <ele>12.875</ele>
        <time>2015-08-16T11:23:46Z</time>
      </trkpt>
      <trkpt lat="37.14336" lon="-8.70985">
        <ele>15.549</ele>
        <time>2015-08-16T11:23:56Z</time>
      </trkpt>
      <trkpt lat="37.14314" lon="-8.70954">
        <ele>13.758</ele>
        <time>2015-08-16T11:23:58Z</time>
      </trkpt>
      <trkpt lat="37.14203" lon="-8.70892">
        <ele>9.252</ele>
        <time>2015-08-16T11:24:06Z</time>
      </trkpt>
      <trkpt lat="37.13741" lon="-8.70245">
        <ele>13.417</ele>
        <time>2015-08-16T11:24:42Z</time>
      </trkpt>
      <trkpt lat="37.13552" lon="-8.69945">
        <ele>12.408</ele>
        <time>2015-08-16T11:24:57Z</time>
      </trkpt>
      <trkpt lat="37.13385" lon="-8.69822">
        <ele>10.826</ele>
        <time>2015-08-16T11:25:07Z</time>
      </trkpt>
      <trkpt lat="37.13165" lon="-8.69715">
        <ele>12.765</ele>
        <time>2015-08-16T11:25:19Z</time>
      </trkpt>
      <trkpt lat="37.13" lon="-8.69717">
        <ele>9.553</ele>
        <time>2015-08-16T11:25:28Z</time>
      </trkpt>
      <trkpt lat="37.12932" lon="-8.6968">
        <ele>1.712</ele>
        <time>2015-08-16T11:25:32Z</time>
      </trkpt>
      <trkpt lat="37.12811" lon="-8.69524">
        <ele>3.852</ele>
        <time>2015-08-16T11:25:41Z</time>
      </trkpt>
      <trkpt lat="37.12705" lon="-8.69493">
        <ele>6.935</ele>
        <time>2015-08-16T11:25:47Z</time>
      </trkpt>
      <trkpt lat="37.12654" lon="-8.69507">
        <ele>7.213</ele>
        <time>2015-08-16T11:25:50Z</time>
      </trkpt>
      <trkpt lat="37.1251" lon="-8.69525">
        <ele>9.067</ele>
        <time>2015-08-16T11:25:59Z</time>
      </trkpt>
      <trkpt lat="37.12083" lon="-8.69317">
        <ele>15.059</ele>
        <time>2015-08-16T11:26:32Z</time>
      </trkpt>
      <trkpt lat="37.1181" lon="-8.69154">
        <ele>27.603</ele>
        <time>2015-08-16T11:26:50Z</time>
      </trkpt>
      <trkpt lat="37.11693" lon="-8.6891">
        <ele>46.823</ele>
        <time>2015-08-16T11:27:04Z</time>
      </trkpt>
      <trkpt lat="37.11614" lon="-8.68769">
        <ele>41.408</ele>
        <time>2015-08-16T11:27:13Z</time>
      </trkpt>
      <trkpt lat="37.11579" lon="-8.68672">
        <ele>28.776</ele>
        <time>2015-08-16T11:27:19Z</time>
      </trkpt>
      <trkpt lat="37.11432" lon="-8.68607">
        <ele>23.115</ele>
        <time>2015-08-16T11:27:31Z</time>
      </trkpt>
      <trkpt lat="37.11353" lon="-8.68392">
        <ele>16.283</ele>
        <time>2015-08-16T11:27:45Z</time>
      </trkpt>
      <trkpt lat="37.11294" lon="-8.68204">
        <ele>6.272</ele>
        <time>2015-08-16T11:28:00Z</time>
      </trkpt>
      <trkpt lat="37.11278" lon="-8.68181">
        <ele>5.042</ele>
        <time>2015-08-16T11:28:04Z</time>
      </trkpt>
      <trkpt lat="37.11107" lon="-8.68117">
        <ele>2.115</ele>
        <time>2015-08-16T11:28:42Z</time>
      </trkpt>
      <trkpt lat="37.11124" lon="-8.68046">
        <ele>1.943</ele>
        <time>2015-08-16T11:28:53Z</time>
      </trkpt>
      <trkpt lat="37.11097" lon="-8.67958">
        <ele>0.847</ele>
        <time>2015-08-16T11:29:02Z</time>
      </trkpt>
      <trkpt lat="37.11039" lon="-8.67781">
        <ele>3.634</ele>
        <time>2015-08-16T11:29:18Z</time>
      </trkpt>
      <trkpt lat="37.10995" lon="-8.67693">
        <ele>0.955</ele>
        <time>2015-08-16T11:29:33Z</time>
      </trkpt>
      <trkpt lat="37.10211" lon="-8.67125">
        <ele>1.81</ele>
        <time>2015-08-16T11:33:20Z</time>
      </trkpt>
      <trkpt lat="37.10101" lon="-8.67024">
        <ele>2.408</ele>
        <time>2015-08-16T11:33:33Z</time>
      </trkpt>
      <trkpt lat="37.10058" lon="-8.67098">
        <ele>7.684</ele>
        <time>2015-08-16T11:34:00Z</time>
      </trkpt>
      <trkpt lat="37.10056" lon="-8.67102">
        <ele>8.033</ele>
        <time>2015-08-16T11:35:33Z</time>
      </trkpt>
    </trkseg>
  </trk>
</gpx>